<?xml version="1.0" encoding="UTF-8" standalone="no" ?>
<gpx xmlns="http://www.topografix.com/GPX/1/1" xmlns:xsi="http://www.w3.org/2001/XMLSchema-instance" xsi:schemaLocation="http://www.topografix.com/GPX/1/1 http://www.topografix.com/GPX/1/1/gpx.xsd" version="1.1" creator="VisuGPX - https://www.visugpx.com">
  <metadata>
    <name>Circuit été 2021 Jura</name>
  </metadata>
  <trk>
    <name><![CDATA[Circuit été 2021]]></name>
    <trkseg>
      <trkpt lat="46.78895" lon="4.85307">
        <ele>189.31666</ele>
        <time>2021-04-28T19:38:57.479Z</time>
      </trkpt>
      <trkpt lat="46.78888" lon="4.85315">
        <ele>189.31666</ele>
        <time>2021-04-28T19:39:00.075Z</time>
      </trkpt>
      <trkpt lat="46.78893" lon="4.85325">
        <ele>189.31666</ele>
        <time>2021-04-28T19:39:03.342Z</time>
      </trkpt>
      <trkpt lat="46.789" lon="4.85336">
        <ele>189.31666</ele>
        <time>2021-04-28T19:39:06.995Z</time>
      </trkpt>
      <trkpt lat="46.78911" lon="4.85347">
        <ele>189.31666</ele>
        <time>2021-04-28T19:39:11.969Z</time>
      </trkpt>
      <trkpt lat="46.78921" lon="4.85357">
        <ele>189.31666</ele>
        <time>2021-04-28T19:39:16.691Z</time>
      </trkpt>
      <trkpt lat="46.78984" lon="4.85398">
        <ele>189.535271</ele>
        <time>2021-04-28T19:39:42.058Z</time>
      </trkpt>
      <trkpt lat="46.78997" lon="4.85394">
        <ele>189.628344</ele>
        <time>2021-04-28T19:39:47.010Z</time>
      </trkpt>
      <trkpt lat="46.79015" lon="4.85404">
        <ele>189.764466</ele>
        <time>2021-04-28T19:39:54.721Z</time>
      </trkpt>
      <trkpt lat="46.79007" lon="4.8544">
        <ele>189.94167</ele>
        <time>2021-04-28T19:40:02.867Z</time>
      </trkpt>
      <trkpt lat="46.79005" lon="4.85447">
        <ele>189.976223</ele>
        <time>2021-04-28T19:40:04.475Z</time>
      </trkpt>
      <trkpt lat="46.78999" lon="4.85476">
        <ele>190.121347</ele>
        <time>2021-04-28T19:40:11.164Z</time>
      </trkpt>
      <trkpt lat="46.78998" lon="4.85483">
        <ele>190.153197</ele>
        <time>2021-04-28T19:40:12.711Z</time>
      </trkpt>
      <trkpt lat="46.78995" lon="4.85522">
        <ele>190.338437</ele>
        <time>2021-04-28T19:40:21.453Z</time>
      </trkpt>
      <trkpt lat="46.78995" lon="4.85529">
        <ele>190.370544</ele>
        <time>2021-04-28T19:40:22.956Z</time>
      </trkpt>
      <trkpt lat="46.78999" lon="4.85529">
        <ele>190.40023</ele>
        <time>2021-04-28T19:40:24.386Z</time>
      </trkpt>
      <trkpt lat="46.79023" lon="4.85533">
        <ele>190.557254</ele>
        <time>2021-04-28T19:40:32.161Z</time>
      </trkpt>
      <trkpt lat="46.7906" lon="4.85538">
        <ele>190.601544</ele>
        <time>2021-04-28T19:40:43.401Z</time>
      </trkpt>
      <trkpt lat="46.79062" lon="4.85538">
        <ele>190.603604</ele>
        <time>2021-04-28T19:40:43.907Z</time>
      </trkpt>
      <trkpt lat="46.79067" lon="4.85539">
        <ele>190.609871</ele>
        <time>2021-04-28T19:40:45.466Z</time>
      </trkpt>
      <trkpt lat="46.79064" lon="4.8555">
        <ele>190.619127</ele>
        <time>2021-04-28T19:40:47.679Z</time>
      </trkpt>
      <trkpt lat="46.79062" lon="4.85559">
        <ele>190.626895</ele>
        <time>2021-04-28T19:40:49.505Z</time>
      </trkpt>
      <trkpt lat="46.79068" lon="4.85562">
        <ele>190.633902</ele>
        <time>2021-04-28T19:40:51.280Z</time>
      </trkpt>
      <trkpt lat="46.79072" lon="4.85564">
        <ele>190.639349</ele>
        <time>2021-04-28T19:40:52.541Z</time>
      </trkpt>
      <trkpt lat="46.79103" lon="4.85582">
        <ele>190.679108</ele>
        <time>2021-04-28T19:41:01.878Z</time>
      </trkpt>
      <trkpt lat="46.79116" lon="4.85591">
        <ele>190.696432</ele>
        <time>2021-04-28T19:41:06.056Z</time>
      </trkpt>
      <trkpt lat="46.79166" lon="4.85622">
        <ele>190.762575</ele>
        <time>2021-04-28T19:41:21.052Z</time>
      </trkpt>
      <trkpt lat="46.7923" lon="4.85664">
        <ele>190.224155</ele>
        <time>2021-04-28T19:41:38.380Z</time>
      </trkpt>
      <trkpt lat="46.79226" lon="4.8568">
        <ele>190.124103</ele>
        <time>2021-04-28T19:41:41.166Z</time>
      </trkpt>
      <trkpt lat="46.79222" lon="4.85702">
        <ele>189.983033</ele>
        <time>2021-04-28T19:41:44.956Z</time>
      </trkpt>
      <trkpt lat="46.79222" lon="4.85715">
        <ele>189.904554</ele>
        <time>2021-04-28T19:41:47.120Z</time>
      </trkpt>
      <trkpt lat="46.79239" lon="4.85707">
        <ele>189.75575</ele>
        <time>2021-04-28T19:41:51.132Z</time>
      </trkpt>
      <trkpt lat="46.79246" lon="4.85704">
        <ele>189.683193</ele>
        <time>2021-04-28T19:41:53.063Z</time>
      </trkpt>
      <trkpt lat="46.79252" lon="4.85703">
        <ele>189.631443</ele>
        <time>2021-04-28T19:41:54.573Z</time>
      </trkpt>
      <trkpt lat="46.79256" lon="4.85703">
        <ele>189.601729</ele>
        <time>2021-04-28T19:41:55.375Z</time>
      </trkpt>
      <trkpt lat="46.79264" lon="4.85704">
        <ele>189.528207</ele>
        <time>2021-04-28T19:41:57.421Z</time>
      </trkpt>
      <trkpt lat="46.79273" lon="4.85705">
        <ele>189.447681</ele>
        <time>2021-04-28T19:41:59.681Z</time>
      </trkpt>
      <trkpt lat="46.79282" lon="4.85708">
        <ele>189.372244</ele>
        <time>2021-04-28T19:42:01.643Z</time>
      </trkpt>
      <trkpt lat="46.79285" lon="4.85709">
        <ele>189.344414</ele>
        <time>2021-04-28T19:42:02.404Z</time>
      </trkpt>
      <trkpt lat="46.79324" lon="4.85723">
        <ele>189.059319</ele>
        <time>2021-04-28T19:42:12.203Z</time>
      </trkpt>
      <trkpt lat="46.79327" lon="4.85724">
        <ele>189.043399</ele>
        <time>2021-04-28T19:42:12.822Z</time>
      </trkpt>
      <trkpt lat="46.79333" lon="4.85726">
        <ele>189.002877</ele>
        <time>2021-04-28T19:42:14.441Z</time>
      </trkpt>
      <trkpt lat="46.79342" lon="4.85731">
        <ele>188.945767</ele>
        <time>2021-04-28T19:42:16.827Z</time>
      </trkpt>
      <trkpt lat="46.79359" lon="4.85741">
        <ele>188.839949</ele>
        <time>2021-04-28T19:42:21.227Z</time>
      </trkpt>
      <trkpt lat="46.79364" lon="4.85745">
        <ele>188.804751</ele>
        <time>2021-04-28T19:42:22.577Z</time>
      </trkpt>
      <trkpt lat="46.79373" lon="4.8575">
        <ele>188.749363</ele>
        <time>2021-04-28T19:42:24.805Z</time>
      </trkpt>
      <trkpt lat="46.7939" lon="4.8576">
        <ele>188.637553</ele>
        <time>2021-04-28T19:42:29.396Z</time>
      </trkpt>
      <trkpt lat="46.7941" lon="4.85773">
        <ele>188.508591</ele>
        <time>2021-04-28T19:42:34.713Z</time>
      </trkpt>
      <trkpt lat="46.7943" lon="4.85783">
        <ele>188.378303</ele>
        <time>2021-04-28T19:42:40.089Z</time>
      </trkpt>
      <trkpt lat="46.7945" lon="4.85788">
        <ele>188.261271</ele>
        <time>2021-04-28T19:42:45.266Z</time>
      </trkpt>
      <trkpt lat="46.79458" lon="4.8579">
        <ele>188.211861</ele>
        <time>2021-04-28T19:42:47.371Z</time>
      </trkpt>
      <trkpt lat="46.79463" lon="4.85792">
        <ele>188.180783</ele>
        <time>2021-04-28T19:42:48.669Z</time>
      </trkpt>
      <trkpt lat="46.79469" lon="4.85794">
        <ele>188.142283</ele>
        <time>2021-04-28T19:42:50.278Z</time>
      </trkpt>
      <trkpt lat="46.7951" lon="4.85807">
        <ele>187.549674</ele>
        <time>2021-04-28T19:43:01.108Z</time>
      </trkpt>
      <trkpt lat="46.79538" lon="4.85816">
        <ele>187.130192</ele>
        <time>2021-04-28T19:43:08.066Z</time>
      </trkpt>
      <trkpt lat="46.79548" lon="4.85817">
        <ele>186.994138</ele>
        <time>2021-04-28T19:43:10.225Z</time>
      </trkpt>
      <trkpt lat="46.79559" lon="4.85818">
        <ele>186.833627</ele>
        <time>2021-04-28T19:43:12.743Z</time>
      </trkpt>
      <trkpt lat="46.79561" lon="4.85818">
        <ele>186.791329</ele>
        <time>2021-04-28T19:43:13.466Z</time>
      </trkpt>
      <trkpt lat="46.79568" lon="4.85818">
        <ele>186.700872</ele>
        <time>2021-04-28T19:43:14.986Z</time>
      </trkpt>
      <trkpt lat="46.79579" lon="4.85819">
        <ele>186.538966</ele>
        <time>2021-04-28T19:43:17.611Z</time>
      </trkpt>
      <trkpt lat="46.79617" lon="4.85819">
        <ele>185.983401</ele>
        <time>2021-04-28T19:43:26.087Z</time>
      </trkpt>
      <trkpt lat="46.79621" lon="4.85819">
        <ele>185.925826</ele>
        <time>2021-04-28T19:43:26.865Z</time>
      </trkpt>
      <trkpt lat="46.79621" lon="4.85823">
        <ele>185.885869</ele>
        <time>2021-04-28T19:43:27.406Z</time>
      </trkpt>
      <trkpt lat="46.79626" lon="4.85832">
        <ele>185.77084</ele>
        <time>2021-04-28T19:43:29.043Z</time>
      </trkpt>
      <trkpt lat="46.79629" lon="4.85832">
        <ele>185.729817</ele>
        <time>2021-04-28T19:43:29.631Z</time>
      </trkpt>
      <trkpt lat="46.79629" lon="4.85838">
        <ele>185.668906</ele>
        <time>2021-04-28T19:43:30.576Z</time>
      </trkpt>
      <trkpt lat="46.79629" lon="4.8585">
        <ele>185.55211</ele>
        <time>2021-04-28T19:43:32.356Z</time>
      </trkpt>
      <trkpt lat="46.79633" lon="4.8585">
        <ele>185.491711</ele>
        <time>2021-04-28T19:43:33.159Z</time>
      </trkpt>
      <trkpt lat="46.79632" lon="4.85868">
        <ele>185.141375</ele>
        <time>2021-04-28T19:43:35.701Z</time>
      </trkpt>
      <trkpt lat="46.79633" lon="4.85961">
        <ele>183.386377</ele>
        <time>2021-04-28T19:43:49.000Z</time>
      </trkpt>
      <trkpt lat="46.79632" lon="4.86079">
        <ele>181.129677</ele>
        <time>2021-04-28T19:44:05.814Z</time>
      </trkpt>
      <trkpt lat="46.79634" lon="4.86144">
        <ele>180.160992</ele>
        <time>2021-04-28T19:44:15.303Z</time>
      </trkpt>
      <trkpt lat="46.79647" lon="4.8624">
        <ele>179.110521</ele>
        <time>2021-04-28T19:44:30.240Z</time>
      </trkpt>
      <trkpt lat="46.7965" lon="4.86242">
        <ele>179.060674</ele>
        <time>2021-04-28T19:44:30.858Z</time>
      </trkpt>
      <trkpt lat="46.79659" lon="4.86248">
        <ele>178.913862</ele>
        <time>2021-04-28T19:44:33.051Z</time>
      </trkpt>
      <trkpt lat="46.7966" lon="4.86258">
        <ele>178.800624</ele>
        <time>2021-04-28T19:44:34.804Z</time>
      </trkpt>
      <trkpt lat="46.79662" lon="4.86274">
        <ele>178.62719</ele>
        <time>2021-04-28T19:44:37.509Z</time>
      </trkpt>
      <trkpt lat="46.79664" lon="4.86287">
        <ele>178.477108</ele>
        <time>2021-04-28T19:44:39.642Z</time>
      </trkpt>
      <trkpt lat="46.79668" lon="4.86282">
        <ele>178.399124</ele>
        <time>2021-04-28T19:44:40.847Z</time>
      </trkpt>
      <trkpt lat="46.79771" lon="4.86235">
        <ele>177.659983</ele>
        <time>2021-04-28T19:45:09.252Z</time>
      </trkpt>
      <trkpt lat="46.79873" lon="4.86197">
        <ele>177.605454</ele>
        <time>2021-04-28T19:45:39.920Z</time>
      </trkpt>
      <trkpt lat="46.7993" lon="4.86199">
        <ele>177.514898</ele>
        <time>2021-04-28T19:45:55.381Z</time>
      </trkpt>
      <trkpt lat="46.79966" lon="4.86219">
        <ele>177.444258</ele>
        <time>2021-04-28T19:46:05.737Z</time>
      </trkpt>
      <trkpt lat="46.79967" lon="4.86214">
        <ele>177.437417</ele>
        <time>2021-04-28T19:46:07.085Z</time>
      </trkpt>
      <trkpt lat="46.7997" lon="4.86208">
        <ele>177.428571</ele>
        <time>2021-04-28T19:46:08.319Z</time>
      </trkpt>
      <trkpt lat="46.79977" lon="4.86206">
        <ele>177.413898</ele>
        <time>2021-04-28T19:46:10.516Z</time>
      </trkpt>
      <trkpt lat="46.79981" lon="4.86201">
        <ele>177.404371</ele>
        <time>2021-04-28T19:46:11.750Z</time>
      </trkpt>
      <trkpt lat="46.79982" lon="4.862">
        <ele>177.40211</ele>
        <time>2021-04-28T19:46:12.052Z</time>
      </trkpt>
      <trkpt lat="46.79985" lon="4.86196">
        <ele>177.394259</ele>
        <time>2021-04-28T19:46:13.154Z</time>
      </trkpt>
      <trkpt lat="46.7998" lon="4.86187">
        <ele>177.380433</ele>
        <time>2021-04-28T19:46:15.038Z</time>
      </trkpt>
      <trkpt lat="46.79978" lon="4.86175">
        <ele>177.364655</ele>
        <time>2021-04-28T19:46:17.648Z</time>
      </trkpt>
      <trkpt lat="46.79985" lon="4.86165">
        <ele>177.347422</ele>
        <time>2021-04-28T19:46:20.171Z</time>
      </trkpt>
      <trkpt lat="46.7999" lon="4.86164">
        <ele>177.337063</ele>
        <time>2021-04-28T19:46:21.500Z</time>
      </trkpt>
      <trkpt lat="46.8004" lon="4.86155">
        <ele>177.256413</ele>
        <time>2021-04-28T19:46:34.633Z</time>
      </trkpt>
      <trkpt lat="46.80079" lon="4.86148">
        <ele>177.226042</ele>
        <time>2021-04-28T19:46:45.029Z</time>
      </trkpt>
      <trkpt lat="46.80102" lon="4.86145">
        <ele>177.208063</ele>
        <time>2021-04-28T19:46:50.950Z</time>
      </trkpt>
      <trkpt lat="46.8011" lon="4.86145">
        <ele>177.202193</ele>
        <time>2021-04-28T19:46:52.923Z</time>
      </trkpt>
      <trkpt lat="46.80196" lon="4.86152">
        <ele>177.135936</ele>
        <time>2021-04-28T19:47:17.400Z</time>
      </trkpt>
      <trkpt lat="46.80198" lon="4.86152">
        <ele>177.134285</ele>
        <time>2021-04-28T19:47:17.949Z</time>
      </trkpt>
      <trkpt lat="46.80199" lon="4.86151">
        <ele>177.133132</ele>
        <time>2021-04-28T19:47:18.372Z</time>
      </trkpt>
      <trkpt lat="46.80201" lon="4.86147">
        <ele>177.130502</ele>
        <time>2021-04-28T19:47:19.389Z</time>
      </trkpt>
      <trkpt lat="46.80202" lon="4.86144">
        <ele>177.128544</ele>
        <time>2021-04-28T19:47:20.067Z</time>
      </trkpt>
      <trkpt lat="46.80202" lon="4.86138">
        <ele>177.135211</ele>
        <time>2021-04-28T19:47:21.092Z</time>
      </trkpt>
      <trkpt lat="46.80218" lon="4.86138">
        <ele>177.238564</ele>
        <time>2021-04-28T19:47:25.769Z</time>
      </trkpt>
      <trkpt lat="46.80261" lon="4.86139">
        <ele>177.522135</ele>
        <time>2021-04-28T19:47:38.090Z</time>
      </trkpt>
      <trkpt lat="46.80306" lon="4.86142">
        <ele>177.826456</ele>
        <time>2021-04-28T19:47:51.404Z</time>
      </trkpt>
      <trkpt lat="46.80339" lon="4.86144">
        <ele>178.041341</ele>
        <time>2021-04-28T19:48:01.549Z</time>
      </trkpt>
      <trkpt lat="46.80351" lon="4.86144">
        <ele>178.124156</ele>
        <time>2021-04-28T19:48:05.604Z</time>
      </trkpt>
      <trkpt lat="46.8036" lon="4.86144">
        <ele>178.179264</ele>
        <time>2021-04-28T19:48:08.280Z</time>
      </trkpt>
      <trkpt lat="46.80364" lon="4.86151">
        <ele>178.222141</ele>
        <time>2021-04-28T19:48:10.517Z</time>
      </trkpt>
      <trkpt lat="46.80385" lon="4.86144">
        <ele>178.391889</ele>
        <time>2021-04-28T19:48:17.677Z</time>
      </trkpt>
      <trkpt lat="46.80465" lon="4.86147">
        <ele>179.306553</ele>
        <time>2021-04-28T19:48:44.434Z</time>
      </trkpt>
      <trkpt lat="46.80469" lon="4.86148">
        <ele>179.355625</ele>
        <time>2021-04-28T19:48:45.884Z</time>
      </trkpt>
      <trkpt lat="46.80488" lon="4.86152">
        <ele>179.579021</ele>
        <time>2021-04-28T19:48:52.895Z</time>
      </trkpt>
      <trkpt lat="46.80586" lon="4.86187">
        <ele>180.558747</ele>
        <time>2021-04-28T19:49:25.540Z</time>
      </trkpt>
      <trkpt lat="46.80593" lon="4.86187">
        <ele>180.597517</ele>
        <time>2021-04-28T19:49:28.042Z</time>
      </trkpt>
      <trkpt lat="46.806" lon="4.86189">
        <ele>180.641998</ele>
        <time>2021-04-28T19:49:30.271Z</time>
      </trkpt>
      <trkpt lat="46.80604" lon="4.86187">
        <ele>180.667797</ele>
        <time>2021-04-28T19:49:31.526Z</time>
      </trkpt>
      <trkpt lat="46.80607" lon="4.86193">
        <ele>180.696381</ele>
        <time>2021-04-28T19:49:32.959Z</time>
      </trkpt>
      <trkpt lat="46.80615" lon="4.862">
        <ele>180.753828</ele>
        <time>2021-04-28T19:49:35.716Z</time>
      </trkpt>
      <trkpt lat="46.8062" lon="4.86202">
        <ele>180.782485</ele>
        <time>2021-04-28T19:49:37.260Z</time>
      </trkpt>
      <trkpt lat="46.80627" lon="4.86201">
        <ele>180.823489</ele>
        <time>2021-04-28T19:49:39.648Z</time>
      </trkpt>
      <trkpt lat="46.80633" lon="4.86198">
        <ele>180.864767</ele>
        <time>2021-04-28T19:49:41.627Z</time>
      </trkpt>
      <trkpt lat="46.80643" lon="4.86201">
        <ele>180.925555</ele>
        <time>2021-04-28T19:49:44.361Z</time>
      </trkpt>
      <trkpt lat="46.80645" lon="4.86202">
        <ele>180.937846</ele>
        <time>2021-04-28T19:49:44.893Z</time>
      </trkpt>
      <trkpt lat="46.8065" lon="4.86205">
        <ele>180.96588</ele>
        <time>2021-04-28T19:49:46.100Z</time>
      </trkpt>
      <trkpt lat="46.80667" lon="4.86218">
        <ele>181.081248</ele>
        <time>2021-04-28T19:49:51.912Z</time>
      </trkpt>
      <trkpt lat="46.80681" lon="4.86223">
        <ele>181.167888</ele>
        <time>2021-04-28T19:49:56.024Z</time>
      </trkpt>
      <trkpt lat="46.80699" lon="4.86232">
        <ele>181.283067</ele>
        <time>2021-04-28T19:50:01.978Z</time>
      </trkpt>
      <trkpt lat="46.80732" lon="4.86255">
        <ele>181.420357</ele>
        <time>2021-04-28T19:50:12.345Z</time>
      </trkpt>
      <trkpt lat="46.80743" lon="4.86265">
        <ele>181.391315</ele>
        <time>2021-04-28T19:50:15.689Z</time>
      </trkpt>
      <trkpt lat="46.80762" lon="4.8628">
        <ele>181.342458</ele>
        <time>2021-04-28T19:50:21.370Z</time>
      </trkpt>
      <trkpt lat="46.80777" lon="4.86293">
        <ele>181.302951</ele>
        <time>2021-04-28T19:50:25.781Z</time>
      </trkpt>
      <trkpt lat="46.80791" lon="4.86307">
        <ele>181.265068</ele>
        <time>2021-04-28T19:50:29.996Z</time>
      </trkpt>
      <trkpt lat="46.80797" lon="4.86312">
        <ele>181.250777</ele>
        <time>2021-04-28T19:50:31.605Z</time>
      </trkpt>
      <trkpt lat="46.80801" lon="4.86317">
        <ele>181.238854</ele>
        <time>2021-04-28T19:50:32.905Z</time>
      </trkpt>
      <trkpt lat="46.80804" lon="4.86322">
        <ele>181.228303</ele>
        <time>2021-04-28T19:50:34.093Z</time>
      </trkpt>
      <trkpt lat="46.80821" lon="4.86342">
        <ele>181.179704</ele>
        <time>2021-04-28T19:50:39.559Z</time>
      </trkpt>
      <trkpt lat="46.80835" lon="4.86359">
        <ele>181.1378</ele>
        <time>2021-04-28T19:50:44.156Z</time>
      </trkpt>
      <trkpt lat="46.80874" lon="4.86411">
        <ele>181.004466</ele>
        <time>2021-04-28T19:50:57.391Z</time>
      </trkpt>
      <trkpt lat="46.80953" lon="4.86515">
        <ele>180.536099</ele>
        <time>2021-04-28T19:51:23.991Z</time>
      </trkpt>
      <trkpt lat="46.80974" lon="4.86544">
        <ele>180.409109</ele>
        <time>2021-04-28T19:51:31.007Z</time>
      </trkpt>
      <trkpt lat="46.81" lon="4.86578">
        <ele>180.255574</ele>
        <time>2021-04-28T19:51:39.556Z</time>
      </trkpt>
      <trkpt lat="46.8101" lon="4.86592">
        <ele>180.23129</ele>
        <time>2021-04-28T19:51:42.982Z</time>
      </trkpt>
      <trkpt lat="46.81025" lon="4.86613">
        <ele>180.203378</ele>
        <time>2021-04-28T19:51:48.187Z</time>
      </trkpt>
      <trkpt lat="46.81062" lon="4.86673">
        <ele>180.129896</ele>
        <time>2021-04-28T19:52:02.257Z</time>
      </trkpt>
      <trkpt lat="46.81125" lon="4.86798">
        <ele>179.928914</ele>
        <time>2021-04-28T19:52:31.769Z</time>
      </trkpt>
      <trkpt lat="46.81156" lon="4.86862">
        <ele>179.629793</ele>
        <time>2021-04-28T19:52:45.671Z</time>
      </trkpt>
      <trkpt lat="46.81164" lon="4.86879">
        <ele>179.551793</ele>
        <time>2021-04-28T19:52:48.984Z</time>
      </trkpt>
      <trkpt lat="46.81198" lon="4.86949">
        <ele>179.227432</ele>
        <time>2021-04-28T19:53:02.978Z</time>
      </trkpt>
      <trkpt lat="46.81197" lon="4.86951">
        <ele>179.220287</ele>
        <time>2021-04-28T19:53:03.331Z</time>
      </trkpt>
      <trkpt lat="46.81196" lon="4.86952">
        <ele>179.21249</ele>
        <time>2021-04-28T19:53:03.735Z</time>
      </trkpt>
      <trkpt lat="46.81196" lon="4.86956">
        <ele>179.200384</ele>
        <time>2021-04-28T19:53:04.358Z</time>
      </trkpt>
      <trkpt lat="46.81196" lon="4.86963">
        <ele>179.173122</ele>
        <time>2021-04-28T19:53:05.372Z</time>
      </trkpt>
      <trkpt lat="46.8119" lon="4.86983">
        <ele>179.089683</ele>
        <time>2021-04-28T19:53:08.987Z</time>
      </trkpt>
      <trkpt lat="46.81166" lon="4.87007">
        <ele>178.81422</ele>
        <time>2021-04-28T19:53:16.433Z</time>
      </trkpt>
      <trkpt lat="46.81162" lon="4.87012">
        <ele>178.746811</ele>
        <time>2021-04-28T19:53:17.460Z</time>
      </trkpt>
      <trkpt lat="46.8116" lon="4.87015">
        <ele>178.69556</ele>
        <time>2021-04-28T19:53:18.340Z</time>
      </trkpt>
      <trkpt lat="46.81155" lon="4.87037">
        <ele>178.484024</ele>
        <time>2021-04-28T19:53:22.614Z</time>
      </trkpt>
      <trkpt lat="46.81156" lon="4.87051">
        <ele>178.356757</ele>
        <time>2021-04-28T19:53:24.884Z</time>
      </trkpt>
      <trkpt lat="46.81162" lon="4.87073">
        <ele>178.140829</ele>
        <time>2021-04-28T19:53:28.578Z</time>
      </trkpt>
      <trkpt lat="46.81206" lon="4.87205">
        <ele>176.777129</ele>
        <time>2021-04-28T19:53:51.321Z</time>
      </trkpt>
      <trkpt lat="46.81218" lon="4.87252">
        <ele>176.43957</ele>
        <time>2021-04-28T19:53:59.576Z</time>
      </trkpt>
      <trkpt lat="46.81229" lon="4.87326">
        <ele>176.054119</ele>
        <time>2021-04-28T19:54:12.543Z</time>
      </trkpt>
      <trkpt lat="46.81235" lon="4.87388">
        <ele>175.737435</ele>
        <time>2021-04-28T19:54:23.295Z</time>
      </trkpt>
      <trkpt lat="46.81238" lon="4.87466">
        <ele>175.338861</ele>
        <time>2021-04-28T19:54:37.010Z</time>
      </trkpt>
      <trkpt lat="46.8124" lon="4.87531">
        <ele>175.23471</ele>
        <time>2021-04-28T19:54:48.784Z</time>
      </trkpt>
      <trkpt lat="46.81243" lon="4.87607">
        <ele>175.204684</ele>
        <time>2021-04-28T19:55:03.329Z</time>
      </trkpt>
      <trkpt lat="46.81246" lon="4.87633">
        <ele>175.194096</ele>
        <time>2021-04-28T19:55:08.602Z</time>
      </trkpt>
      <trkpt lat="46.81252" lon="4.87659">
        <ele>175.183039</ele>
        <time>2021-04-28T19:55:14.046Z</time>
      </trkpt>
      <trkpt lat="46.81265" lon="4.87701">
        <ele>175.165105</ele>
        <time>2021-04-28T19:55:22.886Z</time>
      </trkpt>
      <trkpt lat="46.81284" lon="4.87763">
        <ele>175.120452</ele>
        <time>2021-04-28T19:55:35.898Z</time>
      </trkpt>
      <trkpt lat="46.81308" lon="4.87839">
        <ele>175.03503</ele>
        <time>2021-04-28T19:55:51.638Z</time>
      </trkpt>
      <trkpt lat="46.81336" lon="4.87926">
        <ele>174.937126</ele>
        <time>2021-04-28T19:56:09.225Z</time>
      </trkpt>
      <trkpt lat="46.81346" lon="4.87958">
        <ele>174.901334</ele>
        <time>2021-04-28T19:56:15.539Z</time>
      </trkpt>
      <trkpt lat="46.81376" lon="4.8806">
        <ele>174.953467</ele>
        <time>2021-04-28T19:56:36.046Z</time>
      </trkpt>
      <trkpt lat="46.81407" lon="4.88142">
        <ele>175.026613</ele>
        <time>2021-04-28T19:56:54.666Z</time>
      </trkpt>
      <trkpt lat="46.81413" lon="4.88153">
        <ele>175.03764</ele>
        <time>2021-04-28T19:56:57.706Z</time>
      </trkpt>
      <trkpt lat="46.81427" lon="4.88177">
        <ele>175.062448</ele>
        <time>2021-04-28T19:57:04.028Z</time>
      </trkpt>
      <trkpt lat="46.81432" lon="4.88198">
        <ele>175.080125</ele>
        <time>2021-04-28T19:57:08.660Z</time>
      </trkpt>
      <trkpt lat="46.81432" lon="4.88212">
        <ele>175.084096</ele>
        <time>2021-04-28T19:57:11.645Z</time>
      </trkpt>
      <trkpt lat="46.81442" lon="4.88254">
        <ele>175.058775</ele>
        <time>2021-04-28T19:57:20.428Z</time>
      </trkpt>
      <trkpt lat="46.81463" lon="4.88342">
        <ele>175.005627</ele>
        <time>2021-04-28T19:57:38.573Z</time>
      </trkpt>
      <trkpt lat="46.81465" lon="4.88349">
        <ele>175.001293</ele>
        <time>2021-04-28T19:57:40.085Z</time>
      </trkpt>
      <trkpt lat="46.81465" lon="4.88356">
        <ele>174.997159</ele>
        <time>2021-04-28T19:57:41.816Z</time>
      </trkpt>
      <trkpt lat="46.81449" lon="4.88359">
        <ele>174.983553</ele>
        <time>2021-04-28T19:57:46.001Z</time>
      </trkpt>
      <trkpt lat="46.81384" lon="4.88376">
        <ele>174.858379</ele>
        <time>2021-04-28T19:58:03.018Z</time>
      </trkpt>
      <trkpt lat="46.81315" lon="4.88456">
        <ele>174.179233</ele>
        <time>2021-04-28T19:58:24.480Z</time>
      </trkpt>
      <trkpt lat="46.81286" lon="4.88492">
        <ele>173.883815</ele>
        <time>2021-04-28T19:58:33.866Z</time>
      </trkpt>
      <trkpt lat="46.81288" lon="4.88522">
        <ele>173.726864</ele>
        <time>2021-04-28T19:58:38.965Z</time>
      </trkpt>
      <trkpt lat="46.81333" lon="4.88669">
        <ele>173.377402</ele>
        <time>2021-04-28T19:59:07.368Z</time>
      </trkpt>
      <trkpt lat="46.8135" lon="4.88703">
        <ele>173.319697</ele>
        <time>2021-04-28T19:59:15.403Z</time>
      </trkpt>
      <trkpt lat="46.81453" lon="4.88841">
        <ele>173.285618</ele>
        <time>2021-04-28T19:59:55.139Z</time>
      </trkpt>
      <trkpt lat="46.81466" lon="4.88861">
        <ele>173.308342</ele>
        <time>2021-04-28T20:00:00.598Z</time>
      </trkpt>
      <trkpt lat="46.8146" lon="4.8887">
        <ele>173.317812</ele>
        <time>2021-04-28T20:00:02.789Z</time>
      </trkpt>
      <trkpt lat="46.81459" lon="4.88873">
        <ele>173.321455</ele>
        <time>2021-04-28T20:00:03.587Z</time>
      </trkpt>
      <trkpt lat="46.8145" lon="4.88878">
        <ele>173.333133</ele>
        <time>2021-04-28T20:00:07.058Z</time>
      </trkpt>
      <trkpt lat="46.81437" lon="4.88892">
        <ele>173.352426</ele>
        <time>2021-04-28T20:00:12.817Z</time>
      </trkpt>
      <trkpt lat="46.81411" lon="4.88931">
        <ele>173.397096</ele>
        <time>2021-04-28T20:00:25.996Z</time>
      </trkpt>
      <trkpt lat="46.81417" lon="4.88939">
        <ele>173.407154</ele>
        <time>2021-04-28T20:00:28.301Z</time>
      </trkpt>
      <trkpt lat="46.81469" lon="4.89">
        <ele>173.379127</ele>
        <time>2021-04-28T20:00:47.058Z</time>
      </trkpt>
      <trkpt lat="46.815" lon="4.89078">
        <ele>173.347186</ele>
        <time>2021-04-28T20:01:04.084Z</time>
      </trkpt>
      <trkpt lat="46.81514" lon="4.89102">
        <ele>173.335666</ele>
        <time>2021-04-28T20:01:10.145Z</time>
      </trkpt>
      <trkpt lat="46.81529" lon="4.89149">
        <ele>173.313622</ele>
        <time>2021-04-28T20:01:19.685Z</time>
      </trkpt>
      <trkpt lat="46.81533" lon="4.89169">
        <ele>173.282252</ele>
        <time>2021-04-28T20:01:23.417Z</time>
      </trkpt>
      <trkpt lat="46.81528" lon="4.89184">
        <ele>173.256956</ele>
        <time>2021-04-28T20:01:26.329Z</time>
      </trkpt>
      <trkpt lat="46.81499" lon="4.89289">
        <ele>173.082053</ele>
        <time>2021-04-28T20:01:47.001Z</time>
      </trkpt>
      <trkpt lat="46.81493" lon="4.89374">
        <ele>172.95002</ele>
        <time>2021-04-28T20:02:02.595Z</time>
      </trkpt>
      <trkpt lat="46.81493" lon="4.89484">
        <ele>172.904254</ele>
        <time>2021-04-28T20:02:23.259Z</time>
      </trkpt>
      <trkpt lat="46.81485" lon="4.89549">
        <ele>172.898478</ele>
        <time>2021-04-28T20:02:35.836Z</time>
      </trkpt>
      <trkpt lat="46.81477" lon="4.89603">
        <ele>172.893612</ele>
        <time>2021-04-28T20:02:46.549Z</time>
      </trkpt>
      <trkpt lat="46.81454" lon="4.89753">
        <ele>173.077699</ele>
        <time>2021-04-28T20:03:16.742Z</time>
      </trkpt>
      <trkpt lat="46.81441" lon="4.89887">
        <ele>173.338377</ele>
        <time>2021-04-28T20:03:44.029Z</time>
      </trkpt>
      <trkpt lat="46.81447" lon="4.89893">
        <ele>173.358074</ele>
        <time>2021-04-28T20:03:46.018Z</time>
      </trkpt>
      <trkpt lat="46.81525" lon="4.89877">
        <ele>173.436609</ele>
        <time>2021-04-28T20:04:09.227Z</time>
      </trkpt>
      <trkpt lat="46.81539" lon="4.89875">
        <ele>173.4452</ele>
        <time>2021-04-28T20:04:13.401Z</time>
      </trkpt>
      <trkpt lat="46.81549" lon="4.89989">
        <ele>173.494053</ele>
        <time>2021-04-28T20:04:48.387Z</time>
      </trkpt>
      <trkpt lat="46.81561" lon="4.90104">
        <ele>173.228847</ele>
        <time>2021-04-28T20:05:22.658Z</time>
      </trkpt>
      <trkpt lat="46.81568" lon="4.90125">
        <ele>173.151725</ele>
        <time>2021-04-28T20:05:29.351Z</time>
      </trkpt>
      <trkpt lat="46.81612" lon="4.90226">
        <ele>172.762043</ele>
        <time>2021-04-28T20:06:03.619Z</time>
      </trkpt>
      <trkpt lat="46.81654" lon="4.90326">
        <ele>172.443609</ele>
        <time>2021-04-28T20:06:37.646Z</time>
      </trkpt>
      <trkpt lat="46.81728" lon="4.9053">
        <ele>171.988285</ele>
        <time>2021-04-28T20:07:46.277Z</time>
      </trkpt>
      <trkpt lat="46.81793" lon="4.90672">
        <ele>171.942279</ele>
        <time>2021-04-28T20:08:37.633Z</time>
      </trkpt>
      <trkpt lat="46.81853" lon="4.90777">
        <ele>172.156088</ele>
        <time>2021-04-28T20:09:20.853Z</time>
      </trkpt>
      <trkpt lat="46.81857" lon="4.90786">
        <ele>172.181606</ele>
        <time>2021-04-28T20:09:24.117Z</time>
      </trkpt>
      <trkpt lat="46.81858" lon="4.90801">
        <ele>172.21508</ele>
        <time>2021-04-28T20:09:28.585Z</time>
      </trkpt>
      <trkpt lat="46.81857" lon="4.90808">
        <ele>172.232467</ele>
        <time>2021-04-28T20:09:31.334Z</time>
      </trkpt>
      <trkpt lat="46.81962" lon="4.91075">
        <ele>172.824881</ele>
        <time>2021-04-28T20:11:09.366Z</time>
      </trkpt>
      <trkpt lat="46.81962" lon="4.91085">
        <ele>172.840752</ele>
        <time>2021-04-28T20:11:12.549Z</time>
      </trkpt>
      <trkpt lat="46.81945" lon="4.91088">
        <ele>172.881723</ele>
        <time>2021-04-28T20:11:20.287Z</time>
      </trkpt>
      <trkpt lat="46.8197" lon="4.91152">
        <ele>172.946791</ele>
        <time>2021-04-28T20:11:42.753Z</time>
      </trkpt>
      <trkpt lat="46.81996" lon="4.91217">
        <ele>172.869699</ele>
        <time>2021-04-28T20:12:05.247Z</time>
      </trkpt>
      <trkpt lat="46.82071" lon="4.91443">
        <ele>172.609354</ele>
        <time>2021-04-28T20:13:20.185Z</time>
      </trkpt>
      <trkpt lat="46.82117" lon="4.9155">
        <ele>172.474429</ele>
        <time>2021-04-28T20:13:58.262Z</time>
      </trkpt>
      <trkpt lat="46.82133" lon="4.91609">
        <ele>172.417894</ele>
        <time>2021-04-28T20:14:17.256Z</time>
      </trkpt>
      <trkpt lat="46.82145" lon="4.91653">
        <ele>172.414516</ele>
        <time>2021-04-28T20:14:31.702Z</time>
      </trkpt>
      <trkpt lat="46.82154" lon="4.91681">
        <ele>172.412315</ele>
        <time>2021-04-28T20:14:37.545Z</time>
      </trkpt>
      <trkpt lat="46.82192" lon="4.91776">
        <ele>172.40455</ele>
        <time>2021-04-28T20:14:58.440Z</time>
      </trkpt>
      <trkpt lat="46.82211" lon="4.91968">
        <ele>172.335342</ele>
        <time>2021-04-28T20:15:35.755Z</time>
      </trkpt>
      <trkpt lat="46.82229" lon="4.92103">
        <ele>172.260742</ele>
        <time>2021-04-28T20:16:01.650Z</time>
      </trkpt>
      <trkpt lat="46.82262" lon="4.92258">
        <ele>171.974336</ele>
        <time>2021-04-28T20:16:31.040Z</time>
      </trkpt>
      <trkpt lat="46.82292" lon="4.92343">
        <ele>171.8045</ele>
        <time>2021-04-28T20:16:48.251Z</time>
      </trkpt>
      <trkpt lat="46.82334" lon="4.92409">
        <ele>171.914278</ele>
        <time>2021-04-28T20:17:05.261Z</time>
      </trkpt>
      <trkpt lat="46.82368" lon="4.92459">
        <ele>172.001594</ele>
        <time>2021-04-28T20:17:19.082Z</time>
      </trkpt>
      <trkpt lat="46.82418" lon="4.92543">
        <ele>172.158591</ele>
        <time>2021-04-28T20:17:42.035Z</time>
      </trkpt>
      <trkpt lat="46.8247" lon="4.92625">
        <ele>172.537328</ele>
        <time>2021-04-28T20:18:05.650Z</time>
      </trkpt>
      <trkpt lat="46.82532" lon="4.92716">
        <ele>172.970644</ele>
        <time>2021-04-28T20:18:32.092Z</time>
      </trkpt>
      <trkpt lat="46.82589" lon="4.92798">
        <ele>173.146983</ele>
        <time>2021-04-28T20:18:55.267Z</time>
      </trkpt>
      <trkpt lat="46.82606" lon="4.92822">
        <ele>173.191513</ele>
        <time>2021-04-28T20:19:02.130Z</time>
      </trkpt>
      <trkpt lat="46.82637" lon="4.92865">
        <ele>173.269755</ele>
        <time>2021-04-28T20:19:14.044Z</time>
      </trkpt>
      <trkpt lat="46.82487" lon="4.93052">
        <ele>173.471058</ele>
        <time>2021-04-28T20:20:09.419Z</time>
      </trkpt>
      <trkpt lat="46.8248" lon="4.9306">
        <ele>173.478027</ele>
        <time>2021-04-28T20:20:11.920Z</time>
      </trkpt>
      <trkpt lat="46.82413" lon="4.93143">
        <ele>173.601143</ele>
        <time>2021-04-28T20:20:36.772Z</time>
      </trkpt>
      <trkpt lat="46.82365" lon="4.93206">
        <ele>173.702506</ele>
        <time>2021-04-28T20:20:55.554Z</time>
      </trkpt>
      <trkpt lat="46.82329" lon="4.93276">
        <ele>173.776314</ele>
        <time>2021-04-28T20:21:12.752Z</time>
      </trkpt>
      <trkpt lat="46.8231" lon="4.93322">
        <ele>173.786616</ele>
        <time>2021-04-28T20:21:23.243Z</time>
      </trkpt>
      <trkpt lat="46.8233" lon="4.93358">
        <ele>173.795806</ele>
        <time>2021-04-28T20:21:37.994Z</time>
      </trkpt>
      <trkpt lat="46.82366" lon="4.93396">
        <ele>173.808259</ele>
        <time>2021-04-28T20:21:57.838Z</time>
      </trkpt>
      <trkpt lat="46.82516" lon="4.93753">
        <ele>173.456494</ele>
        <time>2021-04-28T20:24:03.302Z</time>
      </trkpt>
      <trkpt lat="46.82582" lon="4.93792">
        <ele>173.308368</ele>
        <time>2021-04-28T20:24:33.951Z</time>
      </trkpt>
      <trkpt lat="46.82601" lon="4.93809">
        <ele>173.261965</ele>
        <time>2021-04-28T20:24:43.561Z</time>
      </trkpt>
      <trkpt lat="46.82629" lon="4.93823">
        <ele>173.199773</ele>
        <time>2021-04-28T20:24:56.498Z</time>
      </trkpt>
      <trkpt lat="46.82601" lon="4.93859">
        <ele>173.190797</ele>
        <time>2021-04-28T20:25:12.894Z</time>
      </trkpt>
      <trkpt lat="46.82512" lon="4.93997">
        <ele>173.171517</ele>
        <time>2021-04-28T20:26:10.685Z</time>
      </trkpt>
      <trkpt lat="46.82507" lon="4.94011">
        <ele>173.169878</ele>
        <time>2021-04-28T20:26:15.754Z</time>
      </trkpt>
      <trkpt lat="46.82533" lon="4.94046">
        <ele>173.227503</ele>
        <time>2021-04-28T20:26:31.616Z</time>
      </trkpt>
      <trkpt lat="46.82615" lon="4.94142">
        <ele>173.424369</ele>
        <time>2021-04-28T20:27:20.205Z</time>
      </trkpt>
      <trkpt lat="46.82781" lon="4.94376">
        <ele>173.510375</ele>
        <time>2021-04-28T20:29:03.366Z</time>
      </trkpt>
      <trkpt lat="46.8287" lon="4.94525">
        <ele>173.134132</ele>
        <time>2021-04-28T20:30:01.677Z</time>
      </trkpt>
      <trkpt lat="46.82954" lon="4.94688">
        <ele>172.555447</ele>
        <time>2021-04-28T20:31:01.064Z</time>
      </trkpt>
      <trkpt lat="46.83074" lon="4.9487">
        <ele>171.681881</ele>
        <time>2021-04-28T20:32:14.479Z</time>
      </trkpt>
      <trkpt lat="46.83177" lon="4.95015">
        <ele>170.979382</ele>
        <time>2021-04-28T20:33:14.690Z</time>
      </trkpt>
      <trkpt lat="46.83191" lon="4.95033">
        <ele>170.902894</ele>
        <time>2021-04-28T20:33:22.249Z</time>
      </trkpt>
      <trkpt lat="46.832" lon="4.95044">
        <ele>170.851579</ele>
        <time>2021-04-28T20:33:27.491Z</time>
      </trkpt>
      <trkpt lat="46.83317" lon="4.95173">
        <ele>170.512461</ele>
        <time>2021-04-28T20:34:30.566Z</time>
      </trkpt>
      <trkpt lat="46.83445" lon="4.95332">
        <ele>170.781128</ele>
        <time>2021-04-28T20:35:47.572Z</time>
      </trkpt>
      <trkpt lat="46.83566" lon="4.95458">
        <ele>171.353551</ele>
        <time>2021-04-28T20:36:56.931Z</time>
      </trkpt>
      <trkpt lat="46.83597" lon="4.95484">
        <ele>171.473007</ele>
        <time>2021-04-28T20:37:13.633Z</time>
      </trkpt>
      <trkpt lat="46.83688" lon="4.95588">
        <ele>171.855374</ele>
        <time>2021-04-28T20:38:06.583Z</time>
      </trkpt>
      <trkpt lat="46.83795" lon="4.95746">
        <ele>172.12019</ele>
        <time>2021-04-28T20:39:15.710Z</time>
      </trkpt>
      <trkpt lat="46.83883" lon="4.95843">
        <ele>172.156466</ele>
        <time>2021-04-28T20:40:04.980Z</time>
      </trkpt>
      <trkpt lat="46.83946" lon="4.95916">
        <ele>172.118006</ele>
        <time>2021-04-28T20:40:40.390Z</time>
      </trkpt>
      <trkpt lat="46.83948" lon="4.95919">
        <ele>172.116301</ele>
        <time>2021-04-28T20:40:41.915Z</time>
      </trkpt>
      <trkpt lat="46.83959" lon="4.95936">
        <ele>172.108678</ele>
        <time>2021-04-28T20:40:48.932Z</time>
      </trkpt>
      <trkpt lat="46.84103" lon="4.9606">
        <ele>171.844575</ele>
        <time>2021-04-28T20:42:01.892Z</time>
      </trkpt>
      <trkpt lat="46.8427" lon="4.9622">
        <ele>171.329636</ele>
        <time>2021-04-28T20:43:28.407Z</time>
      </trkpt>
      <trkpt lat="46.84318" lon="4.96244">
        <ele>171.254052</ele>
        <time>2021-04-28T20:43:50.230Z</time>
      </trkpt>
      <trkpt lat="46.84487" lon="4.96289">
        <ele>171.197146</ele>
        <time>2021-04-28T20:45:05.758Z</time>
      </trkpt>
      <trkpt lat="46.84521" lon="4.96287">
        <ele>171.314982</ele>
        <time>2021-04-28T20:45:21.718Z</time>
      </trkpt>
      <trkpt lat="46.84653" lon="4.96248">
        <ele>171.813401</ele>
        <time>2021-04-28T20:46:25.008Z</time>
      </trkpt>
      <trkpt lat="46.84756" lon="4.96204">
        <ele>172.359388</ele>
        <time>2021-04-28T20:47:15.802Z</time>
      </trkpt>
      <trkpt lat="46.84854" lon="4.96154">
        <ele>172.574569</ele>
        <time>2021-04-28T20:48:03.403Z</time>
      </trkpt>
      <trkpt lat="46.84901" lon="4.96145">
        <ele>172.55012</ele>
        <time>2021-04-28T20:48:24.146Z</time>
      </trkpt>
      <trkpt lat="46.84995" lon="4.96148">
        <ele>172.449207</ele>
        <time>2021-04-28T20:49:05.145Z</time>
      </trkpt>
      <trkpt lat="46.85069" lon="4.96162">
        <ele>172.190119</ele>
        <time>2021-04-28T20:49:37.179Z</time>
      </trkpt>
      <trkpt lat="46.85117" lon="4.96181">
        <ele>172.020365</ele>
        <time>2021-04-28T20:49:58.157Z</time>
      </trkpt>
      <trkpt lat="46.85328" lon="4.96295">
        <ele>171.37924</ele>
        <time>2021-04-28T20:51:35.206Z</time>
      </trkpt>
      <trkpt lat="46.85383" lon="4.96314">
        <ele>171.360834</ele>
        <time>2021-04-28T20:52:00.075Z</time>
      </trkpt>
      <trkpt lat="46.85455" lon="4.96307">
        <ele>171.337195</ele>
        <time>2021-04-28T20:52:32.264Z</time>
      </trkpt>
      <trkpt lat="46.85503" lon="4.96287">
        <ele>171.325217</ele>
        <time>2021-04-28T20:52:54.643Z</time>
      </trkpt>
      <trkpt lat="46.8558" lon="4.96229">
        <ele>171.362397</ele>
        <time>2021-04-28T20:53:33.207Z</time>
      </trkpt>
      <trkpt lat="46.85611" lon="4.96198">
        <ele>171.378591</ele>
        <time>2021-04-28T20:53:50.087Z</time>
      </trkpt>
      <trkpt lat="46.85638" lon="4.96171">
        <ele>171.392466</ele>
        <time>2021-04-28T20:54:04.441Z</time>
      </trkpt>
      <trkpt lat="46.85641" lon="4.96167">
        <ele>171.394373</ele>
        <time>2021-04-28T20:54:06.489Z</time>
      </trkpt>
      <trkpt lat="46.85704" lon="4.96091">
        <ele>171.457027</ele>
        <time>2021-04-28T20:54:42.566Z</time>
      </trkpt>
      <trkpt lat="46.8572" lon="4.96064">
        <ele>171.477852</ele>
        <time>2021-04-28T20:54:53.678Z</time>
      </trkpt>
      <trkpt lat="46.85771" lon="4.9592">
        <ele>171.577147</ele>
        <time>2021-04-28T20:55:43.985Z</time>
      </trkpt>
      <trkpt lat="46.85814" lon="4.95824">
        <ele>171.664828</ele>
        <time>2021-04-28T20:56:19.252Z</time>
      </trkpt>
      <trkpt lat="46.85837" lon="4.95781">
        <ele>171.706368</ele>
        <time>2021-04-28T20:56:35.951Z</time>
      </trkpt>
      <trkpt lat="46.85907" lon="4.95679">
        <ele>171.872577</ele>
        <time>2021-04-28T20:57:20.644Z</time>
      </trkpt>
      <trkpt lat="46.86173" lon="4.95475">
        <ele>172.630828</ele>
        <time>2021-04-28T20:59:38.256Z</time>
      </trkpt>
      <trkpt lat="46.86289" lon="4.95408">
        <ele>173.12505</ele>
        <time>2021-04-28T21:00:36.036Z</time>
      </trkpt>
      <trkpt lat="46.863" lon="4.95409">
        <ele>173.17165</ele>
        <time>2021-04-28T21:00:41.844Z</time>
      </trkpt>
      <trkpt lat="46.86313" lon="4.9541">
        <ele>173.221443</ele>
        <time>2021-04-28T21:00:47.486Z</time>
      </trkpt>
      <trkpt lat="46.86322" lon="4.95409">
        <ele>173.258867</ele>
        <time>2021-04-28T21:00:51.742Z</time>
      </trkpt>
      <trkpt lat="46.8633" lon="4.95409">
        <ele>173.289123</ele>
        <time>2021-04-28T21:00:55.361Z</time>
      </trkpt>
      <trkpt lat="46.86378" lon="4.95399">
        <ele>173.403345</ele>
        <time>2021-04-28T21:01:17.986Z</time>
      </trkpt>
      <trkpt lat="46.86409" lon="4.95392">
        <ele>173.45431</ele>
        <time>2021-04-28T21:01:32.316Z</time>
      </trkpt>
      <trkpt lat="46.86471" lon="4.95391">
        <ele>173.555436</ele>
        <time>2021-04-28T21:01:49.438Z</time>
      </trkpt>
      <trkpt lat="46.86538" lon="4.95404">
        <ele>173.665116</ele>
        <time>2021-04-28T21:02:08.287Z</time>
      </trkpt>
      <trkpt lat="46.86643" lon="4.95466">
        <ele>173.84143</ele>
        <time>2021-04-28T21:02:40.919Z</time>
      </trkpt>
      <trkpt lat="46.86678" lon="4.95507">
        <ele>173.912019</ele>
        <time>2021-04-28T21:02:54.362Z</time>
      </trkpt>
      <trkpt lat="46.86784" lon="4.9568">
        <ele>173.601949</ele>
        <time>2021-04-28T21:03:37.441Z</time>
      </trkpt>
      <trkpt lat="46.86798" lon="4.95705">
        <ele>173.55405</ele>
        <time>2021-04-28T21:03:44.039Z</time>
      </trkpt>
      <trkpt lat="46.86802" lon="4.95712">
        <ele>173.538774</ele>
        <time>2021-04-28T21:03:45.491Z</time>
      </trkpt>
      <trkpt lat="46.86808" lon="4.95722">
        <ele>173.473838</ele>
        <time>2021-04-28T21:03:47.418Z</time>
      </trkpt>
      <trkpt lat="46.86868" lon="4.95869">
        <ele>172.659115</ele>
        <time>2021-04-28T21:04:16.487Z</time>
      </trkpt>
      <trkpt lat="46.86915" lon="4.9598">
        <ele>172.208107</ele>
        <time>2021-04-28T21:04:38.809Z</time>
      </trkpt>
      <trkpt lat="46.8692" lon="4.95985">
        <ele>172.194947</ele>
        <time>2021-04-28T21:04:40.420Z</time>
      </trkpt>
      <trkpt lat="46.86972" lon="4.96004">
        <ele>172.076433</ele>
        <time>2021-04-28T21:04:54.914Z</time>
      </trkpt>
      <trkpt lat="46.86992" lon="4.96018">
        <ele>172.025878</ele>
        <time>2021-04-28T21:05:01.282Z</time>
      </trkpt>
      <trkpt lat="46.87004" lon="4.96027">
        <ele>171.99584</ele>
        <time>2021-04-28T21:05:05.046Z</time>
      </trkpt>
      <trkpt lat="46.87019" lon="4.9605">
        <ele>171.948306</ele>
        <time>2021-04-28T21:05:11.031Z</time>
      </trkpt>
      <trkpt lat="46.87047" lon="4.96066">
        <ele>171.882133</ele>
        <time>2021-04-28T21:05:19.404Z</time>
      </trkpt>
      <trkpt lat="46.87058" lon="4.96083">
        <ele>171.849373</ele>
        <time>2021-04-28T21:05:23.875Z</time>
      </trkpt>
      <trkpt lat="46.87051" lon="4.9611">
        <ele>171.809273</ele>
        <time>2021-04-28T21:05:29.295Z</time>
      </trkpt>
      <trkpt lat="46.87012" lon="4.9618">
        <ele>171.685268</ele>
        <time>2021-04-28T21:05:45.776Z</time>
      </trkpt>
      <trkpt lat="46.8699" lon="4.96233">
        <ele>171.598333</ele>
        <time>2021-04-28T21:05:57.078Z</time>
      </trkpt>
      <trkpt lat="46.8699" lon="4.96247">
        <ele>171.57897</ele>
        <time>2021-04-28T21:05:59.609Z</time>
      </trkpt>
      <trkpt lat="46.87075" lon="4.96332">
        <ele>171.404758</ele>
        <time>2021-04-28T21:06:26.794Z</time>
      </trkpt>
      <trkpt lat="46.87105" lon="4.96353">
        <ele>171.351215</ele>
        <time>2021-04-28T21:06:35.910Z</time>
      </trkpt>
      <trkpt lat="46.87141" lon="4.9637">
        <ele>171.291947</ele>
        <time>2021-04-28T21:06:46.128Z</time>
      </trkpt>
      <trkpt lat="46.87185" lon="4.96374">
        <ele>171.255009</ele>
        <time>2021-04-28T21:06:58.383Z</time>
      </trkpt>
      <trkpt lat="46.87232" lon="4.96366">
        <ele>171.328845</ele>
        <time>2021-04-28T21:07:12.044Z</time>
      </trkpt>
      <trkpt lat="46.87283" lon="4.96334">
        <ele>171.413787</ele>
        <time>2021-04-28T21:07:28.064Z</time>
      </trkpt>
      <trkpt lat="46.87362" lon="4.96265">
        <ele>171.474799</ele>
        <time>2021-04-28T21:07:54.695Z</time>
      </trkpt>
      <trkpt lat="46.87395" lon="4.96218">
        <ele>171.401399</ele>
        <time>2021-04-28T21:08:07.467Z</time>
      </trkpt>
      <trkpt lat="46.8749" lon="4.96039">
        <ele>170.943559</ele>
        <time>2021-04-28T21:08:48.479Z</time>
      </trkpt>
      <trkpt lat="46.87566" lon="4.95919">
        <ele>170.269195</ele>
        <time>2021-04-28T21:09:16.179Z</time>
      </trkpt>
      <trkpt lat="46.87623" lon="4.95799">
        <ele>170.173714</ele>
        <time>2021-04-28T21:09:41.921Z</time>
      </trkpt>
      <trkpt lat="46.87626" lon="4.95793">
        <ele>170.175773</ele>
        <time>2021-04-28T21:09:43.517Z</time>
      </trkpt>
      <trkpt lat="46.87738" lon="4.95577">
        <ele>170.802096</ele>
        <time>2021-04-28T21:10:39.060Z</time>
      </trkpt>
      <trkpt lat="46.87802" lon="4.95479">
        <ele>171.411553</ele>
        <time>2021-04-28T21:11:09.525Z</time>
      </trkpt>
      <trkpt lat="46.87813" lon="4.95466">
        <ele>171.455348</ele>
        <time>2021-04-28T21:11:13.794Z</time>
      </trkpt>
      <trkpt lat="46.87837" lon="4.95448">
        <ele>171.540552</ele>
        <time>2021-04-28T21:11:22.412Z</time>
      </trkpt>
      <trkpt lat="46.87909" lon="4.9535">
        <ele>171.855373</ele>
        <time>2021-04-28T21:11:51.385Z</time>
      </trkpt>
      <trkpt lat="46.87934" lon="4.95309">
        <ele>171.973707</ele>
        <time>2021-04-28T21:12:01.689Z</time>
      </trkpt>
      <trkpt lat="46.87951" lon="4.95282">
        <ele>171.889922</ele>
        <time>2021-04-28T21:12:08.277Z</time>
      </trkpt>
      <trkpt lat="46.87968" lon="4.95253">
        <ele>171.795918</ele>
        <time>2021-04-28T21:12:14.893Z</time>
      </trkpt>
      <trkpt lat="46.87984" lon="4.95236">
        <ele>171.724957</ele>
        <time>2021-04-28T21:12:21.588Z</time>
      </trkpt>
      <trkpt lat="46.87991" lon="4.95228">
        <ele>171.689597</ele>
        <time>2021-04-28T21:12:23.895Z</time>
      </trkpt>
      <trkpt lat="46.88039" lon="4.95187">
        <ele>171.489963</ele>
        <time>2021-04-28T21:12:37.865Z</time>
      </trkpt>
      <trkpt lat="46.88171" lon="4.95099">
        <ele>171.489398</ele>
        <time>2021-04-28T21:13:16.789Z</time>
      </trkpt>
      <trkpt lat="46.88303" lon="4.95039">
        <ele>171.958237</ele>
        <time>2021-04-28T21:13:59.753Z</time>
      </trkpt>
      <trkpt lat="46.88414" lon="4.9501">
        <ele>172.605775</ele>
        <time>2021-04-28T21:14:34.613Z</time>
      </trkpt>
      <trkpt lat="46.88433" lon="4.95004">
        <ele>172.680394</ele>
        <time>2021-04-28T21:14:40.583Z</time>
      </trkpt>
      <trkpt lat="46.88517" lon="4.9502">
        <ele>172.872845</ele>
        <time>2021-04-28T21:15:04.596Z</time>
      </trkpt>
      <trkpt lat="46.8861" lon="4.9504">
        <ele>173.104824</ele>
        <time>2021-04-28T21:15:31.448Z</time>
      </trkpt>
      <trkpt lat="46.88642" lon="4.95048">
        <ele>173.240923</ele>
        <time>2021-04-28T21:15:40.145Z</time>
      </trkpt>
      <trkpt lat="46.88643" lon="4.95049">
        <ele>173.245706</ele>
        <time>2021-04-28T21:15:40.911Z</time>
      </trkpt>
      <trkpt lat="46.88846" lon="4.9512">
        <ele>174.260014</ele>
        <time>2021-04-28T21:16:43.851Z</time>
      </trkpt>
      <trkpt lat="46.88901" lon="4.95159">
        <ele>174.630388</ele>
        <time>2021-04-28T21:17:02.679Z</time>
      </trkpt>
      <trkpt lat="46.88936" lon="4.95183">
        <ele>174.869361</ele>
        <time>2021-04-28T21:17:15.499Z</time>
      </trkpt>
      <trkpt lat="46.89018" lon="4.95236">
        <ele>175.071446</ele>
        <time>2021-04-28T21:17:42.028Z</time>
      </trkpt>
      <trkpt lat="46.89032" lon="4.95246">
        <ele>175.101519</ele>
        <time>2021-04-28T21:17:46.861Z</time>
      </trkpt>
      <trkpt lat="46.89048" lon="4.95247">
        <ele>175.130126</ele>
        <time>2021-04-28T21:17:51.116Z</time>
      </trkpt>
      <trkpt lat="46.89074" lon="4.95244">
        <ele>175.180161</ele>
        <time>2021-04-28T21:17:58.866Z</time>
      </trkpt>
      <trkpt lat="46.89079" lon="4.95245">
        <ele>175.189726</ele>
        <time>2021-04-28T21:18:00.359Z</time>
      </trkpt>
      <trkpt lat="46.89086" lon="4.95252">
        <ele>175.204507</ele>
        <time>2021-04-28T21:18:02.270Z</time>
      </trkpt>
      <trkpt lat="46.89129" lon="4.95304">
        <ele>174.964874</ele>
        <time>2021-04-28T21:18:17.319Z</time>
      </trkpt>
      <trkpt lat="46.89193" lon="4.9535">
        <ele>174.218325</ele>
        <time>2021-04-28T21:18:34.604Z</time>
      </trkpt>
      <trkpt lat="46.89211" lon="4.95397">
        <ele>173.831004</ele>
        <time>2021-04-28T21:18:43.027Z</time>
      </trkpt>
      <trkpt lat="46.89236" lon="4.95438">
        <ele>173.438913</ele>
        <time>2021-04-28T21:18:51.717Z</time>
      </trkpt>
      <trkpt lat="46.89263" lon="4.95491">
        <ele>173.023639</ele>
        <time>2021-04-28T21:19:02.453Z</time>
      </trkpt>
      <trkpt lat="46.89302" lon="4.95607">
        <ele>172.238137</ele>
        <time>2021-04-28T21:19:23.820Z</time>
      </trkpt>
      <trkpt lat="46.89336" lon="4.95797">
        <ele>171.716078</ele>
        <time>2021-04-28T21:19:59.341Z</time>
      </trkpt>
      <trkpt lat="46.89355" lon="4.95941">
        <ele>171.654305</ele>
        <time>2021-04-28T21:20:27.802Z</time>
      </trkpt>
      <trkpt lat="46.89379" lon="4.96336">
        <ele>172.400567</ele>
        <time>2021-04-28T21:21:47.935Z</time>
      </trkpt>
      <trkpt lat="46.89387" lon="4.96403">
        <ele>172.504907</ele>
        <time>2021-04-28T21:22:01.138Z</time>
      </trkpt>
      <trkpt lat="46.89407" lon="4.96466">
        <ele>172.594128</ele>
        <time>2021-04-28T21:22:14.725Z</time>
      </trkpt>
      <trkpt lat="46.89405" lon="4.9649">
        <ele>172.588891</ele>
        <time>2021-04-28T21:22:19.386Z</time>
      </trkpt>
      <trkpt lat="46.8941" lon="4.965">
        <ele>172.586304</ele>
        <time>2021-04-28T21:22:21.731Z</time>
      </trkpt>
      <trkpt lat="46.89478" lon="4.96664">
        <ele>172.546425</ele>
        <time>2021-04-28T21:22:57.643Z</time>
      </trkpt>
      <trkpt lat="46.89541" lon="4.96786">
        <ele>172.726198</ele>
        <time>2021-04-28T21:23:27.133Z</time>
      </trkpt>
      <trkpt lat="46.89565" lon="4.96847">
        <ele>172.825186</ele>
        <time>2021-04-28T21:23:40.964Z</time>
      </trkpt>
      <trkpt lat="46.89625" lon="4.96941">
        <ele>173.138907</ele>
        <time>2021-04-28T21:24:07.181Z</time>
      </trkpt>
      <trkpt lat="46.89737" lon="4.97096">
        <ele>173.926185</ele>
        <time>2021-04-28T21:24:54.419Z</time>
      </trkpt>
      <trkpt lat="46.89766" lon="4.97153">
        <ele>174.204018</ele>
        <time>2021-04-28T21:25:09.147Z</time>
      </trkpt>
      <trkpt lat="46.90088" lon="4.97082">
        <ele>176.110512</ele>
        <time>2021-04-28T21:27:42.981Z</time>
      </trkpt>
      <trkpt lat="46.90092" lon="4.97105">
        <ele>176.204358</ele>
        <time>2021-04-28T21:27:50.424Z</time>
      </trkpt>
      <trkpt lat="46.90124" lon="4.97216">
        <ele>176.689373</ele>
        <time>2021-04-28T21:28:29.995Z</time>
      </trkpt>
      <trkpt lat="46.90138" lon="4.97259">
        <ele>176.884629</ele>
        <time>2021-04-28T21:28:45.651Z</time>
      </trkpt>
      <trkpt lat="46.90144" lon="4.97274">
        <ele>176.952346</ele>
        <time>2021-04-28T21:28:51.516Z</time>
      </trkpt>
      <trkpt lat="46.90224" lon="4.9763">
        <ele>176.946401</ele>
        <time>2021-04-28T21:30:46.772Z</time>
      </trkpt>
      <trkpt lat="46.90242" lon="4.97682">
        <ele>176.783214</ele>
        <time>2021-04-28T21:31:03.776Z</time>
      </trkpt>
      <trkpt lat="46.9025" lon="4.97703">
        <ele>176.718896</ele>
        <time>2021-04-28T21:31:10.304Z</time>
      </trkpt>
      <trkpt lat="46.90247" lon="4.97723">
        <ele>176.661757</ele>
        <time>2021-04-28T21:31:14.891Z</time>
      </trkpt>
      <trkpt lat="46.9026" lon="4.97784">
        <ele>176.44467</ele>
        <time>2021-04-28T21:31:28.821Z</time>
      </trkpt>
      <trkpt lat="46.90262" lon="4.97795">
        <ele>176.362615</ele>
        <time>2021-04-28T21:31:31.149Z</time>
      </trkpt>
      <trkpt lat="46.90273" lon="4.97842">
        <ele>175.995432</ele>
        <time>2021-04-28T21:31:39.402Z</time>
      </trkpt>
      <trkpt lat="46.90287" lon="4.97898">
        <ele>175.549851</ele>
        <time>2021-04-28T21:31:49.206Z</time>
      </trkpt>
      <trkpt lat="46.90294" lon="4.97962">
        <ele>175.071716</ele>
        <time>2021-04-28T21:31:59.730Z</time>
      </trkpt>
      <trkpt lat="46.90304" lon="4.98125">
        <ele>174.160069</ele>
        <time>2021-04-28T21:32:26.495Z</time>
      </trkpt>
      <trkpt lat="46.90301" lon="4.98259">
        <ele>173.59385</ele>
        <time>2021-04-28T21:32:49.774Z</time>
      </trkpt>
      <trkpt lat="46.903" lon="4.98262">
        <ele>173.579193</ele>
        <time>2021-04-28T21:32:50.399Z</time>
      </trkpt>
      <trkpt lat="46.90306" lon="4.98285">
        <ele>173.475567</ele>
        <time>2021-04-28T21:32:55.074Z</time>
      </trkpt>
      <trkpt lat="46.90315" lon="4.98333">
        <ele>173.606256</ele>
        <time>2021-04-28T21:33:04.677Z</time>
      </trkpt>
      <trkpt lat="46.9036" lon="4.9855">
        <ele>174.448519</ele>
        <time>2021-04-28T21:33:53.631Z</time>
      </trkpt>
      <trkpt lat="46.90375" lon="4.98696">
        <ele>174.882967</ele>
        <time>2021-04-28T21:34:24.840Z</time>
      </trkpt>
      <trkpt lat="46.9038" lon="4.98723">
        <ele>174.966265</ele>
        <time>2021-04-28T21:34:30.526Z</time>
      </trkpt>
      <trkpt lat="46.90413" lon="4.98821">
        <ele>175.167311</ele>
        <time>2021-04-28T21:34:51.881Z</time>
      </trkpt>
      <trkpt lat="46.90436" lon="4.98928">
        <ele>175.014069</ele>
        <time>2021-04-28T21:35:12.241Z</time>
      </trkpt>
      <trkpt lat="46.9046" lon="4.99066">
        <ele>174.817201</ele>
        <time>2021-04-28T21:35:38.094Z</time>
      </trkpt>
      <trkpt lat="46.9048" lon="4.99165">
        <ele>174.670356</ele>
        <time>2021-04-28T21:35:56.115Z</time>
      </trkpt>
      <trkpt lat="46.9049" lon="4.99218">
        <ele>174.593134</ele>
        <time>2021-04-28T21:36:05.762Z</time>
      </trkpt>
      <trkpt lat="46.90494" lon="4.99307">
        <ele>174.466843</ele>
        <time>2021-04-28T21:36:21.839Z</time>
      </trkpt>
      <trkpt lat="46.90486" lon="4.99478">
        <ele>174.259078</ele>
        <time>2021-04-28T21:36:52.409Z</time>
      </trkpt>
      <trkpt lat="46.90479" lon="4.99529">
        <ele>174.195434</ele>
        <time>2021-04-28T21:37:01.722Z</time>
      </trkpt>
      <trkpt lat="46.90431" lon="4.99649">
        <ele>173.942545</ele>
        <time>2021-04-28T21:37:26.160Z</time>
      </trkpt>
      <trkpt lat="46.90396" lon="4.99707">
        <ele>173.785412</ele>
        <time>2021-04-28T21:37:39.472Z</time>
      </trkpt>
      <trkpt lat="46.90331" lon="4.99791">
        <ele>173.56465</ele>
        <time>2021-04-28T21:38:01.228Z</time>
      </trkpt>
      <trkpt lat="46.90332" lon="4.99801">
        <ele>173.551545</ele>
        <time>2021-04-28T21:38:03.081Z</time>
      </trkpt>
      <trkpt lat="46.90357" lon="4.99836">
        <ele>173.492055</ele>
        <time>2021-04-28T21:38:11.721Z</time>
      </trkpt>
      <trkpt lat="46.90357" lon="4.9984">
        <ele>173.485969</ele>
        <time>2021-04-28T21:38:12.550Z</time>
      </trkpt>
      <trkpt lat="46.90357" lon="4.99844">
        <ele>173.481881</ele>
        <time>2021-04-28T21:38:13.507Z</time>
      </trkpt>
      <trkpt lat="46.9035" lon="4.99872">
        <ele>173.445828</ele>
        <time>2021-04-28T21:38:22.615Z</time>
      </trkpt>
      <trkpt lat="46.90351" lon="4.99891">
        <ele>173.422461</ele>
        <time>2021-04-28T21:38:28.386Z</time>
      </trkpt>
      <trkpt lat="46.9037" lon="4.99926">
        <ele>173.369116</ele>
        <time>2021-04-28T21:38:41.871Z</time>
      </trkpt>
      <trkpt lat="46.90424" lon="5.0002">
        <ele>173.360231</ele>
        <time>2021-04-28T21:39:19.214Z</time>
      </trkpt>
      <trkpt lat="46.90454" lon="5.00067">
        <ele>173.417915</ele>
        <time>2021-04-28T21:39:38.929Z</time>
      </trkpt>
      <trkpt lat="46.90515" lon="5.00171">
        <ele>173.546418</ele>
        <time>2021-04-28T21:40:21.542Z</time>
      </trkpt>
      <trkpt lat="46.90553" lon="5.00237">
        <ele>173.747532</ele>
        <time>2021-04-28T21:40:48.692Z</time>
      </trkpt>
      <trkpt lat="46.90571" lon="5.00268">
        <ele>173.845752</ele>
        <time>2021-04-28T21:41:02.476Z</time>
      </trkpt>
      <trkpt lat="46.90618" lon="5.00349">
        <ele>174.092554</ele>
        <time>2021-04-28T21:41:36.178Z</time>
      </trkpt>
      <trkpt lat="46.90621" lon="5.00356">
        <ele>174.111527</ele>
        <time>2021-04-28T21:41:38.733Z</time>
      </trkpt>
      <trkpt lat="46.90635" lon="5.00376">
        <ele>174.099438</ele>
        <time>2021-04-28T21:41:43.864Z</time>
      </trkpt>
      <trkpt lat="46.9066" lon="5.00427">
        <ele>173.772566</ele>
        <time>2021-04-28T21:41:54.622Z</time>
      </trkpt>
      <trkpt lat="46.90665" lon="5.00433">
        <ele>173.722973</ele>
        <time>2021-04-28T21:41:56.689Z</time>
      </trkpt>
      <trkpt lat="46.90677" lon="5.00447">
        <ele>173.60901</ele>
        <time>2021-04-28T21:42:00.131Z</time>
      </trkpt>
      <trkpt lat="46.9071" lon="5.00522">
        <ele>173.144633</ele>
        <time>2021-04-28T21:42:14.368Z</time>
      </trkpt>
      <trkpt lat="46.90726" lon="5.00568">
        <ele>172.872461</ele>
        <time>2021-04-28T21:42:22.491Z</time>
      </trkpt>
      <trkpt lat="46.90735" lon="5.00594">
        <ele>172.73658</ele>
        <time>2021-04-28T21:42:26.716Z</time>
      </trkpt>
      <trkpt lat="46.90758" lon="5.00653">
        <ele>172.46801</ele>
        <time>2021-04-28T21:42:37.441Z</time>
      </trkpt>
      <trkpt lat="46.90779" lon="5.00704">
        <ele>172.234937</ele>
        <time>2021-04-28T21:42:46.829Z</time>
      </trkpt>
      <trkpt lat="46.9078" lon="5.00742">
        <ele>172.087139</ele>
        <time>2021-04-28T21:42:52.883Z</time>
      </trkpt>
      <trkpt lat="46.90785" lon="5.0087">
        <ele>171.969263</ele>
        <time>2021-04-28T21:43:17.188Z</time>
      </trkpt>
      <trkpt lat="46.90789" lon="5.01035">
        <ele>172.833176</ele>
        <time>2021-04-28T21:43:53.133Z</time>
      </trkpt>
      <trkpt lat="46.90774" lon="5.01153">
        <ele>173.249523</ele>
        <time>2021-04-28T21:44:17.870Z</time>
      </trkpt>
      <trkpt lat="46.90742" lon="5.01286">
        <ele>173.530328</ele>
        <time>2021-04-28T21:44:44.764Z</time>
      </trkpt>
      <trkpt lat="46.90729" lon="5.01329">
        <ele>173.623877</ele>
        <time>2021-04-28T21:44:53.378Z</time>
      </trkpt>
      <trkpt lat="46.90531" lon="5.01725">
        <ele>173.252447</ele>
        <time>2021-04-28T21:46:20.957Z</time>
      </trkpt>
      <trkpt lat="46.90512" lon="5.0177">
        <ele>173.218273</ele>
        <time>2021-04-28T21:46:30.418Z</time>
      </trkpt>
      <trkpt lat="46.90481" lon="5.01842">
        <ele>173.251649</ele>
        <time>2021-04-28T21:46:45.836Z</time>
      </trkpt>
      <trkpt lat="46.90386" lon="5.02098">
        <ele>173.593431</ele>
        <time>2021-04-28T21:47:39.977Z</time>
      </trkpt>
      <trkpt lat="46.90329" lon="5.02247">
        <ele>174.056448</ele>
        <time>2021-04-28T21:48:14.205Z</time>
      </trkpt>
      <trkpt lat="46.90323" lon="5.02261">
        <ele>174.129932</ele>
        <time>2021-04-28T21:48:17.344Z</time>
      </trkpt>
      <trkpt lat="46.90323" lon="5.02282">
        <ele>174.230354</ele>
        <time>2021-04-28T21:48:21.943Z</time>
      </trkpt>
      <trkpt lat="46.90325" lon="5.02292">
        <ele>174.283986</ele>
        <time>2021-04-28T21:48:24.062Z</time>
      </trkpt>
      <trkpt lat="46.90342" lon="5.0234">
        <ele>174.539817</ele>
        <time>2021-04-28T21:48:35.110Z</time>
      </trkpt>
      <trkpt lat="46.90356" lon="5.02407">
        <ele>174.878064</ele>
        <time>2021-04-28T21:48:49.841Z</time>
      </trkpt>
      <trkpt lat="46.90371" lon="5.0244">
        <ele>175.067375</ele>
        <time>2021-04-28T21:48:58.251Z</time>
      </trkpt>
      <trkpt lat="46.90368" lon="5.02463">
        <ele>175.176535</ele>
        <time>2021-04-28T21:49:03.418Z</time>
      </trkpt>
      <trkpt lat="46.90366" lon="5.02466">
        <ele>175.19289</ele>
        <time>2021-04-28T21:49:04.440Z</time>
      </trkpt>
      <trkpt lat="46.90361" lon="5.02459">
        <ele>175.221669</ele>
        <time>2021-04-28T21:49:06.684Z</time>
      </trkpt>
      <trkpt lat="46.90329" lon="5.02342">
        <ele>175.585723</ele>
        <time>2021-04-28T21:49:31.142Z</time>
      </trkpt>
      <trkpt lat="46.90309" lon="5.02307">
        <ele>175.715336</ele>
        <time>2021-04-28T21:49:39.549Z</time>
      </trkpt>
      <trkpt lat="46.90301" lon="5.02299">
        <ele>175.755319</ele>
        <time>2021-04-28T21:49:42.397Z</time>
      </trkpt>
      <trkpt lat="46.90158" lon="5.02192">
        <ele>176.442899</ele>
        <time>2021-04-28T21:50:27.810Z</time>
      </trkpt>
      <trkpt lat="46.90139" lon="5.02177">
        <ele>176.532819</ele>
        <time>2021-04-28T21:50:33.754Z</time>
      </trkpt>
      <trkpt lat="46.90107" lon="5.02166">
        <ele>176.672044</ele>
        <time>2021-04-28T21:50:43.350Z</time>
      </trkpt>
      <trkpt lat="46.90098" lon="5.02167">
        <ele>176.712987</ele>
        <time>2021-04-28T21:50:46.382Z</time>
      </trkpt>
      <trkpt lat="46.90087" lon="5.02168">
        <ele>176.78756</ele>
        <time>2021-04-28T21:50:49.743Z</time>
      </trkpt>
      <trkpt lat="46.90078" lon="5.02171">
        <ele>176.846896</ele>
        <time>2021-04-28T21:50:52.335Z</time>
      </trkpt>
      <trkpt lat="46.90067" lon="5.02175">
        <ele>176.925839</ele>
        <time>2021-04-28T21:50:55.844Z</time>
      </trkpt>
      <trkpt lat="46.9006" lon="5.02173">
        <ele>176.97689</ele>
        <time>2021-04-28T21:50:59.658Z</time>
      </trkpt>
      <trkpt lat="46.90017" lon="5.02227">
        <ele>177.359434</ele>
        <time>2021-04-28T21:51:26.934Z</time>
      </trkpt>
      <trkpt lat="46.89969" lon="5.02294">
        <ele>177.807214</ele>
        <time>2021-04-28T21:51:59.024Z</time>
      </trkpt>
      <trkpt lat="46.89931" lon="5.02344">
        <ele>177.947896</ele>
        <time>2021-04-28T21:52:23.023Z</time>
      </trkpt>
      <trkpt lat="46.89926" lon="5.02343">
        <ele>177.950324</ele>
        <time>2021-04-28T21:52:24.793Z</time>
      </trkpt>
      <trkpt lat="46.89924" lon="5.02346">
        <ele>177.951962</ele>
        <time>2021-04-28T21:52:26.037Z</time>
      </trkpt>
      <trkpt lat="46.89909" lon="5.02321">
        <ele>177.965886</ele>
        <time>2021-04-28T21:52:32.781Z</time>
      </trkpt>
      <trkpt lat="46.89906" lon="5.02316">
        <ele>177.968448</ele>
        <time>2021-04-28T21:52:34.091Z</time>
      </trkpt>
      <trkpt lat="46.8989" lon="5.02291">
        <ele>177.982102</ele>
        <time>2021-04-28T21:52:40.433Z</time>
      </trkpt>
      <trkpt lat="46.89888" lon="5.02287">
        <ele>177.984494</ele>
        <time>2021-04-28T21:52:41.443Z</time>
      </trkpt>
      <trkpt lat="46.89881" lon="5.02277">
        <ele>177.989956</ele>
        <time>2021-04-28T21:52:43.964Z</time>
      </trkpt>
      <trkpt lat="46.89865" lon="5.02246">
        <ele>178.005787</ele>
        <time>2021-04-28T21:52:51.024Z</time>
      </trkpt>
      <trkpt lat="46.8984" lon="5.02275">
        <ele>178.024844</ele>
        <time>2021-04-28T21:52:59.589Z</time>
      </trkpt>
      <trkpt lat="46.89811" lon="5.02314">
        <ele>178.074727</ele>
        <time>2021-04-28T21:53:10.184Z</time>
      </trkpt>
      <trkpt lat="46.89804" lon="5.02309">
        <ele>178.088058</ele>
        <time>2021-04-28T21:53:12.301Z</time>
      </trkpt>
      <trkpt lat="46.89767" lon="5.02266">
        <ele>178.172731</ele>
        <time>2021-04-28T21:53:25.645Z</time>
      </trkpt>
      <trkpt lat="46.89731" lon="5.0224">
        <ele>178.24353</ele>
        <time>2021-04-28T21:53:39.663Z</time>
      </trkpt>
      <trkpt lat="46.89721" lon="5.02276">
        <ele>178.290568</ele>
        <time>2021-04-28T21:53:47.526Z</time>
      </trkpt>
      <trkpt lat="46.89717" lon="5.0229">
        <ele>178.309497</ele>
        <time>2021-04-28T21:53:50.858Z</time>
      </trkpt>
      <trkpt lat="46.89699" lon="5.02369">
        <ele>178.417939</ele>
        <time>2021-04-28T21:54:08.329Z</time>
      </trkpt>
      <trkpt lat="46.89696" lon="5.02389">
        <ele>178.445301</ele>
        <time>2021-04-28T21:54:12.767Z</time>
      </trkpt>
      <trkpt lat="46.89694" lon="5.02405">
        <ele>178.468141</ele>
        <time>2021-04-28T21:54:16.160Z</time>
      </trkpt>
      <trkpt lat="46.89691" lon="5.02416">
        <ele>178.48354</ele>
        <time>2021-04-28T21:54:18.685Z</time>
      </trkpt>
      <trkpt lat="46.89689" lon="5.02419">
        <ele>178.488725</ele>
        <time>2021-04-28T21:54:19.405Z</time>
      </trkpt>
      <trkpt lat="46.89683" lon="5.02422">
        <ele>178.502308</ele>
        <time>2021-04-28T21:54:21.608Z</time>
      </trkpt>
      <trkpt lat="46.89675" lon="5.02439">
        <ele>178.530868</ele>
        <time>2021-04-28T21:54:25.878Z</time>
      </trkpt>
      <trkpt lat="46.8967" lon="5.02453">
        <ele>178.55173</ele>
        <time>2021-04-28T21:54:29.036Z</time>
      </trkpt>
      <trkpt lat="46.89655" lon="5.02443">
        <ele>178.584333</ele>
        <time>2021-04-28T21:54:33.721Z</time>
      </trkpt>
      <trkpt lat="46.89638" lon="5.02416">
        <ele>178.635188</ele>
        <time>2021-04-28T21:54:40.463Z</time>
      </trkpt>
      <trkpt lat="46.89597" lon="5.02372">
        <ele>178.597389</ele>
        <time>2021-04-28T21:54:53.163Z</time>
      </trkpt>
      <trkpt lat="46.89591" lon="5.02376">
        <ele>178.536866</ele>
        <time>2021-04-28T21:54:54.523Z</time>
      </trkpt>
      <trkpt lat="46.89584" lon="5.02384">
        <ele>178.44718</ele>
        <time>2021-04-28T21:54:56.619Z</time>
      </trkpt>
      <trkpt lat="46.89576" lon="5.02395">
        <ele>178.339716</ele>
        <time>2021-04-28T21:54:59.344Z</time>
      </trkpt>
      <trkpt lat="46.89569" lon="5.02407">
        <ele>178.233223</ele>
        <time>2021-04-28T21:55:01.998Z</time>
      </trkpt>
      <trkpt lat="46.89562" lon="5.02421">
        <ele>178.118352</ele>
        <time>2021-04-28T21:55:04.652Z</time>
      </trkpt>
      <trkpt lat="46.89559" lon="5.02427">
        <ele>178.065742</ele>
        <time>2021-04-28T21:55:05.967Z</time>
      </trkpt>
      <trkpt lat="46.89531" lon="5.02413">
        <ele>177.77628</ele>
        <time>2021-04-28T21:55:12.978Z</time>
      </trkpt>
      <trkpt lat="46.89504" lon="5.02403">
        <ele>177.502302</ele>
        <time>2021-04-28T21:55:19.304Z</time>
      </trkpt>
      <trkpt lat="46.89499" lon="5.02402">
        <ele>177.452989</ele>
        <time>2021-04-28T21:55:20.416Z</time>
      </trkpt>
      <trkpt lat="46.89491" lon="5.02399">
        <ele>177.371581</ele>
        <time>2021-04-28T21:55:22.220Z</time>
      </trkpt>
      <trkpt lat="46.89476" lon="5.02394">
        <ele>177.216124</ele>
        <time>2021-04-28T21:55:25.786Z</time>
      </trkpt>
      <trkpt lat="46.89462" lon="5.02389">
        <ele>177.079212</ele>
        <time>2021-04-28T21:55:28.823Z</time>
      </trkpt>
      <trkpt lat="46.89462" lon="5.02394">
        <ele>177.042951</ele>
        <time>2021-04-28T21:55:29.594Z</time>
      </trkpt>
      <trkpt lat="46.89459" lon="5.0242">
        <ele>176.860395</ele>
        <time>2021-04-28T21:55:33.599Z</time>
      </trkpt>
      <trkpt lat="46.89458" lon="5.0247">
        <ele>176.499387</ele>
        <time>2021-04-28T21:55:41.120Z</time>
      </trkpt>
      <trkpt lat="46.89457" lon="5.02475">
        <ele>176.468631</ele>
        <time>2021-04-28T21:55:41.760Z</time>
      </trkpt>
      <trkpt lat="46.89456" lon="5.02525">
        <ele>176.103413</ele>
        <time>2021-04-28T21:55:49.442Z</time>
      </trkpt>
      <trkpt lat="46.89451" lon="5.02696">
        <ele>175.03749</ele>
        <time>2021-04-28T21:56:17.080Z</time>
      </trkpt>
      <trkpt lat="46.89451" lon="5.02709">
        <ele>175.037389</ele>
        <time>2021-04-28T21:56:19.406Z</time>
      </trkpt>
      <trkpt lat="46.89453" lon="5.02718">
        <ele>175.037326</ele>
        <time>2021-04-28T21:56:20.920Z</time>
      </trkpt>
      <trkpt lat="46.89456" lon="5.02725">
        <ele>175.037265</ele>
        <time>2021-04-28T21:56:22.313Z</time>
      </trkpt>
      <trkpt lat="46.89462" lon="5.02735">
        <ele>175.037167</ele>
        <time>2021-04-28T21:56:24.769Z</time>
      </trkpt>
      <trkpt lat="46.89528" lon="5.02803">
        <ele>175.036308</ele>
        <time>2021-04-28T21:56:46.482Z</time>
      </trkpt>
      <trkpt lat="46.89554" lon="5.02851">
        <ele>175.035856</ele>
        <time>2021-04-28T21:56:58.683Z</time>
      </trkpt>
      <trkpt lat="46.89573" lon="5.02889">
        <ele>175.102652</ele>
        <time>2021-04-28T21:57:08.018Z</time>
      </trkpt>
      <trkpt lat="46.89601" lon="5.02924">
        <ele>175.222717</ele>
        <time>2021-04-28T21:57:18.882Z</time>
      </trkpt>
      <trkpt lat="46.89604" lon="5.02932">
        <ele>175.243478</ele>
        <time>2021-04-28T21:57:21.002Z</time>
      </trkpt>
      <trkpt lat="46.89604" lon="5.02938">
        <ele>175.256784</ele>
        <time>2021-04-28T21:57:22.170Z</time>
      </trkpt>
      <trkpt lat="46.89603" lon="5.02946">
        <ele>175.274277</ele>
        <time>2021-04-28T21:57:23.683Z</time>
      </trkpt>
      <trkpt lat="46.89591" lon="5.02984">
        <ele>175.366866</ele>
        <time>2021-04-28T21:57:31.973Z</time>
      </trkpt>
      <trkpt lat="46.89589" lon="5.02991">
        <ele>175.383596</ele>
        <time>2021-04-28T21:57:33.376Z</time>
      </trkpt>
      <trkpt lat="46.89576" lon="5.03022">
        <ele>175.466474</ele>
        <time>2021-04-28T21:57:40.510Z</time>
      </trkpt>
      <trkpt lat="46.89563" lon="5.03051">
        <ele>175.541858</ele>
        <time>2021-04-28T21:57:46.947Z</time>
      </trkpt>
      <trkpt lat="46.89549" lon="5.03083">
        <ele>175.610763</ele>
        <time>2021-04-28T21:57:54.072Z</time>
      </trkpt>
      <trkpt lat="46.89538" lon="5.03126">
        <ele>175.501141</ele>
        <time>2021-04-28T21:58:02.281Z</time>
      </trkpt>
      <trkpt lat="46.89536" lon="5.03151">
        <ele>175.440821</ele>
        <time>2021-04-28T21:58:06.651Z</time>
      </trkpt>
      <trkpt lat="46.89526" lon="5.03236">
        <ele>175.237266</ele>
        <time>2021-04-28T21:58:21.068Z</time>
      </trkpt>
      <trkpt lat="46.89516" lon="5.03298">
        <ele>175.085491</ele>
        <time>2021-04-28T21:58:31.854Z</time>
      </trkpt>
      <trkpt lat="46.89514" lon="5.0333">
        <ele>175.007616</ele>
        <time>2021-04-28T21:58:37.286Z</time>
      </trkpt>
      <trkpt lat="46.89516" lon="5.03359">
        <ele>174.939469</ele>
        <time>2021-04-28T21:58:42.147Z</time>
      </trkpt>
      <trkpt lat="46.89557" lon="5.0365">
        <ele>174.360308</ele>
        <time>2021-04-28T21:59:33.682Z</time>
      </trkpt>
      <trkpt lat="46.89602" lon="5.03938">
        <ele>174.354704</ele>
        <time>2021-04-28T22:00:28.898Z</time>
      </trkpt>
      <trkpt lat="46.89615" lon="5.04008">
        <ele>174.364701</ele>
        <time>2021-04-28T22:00:42.309Z</time>
      </trkpt>
      <trkpt lat="46.89627" lon="5.04074">
        <ele>174.374172</ele>
        <time>2021-04-28T22:00:54.676Z</time>
      </trkpt>
      <trkpt lat="46.89796" lon="5.04868">
        <ele>172.694921</ele>
        <time>2021-04-28T22:03:18.692Z</time>
      </trkpt>
      <trkpt lat="46.89838" lon="5.05124">
        <ele>172.66594</ele>
        <time>2021-04-28T22:04:07.573Z</time>
      </trkpt>
      <trkpt lat="46.89851" lon="5.05187">
        <ele>172.589817</ele>
        <time>2021-04-28T22:04:19.633Z</time>
      </trkpt>
      <trkpt lat="46.89913" lon="5.0546">
        <ele>172.301881</ele>
        <time>2021-04-28T22:05:09.842Z</time>
      </trkpt>
      <trkpt lat="46.89926" lon="5.05518">
        <ele>172.258938</ele>
        <time>2021-04-28T22:05:20.615Z</time>
      </trkpt>
      <trkpt lat="46.8995" lon="5.05663">
        <ele>172.236761</ele>
        <time>2021-04-28T22:05:48.042Z</time>
      </trkpt>
      <trkpt lat="46.89955" lon="5.05855">
        <ele>172.456114</ele>
        <time>2021-04-28T22:06:24.919Z</time>
      </trkpt>
      <trkpt lat="46.89971" lon="5.06366">
        <ele>172.81585</ele>
        <time>2021-04-28T22:07:59.500Z</time>
      </trkpt>
      <trkpt lat="46.89973" lon="5.06437">
        <ele>172.931975</ele>
        <time>2021-04-28T22:08:13.231Z</time>
      </trkpt>
      <trkpt lat="46.89984" lon="5.06722">
        <ele>173.670414</ele>
        <time>2021-04-28T22:09:09.414Z</time>
      </trkpt>
      <trkpt lat="46.89998" lon="5.0708">
        <ele>174.563799</ele>
        <time>2021-04-28T22:10:18.943Z</time>
      </trkpt>
      <trkpt lat="46.89995" lon="5.07135">
        <ele>174.710541</ele>
        <time>2021-04-28T22:10:29.938Z</time>
      </trkpt>
      <trkpt lat="46.89992" lon="5.07148">
        <ele>174.747404</ele>
        <time>2021-04-28T22:10:32.796Z</time>
      </trkpt>
      <trkpt lat="46.8999" lon="5.07156">
        <ele>174.77068</ele>
        <time>2021-04-28T22:10:34.738Z</time>
      </trkpt>
      <trkpt lat="46.89959" lon="5.07234">
        <ele>174.915061</ele>
        <time>2021-04-28T22:10:51.967Z</time>
      </trkpt>
      <trkpt lat="46.89943" lon="5.07272">
        <ele>174.953799</ele>
        <time>2021-04-28T22:11:00.535Z</time>
      </trkpt>
      <trkpt lat="46.89929" lon="5.07315">
        <ele>174.994611</ele>
        <time>2021-04-28T22:11:09.370Z</time>
      </trkpt>
      <trkpt lat="46.89922" lon="5.07356">
        <ele>175.030803</ele>
        <time>2021-04-28T22:11:17.465Z</time>
      </trkpt>
      <trkpt lat="46.8992" lon="5.07373">
        <ele>175.044879</ele>
        <time>2021-04-28T22:11:20.513Z</time>
      </trkpt>
      <trkpt lat="46.89915" lon="5.07453">
        <ele>175.106919</ele>
        <time>2021-04-28T22:11:34.774Z</time>
      </trkpt>
      <trkpt lat="46.89913" lon="5.07493">
        <ele>175.127836</ele>
        <time>2021-04-28T22:11:41.838Z</time>
      </trkpt>
      <trkpt lat="46.89913" lon="5.07513">
        <ele>175.138586</ele>
        <time>2021-04-28T22:11:45.362Z</time>
      </trkpt>
      <trkpt lat="46.89915" lon="5.07526">
        <ele>175.145487</ele>
        <time>2021-04-28T22:11:47.685Z</time>
      </trkpt>
      <trkpt lat="46.89913" lon="5.07528">
        <ele>175.147771</ele>
        <time>2021-04-28T22:11:48.646Z</time>
      </trkpt>
      <trkpt lat="46.89908" lon="5.07575">
        <ele>175.172542</ele>
        <time>2021-04-28T22:11:57.407Z</time>
      </trkpt>
      <trkpt lat="46.89913" lon="5.07618">
        <ele>175.195738</ele>
        <time>2021-04-28T22:12:05.903Z</time>
      </trkpt>
      <trkpt lat="46.9008" lon="5.07946">
        <ele>175.954793</ele>
        <time>2021-04-28T22:13:29.706Z</time>
      </trkpt>
      <trkpt lat="46.90129" lon="5.08057">
        <ele>175.939771</ele>
        <time>2021-04-28T22:13:54.266Z</time>
      </trkpt>
      <trkpt lat="46.90172" lon="5.08121">
        <ele>175.870598</ele>
        <time>2021-04-28T22:14:10.527Z</time>
      </trkpt>
      <trkpt lat="46.9023" lon="5.08207">
        <ele>175.628079</ele>
        <time>2021-04-28T22:14:31.814Z</time>
      </trkpt>
      <trkpt lat="46.90303" lon="5.08281">
        <ele>175.379984</ele>
        <time>2021-04-28T22:14:56.016Z</time>
      </trkpt>
      <trkpt lat="46.90345" lon="5.08316">
        <ele>175.287355</ele>
        <time>2021-04-28T22:15:09.295Z</time>
      </trkpt>
      <trkpt lat="46.90363" lon="5.08331">
        <ele>175.247698</ele>
        <time>2021-04-28T22:15:14.775Z</time>
      </trkpt>
      <trkpt lat="46.90371" lon="5.08339">
        <ele>175.229489</ele>
        <time>2021-04-28T22:15:17.233Z</time>
      </trkpt>
      <trkpt lat="46.90379" lon="5.08347">
        <ele>175.21141</ele>
        <time>2021-04-28T22:15:20.048Z</time>
      </trkpt>
      <trkpt lat="46.90382" lon="5.08333">
        <ele>175.192168</ele>
        <time>2021-04-28T22:15:22.601Z</time>
      </trkpt>
      <trkpt lat="46.90391" lon="5.08304">
        <ele>175.151448</ele>
        <time>2021-04-28T22:15:28.013Z</time>
      </trkpt>
      <trkpt lat="46.90395" lon="5.08292">
        <ele>175.134419</ele>
        <time>2021-04-28T22:15:30.576Z</time>
      </trkpt>
      <trkpt lat="46.904" lon="5.08277">
        <ele>175.112001</ele>
        <time>2021-04-28T22:15:33.455Z</time>
      </trkpt>
      <trkpt lat="46.90432" lon="5.08213">
        <ele>174.951885</ele>
        <time>2021-04-28T22:15:47.559Z</time>
      </trkpt>
      <trkpt lat="46.90453" lon="5.08176">
        <ele>174.818831</ele>
        <time>2021-04-28T22:15:56.133Z</time>
      </trkpt>
      <trkpt lat="46.90478" lon="5.08129">
        <ele>174.65607</ele>
        <time>2021-04-28T22:16:06.191Z</time>
      </trkpt>
      <trkpt lat="46.90505" lon="5.08081">
        <ele>174.484753</ele>
        <time>2021-04-28T22:16:16.540Z</time>
      </trkpt>
      <trkpt lat="46.90544" lon="5.08093">
        <ele>174.323306</ele>
        <time>2021-04-28T22:16:26.314Z</time>
      </trkpt>
      <trkpt lat="46.9069" lon="5.08124">
        <ele>173.662267</ele>
        <time>2021-04-28T22:17:02.746Z</time>
      </trkpt>
      <trkpt lat="46.90816" lon="5.08197">
        <ele>173.434066</ele>
        <time>2021-04-28T22:17:37.088Z</time>
      </trkpt>
      <trkpt lat="46.90899" lon="5.08271">
        <ele>173.429841</ele>
        <time>2021-04-28T22:18:03.799Z</time>
      </trkpt>
      <trkpt lat="46.90914" lon="5.08285">
        <ele>173.478525</ele>
        <time>2021-04-28T22:18:08.928Z</time>
      </trkpt>
      <trkpt lat="46.90924" lon="5.08291">
        <ele>173.507681</ele>
        <time>2021-04-28T22:18:11.937Z</time>
      </trkpt>
      <trkpt lat="46.91024" lon="5.08319">
        <ele>173.782742</ele>
        <time>2021-04-28T22:18:40.659Z</time>
      </trkpt>
      <trkpt lat="46.91076" lon="5.08342">
        <ele>173.864201</ele>
        <time>2021-04-28T22:18:55.895Z</time>
      </trkpt>
      <trkpt lat="46.91158" lon="5.08393">
        <ele>173.898577</ele>
        <time>2021-04-28T22:19:19.800Z</time>
      </trkpt>
      <trkpt lat="46.91214" lon="5.08446">
        <ele>173.927887</ele>
        <time>2021-04-28T22:19:37.580Z</time>
      </trkpt>
      <trkpt lat="46.91215" lon="5.08447">
        <ele>173.930045</ele>
        <time>2021-04-28T22:19:37.906Z</time>
      </trkpt>
      <trkpt lat="46.91275" lon="5.08507">
        <ele>174.021714</ele>
        <time>2021-04-28T22:19:57.133Z</time>
      </trkpt>
      <trkpt lat="46.91363" lon="5.08595">
        <ele>174.176001</ele>
        <time>2021-04-28T22:20:26.492Z</time>
      </trkpt>
      <trkpt lat="46.9149" lon="5.08747">
        <ele>175.017659</ele>
        <time>2021-04-28T22:21:14.470Z</time>
      </trkpt>
      <trkpt lat="46.91511" lon="5.08766">
        <ele>175.167541</ele>
        <time>2021-04-28T22:21:22.215Z</time>
      </trkpt>
      <trkpt lat="46.9153" lon="5.0877">
        <ele>175.292888</ele>
        <time>2021-04-28T22:21:28.053Z</time>
      </trkpt>
      <trkpt lat="46.91578" lon="5.08764">
        <ele>175.611541</ele>
        <time>2021-04-28T22:21:42.878Z</time>
      </trkpt>
      <trkpt lat="46.9166" lon="5.08807">
        <ele>176.18777</ele>
        <time>2021-04-28T22:22:09.550Z</time>
      </trkpt>
      <trkpt lat="46.91823" lon="5.08827">
        <ele>176.124628</ele>
        <time>2021-04-28T22:22:52.729Z</time>
      </trkpt>
      <trkpt lat="46.91838" lon="5.08826">
        <ele>176.111502</ele>
        <time>2021-04-28T22:22:56.266Z</time>
      </trkpt>
      <trkpt lat="46.91843" lon="5.08826">
        <ele>176.106826</ele>
        <time>2021-04-28T22:22:57.372Z</time>
      </trkpt>
      <trkpt lat="46.92029" lon="5.0879">
        <ele>174.986451</ele>
        <time>2021-04-28T22:23:42.794Z</time>
      </trkpt>
      <trkpt lat="46.9209" lon="5.08788">
        <ele>174.80625</ele>
        <time>2021-04-28T22:23:58.256Z</time>
      </trkpt>
      <trkpt lat="46.92149" lon="5.08796">
        <ele>174.633352</ele>
        <time>2021-04-28T22:24:13.234Z</time>
      </trkpt>
      <trkpt lat="46.92203" lon="5.08822">
        <ele>174.465264</ele>
        <time>2021-04-28T22:24:27.946Z</time>
      </trkpt>
      <trkpt lat="46.92251" lon="5.08856">
        <ele>174.330199</ele>
        <time>2021-04-28T22:24:41.672Z</time>
      </trkpt>
      <trkpt lat="46.92303" lon="5.08911">
        <ele>174.170722</ele>
        <time>2021-04-28T22:24:58.052Z</time>
      </trkpt>
      <trkpt lat="46.92352" lon="5.08988">
        <ele>173.995942</ele>
        <time>2021-04-28T22:25:16.358Z</time>
      </trkpt>
      <trkpt lat="46.92355" lon="5.08993">
        <ele>173.987762</ele>
        <time>2021-04-28T22:25:17.359Z</time>
      </trkpt>
      <trkpt lat="46.92368" lon="5.09011">
        <ele>173.95455</ele>
        <time>2021-04-28T22:25:22.066Z</time>
      </trkpt>
      <trkpt lat="46.9247" lon="5.0911">
        <ele>173.727671</ele>
        <time>2021-04-28T22:25:53.610Z</time>
      </trkpt>
      <trkpt lat="46.92547" lon="5.09163">
        <ele>173.656696</ele>
        <time>2021-04-28T22:26:16.102Z</time>
      </trkpt>
      <trkpt lat="46.92665" lon="5.09226">
        <ele>173.618606</ele>
        <time>2021-04-28T22:26:49.818Z</time>
      </trkpt>
      <trkpt lat="46.92773" lon="5.09322">
        <ele>173.700704</ele>
        <time>2021-04-28T22:27:23.838Z</time>
      </trkpt>
      <trkpt lat="46.92824" lon="5.09354">
        <ele>173.734045</ele>
        <time>2021-04-28T22:27:38.818Z</time>
      </trkpt>
      <trkpt lat="46.92856" lon="5.09366">
        <ele>173.733562</ele>
        <time>2021-04-28T22:27:47.756Z</time>
      </trkpt>
      <trkpt lat="46.92886" lon="5.09377">
        <ele>173.733115</ele>
        <time>2021-04-28T22:27:56.039Z</time>
      </trkpt>
      <trkpt lat="46.93034" lon="5.09431">
        <ele>173.724195</ele>
        <time>2021-04-28T22:28:36.679Z</time>
      </trkpt>
      <trkpt lat="46.93088" lon="5.09442">
        <ele>173.714762</ele>
        <time>2021-04-28T22:28:51.031Z</time>
      </trkpt>
      <trkpt lat="46.93295" lon="5.09421">
        <ele>173.700421</ele>
        <time>2021-04-28T22:29:46.438Z</time>
      </trkpt>
      <trkpt lat="46.93429" lon="5.09393">
        <ele>173.84447</ele>
        <time>2021-04-28T22:30:22.515Z</time>
      </trkpt>
      <trkpt lat="46.93483" lon="5.09396">
        <ele>173.942162</ele>
        <time>2021-04-28T22:30:37.035Z</time>
      </trkpt>
      <trkpt lat="46.93535" lon="5.0942">
        <ele>174.11664</ele>
        <time>2021-04-28T22:30:52.303Z</time>
      </trkpt>
      <trkpt lat="46.93597" lon="5.09452">
        <ele>174.892295</ele>
        <time>2021-04-28T22:31:12.928Z</time>
      </trkpt>
      <trkpt lat="46.93654" lon="5.09481">
        <ele>175.607327</ele>
        <time>2021-04-28T22:31:33.129Z</time>
      </trkpt>
      <trkpt lat="46.9368" lon="5.09492">
        <ele>175.918182</ele>
        <time>2021-04-28T22:31:41.431Z</time>
      </trkpt>
      <trkpt lat="46.93684" lon="5.09492">
        <ele>175.973788</ele>
        <time>2021-04-28T22:31:43.167Z</time>
      </trkpt>
      <trkpt lat="46.93689" lon="5.09493">
        <ele>176.024699</ele>
        <time>2021-04-28T22:31:45.479Z</time>
      </trkpt>
      <trkpt lat="46.93707" lon="5.09486">
        <ele>176.293228</ele>
        <time>2021-04-28T22:31:51.744Z</time>
      </trkpt>
      <trkpt lat="46.93749" lon="5.09437">
        <ele>177.187576</ele>
        <time>2021-04-28T22:32:11.177Z</time>
      </trkpt>
      <trkpt lat="46.93777" lon="5.09415">
        <ele>177.713712</ele>
        <time>2021-04-28T22:32:21.506Z</time>
      </trkpt>
      <trkpt lat="46.93784" lon="5.09414">
        <ele>177.83783</ele>
        <time>2021-04-28T22:32:25.115Z</time>
      </trkpt>
      <trkpt lat="46.93792" lon="5.09415">
        <ele>177.967043</ele>
        <time>2021-04-28T22:32:27.721Z</time>
      </trkpt>
      <trkpt lat="46.93809" lon="5.09425">
        <ele>178.275853</ele>
        <time>2021-04-28T22:32:33.396Z</time>
      </trkpt>
      <trkpt lat="46.93814" lon="5.0943">
        <ele>178.384575</ele>
        <time>2021-04-28T22:32:36.622Z</time>
      </trkpt>
      <trkpt lat="46.93827" lon="5.09445">
        <ele>178.652914</ele>
        <time>2021-04-28T22:32:42.079Z</time>
      </trkpt>
      <trkpt lat="46.93885" lon="5.09514">
        <ele>179.697222</ele>
        <time>2021-04-28T22:33:06.582Z</time>
      </trkpt>
      <trkpt lat="46.93895" lon="5.09528">
        <ele>179.867158</ele>
        <time>2021-04-28T22:33:10.879Z</time>
      </trkpt>
      <trkpt lat="46.93904" lon="5.09542">
        <ele>180.026349</ele>
        <time>2021-04-28T22:33:15.732Z</time>
      </trkpt>
      <trkpt lat="46.93967" lon="5.09669">
        <ele>181.335996</ele>
        <time>2021-04-28T22:33:49.771Z</time>
      </trkpt>
      <trkpt lat="46.93991" lon="5.09716">
        <ele>181.755718</ele>
        <time>2021-04-28T22:34:02.695Z</time>
      </trkpt>
      <trkpt lat="46.94008" lon="5.09748">
        <ele>182.048504</ele>
        <time>2021-04-28T22:34:11.495Z</time>
      </trkpt>
      <trkpt lat="46.94016" lon="5.09764">
        <ele>182.19276</ele>
        <time>2021-04-28T22:34:15.844Z</time>
      </trkpt>
      <trkpt lat="46.9403" lon="5.09792">
        <ele>182.447949</ele>
        <time>2021-04-28T22:34:23.521Z</time>
      </trkpt>
      <trkpt lat="46.94074" lon="5.09879">
        <ele>183.227242</ele>
        <time>2021-04-28T22:34:47.126Z</time>
      </trkpt>
      <trkpt lat="46.94142" lon="5.10017">
        <ele>183.959237</ele>
        <time>2021-04-28T22:35:22.695Z</time>
      </trkpt>
      <trkpt lat="46.94143" lon="5.10019">
        <ele>183.969791</ele>
        <time>2021-04-28T22:35:23.340Z</time>
      </trkpt>
      <trkpt lat="46.94151" lon="5.10038">
        <ele>184.063359</ele>
        <time>2021-04-28T22:35:27.616Z</time>
      </trkpt>
      <trkpt lat="46.94188" lon="5.1014">
        <ele>184.35546</ele>
        <time>2021-04-28T22:35:49.726Z</time>
      </trkpt>
      <trkpt lat="46.94287" lon="5.1045">
        <ele>183.656808</ele>
        <time>2021-04-28T22:36:50.760Z</time>
      </trkpt>
      <trkpt lat="46.94319" lon="5.10639">
        <ele>182.472917</ele>
        <time>2021-04-28T22:37:20.692Z</time>
      </trkpt>
      <trkpt lat="46.94326" lon="5.10677">
        <ele>182.157912</ele>
        <time>2021-04-28T22:37:26.780Z</time>
      </trkpt>
      <trkpt lat="46.94327" lon="5.10683">
        <ele>182.103622</ele>
        <time>2021-04-28T22:37:27.646Z</time>
      </trkpt>
      <trkpt lat="46.94367" lon="5.10865">
        <ele>180.744458</ele>
        <time>2021-04-28T22:37:57.292Z</time>
      </trkpt>
      <trkpt lat="46.94441" lon="5.11086">
        <ele>180.418296</ele>
        <time>2021-04-28T22:38:41.335Z</time>
      </trkpt>
      <trkpt lat="46.94502" lon="5.11447">
        <ele>182.248502</ele>
        <time>2021-04-28T22:39:58.407Z</time>
      </trkpt>
      <trkpt lat="46.94503" lon="5.11458">
        <ele>182.319938</ele>
        <time>2021-04-28T22:40:00.883Z</time>
      </trkpt>
      <trkpt lat="46.94508" lon="5.11484">
        <ele>182.492502</ele>
        <time>2021-04-28T22:40:06.801Z</time>
      </trkpt>
      <trkpt lat="46.94513" lon="5.11509">
        <ele>182.661391</ele>
        <time>2021-04-28T22:40:12.506Z</time>
      </trkpt>
      <trkpt lat="46.94518" lon="5.11525">
        <ele>182.769089</ele>
        <time>2021-04-28T22:40:16.117Z</time>
      </trkpt>
      <trkpt lat="46.9452" lon="5.11531">
        <ele>182.810705</ele>
        <time>2021-04-28T22:40:17.668Z</time>
      </trkpt>
      <trkpt lat="46.94575" lon="5.11658">
        <ele>183.833535</ele>
        <time>2021-04-28T22:40:50.534Z</time>
      </trkpt>
      <trkpt lat="46.94646" lon="5.11772">
        <ele>184.910961</ele>
        <time>2021-04-28T22:41:23.747Z</time>
      </trkpt>
      <trkpt lat="46.94681" lon="5.11841">
        <ele>185.533673</ele>
        <time>2021-04-28T22:41:42.393Z</time>
      </trkpt>
      <trkpt lat="46.947" lon="5.11904">
        <ele>186.032955</ele>
        <time>2021-04-28T22:41:57.179Z</time>
      </trkpt>
      <trkpt lat="46.94723" lon="5.12026">
        <ele>186.936658</ele>
        <time>2021-04-28T22:42:24.878Z</time>
      </trkpt>
      <trkpt lat="46.94751" lon="5.12094">
        <ele>187.356299</ele>
        <time>2021-04-28T22:42:42.017Z</time>
      </trkpt>
      <trkpt lat="46.94769" lon="5.12121">
        <ele>187.557748</ele>
        <time>2021-04-28T22:42:50.136Z</time>
      </trkpt>
      <trkpt lat="46.94779" lon="5.12133">
        <ele>187.656033</ele>
        <time>2021-04-28T22:42:54.099Z</time>
      </trkpt>
      <trkpt lat="46.94814" lon="5.12173">
        <ele>187.999616</ele>
        <time>2021-04-28T22:43:07.793Z</time>
      </trkpt>
      <trkpt lat="46.94993" lon="5.12328">
        <ele>188.658688</ele>
        <time>2021-04-28T22:44:06.577Z</time>
      </trkpt>
      <trkpt lat="46.95006" lon="5.12336">
        <ele>188.662727</ele>
        <time>2021-04-28T22:44:10.045Z</time>
      </trkpt>
      <trkpt lat="46.95052" lon="5.12361">
        <ele>188.254226</ele>
        <time>2021-04-28T22:44:22.031Z</time>
      </trkpt>
      <trkpt lat="46.95062" lon="5.12369">
        <ele>188.155619</ele>
        <time>2021-04-28T22:44:24.865Z</time>
      </trkpt>
      <trkpt lat="46.95065" lon="5.12367">
        <ele>188.127574</ele>
        <time>2021-04-28T22:44:25.636Z</time>
      </trkpt>
      <trkpt lat="46.9522" lon="5.12407">
        <ele>186.521533</ele>
        <time>2021-04-28T22:45:03.121Z</time>
      </trkpt>
      <trkpt lat="46.95352" lon="5.12418">
        <ele>184.533262</ele>
        <time>2021-04-28T22:45:33.487Z</time>
      </trkpt>
      <trkpt lat="46.95515" lon="5.12419">
        <ele>181.687596</ele>
        <time>2021-04-28T22:46:10.078Z</time>
      </trkpt>
      <trkpt lat="46.95557" lon="5.12417">
        <ele>181.049677</ele>
        <time>2021-04-28T22:46:19.519Z</time>
      </trkpt>
      <trkpt lat="46.95712" lon="5.12354">
        <ele>178.978842</ele>
        <time>2021-04-28T22:46:57.390Z</time>
      </trkpt>
      <trkpt lat="46.95726" lon="5.12339">
        <ele>178.906486</ele>
        <time>2021-04-28T22:47:01.674Z</time>
      </trkpt>
      <trkpt lat="46.95803" lon="5.12038">
        <ele>178.358736</ele>
        <time>2021-04-28T22:48:00.262Z</time>
      </trkpt>
      <trkpt lat="46.95814" lon="5.12022">
        <ele>178.389104</ele>
        <time>2021-04-28T22:48:04.953Z</time>
      </trkpt>
      <trkpt lat="46.95847" lon="5.11996">
        <ele>178.46066</ele>
        <time>2021-04-28T22:48:15.918Z</time>
      </trkpt>
      <trkpt lat="46.95891" lon="5.11976">
        <ele>178.550081</ele>
        <time>2021-04-28T22:48:29.681Z</time>
      </trkpt>
      <trkpt lat="46.95914" lon="5.11973">
        <ele>178.591922</ele>
        <time>2021-04-28T22:48:36.836Z</time>
      </trkpt>
      <trkpt lat="46.95946" lon="5.11984">
        <ele>178.593145</ele>
        <time>2021-04-28T22:48:46.885Z</time>
      </trkpt>
      <trkpt lat="46.95995" lon="5.12004">
        <ele>178.595029</ele>
        <time>2021-04-28T22:49:01.883Z</time>
      </trkpt>
      <trkpt lat="46.96045" lon="5.12072">
        <ele>178.597571</ele>
        <time>2021-04-28T22:49:20.467Z</time>
      </trkpt>
      <trkpt lat="46.96056" lon="5.12085">
        <ele>178.598115</ele>
        <time>2021-04-28T22:49:24.237Z</time>
      </trkpt>
      <trkpt lat="46.9609" lon="5.12091">
        <ele>178.323808</ele>
        <time>2021-04-28T22:49:32.730Z</time>
      </trkpt>
      <trkpt lat="46.96113" lon="5.12114">
        <ele>177.992883</ele>
        <time>2021-04-28T22:49:39.290Z</time>
      </trkpt>
      <trkpt lat="46.96151" lon="5.12135">
        <ele>177.495962</ele>
        <time>2021-04-28T22:49:55.483Z</time>
      </trkpt>
      <trkpt lat="46.96213" lon="5.12148">
        <ele>176.721218</ele>
        <time>2021-04-28T22:50:20.261Z</time>
      </trkpt>
      <trkpt lat="46.96273" lon="5.12133">
        <ele>175.96173</ele>
        <time>2021-04-28T22:50:43.573Z</time>
      </trkpt>
      <trkpt lat="46.96485" lon="5.11997">
        <ele>173.593527</ele>
        <time>2021-04-28T22:52:16.290Z</time>
      </trkpt>
      <trkpt lat="46.96542" lon="5.11966">
        <ele>173.235132</ele>
        <time>2021-04-28T22:52:42.358Z</time>
      </trkpt>
      <trkpt lat="46.96633" lon="5.11949">
        <ele>173.35627</ele>
        <time>2021-04-28T22:53:23.942Z</time>
      </trkpt>
      <trkpt lat="46.96747" lon="5.11935">
        <ele>173.981733</ele>
        <time>2021-04-28T22:54:19.014Z</time>
      </trkpt>
      <trkpt lat="46.96884" lon="5.11955">
        <ele>174.707774</ele>
        <time>2021-04-28T22:55:25.039Z</time>
      </trkpt>
      <trkpt lat="46.96906" lon="5.11964">
        <ele>174.822608</ele>
        <time>2021-04-28T22:55:35.399Z</time>
      </trkpt>
      <trkpt lat="46.9692" lon="5.11969">
        <ele>174.899594</ele>
        <time>2021-04-28T22:55:41.840Z</time>
      </trkpt>
      <trkpt lat="46.9696" lon="5.11984">
        <ele>174.879385</ele>
        <time>2021-04-28T22:56:00.288Z</time>
      </trkpt>
      <trkpt lat="46.96996" lon="5.11985">
        <ele>174.771287</ele>
        <time>2021-04-28T22:56:16.205Z</time>
      </trkpt>
      <trkpt lat="46.97077" lon="5.12022">
        <ele>174.518602</ele>
        <time>2021-04-28T22:56:52.084Z</time>
      </trkpt>
      <trkpt lat="46.97183" lon="5.12128">
        <ele>174.029285</ele>
        <time>2021-04-28T22:57:46.375Z</time>
      </trkpt>
      <trkpt lat="46.97223" lon="5.1218">
        <ele>173.81251</ele>
        <time>2021-04-28T22:58:09.277Z</time>
      </trkpt>
      <trkpt lat="46.97232" lon="5.12198">
        <ele>173.75095</ele>
        <time>2021-04-28T22:58:15.870Z</time>
      </trkpt>
      <trkpt lat="46.97246" lon="5.1227">
        <ele>173.736162</ele>
        <time>2021-04-28T22:58:38.381Z</time>
      </trkpt>
      <trkpt lat="46.97262" lon="5.12317">
        <ele>173.770542</ele>
        <time>2021-04-28T22:58:54.456Z</time>
      </trkpt>
      <trkpt lat="46.97273" lon="5.12371">
        <ele>173.807598</ele>
        <time>2021-04-28T22:59:11.993Z</time>
      </trkpt>
      <trkpt lat="46.97285" lon="5.12527">
        <ele>173.935876</ele>
        <time>2021-04-28T23:00:00.919Z</time>
      </trkpt>
      <trkpt lat="46.97284" lon="5.12568">
        <ele>173.980577</ele>
        <time>2021-04-28T23:00:13.674Z</time>
      </trkpt>
      <trkpt lat="46.97296" lon="5.12698">
        <ele>174.124165</ele>
        <time>2021-04-28T23:00:54.382Z</time>
      </trkpt>
      <trkpt lat="46.97313" lon="5.12777">
        <ele>174.09748</ele>
        <time>2021-04-28T23:01:19.543Z</time>
      </trkpt>
      <trkpt lat="46.97316" lon="5.12795">
        <ele>174.074244</ele>
        <time>2021-04-28T23:01:25.134Z</time>
      </trkpt>
      <trkpt lat="46.97353" lon="5.12914">
        <ele>173.910477</ele>
        <time>2021-04-28T23:02:03.986Z</time>
      </trkpt>
      <trkpt lat="46.97443" lon="5.13064">
        <ele>173.577312</ele>
        <time>2021-04-28T23:03:02.455Z</time>
      </trkpt>
      <trkpt lat="46.97493" lon="5.13112">
        <ele>173.412207</ele>
        <time>2021-04-28T23:03:28.501Z</time>
      </trkpt>
      <trkpt lat="46.97565" lon="5.13153">
        <ele>173.402923</ele>
        <time>2021-04-28T23:04:02.521Z</time>
      </trkpt>
      <trkpt lat="46.97612" lon="5.13165">
        <ele>173.467779</ele>
        <time>2021-04-28T23:04:23.847Z</time>
      </trkpt>
      <trkpt lat="46.97664" lon="5.13176">
        <ele>173.539839</ele>
        <time>2021-04-28T23:04:47.980Z</time>
      </trkpt>
      <trkpt lat="46.9774" lon="5.13229">
        <ele>173.89491</ele>
        <time>2021-04-28T23:05:27.033Z</time>
      </trkpt>
      <trkpt lat="46.97765" lon="5.1325">
        <ele>174.067948</ele>
        <time>2021-04-28T23:05:41.045Z</time>
      </trkpt>
      <trkpt lat="46.97774" lon="5.13258">
        <ele>174.127969</ele>
        <time>2021-04-28T23:05:44.141Z</time>
      </trkpt>
      <trkpt lat="46.9793" lon="5.13382">
        <ele>174.986894</ele>
        <time>2021-04-28T23:06:38.918Z</time>
      </trkpt>
      <trkpt lat="46.9811" lon="5.13525">
        <ele>175.330855</ele>
        <time>2021-04-28T23:07:37.467Z</time>
      </trkpt>
      <trkpt lat="46.98251" lon="5.13633">
        <ele>175.043466</ele>
        <time>2021-04-28T23:08:19.584Z</time>
      </trkpt>
      <trkpt lat="46.98324" lon="5.13695">
        <ele>174.78465</ele>
        <time>2021-04-28T23:08:41.872Z</time>
      </trkpt>
      <trkpt lat="46.9836" lon="5.13739">
        <ele>174.633852</ele>
        <time>2021-04-28T23:08:54.109Z</time>
      </trkpt>
      <trkpt lat="46.98377" lon="5.13767">
        <ele>174.550691</ele>
        <time>2021-04-28T23:09:00.956Z</time>
      </trkpt>
      <trkpt lat="46.9841" lon="5.13824">
        <ele>174.386549</ele>
        <time>2021-04-28T23:09:14.424Z</time>
      </trkpt>
      <trkpt lat="46.98478" lon="5.13945">
        <ele>174.132705</ele>
        <time>2021-04-28T23:09:43.204Z</time>
      </trkpt>
      <trkpt lat="46.98562" lon="5.14122">
        <ele>173.9767</ele>
        <time>2021-04-28T23:10:23.105Z</time>
      </trkpt>
      <trkpt lat="46.98563" lon="5.14127">
        <ele>173.98133</ele>
        <time>2021-04-28T23:10:24.113Z</time>
      </trkpt>
      <trkpt lat="46.98617" lon="5.14301">
        <ele>174.159345</ele>
        <time>2021-04-28T23:11:00.823Z</time>
      </trkpt>
      <trkpt lat="46.98634" lon="5.14345">
        <ele>174.229259</ele>
        <time>2021-04-28T23:11:11.438Z</time>
      </trkpt>
      <trkpt lat="46.98662" lon="5.14393">
        <ele>174.450657</ele>
        <time>2021-04-28T23:11:24.482Z</time>
      </trkpt>
      <trkpt lat="46.98709" lon="5.14443">
        <ele>174.752869</ele>
        <time>2021-04-28T23:11:42.181Z</time>
      </trkpt>
      <trkpt lat="46.98736" lon="5.14461">
        <ele>174.906586</ele>
        <time>2021-04-28T23:11:51.413Z</time>
      </trkpt>
      <trkpt lat="46.98745" lon="5.14466">
        <ele>174.953405</ele>
        <time>2021-04-28T23:11:54.089Z</time>
      </trkpt>
      <trkpt lat="46.98799" lon="5.14503">
        <ele>175.285272</ele>
        <time>2021-04-28T23:12:12.658Z</time>
      </trkpt>
      <trkpt lat="46.98805" lon="5.14505">
        <ele>175.323978</ele>
        <time>2021-04-28T23:12:14.626Z</time>
      </trkpt>
      <trkpt lat="46.98814" lon="5.14506">
        <ele>175.376049</ele>
        <time>2021-04-28T23:12:17.228Z</time>
      </trkpt>
      <trkpt lat="46.98821" lon="5.14505">
        <ele>175.419185</ele>
        <time>2021-04-28T23:12:19.418Z</time>
      </trkpt>
      <trkpt lat="46.98947" lon="5.14513">
        <ele>176.174531</ele>
        <time>2021-04-28T23:12:57.898Z</time>
      </trkpt>
      <trkpt lat="46.98982" lon="5.14526">
        <ele>176.467921</ele>
        <time>2021-04-28T23:13:08.984Z</time>
      </trkpt>
      <trkpt lat="46.9908" lon="5.14603">
        <ele>177.414466</ele>
        <time>2021-04-28T23:13:44.730Z</time>
      </trkpt>
      <trkpt lat="46.99157" lon="5.14669">
        <ele>178.036158</ele>
        <time>2021-04-28T23:14:13.355Z</time>
      </trkpt>
      <trkpt lat="46.99179" lon="5.1468">
        <ele>178.176584</ele>
        <time>2021-04-28T23:14:20.869Z</time>
      </trkpt>
      <trkpt lat="46.99211" lon="5.14696">
        <ele>178.373513</ele>
        <time>2021-04-28T23:14:31.277Z</time>
      </trkpt>
      <trkpt lat="46.99227" lon="5.14704">
        <ele>178.472189</ele>
        <time>2021-04-28T23:14:36.424Z</time>
      </trkpt>
      <trkpt lat="46.99305" lon="5.14744">
        <ele>178.782369</ele>
        <time>2021-04-28T23:15:00.405Z</time>
      </trkpt>
      <trkpt lat="46.9936" lon="5.14737">
        <ele>178.757673</ele>
        <time>2021-04-28T23:15:15.680Z</time>
      </trkpt>
      <trkpt lat="46.99403" lon="5.14727">
        <ele>178.73807</ele>
        <time>2021-04-28T23:15:27.503Z</time>
      </trkpt>
      <trkpt lat="46.99416" lon="5.14716">
        <ele>178.731547</ele>
        <time>2021-04-28T23:15:31.250Z</time>
      </trkpt>
      <trkpt lat="46.9963" lon="5.14543">
        <ele>178.869663</ele>
        <time>2021-04-28T23:16:38.630Z</time>
      </trkpt>
      <trkpt lat="46.99664" lon="5.1452">
        <ele>179.095947</ele>
        <time>2021-04-28T23:16:50.551Z</time>
      </trkpt>
      <trkpt lat="46.99681" lon="5.14509">
        <ele>179.209614</ele>
        <time>2021-04-28T23:16:56.319Z</time>
      </trkpt>
      <trkpt lat="46.99717" lon="5.14486">
        <ele>179.449497</ele>
        <time>2021-04-28T23:17:08.404Z</time>
      </trkpt>
      <trkpt lat="46.99763" lon="5.14455">
        <ele>179.7571</ele>
        <time>2021-04-28T23:17:23.773Z</time>
      </trkpt>
      <trkpt lat="46.99802" lon="5.14435">
        <ele>179.927085</ele>
        <time>2021-04-28T23:17:35.913Z</time>
      </trkpt>
      <trkpt lat="46.99842" lon="5.14432">
        <ele>180.078148</ele>
        <time>2021-04-28T23:17:47.312Z</time>
      </trkpt>
      <trkpt lat="46.99912" lon="5.14425">
        <ele>180.339025</ele>
        <time>2021-04-28T23:18:06.764Z</time>
      </trkpt>
      <trkpt lat="46.99952" lon="5.14418">
        <ele>180.489171</ele>
        <time>2021-04-28T23:18:17.797Z</time>
      </trkpt>
      <trkpt lat="46.99988" lon="5.14406">
        <ele>180.620012</ele>
        <time>2021-04-28T23:18:28.457Z</time>
      </trkpt>
      <trkpt lat="46.99992" lon="5.14425">
        <ele>180.665956</ele>
        <time>2021-04-28T23:18:32.527Z</time>
      </trkpt>
      <trkpt lat="47" lon="5.14467">
        <ele>180.769837</ele>
        <time>2021-04-28T23:18:41.528Z</time>
      </trkpt>
      <trkpt lat="47.00005" lon="5.14509">
        <ele>180.873155</ele>
        <time>2021-04-28T23:18:50.223Z</time>
      </trkpt>
      <trkpt lat="47.00006" lon="5.14549">
        <ele>180.96819</ele>
        <time>2021-04-28T23:18:58.107Z</time>
      </trkpt>
      <trkpt lat="47.00006" lon="5.14581">
        <ele>181.045315</ele>
        <time>2021-04-28T23:19:04.501Z</time>
      </trkpt>
      <trkpt lat="47.00006" lon="5.1459">
        <ele>181.065382</ele>
        <time>2021-04-28T23:19:06.141Z</time>
      </trkpt>
      <trkpt lat="47.00006" lon="5.146">
        <ele>181.088778</ele>
        <time>2021-04-28T23:19:08.218Z</time>
      </trkpt>
      <trkpt lat="47.00002" lon="5.14653">
        <ele>181.130999</ele>
        <time>2021-04-28T23:19:19.246Z</time>
      </trkpt>
      <trkpt lat="47.00002" lon="5.14661">
        <ele>181.135734</ele>
        <time>2021-04-28T23:19:21.121Z</time>
      </trkpt>
      <trkpt lat="47.00026" lon="5.14667">
        <ele>181.156308</ele>
        <time>2021-04-28T23:19:28.159Z</time>
      </trkpt>
      <trkpt lat="47.00084" lon="5.1468">
        <ele>181.204699</ele>
        <time>2021-04-28T23:19:44.971Z</time>
      </trkpt>
      <trkpt lat="47.00109" lon="5.14695">
        <ele>181.226827</ele>
        <time>2021-04-28T23:19:52.477Z</time>
      </trkpt>
      <trkpt lat="47.00133" lon="5.14737">
        <ele>181.246332</ele>
        <time>2021-04-28T23:20:02.283Z</time>
      </trkpt>
      <trkpt lat="47.00137" lon="5.14747">
        <ele>181.236773</ele>
        <time>2021-04-28T23:20:04.244Z</time>
      </trkpt>
      <trkpt lat="47.00213" lon="5.14785">
        <ele>181.140818</ele>
        <time>2021-04-28T23:20:25.586Z</time>
      </trkpt>
      <trkpt lat="47.00221" lon="5.14866">
        <ele>181.074873</ele>
        <time>2021-04-28T23:20:40.562Z</time>
      </trkpt>
      <trkpt lat="47.00225" lon="5.1488">
        <ele>181.062111</ele>
        <time>2021-04-28T23:20:43.412Z</time>
      </trkpt>
      <trkpt lat="47.00244" lon="5.14915">
        <ele>180.996548</ele>
        <time>2021-04-28T23:20:51.572Z</time>
      </trkpt>
      <trkpt lat="47.00264" lon="5.14941">
        <ele>180.886073</ele>
        <time>2021-04-28T23:20:58.751Z</time>
      </trkpt>
      <trkpt lat="47.00298" lon="5.14952">
        <ele>180.742963</ele>
        <time>2021-04-28T23:21:07.319Z</time>
      </trkpt>
      <trkpt lat="47.00391" lon="5.14996">
        <ele>180.344021</ele>
        <time>2021-04-28T23:21:31.164Z</time>
      </trkpt>
      <trkpt lat="47.00413" lon="5.15021">
        <ele>180.192478</ele>
        <time>2021-04-28T23:21:38.466Z</time>
      </trkpt>
      <trkpt lat="47.00414" lon="5.15023">
        <ele>180.178824</ele>
        <time>2021-04-28T23:21:38.951Z</time>
      </trkpt>
      <trkpt lat="47.00423" lon="5.15026">
        <ele>180.124284</ele>
        <time>2021-04-28T23:21:40.967Z</time>
      </trkpt>
      <trkpt lat="47.00462" lon="5.15055">
        <ele>179.848039</ele>
        <time>2021-04-28T23:21:51.733Z</time>
      </trkpt>
      <trkpt lat="47.00483" lon="5.15076">
        <ele>179.688565</ele>
        <time>2021-04-28T23:21:57.982Z</time>
      </trkpt>
      <trkpt lat="47.00541" lon="5.15133">
        <ele>179.247403</ele>
        <time>2021-04-28T23:22:14.713Z</time>
      </trkpt>
      <trkpt lat="47.0055" lon="5.15141">
        <ele>179.185441</ele>
        <time>2021-04-28T23:22:16.908Z</time>
      </trkpt>
      <trkpt lat="47.00872" lon="5.15454">
        <ele>177.102122</ele>
        <time>2021-04-28T23:23:51.122Z</time>
      </trkpt>
      <trkpt lat="47.00938" lon="5.15523">
        <ele>177.275798</ele>
        <time>2021-04-28T23:24:13.618Z</time>
      </trkpt>
      <trkpt lat="47.00972" lon="5.15562">
        <ele>177.368457</ele>
        <time>2021-04-28T23:24:26.134Z</time>
      </trkpt>
      <trkpt lat="47.00984" lon="5.15579">
        <ele>177.405512</ele>
        <time>2021-04-28T23:24:31.320Z</time>
      </trkpt>
      <trkpt lat="47.01127" lon="5.15813">
        <ele>178.357838</ele>
        <time>2021-04-28T23:25:33.911Z</time>
      </trkpt>
      <trkpt lat="47.01175" lon="5.15865">
        <ele>178.386801</ele>
        <time>2021-04-28T23:25:50.182Z</time>
      </trkpt>
      <trkpt lat="47.01241" lon="5.15918">
        <ele>178.42357</ele>
        <time>2021-04-28T23:26:10.266Z</time>
      </trkpt>
      <trkpt lat="47.01361" lon="5.16012">
        <ele>178.217597</ele>
        <time>2021-04-28T23:26:45.295Z</time>
      </trkpt>
      <trkpt lat="47.01366" lon="5.16016">
        <ele>178.207364</ele>
        <time>2021-04-28T23:26:46.589Z</time>
      </trkpt>
      <trkpt lat="47.01608" lon="5.16204">
        <ele>177.859221</ele>
        <time>2021-04-28T23:27:57.346Z</time>
      </trkpt>
      <trkpt lat="47.01858" lon="5.16378">
        <ele>178.502891</ele>
        <time>2021-04-28T23:29:15.160Z</time>
      </trkpt>
      <trkpt lat="47.019" lon="5.164">
        <ele>178.632036</ele>
        <time>2021-04-28T23:29:27.684Z</time>
      </trkpt>
      <trkpt lat="47.01904" lon="5.16402">
        <ele>178.645522</ele>
        <time>2021-04-28T23:29:28.967Z</time>
      </trkpt>
      <trkpt lat="47.01949" lon="5.16425">
        <ele>178.714094</ele>
        <time>2021-04-28T23:29:42.173Z</time>
      </trkpt>
      <trkpt lat="47.02015" lon="5.16471">
        <ele>178.813222</ele>
        <time>2021-04-28T23:30:02.440Z</time>
      </trkpt>
      <trkpt lat="47.02166" lon="5.1661">
        <ele>178.898952</ele>
        <time>2021-04-28T23:30:50.186Z</time>
      </trkpt>
      <trkpt lat="47.02343" lon="5.16802">
        <ele>178.948531</ele>
        <time>2021-04-28T23:31:48.836Z</time>
      </trkpt>
      <trkpt lat="47.02364" lon="5.16824">
        <ele>178.956031</ele>
        <time>2021-04-28T23:31:55.894Z</time>
      </trkpt>
      <trkpt lat="47.0243" lon="5.1688">
        <ele>178.958888</ele>
        <time>2021-04-28T23:32:16.398Z</time>
      </trkpt>
      <trkpt lat="47.02526" lon="5.16953">
        <ele>178.951045</ele>
        <time>2021-04-28T23:32:45.158Z</time>
      </trkpt>
      <trkpt lat="47.02762" lon="5.17099">
        <ele>178.61625</ele>
        <time>2021-04-28T23:33:51.570Z</time>
      </trkpt>
      <trkpt lat="47.02824" lon="5.17153">
        <ele>178.576049</ele>
        <time>2021-04-28T23:34:10.478Z</time>
      </trkpt>
      <trkpt lat="47.02947" lon="5.17279">
        <ele>179.097986</ele>
        <time>2021-04-28T23:34:53.031Z</time>
      </trkpt>
      <trkpt lat="47.02977" lon="5.17309">
        <ele>179.254861</ele>
        <time>2021-04-28T23:35:03.886Z</time>
      </trkpt>
      <trkpt lat="47.02985" lon="5.17317">
        <ele>179.298428</ele>
        <time>2021-04-28T23:35:06.923Z</time>
      </trkpt>
      <trkpt lat="47.03002" lon="5.17332">
        <ele>179.408807</ele>
        <time>2021-04-28T23:35:12.799Z</time>
      </trkpt>
      <trkpt lat="47.03033" lon="5.1736">
        <ele>179.646523</ele>
        <time>2021-04-28T23:35:23.607Z</time>
      </trkpt>
      <trkpt lat="47.03138" lon="5.17444">
        <ele>180.427614</ele>
        <time>2021-04-28T23:35:59.371Z</time>
      </trkpt>
      <trkpt lat="47.03221" lon="5.17504">
        <ele>180.966304</ele>
        <time>2021-04-28T23:36:27.028Z</time>
      </trkpt>
      <trkpt lat="47.03265" lon="5.17537">
        <ele>181.251404</ele>
        <time>2021-04-28T23:36:41.728Z</time>
      </trkpt>
      <trkpt lat="47.0328" lon="5.17547">
        <ele>181.345522</ele>
        <time>2021-04-28T23:36:46.588Z</time>
      </trkpt>
      <trkpt lat="47.03292" lon="5.17556">
        <ele>181.423506</ele>
        <time>2021-04-28T23:36:50.569Z</time>
      </trkpt>
      <trkpt lat="47.03307" lon="5.17567">
        <ele>181.517818</ele>
        <time>2021-04-28T23:36:55.410Z</time>
      </trkpt>
      <trkpt lat="47.03375" lon="5.17632">
        <ele>181.366237</ele>
        <time>2021-04-28T23:37:17.686Z</time>
      </trkpt>
      <trkpt lat="47.03425" lon="5.17702">
        <ele>181.212949</ele>
        <time>2021-04-28T23:37:34.812Z</time>
      </trkpt>
      <trkpt lat="47.03433" lon="5.17716">
        <ele>181.183897</ele>
        <time>2021-04-28T23:37:37.910Z</time>
      </trkpt>
      <trkpt lat="47.03443" lon="5.17734">
        <ele>181.149589</ele>
        <time>2021-04-28T23:37:41.425Z</time>
      </trkpt>
      <trkpt lat="47.03472" lon="5.17796">
        <ele>180.737258</ele>
        <time>2021-04-28T23:37:53.635Z</time>
      </trkpt>
      <trkpt lat="47.03506" lon="5.17884">
        <ele>180.142923</ele>
        <time>2021-04-28T23:38:09.572Z</time>
      </trkpt>
      <trkpt lat="47.03521" lon="5.17924">
        <ele>179.868777</ele>
        <time>2021-04-28T23:38:16.846Z</time>
      </trkpt>
      <trkpt lat="47.03535" lon="5.17961">
        <ele>179.621245</ele>
        <time>2021-04-28T23:38:23.841Z</time>
      </trkpt>
      <trkpt lat="47.03537" lon="5.17971">
        <ele>179.570569</ele>
        <time>2021-04-28T23:38:25.445Z</time>
      </trkpt>
      <trkpt lat="47.03537" lon="5.1798">
        <ele>179.542597</ele>
        <time>2021-04-28T23:38:26.962Z</time>
      </trkpt>
      <trkpt lat="47.03538" lon="5.17987">
        <ele>179.520374</ele>
        <time>2021-04-28T23:38:28.149Z</time>
      </trkpt>
      <trkpt lat="47.0354" lon="5.17993">
        <ele>179.498808</ele>
        <time>2021-04-28T23:38:29.388Z</time>
      </trkpt>
      <trkpt lat="47.03544" lon="5.17998">
        <ele>179.475013</ele>
        <time>2021-04-28T23:38:30.702Z</time>
      </trkpt>
      <trkpt lat="47.03554" lon="5.18002">
        <ele>179.430782</ele>
        <time>2021-04-28T23:38:33.100Z</time>
      </trkpt>
      <trkpt lat="47.03559" lon="5.18001">
        <ele>179.406402</ele>
        <time>2021-04-28T23:38:34.341Z</time>
      </trkpt>
      <trkpt lat="47.03567" lon="5.18007">
        <ele>179.363979</ele>
        <time>2021-04-28T23:38:36.622Z</time>
      </trkpt>
      <trkpt lat="47.03592" lon="5.18032">
        <ele>179.226353</ele>
        <time>2021-04-28T23:38:44.169Z</time>
      </trkpt>
      <trkpt lat="47.03626" lon="5.18067">
        <ele>179.039053</ele>
        <time>2021-04-28T23:38:54.460Z</time>
      </trkpt>
      <trkpt lat="47.03668" lon="5.18113">
        <ele>178.799791</ele>
        <time>2021-04-28T23:39:07.889Z</time>
      </trkpt>
      <trkpt lat="47.03705" lon="5.18159">
        <ele>178.616987</ele>
        <time>2021-04-28T23:39:20.187Z</time>
      </trkpt>
      <trkpt lat="47.03825" lon="5.18344">
        <ele>178.04758</ele>
        <time>2021-04-28T23:40:03.752Z</time>
      </trkpt>
      <trkpt lat="47.03863" lon="5.18413">
        <ele>177.920345</ele>
        <time>2021-04-28T23:40:19.044Z</time>
      </trkpt>
      <trkpt lat="47.03899" lon="5.18495">
        <ele>177.780992</ele>
        <time>2021-04-28T23:40:36.375Z</time>
      </trkpt>
      <trkpt lat="47.0394" lon="5.18564">
        <ele>177.838119</ele>
        <time>2021-04-28T23:40:53.300Z</time>
      </trkpt>
      <trkpt lat="47.03985" lon="5.18623">
        <ele>177.973577</ele>
        <time>2021-04-28T23:41:10.265Z</time>
      </trkpt>
      <trkpt lat="47.0419" lon="5.18832">
        <ele>178.681106</ele>
        <time>2021-04-28T23:42:20.911Z</time>
      </trkpt>
      <trkpt lat="47.04305" lon="5.19004">
        <ele>179.126445</ele>
        <time>2021-04-28T23:43:06.581Z</time>
      </trkpt>
      <trkpt lat="47.04428" lon="5.19192">
        <ele>179.533626</ele>
        <time>2021-04-28T23:43:57.175Z</time>
      </trkpt>
      <trkpt lat="47.04458" lon="5.19236">
        <ele>179.584477</ele>
        <time>2021-04-28T23:44:07.777Z</time>
      </trkpt>
      <trkpt lat="47.0447" lon="5.19256">
        <ele>179.582514</ele>
        <time>2021-04-28T23:44:12.826Z</time>
      </trkpt>
      <trkpt lat="47.04489" lon="5.19292">
        <ele>179.579261</ele>
        <time>2021-04-28T23:44:20.661Z</time>
      </trkpt>
      <trkpt lat="47.04512" lon="5.19343">
        <ele>179.574845</ele>
        <time>2021-04-28T23:44:31.725Z</time>
      </trkpt>
      <trkpt lat="47.04536" lon="5.194">
        <ele>179.570059</ele>
        <time>2021-04-28T23:44:43.854Z</time>
      </trkpt>
      <trkpt lat="47.0454" lon="5.19408">
        <ele>179.569336</ele>
        <time>2021-04-28T23:44:45.769Z</time>
      </trkpt>
      <trkpt lat="47.04543" lon="5.19413">
        <ele>179.568879</ele>
        <time>2021-04-28T23:44:46.975Z</time>
      </trkpt>
      <trkpt lat="47.04543" lon="5.19414">
        <ele>179.568796</ele>
        <time>2021-04-28T23:44:47.194Z</time>
      </trkpt>
      <trkpt lat="47.04547" lon="5.19421">
        <ele>179.568151</ele>
        <time>2021-04-28T23:44:48.792Z</time>
      </trkpt>
      <trkpt lat="47.04555" lon="5.19432">
        <ele>179.582646</ele>
        <time>2021-04-28T23:44:51.924Z</time>
      </trkpt>
      <trkpt lat="47.04581" lon="5.19466">
        <ele>179.712773</ele>
        <time>2021-04-28T23:45:01.374Z</time>
      </trkpt>
      <trkpt lat="47.0462" lon="5.19499">
        <ele>179.879165</ele>
        <time>2021-04-28T23:45:13.974Z</time>
      </trkpt>
      <trkpt lat="47.04631" lon="5.19507">
        <ele>179.925089</ele>
        <time>2021-04-28T23:45:17.624Z</time>
      </trkpt>
      <trkpt lat="47.04655" lon="5.1952">
        <ele>180.021962</ele>
        <time>2021-04-28T23:45:25.240Z</time>
      </trkpt>
      <trkpt lat="47.04688" lon="5.19535">
        <ele>180.147899</ele>
        <time>2021-04-28T23:45:35.532Z</time>
      </trkpt>
      <trkpt lat="47.04711" lon="5.19538">
        <ele>180.234124</ele>
        <time>2021-04-28T23:45:42.357Z</time>
      </trkpt>
      <trkpt lat="47.04737" lon="5.19532">
        <ele>180.196699</ele>
        <time>2021-04-28T23:45:50.018Z</time>
      </trkpt>
      <trkpt lat="47.04753" lon="5.19524">
        <ele>180.169904</ele>
        <time>2021-04-28T23:45:54.392Z</time>
      </trkpt>
      <trkpt lat="47.04774" lon="5.19501">
        <ele>180.128176</ele>
        <time>2021-04-28T23:46:01.854Z</time>
      </trkpt>
      <trkpt lat="47.04777" lon="5.19496">
        <ele>180.121733</ele>
        <time>2021-04-28T23:46:02.944Z</time>
      </trkpt>
      <trkpt lat="47.04784" lon="5.19487">
        <ele>180.107</ele>
        <time>2021-04-28T23:46:05.275Z</time>
      </trkpt>
      <trkpt lat="47.04802" lon="5.19464">
        <ele>180.069704</ele>
        <time>2021-04-28T23:46:11.367Z</time>
      </trkpt>
      <trkpt lat="47.04804" lon="5.19461">
        <ele>180.064892</ele>
        <time>2021-04-28T23:46:12.128Z</time>
      </trkpt>
      <trkpt lat="47.04807" lon="5.19458">
        <ele>180.059001</ele>
        <time>2021-04-28T23:46:12.978Z</time>
      </trkpt>
      <trkpt lat="47.04823" lon="5.19436">
        <ele>180.024539</ele>
        <time>2021-04-28T23:46:18.604Z</time>
      </trkpt>
      <trkpt lat="47.04829" lon="5.19428">
        <ele>180.011217</ele>
        <time>2021-04-28T23:46:20.675Z</time>
      </trkpt>
      <trkpt lat="47.04847" lon="5.19404">
        <ele>179.973993</ele>
        <time>2021-04-28T23:46:26.389Z</time>
      </trkpt>
      <trkpt lat="47.04852" lon="5.19398">
        <ele>179.964328</ele>
        <time>2021-04-28T23:46:27.923Z</time>
      </trkpt>
      <trkpt lat="47.04852" lon="5.19397">
        <ele>179.962678</ele>
        <time>2021-04-28T23:46:28.141Z</time>
      </trkpt>
      <trkpt lat="47.04858" lon="5.1939">
        <ele>179.944205</ele>
        <time>2021-04-28T23:46:29.901Z</time>
      </trkpt>
      <trkpt lat="47.04862" lon="5.19385">
        <ele>179.909357</ele>
        <time>2021-04-28T23:46:31.303Z</time>
      </trkpt>
      <trkpt lat="47.04889" lon="5.19354">
        <ele>179.71259</ele>
        <time>2021-04-28T23:46:39.490Z</time>
      </trkpt>
      <trkpt lat="47.04936" lon="5.19321">
        <ele>179.414462</ele>
        <time>2021-04-28T23:46:51.889Z</time>
      </trkpt>
      <trkpt lat="47.0495" lon="5.19293">
        <ele>179.274471</ele>
        <time>2021-04-28T23:46:57.723Z</time>
      </trkpt>
      <trkpt lat="47.04959" lon="5.19272">
        <ele>179.178695</ele>
        <time>2021-04-28T23:47:01.700Z</time>
      </trkpt>
      <trkpt lat="47.04966" lon="5.19254">
        <ele>179.095202</ele>
        <time>2021-04-28T23:47:05.272Z</time>
      </trkpt>
      <trkpt lat="47.04991" lon="5.19189">
        <ele>178.918793</ele>
        <time>2021-04-28T23:47:17.985Z</time>
      </trkpt>
      <trkpt lat="47.05018" lon="5.19138">
        <ele>178.925806</ele>
        <time>2021-04-28T23:47:29.292Z</time>
      </trkpt>
      <trkpt lat="47.05054" lon="5.19091">
        <ele>178.933567</ele>
        <time>2021-04-28T23:47:42.249Z</time>
      </trkpt>
      <trkpt lat="47.05081" lon="5.19059">
        <ele>178.939205</ele>
        <time>2021-04-28T23:47:52.015Z</time>
      </trkpt>
      <trkpt lat="47.0512" lon="5.19013">
        <ele>178.994247</ele>
        <time>2021-04-28T23:48:06.225Z</time>
      </trkpt>
      <trkpt lat="47.05241" lon="5.18866">
        <ele>179.467893</ele>
        <time>2021-04-28T23:48:51.499Z</time>
      </trkpt>
      <trkpt lat="47.05253" lon="5.18868">
        <ele>179.448802</ele>
        <time>2021-04-28T23:48:55.073Z</time>
      </trkpt>
      <trkpt lat="47.05282" lon="5.1885">
        <ele>179.272738</ele>
        <time>2021-04-28T23:49:03.157Z</time>
      </trkpt>
      <trkpt lat="47.05326" lon="5.1884">
        <ele>179.012368</ele>
        <time>2021-04-28T23:49:14.789Z</time>
      </trkpt>
      <trkpt lat="47.05455" lon="5.18724">
        <ele>178.172154</ele>
        <time>2021-04-28T23:49:51.877Z</time>
      </trkpt>
      <trkpt lat="47.05461" lon="5.18719">
        <ele>178.134391</ele>
        <time>2021-04-28T23:49:53.623Z</time>
      </trkpt>
      <trkpt lat="47.0549" lon="5.1874">
        <ele>177.964039</ele>
        <time>2021-04-28T23:50:01.652Z</time>
      </trkpt>
      <trkpt lat="47.05886" lon="5.19142">
        <ele>177.230964</ele>
        <time>2021-04-28T23:52:13.155Z</time>
      </trkpt>
      <trkpt lat="47.06424" lon="5.19663">
        <ele>178.312908</ele>
        <time>2021-04-28T23:55:19.250Z</time>
      </trkpt>
      <trkpt lat="47.06489" lon="5.19737">
        <ele>178.130197</ele>
        <time>2021-04-28T23:55:41.082Z</time>
      </trkpt>
      <trkpt lat="47.06729" lon="5.19958">
        <ele>176.684943</ele>
        <time>2021-04-28T23:56:52.800Z</time>
      </trkpt>
      <trkpt lat="47.07156" lon="5.20369">
        <ele>175.999842</ele>
        <time>2021-04-28T23:59:12.631Z</time>
      </trkpt>
      <trkpt lat="47.07238" lon="5.20456">
        <ele>175.901898</ele>
        <time>2021-04-28T23:59:40.328Z</time>
      </trkpt>
      <trkpt lat="47.07504" lon="5.20718">
        <ele>175.662606</ele>
        <time>2021-04-29T00:01:08.141Z</time>
      </trkpt>
      <trkpt lat="47.07583" lon="5.20833">
        <ele>175.824694</ele>
        <time>2021-04-29T00:01:39.786Z</time>
      </trkpt>
      <trkpt lat="47.07656" lon="5.21047">
        <ele>176.017619</ele>
        <time>2021-04-29T00:02:27.009Z</time>
      </trkpt>
      <trkpt lat="47.0776" lon="5.21199">
        <ele>176.099954</ele>
        <time>2021-04-29T00:03:07.725Z</time>
      </trkpt>
      <trkpt lat="47.07836" lon="5.21325">
        <ele>176.099992</ele>
        <time>2021-04-29T00:03:39.388Z</time>
      </trkpt>
      <trkpt lat="47.07871" lon="5.21402">
        <ele>176.116935</ele>
        <time>2021-04-29T00:03:57.011Z</time>
      </trkpt>
      <trkpt lat="47.07899" lon="5.21511">
        <ele>176.140181</ele>
        <time>2021-04-29T00:04:19.348Z</time>
      </trkpt>
      <trkpt lat="47.07906" lon="5.21621">
        <ele>176.161385</ele>
        <time>2021-04-29T00:04:40.769Z</time>
      </trkpt>
      <trkpt lat="47.07911" lon="5.21848">
        <ele>176.200003</ele>
        <time>2021-04-29T00:05:24.066Z</time>
      </trkpt>
      <trkpt lat="47.07924" lon="5.21969">
        <ele>176.200101</ele>
        <time>2021-04-29T00:05:47.253Z</time>
      </trkpt>
      <trkpt lat="47.07948" lon="5.22092">
        <ele>176.200203</ele>
        <time>2021-04-29T00:06:11.398Z</time>
      </trkpt>
      <trkpt lat="47.07978" lon="5.22208">
        <ele>176.264858</ele>
        <time>2021-04-29T00:06:35.211Z</time>
      </trkpt>
      <trkpt lat="47.08038" lon="5.22384">
        <ele>176.381798</ele>
        <time>2021-04-29T00:07:13.201Z</time>
      </trkpt>
      <trkpt lat="47.08234" lon="5.22731">
        <ele>176.688757</ele>
        <time>2021-04-29T00:08:39.915Z</time>
      </trkpt>
      <trkpt lat="47.08513" lon="5.23021">
        <ele>176.920514</ele>
        <time>2021-04-29T00:10:16.201Z</time>
      </trkpt>
      <trkpt lat="47.08538" lon="5.23068">
        <ele>176.961803</ele>
        <time>2021-04-29T00:10:27.573Z</time>
      </trkpt>
      <trkpt lat="47.08551" lon="5.23119">
        <ele>177.051816</ele>
        <time>2021-04-29T00:10:38.284Z</time>
      </trkpt>
      <trkpt lat="47.08559" lon="5.23242">
        <ele>177.25774</ele>
        <time>2021-04-29T00:11:02.862Z</time>
      </trkpt>
      <trkpt lat="47.08551" lon="5.23283">
        <ele>177.328848</ele>
        <time>2021-04-29T00:11:11.178Z</time>
      </trkpt>
      <trkpt lat="47.08546" lon="5.23297">
        <ele>177.356245</ele>
        <time>2021-04-29T00:11:14.746Z</time>
      </trkpt>
      <trkpt lat="47.08512" lon="5.23362">
        <ele>177.500525</ele>
        <time>2021-04-29T00:11:30.785Z</time>
      </trkpt>
      <trkpt lat="47.08446" lon="5.23482">
        <ele>177.780744</ele>
        <time>2021-04-29T00:12:01.820Z</time>
      </trkpt>
      <trkpt lat="47.08334" lon="5.2361">
        <ele>177.800103</ele>
        <time>2021-04-29T00:12:41.265Z</time>
      </trkpt>
      <trkpt lat="47.08201" lon="5.23833">
        <ele>177.549116</ele>
        <time>2021-04-29T00:13:35.842Z</time>
      </trkpt>
      <trkpt lat="47.08181" lon="5.23874">
        <ele>177.494002</ele>
        <time>2021-04-29T00:13:45.252Z</time>
      </trkpt>
      <trkpt lat="47.08147" lon="5.23972">
        <ele>177.515061</ele>
        <time>2021-04-29T00:14:05.816Z</time>
      </trkpt>
      <trkpt lat="47.08138" lon="5.24019">
        <ele>177.537387</ele>
        <time>2021-04-29T00:14:15.234Z</time>
      </trkpt>
      <trkpt lat="47.08134" lon="5.24069">
        <ele>177.559797</ele>
        <time>2021-04-29T00:14:24.830Z</time>
      </trkpt>
      <trkpt lat="47.08136" lon="5.24178">
        <ele>177.689906</ele>
        <time>2021-04-29T00:14:46.309Z</time>
      </trkpt>
      <trkpt lat="47.08138" lon="5.24197">
        <ele>177.742726</ele>
        <time>2021-04-29T00:14:50.183Z</time>
      </trkpt>
      <trkpt lat="47.08138" lon="5.24216">
        <ele>177.792743</ele>
        <time>2021-04-29T00:14:53.941Z</time>
      </trkpt>
      <trkpt lat="47.08141" lon="5.24274">
        <ele>177.951721</ele>
        <time>2021-04-29T00:15:05.755Z</time>
      </trkpt>
      <trkpt lat="47.08149" lon="5.24341">
        <ele>178.14007</ele>
        <time>2021-04-29T00:15:19.840Z</time>
      </trkpt>
      <trkpt lat="47.08159" lon="5.24374">
        <ele>178.237461</ele>
        <time>2021-04-29T00:15:27.190Z</time>
      </trkpt>
      <trkpt lat="47.08172" lon="5.24409">
        <ele>178.360566</ele>
        <time>2021-04-29T00:15:35.445Z</time>
      </trkpt>
      <trkpt lat="47.08198" lon="5.24465">
        <ele>178.631153</ele>
        <time>2021-04-29T00:15:49.628Z</time>
      </trkpt>
      <trkpt lat="47.08232" lon="5.24519">
        <ele>178.922972</ele>
        <time>2021-04-29T00:16:05.189Z</time>
      </trkpt>
      <trkpt lat="47.08289" lon="5.24579">
        <ele>179.334286</ele>
        <time>2021-04-29T00:16:26.851Z</time>
      </trkpt>
      <trkpt lat="47.08304" lon="5.2461">
        <ele>179.465639</ele>
        <time>2021-04-29T00:16:34.702Z</time>
      </trkpt>
      <trkpt lat="47.08306" lon="5.24632">
        <ele>179.537602</ele>
        <time>2021-04-29T00:16:39.261Z</time>
      </trkpt>
      <trkpt lat="47.08313" lon="5.24647">
        <ele>179.597036</ele>
        <time>2021-04-29T00:16:42.936Z</time>
      </trkpt>
      <trkpt lat="47.08382" lon="5.24743">
        <ele>180.056482</ele>
        <time>2021-04-29T00:17:11.699Z</time>
      </trkpt>
      <trkpt lat="47.08517" lon="5.24911">
        <ele>180.63776</ele>
        <time>2021-04-29T00:18:04.194Z</time>
      </trkpt>
      <trkpt lat="47.08524" lon="5.24922">
        <ele>180.666548</ele>
        <time>2021-04-29T00:18:07.273Z</time>
      </trkpt>
      <trkpt lat="47.08547" lon="5.24957">
        <ele>180.74795</ele>
        <time>2021-04-29T00:18:16.487Z</time>
      </trkpt>
      <trkpt lat="47.08592" lon="5.25024">
        <ele>180.672439</ele>
        <time>2021-04-29T00:18:33.854Z</time>
      </trkpt>
      <trkpt lat="47.08667" lon="5.2515">
        <ele>180.540599</ele>
        <time>2021-04-29T00:19:04.593Z</time>
      </trkpt>
      <trkpt lat="47.08669" lon="5.25153">
        <ele>180.539741</ele>
        <time>2021-04-29T00:19:05.384Z</time>
      </trkpt>
      <trkpt lat="47.08684" lon="5.25179">
        <ele>180.533992</ele>
        <time>2021-04-29T00:19:11.851Z</time>
      </trkpt>
      <trkpt lat="47.08714" lon="5.25259">
        <ele>180.518192</ele>
        <time>2021-04-29T00:19:29.326Z</time>
      </trkpt>
      <trkpt lat="47.08748" lon="5.25426">
        <ele>180.481668</ele>
        <time>2021-04-29T00:20:02.382Z</time>
      </trkpt>
      <trkpt lat="47.08746" lon="5.2543">
        <ele>180.48</ele>
        <time>2021-04-29T00:20:03.453Z</time>
      </trkpt>
      <trkpt lat="47.08741" lon="5.25431">
        <ele>180.477401</ele>
        <time>2021-04-29T00:20:04.749Z</time>
      </trkpt>
      <trkpt lat="47.08648" lon="5.25342">
        <ele>180.423801</ele>
        <time>2021-04-29T00:20:35.059Z</time>
      </trkpt>
      <trkpt lat="47.08629" lon="5.25328">
        <ele>180.413445</ele>
        <time>2021-04-29T00:20:41.023Z</time>
      </trkpt>
      <trkpt lat="47.08616" lon="5.25342">
        <ele>180.410748</ele>
        <time>2021-04-29T00:20:45.201Z</time>
      </trkpt>
      <trkpt lat="47.08614" lon="5.25344">
        <ele>180.411867</ele>
        <time>2021-04-29T00:20:45.952Z</time>
      </trkpt>
      <trkpt lat="47.08618" lon="5.25357">
        <ele>180.41565</ele>
        <time>2021-04-29T00:20:48.585Z</time>
      </trkpt>
      <trkpt lat="47.0866" lon="5.25494">
        <ele>180.457627</ele>
        <time>2021-04-29T00:21:16.039Z</time>
      </trkpt>
      <trkpt lat="47.08666" lon="5.25511">
        <ele>180.462924</ele>
        <time>2021-04-29T00:21:19.525Z</time>
      </trkpt>
      <trkpt lat="47.08669" lon="5.25518">
        <ele>180.465066</ele>
        <time>2021-04-29T00:21:20.916Z</time>
      </trkpt>
      <trkpt lat="47.08677" lon="5.25535">
        <ele>180.470792</ele>
        <time>2021-04-29T00:21:24.801Z</time>
      </trkpt>
      <trkpt lat="47.08683" lon="5.25547">
        <ele>180.474956</ele>
        <time>2021-04-29T00:21:27.782Z</time>
      </trkpt>
      <trkpt lat="47.08691" lon="5.25563">
        <ele>180.48054</ele>
        <time>2021-04-29T00:21:31.435Z</time>
      </trkpt>
      <trkpt lat="47.0872" lon="5.25607">
        <ele>180.519774</ele>
        <time>2021-04-29T00:21:42.776Z</time>
      </trkpt>
      <trkpt lat="47.08781" lon="5.25677">
        <ele>180.596993</ele>
        <time>2021-04-29T00:22:04.170Z</time>
      </trkpt>
      <trkpt lat="47.08789" lon="5.25688">
        <ele>180.608133</ele>
        <time>2021-04-29T00:22:07.150Z</time>
      </trkpt>
      <trkpt lat="47.0881" lon="5.25718">
        <ele>180.637589</ele>
        <time>2021-04-29T00:22:14.952Z</time>
      </trkpt>
      <trkpt lat="47.0882" lon="5.25736">
        <ele>180.653487</ele>
        <time>2021-04-29T00:22:19.238Z</time>
      </trkpt>
      <trkpt lat="47.08827" lon="5.25755">
        <ele>180.650911</ele>
        <time>2021-04-29T00:22:23.215Z</time>
      </trkpt>
      <trkpt lat="47.0883" lon="5.25763">
        <ele>180.640628</ele>
        <time>2021-04-29T00:22:24.853Z</time>
      </trkpt>
      <trkpt lat="47.08843" lon="5.25809">
        <ele>180.586268</ele>
        <time>2021-04-29T00:22:33.682Z</time>
      </trkpt>
      <trkpt lat="47.08852" lon="5.25848">
        <ele>180.540327</ele>
        <time>2021-04-29T00:22:41.245Z</time>
      </trkpt>
      <trkpt lat="47.08858" lon="5.25857">
        <ele>180.527077</ele>
        <time>2021-04-29T00:22:43.299Z</time>
      </trkpt>
      <trkpt lat="47.08901" lon="5.25916">
        <ele>180.431192</ele>
        <time>2021-04-29T00:22:59.522Z</time>
      </trkpt>
      <trkpt lat="47.08917" lon="5.25927">
        <ele>180.401946</ele>
        <time>2021-04-29T00:23:04.213Z</time>
      </trkpt>
      <trkpt lat="47.08936" lon="5.2593">
        <ele>180.370652</ele>
        <time>2021-04-29T00:23:09.488Z</time>
      </trkpt>
      <trkpt lat="47.08944" lon="5.2593">
        <ele>180.351689</ele>
        <time>2021-04-29T00:23:11.589Z</time>
      </trkpt>
      <trkpt lat="47.0895" lon="5.25931">
        <ele>180.338213</ele>
        <time>2021-04-29T00:23:12.870Z</time>
      </trkpt>
      <trkpt lat="47.08986" lon="5.25939">
        <ele>180.247577</ele>
        <time>2021-04-29T00:23:22.562Z</time>
      </trkpt>
      <trkpt lat="47.09659" lon="5.26106">
        <ele>178.849761</ele>
        <time>2021-04-29T00:26:25.066Z</time>
      </trkpt>
      <trkpt lat="47.09736" lon="5.26127">
        <ele>179.327386</ele>
        <time>2021-04-29T00:26:49.230Z</time>
      </trkpt>
      <trkpt lat="47.09813" lon="5.26147">
        <ele>179.802991</ele>
        <time>2021-04-29T00:27:14.147Z</time>
      </trkpt>
      <trkpt lat="47.09899" lon="5.26163">
        <ele>180.238969</ele>
        <time>2021-04-29T00:27:42.103Z</time>
      </trkpt>
      <trkpt lat="47.09977" lon="5.26188">
        <ele>180.624432</ele>
        <time>2021-04-29T00:28:05.662Z</time>
      </trkpt>
      <trkpt lat="47.09971" lon="5.26273">
        <ele>180.611714</ele>
        <time>2021-04-29T00:28:21.866Z</time>
      </trkpt>
      <trkpt lat="47.09969" lon="5.263">
        <ele>180.541737</ele>
        <time>2021-04-29T00:28:26.824Z</time>
      </trkpt>
      <trkpt lat="47.09967" lon="5.26344">
        <ele>180.42703</ele>
        <time>2021-04-29T00:28:36.974Z</time>
      </trkpt>
      <trkpt lat="47.09963" lon="5.26461">
        <ele>180.124099</ele>
        <time>2021-04-29T00:29:03.135Z</time>
      </trkpt>
      <trkpt lat="47.09934" lon="5.26637">
        <ele>179.418017</ele>
        <time>2021-04-29T00:29:42.868Z</time>
      </trkpt>
      <trkpt lat="47.09932" lon="5.26691">
        <ele>179.195221</ele>
        <time>2021-04-29T00:29:54.971Z</time>
      </trkpt>
      <trkpt lat="47.09937" lon="5.26788">
        <ele>178.950773</ele>
        <time>2021-04-29T00:30:17.036Z</time>
      </trkpt>
      <trkpt lat="47.09952" lon="5.26889">
        <ele>178.898207</ele>
        <time>2021-04-29T00:30:41.567Z</time>
      </trkpt>
      <trkpt lat="47.10014" lon="5.27129">
        <ele>178.736976</ele>
        <time>2021-04-29T00:31:44.182Z</time>
      </trkpt>
      <trkpt lat="47.10025" lon="5.27211">
        <ele>178.675897</ele>
        <time>2021-04-29T00:32:03.568Z</time>
      </trkpt>
      <trkpt lat="47.10053" lon="5.27326">
        <ele>178.367267</ele>
        <time>2021-04-29T00:32:31.159Z</time>
      </trkpt>
      <trkpt lat="47.10063" lon="5.27403">
        <ele>178.093574</ele>
        <time>2021-04-29T00:32:48.695Z</time>
      </trkpt>
      <trkpt lat="47.10065" lon="5.27418">
        <ele>178.039483</ele>
        <time>2021-04-29T00:32:51.208Z</time>
      </trkpt>
      <trkpt lat="47.10076" lon="5.27567">
        <ele>177.678529</ele>
        <time>2021-04-29T00:33:16.180Z</time>
      </trkpt>
      <trkpt lat="47.10086" lon="5.27642">
        <ele>177.618179</ele>
        <time>2021-04-29T00:33:29.586Z</time>
      </trkpt>
      <trkpt lat="47.101" lon="5.27711">
        <ele>177.561095</ele>
        <time>2021-04-29T00:33:43.028Z</time>
      </trkpt>
      <trkpt lat="47.10121" lon="5.27783">
        <ele>177.547195</ele>
        <time>2021-04-29T00:33:57.799Z</time>
      </trkpt>
      <trkpt lat="47.10133" lon="5.27851">
        <ele>177.645374</ele>
        <time>2021-04-29T00:34:11.405Z</time>
      </trkpt>
      <trkpt lat="47.10168" lon="5.28105">
        <ele>177.763341</ele>
        <time>2021-04-29T00:34:59.945Z</time>
      </trkpt>
      <trkpt lat="47.10191" lon="5.28257">
        <ele>177.547844</ele>
        <time>2021-04-29T00:35:26.792Z</time>
      </trkpt>
      <trkpt lat="47.10211" lon="5.28412">
        <ele>177.233007</ele>
        <time>2021-04-29T00:35:53.467Z</time>
      </trkpt>
      <trkpt lat="47.10222" lon="5.28576">
        <ele>176.973659</ele>
        <time>2021-04-29T00:36:22.443Z</time>
      </trkpt>
      <trkpt lat="47.10223" lon="5.28655">
        <ele>176.990371</ele>
        <time>2021-04-29T00:36:36.799Z</time>
      </trkpt>
      <trkpt lat="47.10176" lon="5.29014">
        <ele>177.381792</ele>
        <time>2021-04-29T00:37:44.894Z</time>
      </trkpt>
      <trkpt lat="47.10156" lon="5.29214">
        <ele>178.64435</ele>
        <time>2021-04-29T00:38:26.146Z</time>
      </trkpt>
      <trkpt lat="47.1014" lon="5.29475">
        <ele>181.527361</ele>
        <time>2021-04-29T00:39:29.821Z</time>
      </trkpt>
      <trkpt lat="47.10145" lon="5.29547">
        <ele>182.493752</ele>
        <time>2021-04-29T00:39:49.080Z</time>
      </trkpt>
      <trkpt lat="47.10142" lon="5.29632">
        <ele>183.212159</ele>
        <time>2021-04-29T00:40:09.428Z</time>
      </trkpt>
      <trkpt lat="47.10144" lon="5.29717">
        <ele>183.585636</ele>
        <time>2021-04-29T00:40:28.312Z</time>
      </trkpt>
      <trkpt lat="47.10153" lon="5.29768">
        <ele>183.82034</ele>
        <time>2021-04-29T00:40:38.981Z</time>
      </trkpt>
      <trkpt lat="47.10162" lon="5.29807">
        <ele>184.001032</ele>
        <time>2021-04-29T00:40:46.424Z</time>
      </trkpt>
      <trkpt lat="47.10193" lon="5.29896">
        <ele>183.470589</ele>
        <time>2021-04-29T00:41:02.419Z</time>
      </trkpt>
      <trkpt lat="47.10224" lon="5.29969">
        <ele>182.482312</ele>
        <time>2021-04-29T00:41:14.743Z</time>
      </trkpt>
      <trkpt lat="47.10274" lon="5.30049">
        <ele>181.243047</ele>
        <time>2021-04-29T00:41:30.146Z</time>
      </trkpt>
      <trkpt lat="47.10282" lon="5.30059">
        <ele>181.074551</ele>
        <time>2021-04-29T00:41:32.269Z</time>
      </trkpt>
      <trkpt lat="47.10375" lon="5.30175">
        <ele>179.282307</ele>
        <time>2021-04-29T00:41:58.725Z</time>
      </trkpt>
      <trkpt lat="47.10426" lon="5.30223">
        <ele>178.469934</ele>
        <time>2021-04-29T00:42:12.875Z</time>
      </trkpt>
      <trkpt lat="47.105" lon="5.30286">
        <ele>178.188491</ele>
        <time>2021-04-29T00:42:34.146Z</time>
      </trkpt>
      <trkpt lat="47.10549" lon="5.30354">
        <ele>177.96585</ele>
        <time>2021-04-29T00:42:51.915Z</time>
      </trkpt>
      <trkpt lat="47.10625" lon="5.30519">
        <ele>177.919368</ele>
        <time>2021-04-29T00:43:28.191Z</time>
      </trkpt>
      <trkpt lat="47.10663" lon="5.30625">
        <ele>177.95915</ele>
        <time>2021-04-29T00:43:50.131Z</time>
      </trkpt>
      <trkpt lat="47.10715" lon="5.30903">
        <ele>178.32832</ele>
        <time>2021-04-29T00:44:44.269Z</time>
      </trkpt>
      <trkpt lat="47.10727" lon="5.31014">
        <ele>178.537999</ele>
        <time>2021-04-29T00:45:05.921Z</time>
      </trkpt>
      <trkpt lat="47.10761" lon="5.3119">
        <ele>178.974004</ele>
        <time>2021-04-29T00:45:41.082Z</time>
      </trkpt>
      <trkpt lat="47.10764" lon="5.31227">
        <ele>179.090614</ele>
        <time>2021-04-29T00:45:48.357Z</time>
      </trkpt>
      <trkpt lat="47.10747" lon="5.31292">
        <ele>179.302838</ele>
        <time>2021-04-29T00:46:02.192Z</time>
      </trkpt>
      <trkpt lat="47.10751" lon="5.31304">
        <ele>179.34363</ele>
        <time>2021-04-29T00:46:04.806Z</time>
      </trkpt>
      <trkpt lat="47.10775" lon="5.31331">
        <ele>179.481569</ele>
        <time>2021-04-29T00:46:13.793Z</time>
      </trkpt>
      <trkpt lat="47.10781" lon="5.31336">
        <ele>179.515051</ele>
        <time>2021-04-29T00:46:15.872Z</time>
      </trkpt>
      <trkpt lat="47.10784" lon="5.3134">
        <ele>179.53296</ele>
        <time>2021-04-29T00:46:16.943Z</time>
      </trkpt>
      <trkpt lat="47.10784" lon="5.31347">
        <ele>179.558761</ele>
        <time>2021-04-29T00:46:18.227Z</time>
      </trkpt>
      <trkpt lat="47.10775" lon="5.31362">
        <ele>179.641447</ele>
        <time>2021-04-29T00:46:22.655Z</time>
      </trkpt>
      <trkpt lat="47.10753" lon="5.31428">
        <ele>179.938083</ele>
        <time>2021-04-29T00:46:37.382Z</time>
      </trkpt>
      <trkpt lat="47.10715" lon="5.31495">
        <ele>180.288376</ele>
        <time>2021-04-29T00:46:55.011Z</time>
      </trkpt>
      <trkpt lat="47.10644" lon="5.31556">
        <ele>180.773219</ele>
        <time>2021-04-29T00:47:19.406Z</time>
      </trkpt>
      <trkpt lat="47.10599" lon="5.31577">
        <ele>181.046985</ele>
        <time>2021-04-29T00:47:33.070Z</time>
      </trkpt>
      <trkpt lat="47.10498" lon="5.31598">
        <ele>181.642608</ele>
        <time>2021-04-29T00:48:03.010Z</time>
      </trkpt>
      <trkpt lat="47.1032" lon="5.31652">
        <ele>182.985286</ele>
        <time>2021-04-29T00:48:58.147Z</time>
      </trkpt>
      <trkpt lat="47.1025" lon="5.31664">
        <ele>183.466606</ele>
        <time>2021-04-29T00:49:19.733Z</time>
      </trkpt>
      <trkpt lat="47.10175" lon="5.3166">
        <ele>183.975062</ele>
        <time>2021-04-29T00:49:42.006Z</time>
      </trkpt>
      <trkpt lat="47.10131" lon="5.31687">
        <ele>184.329441</ele>
        <time>2021-04-29T00:49:56.080Z</time>
      </trkpt>
      <trkpt lat="47.10106" lon="5.31721">
        <ele>184.634839</ele>
        <time>2021-04-29T00:50:05.992Z</time>
      </trkpt>
      <trkpt lat="47.10103" lon="5.31727">
        <ele>184.68669</ele>
        <time>2021-04-29T00:50:07.597Z</time>
      </trkpt>
      <trkpt lat="47.101" lon="5.31735">
        <ele>184.743606</ele>
        <time>2021-04-29T00:50:09.471Z</time>
      </trkpt>
      <trkpt lat="47.10082" lon="5.31756">
        <ele>184.952556</ele>
        <time>2021-04-29T00:50:16.275Z</time>
      </trkpt>
      <trkpt lat="47.10077" lon="5.31772">
        <ele>185.062055</ele>
        <time>2021-04-29T00:50:19.785Z</time>
      </trkpt>
      <trkpt lat="47.10003" lon="5.31891">
        <ele>186.109535</ele>
        <time>2021-04-29T00:50:55.687Z</time>
      </trkpt>
      <trkpt lat="47.0998" lon="5.31938">
        <ele>186.543671</ele>
        <time>2021-04-29T00:51:08.494Z</time>
      </trkpt>
      <trkpt lat="47.09974" lon="5.3195">
        <ele>186.654897</ele>
        <time>2021-04-29T00:51:11.923Z</time>
      </trkpt>
      <trkpt lat="47.09969" lon="5.31959">
        <ele>186.748501</ele>
        <time>2021-04-29T00:51:15.093Z</time>
      </trkpt>
      <trkpt lat="47.09955" lon="5.31981">
        <ele>186.974599</ele>
        <time>2021-04-29T00:51:21.166Z</time>
      </trkpt>
      <trkpt lat="47.09937" lon="5.31992">
        <ele>187.189563</ele>
        <time>2021-04-29T00:51:27.754Z</time>
      </trkpt>
      <trkpt lat="47.09847" lon="5.32006">
        <ele>187.920997</ele>
        <time>2021-04-29T00:51:55.626Z</time>
      </trkpt>
      <trkpt lat="47.09825" lon="5.32019">
        <ele>187.972358</ele>
        <time>2021-04-29T00:52:02.696Z</time>
      </trkpt>
      <trkpt lat="47.0978" lon="5.32073">
        <ele>188.102777</ele>
        <time>2021-04-29T00:52:18.133Z</time>
      </trkpt>
      <trkpt lat="47.09748" lon="5.32131">
        <ele>188.215487</ele>
        <time>2021-04-29T00:52:31.394Z</time>
      </trkpt>
      <trkpt lat="47.09721" lon="5.32197">
        <ele>188.341288</ele>
        <time>2021-04-29T00:52:45.397Z</time>
      </trkpt>
      <trkpt lat="47.09681" lon="5.32332">
        <ele>188.589513</ele>
        <time>2021-04-29T00:53:13.657Z</time>
      </trkpt>
      <trkpt lat="47.09675" lon="5.32384">
        <ele>188.678184</ele>
        <time>2021-04-29T00:53:23.986Z</time>
      </trkpt>
      <trkpt lat="47.09683" lon="5.32476">
        <ele>188.738198</ele>
        <time>2021-04-29T00:53:42.165Z</time>
      </trkpt>
      <trkpt lat="47.09678" lon="5.32501">
        <ele>188.75147</ele>
        <time>2021-04-29T00:53:47.065Z</time>
      </trkpt>
      <trkpt lat="47.09662" lon="5.32532">
        <ele>188.77165</ele>
        <time>2021-04-29T00:53:54.449Z</time>
      </trkpt>
      <trkpt lat="47.09642" lon="5.32547">
        <ele>188.78822</ele>
        <time>2021-04-29T00:54:00.396Z</time>
      </trkpt>
      <trkpt lat="47.09628" lon="5.3255">
        <ele>188.799162</ele>
        <time>2021-04-29T00:54:04.262Z</time>
      </trkpt>
      <trkpt lat="47.09513" lon="5.3253">
        <ele>188.371157</ele>
        <time>2021-04-29T00:54:33.063Z</time>
      </trkpt>
      <trkpt lat="47.09382" lon="5.32516">
        <ele>187.590111</ele>
        <time>2021-04-29T00:55:04.274Z</time>
      </trkpt>
      <trkpt lat="47.09323" lon="5.32514">
        <ele>187.334078</ele>
        <time>2021-04-29T00:55:18.421Z</time>
      </trkpt>
      <trkpt lat="47.09296" lon="5.3252">
        <ele>187.214439</ele>
        <time>2021-04-29T00:55:25.203Z</time>
      </trkpt>
      <trkpt lat="47.09197" lon="5.32586">
        <ele>187.01273</ele>
        <time>2021-04-29T00:55:53.545Z</time>
      </trkpt>
      <trkpt lat="47.09096" lon="5.3271">
        <ele>187.334701</ele>
        <time>2021-04-29T00:56:30.764Z</time>
      </trkpt>
      <trkpt lat="47.0898" lon="5.32792">
        <ele>187.848242</ele>
        <time>2021-04-29T00:57:08.336Z</time>
      </trkpt>
      <trkpt lat="47.089" lon="5.32835">
        <ele>188.119148</ele>
        <time>2021-04-29T00:57:32.586Z</time>
      </trkpt>
      <trkpt lat="47.08874" lon="5.32865">
        <ele>188.152275</ele>
        <time>2021-04-29T00:57:41.627Z</time>
      </trkpt>
      <trkpt lat="47.08859" lon="5.32894">
        <ele>188.177439</ele>
        <time>2021-04-29T00:57:48.419Z</time>
      </trkpt>
      <trkpt lat="47.08845" lon="5.32937">
        <ele>188.2104</ele>
        <time>2021-04-29T00:57:57.216Z</time>
      </trkpt>
      <trkpt lat="47.08839" lon="5.32986">
        <ele>188.245169</ele>
        <time>2021-04-29T00:58:06.439Z</time>
      </trkpt>
      <trkpt lat="47.08818" lon="5.33458">
        <ele>188.132045</ele>
        <time>2021-04-29T00:59:31.554Z</time>
      </trkpt>
      <trkpt lat="47.08812" lon="5.3352">
        <ele>188.117738</ele>
        <time>2021-04-29T00:59:42.838Z</time>
      </trkpt>
      <trkpt lat="47.08793" lon="5.3359">
        <ele>188.108823</ele>
        <time>2021-04-29T00:59:56.595Z</time>
      </trkpt>
      <trkpt lat="47.08722" lon="5.33753">
        <ele>188.106089</ele>
        <time>2021-04-29T01:00:32.043Z</time>
      </trkpt>
      <trkpt lat="47.08704" lon="5.33825">
        <ele>188.010895</ele>
        <time>2021-04-29T01:00:45.993Z</time>
      </trkpt>
      <trkpt lat="47.08635" lon="5.34246">
        <ele>186.992082</ele>
        <time>2021-04-29T01:02:00.038Z</time>
      </trkpt>
      <trkpt lat="47.08622" lon="5.34288">
        <ele>186.874245</ele>
        <time>2021-04-29T01:02:07.788Z</time>
      </trkpt>
      <trkpt lat="47.0862" lon="5.34341">
        <ele>186.830082</ele>
        <time>2021-04-29T01:02:16.862Z</time>
      </trkpt>
      <trkpt lat="47.08399" lon="5.35599">
        <ele>186.136091</ele>
        <time>2021-04-29T01:06:10.526Z</time>
      </trkpt>
      <trkpt lat="47.08397" lon="5.35614">
        <ele>186.177946</ele>
        <time>2021-04-29T01:06:13.243Z</time>
      </trkpt>
      <trkpt lat="47.08378" lon="5.35698">
        <ele>186.423572</ele>
        <time>2021-04-29T01:06:30.338Z</time>
      </trkpt>
      <trkpt lat="47.08369" lon="5.3574">
        <ele>186.548357</ele>
        <time>2021-04-29T01:06:39.193Z</time>
      </trkpt>
      <trkpt lat="47.08356" lon="5.35773">
        <ele>186.651839</ele>
        <time>2021-04-29T01:06:46.640Z</time>
      </trkpt>
      <trkpt lat="47.08343" lon="5.35793">
        <ele>186.729818</ele>
        <time>2021-04-29T01:06:52.403Z</time>
      </trkpt>
      <trkpt lat="47.08321" lon="5.35812">
        <ele>186.878374</ele>
        <time>2021-04-29T01:07:00.101Z</time>
      </trkpt>
      <trkpt lat="47.07941" lon="5.36041">
        <ele>190.387987</ele>
        <time>2021-04-29T01:09:07.748Z</time>
      </trkpt>
      <trkpt lat="47.07935" lon="5.36045">
        <ele>190.428706</ele>
        <time>2021-04-29T01:09:09.663Z</time>
      </trkpt>
      <trkpt lat="47.07848" lon="5.361">
        <ele>191.000772</ele>
        <time>2021-04-29T01:09:36.895Z</time>
      </trkpt>
      <trkpt lat="47.07583" lon="5.36263">
        <ele>192.070848</ele>
        <time>2021-04-29T01:11:00.993Z</time>
      </trkpt>
      <trkpt lat="47.07348" lon="5.36407">
        <ele>191.333487</ele>
        <time>2021-04-29T01:12:04.220Z</time>
      </trkpt>
      <trkpt lat="47.07324" lon="5.36434">
        <ele>191.175678</ele>
        <time>2021-04-29T01:12:11.465Z</time>
      </trkpt>
      <trkpt lat="47.07309" lon="5.36466">
        <ele>191.027346</ele>
        <time>2021-04-29T01:12:17.662Z</time>
      </trkpt>
      <trkpt lat="47.0714" lon="5.36968">
        <ele>189.471945</ele>
        <time>2021-04-29T01:13:51.471Z</time>
      </trkpt>
      <trkpt lat="47.07144" lon="5.36978">
        <ele>189.497288</ele>
        <time>2021-04-29T01:13:54.019Z</time>
      </trkpt>
      <trkpt lat="47.07174" lon="5.36991">
        <ele>189.596339</ele>
        <time>2021-04-29T01:14:03.557Z</time>
      </trkpt>
      <trkpt lat="47.07183" lon="5.37004">
        <ele>189.634651</ele>
        <time>2021-04-29T01:14:07.197Z</time>
      </trkpt>
      <trkpt lat="47.07185" lon="5.37015">
        <ele>189.659112</ele>
        <time>2021-04-29T01:14:09.710Z</time>
      </trkpt>
      <trkpt lat="47.07189" lon="5.37021">
        <ele>189.678103</ele>
        <time>2021-04-29T01:14:11.493Z</time>
      </trkpt>
      <trkpt lat="47.07202" lon="5.37026">
        <ele>189.720547</ele>
        <time>2021-04-29T01:14:15.919Z</time>
      </trkpt>
      <trkpt lat="47.07206" lon="5.37028">
        <ele>189.734078</ele>
        <time>2021-04-29T01:14:17.169Z</time>
      </trkpt>
      <trkpt lat="47.07218" lon="5.37037">
        <ele>189.775094</ele>
        <time>2021-04-29T01:14:21.353Z</time>
      </trkpt>
      <trkpt lat="47.07231" lon="5.37071">
        <ele>189.890803</ele>
        <time>2021-04-29T01:14:29.933Z</time>
      </trkpt>
      <trkpt lat="47.07244" lon="5.37081">
        <ele>190.018393</ele>
        <time>2021-04-29T01:14:34.725Z</time>
      </trkpt>
      <trkpt lat="47.07256" lon="5.37078">
        <ele>190.116191</ele>
        <time>2021-04-29T01:14:38.654Z</time>
      </trkpt>
      <trkpt lat="47.07316" lon="5.37117">
        <ele>190.685644</ele>
        <time>2021-04-29T01:15:00.417Z</time>
      </trkpt>
      <trkpt lat="47.07351" lon="5.37159">
        <ele>191.075534</ele>
        <time>2021-04-29T01:15:15.105Z</time>
      </trkpt>
      <trkpt lat="47.07415" lon="5.37273">
        <ele>191.405369</ele>
        <time>2021-04-29T01:15:45.126Z</time>
      </trkpt>
      <trkpt lat="47.07459" lon="5.3743">
        <ele>191.416623</ele>
        <time>2021-04-29T01:16:16.370Z</time>
      </trkpt>
      <trkpt lat="47.0748" lon="5.3762">
        <ele>190.82427</ele>
        <time>2021-04-29T01:16:49.964Z</time>
      </trkpt>
      <trkpt lat="47.07483" lon="5.37639">
        <ele>190.765245</ele>
        <time>2021-04-29T01:16:53.195Z</time>
      </trkpt>
      <trkpt lat="47.07504" lon="5.37807">
        <ele>190.459421</ele>
        <time>2021-04-29T01:17:24.390Z</time>
      </trkpt>
      <trkpt lat="47.07519" lon="5.38033">
        <ele>190.135473</ele>
        <time>2021-04-29T01:18:07.245Z</time>
      </trkpt>
      <trkpt lat="47.07565" lon="5.38389">
        <ele>189.331698</ele>
        <time>2021-04-29T01:19:11.879Z</time>
      </trkpt>
      <trkpt lat="47.07592" lon="5.38609">
        <ele>189.174615</ele>
        <time>2021-04-29T01:19:51.882Z</time>
      </trkpt>
      <trkpt lat="47.07618" lon="5.38774">
        <ele>189.642824</ele>
        <time>2021-04-29T01:20:26.090Z</time>
      </trkpt>
      <trkpt lat="47.07756" lon="5.39112">
        <ele>193.973538</ele>
        <time>2021-04-29T01:22:02.632Z</time>
      </trkpt>
      <trkpt lat="47.07756" lon="5.39124">
        <ele>194.130773</ele>
        <time>2021-04-29T01:22:06.114Z</time>
      </trkpt>
      <trkpt lat="47.07756" lon="5.39139">
        <ele>194.335289</ele>
        <time>2021-04-29T01:22:10.453Z</time>
      </trkpt>
      <trkpt lat="47.07688" lon="5.39684">
        <ele>201.840476</ele>
        <time>2021-04-29T01:24:32.947Z</time>
      </trkpt>
      <trkpt lat="47.07629" lon="5.40142">
        <ele>205.047079</ele>
        <time>2021-04-29T01:26:20.983Z</time>
      </trkpt>
      <trkpt lat="47.07613" lon="5.40275">
        <ele>204.8345</ele>
        <time>2021-04-29T01:26:43.286Z</time>
      </trkpt>
      <trkpt lat="47.07585" lon="5.40504">
        <ele>202.022881</ele>
        <time>2021-04-29T01:27:18.072Z</time>
      </trkpt>
      <trkpt lat="47.07577" lon="5.40502">
        <ele>201.953655</ele>
        <time>2021-04-29T01:27:19.806Z</time>
      </trkpt>
      <trkpt lat="47.07576" lon="5.40506">
        <ele>201.932914</ele>
        <time>2021-04-29T01:27:20.437Z</time>
      </trkpt>
      <trkpt lat="47.07565" lon="5.40597">
        <ele>201.407495</ele>
        <time>2021-04-29T01:27:35.186Z</time>
      </trkpt>
      <trkpt lat="47.07563" lon="5.40616">
        <ele>201.297054</ele>
        <time>2021-04-29T01:27:38.322Z</time>
      </trkpt>
      <trkpt lat="47.07561" lon="5.40633">
        <ele>201.197973</ele>
        <time>2021-04-29T01:27:41.148Z</time>
      </trkpt>
      <trkpt lat="47.07551" lon="5.40702">
        <ele>200.794897</ele>
        <time>2021-04-29T01:27:52.543Z</time>
      </trkpt>
      <trkpt lat="47.07549" lon="5.40723">
        <ele>200.674512</ele>
        <time>2021-04-29T01:27:56.175Z</time>
      </trkpt>
      <trkpt lat="47.07537" lon="5.40804">
        <ele>200.908409</ele>
        <time>2021-04-29T01:28:11.912Z</time>
      </trkpt>
      <trkpt lat="47.07532" lon="5.40817">
        <ele>201.007296</ele>
        <time>2021-04-29T01:28:15.285Z</time>
      </trkpt>
      <trkpt lat="47.07524" lon="5.40831">
        <ele>201.116634</ele>
        <time>2021-04-29T01:28:18.612Z</time>
      </trkpt>
      <trkpt lat="47.07486" lon="5.40897">
        <ele>201.6614</ele>
        <time>2021-04-29T01:28:38.308Z</time>
      </trkpt>
      <trkpt lat="47.07472" lon="5.40924">
        <ele>201.875364</ele>
        <time>2021-04-29T01:28:45.513Z</time>
      </trkpt>
      <trkpt lat="47.07463" lon="5.40948">
        <ele>202.048499</ele>
        <time>2021-04-29T01:28:52.031Z</time>
      </trkpt>
      <trkpt lat="47.0746" lon="5.40961">
        <ele>202.129815</ele>
        <time>2021-04-29T01:28:54.643Z</time>
      </trkpt>
      <trkpt lat="47.07458" lon="5.40969">
        <ele>202.188028</ele>
        <time>2021-04-29T01:28:56.636Z</time>
      </trkpt>
      <trkpt lat="47.07457" lon="5.40974">
        <ele>202.239345</ele>
        <time>2021-04-29T01:28:58.031Z</time>
      </trkpt>
      <trkpt lat="47.07448" lon="5.41023">
        <ele>202.888173</ele>
        <time>2021-04-29T01:29:09.870Z</time>
      </trkpt>
      <trkpt lat="47.07448" lon="5.41029">
        <ele>202.95788</ele>
        <time>2021-04-29T01:29:11.459Z</time>
      </trkpt>
      <trkpt lat="47.07449" lon="5.41033">
        <ele>203.013307</ele>
        <time>2021-04-29T01:29:12.695Z</time>
      </trkpt>
      <trkpt lat="47.07452" lon="5.41037">
        <ele>203.084349</ele>
        <time>2021-04-29T01:29:13.883Z</time>
      </trkpt>
      <trkpt lat="47.0749" lon="5.41077">
        <ele>203.95797</ele>
        <time>2021-04-29T01:29:30.840Z</time>
      </trkpt>
      <trkpt lat="47.07513" lon="5.41099">
        <ele>204.46497</ele>
        <time>2021-04-29T01:29:41.509Z</time>
      </trkpt>
      <trkpt lat="47.07541" lon="5.41131">
        <ele>205.11889</ele>
        <time>2021-04-29T01:29:54.599Z</time>
      </trkpt>
      <trkpt lat="47.07553" lon="5.41153">
        <ele>205.4783</ele>
        <time>2021-04-29T01:30:01.014Z</time>
      </trkpt>
      <trkpt lat="47.07564" lon="5.41174">
        <ele>205.83211</ele>
        <time>2021-04-29T01:30:07.589Z</time>
      </trkpt>
      <trkpt lat="47.07585" lon="5.412">
        <ele>206.378692</ele>
        <time>2021-04-29T01:30:16.671Z</time>
      </trkpt>
      <trkpt lat="47.07597" lon="5.41211">
        <ele>206.652317</ele>
        <time>2021-04-29T01:30:21.364Z</time>
      </trkpt>
      <trkpt lat="47.07633" lon="5.41245">
        <ele>207.49684</ele>
        <time>2021-04-29T01:30:35.883Z</time>
      </trkpt>
      <trkpt lat="47.07654" lon="5.41263">
        <ele>207.967713</ele>
        <time>2021-04-29T01:30:44.845Z</time>
      </trkpt>
      <trkpt lat="47.07674" lon="5.41281">
        <ele>208.434046</ele>
        <time>2021-04-29T01:30:53.395Z</time>
      </trkpt>
      <trkpt lat="47.07714" lon="5.4132">
        <ele>209.539366</ele>
        <time>2021-04-29T01:31:12.210Z</time>
      </trkpt>
      <trkpt lat="47.07722" lon="5.41331">
        <ele>209.855583</ele>
        <time>2021-04-29T01:31:16.114Z</time>
      </trkpt>
      <trkpt lat="47.07727" lon="5.41342">
        <ele>210.152832</ele>
        <time>2021-04-29T01:31:20.436Z</time>
      </trkpt>
      <trkpt lat="47.07731" lon="5.4135">
        <ele>210.354119</ele>
        <time>2021-04-29T01:31:23.157Z</time>
      </trkpt>
      <trkpt lat="47.07734" lon="5.41355">
        <ele>210.495276</ele>
        <time>2021-04-29T01:31:25.238Z</time>
      </trkpt>
      <trkpt lat="47.07721" lon="5.41382">
        <ele>211.176915</ele>
        <time>2021-04-29T01:31:34.139Z</time>
      </trkpt>
      <trkpt lat="47.07719" lon="5.41392">
        <ele>211.395281</ele>
        <time>2021-04-29T01:31:37.083Z</time>
      </trkpt>
      <trkpt lat="47.07714" lon="5.41401">
        <ele>211.642635</ele>
        <time>2021-04-29T01:31:40.691Z</time>
      </trkpt>
      <trkpt lat="47.07681" lon="5.41461">
        <ele>213.245565</ele>
        <time>2021-04-29T01:32:02.123Z</time>
      </trkpt>
      <trkpt lat="47.07673" lon="5.41474">
        <ele>213.618046</ele>
        <time>2021-04-29T01:32:07.716Z</time>
      </trkpt>
      <trkpt lat="47.07667" lon="5.41484">
        <ele>213.899865</ele>
        <time>2021-04-29T01:32:12.024Z</time>
      </trkpt>
      <trkpt lat="47.07663" lon="5.41489">
        <ele>214.03005</ele>
        <time>2021-04-29T01:32:13.852Z</time>
      </trkpt>
      <trkpt lat="47.0766" lon="5.41492">
        <ele>214.162251</ele>
        <time>2021-04-29T01:32:15.444Z</time>
      </trkpt>
      <trkpt lat="47.07656" lon="5.41496">
        <ele>214.308689</ele>
        <time>2021-04-29T01:32:17.338Z</time>
      </trkpt>
      <trkpt lat="47.07649" lon="5.415">
        <ele>214.519533</ele>
        <time>2021-04-29T01:32:20.652Z</time>
      </trkpt>
      <trkpt lat="47.07599" lon="5.41505">
        <ele>215.848696</ele>
        <time>2021-04-29T01:32:42.347Z</time>
      </trkpt>
      <trkpt lat="47.07585" lon="5.41522">
        <ele>216.335863</ele>
        <time>2021-04-29T01:32:49.468Z</time>
      </trkpt>
      <trkpt lat="47.07562" lon="5.41575">
        <ele>217.460681</ele>
        <time>2021-04-29T01:33:06.244Z</time>
      </trkpt>
      <trkpt lat="47.07551" lon="5.41599">
        <ele>217.980966</ele>
        <time>2021-04-29T01:33:13.494Z</time>
      </trkpt>
      <trkpt lat="47.0754" lon="5.41625">
        <ele>218.529591</ele>
        <time>2021-04-29T01:33:21.549Z</time>
      </trkpt>
      <trkpt lat="47.07531" lon="5.41646">
        <ele>218.971236</ele>
        <time>2021-04-29T01:33:27.387Z</time>
      </trkpt>
      <trkpt lat="47.07506" lon="5.41689">
        <ele>220.015019</ele>
        <time>2021-04-29T01:33:40.914Z</time>
      </trkpt>
      <trkpt lat="47.075" lon="5.41703">
        <ele>220.321226</ele>
        <time>2021-04-29T01:33:44.738Z</time>
      </trkpt>
      <trkpt lat="47.07495" lon="5.41715">
        <ele>220.587382</ele>
        <time>2021-04-29T01:33:48.320Z</time>
      </trkpt>
      <trkpt lat="47.07491" lon="5.41728">
        <ele>220.860798</ele>
        <time>2021-04-29T01:33:52.240Z</time>
      </trkpt>
      <trkpt lat="47.07489" lon="5.41741">
        <ele>221.10322</ele>
        <time>2021-04-29T01:33:56.182Z</time>
      </trkpt>
      <trkpt lat="47.07478" lon="5.41838">
        <ele>222.953428</ele>
        <time>2021-04-29T01:34:23.312Z</time>
      </trkpt>
      <trkpt lat="47.07478" lon="5.41914">
        <ele>224.415669</ele>
        <time>2021-04-29T01:34:45.174Z</time>
      </trkpt>
      <trkpt lat="47.07482" lon="5.41947">
        <ele>225.204285</ele>
        <time>2021-04-29T01:34:55.581Z</time>
      </trkpt>
      <trkpt lat="47.07487" lon="5.41977">
        <ele>225.957157</ele>
        <time>2021-04-29T01:35:04.791Z</time>
      </trkpt>
      <trkpt lat="47.07497" lon="5.42016">
        <ele>226.944563</ele>
        <time>2021-04-29T01:35:16.811Z</time>
      </trkpt>
      <trkpt lat="47.07503" lon="5.42036">
        <ele>227.486161</ele>
        <time>2021-04-29T01:35:23.903Z</time>
      </trkpt>
      <trkpt lat="47.07514" lon="5.42064">
        <ele>228.265413</ele>
        <time>2021-04-29T01:35:33.423Z</time>
      </trkpt>
      <trkpt lat="47.07561" lon="5.4217">
        <ele>231.163039</ele>
        <time>2021-04-29T01:36:11.633Z</time>
      </trkpt>
      <trkpt lat="47.07606" lon="5.42268">
        <ele>233.515806</ele>
        <time>2021-04-29T01:36:44.906Z</time>
      </trkpt>
      <trkpt lat="47.07632" lon="5.42342">
        <ele>235.167976</ele>
        <time>2021-04-29T01:37:07.404Z</time>
      </trkpt>
      <trkpt lat="47.07659" lon="5.42466">
        <ele>236.640549</ele>
        <time>2021-04-29T01:37:40.674Z</time>
      </trkpt>
      <trkpt lat="47.07681" lon="5.42786">
        <ele>237.546416</ele>
        <time>2021-04-29T01:38:45.274Z</time>
      </trkpt>
      <trkpt lat="47.07689" lon="5.43041">
        <ele>235.033049</ele>
        <time>2021-04-29T01:39:22.554Z</time>
      </trkpt>
      <trkpt lat="47.07706" lon="5.4334">
        <ele>229.741147</ele>
        <time>2021-04-29T01:40:04.024Z</time>
      </trkpt>
      <trkpt lat="47.0771" lon="5.43392">
        <ele>228.728822</ele>
        <time>2021-04-29T01:40:10.966Z</time>
      </trkpt>
      <trkpt lat="47.07715" lon="5.43435">
        <ele>227.870858</ele>
        <time>2021-04-29T01:40:16.750Z</time>
      </trkpt>
      <trkpt lat="47.0772" lon="5.43469">
        <ele>227.142507</ele>
        <time>2021-04-29T01:40:21.343Z</time>
      </trkpt>
      <trkpt lat="47.07725" lon="5.43501">
        <ele>226.44399</ele>
        <time>2021-04-29T01:40:25.761Z</time>
      </trkpt>
      <trkpt lat="47.07728" lon="5.43516">
        <ele>226.120369</ele>
        <time>2021-04-29T01:40:27.818Z</time>
      </trkpt>
      <trkpt lat="47.07732" lon="5.43538">
        <ele>225.663523</ele>
        <time>2021-04-29T01:40:30.706Z</time>
      </trkpt>
      <trkpt lat="47.07739" lon="5.43576">
        <ele>224.835956</ele>
        <time>2021-04-29T01:40:35.948Z</time>
      </trkpt>
      <trkpt lat="47.07752" lon="5.43642">
        <ele>223.39855</ele>
        <time>2021-04-29T01:40:45.242Z</time>
      </trkpt>
      <trkpt lat="47.07761" lon="5.43684">
        <ele>222.528332</ele>
        <time>2021-04-29T01:40:51.250Z</time>
      </trkpt>
      <trkpt lat="47.07793" lon="5.43848">
        <ele>220.379897</ele>
        <time>2021-04-29T01:41:15.944Z</time>
      </trkpt>
      <trkpt lat="47.078" lon="5.43883">
        <ele>219.912032</ele>
        <time>2021-04-29T01:41:21.535Z</time>
      </trkpt>
      <trkpt lat="47.07808" lon="5.43926">
        <ele>219.345468</ele>
        <time>2021-04-29T01:41:28.730Z</time>
      </trkpt>
      <trkpt lat="47.07832" lon="5.44135">
        <ele>216.520505</ele>
        <time>2021-04-29T01:42:00.110Z</time>
      </trkpt>
      <trkpt lat="47.07833" lon="5.44151">
        <ele>216.304179</ele>
        <time>2021-04-29T01:42:02.328Z</time>
      </trkpt>
      <trkpt lat="47.07835" lon="5.44172">
        <ele>216.015491</ele>
        <time>2021-04-29T01:42:05.283Z</time>
      </trkpt>
      <trkpt lat="47.07846" lon="5.44288">
        <ele>213.708279</ele>
        <time>2021-04-29T01:42:20.913Z</time>
      </trkpt>
      <trkpt lat="47.07849" lon="5.4432">
        <ele>213.042794</ele>
        <time>2021-04-29T01:42:25.070Z</time>
      </trkpt>
      <trkpt lat="47.07852" lon="5.44348">
        <ele>212.42717</ele>
        <time>2021-04-29T01:42:28.926Z</time>
      </trkpt>
      <trkpt lat="47.07854" lon="5.44375">
        <ele>211.868046</ele>
        <time>2021-04-29T01:42:32.411Z</time>
      </trkpt>
      <trkpt lat="47.07854" lon="5.44388">
        <ele>211.597589</ele>
        <time>2021-04-29T01:42:34.103Z</time>
      </trkpt>
      <trkpt lat="47.07851" lon="5.44415">
        <ele>211.007789</ele>
        <time>2021-04-29T01:42:37.897Z</time>
      </trkpt>
      <trkpt lat="47.0785" lon="5.4442">
        <ele>210.915342</ele>
        <time>2021-04-29T01:42:38.529Z</time>
      </trkpt>
      <trkpt lat="47.07847" lon="5.44445">
        <ele>210.375725</ele>
        <time>2021-04-29T01:42:42.003Z</time>
      </trkpt>
      <trkpt lat="47.0783" lon="5.44555">
        <ele>208.942026</ele>
        <time>2021-04-29T01:42:57.756Z</time>
      </trkpt>
      <trkpt lat="47.07822" lon="5.44624">
        <ele>208.107651</ele>
        <time>2021-04-29T01:43:08.105Z</time>
      </trkpt>
      <trkpt lat="47.07819" lon="5.44663">
        <ele>207.647955</ele>
        <time>2021-04-29T01:43:14.052Z</time>
      </trkpt>
      <trkpt lat="47.07819" lon="5.44784">
        <ele>207.029166</ele>
        <time>2021-04-29T01:43:34.216Z</time>
      </trkpt>
      <trkpt lat="47.07825" lon="5.44819">
        <ele>207.02908</ele>
        <time>2021-04-29T01:43:40.675Z</time>
      </trkpt>
      <trkpt lat="47.07837" lon="5.4485">
        <ele>207.028996</ele>
        <time>2021-04-29T01:43:47.388Z</time>
      </trkpt>
      <trkpt lat="47.07856" lon="5.44887">
        <ele>207.028886</ele>
        <time>2021-04-29T01:43:56.152Z</time>
      </trkpt>
      <trkpt lat="47.07892" lon="5.44958">
        <ele>207.072977</ele>
        <time>2021-04-29T01:44:13.414Z</time>
      </trkpt>
      <trkpt lat="47.07895" lon="5.44964">
        <ele>207.096314</ele>
        <time>2021-04-29T01:44:15.091Z</time>
      </trkpt>
      <trkpt lat="47.07964" lon="5.45103">
        <ele>207.711502</ele>
        <time>2021-04-29T01:44:49.823Z</time>
      </trkpt>
      <trkpt lat="47.08007" lon="5.45191">
        <ele>208.066117</ele>
        <time>2021-04-29T01:45:11.146Z</time>
      </trkpt>
      <trkpt lat="47.08036" lon="5.45249">
        <ele>208.25884</ele>
        <time>2021-04-29T01:45:24.795Z</time>
      </trkpt>
      <trkpt lat="47.08043" lon="5.45271">
        <ele>208.322553</ele>
        <time>2021-04-29T01:45:29.421Z</time>
      </trkpt>
      <trkpt lat="47.08042" lon="5.45283">
        <ele>208.355054</ele>
        <time>2021-04-29T01:45:31.752Z</time>
      </trkpt>
      <trkpt lat="47.08039" lon="5.45291">
        <ele>208.379426</ele>
        <time>2021-04-29T01:45:33.345Z</time>
      </trkpt>
      <trkpt lat="47.08035" lon="5.45299">
        <ele>208.405848</ele>
        <time>2021-04-29T01:45:35.223Z</time>
      </trkpt>
      <trkpt lat="47.0802" lon="5.45313">
        <ele>208.475079</ele>
        <time>2021-04-29T01:45:40.082Z</time>
      </trkpt>
      <trkpt lat="47.08022" lon="5.45318">
        <ele>208.488784</ele>
        <time>2021-04-29T01:45:41.158Z</time>
      </trkpt>
      <trkpt lat="47.0803" lon="5.45336">
        <ele>208.546301</ele>
        <time>2021-04-29T01:45:45.306Z</time>
      </trkpt>
      <trkpt lat="47.08055" lon="5.4537">
        <ele>208.699673</ele>
        <time>2021-04-29T01:45:55.508Z</time>
      </trkpt>
      <trkpt lat="47.08076" lon="5.45384">
        <ele>209.145577</ele>
        <time>2021-04-29T01:46:02.748Z</time>
      </trkpt>
      <trkpt lat="47.08069" lon="5.45425">
        <ele>209.706651</ele>
        <time>2021-04-29T01:46:12.439Z</time>
      </trkpt>
      <trkpt lat="47.0806" lon="5.45539">
        <ele>211.243967</ele>
        <time>2021-04-29T01:46:42.358Z</time>
      </trkpt>
      <trkpt lat="47.08051" lon="5.4557">
        <ele>211.695611</ele>
        <time>2021-04-29T01:46:52.212Z</time>
      </trkpt>
      <trkpt lat="47.08016" lon="5.45641">
        <ele>213.26443</ele>
        <time>2021-04-29T01:47:16.695Z</time>
      </trkpt>
      <trkpt lat="47.07993" lon="5.45685">
        <ele>214.470321</ele>
        <time>2021-04-29T01:47:32.847Z</time>
      </trkpt>
      <trkpt lat="47.07988" lon="5.45691">
        <ele>214.658524</ele>
        <time>2021-04-29T01:47:36.254Z</time>
      </trkpt>
      <trkpt lat="47.07998" lon="5.45708">
        <ele>215.139193</ele>
        <time>2021-04-29T01:47:42.300Z</time>
      </trkpt>
      <trkpt lat="47.08007" lon="5.45725">
        <ele>215.592471</ele>
        <time>2021-04-29T01:47:47.937Z</time>
      </trkpt>
      <trkpt lat="47.08057" lon="5.45798">
        <ele>217.8144</ele>
        <time>2021-04-29T01:48:17.748Z</time>
      </trkpt>
      <trkpt lat="47.08059" lon="5.45805">
        <ele>217.981483</ele>
        <time>2021-04-29T01:48:20.219Z</time>
      </trkpt>
      <trkpt lat="47.08067" lon="5.45819">
        <ele>218.481354</ele>
        <time>2021-04-29T01:48:25.980Z</time>
      </trkpt>
      <trkpt lat="47.08074" lon="5.4583">
        <ele>218.890094</ele>
        <time>2021-04-29T01:48:30.197Z</time>
      </trkpt>
      <trkpt lat="47.08089" lon="5.45853">
        <ele>219.742209</ele>
        <time>2021-04-29T01:48:40.264Z</time>
      </trkpt>
      <trkpt lat="47.08095" lon="5.45869">
        <ele>220.221217</ele>
        <time>2021-04-29T01:48:45.501Z</time>
      </trkpt>
      <trkpt lat="47.08097" lon="5.45877">
        <ele>220.45551</ele>
        <time>2021-04-29T01:48:47.934Z</time>
      </trkpt>
      <trkpt lat="47.08099" lon="5.45886">
        <ele>220.70083</ele>
        <time>2021-04-29T01:48:50.520Z</time>
      </trkpt>
      <trkpt lat="47.08099" lon="5.459">
        <ele>221.091478</ele>
        <time>2021-04-29T01:48:55.031Z</time>
      </trkpt>
      <trkpt lat="47.08093" lon="5.45939">
        <ele>222.151099</ele>
        <time>2021-04-29T01:49:06.924Z</time>
      </trkpt>
      <trkpt lat="47.08093" lon="5.45946">
        <ele>222.333215</ele>
        <time>2021-04-29T01:49:09.184Z</time>
      </trkpt>
      <trkpt lat="47.08056" lon="5.46148">
        <ele>228.440731</ele>
        <time>2021-04-29T01:50:17.987Z</time>
      </trkpt>
      <trkpt lat="47.08048" lon="5.46177">
        <ele>229.406847</ele>
        <time>2021-04-29T01:50:29.079Z</time>
      </trkpt>
      <trkpt lat="47.08041" lon="5.462">
        <ele>230.202386</ele>
        <time>2021-04-29T01:50:38.168Z</time>
      </trkpt>
      <trkpt lat="47.08036" lon="5.46221">
        <ele>230.892436</ele>
        <time>2021-04-29T01:50:45.816Z</time>
      </trkpt>
      <trkpt lat="47.08027" lon="5.46263">
        <ele>232.256168</ele>
        <time>2021-04-29T01:51:00.607Z</time>
      </trkpt>
      <trkpt lat="47.08017" lon="5.46296">
        <ele>233.328326</ele>
        <time>2021-04-29T01:51:12.421Z</time>
      </trkpt>
      <trkpt lat="47.08011" lon="5.46308">
        <ele>233.616323</ele>
        <time>2021-04-29T01:51:17.075Z</time>
      </trkpt>
      <trkpt lat="47.08008" lon="5.46308">
        <ele>233.693846</ele>
        <time>2021-04-29T01:51:18.260Z</time>
      </trkpt>
      <trkpt lat="47.08005" lon="5.46309">
        <ele>233.77085</ele>
        <time>2021-04-29T01:51:19.463Z</time>
      </trkpt>
      <trkpt lat="47.08003" lon="5.46312">
        <ele>233.861996</ele>
        <time>2021-04-29T01:51:20.978Z</time>
      </trkpt>
      <trkpt lat="47.08" lon="5.46315">
        <ele>233.952919</ele>
        <time>2021-04-29T01:51:22.349Z</time>
      </trkpt>
      <trkpt lat="47.07998" lon="5.46319">
        <ele>234.043316</ele>
        <time>2021-04-29T01:51:23.863Z</time>
      </trkpt>
      <trkpt lat="47.07998" lon="5.46321">
        <ele>234.083437</ele>
        <time>2021-04-29T01:51:24.489Z</time>
      </trkpt>
      <trkpt lat="47.07998" lon="5.46323">
        <ele>234.122692</ele>
        <time>2021-04-29T01:51:25.101Z</time>
      </trkpt>
      <trkpt lat="47.07997" lon="5.46329">
        <ele>234.228295</ele>
        <time>2021-04-29T01:51:26.815Z</time>
      </trkpt>
      <trkpt lat="47.08" lon="5.46339">
        <ele>234.438641</ele>
        <time>2021-04-29T01:51:29.756Z</time>
      </trkpt>
      <trkpt lat="47.08003" lon="5.46343">
        <ele>234.544879</ele>
        <time>2021-04-29T01:51:31.475Z</time>
      </trkpt>
      <trkpt lat="47.08006" lon="5.46345">
        <ele>234.627675</ele>
        <time>2021-04-29T01:51:32.610Z</time>
      </trkpt>
      <trkpt lat="47.08014" lon="5.46361">
        <ele>235.013727</ele>
        <time>2021-04-29T01:51:38.377Z</time>
      </trkpt>
      <trkpt lat="47.08032" lon="5.46412">
        <ele>236.089187</ele>
        <time>2021-04-29T01:51:53.507Z</time>
      </trkpt>
      <trkpt lat="47.08044" lon="5.46443">
        <ele>236.760256</ele>
        <time>2021-04-29T01:52:02.373Z</time>
      </trkpt>
      <trkpt lat="47.0806" lon="5.46476">
        <ele>237.534657</ele>
        <time>2021-04-29T01:52:12.685Z</time>
      </trkpt>
      <trkpt lat="47.08078" lon="5.46511">
        <ele>238.32459</ele>
        <time>2021-04-29T01:52:23.999Z</time>
      </trkpt>
      <trkpt lat="47.08099" lon="5.46552">
        <ele>239.067386</ele>
        <time>2021-04-29T01:52:36.404Z</time>
      </trkpt>
      <trkpt lat="47.0813" lon="5.46606">
        <ele>240.101559</ele>
        <time>2021-04-29T01:52:52.426Z</time>
      </trkpt>
      <trkpt lat="47.0815" lon="5.46643">
        <ele>240.787694</ele>
        <time>2021-04-29T01:53:04.148Z</time>
      </trkpt>
      <trkpt lat="47.08155" lon="5.46654">
        <ele>240.986001</ele>
        <time>2021-04-29T01:53:07.498Z</time>
      </trkpt>
      <trkpt lat="47.08167" lon="5.46677">
        <ele>241.401779</ele>
        <time>2021-04-29T01:53:15.323Z</time>
      </trkpt>
      <trkpt lat="47.08185" lon="5.46728">
        <ele>242.309768</ele>
        <time>2021-04-29T01:53:31.089Z</time>
      </trkpt>
      <trkpt lat="47.08192" lon="5.46793">
        <ele>243.685903</ele>
        <time>2021-04-29T01:53:49.491Z</time>
      </trkpt>
      <trkpt lat="47.08189" lon="5.4684">
        <ele>244.652904</ele>
        <time>2021-04-29T01:54:03.241Z</time>
      </trkpt>
      <trkpt lat="47.08187" lon="5.4686">
        <ele>245.068778</ele>
        <time>2021-04-29T01:54:09.243Z</time>
      </trkpt>
      <trkpt lat="47.08178" lon="5.46913">
        <ele>246.201352</ele>
        <time>2021-04-29T01:54:24.840Z</time>
      </trkpt>
      <trkpt lat="47.08172" lon="5.4696">
        <ele>247.181406</ele>
        <time>2021-04-29T01:54:37.842Z</time>
      </trkpt>
      <trkpt lat="47.08184" lon="5.46984">
        <ele>247.719406</ele>
        <time>2021-04-29T01:54:45.910Z</time>
      </trkpt>
      <trkpt lat="47.08196" lon="5.46996">
        <ele>248.038436</ele>
        <time>2021-04-29T01:54:51.863Z</time>
      </trkpt>
      <trkpt lat="47.08206" lon="5.47005">
        <ele>248.308671</ele>
        <time>2021-04-29T01:54:57.020Z</time>
      </trkpt>
      <trkpt lat="47.08236" lon="5.4703">
        <ele>249.055419</ele>
        <time>2021-04-29T01:55:10.881Z</time>
      </trkpt>
      <trkpt lat="47.08324" lon="5.4713">
        <ele>251.47021</ele>
        <time>2021-04-29T01:55:50.881Z</time>
      </trkpt>
      <trkpt lat="47.08335" lon="5.47135">
        <ele>251.485189</ele>
        <time>2021-04-29T01:55:54.464Z</time>
      </trkpt>
      <trkpt lat="47.08349" lon="5.47155">
        <ele>251.510544</ele>
        <time>2021-04-29T01:56:00.679Z</time>
      </trkpt>
      <trkpt lat="47.08364" lon="5.47193">
        <ele>251.549682</ele>
        <time>2021-04-29T01:56:09.905Z</time>
      </trkpt>
      <trkpt lat="47.08368" lon="5.47208">
        <ele>251.564062</ele>
        <time>2021-04-29T01:56:13.302Z</time>
      </trkpt>
      <trkpt lat="47.08369" lon="5.47224">
        <ele>251.577942</ele>
        <time>2021-04-29T01:56:16.302Z</time>
      </trkpt>
      <trkpt lat="47.08371" lon="5.47247">
        <ele>251.598684</ele>
        <time>2021-04-29T01:56:20.946Z</time>
      </trkpt>
      <trkpt lat="47.08371" lon="5.4725">
        <ele>251.601096</ele>
        <time>2021-04-29T01:56:21.394Z</time>
      </trkpt>
      <trkpt lat="47.08374" lon="5.47302">
        <ele>251.647984</ele>
        <time>2021-04-29T01:56:31.121Z</time>
      </trkpt>
      <trkpt lat="47.08375" lon="5.47318">
        <ele>251.661814</ele>
        <time>2021-04-29T01:56:33.716Z</time>
      </trkpt>
      <trkpt lat="47.08376" lon="5.47322">
        <ele>251.665952</ele>
        <time>2021-04-29T01:56:34.475Z</time>
      </trkpt>
      <trkpt lat="47.08378" lon="5.47339">
        <ele>251.681299</ele>
        <time>2021-04-29T01:56:37.323Z</time>
      </trkpt>
      <trkpt lat="47.08417" lon="5.47498">
        <ele>248.648857</ele>
        <time>2021-04-29T01:57:01.359Z</time>
      </trkpt>
      <trkpt lat="47.08421" lon="5.47519">
        <ele>248.190038</ele>
        <time>2021-04-29T01:57:04.133Z</time>
      </trkpt>
      <trkpt lat="47.08461" lon="5.47678">
        <ele>243.434699</ele>
        <time>2021-04-29T01:57:25.371Z</time>
      </trkpt>
      <trkpt lat="47.08464" lon="5.47688">
        <ele>243.003468</ele>
        <time>2021-04-29T01:57:26.771Z</time>
      </trkpt>
      <trkpt lat="47.08479" lon="5.47746">
        <ele>240.674519</ele>
        <time>2021-04-29T01:57:34.221Z</time>
      </trkpt>
      <trkpt lat="47.08499" lon="5.47811">
        <ele>237.982019</ele>
        <time>2021-04-29T01:57:42.839Z</time>
      </trkpt>
      <trkpt lat="47.08526" lon="5.47852">
        <ele>235.867831</ele>
        <time>2021-04-29T01:57:49.623Z</time>
      </trkpt>
      <trkpt lat="47.08618" lon="5.47936">
        <ele>230.160432</ele>
        <time>2021-04-29T01:58:08.783Z</time>
      </trkpt>
      <trkpt lat="47.08655" lon="5.47958">
        <ele>228.053444</ele>
        <time>2021-04-29T01:58:16.128Z</time>
      </trkpt>
      <trkpt lat="47.08668" lon="5.47962">
        <ele>227.31643</ele>
        <time>2021-04-29T01:58:18.724Z</time>
      </trkpt>
      <trkpt lat="47.08668" lon="5.47968">
        <ele>227.124046</ele>
        <time>2021-04-29T01:58:19.396Z</time>
      </trkpt>
      <trkpt lat="47.08666" lon="5.47974">
        <ele>226.887364</ele>
        <time>2021-04-29T01:58:20.304Z</time>
      </trkpt>
      <trkpt lat="47.08665" lon="5.47986">
        <ele>226.533917</ele>
        <time>2021-04-29T01:58:21.922Z</time>
      </trkpt>
      <trkpt lat="47.08666" lon="5.47995">
        <ele>226.335496</ele>
        <time>2021-04-29T01:58:23.004Z</time>
      </trkpt>
      <trkpt lat="47.08686" lon="5.48105">
        <ele>223.744761</ele>
        <time>2021-04-29T01:58:37.814Z</time>
      </trkpt>
      <trkpt lat="47.0869" lon="5.48219">
        <ele>221.144251</ele>
        <time>2021-04-29T01:58:53.364Z</time>
      </trkpt>
      <trkpt lat="47.0869" lon="5.48225">
        <ele>220.988853</ele>
        <time>2021-04-29T01:58:54.260Z</time>
      </trkpt>
      <trkpt lat="47.08685" lon="5.48233">
        <ele>220.775272</ele>
        <time>2021-04-29T01:58:55.532Z</time>
      </trkpt>
      <trkpt lat="47.08646" lon="5.48267">
        <ele>219.315188</ele>
        <time>2021-04-29T01:59:05.332Z</time>
      </trkpt>
      <trkpt lat="47.08641" lon="5.48273">
        <ele>219.127966</ele>
        <time>2021-04-29T01:59:06.392Z</time>
      </trkpt>
      <trkpt lat="47.08639" lon="5.48277">
        <ele>219.015681</ele>
        <time>2021-04-29T01:59:07.149Z</time>
      </trkpt>
      <trkpt lat="47.08615" lon="5.48318">
        <ele>217.858831</ele>
        <time>2021-04-29T01:59:14.472Z</time>
      </trkpt>
      <trkpt lat="47.08611" lon="5.48324">
        <ele>217.683505</ele>
        <time>2021-04-29T01:59:15.622Z</time>
      </trkpt>
      <trkpt lat="47.08619" lon="5.48336">
        <ele>217.324431</ele>
        <time>2021-04-29T01:59:17.845Z</time>
      </trkpt>
      <trkpt lat="47.08663" lon="5.48405">
        <ele>215.293151</ele>
        <time>2021-04-29T01:59:30.553Z</time>
      </trkpt>
      <trkpt lat="47.08669" lon="5.48414">
        <ele>215.030164</ele>
        <time>2021-04-29T01:59:32.152Z</time>
      </trkpt>
      <trkpt lat="47.08673" lon="5.48422">
        <ele>214.738633</ele>
        <time>2021-04-29T01:59:33.548Z</time>
      </trkpt>
      <trkpt lat="47.08671" lon="5.48426">
        <ele>214.59066</ele>
        <time>2021-04-29T01:59:34.132Z</time>
      </trkpt>
      <trkpt lat="47.08638" lon="5.48544">
        <ele>211.020176</ele>
        <time>2021-04-29T01:59:50.092Z</time>
      </trkpt>
      <trkpt lat="47.08603" lon="5.48569">
        <ele>209.414888</ele>
        <time>2021-04-29T01:59:57.293Z</time>
      </trkpt>
      <trkpt lat="47.08581" lon="5.48577">
        <ele>208.444307</ele>
        <time>2021-04-29T02:00:01.525Z</time>
      </trkpt>
      <trkpt lat="47.0856" lon="5.48586">
        <ele>207.568839</ele>
        <time>2021-04-29T02:00:05.785Z</time>
      </trkpt>
      <trkpt lat="47.08523" lon="5.48621">
        <ele>206.590523</ele>
        <time>2021-04-29T02:00:14.609Z</time>
      </trkpt>
      <trkpt lat="47.08521" lon="5.48623">
        <ele>206.530073</ele>
        <time>2021-04-29T02:00:15.039Z</time>
      </trkpt>
      <trkpt lat="47.08544" lon="5.48657">
        <ele>205.813601</ele>
        <time>2021-04-29T02:00:21.828Z</time>
      </trkpt>
      <trkpt lat="47.08601" lon="5.48771">
        <ele>203.650899</ele>
        <time>2021-04-29T02:00:42.167Z</time>
      </trkpt>
      <trkpt lat="47.08606" lon="5.48782">
        <ele>203.540404</ele>
        <time>2021-04-29T02:00:45.057Z</time>
      </trkpt>
      <trkpt lat="47.08654" lon="5.48892">
        <ele>203.146411</ele>
        <time>2021-04-29T02:01:07.008Z</time>
      </trkpt>
      <trkpt lat="47.08714" lon="5.4903">
        <ele>202.743101</ele>
        <time>2021-04-29T02:01:36.299Z</time>
      </trkpt>
      <trkpt lat="47.08725" lon="5.49058">
        <ele>202.720231</ele>
        <time>2021-04-29T02:01:41.932Z</time>
      </trkpt>
      <trkpt lat="47.08732" lon="5.49075">
        <ele>202.705717</ele>
        <time>2021-04-29T02:01:46.160Z</time>
      </trkpt>
      <trkpt lat="47.08741" lon="5.49097">
        <ele>202.687602</ele>
        <time>2021-04-29T02:01:50.319Z</time>
      </trkpt>
      <trkpt lat="47.08769" lon="5.49131">
        <ele>202.650309</ele>
        <time>2021-04-29T02:02:00.001Z</time>
      </trkpt>
      <trkpt lat="47.08836" lon="5.49176">
        <ele>202.531321</ele>
        <time>2021-04-29T02:02:19.284Z</time>
      </trkpt>
      <trkpt lat="47.08844" lon="5.49183">
        <ele>202.476732</ele>
        <time>2021-04-29T02:02:22.286Z</time>
      </trkpt>
      <trkpt lat="47.08845" lon="5.49185">
        <ele>202.463618</ele>
        <time>2021-04-29T02:02:22.907Z</time>
      </trkpt>
      <trkpt lat="47.08859" lon="5.49214">
        <ele>202.314655</ele>
        <time>2021-04-29T02:02:28.918Z</time>
      </trkpt>
      <trkpt lat="47.08869" lon="5.49233">
        <ele>202.217416</ele>
        <time>2021-04-29T02:02:33.298Z</time>
      </trkpt>
      <trkpt lat="47.08877" lon="5.49254">
        <ele>202.116187</ele>
        <time>2021-04-29T02:02:37.156Z</time>
      </trkpt>
      <trkpt lat="47.08874" lon="5.49266">
        <ele>202.062385</ele>
        <time>2021-04-29T02:02:39.565Z</time>
      </trkpt>
      <trkpt lat="47.0887" lon="5.49268">
        <ele>202.03722</ele>
        <time>2021-04-29T02:02:40.801Z</time>
      </trkpt>
      <trkpt lat="47.08862" lon="5.49272">
        <ele>201.988904</ele>
        <time>2021-04-29T02:02:42.680Z</time>
      </trkpt>
      <trkpt lat="47.08861" lon="5.49274">
        <ele>201.976761</ele>
        <time>2021-04-29T02:02:43.079Z</time>
      </trkpt>
      <trkpt lat="47.0887" lon="5.49313">
        <ele>201.802304</ele>
        <time>2021-04-29T02:02:50.311Z</time>
      </trkpt>
      <trkpt lat="47.08877" lon="5.49339">
        <ele>201.685969</ele>
        <time>2021-04-29T02:02:54.714Z</time>
      </trkpt>
      <trkpt lat="47.089" lon="5.4941">
        <ele>201.423722</ele>
        <time>2021-04-29T02:03:08.116Z</time>
      </trkpt>
      <trkpt lat="47.08909" lon="5.49467">
        <ele>201.306079</ele>
        <time>2021-04-29T02:03:18.672Z</time>
      </trkpt>
      <trkpt lat="47.08911" lon="5.49492">
        <ele>201.256015</ele>
        <time>2021-04-29T02:03:22.811Z</time>
      </trkpt>
      <trkpt lat="47.08914" lon="5.49513">
        <ele>201.212554</ele>
        <time>2021-04-29T02:03:26.968Z</time>
      </trkpt>
      <trkpt lat="47.08916" lon="5.49521">
        <ele>201.197327</ele>
        <time>2021-04-29T02:03:28.441Z</time>
      </trkpt>
      <trkpt lat="47.0895" lon="5.49584">
        <ele>201.037037</ele>
        <time>2021-04-29T02:03:43.024Z</time>
      </trkpt>
      <trkpt lat="47.08955" lon="5.4959">
        <ele>201.015966</ele>
        <time>2021-04-29T02:03:45.199Z</time>
      </trkpt>
      <trkpt lat="47.08972" lon="5.49601">
        <ele>200.961419</ele>
        <time>2021-04-29T02:03:50.445Z</time>
      </trkpt>
      <trkpt lat="47.09025" lon="5.49638">
        <ele>201.189264</ele>
        <time>2021-04-29T02:04:07.283Z</time>
      </trkpt>
      <trkpt lat="47.09041" lon="5.49644">
        <ele>201.256962</ele>
        <time>2021-04-29T02:04:12.002Z</time>
      </trkpt>
      <trkpt lat="47.09072" lon="5.49664">
        <ele>201.399036</ele>
        <time>2021-04-29T02:04:21.960Z</time>
      </trkpt>
      <trkpt lat="47.09082" lon="5.49674">
        <ele>201.45122</ele>
        <time>2021-04-29T02:04:25.653Z</time>
      </trkpt>
      <trkpt lat="47.09105" lon="5.49695">
        <ele>201.564802</ele>
        <time>2021-04-29T02:04:33.900Z</time>
      </trkpt>
      <trkpt lat="47.09137" lon="5.49722">
        <ele>201.730213</ele>
        <time>2021-04-29T02:04:45.528Z</time>
      </trkpt>
      <trkpt lat="47.0918" lon="5.49759">
        <ele>202.106115</ele>
        <time>2021-04-29T02:05:01.766Z</time>
      </trkpt>
      <trkpt lat="47.09222" lon="5.49796">
        <ele>202.479528</ele>
        <time>2021-04-29T02:05:17.562Z</time>
      </trkpt>
      <trkpt lat="47.09253" lon="5.49822">
        <ele>202.750181</ele>
        <time>2021-04-29T02:05:28.534Z</time>
      </trkpt>
      <trkpt lat="47.09265" lon="5.49833">
        <ele>202.852941</ele>
        <time>2021-04-29T02:05:32.613Z</time>
      </trkpt>
      <trkpt lat="47.09271" lon="5.49838">
        <ele>202.908383</ele>
        <time>2021-04-29T02:05:34.842Z</time>
      </trkpt>
      <trkpt lat="47.09277" lon="5.49844">
        <ele>202.965923</ele>
        <time>2021-04-29T02:05:37.303Z</time>
      </trkpt>
      <trkpt lat="47.09315" lon="5.4991">
        <ele>203.14764</ele>
        <time>2021-04-29T02:05:55.543Z</time>
      </trkpt>
      <trkpt lat="47.09316" lon="5.49913">
        <ele>203.150442</ele>
        <time>2021-04-29T02:05:56.051Z</time>
      </trkpt>
      <trkpt lat="47.09318" lon="5.49912">
        <ele>203.1539</ele>
        <time>2021-04-29T02:05:56.667Z</time>
      </trkpt>
      <trkpt lat="47.09322" lon="5.49912">
        <ele>203.159708</ele>
        <time>2021-04-29T02:05:57.598Z</time>
      </trkpt>
      <trkpt lat="47.09324" lon="5.49913">
        <ele>203.163504</ele>
        <time>2021-04-29T02:05:58.376Z</time>
      </trkpt>
      <trkpt lat="47.09338" lon="5.49931">
        <ele>203.192421</ele>
        <time>2021-04-29T02:06:03.762Z</time>
      </trkpt>
      <trkpt lat="47.09341" lon="5.4994">
        <ele>203.20401</ele>
        <time>2021-04-29T02:06:05.866Z</time>
      </trkpt>
      <trkpt lat="47.09341" lon="5.49942">
        <ele>203.20634</ele>
        <time>2021-04-29T02:06:06.217Z</time>
      </trkpt>
      <trkpt lat="47.09338" lon="5.49978">
        <ele>203.246213</ele>
        <time>2021-04-29T02:06:13.239Z</time>
      </trkpt>
      <trkpt lat="47.09338" lon="5.49981">
        <ele>203.249577</ele>
        <time>2021-04-29T02:06:13.762Z</time>
      </trkpt>
      <trkpt lat="47.09336" lon="5.49985">
        <ele>203.25413</ele>
        <time>2021-04-29T02:06:14.522Z</time>
      </trkpt>
      <trkpt lat="47.09332" lon="5.49995">
        <ele>203.267779</ele>
        <time>2021-04-29T02:06:16.598Z</time>
      </trkpt>
      <trkpt lat="47.0933" lon="5.49995">
        <ele>203.270038</ele>
        <time>2021-04-29T02:06:16.883Z</time>
      </trkpt>
      <trkpt lat="47.09331" lon="5.4999">
        <ele>203.276048</ele>
        <time>2021-04-29T02:06:17.852Z</time>
      </trkpt>
      <trkpt lat="47.09332" lon="5.49986">
        <ele>203.28074</ele>
        <time>2021-04-29T02:06:18.774Z</time>
      </trkpt>
      <trkpt lat="47.09333" lon="5.49979">
        <ele>203.288454</ele>
        <time>2021-04-29T02:06:20.089Z</time>
      </trkpt>
      <trkpt lat="47.09333" lon="5.49976">
        <ele>203.291738</ele>
        <time>2021-04-29T02:06:20.602Z</time>
      </trkpt>
      <trkpt lat="47.09332" lon="5.49972">
        <ele>203.295378</ele>
        <time>2021-04-29T02:06:21.203Z</time>
      </trkpt>
      <trkpt lat="47.09332" lon="5.49969">
        <ele>203.299043</ele>
        <time>2021-04-29T02:06:21.931Z</time>
      </trkpt>
      <trkpt lat="47.09329" lon="5.49955">
        <ele>203.315358</ele>
        <time>2021-04-29T02:06:24.474Z</time>
      </trkpt>
      <trkpt lat="47.09332" lon="5.49938">
        <ele>203.334073</ele>
        <time>2021-04-29T02:06:27.204Z</time>
      </trkpt>
      <trkpt lat="47.09335" lon="5.49935">
        <ele>203.339965</ele>
        <time>2021-04-29T02:06:28.351Z</time>
      </trkpt>
      <trkpt lat="47.09357" lon="5.49911">
        <ele>203.403611</ele>
        <time>2021-04-29T02:06:35.683Z</time>
      </trkpt>
      <trkpt lat="47.09359" lon="5.49909">
        <ele>203.414654</ele>
        <time>2021-04-29T02:06:36.387Z</time>
      </trkpt>
      <trkpt lat="47.09375" lon="5.49948">
        <ele>203.519181</ele>
        <time>2021-04-29T02:06:45.063Z</time>
      </trkpt>
      <trkpt lat="47.09375" lon="5.49951">
        <ele>203.526559</ele>
        <time>2021-04-29T02:06:45.510Z</time>
      </trkpt>
      <trkpt lat="47.09376" lon="5.49957">
        <ele>203.541315</ele>
        <time>2021-04-29T02:06:46.662Z</time>
      </trkpt>
      <trkpt lat="47.09372" lon="5.50029">
        <ele>203.706143</ele>
        <time>2021-04-29T02:07:01.380Z</time>
      </trkpt>
      <trkpt lat="47.09372" lon="5.50045">
        <ele>203.744414</ele>
        <time>2021-04-29T02:07:04.919Z</time>
      </trkpt>
      <trkpt lat="47.09371" lon="5.50052">
        <ele>203.758838</ele>
        <time>2021-04-29T02:07:06.233Z</time>
      </trkpt>
      <trkpt lat="47.09369" lon="5.50087">
        <ele>203.840681</ele>
        <time>2021-04-29T02:07:13.384Z</time>
      </trkpt>
      <trkpt lat="47.09358" lon="5.503">
        <ele>204.230781</ele>
        <time>2021-04-29T02:07:54.331Z</time>
      </trkpt>
      <trkpt lat="47.09354" lon="5.503">
        <ele>204.24072</ele>
        <time>2021-04-29T02:07:55.542Z</time>
      </trkpt>
      <trkpt lat="47.09338" lon="5.50298">
        <ele>204.281564</ele>
        <time>2021-04-29T02:08:00.047Z</time>
      </trkpt>
      <trkpt lat="47.09332" lon="5.50299">
        <ele>204.295943</ele>
        <time>2021-04-29T02:08:01.871Z</time>
      </trkpt>
      <trkpt lat="47.09317" lon="5.50321">
        <ele>204.346139</ele>
        <time>2021-04-29T02:08:08.047Z</time>
      </trkpt>
      <trkpt lat="47.09304" lon="5.50387">
        <ele>204.484125</ele>
        <time>2021-04-29T02:08:21.319Z</time>
      </trkpt>
      <trkpt lat="47.09291" lon="5.50436">
        <ele>204.614724</ele>
        <time>2021-04-29T02:08:31.710Z</time>
      </trkpt>
      <trkpt lat="47.0931" lon="5.50445">
        <ele>204.686913</ele>
        <time>2021-04-29T02:08:37.590Z</time>
      </trkpt>
      <trkpt lat="47.09318" lon="5.50459">
        <ele>204.73224</ele>
        <time>2021-04-29T02:08:40.723Z</time>
      </trkpt>
      <trkpt lat="47.09321" lon="5.50479">
        <ele>204.783004</ele>
        <time>2021-04-29T02:08:44.836Z</time>
      </trkpt>
      <trkpt lat="47.09305" lon="5.50823">
        <ele>205.79278</ele>
        <time>2021-04-29T02:09:54.105Z</time>
      </trkpt>
      <trkpt lat="47.0931" lon="5.50863">
        <ele>205.851648</ele>
        <time>2021-04-29T02:10:01.631Z</time>
      </trkpt>
      <trkpt lat="47.09301" lon="5.50899">
        <ele>205.685666</ele>
        <time>2021-04-29T02:10:08.524Z</time>
      </trkpt>
      <trkpt lat="47.09296" lon="5.50957">
        <ele>205.435432</ele>
        <time>2021-04-29T02:10:18.621Z</time>
      </trkpt>
      <trkpt lat="47.09277" lon="5.51329">
        <ele>203.118961</ele>
        <time>2021-04-29T02:11:17.182Z</time>
      </trkpt>
      <trkpt lat="47.09282" lon="5.51462">
        <ele>202.278831</ele>
        <time>2021-04-29T02:11:37.720Z</time>
      </trkpt>
      <trkpt lat="47.09293" lon="5.5156">
        <ele>201.733738</ele>
        <time>2021-04-29T02:11:53.414Z</time>
      </trkpt>
      <trkpt lat="47.09512" lon="5.52644">
        <ele>200.801675</ele>
        <time>2021-04-29T02:15:16.810Z</time>
      </trkpt>
      <trkpt lat="47.09524" lon="5.52689">
        <ele>200.880189</ele>
        <time>2021-04-29T02:15:26.022Z</time>
      </trkpt>
      <trkpt lat="47.09526" lon="5.52688">
        <ele>200.887401</ele>
        <time>2021-04-29T02:15:26.764Z</time>
      </trkpt>
      <trkpt lat="47.09543" lon="5.52681">
        <ele>200.934455</ele>
        <time>2021-04-29T02:15:31.709Z</time>
      </trkpt>
      <trkpt lat="47.09546" lon="5.5268">
        <ele>200.944602</ele>
        <time>2021-04-29T02:15:32.770Z</time>
      </trkpt>
      <trkpt lat="47.09554" lon="5.52723">
        <ele>201.029067</ele>
        <time>2021-04-29T02:15:41.402Z</time>
      </trkpt>
      <trkpt lat="47.0956" lon="5.52752">
        <ele>201.087827</ele>
        <time>2021-04-29T02:15:47.479Z</time>
      </trkpt>
      <trkpt lat="47.09636" lon="5.53126">
        <ele>201.65945</ele>
        <time>2021-04-29T02:17:01.872Z</time>
      </trkpt>
      <trkpt lat="47.09635" lon="5.53164">
        <ele>201.594211</ele>
        <time>2021-04-29T02:17:08.521Z</time>
      </trkpt>
      <trkpt lat="47.09652" lon="5.53208">
        <ele>201.508604</ele>
        <time>2021-04-29T02:17:17.055Z</time>
      </trkpt>
      <trkpt lat="47.09702" lon="5.53446">
        <ele>201.317282</ele>
        <time>2021-04-29T02:17:59.995Z</time>
      </trkpt>
      <trkpt lat="47.09761" lon="5.53754">
        <ele>201.858647</ele>
        <time>2021-04-29T02:19:02.426Z</time>
      </trkpt>
      <trkpt lat="47.09762" lon="5.53759">
        <ele>201.872057</ele>
        <time>2021-04-29T02:19:03.400Z</time>
      </trkpt>
      <trkpt lat="47.09759" lon="5.53773">
        <ele>201.90887</ele>
        <time>2021-04-29T02:19:06.284Z</time>
      </trkpt>
      <trkpt lat="47.09765" lon="5.53803">
        <ele>201.988684</ele>
        <time>2021-04-29T02:19:12.534Z</time>
      </trkpt>
      <trkpt lat="47.09805" lon="5.5394">
        <ele>202.18466</ele>
        <time>2021-04-29T02:19:40.566Z</time>
      </trkpt>
      <trkpt lat="47.09884" lon="5.54113">
        <ele>202.212961</ele>
        <time>2021-04-29T02:20:18.285Z</time>
      </trkpt>
      <trkpt lat="47.09932" lon="5.54182">
        <ele>202.174611</ele>
        <time>2021-04-29T02:20:36.002Z</time>
      </trkpt>
      <trkpt lat="47.10002" lon="5.54252">
        <ele>202.126162</ele>
        <time>2021-04-29T02:20:58.453Z</time>
      </trkpt>
      <trkpt lat="47.10079" lon="5.54311">
        <ele>202.063593</ele>
        <time>2021-04-29T02:21:21.309Z</time>
      </trkpt>
      <trkpt lat="47.11317" lon="5.54803">
        <ele>201.180232</ele>
        <time>2021-04-29T02:26:59.118Z</time>
      </trkpt>
      <trkpt lat="47.11355" lon="5.54831">
        <ele>201.182237</ele>
        <time>2021-04-29T02:27:10.543Z</time>
      </trkpt>
      <trkpt lat="47.11404" lon="5.54894">
        <ele>201.243265</ele>
        <time>2021-04-29T02:27:28.215Z</time>
      </trkpt>
      <trkpt lat="47.12278" lon="5.56132">
        <ele>204.291148</ele>
        <time>2021-04-29T02:33:07.184Z</time>
      </trkpt>
      <trkpt lat="47.12343" lon="5.56224">
        <ele>204.800453</ele>
        <time>2021-04-29T02:33:33.799Z</time>
      </trkpt>
      <trkpt lat="47.12359" lon="5.56245">
        <ele>204.936931</ele>
        <time>2021-04-29T02:33:39.996Z</time>
      </trkpt>
      <trkpt lat="47.12378" lon="5.5626">
        <ele>205.07216</ele>
        <time>2021-04-29T02:33:46.244Z</time>
      </trkpt>
      <trkpt lat="47.12385" lon="5.56247">
        <ele>205.148261</ele>
        <time>2021-04-29T02:33:49.773Z</time>
      </trkpt>
      <trkpt lat="47.12389" lon="5.5624">
        <ele>205.186162</ele>
        <time>2021-04-29T02:33:51.601Z</time>
      </trkpt>
      <trkpt lat="47.12412" lon="5.56202">
        <ele>205.41058</ele>
        <time>2021-04-29T02:34:02.576Z</time>
      </trkpt>
      <trkpt lat="47.1242" lon="5.56202">
        <ele>205.45856</ele>
        <time>2021-04-29T02:34:05.003Z</time>
      </trkpt>
      <trkpt lat="47.12422" lon="5.56213">
        <ele>205.516221</ele>
        <time>2021-04-29T02:34:07.586Z</time>
      </trkpt>
      <trkpt lat="47.12459" lon="5.56282">
        <ele>206.189267</ele>
        <time>2021-04-29T02:34:26.390Z</time>
      </trkpt>
      <trkpt lat="47.12465" lon="5.56303">
        <ele>206.359934</ele>
        <time>2021-04-29T02:34:31.361Z</time>
      </trkpt>
      <trkpt lat="47.12464" lon="5.5631">
        <ele>206.415291</ele>
        <time>2021-04-29T02:34:32.915Z</time>
      </trkpt>
      <trkpt lat="47.12466" lon="5.56311">
        <ele>206.438423</ele>
        <time>2021-04-29T02:34:33.593Z</time>
      </trkpt>
      <trkpt lat="47.12473" lon="5.56315">
        <ele>206.514165</ele>
        <time>2021-04-29T02:34:35.737Z</time>
      </trkpt>
      <trkpt lat="47.12518" lon="5.56345">
        <ele>207.073832</ele>
        <time>2021-04-29T02:34:52.028Z</time>
      </trkpt>
      <trkpt lat="47.12587" lon="5.56426">
        <ele>207.782013</ele>
        <time>2021-04-29T02:35:21.270Z</time>
      </trkpt>
      <trkpt lat="47.12669" lon="5.56488">
        <ele>208.284187</ele>
        <time>2021-04-29T02:35:49.104Z</time>
      </trkpt>
      <trkpt lat="47.12733" lon="5.56568">
        <ele>208.089049</ele>
        <time>2021-04-29T02:36:09.828Z</time>
      </trkpt>
      <trkpt lat="47.12743" lon="5.56585">
        <ele>207.952165</ele>
        <time>2021-04-29T02:36:13.473Z</time>
      </trkpt>
      <trkpt lat="47.12746" lon="5.56589">
        <ele>207.91769</ele>
        <time>2021-04-29T02:36:14.207Z</time>
      </trkpt>
      <trkpt lat="47.12751" lon="5.56601">
        <ele>207.82497</ele>
        <time>2021-04-29T02:36:16.829Z</time>
      </trkpt>
      <trkpt lat="47.12762" lon="5.56621">
        <ele>207.672014</ele>
        <time>2021-04-29T02:36:20.650Z</time>
      </trkpt>
      <trkpt lat="47.1277" lon="5.56636">
        <ele>207.552947</ele>
        <time>2021-04-29T02:36:23.587Z</time>
      </trkpt>
      <trkpt lat="47.12773" lon="5.56644">
        <ele>207.495044</ele>
        <time>2021-04-29T02:36:25.152Z</time>
      </trkpt>
      <trkpt lat="47.12775" lon="5.56646">
        <ele>207.474041</ele>
        <time>2021-04-29T02:36:25.665Z</time>
      </trkpt>
      <trkpt lat="47.12786" lon="5.5667">
        <ele>207.293723</ele>
        <time>2021-04-29T02:36:30.192Z</time>
      </trkpt>
      <trkpt lat="47.12796" lon="5.56686">
        <ele>207.165053</ele>
        <time>2021-04-29T02:36:33.358Z</time>
      </trkpt>
      <trkpt lat="47.128" lon="5.56692">
        <ele>207.112114</ele>
        <time>2021-04-29T02:36:34.621Z</time>
      </trkpt>
      <trkpt lat="47.12862" lon="5.56767">
        <ele>206.771104</ele>
        <time>2021-04-29T02:36:52.807Z</time>
      </trkpt>
      <trkpt lat="47.12892" lon="5.56813">
        <ele>206.69758</ele>
        <time>2021-04-29T02:37:03.929Z</time>
      </trkpt>
      <trkpt lat="47.12984" lon="5.56981">
        <ele>206.807316</ele>
        <time>2021-04-29T02:37:47.183Z</time>
      </trkpt>
      <trkpt lat="47.13033" lon="5.57097">
        <ele>207.178792</ele>
        <time>2021-04-29T02:38:14.430Z</time>
      </trkpt>
      <trkpt lat="47.13083" lon="5.57161">
        <ele>207.037665</ele>
        <time>2021-04-29T02:38:31.930Z</time>
      </trkpt>
      <trkpt lat="47.13107" lon="5.57204">
        <ele>206.830033</ele>
        <time>2021-04-29T02:38:41.380Z</time>
      </trkpt>
      <trkpt lat="47.13191" lon="5.57427">
        <ele>206.07448</ele>
        <time>2021-04-29T02:39:22.059Z</time>
      </trkpt>
      <trkpt lat="47.13212" lon="5.57468">
        <ele>205.974399</ele>
        <time>2021-04-29T02:39:30.777Z</time>
      </trkpt>
      <trkpt lat="47.13219" lon="5.57482">
        <ele>205.93985</ele>
        <time>2021-04-29T02:39:34.339Z</time>
      </trkpt>
      <trkpt lat="47.13223" lon="5.5749">
        <ele>205.919303</ele>
        <time>2021-04-29T02:39:36.367Z</time>
      </trkpt>
      <trkpt lat="47.13283" lon="5.57586">
        <ele>205.964343</ele>
        <time>2021-04-29T02:40:00.780Z</time>
      </trkpt>
      <trkpt lat="47.13366" lon="5.57676">
        <ele>206.526766</ele>
        <time>2021-04-29T02:40:32.971Z</time>
      </trkpt>
      <trkpt lat="47.13388" lon="5.57712">
        <ele>206.703712</ele>
        <time>2021-04-29T02:40:42.172Z</time>
      </trkpt>
      <trkpt lat="47.13409" lon="5.57768">
        <ele>206.72924</ele>
        <time>2021-04-29T02:40:54.340Z</time>
      </trkpt>
      <trkpt lat="47.13424" lon="5.57833">
        <ele>206.708056</ele>
        <time>2021-04-29T02:41:06.634Z</time>
      </trkpt>
      <trkpt lat="47.13424" lon="5.57846">
        <ele>206.70386</ele>
        <time>2021-04-29T02:41:08.919Z</time>
      </trkpt>
      <trkpt lat="47.13425" lon="5.57869">
        <ele>206.696564</ele>
        <time>2021-04-29T02:41:13.098Z</time>
      </trkpt>
      <trkpt lat="47.13425" lon="5.57874">
        <ele>206.69497</ele>
        <time>2021-04-29T02:41:13.944Z</time>
      </trkpt>
      <trkpt lat="47.13424" lon="5.57918">
        <ele>206.681423</ele>
        <time>2021-04-29T02:41:21.533Z</time>
      </trkpt>
      <trkpt lat="47.13423" lon="5.57945">
        <ele>206.672913</ele>
        <time>2021-04-29T02:41:26.307Z</time>
      </trkpt>
      <trkpt lat="47.13423" lon="5.57948">
        <ele>206.671912</ele>
        <time>2021-04-29T02:41:26.838Z</time>
      </trkpt>
      <trkpt lat="47.13417" lon="5.58015">
        <ele>206.62849</ele>
        <time>2021-04-29T02:41:38.564Z</time>
      </trkpt>
      <trkpt lat="47.13402" lon="5.5813">
        <ele>206.526638</ele>
        <time>2021-04-29T02:41:59.113Z</time>
      </trkpt>
      <trkpt lat="47.13359" lon="5.58474">
        <ele>206.379216</ele>
        <time>2021-04-29T02:43:03.059Z</time>
      </trkpt>
      <trkpt lat="47.1334" lon="5.58623">
        <ele>206.079124</ele>
        <time>2021-04-29T02:43:29.171Z</time>
      </trkpt>
      <trkpt lat="47.13328" lon="5.58712">
        <ele>205.872596</ele>
        <time>2021-04-29T02:43:44.360Z</time>
      </trkpt>
      <trkpt lat="47.13324" lon="5.58754">
        <ele>205.774861</ele>
        <time>2021-04-29T02:43:51.720Z</time>
      </trkpt>
      <trkpt lat="47.13333" lon="5.58824">
        <ele>205.765963</ele>
        <time>2021-04-29T02:44:04.542Z</time>
      </trkpt>
      <trkpt lat="47.13342" lon="5.58849">
        <ele>205.763955</ele>
        <time>2021-04-29T02:44:09.383Z</time>
      </trkpt>
      <trkpt lat="47.1335" lon="5.58867">
        <ele>205.762437</ele>
        <time>2021-04-29T02:44:13.332Z</time>
      </trkpt>
      <trkpt lat="47.13362" lon="5.58896">
        <ele>205.759932</ele>
        <time>2021-04-29T02:44:19.524Z</time>
      </trkpt>
      <trkpt lat="47.13398" lon="5.58979">
        <ele>205.752904</ele>
        <time>2021-04-29T02:44:37.673Z</time>
      </trkpt>
      <trkpt lat="47.13545" lon="5.59325">
        <ele>206.57863</ele>
        <time>2021-04-29T02:45:55.873Z</time>
      </trkpt>
      <trkpt lat="47.13553" lon="5.59321">
        <ele>206.61119</ele>
        <time>2021-04-29T02:45:58.691Z</time>
      </trkpt>
      <trkpt lat="47.13559" lon="5.59345">
        <ele>206.676485</ele>
        <time>2021-04-29T02:46:03.663Z</time>
      </trkpt>
      <trkpt lat="47.13581" lon="5.59424">
        <ele>206.893796</ele>
        <time>2021-04-29T02:46:20.651Z</time>
      </trkpt>
      <trkpt lat="47.13592" lon="5.59448">
        <ele>206.97343</ele>
        <time>2021-04-29T02:46:26.451Z</time>
      </trkpt>
      <trkpt lat="47.13807" lon="5.59823">
        <ele>208.210682</ele>
        <time>2021-04-29T02:48:01.805Z</time>
      </trkpt>
      <trkpt lat="47.13893" lon="5.60017">
        <ele>208.26071</ele>
        <time>2021-04-29T02:48:44.129Z</time>
      </trkpt>
      <trkpt lat="47.13936" lon="5.60145">
        <ele>208.083963</ele>
        <time>2021-04-29T02:49:09.107Z</time>
      </trkpt>
      <trkpt lat="47.13974" lon="5.60273">
        <ele>207.809248</ele>
        <time>2021-04-29T02:49:33.715Z</time>
      </trkpt>
      <trkpt lat="47.1401" lon="5.60401">
        <ele>207.401598</ele>
        <time>2021-04-29T02:49:56.789Z</time>
      </trkpt>
      <trkpt lat="47.14015" lon="5.60421">
        <ele>207.333228</ele>
        <time>2021-04-29T02:50:00.380Z</time>
      </trkpt>
      <trkpt lat="47.14016" lon="5.6047">
        <ele>207.172433</ele>
        <time>2021-04-29T02:50:08.686Z</time>
      </trkpt>
      <trkpt lat="47.14017" lon="5.60484">
        <ele>207.128912</ele>
        <time>2021-04-29T02:50:10.796Z</time>
      </trkpt>
      <trkpt lat="47.14018" lon="5.60497">
        <ele>207.086213</ele>
        <time>2021-04-29T02:50:13.009Z</time>
      </trkpt>
      <trkpt lat="47.1402" lon="5.6051">
        <ele>207.041692</ele>
        <time>2021-04-29T02:50:15.392Z</time>
      </trkpt>
      <trkpt lat="47.14021" lon="5.60517">
        <ele>207.016781</ele>
        <time>2021-04-29T02:50:16.743Z</time>
      </trkpt>
      <trkpt lat="47.14026" lon="5.60548">
        <ele>206.91504</ele>
        <time>2021-04-29T02:50:21.826Z</time>
      </trkpt>
      <trkpt lat="47.14028" lon="5.6058">
        <ele>206.817553</ele>
        <time>2021-04-29T02:50:27.363Z</time>
      </trkpt>
      <trkpt lat="47.14073" lon="5.60822">
        <ele>206.135488</ele>
        <time>2021-04-29T02:51:09.592Z</time>
      </trkpt>
      <trkpt lat="47.14386" lon="5.62717">
        <ele>206.943733</ele>
        <time>2021-04-29T02:57:09.019Z</time>
      </trkpt>
      <trkpt lat="47.14387" lon="5.62723">
        <ele>206.949211</ele>
        <time>2021-04-29T02:57:10.168Z</time>
      </trkpt>
      <trkpt lat="47.14363" lon="5.62731">
        <ele>206.980404</ele>
        <time>2021-04-29T02:57:16.829Z</time>
      </trkpt>
      <trkpt lat="47.14361" lon="5.62737">
        <ele>206.986658</ele>
        <time>2021-04-29T02:57:18.158Z</time>
      </trkpt>
      <trkpt lat="47.14359" lon="5.62742">
        <ele>206.992023</ele>
        <time>2021-04-29T02:57:19.279Z</time>
      </trkpt>
      <trkpt lat="47.14366" lon="5.6279">
        <ele>207.035384</ele>
        <time>2021-04-29T02:57:28.578Z</time>
      </trkpt>
      <trkpt lat="47.1437" lon="5.62802">
        <ele>207.046311</ele>
        <time>2021-04-29T02:57:30.922Z</time>
      </trkpt>
      <trkpt lat="47.14377" lon="5.62832">
        <ele>207.074549</ele>
        <time>2021-04-29T02:57:38.867Z</time>
      </trkpt>
      <trkpt lat="47.14596" lon="5.6417">
        <ele>208.584871</ele>
        <time>2021-04-29T03:03:16.196Z</time>
      </trkpt>
      <trkpt lat="47.14595" lon="5.64198">
        <ele>208.563371</ele>
        <time>2021-04-29T03:03:22.795Z</time>
      </trkpt>
      <trkpt lat="47.14609" lon="5.64254">
        <ele>208.517955</ele>
        <time>2021-04-29T03:03:36.679Z</time>
      </trkpt>
      <trkpt lat="47.14645" lon="5.6446">
        <ele>208.339758</ele>
        <time>2021-04-29T03:04:26.459Z</time>
      </trkpt>
      <trkpt lat="47.14661" lon="5.64576">
        <ele>208.226854</ele>
        <time>2021-04-29T03:04:54.184Z</time>
      </trkpt>
      <trkpt lat="47.14689" lon="5.64921">
        <ele>208.037445</ele>
        <time>2021-04-29T03:06:16.449Z</time>
      </trkpt>
      <trkpt lat="47.14686" lon="5.65185">
        <ele>208.096968</ele>
        <time>2021-04-29T03:07:20.080Z</time>
      </trkpt>
      <trkpt lat="47.14676" lon="5.6523">
        <ele>208.1316</ele>
        <time>2021-04-29T03:07:31.648Z</time>
      </trkpt>
      <trkpt lat="47.14643" lon="5.65293">
        <ele>208.188472</ele>
        <time>2021-04-29T03:07:50.573Z</time>
      </trkpt>
      <trkpt lat="47.14626" lon="5.65348">
        <ele>208.232587</ele>
        <time>2021-04-29T03:08:05.217Z</time>
      </trkpt>
      <trkpt lat="47.14604" lon="5.65512">
        <ele>209.267174</ele>
        <time>2021-04-29T03:08:47.202Z</time>
      </trkpt>
      <trkpt lat="47.14608" lon="5.65537">
        <ele>209.50466</ele>
        <time>2021-04-29T03:08:54.623Z</time>
      </trkpt>
      <trkpt lat="47.14599" lon="5.65619">
        <ele>210.272226</ele>
        <time>2021-04-29T03:09:19.909Z</time>
      </trkpt>
      <trkpt lat="47.14602" lon="5.6562">
        <ele>210.312806</ele>
        <time>2021-04-29T03:09:21.085Z</time>
      </trkpt>
      <trkpt lat="47.14615" lon="5.65622">
        <ele>210.493317</ele>
        <time>2021-04-29T03:09:26.013Z</time>
      </trkpt>
      <trkpt lat="47.14625" lon="5.65624">
        <ele>210.621541</ele>
        <time>2021-04-29T03:09:29.270Z</time>
      </trkpt>
      <trkpt lat="47.14633" lon="5.65628">
        <ele>210.783303</ele>
        <time>2021-04-29T03:09:32.632Z</time>
      </trkpt>
      <trkpt lat="47.14632" lon="5.65631">
        <ele>210.849832</ele>
        <time>2021-04-29T03:09:33.513Z</time>
      </trkpt>
      <trkpt lat="47.14633" lon="5.65635">
        <ele>210.91739</ele>
        <time>2021-04-29T03:09:34.424Z</time>
      </trkpt>
      <trkpt lat="47.14634" lon="5.65638">
        <ele>210.983523</ele>
        <time>2021-04-29T03:09:35.387Z</time>
      </trkpt>
      <trkpt lat="47.14642" lon="5.6564">
        <ele>211.231312</ele>
        <time>2021-04-29T03:09:38.377Z</time>
      </trkpt>
      <trkpt lat="47.14644" lon="5.65638">
        <ele>211.297599</ele>
        <time>2021-04-29T03:09:39.293Z</time>
      </trkpt>
      <trkpt lat="47.14652" lon="5.65671">
        <ele>211.994824</ele>
        <time>2021-04-29T03:09:48.996Z</time>
      </trkpt>
      <trkpt lat="47.14653" lon="5.6568">
        <ele>212.183449</ele>
        <time>2021-04-29T03:09:51.510Z</time>
      </trkpt>
      <trkpt lat="47.14656" lon="5.65703">
        <ele>212.652841</ele>
        <time>2021-04-29T03:09:57.887Z</time>
      </trkpt>
      <trkpt lat="47.14657" lon="5.65722">
        <ele>213.029835</ele>
        <time>2021-04-29T03:10:03.727Z</time>
      </trkpt>
      <trkpt lat="47.1466" lon="5.65853">
        <ele>215.643225</ele>
        <time>2021-04-29T03:10:41.361Z</time>
      </trkpt>
      <trkpt lat="47.14663" lon="5.65879">
        <ele>216.146262</ele>
        <time>2021-04-29T03:10:49.612Z</time>
      </trkpt>
      <trkpt lat="47.14665" lon="5.65906">
        <ele>216.618723</ele>
        <time>2021-04-29T03:10:56.509Z</time>
      </trkpt>
      <trkpt lat="47.14665" lon="5.65911">
        <ele>216.701662</ele>
        <time>2021-04-29T03:10:57.868Z</time>
      </trkpt>
      <trkpt lat="47.14664" lon="5.65916">
        <ele>216.78603</ele>
        <time>2021-04-29T03:10:59.670Z</time>
      </trkpt>
      <trkpt lat="47.14652" lon="5.65986">
        <ele>218.03234</ele>
        <time>2021-04-29T03:11:18.741Z</time>
      </trkpt>
      <trkpt lat="47.14647" lon="5.66055">
        <ele>219.233502</ele>
        <time>2021-04-29T03:11:37.310Z</time>
      </trkpt>
      <trkpt lat="47.1465" lon="5.66081">
        <ele>219.694795</ele>
        <time>2021-04-29T03:11:44.725Z</time>
      </trkpt>
      <trkpt lat="47.14637" lon="5.66183">
        <ele>220.829065</ele>
        <time>2021-04-29T03:12:11.768Z</time>
      </trkpt>
      <trkpt lat="47.14638" lon="5.66187">
        <ele>220.848658</ele>
        <time>2021-04-29T03:12:12.597Z</time>
      </trkpt>
      <trkpt lat="47.14641" lon="5.6619">
        <ele>220.876137</ele>
        <time>2021-04-29T03:12:14.028Z</time>
      </trkpt>
      <trkpt lat="47.14648" lon="5.66192">
        <ele>220.930461</ele>
        <time>2021-04-29T03:12:17.639Z</time>
      </trkpt>
      <trkpt lat="47.14638" lon="5.66245">
        <ele>221.210801</ele>
        <time>2021-04-29T03:12:30.632Z</time>
      </trkpt>
      <trkpt lat="47.14649" lon="5.66316">
        <ele>221.58925</ele>
        <time>2021-04-29T03:12:44.859Z</time>
      </trkpt>
      <trkpt lat="47.14663" lon="5.6633">
        <ele>221.718452</ele>
        <time>2021-04-29T03:12:49.157Z</time>
      </trkpt>
      <trkpt lat="47.14667" lon="5.66333">
        <ele>221.747196</ele>
        <time>2021-04-29T03:12:51.078Z</time>
      </trkpt>
      <trkpt lat="47.14618" lon="5.66451">
        <ele>220.16688</ele>
        <time>2021-04-29T03:13:11.588Z</time>
      </trkpt>
      <trkpt lat="47.14606" lon="5.66478">
        <ele>219.641857</ele>
        <time>2021-04-29T03:13:16.057Z</time>
      </trkpt>
      <trkpt lat="47.14579" lon="5.66542">
        <ele>218.396271</ele>
        <time>2021-04-29T03:13:26.163Z</time>
      </trkpt>
      <trkpt lat="47.14562" lon="5.66583">
        <ele>217.604892</ele>
        <time>2021-04-29T03:13:32.410Z</time>
      </trkpt>
      <trkpt lat="47.14556" lon="5.66598">
        <ele>217.308363</ele>
        <time>2021-04-29T03:13:34.619Z</time>
      </trkpt>
      <trkpt lat="47.14542" lon="5.66637">
        <ele>216.556046</ele>
        <time>2021-04-29T03:13:40.338Z</time>
      </trkpt>
      <trkpt lat="47.14529" lon="5.66674">
        <ele>215.837066</ele>
        <time>2021-04-29T03:13:45.900Z</time>
      </trkpt>
      <trkpt lat="47.14517" lon="5.6671">
        <ele>215.148061</ele>
        <time>2021-04-29T03:13:51.351Z</time>
      </trkpt>
      <trkpt lat="47.14499" lon="5.66768">
        <ele>214.056244</ele>
        <time>2021-04-29T03:14:00.383Z</time>
      </trkpt>
      <trkpt lat="47.14484" lon="5.66826">
        <ele>213.005091</ele>
        <time>2021-04-29T03:14:09.476Z</time>
      </trkpt>
      <trkpt lat="47.14378" lon="5.67321">
        <ele>211.049647</ele>
        <time>2021-04-29T03:15:36.749Z</time>
      </trkpt>
      <trkpt lat="47.14342" lon="5.67464">
        <ele>211.065167</ele>
        <time>2021-04-29T03:16:04.952Z</time>
      </trkpt>
      <trkpt lat="47.14314" lon="5.6755">
        <ele>211.091879</ele>
        <time>2021-04-29T03:16:22.665Z</time>
      </trkpt>
      <trkpt lat="47.14313" lon="5.67579">
        <ele>211.097346</ele>
        <time>2021-04-29T03:16:31.863Z</time>
      </trkpt>
      <trkpt lat="47.14238" lon="5.67847">
        <ele>210.939031</ele>
        <time>2021-04-29T03:17:58.336Z</time>
      </trkpt>
      <trkpt lat="47.14228" lon="5.67891">
        <ele>210.970775</ele>
        <time>2021-04-29T03:18:12.068Z</time>
      </trkpt>
      <trkpt lat="47.14225" lon="5.67957">
        <ele>211.015921</ele>
        <time>2021-04-29T03:18:31.943Z</time>
      </trkpt>
      <trkpt lat="47.14227" lon="5.67976">
        <ele>211.029036</ele>
        <time>2021-04-29T03:18:37.909Z</time>
      </trkpt>
      <trkpt lat="47.14223" lon="5.67976">
        <ele>211.033249</ele>
        <time>2021-04-29T03:18:38.982Z</time>
      </trkpt>
      <trkpt lat="47.14221" lon="5.67976">
        <ele>211.034976</ele>
        <time>2021-04-29T03:18:39.382Z</time>
      </trkpt>
      <trkpt lat="47.14218" lon="5.67984">
        <ele>211.041307</ele>
        <time>2021-04-29T03:18:41.033Z</time>
      </trkpt>
      <trkpt lat="47.14217" lon="5.6799">
        <ele>211.045183</ele>
        <time>2021-04-29T03:18:42.084Z</time>
      </trkpt>
      <trkpt lat="47.14216" lon="5.67997">
        <ele>211.050445</ele>
        <time>2021-04-29T03:18:43.508Z</time>
      </trkpt>
      <trkpt lat="47.14219" lon="5.68015">
        <ele>211.062691</ele>
        <time>2021-04-29T03:18:47.077Z</time>
      </trkpt>
      <trkpt lat="47.14222" lon="5.68032">
        <ele>211.075388</ele>
        <time>2021-04-29T03:18:50.384Z</time>
      </trkpt>
      <trkpt lat="47.14226" lon="5.68049">
        <ele>211.087144</ele>
        <time>2021-04-29T03:18:54.133Z</time>
      </trkpt>
      <trkpt lat="47.1423" lon="5.68065">
        <ele>211.098892</ele>
        <time>2021-04-29T03:18:57.645Z</time>
      </trkpt>
      <trkpt lat="47.14264" lon="5.68153">
        <ele>211.6614</ele>
        <time>2021-04-29T03:19:18.345Z</time>
      </trkpt>
      <trkpt lat="47.14298" lon="5.68207">
        <ele>212.078577</ele>
        <time>2021-04-29T03:19:34.180Z</time>
      </trkpt>
      <trkpt lat="47.14309" lon="5.68219">
        <ele>212.195023</ele>
        <time>2021-04-29T03:19:38.992Z</time>
      </trkpt>
      <trkpt lat="47.14403" lon="5.68341">
        <ele>212.626176</ele>
        <time>2021-04-29T03:20:16.734Z</time>
      </trkpt>
      <trkpt lat="47.1456" lon="5.6855">
        <ele>211.972483</ele>
        <time>2021-04-29T03:21:09.156Z</time>
      </trkpt>
      <trkpt lat="47.14589" lon="5.68596">
        <ele>211.699985</ele>
        <time>2021-04-29T03:21:19.183Z</time>
      </trkpt>
      <trkpt lat="47.14632" lon="5.68687">
        <ele>211.176349</ele>
        <time>2021-04-29T03:21:36.935Z</time>
      </trkpt>
      <trkpt lat="47.14682" lon="5.68824">
        <ele>210.408449</ele>
        <time>2021-04-29T03:22:02.194Z</time>
      </trkpt>
      <trkpt lat="47.14709" lon="5.68941">
        <ele>210.046292</ele>
        <time>2021-04-29T03:22:23.137Z</time>
      </trkpt>
      <trkpt lat="47.1482" lon="5.69543">
        <ele>208.976122</ele>
        <time>2021-04-29T03:24:12.104Z</time>
      </trkpt>
      <trkpt lat="47.149" lon="5.69806">
        <ele>208.969941</ele>
        <time>2021-04-29T03:25:04.344Z</time>
      </trkpt>
      <trkpt lat="47.14946" lon="5.69941">
        <ele>209.410356</ele>
        <time>2021-04-29T03:25:33.235Z</time>
      </trkpt>
      <trkpt lat="47.14974" lon="5.70025">
        <ele>209.849568</ele>
        <time>2021-04-29T03:25:52.554Z</time>
      </trkpt>
      <trkpt lat="47.15001" lon="5.70097">
        <ele>210.230501</ele>
        <time>2021-04-29T03:26:10.235Z</time>
      </trkpt>
      <trkpt lat="47.15017" lon="5.70145">
        <ele>210.648046</ele>
        <time>2021-04-29T03:26:21.856Z</time>
      </trkpt>
      <trkpt lat="47.15043" lon="5.7022">
        <ele>211.308273</ele>
        <time>2021-04-29T03:26:40.634Z</time>
      </trkpt>
      <trkpt lat="47.15048" lon="5.70237">
        <ele>211.454161</ele>
        <time>2021-04-29T03:26:44.890Z</time>
      </trkpt>
      <trkpt lat="47.15051" lon="5.70251">
        <ele>211.570091</ele>
        <time>2021-04-29T03:26:48.439Z</time>
      </trkpt>
      <trkpt lat="47.15054" lon="5.70266">
        <ele>211.688519</ele>
        <time>2021-04-29T03:26:51.895Z</time>
      </trkpt>
      <trkpt lat="47.15044" lon="5.70272">
        <ele>211.814503</ele>
        <time>2021-04-29T03:26:56.991Z</time>
      </trkpt>
      <trkpt lat="47.1505" lon="5.70288">
        <ele>211.960939</ele>
        <time>2021-04-29T03:27:01.526Z</time>
      </trkpt>
      <trkpt lat="47.1507" lon="5.70648">
        <ele>213.90861</ele>
        <time>2021-04-29T03:28:17.334Z</time>
      </trkpt>
      <trkpt lat="47.15104" lon="5.70861">
        <ele>214.210873</ele>
        <time>2021-04-29T03:28:57.737Z</time>
      </trkpt>
      <trkpt lat="47.15103" lon="5.70918">
        <ele>214.089678</ele>
        <time>2021-04-29T03:29:07.665Z</time>
      </trkpt>
      <trkpt lat="47.151" lon="5.70944">
        <ele>214.033358</ele>
        <time>2021-04-29T03:29:12.060Z</time>
      </trkpt>
      <trkpt lat="47.15099" lon="5.70952">
        <ele>214.015113</ele>
        <time>2021-04-29T03:29:13.549Z</time>
      </trkpt>
      <trkpt lat="47.15095" lon="5.70981">
        <ele>213.952021</ele>
        <time>2021-04-29T03:29:18.763Z</time>
      </trkpt>
      <trkpt lat="47.15086" lon="5.71042">
        <ele>213.820349</ele>
        <time>2021-04-29T03:29:29.303Z</time>
      </trkpt>
      <trkpt lat="47.15082" lon="5.7107">
        <ele>213.758709</ele>
        <time>2021-04-29T03:29:34.397Z</time>
      </trkpt>
      <trkpt lat="47.15072" lon="5.71138">
        <ele>213.562132</ele>
        <time>2021-04-29T03:29:46.027Z</time>
      </trkpt>
      <trkpt lat="47.15051" lon="5.71272">
        <ele>212.993458</ele>
        <time>2021-04-29T03:30:08.802Z</time>
      </trkpt>
      <trkpt lat="47.15037" lon="5.7132">
        <ele>212.777982</ele>
        <time>2021-04-29T03:30:17.408Z</time>
      </trkpt>
      <trkpt lat="47.1503" lon="5.7134">
        <ele>212.685425</ele>
        <time>2021-04-29T03:30:21.218Z</time>
      </trkpt>
      <trkpt lat="47.15025" lon="5.7135">
        <ele>212.633741</ele>
        <time>2021-04-29T03:30:23.069Z</time>
      </trkpt>
      <trkpt lat="47.14981" lon="5.71422">
        <ele>212.388367</ele>
        <time>2021-04-29T03:30:39.258Z</time>
      </trkpt>
      <trkpt lat="47.14963" lon="5.71486">
        <ele>212.234819</ele>
        <time>2021-04-29T03:30:50.766Z</time>
      </trkpt>
      <trkpt lat="47.14957" lon="5.71565">
        <ele>212.060479</ele>
        <time>2021-04-29T03:31:04.329Z</time>
      </trkpt>
      <trkpt lat="47.14861" lon="5.72231">
        <ele>213.868209</ele>
        <time>2021-04-29T03:33:16.921Z</time>
      </trkpt>
      <trkpt lat="47.14849" lon="5.72277">
        <ele>214.11092</ele>
        <time>2021-04-29T03:33:26.879Z</time>
      </trkpt>
      <trkpt lat="47.14851" lon="5.72313">
        <ele>214.286193</ele>
        <time>2021-04-29T03:33:34.452Z</time>
      </trkpt>
      <trkpt lat="47.14843" lon="5.72386">
        <ele>214.655643</ele>
        <time>2021-04-29T03:33:51.352Z</time>
      </trkpt>
      <trkpt lat="47.14832" lon="5.72429">
        <ele>214.901238</ele>
        <time>2021-04-29T03:34:01.826Z</time>
      </trkpt>
      <trkpt lat="47.14827" lon="5.72533">
        <ele>215.450831</ele>
        <time>2021-04-29T03:34:25.305Z</time>
      </trkpt>
      <trkpt lat="47.14832" lon="5.72587">
        <ele>215.738444</ele>
        <time>2021-04-29T03:34:36.949Z</time>
      </trkpt>
      <trkpt lat="47.14821" lon="5.72646">
        <ele>215.885921</ele>
        <time>2021-04-29T03:34:48.817Z</time>
      </trkpt>
      <trkpt lat="47.14823" lon="5.72764">
        <ele>215.068388</ele>
        <time>2021-04-29T03:35:08.993Z</time>
      </trkpt>
      <trkpt lat="47.1483" lon="5.72828">
        <ele>214.623912</ele>
        <time>2021-04-29T03:35:19.000Z</time>
      </trkpt>
      <trkpt lat="47.14835" lon="5.72859">
        <ele>214.402741</ele>
        <time>2021-04-29T03:35:23.887Z</time>
      </trkpt>
      <trkpt lat="47.1484" lon="5.72884">
        <ele>214.2223</ele>
        <time>2021-04-29T03:35:27.855Z</time>
      </trkpt>
      <trkpt lat="47.14868" lon="5.72966">
        <ele>213.688348</ele>
        <time>2021-04-29T03:35:42.201Z</time>
      </trkpt>
      <trkpt lat="47.14977" lon="5.73153">
        <ele>212.741112</ele>
        <time>2021-04-29T03:36:25.363Z</time>
      </trkpt>
      <trkpt lat="47.15036" lon="5.73318">
        <ele>212.973989</ele>
        <time>2021-04-29T03:37:03.321Z</time>
      </trkpt>
      <trkpt lat="47.15154" lon="5.73703">
        <ele>214.332338</ele>
        <time>2021-04-29T03:38:31.472Z</time>
      </trkpt>
      <trkpt lat="47.15163" lon="5.7375">
        <ele>214.436575</ele>
        <time>2021-04-29T03:38:40.871Z</time>
      </trkpt>
      <trkpt lat="47.15162" lon="5.73791">
        <ele>214.525867</ele>
        <time>2021-04-29T03:38:48.659Z</time>
      </trkpt>
      <trkpt lat="47.15155" lon="5.73883">
        <ele>214.537574</ele>
        <time>2021-04-29T03:39:06.108Z</time>
      </trkpt>
      <trkpt lat="47.15156" lon="5.7392">
        <ele>214.505041</ele>
        <time>2021-04-29T03:39:12.907Z</time>
      </trkpt>
      <trkpt lat="47.15166" lon="5.73987">
        <ele>214.444244</ele>
        <time>2021-04-29T03:39:25.306Z</time>
      </trkpt>
      <trkpt lat="47.15176" lon="5.74024">
        <ele>214.409264</ele>
        <time>2021-04-29T03:39:32.427Z</time>
      </trkpt>
      <trkpt lat="47.15186" lon="5.7404">
        <ele>214.390102</ele>
        <time>2021-04-29T03:39:36.366Z</time>
      </trkpt>
      <trkpt lat="47.15374" lon="5.74679">
        <ele>214.777367</ele>
        <time>2021-04-29T03:41:50.142Z</time>
      </trkpt>
      <trkpt lat="47.1539" lon="5.74717">
        <ele>214.828875</ele>
        <time>2021-04-29T03:41:58.868Z</time>
      </trkpt>
      <trkpt lat="47.15399" lon="5.74763">
        <ele>214.885219</ele>
        <time>2021-04-29T03:42:08.398Z</time>
      </trkpt>
      <trkpt lat="47.15766" lon="5.76017">
        <ele>217.929571</ele>
        <time>2021-04-29T03:46:43.249Z</time>
      </trkpt>
      <trkpt lat="47.15997" lon="5.76793">
        <ele>213.862993</ele>
        <time>2021-04-29T03:49:00.262Z</time>
      </trkpt>
      <trkpt lat="47.16072" lon="5.76889">
        <ele>213.639942</ele>
        <time>2021-04-29T03:49:25.947Z</time>
      </trkpt>
      <trkpt lat="47.16084" lon="5.7691">
        <ele>213.598135</ele>
        <time>2021-04-29T03:49:30.983Z</time>
      </trkpt>
      <trkpt lat="47.16162" lon="5.77251">
        <ele>214.17586</ele>
        <time>2021-04-29T03:50:40.425Z</time>
      </trkpt>
      <trkpt lat="47.16303" lon="5.77691">
        <ele>214.428579</ele>
        <time>2021-04-29T03:52:09.816Z</time>
      </trkpt>
      <trkpt lat="47.16387" lon="5.77851">
        <ele>214.574341</ele>
        <time>2021-04-29T03:52:47.064Z</time>
      </trkpt>
      <trkpt lat="47.16539" lon="5.78026">
        <ele>214.657526</ele>
        <time>2021-04-29T03:53:39.123Z</time>
      </trkpt>
      <trkpt lat="47.16724" lon="5.78192">
        <ele>214.526818</ele>
        <time>2021-04-29T03:54:36.317Z</time>
      </trkpt>
      <trkpt lat="47.16784" lon="5.78249">
        <ele>214.512385</ele>
        <time>2021-04-29T03:54:55.499Z</time>
      </trkpt>
      <trkpt lat="47.16832" lon="5.78289">
        <ele>214.501384</ele>
        <time>2021-04-29T03:55:10.151Z</time>
      </trkpt>
      <trkpt lat="47.16902" lon="5.78337">
        <ele>214.487567</ele>
        <time>2021-04-29T03:55:30.632Z</time>
      </trkpt>
      <trkpt lat="47.1701" lon="5.78384">
        <ele>214.469067</ele>
        <time>2021-04-29T03:56:00.453Z</time>
      </trkpt>
      <trkpt lat="47.17185" lon="5.78519">
        <ele>214.703866</ele>
        <time>2021-04-29T03:56:54.603Z</time>
      </trkpt>
      <trkpt lat="47.17217" lon="5.78557">
        <ele>214.699458</ele>
        <time>2021-04-29T03:57:05.962Z</time>
      </trkpt>
      <trkpt lat="47.17271" lon="5.78645">
        <ele>214.670962</ele>
        <time>2021-04-29T03:57:27.635Z</time>
      </trkpt>
      <trkpt lat="47.17338" lon="5.7881">
        <ele>214.517748</ele>
        <time>2021-04-29T03:58:01.069Z</time>
      </trkpt>
      <trkpt lat="47.17352" lon="5.78867">
        <ele>214.436851</ele>
        <time>2021-04-29T03:58:11.480Z</time>
      </trkpt>
      <trkpt lat="47.17379" lon="5.78999">
        <ele>214.347127</ele>
        <time>2021-04-29T03:58:35.707Z</time>
      </trkpt>
      <trkpt lat="47.17382" lon="5.79016">
        <ele>214.375159</ele>
        <time>2021-04-29T03:58:38.843Z</time>
      </trkpt>
      <trkpt lat="47.17396" lon="5.79139">
        <ele>214.578522</ele>
        <time>2021-04-29T03:59:02.577Z</time>
      </trkpt>
      <trkpt lat="47.17402" lon="5.79156">
        <ele>214.61019</ele>
        <time>2021-04-29T03:59:06.565Z</time>
      </trkpt>
      <trkpt lat="47.17422" lon="5.79192">
        <ele>214.686486</ele>
        <time>2021-04-29T03:59:15.813Z</time>
      </trkpt>
      <trkpt lat="47.17449" lon="5.7922">
        <ele>214.764653</ele>
        <time>2021-04-29T03:59:25.595Z</time>
      </trkpt>
      <trkpt lat="47.17453" lon="5.79226">
        <ele>214.776652</ele>
        <time>2021-04-29T03:59:27.324Z</time>
      </trkpt>
      <trkpt lat="47.17458" lon="5.79235">
        <ele>214.795653</ele>
        <time>2021-04-29T03:59:29.634Z</time>
      </trkpt>
      <trkpt lat="47.17504" lon="5.79314">
        <ele>214.961414</ele>
        <time>2021-04-29T03:59:49.679Z</time>
      </trkpt>
      <trkpt lat="47.17507" lon="5.79331">
        <ele>214.990467</ele>
        <time>2021-04-29T03:59:52.959Z</time>
      </trkpt>
      <trkpt lat="47.1751" lon="5.79341">
        <ele>215.006474</ele>
        <time>2021-04-29T03:59:54.838Z</time>
      </trkpt>
      <trkpt lat="47.17481" lon="5.79388">
        <ele>215.107844</ele>
        <time>2021-04-29T04:00:07.160Z</time>
      </trkpt>
      <trkpt lat="47.17475" lon="5.79393">
        <ele>215.123675</ele>
        <time>2021-04-29T04:00:08.987Z</time>
      </trkpt>
      <trkpt lat="47.17469" lon="5.79403">
        <ele>215.146152</ele>
        <time>2021-04-29T04:00:11.508Z</time>
      </trkpt>
      <trkpt lat="47.17457" lon="5.79425">
        <ele>215.094814</ele>
        <time>2021-04-29T04:00:16.560Z</time>
      </trkpt>
      <trkpt lat="47.17437" lon="5.79463">
        <ele>215.002405</ele>
        <time>2021-04-29T04:00:24.736Z</time>
      </trkpt>
      <trkpt lat="47.17413" lon="5.79515">
        <ele>214.880946</ele>
        <time>2021-04-29T04:00:35.423Z</time>
      </trkpt>
      <trkpt lat="47.174" lon="5.79602">
        <ele>214.705845</ele>
        <time>2021-04-29T04:00:50.580Z</time>
      </trkpt>
      <trkpt lat="47.17354" lon="5.79824">
        <ele>214.523389</ele>
        <time>2021-04-29T04:01:32.011Z</time>
      </trkpt>
      <trkpt lat="47.17339" lon="5.79921">
        <ele>214.458227</ele>
        <time>2021-04-29T04:01:50.119Z</time>
      </trkpt>
      <trkpt lat="47.17327" lon="5.80022">
        <ele>214.368864</ele>
        <time>2021-04-29T04:02:08.481Z</time>
      </trkpt>
      <trkpt lat="47.17313" lon="5.8015">
        <ele>214.256358</ele>
        <time>2021-04-29T04:02:31.309Z</time>
      </trkpt>
      <trkpt lat="47.17296" lon="5.80295">
        <ele>214.303218</ele>
        <time>2021-04-29T04:02:57.119Z</time>
      </trkpt>
      <trkpt lat="47.17298" lon="5.8033">
        <ele>214.315403</ele>
        <time>2021-04-29T04:03:03.605Z</time>
      </trkpt>
      <trkpt lat="47.17279" lon="5.80462">
        <ele>214.612606</ele>
        <time>2021-04-29T04:03:29.793Z</time>
      </trkpt>
      <trkpt lat="47.17224" lon="5.80659">
        <ele>215.769048</ele>
        <time>2021-04-29T04:04:15.316Z</time>
      </trkpt>
      <trkpt lat="47.17216" lon="5.80685">
        <ele>215.855758</ele>
        <time>2021-04-29T04:04:21.366Z</time>
      </trkpt>
      <trkpt lat="47.17214" lon="5.80689">
        <ele>215.869942</ele>
        <time>2021-04-29T04:04:22.331Z</time>
      </trkpt>
      <trkpt lat="47.1721" lon="5.807">
        <ele>215.906364</ele>
        <time>2021-04-29T04:04:24.857Z</time>
      </trkpt>
      <trkpt lat="47.17188" lon="5.80761">
        <ele>216.109938</ele>
        <time>2021-04-29T04:04:38.947Z</time>
      </trkpt>
      <trkpt lat="47.17118" lon="5.80912">
        <ele>216.499344</ele>
        <time>2021-04-29T04:05:13.822Z</time>
      </trkpt>
      <trkpt lat="47.17046" lon="5.81042">
        <ele>216.17456</ele>
        <time>2021-04-29T04:05:42.196Z</time>
      </trkpt>
      <trkpt lat="47.17001" lon="5.81112">
        <ele>216.03605</ele>
        <time>2021-04-29T04:05:58.547Z</time>
      </trkpt>
      <trkpt lat="47.16987" lon="5.81134">
        <ele>216.023583</ele>
        <time>2021-04-29T04:06:03.879Z</time>
      </trkpt>
      <trkpt lat="47.16925" lon="5.81234">
        <ele>215.967647</ele>
        <time>2021-04-29T04:06:28.150Z</time>
      </trkpt>
      <trkpt lat="47.16861" lon="5.81295">
        <ele>215.958281</ele>
        <time>2021-04-29T04:06:49.308Z</time>
      </trkpt>
      <trkpt lat="47.16837" lon="5.81323">
        <ele>215.977017</ele>
        <time>2021-04-29T04:06:57.804Z</time>
      </trkpt>
      <trkpt lat="47.16824" lon="5.81351">
        <ele>215.991344</ele>
        <time>2021-04-29T04:07:04.246Z</time>
      </trkpt>
      <trkpt lat="47.16809" lon="5.81413">
        <ele>216.018882</ele>
        <time>2021-04-29T04:07:16.478Z</time>
      </trkpt>
      <trkpt lat="47.16804" lon="5.81462">
        <ele>216.039685</ele>
        <time>2021-04-29T04:07:25.305Z</time>
      </trkpt>
      <trkpt lat="47.16808" lon="5.81662">
        <ele>215.835397</ele>
        <time>2021-04-29T04:08:00.276Z</time>
      </trkpt>
      <trkpt lat="47.1681" lon="5.81676">
        <ele>215.817629</ele>
        <time>2021-04-29T04:08:02.622Z</time>
      </trkpt>
      <trkpt lat="47.16809" lon="5.81696">
        <ele>215.793541</ele>
        <time>2021-04-29T04:08:06.125Z</time>
      </trkpt>
      <trkpt lat="47.16802" lon="5.81852">
        <ele>215.751086</ele>
        <time>2021-04-29T04:08:34.297Z</time>
      </trkpt>
      <trkpt lat="47.16788" lon="5.81972">
        <ele>215.785017</ele>
        <time>2021-04-29T04:08:56.646Z</time>
      </trkpt>
      <trkpt lat="47.16782" lon="5.82">
        <ele>215.793349</ele>
        <time>2021-04-29T04:09:02.320Z</time>
      </trkpt>
      <trkpt lat="47.16769" lon="5.82062">
        <ele>215.96765</ele>
        <time>2021-04-29T04:09:14.243Z</time>
      </trkpt>
      <trkpt lat="47.1673" lon="5.82186">
        <ele>216.423362</ele>
        <time>2021-04-29T04:09:41.161Z</time>
      </trkpt>
      <trkpt lat="47.16714" lon="5.82232">
        <ele>216.595279</ele>
        <time>2021-04-29T04:09:51.654Z</time>
      </trkpt>
      <trkpt lat="47.16639" lon="5.82411">
        <ele>217.724354</ele>
        <time>2021-04-29T04:10:36.422Z</time>
      </trkpt>
      <trkpt lat="47.16611" lon="5.82502">
        <ele>218.184401</ele>
        <time>2021-04-29T04:10:57.376Z</time>
      </trkpt>
      <trkpt lat="47.16608" lon="5.82539">
        <ele>218.215608</ele>
        <time>2021-04-29T04:11:04.702Z</time>
      </trkpt>
      <trkpt lat="47.16614" lon="5.82745">
        <ele>218.389709</ele>
        <time>2021-04-29T04:11:42.054Z</time>
      </trkpt>
      <trkpt lat="47.16611" lon="5.82765">
        <ele>218.347102</ele>
        <time>2021-04-29T04:11:45.508Z</time>
      </trkpt>
      <trkpt lat="47.16608" lon="5.82782">
        <ele>218.311237</ele>
        <time>2021-04-29T04:11:48.585Z</time>
      </trkpt>
      <trkpt lat="47.16611" lon="5.82829">
        <ele>218.213508</ele>
        <time>2021-04-29T04:11:56.580Z</time>
      </trkpt>
      <trkpt lat="47.16616" lon="5.8287">
        <ele>218.127027</ele>
        <time>2021-04-29T04:12:03.555Z</time>
      </trkpt>
      <trkpt lat="47.16622" lon="5.82951">
        <ele>217.957483</ele>
        <time>2021-04-29T04:12:17.594Z</time>
      </trkpt>
      <trkpt lat="47.1662" lon="5.8297">
        <ele>217.917111</ele>
        <time>2021-04-29T04:12:20.840Z</time>
      </trkpt>
      <trkpt lat="47.16703" lon="5.83225">
        <ele>217.832182</ele>
        <time>2021-04-29T04:13:11.582Z</time>
      </trkpt>
      <trkpt lat="47.16725" lon="5.83362">
        <ele>218.05</ele>
        <time>2021-04-29T04:13:39.179Z</time>
      </trkpt>
      <trkpt lat="47.16737" lon="5.83492">
        <ele>218.285147</ele>
        <time>2021-04-29T04:14:04.437Z</time>
      </trkpt>
      <trkpt lat="47.1674" lon="5.83614">
        <ele>218.207619</ele>
        <time>2021-04-29T04:14:26.290Z</time>
      </trkpt>
      <trkpt lat="47.16739" lon="5.8367">
        <ele>218.15703</ele>
        <time>2021-04-29T04:14:36.273Z</time>
      </trkpt>
      <trkpt lat="47.16736" lon="5.83732">
        <ele>218.102239</ele>
        <time>2021-04-29T04:14:46.949Z</time>
      </trkpt>
      <trkpt lat="47.16721" lon="5.83857">
        <ele>218.011488</ele>
        <time>2021-04-29T04:15:09.004Z</time>
      </trkpt>
      <trkpt lat="47.1667" lon="5.84154">
        <ele>218.074621</ele>
        <time>2021-04-29T04:16:05.029Z</time>
      </trkpt>
      <trkpt lat="47.16657" lon="5.84199">
        <ele>218.13838</ele>
        <time>2021-04-29T04:16:13.993Z</time>
      </trkpt>
      <trkpt lat="47.16615" lon="5.84465">
        <ele>219.079996</ele>
        <time>2021-04-29T04:17:07.539Z</time>
      </trkpt>
      <trkpt lat="47.16605" lon="5.84511">
        <ele>219.293653</ele>
        <time>2021-04-29T04:17:18.235Z</time>
      </trkpt>
      <trkpt lat="47.16745" lon="5.84614">
        <ele>220.683943</ele>
        <time>2021-04-29T04:18:21.622Z</time>
      </trkpt>
      <trkpt lat="47.16744" lon="5.84629">
        <ele>220.779118</ele>
        <time>2021-04-29T04:18:24.825Z</time>
      </trkpt>
      <trkpt lat="47.16745" lon="5.84737">
        <ele>221.549057</ele>
        <time>2021-04-29T04:18:46.051Z</time>
      </trkpt>
      <trkpt lat="47.16759" lon="5.8485">
        <ele>222.440888</ele>
        <time>2021-04-29T04:19:08.366Z</time>
      </trkpt>
      <trkpt lat="47.16758" lon="5.84913">
        <ele>222.930495</ele>
        <time>2021-04-29T04:19:21.751Z</time>
      </trkpt>
      <trkpt lat="47.16754" lon="5.84927">
        <ele>223.054632</ele>
        <time>2021-04-29T04:19:26.149Z</time>
      </trkpt>
      <trkpt lat="47.16757" lon="5.84935">
        <ele>223.151656</ele>
        <time>2021-04-29T04:19:29.796Z</time>
      </trkpt>
      <trkpt lat="47.16757" lon="5.84976">
        <ele>224.368186</ele>
        <time>2021-04-29T04:19:41.607Z</time>
      </trkpt>
      <trkpt lat="47.16774" lon="5.84983">
        <ele>225.14192</ele>
        <time>2021-04-29T04:19:51.140Z</time>
      </trkpt>
      <trkpt lat="47.1678" lon="5.84996">
        <ele>225.611201</ele>
        <time>2021-04-29T04:19:55.142Z</time>
      </trkpt>
      <trkpt lat="47.16809" lon="5.84992">
        <ele>226.913522</ele>
        <time>2021-04-29T04:20:10.599Z</time>
      </trkpt>
      <trkpt lat="47.1685" lon="5.85009">
        <ele>228.788167</ele>
        <time>2021-04-29T04:20:31.623Z</time>
      </trkpt>
      <trkpt lat="47.16861" lon="5.85012">
        <ele>229.292675</ele>
        <time>2021-04-29T04:20:37.813Z</time>
      </trkpt>
      <trkpt lat="47.16869" lon="5.8502">
        <ele>229.72047</ele>
        <time>2021-04-29T04:20:44.456Z</time>
      </trkpt>
      <trkpt lat="47.16921" lon="5.85076">
        <ele>232.182467</ele>
        <time>2021-04-29T04:21:19.179Z</time>
      </trkpt>
      <trkpt lat="47.17032" lon="5.85266">
        <ele>237.038519</ele>
        <time>2021-04-29T04:22:31.593Z</time>
      </trkpt>
      <trkpt lat="47.17084" lon="5.85371">
        <ele>236.819512</ele>
        <time>2021-04-29T04:22:53.163Z</time>
      </trkpt>
      <trkpt lat="47.17088" lon="5.85391">
        <ele>236.782953</ele>
        <time>2021-04-29T04:22:56.557Z</time>
      </trkpt>
      <trkpt lat="47.17091" lon="5.85401">
        <ele>236.766277</ele>
        <time>2021-04-29T04:22:58.180Z</time>
      </trkpt>
      <trkpt lat="47.17084" lon="5.85431">
        <ele>236.71232</ele>
        <time>2021-04-29T04:23:03.256Z</time>
      </trkpt>
      <trkpt lat="47.1708" lon="5.85468">
        <ele>236.647459</ele>
        <time>2021-04-29T04:23:09.273Z</time>
      </trkpt>
      <trkpt lat="47.17086" lon="5.85511">
        <ele>236.522674</ele>
        <time>2021-04-29T04:23:16.304Z</time>
      </trkpt>
      <trkpt lat="47.17088" lon="5.85533">
        <ele>236.459591</ele>
        <time>2021-04-29T04:23:19.870Z</time>
      </trkpt>
      <trkpt lat="47.17074" lon="5.85559">
        <ele>236.365032</ele>
        <time>2021-04-29T04:23:25.406Z</time>
      </trkpt>
      <trkpt lat="47.1709" lon="5.85568">
        <ele>236.292177</ele>
        <time>2021-04-29T04:23:29.515Z</time>
      </trkpt>
      <trkpt lat="47.17112" lon="5.85582">
        <ele>236.19211</ele>
        <time>2021-04-29T04:23:35.368Z</time>
      </trkpt>
      <trkpt lat="47.17128" lon="5.85603">
        <ele>236.104536</ele>
        <time>2021-04-29T04:23:41.630Z</time>
      </trkpt>
      <trkpt lat="47.17192" lon="5.85736">
        <ele>236.272232</ele>
        <time>2021-04-29T04:24:15.473Z</time>
      </trkpt>
      <trkpt lat="47.17203" lon="5.85787">
        <ele>236.479671</ele>
        <time>2021-04-29T04:24:26.138Z</time>
      </trkpt>
      <trkpt lat="47.17209" lon="5.85831">
        <ele>236.652958</ele>
        <time>2021-04-29T04:24:34.814Z</time>
      </trkpt>
      <trkpt lat="47.17218" lon="5.85865">
        <ele>236.790584</ele>
        <time>2021-04-29T04:24:41.521Z</time>
      </trkpt>
      <trkpt lat="47.17305" lon="5.86035">
        <ele>237.975438</ele>
        <time>2021-04-29T04:25:23.688Z</time>
      </trkpt>
      <trkpt lat="47.1738" lon="5.86151">
        <ele>239.529116</ele>
        <time>2021-04-29T04:26:01.087Z</time>
      </trkpt>
      <trkpt lat="47.17417" lon="5.86206">
        <ele>240.632292</ele>
        <time>2021-04-29T04:26:20.574Z</time>
      </trkpt>
      <trkpt lat="47.17502" lon="5.86318">
        <ele>242.946621</ele>
        <time>2021-04-29T04:27:04.599Z</time>
      </trkpt>
      <trkpt lat="47.17576" lon="5.86403">
        <ele>244.668612</ele>
        <time>2021-04-29T04:27:38.800Z</time>
      </trkpt>
      <trkpt lat="47.1765" lon="5.86521">
        <ele>245.888343</ele>
        <time>2021-04-29T04:28:13.966Z</time>
      </trkpt>
      <trkpt lat="47.17755" lon="5.86653">
        <ele>246.532129</ele>
        <time>2021-04-29T04:28:51.928Z</time>
      </trkpt>
      <trkpt lat="47.17796" lon="5.86725">
        <ele>246.621188</ele>
        <time>2021-04-29T04:29:08.782Z</time>
      </trkpt>
      <trkpt lat="47.17945" lon="5.87054">
        <ele>247.419823</ele>
        <time>2021-04-29T04:30:24.083Z</time>
      </trkpt>
      <trkpt lat="47.17973" lon="5.871">
        <ele>247.867091</ele>
        <time>2021-04-29T04:30:37.391Z</time>
      </trkpt>
      <trkpt lat="47.18027" lon="5.87171">
        <ele>248.798903</ele>
        <time>2021-04-29T04:31:01.421Z</time>
      </trkpt>
      <trkpt lat="47.18062" lon="5.87209">
        <ele>249.360431</ele>
        <time>2021-04-29T04:31:16.223Z</time>
      </trkpt>
      <trkpt lat="47.18098" lon="5.87249">
        <ele>249.935177</ele>
        <time>2021-04-29T04:31:31.785Z</time>
      </trkpt>
      <trkpt lat="47.18183" lon="5.87342">
        <ele>251.272785</ele>
        <time>2021-04-29T04:32:07.276Z</time>
      </trkpt>
      <trkpt lat="47.18195" lon="5.87358">
        <ele>251.475188</ele>
        <time>2021-04-29T04:32:12.520Z</time>
      </trkpt>
      <trkpt lat="47.18325" lon="5.87546">
        <ele>253.155635</ele>
        <time>2021-04-29T04:33:08.696Z</time>
      </trkpt>
      <trkpt lat="47.1846" lon="5.87806">
        <ele>254.814143</ele>
        <time>2021-04-29T04:34:15.596Z</time>
      </trkpt>
      <trkpt lat="47.18506" lon="5.87896">
        <ele>255.442312</ele>
        <time>2021-04-29T04:34:38.848Z</time>
      </trkpt>
      <trkpt lat="47.18598" lon="5.88075">
        <ele>256.7129</ele>
        <time>2021-04-29T04:35:25.793Z</time>
      </trkpt>
      <trkpt lat="47.18615" lon="5.88132">
        <ele>257.08258</ele>
        <time>2021-04-29T04:35:39.378Z</time>
      </trkpt>
      <trkpt lat="47.18634" lon="5.88225">
        <ele>257.65805</ele>
        <time>2021-04-29T04:35:59.875Z</time>
      </trkpt>
      <trkpt lat="47.18657" lon="5.88337">
        <ele>258.158429</ele>
        <time>2021-04-29T04:36:24.053Z</time>
      </trkpt>
      <trkpt lat="47.18667" lon="5.88385">
        <ele>258.345036</ele>
        <time>2021-04-29T04:36:34.414Z</time>
      </trkpt>
      <trkpt lat="47.18694" lon="5.8846">
        <ele>258.655954</ele>
        <time>2021-04-29T04:36:51.407Z</time>
      </trkpt>
      <trkpt lat="47.18751" lon="5.88634">
        <ele>258.262296</ele>
        <time>2021-04-29T04:37:26.018Z</time>
      </trkpt>
      <trkpt lat="47.18782" lon="5.88735">
        <ele>257.851152</ele>
        <time>2021-04-29T04:37:43.231Z</time>
      </trkpt>
      <trkpt lat="47.18788" lon="5.88755">
        <ele>257.693192</ele>
        <time>2021-04-29T04:37:46.546Z</time>
      </trkpt>
      <trkpt lat="47.1882" lon="5.88848">
        <ele>256.847536</ele>
        <time>2021-04-29T04:38:02.292Z</time>
      </trkpt>
      <trkpt lat="47.18855" lon="5.88925">
        <ele>256.096651</ele>
        <time>2021-04-29T04:38:16.427Z</time>
      </trkpt>
      <trkpt lat="47.18887" lon="5.88967">
        <ele>255.64463</ele>
        <time>2021-04-29T04:38:26.237Z</time>
      </trkpt>
      <trkpt lat="47.19068" lon="5.89145">
        <ele>254.472269</ele>
        <time>2021-04-29T04:39:22.219Z</time>
      </trkpt>
      <trkpt lat="47.1908" lon="5.89183">
        <ele>254.162732</ele>
        <time>2021-04-29T04:39:29.127Z</time>
      </trkpt>
      <trkpt lat="47.19102" lon="5.89262">
        <ele>253.523134</ele>
        <time>2021-04-29T04:39:43.146Z</time>
      </trkpt>
      <trkpt lat="47.19261" lon="5.89503">
        <ele>249.146955</ele>
        <time>2021-04-29T04:40:33.519Z</time>
      </trkpt>
      <trkpt lat="47.19301" lon="5.89574">
        <ele>246.917281</ele>
        <time>2021-04-29T04:40:46.621Z</time>
      </trkpt>
      <trkpt lat="47.19375" lon="5.8975">
        <ele>242.022832</ele>
        <time>2021-04-29T04:41:14.397Z</time>
      </trkpt>
      <trkpt lat="47.19389" lon="5.89808">
        <ele>240.667144</ele>
        <time>2021-04-29T04:41:22.758Z</time>
      </trkpt>
      <trkpt lat="47.19391" lon="5.89815">
        <ele>240.495564</ele>
        <time>2021-04-29T04:41:23.719Z</time>
      </trkpt>
      <trkpt lat="47.19398" lon="5.89831">
        <ele>240.0809</ele>
        <time>2021-04-29T04:41:26.388Z</time>
      </trkpt>
      <trkpt lat="47.19414" lon="5.8986">
        <ele>239.264535</ele>
        <time>2021-04-29T04:41:31.526Z</time>
      </trkpt>
      <trkpt lat="47.19422" lon="5.89886">
        <ele>238.625035</ele>
        <time>2021-04-29T04:41:35.813Z</time>
      </trkpt>
      <trkpt lat="47.19438" lon="5.89943">
        <ele>237.260056</ele>
        <time>2021-04-29T04:41:44.905Z</time>
      </trkpt>
      <trkpt lat="47.19457" lon="5.89965">
        <ele>236.759836</ele>
        <time>2021-04-29T04:41:49.839Z</time>
      </trkpt>
      <trkpt lat="47.19468" lon="5.89972">
        <ele>236.580691</ele>
        <time>2021-04-29T04:41:52.519Z</time>
      </trkpt>
      <trkpt lat="47.19496" lon="5.89987">
        <ele>236.140028</ele>
        <time>2021-04-29T04:41:58.854Z</time>
      </trkpt>
      <trkpt lat="47.19516" lon="5.89998">
        <ele>235.825261</ele>
        <time>2021-04-29T04:42:03.811Z</time>
      </trkpt>
      <trkpt lat="47.19536" lon="5.90005">
        <ele>235.527622</ele>
        <time>2021-04-29T04:42:08.460Z</time>
      </trkpt>
      <trkpt lat="47.19547" lon="5.90015">
        <ele>235.340763</ele>
        <time>2021-04-29T04:42:11.614Z</time>
      </trkpt>
      <trkpt lat="47.19555" lon="5.90032">
        <ele>235.135115</ele>
        <time>2021-04-29T04:42:15.179Z</time>
      </trkpt>
      <trkpt lat="47.19558" lon="5.90052">
        <ele>234.926033</ele>
        <time>2021-04-29T04:42:18.531Z</time>
      </trkpt>
      <trkpt lat="47.19559" lon="5.90077">
        <ele>234.681972</ele>
        <time>2021-04-29T04:42:22.779Z</time>
      </trkpt>
      <trkpt lat="47.19569" lon="5.90107">
        <ele>234.344282</ele>
        <time>2021-04-29T04:42:28.331Z</time>
      </trkpt>
      <trkpt lat="47.19578" lon="5.90123">
        <ele>234.473056</ele>
        <time>2021-04-29T04:42:32.054Z</time>
      </trkpt>
      <trkpt lat="47.19586" lon="5.90133">
        <ele>234.586867</ele>
        <time>2021-04-29T04:42:34.698Z</time>
      </trkpt>
      <trkpt lat="47.19605" lon="5.90156">
        <ele>234.857172</ele>
        <time>2021-04-29T04:42:41.391Z</time>
      </trkpt>
      <trkpt lat="47.19614" lon="5.90164">
        <ele>234.96738</ele>
        <time>2021-04-29T04:42:44.031Z</time>
      </trkpt>
      <trkpt lat="47.19645" lon="5.90184">
        <ele>235.330576</ele>
        <time>2021-04-29T04:42:53.945Z</time>
      </trkpt>
      <trkpt lat="47.19692" lon="5.90213">
        <ele>235.881884</ele>
        <time>2021-04-29T04:43:11.689Z</time>
      </trkpt>
      <trkpt lat="47.19721" lon="5.90226">
        <ele>236.20201</ele>
        <time>2021-04-29T04:43:23.557Z</time>
      </trkpt>
      <trkpt lat="47.19729" lon="5.90233">
        <ele>236.418802</ele>
        <time>2021-04-29T04:43:28.111Z</time>
      </trkpt>
      <trkpt lat="47.19736" lon="5.90251">
        <ele>237.149228</ele>
        <time>2021-04-29T04:43:33.868Z</time>
      </trkpt>
      <trkpt lat="47.19737" lon="5.90265">
        <ele>237.630711</ele>
        <time>2021-04-29T04:43:39.111Z</time>
      </trkpt>
      <trkpt lat="47.19735" lon="5.90292">
        <ele>238.573509</ele>
        <time>2021-04-29T04:43:48.552Z</time>
      </trkpt>
      <trkpt lat="47.19739" lon="5.90299">
        <ele>238.895874</ele>
        <time>2021-04-29T04:43:51.245Z</time>
      </trkpt>
      <trkpt lat="47.19736" lon="5.90315">
        <ele>239.449931</ele>
        <time>2021-04-29T04:43:57.308Z</time>
      </trkpt>
      <trkpt lat="47.19736" lon="5.90368">
        <ele>241.275524</ele>
        <time>2021-04-29T04:44:15.985Z</time>
      </trkpt>
      <trkpt lat="47.19741" lon="5.90387">
        <ele>241.98798</ele>
        <time>2021-04-29T04:44:23.483Z</time>
      </trkpt>
      <trkpt lat="47.19759" lon="5.90407">
        <ele>243.106653</ele>
        <time>2021-04-29T04:44:35.298Z</time>
      </trkpt>
      <trkpt lat="47.19768" lon="5.90409">
        <ele>243.585838</ele>
        <time>2021-04-29T04:44:41.124Z</time>
      </trkpt>
      <trkpt lat="47.19774" lon="5.90463">
        <ele>245.453225</ele>
        <time>2021-04-29T04:45:03.057Z</time>
      </trkpt>
      <trkpt lat="47.19783" lon="5.90464">
        <ele>245.793987</ele>
        <time>2021-04-29T04:45:07.265Z</time>
      </trkpt>
      <trkpt lat="47.19825" lon="5.90481">
        <ele>247.597552</ele>
        <time>2021-04-29T04:45:33.118Z</time>
      </trkpt>
      <trkpt lat="47.19825" lon="5.9049">
        <ele>247.847784</ele>
        <time>2021-04-29T04:45:36.027Z</time>
      </trkpt>
      <trkpt lat="47.19835" lon="5.90518">
        <ele>248.726703</ele>
        <time>2021-04-29T04:45:46.676Z</time>
      </trkpt>
      <trkpt lat="47.19836" lon="5.90528">
        <ele>248.998247</ele>
        <time>2021-04-29T04:45:50.091Z</time>
      </trkpt>
      <trkpt lat="47.19834" lon="5.90529">
        <ele>249.111817</ele>
        <time>2021-04-29T04:45:51.551Z</time>
      </trkpt>
      <trkpt lat="47.19829" lon="5.9054">
        <ele>249.452728</ele>
        <time>2021-04-29T04:45:55.070Z</time>
      </trkpt>
      <trkpt lat="47.19829" lon="5.90544">
        <ele>249.567907</ele>
        <time>2021-04-29T04:45:56.665Z</time>
      </trkpt>
      <trkpt lat="47.19831" lon="5.90548">
        <ele>249.707506</ele>
        <time>2021-04-29T04:45:58.563Z</time>
      </trkpt>
      <trkpt lat="47.19839" lon="5.90555">
        <ele>250.098876</ele>
        <time>2021-04-29T04:46:02.692Z</time>
      </trkpt>
      <trkpt lat="47.19842" lon="5.90554">
        <ele>250.239057</ele>
        <time>2021-04-29T04:46:04.328Z</time>
      </trkpt>
      <trkpt lat="47.19854" lon="5.90572">
        <ele>250.935445</ele>
        <time>2021-04-29T04:46:11.962Z</time>
      </trkpt>
      <trkpt lat="47.19898" lon="5.90637">
        <ele>252.747017</ele>
        <time>2021-04-29T04:46:34.621Z</time>
      </trkpt>
      <trkpt lat="47.19917" lon="5.90656">
        <ele>252.719336</ele>
        <time>2021-04-29T04:46:41.260Z</time>
      </trkpt>
      <trkpt lat="47.19948" lon="5.90678">
        <ele>252.678026</ele>
        <time>2021-04-29T04:46:51.299Z</time>
      </trkpt>
      <trkpt lat="47.19979" lon="5.9069">
        <ele>252.639793</ele>
        <time>2021-04-29T04:46:59.586Z</time>
      </trkpt>
      <trkpt lat="47.20111" lon="5.90692">
        <ele>252.914017</ele>
        <time>2021-04-29T04:47:30.656Z</time>
      </trkpt>
      <trkpt lat="47.20163" lon="5.9068">
        <ele>253.231992</ele>
        <time>2021-04-29T04:47:46.269Z</time>
      </trkpt>
      <trkpt lat="47.20227" lon="5.90645">
        <ele>253.670057</ele>
        <time>2021-04-29T04:48:11.697Z</time>
      </trkpt>
      <trkpt lat="47.20251" lon="5.90639">
        <ele>254.582847</ele>
        <time>2021-04-29T04:48:22.263Z</time>
      </trkpt>
      <trkpt lat="47.20277" lon="5.90642">
        <ele>255.532835</ele>
        <time>2021-04-29T04:48:33.915Z</time>
      </trkpt>
      <trkpt lat="47.20374" lon="5.90687">
        <ele>259.238182</ele>
        <time>2021-04-29T04:49:22.769Z</time>
      </trkpt>
      <trkpt lat="47.20524" lon="5.90817">
        <ele>264.884962</ele>
        <time>2021-04-29T04:50:41.830Z</time>
      </trkpt>
      <trkpt lat="47.20562" lon="5.90841">
        <ele>265.899314</ele>
        <time>2021-04-29T04:50:57.254Z</time>
      </trkpt>
      <trkpt lat="47.20595" lon="5.90856">
        <ele>265.800323</ele>
        <time>2021-04-29T04:51:09.221Z</time>
      </trkpt>
      <trkpt lat="47.20733" lon="5.90881">
        <ele>265.361039</ele>
        <time>2021-04-29T04:51:44.063Z</time>
      </trkpt>
      <trkpt lat="47.20749" lon="5.90888">
        <ele>264.982326</ele>
        <time>2021-04-29T04:51:47.419Z</time>
      </trkpt>
      <trkpt lat="47.20779" lon="5.90918">
        <ele>264.201121</ele>
        <time>2021-04-29T04:51:54.773Z</time>
      </trkpt>
      <trkpt lat="47.20798" lon="5.90951">
        <ele>263.550679</ele>
        <time>2021-04-29T04:52:01.311Z</time>
      </trkpt>
      <trkpt lat="47.20835" lon="5.90998">
        <ele>262.474766</ele>
        <time>2021-04-29T04:52:11.460Z</time>
      </trkpt>
      <trkpt lat="47.20853" lon="5.91018">
        <ele>261.978715</ele>
        <time>2021-04-29T04:52:17.125Z</time>
      </trkpt>
      <trkpt lat="47.20859" lon="5.91028">
        <ele>261.775957</ele>
        <time>2021-04-29T04:52:18.833Z</time>
      </trkpt>
      <trkpt lat="47.20864" lon="5.91039">
        <ele>261.593216</ele>
        <time>2021-04-29T04:52:21.443Z</time>
      </trkpt>
      <trkpt lat="47.20883" lon="5.91123">
        <ele>261.836331</ele>
        <time>2021-04-29T04:52:35.335Z</time>
      </trkpt>
      <trkpt lat="47.20919" lon="5.91239">
        <ele>262.428109</ele>
        <time>2021-04-29T04:53:03.996Z</time>
      </trkpt>
      <trkpt lat="47.20921" lon="5.91246">
        <ele>262.465565</ele>
        <time>2021-04-29T04:53:06.327Z</time>
      </trkpt>
      <trkpt lat="47.20934" lon="5.9128">
        <ele>262.643061</ele>
        <time>2021-04-29T04:53:17.454Z</time>
      </trkpt>
      <trkpt lat="47.20946" lon="5.91312">
        <ele>263.154945</ele>
        <time>2021-04-29T04:53:28.354Z</time>
      </trkpt>
      <trkpt lat="47.20984" lon="5.91403">
        <ele>265.030511</ele>
        <time>2021-04-29T04:53:59.076Z</time>
      </trkpt>
      <trkpt lat="47.2101" lon="5.91454">
        <ele>266.157685</ele>
        <time>2021-04-29T04:54:16.485Z</time>
      </trkpt>
      <trkpt lat="47.21015" lon="5.91465">
        <ele>266.39673</ele>
        <time>2021-04-29T04:54:20.430Z</time>
      </trkpt>
      <trkpt lat="47.21037" lon="5.91513">
        <ele>267.386786</ele>
        <time>2021-04-29T04:54:35.680Z</time>
      </trkpt>
      <trkpt lat="47.21103" lon="5.91652">
        <ele>268.970388</ele>
        <time>2021-04-29T04:55:16.396Z</time>
      </trkpt>
      <trkpt lat="47.21136" lon="5.9178">
        <ele>270.001196</ele>
        <time>2021-04-29T04:55:45.613Z</time>
      </trkpt>
      <trkpt lat="47.21161" lon="5.91889">
        <ele>270.435534</ele>
        <time>2021-04-29T04:56:09.140Z</time>
      </trkpt>
      <trkpt lat="47.21177" lon="5.91933">
        <ele>270.626461</ele>
        <time>2021-04-29T04:56:19.637Z</time>
      </trkpt>
      <trkpt lat="47.21207" lon="5.92019">
        <ele>271.038689</ele>
        <time>2021-04-29T04:56:39.187Z</time>
      </trkpt>
      <trkpt lat="47.21222" lon="5.92091">
        <ele>271.403271</ele>
        <time>2021-04-29T04:56:54.261Z</time>
      </trkpt>
      <trkpt lat="47.21223" lon="5.92108">
        <ele>271.485435</ele>
        <time>2021-04-29T04:56:57.767Z</time>
      </trkpt>
      <trkpt lat="47.21223" lon="5.92139">
        <ele>271.639294</ele>
        <time>2021-04-29T04:57:04.180Z</time>
      </trkpt>
      <trkpt lat="47.21224" lon="5.92146">
        <ele>271.670556</ele>
        <time>2021-04-29T04:57:05.481Z</time>
      </trkpt>
      <trkpt lat="47.21222" lon="5.92207">
        <ele>271.968224</ele>
        <time>2021-04-29T04:57:18.559Z</time>
      </trkpt>
      <trkpt lat="47.21223" lon="5.92241">
        <ele>272.153042</ele>
        <time>2021-04-29T04:57:26.420Z</time>
      </trkpt>
      <trkpt lat="47.21223" lon="5.9226">
        <ele>272.446371</ele>
        <time>2021-04-29T04:57:31.210Z</time>
      </trkpt>
      <trkpt lat="47.21223" lon="5.92322">
        <ele>273.352988</ele>
        <time>2021-04-29T04:57:47.076Z</time>
      </trkpt>
      <trkpt lat="47.21223" lon="5.92333">
        <ele>273.523351</ele>
        <time>2021-04-29T04:57:50.175Z</time>
      </trkpt>
      <trkpt lat="47.21224" lon="5.92341">
        <ele>273.644895</ele>
        <time>2021-04-29T04:57:52.430Z</time>
      </trkpt>
      <trkpt lat="47.21223" lon="5.92366">
        <ele>274.013038</ele>
        <time>2021-04-29T04:57:58.828Z</time>
      </trkpt>
      <trkpt lat="47.21221" lon="5.92388">
        <ele>274.341278</ele>
        <time>2021-04-29T04:58:04.771Z</time>
      </trkpt>
      <trkpt lat="47.21213" lon="5.92429">
        <ele>274.960532</ele>
        <time>2021-04-29T04:58:15.856Z</time>
      </trkpt>
      <trkpt lat="47.21197" lon="5.92525">
        <ele>276.429415</ele>
        <time>2021-04-29T04:58:43.037Z</time>
      </trkpt>
      <trkpt lat="47.21193" lon="5.92557">
        <ele>276.910125</ele>
        <time>2021-04-29T04:58:52.134Z</time>
      </trkpt>
      <trkpt lat="47.21186" lon="5.92625">
        <ele>277.936249</ele>
        <time>2021-04-29T04:59:10.944Z</time>
      </trkpt>
      <trkpt lat="47.21183" lon="5.92668">
        <ele>278.574317</ele>
        <time>2021-04-29T04:59:22.506Z</time>
      </trkpt>
      <trkpt lat="47.21181" lon="5.92701">
        <ele>279.056152</ele>
        <time>2021-04-29T04:59:30.812Z</time>
      </trkpt>
      <trkpt lat="47.21176" lon="5.92791">
        <ele>280.29385</ele>
        <time>2021-04-29T04:59:52.210Z</time>
      </trkpt>
      <trkpt lat="47.21163" lon="5.9291">
        <ele>281.67628</ele>
        <time>2021-04-29T05:00:20.379Z</time>
      </trkpt>
      <trkpt lat="47.21142" lon="5.93">
        <ele>282.762616</ele>
        <time>2021-04-29T05:00:43.952Z</time>
      </trkpt>
      <trkpt lat="47.21124" lon="5.93082">
        <ele>283.817899</ele>
        <time>2021-04-29T05:01:06.597Z</time>
      </trkpt>
      <trkpt lat="47.21116" lon="5.9315">
        <ele>284.672768</ele>
        <time>2021-04-29T05:01:25.674Z</time>
      </trkpt>
      <trkpt lat="47.21097" lon="5.933">
        <ele>286.265476</ele>
        <time>2021-04-29T05:02:01.509Z</time>
      </trkpt>
      <trkpt lat="47.21094" lon="5.9331">
        <ele>286.25673</ele>
        <time>2021-04-29T05:02:03.736Z</time>
      </trkpt>
      <trkpt lat="47.21092" lon="5.93321">
        <ele>286.246252</ele>
        <time>2021-04-29T05:02:07.153Z</time>
      </trkpt>
      <trkpt lat="47.21087" lon="5.9332">
        <ele>286.240582</ele>
        <time>2021-04-29T05:02:08.580Z</time>
      </trkpt>
      <trkpt lat="47.21079" lon="5.93325">
        <ele>286.229401</ele>
        <time>2021-04-29T05:02:10.875Z</time>
      </trkpt>
      <trkpt lat="47.21076" lon="5.9333">
        <ele>286.223689</ele>
        <time>2021-04-29T05:02:11.849Z</time>
      </trkpt>
      <trkpt lat="47.21075" lon="5.93337">
        <ele>286.218029</ele>
        <time>2021-04-29T05:02:13.074Z</time>
      </trkpt>
      <trkpt lat="47.21076" lon="5.93344">
        <ele>286.212402</ele>
        <time>2021-04-29T05:02:14.428Z</time>
      </trkpt>
      <trkpt lat="47.21079" lon="5.93349">
        <ele>286.206689</ele>
        <time>2021-04-29T05:02:16.065Z</time>
      </trkpt>
      <trkpt lat="47.21073" lon="5.93362">
        <ele>286.194574</ele>
        <time>2021-04-29T05:02:19.303Z</time>
      </trkpt>
      <trkpt lat="47.21078" lon="5.93367">
        <ele>286.187705</ele>
        <time>2021-04-29T05:02:23.176Z</time>
      </trkpt>
      <trkpt lat="47.21082" lon="5.93362">
        <ele>286.180897</ele>
        <time>2021-04-29T05:02:25.090Z</time>
      </trkpt>
      <trkpt lat="47.21096" lon="5.9337">
        <ele>286.163091</ele>
        <time>2021-04-29T05:02:31.767Z</time>
      </trkpt>
      <trkpt lat="47.21123" lon="5.93444">
        <ele>286.092456</ele>
        <time>2021-04-29T05:02:55.561Z</time>
      </trkpt>
      <trkpt lat="47.21144" lon="5.93484">
        <ele>286.047154</ele>
        <time>2021-04-29T05:03:09.374Z</time>
      </trkpt>
      <trkpt lat="47.21194" lon="5.93542">
        <ele>285.946699</ele>
        <time>2021-04-29T05:03:34.979Z</time>
      </trkpt>
      <trkpt lat="47.21236" lon="5.9365">
        <ele>285.813774</ele>
        <time>2021-04-29T05:04:13.300Z</time>
      </trkpt>
      <trkpt lat="47.21238" lon="5.9369">
        <ele>285.831127</ele>
        <time>2021-04-29T05:04:26.627Z</time>
      </trkpt>
      <trkpt lat="47.21233" lon="5.93775">
        <ele>286.281742</ele>
        <time>2021-04-29T05:04:55.275Z</time>
      </trkpt>
      <trkpt lat="47.21242" lon="5.93823">
        <ele>286.548739</ele>
        <time>2021-04-29T05:05:12.124Z</time>
      </trkpt>
      <trkpt lat="47.21253" lon="5.93846">
        <ele>286.697744</ele>
        <time>2021-04-29T05:05:21.547Z</time>
      </trkpt>
      <trkpt lat="47.21258" lon="5.93872">
        <ele>286.843331</ele>
        <time>2021-04-29T05:05:30.619Z</time>
      </trkpt>
      <trkpt lat="47.21267" lon="5.93892">
        <ele>286.970245</ele>
        <time>2021-04-29T05:05:38.530Z</time>
      </trkpt>
      <trkpt lat="47.21282" lon="5.93899">
        <ele>287.091996</ele>
        <time>2021-04-29T05:05:45.877Z</time>
      </trkpt>
      <trkpt lat="47.213" lon="5.93889">
        <ele>287.16655</ele>
        <time>2021-04-29T05:05:54.811Z</time>
      </trkpt>
      <trkpt lat="47.21305" lon="5.93884">
        <ele>287.150775</ele>
        <time>2021-04-29T05:05:57.474Z</time>
      </trkpt>
      <trkpt lat="47.21312" lon="5.93883">
        <ele>287.129263</ele>
        <time>2021-04-29T05:06:00.779Z</time>
      </trkpt>
      <trkpt lat="47.21343" lon="5.93891">
        <ele>287.040832</ele>
        <time>2021-04-29T05:06:15.012Z</time>
      </trkpt>
      <trkpt lat="47.21392" lon="5.93942">
        <ele>286.870441</ele>
        <time>2021-04-29T05:06:41.211Z</time>
      </trkpt>
      <trkpt lat="47.21395" lon="5.93952">
        <ele>286.849246</ele>
        <time>2021-04-29T05:06:44.483Z</time>
      </trkpt>
      <trkpt lat="47.2145" lon="5.94003">
        <ele>286.613941</ele>
        <time>2021-04-29T05:07:00.547Z</time>
      </trkpt>
      <trkpt lat="47.21551" lon="5.94072">
        <ele>284.873932</ele>
        <time>2021-04-29T05:07:26.331Z</time>
      </trkpt>
      <trkpt lat="47.21585" lon="5.94096">
        <ele>284.275237</ele>
        <time>2021-04-29T05:07:34.924Z</time>
      </trkpt>
      <trkpt lat="47.216" lon="5.94107">
        <ele>284.007377</ele>
        <time>2021-04-29T05:07:38.809Z</time>
      </trkpt>
      <trkpt lat="47.21608" lon="5.94115">
        <ele>283.855547</ele>
        <time>2021-04-29T05:07:40.861Z</time>
      </trkpt>
      <trkpt lat="47.21623" lon="5.94127">
        <ele>283.437629</ele>
        <time>2021-04-29T05:07:44.493Z</time>
      </trkpt>
      <trkpt lat="47.21631" lon="5.94151">
        <ele>282.977277</ele>
        <time>2021-04-29T05:07:48.399Z</time>
      </trkpt>
      <trkpt lat="47.21628" lon="5.94157">
        <ele>282.851596</ele>
        <time>2021-04-29T05:07:49.409Z</time>
      </trkpt>
      <trkpt lat="47.21612" lon="5.94179">
        <ele>282.303699</ele>
        <time>2021-04-29T05:07:54.118Z</time>
      </trkpt>
      <trkpt lat="47.21611" lon="5.94181">
        <ele>282.272011</ele>
        <time>2021-04-29T05:07:54.378Z</time>
      </trkpt>
      <trkpt lat="47.21578" lon="5.94228">
        <ele>281.101948</ele>
        <time>2021-04-29T05:08:04.071Z</time>
      </trkpt>
      <trkpt lat="47.21572" lon="5.94245">
        <ele>280.788825</ele>
        <time>2021-04-29T05:08:06.715Z</time>
      </trkpt>
      <trkpt lat="47.21574" lon="5.94256">
        <ele>280.606159</ele>
        <time>2021-04-29T05:08:08.285Z</time>
      </trkpt>
      <trkpt lat="47.2159" lon="5.94312">
        <ele>279.559829</ele>
        <time>2021-04-29T05:08:17.193Z</time>
      </trkpt>
      <trkpt lat="47.21597" lon="5.94335">
        <ele>279.182094</ele>
        <time>2021-04-29T05:08:20.907Z</time>
      </trkpt>
      <trkpt lat="47.21603" lon="5.94352">
        <ele>278.95164</ele>
        <time>2021-04-29T05:08:23.678Z</time>
      </trkpt>
      <trkpt lat="47.21613" lon="5.94385">
        <ele>278.502809</ele>
        <time>2021-04-29T05:08:29.021Z</time>
      </trkpt>
      <trkpt lat="47.21614" lon="5.94394">
        <ele>278.384882</ele>
        <time>2021-04-29T05:08:30.406Z</time>
      </trkpt>
      <trkpt lat="47.21613" lon="5.94409">
        <ele>278.19708</ele>
        <time>2021-04-29T05:08:32.638Z</time>
      </trkpt>
      <trkpt lat="47.21608" lon="5.9441">
        <ele>278.116669</ele>
        <time>2021-04-29T05:08:33.557Z</time>
      </trkpt>
      <trkpt lat="47.21605" lon="5.94412">
        <ele>278.044774</ele>
        <time>2021-04-29T05:08:34.389Z</time>
      </trkpt>
      <trkpt lat="47.21601" lon="5.94416">
        <ele>277.952192</ele>
        <time>2021-04-29T05:08:35.499Z</time>
      </trkpt>
      <trkpt lat="47.21598" lon="5.94423">
        <ele>277.8494</ele>
        <time>2021-04-29T05:08:36.695Z</time>
      </trkpt>
      <trkpt lat="47.21598" lon="5.94438">
        <ele>277.673458</ele>
        <time>2021-04-29T05:08:38.782Z</time>
      </trkpt>
      <trkpt lat="47.21599" lon="5.9444">
        <ele>277.633956</ele>
        <time>2021-04-29T05:08:39.232Z</time>
      </trkpt>
      <trkpt lat="47.21603" lon="5.94448">
        <ele>277.5161</ele>
        <time>2021-04-29T05:08:40.605Z</time>
      </trkpt>
      <trkpt lat="47.21608" lon="5.94451">
        <ele>277.429305</ele>
        <time>2021-04-29T05:08:41.646Z</time>
      </trkpt>
      <trkpt lat="47.21616" lon="5.9445">
        <ele>277.272392</ele>
        <time>2021-04-29T05:08:43.568Z</time>
      </trkpt>
      <trkpt lat="47.21619" lon="5.94449">
        <ele>277.224336</ele>
        <time>2021-04-29T05:08:44.099Z</time>
      </trkpt>
      <trkpt lat="47.21624" lon="5.94441">
        <ele>277.092418</ele>
        <time>2021-04-29T05:08:45.683Z</time>
      </trkpt>
      <trkpt lat="47.21625" lon="5.94437">
        <ele>277.027537</ele>
        <time>2021-04-29T05:08:46.515Z</time>
      </trkpt>
      <trkpt lat="47.21631" lon="5.94439">
        <ele>276.924489</ele>
        <time>2021-04-29T05:08:47.689Z</time>
      </trkpt>
      <trkpt lat="47.21641" lon="5.94447">
        <ele>276.716009</ele>
        <time>2021-04-29T05:08:50.286Z</time>
      </trkpt>
      <trkpt lat="47.21649" lon="5.94466">
        <ele>276.439245</ele>
        <time>2021-04-29T05:08:53.609Z</time>
      </trkpt>
      <trkpt lat="47.21652" lon="5.94473">
        <ele>276.336749</ele>
        <time>2021-04-29T05:08:54.910Z</time>
      </trkpt>
      <trkpt lat="47.21678" lon="5.94533">
        <ele>275.84495</ele>
        <time>2021-04-29T05:09:05.914Z</time>
      </trkpt>
      <trkpt lat="47.21699" lon="5.94579">
        <ele>275.6121</ele>
        <time>2021-04-29T05:09:14.670Z</time>
      </trkpt>
      <trkpt lat="47.21711" lon="5.94596">
        <ele>275.508319</ele>
        <time>2021-04-29T05:09:18.693Z</time>
      </trkpt>
      <trkpt lat="47.21715" lon="5.94597">
        <ele>275.48589</ele>
        <time>2021-04-29T05:09:19.697Z</time>
      </trkpt>
      <trkpt lat="47.21727" lon="5.94595">
        <ele>275.405598</ele>
        <time>2021-04-29T05:09:22.855Z</time>
      </trkpt>
      <trkpt lat="47.21736" lon="5.94598">
        <ele>275.351938</ele>
        <time>2021-04-29T05:09:25.157Z</time>
      </trkpt>
      <trkpt lat="47.2174" lon="5.94601">
        <ele>275.318872</ele>
        <time>2021-04-29T05:09:26.390Z</time>
      </trkpt>
      <trkpt lat="47.2174" lon="5.94606">
        <ele>275.301068</ele>
        <time>2021-04-29T05:09:27.185Z</time>
      </trkpt>
      <trkpt lat="47.21742" lon="5.94614">
        <ele>275.264547</ele>
        <time>2021-04-29T05:09:28.783Z</time>
      </trkpt>
      <trkpt lat="47.21745" lon="5.94622">
        <ele>275.228268</ele>
        <time>2021-04-29T05:09:30.428Z</time>
      </trkpt>
      <trkpt lat="47.21748" lon="5.94628">
        <ele>275.193691</ele>
        <time>2021-04-29T05:09:31.873Z</time>
      </trkpt>
      <trkpt lat="47.21753" lon="5.9464">
        <ele>275.133288</ele>
        <time>2021-04-29T05:09:34.575Z</time>
      </trkpt>
      <trkpt lat="47.21754" lon="5.94647">
        <ele>275.101196</ele>
        <time>2021-04-29T05:09:35.841Z</time>
      </trkpt>
      <trkpt lat="47.21755" lon="5.94665">
        <ele>275.026844</ele>
        <time>2021-04-29T05:09:39.311Z</time>
      </trkpt>
      <trkpt lat="47.21753" lon="5.94687">
        <ele>274.933538</ele>
        <time>2021-04-29T05:09:43.370Z</time>
      </trkpt>
      <trkpt lat="47.21751" lon="5.94724">
        <ele>275.026437</ele>
        <time>2021-04-29T05:09:50.236Z</time>
      </trkpt>
      <trkpt lat="47.21749" lon="5.9477">
        <ele>275.154472</ele>
        <time>2021-04-29T05:09:58.566Z</time>
      </trkpt>
      <trkpt lat="47.21746" lon="5.94819">
        <ele>275.292138</ele>
        <time>2021-04-29T05:10:07.631Z</time>
      </trkpt>
      <trkpt lat="47.21743" lon="5.94836">
        <ele>275.339955</ele>
        <time>2021-04-29T05:10:11.127Z</time>
      </trkpt>
      <trkpt lat="47.21742" lon="5.94841">
        <ele>275.355268</ele>
        <time>2021-04-29T05:10:12.301Z</time>
      </trkpt>
      <trkpt lat="47.21731" lon="5.94862">
        <ele>275.430002</ele>
        <time>2021-04-29T05:10:17.491Z</time>
      </trkpt>
      <trkpt lat="47.21718" lon="5.94881">
        <ele>275.504806</ele>
        <time>2021-04-29T05:10:23.264Z</time>
      </trkpt>
      <trkpt lat="47.21716" lon="5.94882">
        <ele>275.513453</ele>
        <time>2021-04-29T05:10:23.923Z</time>
      </trkpt>
      <trkpt lat="47.21711" lon="5.94887">
        <ele>275.536728</ele>
        <time>2021-04-29T05:10:25.648Z</time>
      </trkpt>
      <trkpt lat="47.21709" lon="5.94891">
        <ele>275.553128</ele>
        <time>2021-04-29T05:10:26.881Z</time>
      </trkpt>
      <trkpt lat="47.21708" lon="5.94893">
        <ele>275.557967</ele>
        <time>2021-04-29T05:10:27.245Z</time>
      </trkpt>
      <trkpt lat="47.21706" lon="5.94899">
        <ele>275.576321</ele>
        <time>2021-04-29T05:10:28.595Z</time>
      </trkpt>
      <trkpt lat="47.21707" lon="5.94912">
        <ele>275.612798</ele>
        <time>2021-04-29T05:10:31.387Z</time>
      </trkpt>
      <trkpt lat="47.21708" lon="5.94918">
        <ele>275.631479</ele>
        <time>2021-04-29T05:10:32.856Z</time>
      </trkpt>
      <trkpt lat="47.21711" lon="5.94922">
        <ele>275.645552</ele>
        <time>2021-04-29T05:10:34.092Z</time>
      </trkpt>
      <trkpt lat="47.21713" lon="5.94925">
        <ele>275.659934</ele>
        <time>2021-04-29T05:10:35.213Z</time>
      </trkpt>
      <trkpt lat="47.21716" lon="5.94928">
        <ele>275.682495</ele>
        <time>2021-04-29T05:10:36.295Z</time>
      </trkpt>
      <trkpt lat="47.21721" lon="5.94929">
        <ele>275.717431</ele>
        <time>2021-04-29T05:10:37.692Z</time>
      </trkpt>
      <trkpt lat="47.21725" lon="5.94929">
        <ele>275.752056</ele>
        <time>2021-04-29T05:10:39.111Z</time>
      </trkpt>
      <trkpt lat="47.2173" lon="5.94927">
        <ele>275.786839</ele>
        <time>2021-04-29T05:10:40.468Z</time>
      </trkpt>
      <trkpt lat="47.21738" lon="5.94939">
        <ele>275.872652</ele>
        <time>2021-04-29T05:10:44.044Z</time>
      </trkpt>
      <trkpt lat="47.2174" lon="5.94944">
        <ele>275.901677</ele>
        <time>2021-04-29T05:10:45.364Z</time>
      </trkpt>
      <trkpt lat="47.21771" lon="5.95028">
        <ele>276.393459</ele>
        <time>2021-04-29T05:11:04.723Z</time>
      </trkpt>
      <trkpt lat="47.21782" lon="5.9506">
        <ele>276.57357</ele>
        <time>2021-04-29T05:11:11.988Z</time>
      </trkpt>
      <trkpt lat="47.21786" lon="5.95071">
        <ele>276.641268</ele>
        <time>2021-04-29T05:11:14.539Z</time>
      </trkpt>
      <trkpt lat="47.21793" lon="5.95093">
        <ele>276.762913</ele>
        <time>2021-04-29T05:11:19.506Z</time>
      </trkpt>
      <trkpt lat="47.21816" lon="5.95168">
        <ele>277.170929</ele>
        <time>2021-04-29T05:11:36.656Z</time>
      </trkpt>
      <trkpt lat="47.21817" lon="5.95171">
        <ele>277.188647</ele>
        <time>2021-04-29T05:11:37.465Z</time>
      </trkpt>
      <trkpt lat="47.21832" lon="5.95221">
        <ele>277.449531</ele>
        <time>2021-04-29T05:11:48.910Z</time>
      </trkpt>
      <trkpt lat="47.2183" lon="5.95225">
        <ele>277.474538</ele>
        <time>2021-04-29T05:11:50.004Z</time>
      </trkpt>
      <trkpt lat="47.21828" lon="5.9523">
        <ele>277.499213</ele>
        <time>2021-04-29T05:11:51.111Z</time>
      </trkpt>
      <trkpt lat="47.21828" lon="5.95235">
        <ele>277.524403</ele>
        <time>2021-04-29T05:11:52.162Z</time>
      </trkpt>
      <trkpt lat="47.21828" lon="5.9524">
        <ele>277.54927</ele>
        <time>2021-04-29T05:11:53.268Z</time>
      </trkpt>
      <trkpt lat="47.2183" lon="5.95245">
        <ele>277.574969</ele>
        <time>2021-04-29T05:11:54.363Z</time>
      </trkpt>
      <trkpt lat="47.21835" lon="5.95253">
        <ele>277.624908</ele>
        <time>2021-04-29T05:11:56.457Z</time>
      </trkpt>
      <trkpt lat="47.21838" lon="5.95254">
        <ele>277.650186</ele>
        <time>2021-04-29T05:11:57.548Z</time>
      </trkpt>
      <trkpt lat="47.21848" lon="5.9529">
        <ele>277.83395</ele>
        <time>2021-04-29T05:12:05.783Z</time>
      </trkpt>
      <trkpt lat="47.21853" lon="5.95309">
        <ele>277.931823</ele>
        <time>2021-04-29T05:12:10.071Z</time>
      </trkpt>
      <trkpt lat="47.21854" lon="5.95313">
        <ele>277.947797</ele>
        <time>2021-04-29T05:12:10.891Z</time>
      </trkpt>
      <trkpt lat="47.21885" lon="5.95435">
        <ele>277.700367</ele>
        <time>2021-04-29T05:12:36.732Z</time>
      </trkpt>
      <trkpt lat="47.21895" lon="5.95468">
        <ele>277.36868</ele>
        <time>2021-04-29T05:12:43.132Z</time>
      </trkpt>
      <trkpt lat="47.21902" lon="5.955">
        <ele>277.056214</ele>
        <time>2021-04-29T05:12:48.337Z</time>
      </trkpt>
      <trkpt lat="47.21907" lon="5.95516">
        <ele>276.895575</ele>
        <time>2021-04-29T05:12:51.092Z</time>
      </trkpt>
      <trkpt lat="47.21918" lon="5.95538">
        <ele>276.647308</ele>
        <time>2021-04-29T05:12:54.998Z</time>
      </trkpt>
      <trkpt lat="47.21919" lon="5.9554">
        <ele>276.6174</ele>
        <time>2021-04-29T05:12:55.456Z</time>
      </trkpt>
      <trkpt lat="47.21922" lon="5.95548">
        <ele>276.53678</ele>
        <time>2021-04-29T05:12:56.574Z</time>
      </trkpt>
      <trkpt lat="47.21924" lon="5.9556">
        <ele>276.424615</ele>
        <time>2021-04-29T05:12:58.189Z</time>
      </trkpt>
      <trkpt lat="47.21922" lon="5.95566">
        <ele>276.364733</ele>
        <time>2021-04-29T05:12:58.975Z</time>
      </trkpt>
      <trkpt lat="47.21921" lon="5.95572">
        <ele>276.30763</ele>
        <time>2021-04-29T05:12:59.805Z</time>
      </trkpt>
      <trkpt lat="47.21921" lon="5.95579">
        <ele>276.250385</ele>
        <time>2021-04-29T05:13:00.787Z</time>
      </trkpt>
      <trkpt lat="47.21917" lon="5.95584">
        <ele>276.171569</ele>
        <time>2021-04-29T05:13:02.285Z</time>
      </trkpt>
      <trkpt lat="47.21923" lon="5.95602">
        <ele>275.984001</ele>
        <time>2021-04-29T05:13:11.920Z</time>
      </trkpt>
      <trkpt lat="47.21925" lon="5.9561">
        <ele>275.904961</ele>
        <time>2021-04-29T05:13:15.965Z</time>
      </trkpt>
      <trkpt lat="47.21926" lon="5.95614">
        <ele>275.861683</ele>
        <time>2021-04-29T05:13:16.675Z</time>
      </trkpt>
      <trkpt lat="47.21946" lon="5.95636">
        <ele>275.1968</ele>
        <time>2021-04-29T05:13:23.518Z</time>
      </trkpt>
      <trkpt lat="47.21958" lon="5.95676">
        <ele>274.328339</ele>
        <time>2021-04-29T05:13:31.809Z</time>
      </trkpt>
      <trkpt lat="47.21983" lon="5.95713">
        <ele>273.321884</ele>
        <time>2021-04-29T05:13:41.224Z</time>
      </trkpt>
      <trkpt lat="47.21989" lon="5.9572">
        <ele>273.116384</ele>
        <time>2021-04-29T05:13:42.994Z</time>
      </trkpt>
      <trkpt lat="47.2199" lon="5.95762">
        <ele>272.28548</ele>
        <time>2021-04-29T05:13:49.467Z</time>
      </trkpt>
      <trkpt lat="47.21992" lon="5.9579">
        <ele>271.736179</ele>
        <time>2021-04-29T05:13:53.073Z</time>
      </trkpt>
      <trkpt lat="47.21992" lon="5.95807">
        <ele>271.413766</ele>
        <time>2021-04-29T05:13:55.671Z</time>
      </trkpt>
      <trkpt lat="47.21959" lon="5.95844">
        <ele>270.445209</ele>
        <time>2021-04-29T05:14:05.150Z</time>
      </trkpt>
      <trkpt lat="47.21969" lon="5.95864">
        <ele>270.194996</ele>
        <time>2021-04-29T05:14:09.976Z</time>
      </trkpt>
      <trkpt lat="47.21973" lon="5.95871">
        <ele>270.11529</ele>
        <time>2021-04-29T05:14:11.680Z</time>
      </trkpt>
      <trkpt lat="47.21945" lon="5.95884">
        <ele>269.705958</ele>
        <time>2021-04-29T05:14:19.993Z</time>
      </trkpt>
      <trkpt lat="47.21927" lon="5.95901">
        <ele>269.406373</ele>
        <time>2021-04-29T05:14:27.072Z</time>
      </trkpt>
      <trkpt lat="47.21931" lon="5.95923">
        <ele>269.183703</ele>
        <time>2021-04-29T05:14:31.681Z</time>
      </trkpt>
      <trkpt lat="47.21938" lon="5.95937">
        <ele>269.014948</ele>
        <time>2021-04-29T05:14:35.542Z</time>
      </trkpt>
      <trkpt lat="47.21936" lon="5.95942">
        <ele>268.96719</ele>
        <time>2021-04-29T05:14:36.794Z</time>
      </trkpt>
      <trkpt lat="47.21936" lon="5.95951">
        <ele>268.877659</ele>
        <time>2021-04-29T05:14:39.165Z</time>
      </trkpt>
      <trkpt lat="47.21937" lon="5.95955">
        <ele>268.833504</ele>
        <time>2021-04-29T05:14:40.048Z</time>
      </trkpt>
      <trkpt lat="47.21923" lon="5.95971">
        <ele>268.578505</ele>
        <time>2021-04-29T05:14:45.609Z</time>
      </trkpt>
      <trkpt lat="47.21914" lon="5.9598">
        <ele>268.423333</ele>
        <time>2021-04-29T05:14:49.579Z</time>
      </trkpt>
      <trkpt lat="47.21902" lon="5.95995">
        <ele>268.200145</ele>
        <time>2021-04-29T05:14:53.280Z</time>
      </trkpt>
      <trkpt lat="47.21886" lon="5.96017">
        <ele>267.869554</ele>
        <time>2021-04-29T05:14:58.967Z</time>
      </trkpt>
      <trkpt lat="47.2188" lon="5.96026">
        <ele>267.742382</ele>
        <time>2021-04-29T05:15:00.793Z</time>
      </trkpt>
      <trkpt lat="47.21876" lon="5.96039">
        <ele>267.592301</ele>
        <time>2021-04-29T05:15:02.979Z</time>
      </trkpt>
      <trkpt lat="47.21868" lon="5.96078">
        <ele>267.161235</ele>
        <time>2021-04-29T05:15:09.411Z</time>
      </trkpt>
      <trkpt lat="47.21839" lon="5.96122">
        <ele>266.513437</ele>
        <time>2021-04-29T05:15:18.531Z</time>
      </trkpt>
      <trkpt lat="47.2183" lon="5.96136">
        <ele>266.306939</ele>
        <time>2021-04-29T05:15:21.700Z</time>
      </trkpt>
      <trkpt lat="47.21849" lon="5.96192">
        <ele>265.643735</ele>
        <time>2021-04-29T05:15:31.371Z</time>
      </trkpt>
      <trkpt lat="47.21842" lon="5.96206">
        <ele>265.45882</ele>
        <time>2021-04-29T05:15:33.913Z</time>
      </trkpt>
      <trkpt lat="47.21836" lon="5.96245">
        <ele>264.997893</ele>
        <time>2021-04-29T05:15:40.393Z</time>
      </trkpt>
      <trkpt lat="47.21831" lon="5.96278">
        <ele>264.608061</ele>
        <time>2021-04-29T05:15:45.539Z</time>
      </trkpt>
      <trkpt lat="47.21822" lon="5.96296">
        <ele>264.355728</ele>
        <time>2021-04-29T05:15:48.922Z</time>
      </trkpt>
      <trkpt lat="47.21809" lon="5.96324">
        <ele>263.957693</ele>
        <time>2021-04-29T05:15:54.154Z</time>
      </trkpt>
      <trkpt lat="47.218" lon="5.96342">
        <ele>263.706346</ele>
        <time>2021-04-29T05:15:57.508Z</time>
      </trkpt>
      <trkpt lat="47.21798" lon="5.96343">
        <ele>263.663263</ele>
        <time>2021-04-29T05:15:58.013Z</time>
      </trkpt>
      <trkpt lat="47.218" lon="5.96354">
        <ele>263.533443</ele>
        <time>2021-04-29T05:15:59.768Z</time>
      </trkpt>
      <trkpt lat="47.21799" lon="5.96362">
        <ele>263.437922</ele>
        <time>2021-04-29T05:16:01.049Z</time>
      </trkpt>
      <trkpt lat="47.21797" lon="5.96383">
        <ele>263.192312</ele>
        <time>2021-04-29T05:16:04.298Z</time>
      </trkpt>
      <trkpt lat="47.21797" lon="5.96385">
        <ele>263.158162</ele>
        <time>2021-04-29T05:16:04.770Z</time>
      </trkpt>
      <trkpt lat="47.21796" lon="5.9639">
        <ele>263.102781</ele>
        <time>2021-04-29T05:16:05.506Z</time>
      </trkpt>
      <trkpt lat="47.21794" lon="5.96411">
        <ele>262.860021</ele>
        <time>2021-04-29T05:16:08.530Z</time>
      </trkpt>
      <trkpt lat="47.21792" lon="5.96427">
        <ele>262.669193</ele>
        <time>2021-04-29T05:16:11.090Z</time>
      </trkpt>
      <trkpt lat="47.21791" lon="5.96443">
        <ele>262.476978</ele>
        <time>2021-04-29T05:16:13.726Z</time>
      </trkpt>
      <trkpt lat="47.21785" lon="5.96443">
        <ele>262.370655</ele>
        <time>2021-04-29T05:16:14.994Z</time>
      </trkpt>
      <trkpt lat="47.21779" lon="5.96447">
        <ele>262.265452</ele>
        <time>2021-04-29T05:16:16.258Z</time>
      </trkpt>
      <trkpt lat="47.21774" lon="5.96457">
        <ele>262.191147</ele>
        <time>2021-04-29T05:16:18.101Z</time>
      </trkpt>
      <trkpt lat="47.21774" lon="5.96469">
        <ele>262.141608</ele>
        <time>2021-04-29T05:16:20.004Z</time>
      </trkpt>
      <trkpt lat="47.21777" lon="5.96478">
        <ele>262.102518</ele>
        <time>2021-04-29T05:16:21.554Z</time>
      </trkpt>
      <trkpt lat="47.21783" lon="5.96483">
        <ele>262.063168</ele>
        <time>2021-04-29T05:16:22.950Z</time>
      </trkpt>
      <trkpt lat="47.21769" lon="5.96584">
        <ele>261.650433</ele>
        <time>2021-04-29T05:16:39.060Z</time>
      </trkpt>
      <trkpt lat="47.21767" lon="5.96597">
        <ele>261.599292</ele>
        <time>2021-04-29T05:16:40.952Z</time>
      </trkpt>
      <trkpt lat="47.21763" lon="5.9662">
        <ele>261.503339</ele>
        <time>2021-04-29T05:16:45.005Z</time>
      </trkpt>
      <trkpt lat="47.21756" lon="5.96658">
        <ele>261.348524</ele>
        <time>2021-04-29T05:16:51.858Z</time>
      </trkpt>
      <trkpt lat="47.21752" lon="5.96681">
        <ele>261.252425</ele>
        <time>2021-04-29T05:16:56.798Z</time>
      </trkpt>
      <trkpt lat="47.21743" lon="5.96709">
        <ele>261.330454</ele>
        <time>2021-04-29T05:17:03.108Z</time>
      </trkpt>
      <trkpt lat="47.21737" lon="5.96725">
        <ele>261.59748</ele>
        <time>2021-04-29T05:17:07.403Z</time>
      </trkpt>
      <trkpt lat="47.21733" lon="5.96737">
        <ele>261.781992</ele>
        <time>2021-04-29T05:17:11.248Z</time>
      </trkpt>
      <trkpt lat="47.21728" lon="5.9674">
        <ele>261.907275</ele>
        <time>2021-04-29T05:17:13.010Z</time>
      </trkpt>
      <trkpt lat="47.21724" lon="5.96746">
        <ele>262.014021</ele>
        <time>2021-04-29T05:17:14.498Z</time>
      </trkpt>
      <trkpt lat="47.21721" lon="5.96757">
        <ele>262.200096</ele>
        <time>2021-04-29T05:17:17.321Z</time>
      </trkpt>
      <trkpt lat="47.21721" lon="5.96768">
        <ele>262.357941</ele>
        <time>2021-04-29T05:17:20.132Z</time>
      </trkpt>
      <trkpt lat="47.21723" lon="5.96774">
        <ele>262.454084</ele>
        <time>2021-04-29T05:17:21.918Z</time>
      </trkpt>
      <trkpt lat="47.21726" lon="5.9678">
        <ele>262.555611</ele>
        <time>2021-04-29T05:17:24.365Z</time>
      </trkpt>
      <trkpt lat="47.2174" lon="5.96787">
        <ele>262.865386</ele>
        <time>2021-04-29T05:17:28.944Z</time>
      </trkpt>
      <trkpt lat="47.21744" lon="5.96785">
        <ele>262.970727</ele>
        <time>2021-04-29T05:17:30.684Z</time>
      </trkpt>
      <trkpt lat="47.21757" lon="5.96805">
        <ele>263.371687</ele>
        <time>2021-04-29T05:17:42.492Z</time>
      </trkpt>
      <trkpt lat="47.21773" lon="5.96815">
        <ele>263.733251</ele>
        <time>2021-04-29T05:17:51.222Z</time>
      </trkpt>
      <trkpt lat="47.21805" lon="5.96832">
        <ele>264.457025</ele>
        <time>2021-04-29T05:18:10.832Z</time>
      </trkpt>
      <trkpt lat="47.2181" lon="5.96834">
        <ele>264.568841</ele>
        <time>2021-04-29T05:18:13.747Z</time>
      </trkpt>
      <trkpt lat="47.21818" lon="5.96839">
        <ele>264.769337</ele>
        <time>2021-04-29T05:18:19.181Z</time>
      </trkpt>
      <trkpt lat="47.21824" lon="5.96843">
        <ele>264.902824</ele>
        <time>2021-04-29T05:18:23.724Z</time>
      </trkpt>
      <trkpt lat="47.21861" lon="5.96866">
        <ele>265.634584</ele>
        <time>2021-04-29T05:18:46.706Z</time>
      </trkpt>
      <trkpt lat="47.21915" lon="5.96989">
        <ele>267.348738</ele>
        <time>2021-04-29T05:19:40.199Z</time>
      </trkpt>
      <trkpt lat="47.21922" lon="5.97005">
        <ele>267.579852</ele>
        <time>2021-04-29T05:19:47.167Z</time>
      </trkpt>
      <trkpt lat="47.2194" lon="5.97051">
        <ele>268.134619</ele>
        <time>2021-04-29T05:20:04.348Z</time>
      </trkpt>
      <trkpt lat="47.21959" lon="5.97188">
        <ele>267.674894</ele>
        <time>2021-04-29T05:20:45.582Z</time>
      </trkpt>
      <trkpt lat="47.21979" lon="5.97241">
        <ele>267.476396</ele>
        <time>2021-04-29T05:21:02.444Z</time>
      </trkpt>
      <trkpt lat="47.21979" lon="5.97244">
        <ele>267.465879</ele>
        <time>2021-04-29T05:21:03.435Z</time>
      </trkpt>
      <trkpt lat="47.21973" lon="5.97248">
        <ele>267.429489</ele>
        <time>2021-04-29T05:21:05.309Z</time>
      </trkpt>
      <trkpt lat="47.21966" lon="5.97257">
        <ele>267.387987</ele>
        <time>2021-04-29T05:21:07.372Z</time>
      </trkpt>
      <trkpt lat="47.21972" lon="5.97266">
        <ele>267.345102</ele>
        <time>2021-04-29T05:21:09.423Z</time>
      </trkpt>
      <trkpt lat="47.21974" lon="5.97268">
        <ele>267.334819</ele>
        <time>2021-04-29T05:21:09.842Z</time>
      </trkpt>
      <trkpt lat="47.21972" lon="5.97276">
        <ele>267.308871</ele>
        <time>2021-04-29T05:21:11.000Z</time>
      </trkpt>
      <trkpt lat="47.21971" lon="5.97292">
        <ele>267.18939</ele>
        <time>2021-04-29T05:21:13.769Z</time>
      </trkpt>
      <trkpt lat="47.21974" lon="5.97299">
        <ele>267.085782</ele>
        <time>2021-04-29T05:21:15.046Z</time>
      </trkpt>
      <trkpt lat="47.21972" lon="5.97314">
        <ele>266.882443</ele>
        <time>2021-04-29T05:21:17.222Z</time>
      </trkpt>
      <trkpt lat="47.21972" lon="5.97322">
        <ele>266.778814</ele>
        <time>2021-04-29T05:21:18.232Z</time>
      </trkpt>
      <trkpt lat="47.21954" lon="5.97459">
        <ele>264.938687</ele>
        <time>2021-04-29T05:21:38.409Z</time>
      </trkpt>
      <trkpt lat="47.21951" lon="5.97509">
        <ele>264.280674</ele>
        <time>2021-04-29T05:21:45.513Z</time>
      </trkpt>
      <trkpt lat="47.21951" lon="5.97513">
        <ele>264.230623</ele>
        <time>2021-04-29T05:21:45.959Z</time>
      </trkpt>
      <trkpt lat="47.21951" lon="5.97533">
        <ele>263.96324</ele>
        <time>2021-04-29T05:21:48.739Z</time>
      </trkpt>
      <trkpt lat="47.21944" lon="5.97536">
        <ele>263.815533</ele>
        <time>2021-04-29T05:21:50.370Z</time>
      </trkpt>
      <trkpt lat="47.21947" lon="5.97563">
        <ele>263.497943</ele>
        <time>2021-04-29T05:21:57.228Z</time>
      </trkpt>
      <trkpt lat="47.21949" lon="5.97572">
        <ele>263.384243</ele>
        <time>2021-04-29T05:21:59.885Z</time>
      </trkpt>
      <trkpt lat="47.21955" lon="5.97575">
        <ele>263.277126</ele>
        <time>2021-04-29T05:22:02.381Z</time>
      </trkpt>
      <trkpt lat="47.21977" lon="5.97643">
        <ele>262.402996</ele>
        <time>2021-04-29T05:22:21.815Z</time>
      </trkpt>
      <trkpt lat="47.22022" lon="5.97762">
        <ele>260.812116</ele>
        <time>2021-04-29T05:22:57.866Z</time>
      </trkpt>
      <trkpt lat="47.22028" lon="5.97782">
        <ele>260.533646</ele>
        <time>2021-04-29T05:23:03.615Z</time>
      </trkpt>
      <trkpt lat="47.22035" lon="5.97803">
        <ele>260.207342</ele>
        <time>2021-04-29T05:23:07.572Z</time>
      </trkpt>
      <trkpt lat="47.2204" lon="5.97814">
        <ele>260.018962</ele>
        <time>2021-04-29T05:23:09.647Z</time>
      </trkpt>
      <trkpt lat="47.22046" lon="5.97829">
        <ele>259.783169</ele>
        <time>2021-04-29T05:23:12.368Z</time>
      </trkpt>
      <trkpt lat="47.22049" lon="5.9783">
        <ele>259.711887</ele>
        <time>2021-04-29T05:23:13.269Z</time>
      </trkpt>
      <trkpt lat="47.2206" lon="5.97855">
        <ele>259.294868</ele>
        <time>2021-04-29T05:23:17.941Z</time>
      </trkpt>
      <trkpt lat="47.22061" lon="5.97857">
        <ele>259.252871</ele>
        <time>2021-04-29T05:23:18.393Z</time>
      </trkpt>
      <trkpt lat="47.22068" lon="5.97873">
        <ele>258.994629</ele>
        <time>2021-04-29T05:23:21.385Z</time>
      </trkpt>
      <trkpt lat="47.22074" lon="5.97868">
        <ele>258.845676</ele>
        <time>2021-04-29T05:23:24.112Z</time>
      </trkpt>
      <trkpt lat="47.22076" lon="5.97876">
        <ele>258.731602</ele>
        <time>2021-04-29T05:23:25.277Z</time>
      </trkpt>
      <trkpt lat="47.22078" lon="5.97884">
        <ele>258.607094</ele>
        <time>2021-04-29T05:23:26.536Z</time>
      </trkpt>
      <trkpt lat="47.22077" lon="5.9802">
        <ele>256.499226</ele>
        <time>2021-04-29T05:23:45.285Z</time>
      </trkpt>
      <trkpt lat="47.22076" lon="5.98034">
        <ele>256.150337</ele>
        <time>2021-04-29T05:23:47.088Z</time>
      </trkpt>
      <trkpt lat="47.22073" lon="5.98039">
        <ele>255.995863</ele>
        <time>2021-04-29T05:23:47.882Z</time>
      </trkpt>
      <trkpt lat="47.22071" lon="5.98043">
        <ele>255.866816</ele>
        <time>2021-04-29T05:23:48.575Z</time>
      </trkpt>
      <trkpt lat="47.22069" lon="5.9805">
        <ele>255.680359</ele>
        <time>2021-04-29T05:23:49.588Z</time>
      </trkpt>
      <trkpt lat="47.22068" lon="5.98064">
        <ele>255.339782</ele>
        <time>2021-04-29T05:23:51.655Z</time>
      </trkpt>
      <trkpt lat="47.22069" lon="5.9807">
        <ele>255.181223</ele>
        <time>2021-04-29T05:23:52.527Z</time>
      </trkpt>
      <trkpt lat="47.22071" lon="5.98079">
        <ele>254.943571</ele>
        <time>2021-04-29T05:23:53.741Z</time>
      </trkpt>
      <trkpt lat="47.22075" lon="5.98088">
        <ele>254.687542</ele>
        <time>2021-04-29T05:23:55.056Z</time>
      </trkpt>
      <trkpt lat="47.22079" lon="5.98094">
        <ele>254.482688</ele>
        <time>2021-04-29T05:23:56.148Z</time>
      </trkpt>
      <trkpt lat="47.22083" lon="5.98099">
        <ele>254.29483</ele>
        <time>2021-04-29T05:23:57.205Z</time>
      </trkpt>
      <trkpt lat="47.22097" lon="5.98104">
        <ele>253.801153</ele>
        <time>2021-04-29T05:23:59.980Z</time>
      </trkpt>
      <trkpt lat="47.22101" lon="5.98103">
        <ele>253.649221</ele>
        <time>2021-04-29T05:24:00.728Z</time>
      </trkpt>
      <trkpt lat="47.22109" lon="5.98105">
        <ele>253.339175</ele>
        <time>2021-04-29T05:24:02.364Z</time>
      </trkpt>
      <trkpt lat="47.22114" lon="5.98111">
        <ele>253.116646</ele>
        <time>2021-04-29T05:24:03.511Z</time>
      </trkpt>
      <trkpt lat="47.2211" lon="5.98116">
        <ele>252.923594</ele>
        <time>2021-04-29T05:24:04.600Z</time>
      </trkpt>
      <trkpt lat="47.22116" lon="5.98128">
        <ele>252.565493</ele>
        <time>2021-04-29T05:24:06.596Z</time>
      </trkpt>
      <trkpt lat="47.22126" lon="5.98143">
        <ele>252.055523</ele>
        <time>2021-04-29T05:24:09.210Z</time>
      </trkpt>
      <trkpt lat="47.22153" lon="5.98169">
        <ele>250.901127</ele>
        <time>2021-04-29T05:24:15.233Z</time>
      </trkpt>
      <trkpt lat="47.22203" lon="5.98191">
        <ele>249.508037</ele>
        <time>2021-04-29T05:24:24.983Z</time>
      </trkpt>
      <trkpt lat="47.22223" lon="5.98216">
        <ele>248.865946</ele>
        <time>2021-04-29T05:24:30.024Z</time>
      </trkpt>
      <trkpt lat="47.22228" lon="5.98225">
        <ele>248.660245</ele>
        <time>2021-04-29T05:24:31.545Z</time>
      </trkpt>
      <trkpt lat="47.22234" lon="5.98238">
        <ele>248.40339</ele>
        <time>2021-04-29T05:24:33.784Z</time>
      </trkpt>
      <trkpt lat="47.22242" lon="5.98254">
        <ele>248.072911</ele>
        <time>2021-04-29T05:24:36.497Z</time>
      </trkpt>
      <trkpt lat="47.22256" lon="5.98284">
        <ele>247.450905</ele>
        <time>2021-04-29T05:24:41.830Z</time>
      </trkpt>
      <trkpt lat="47.22282" lon="5.98337">
        <ele>246.358028</ele>
        <time>2021-04-29T05:24:52.111Z</time>
      </trkpt>
      <trkpt lat="47.22302" lon="5.98394">
        <ele>246.461808</ele>
        <time>2021-04-29T05:25:02.850Z</time>
      </trkpt>
      <trkpt lat="47.22305" lon="5.98403">
        <ele>246.531694</ele>
        <time>2021-04-29T05:25:04.165Z</time>
      </trkpt>
      <trkpt lat="47.22308" lon="5.98412">
        <ele>246.603528</ele>
        <time>2021-04-29T05:25:06.092Z</time>
      </trkpt>
      <trkpt lat="47.22315" lon="5.98439">
        <ele>246.812699</ele>
        <time>2021-04-29T05:25:12.333Z</time>
      </trkpt>
      <trkpt lat="47.22329" lon="5.98509">
        <ele>247.34415</ele>
        <time>2021-04-29T05:25:28.021Z</time>
      </trkpt>
      <trkpt lat="47.22336" lon="5.9858">
        <ele>247.857534</ele>
        <time>2021-04-29T05:25:45.919Z</time>
      </trkpt>
      <trkpt lat="47.2235" lon="5.99009">
        <ele>258.069379</ele>
        <time>2021-04-29T05:27:50.197Z</time>
      </trkpt>
      <trkpt lat="47.2237" lon="5.99158">
        <ele>263.10812</ele>
        <time>2021-04-29T05:28:45.600Z</time>
      </trkpt>
      <trkpt lat="47.22397" lon="5.99273">
        <ele>268.640056</ele>
        <time>2021-04-29T05:29:34.568Z</time>
      </trkpt>
      <trkpt lat="47.22398" lon="5.99282">
        <ele>269.025116</ele>
        <time>2021-04-29T05:29:39.473Z</time>
      </trkpt>
      <trkpt lat="47.22401" lon="5.99292">
        <ele>269.535255</ele>
        <time>2021-04-29T05:29:43.558Z</time>
      </trkpt>
      <trkpt lat="47.22407" lon="5.99299">
        <ele>270.041138</ele>
        <time>2021-04-29T05:29:47.721Z</time>
      </trkpt>
      <trkpt lat="47.22408" lon="5.99303">
        <ele>270.226058</ele>
        <time>2021-04-29T05:29:49.345Z</time>
      </trkpt>
      <trkpt lat="47.22409" lon="5.99306">
        <ele>270.413497</ele>
        <time>2021-04-29T05:29:50.985Z</time>
      </trkpt>
      <trkpt lat="47.22415" lon="5.99325">
        <ele>271.346515</ele>
        <time>2021-04-29T05:30:00.325Z</time>
      </trkpt>
      <trkpt lat="47.22416" lon="5.9933">
        <ele>271.598702</ele>
        <time>2021-04-29T05:30:02.642Z</time>
      </trkpt>
      <trkpt lat="47.22416" lon="5.9934">
        <ele>272.034309</ele>
        <time>2021-04-29T05:30:06.129Z</time>
      </trkpt>
      <trkpt lat="47.22417" lon="5.99345">
        <ele>272.264179</ele>
        <time>2021-04-29T05:30:07.819Z</time>
      </trkpt>
      <trkpt lat="47.22416" lon="5.99347">
        <ele>272.399762</ele>
        <time>2021-04-29T05:30:09.118Z</time>
      </trkpt>
      <trkpt lat="47.22423" lon="5.99366">
        <ele>273.368133</ele>
        <time>2021-04-29T05:30:17.543Z</time>
      </trkpt>
      <trkpt lat="47.22458" lon="5.99446">
        <ele>277.213485</ele>
        <time>2021-04-29T05:30:57.024Z</time>
      </trkpt>
      <trkpt lat="47.22477" lon="5.99488">
        <ele>279.193071</ele>
        <time>2021-04-29T05:31:17.229Z</time>
      </trkpt>
      <trkpt lat="47.22504" lon="5.99543">
        <ele>281.893267</ele>
        <time>2021-04-29T05:31:43.038Z</time>
      </trkpt>
      <trkpt lat="47.22531" lon="5.99597">
        <ele>284.333375</ele>
        <time>2021-04-29T05:32:04.507Z</time>
      </trkpt>
      <trkpt lat="47.22564" lon="5.99666">
        <ele>284.72599</ele>
        <time>2021-04-29T05:32:27.687Z</time>
      </trkpt>
      <trkpt lat="47.22577" lon="5.99693">
        <ele>284.883005</ele>
        <time>2021-04-29T05:32:36.286Z</time>
      </trkpt>
      <trkpt lat="47.22607" lon="5.99755">
        <ele>285.235044</ele>
        <time>2021-04-29T05:32:49.233Z</time>
      </trkpt>
      <trkpt lat="47.22656" lon="5.99855">
        <ele>283.834536</ele>
        <time>2021-04-29T05:33:06.466Z</time>
      </trkpt>
      <trkpt lat="47.22671" lon="5.99886">
        <ele>282.7338</ele>
        <time>2021-04-29T05:33:11.199Z</time>
      </trkpt>
      <trkpt lat="47.227" lon="5.99944">
        <ele>280.642777</ele>
        <time>2021-04-29T05:33:20.105Z</time>
      </trkpt>
      <trkpt lat="47.22711" lon="5.99969">
        <ele>279.775343</ele>
        <time>2021-04-29T05:33:23.803Z</time>
      </trkpt>
      <trkpt lat="47.22713" lon="5.99972">
        <ele>279.657362</ele>
        <time>2021-04-29T05:33:24.236Z</time>
      </trkpt>
      <trkpt lat="47.22716" lon="5.99977">
        <ele>279.470808</ele>
        <time>2021-04-29T05:33:25.031Z</time>
      </trkpt>
      <trkpt lat="47.22718" lon="5.99981">
        <ele>279.331282</ele>
        <time>2021-04-29T05:33:25.675Z</time>
      </trkpt>
      <trkpt lat="47.22722" lon="5.99982">
        <ele>279.151905</ele>
        <time>2021-04-29T05:33:26.440Z</time>
      </trkpt>
      <trkpt lat="47.22722" lon="5.99983">
        <ele>279.108623</ele>
        <time>2021-04-29T05:33:26.613Z</time>
      </trkpt>
      <trkpt lat="47.22723" lon="5.99985">
        <ele>279.026916</ele>
        <time>2021-04-29T05:33:26.977Z</time>
      </trkpt>
      <trkpt lat="47.22725" lon="5.99988">
        <ele>278.937996</ele>
        <time>2021-04-29T05:33:27.348Z</time>
      </trkpt>
      <trkpt lat="47.22729" lon="5.99998">
        <ele>278.579942</ele>
        <time>2021-04-29T05:33:28.892Z</time>
      </trkpt>
      <trkpt lat="47.22737" lon="6.00014">
        <ele>278.009842</ele>
        <time>2021-04-29T05:33:31.167Z</time>
      </trkpt>
      <trkpt lat="47.22749" lon="6.00046">
        <ele>277.089006</ele>
        <time>2021-04-29T05:33:35.766Z</time>
      </trkpt>
      <trkpt lat="47.22758" lon="6.00093">
        <ele>275.908855</ele>
        <time>2021-04-29T05:33:41.825Z</time>
      </trkpt>
      <trkpt lat="47.22759" lon="6.00104">
        <ele>275.62737</ele>
        <time>2021-04-29T05:33:43.273Z</time>
      </trkpt>
      <trkpt lat="47.2276" lon="6.00121">
        <ele>275.202152</ele>
        <time>2021-04-29T05:33:45.428Z</time>
      </trkpt>
      <trkpt lat="47.22761" lon="6.00145">
        <ele>274.634054</ele>
        <time>2021-04-29T05:33:48.623Z</time>
      </trkpt>
      <trkpt lat="47.22765" lon="6.00234">
        <ele>272.454323</ele>
        <time>2021-04-29T05:34:00.506Z</time>
      </trkpt>
      <trkpt lat="47.22767" lon="6.00257">
        <ele>271.902585</ele>
        <time>2021-04-29T05:34:03.802Z</time>
      </trkpt>
      <trkpt lat="47.22783" lon="6.00347">
        <ele>271.403329</ele>
        <time>2021-04-29T05:34:17.364Z</time>
      </trkpt>
      <trkpt lat="47.22785" lon="6.00353">
        <ele>271.40393</ele>
        <time>2021-04-29T05:34:18.527Z</time>
      </trkpt>
      <trkpt lat="47.22788" lon="6.00366">
        <ele>271.405203</ele>
        <time>2021-04-29T05:34:20.932Z</time>
      </trkpt>
      <trkpt lat="47.2279" lon="6.00376">
        <ele>271.40618</ele>
        <time>2021-04-29T05:34:22.794Z</time>
      </trkpt>
      <trkpt lat="47.22813" lon="6.00471">
        <ele>271.415352</ele>
        <time>2021-04-29T05:34:43.828Z</time>
      </trkpt>
      <trkpt lat="47.22826" lon="6.00524">
        <ele>271.420577</ele>
        <time>2021-04-29T05:34:56.431Z</time>
      </trkpt>
      <trkpt lat="47.2283" lon="6.00537">
        <ele>271.55195</ele>
        <time>2021-04-29T05:34:59.416Z</time>
      </trkpt>
      <trkpt lat="47.22833" lon="6.00548">
        <ele>271.708068</ele>
        <time>2021-04-29T05:35:02.136Z</time>
      </trkpt>
      <trkpt lat="47.22848" lon="6.00611">
        <ele>272.608085</ele>
        <time>2021-04-29T05:35:18.223Z</time>
      </trkpt>
      <trkpt lat="47.22865" lon="6.00681">
        <ele>273.61636</ele>
        <time>2021-04-29T05:35:37.332Z</time>
      </trkpt>
      <trkpt lat="47.22872" lon="6.00708">
        <ele>273.997643</ele>
        <time>2021-04-29T05:35:44.900Z</time>
      </trkpt>
      <trkpt lat="47.22874" lon="6.0072">
        <ele>274.16567</ele>
        <time>2021-04-29T05:35:48.141Z</time>
      </trkpt>
      <trkpt lat="47.22877" lon="6.00731">
        <ele>274.333244</ele>
        <time>2021-04-29T05:35:51.363Z</time>
      </trkpt>
      <trkpt lat="47.22892" lon="6.00792">
        <ele>275.130265</ele>
        <time>2021-04-29T05:36:08.142Z</time>
      </trkpt>
      <trkpt lat="47.22903" lon="6.00834">
        <ele>275.536787</ele>
        <time>2021-04-29T05:36:18.361Z</time>
      </trkpt>
      <trkpt lat="47.2292" lon="6.00902">
        <ele>276.203472</ele>
        <time>2021-04-29T05:36:35.391Z</time>
      </trkpt>
      <trkpt lat="47.22936" lon="6.00966">
        <ele>276.823942</ele>
        <time>2021-04-29T05:36:51.774Z</time>
      </trkpt>
      <trkpt lat="47.22938" lon="6.0097">
        <ele>276.869492</ele>
        <time>2021-04-29T05:36:52.868Z</time>
      </trkpt>
      <trkpt lat="47.22943" lon="6.0099">
        <ele>277.060903</ele>
        <time>2021-04-29T05:36:57.181Z</time>
      </trkpt>
      <trkpt lat="47.22948" lon="6.01009">
        <ele>277.255628</ele>
        <time>2021-04-29T05:37:01.848Z</time>
      </trkpt>
      <trkpt lat="47.22954" lon="6.01022">
        <ele>277.387997</ele>
        <time>2021-04-29T05:37:04.621Z</time>
      </trkpt>
      <trkpt lat="47.22957" lon="6.01028">
        <ele>277.343666</ele>
        <time>2021-04-29T05:37:05.821Z</time>
      </trkpt>
      <trkpt lat="47.22966" lon="6.01045">
        <ele>277.126822</ele>
        <time>2021-04-29T05:37:09.754Z</time>
      </trkpt>
      <trkpt lat="47.22969" lon="6.01049">
        <ele>277.069975</ele>
        <time>2021-04-29T05:37:10.846Z</time>
      </trkpt>
      <trkpt lat="47.22975" lon="6.0106">
        <ele>276.937278</ele>
        <time>2021-04-29T05:37:13.107Z</time>
      </trkpt>
      <trkpt lat="47.22989" lon="6.01082">
        <ele>276.63744</ele>
        <time>2021-04-29T05:37:17.690Z</time>
      </trkpt>
      <trkpt lat="47.22999" lon="6.01099">
        <ele>276.418023</ele>
        <time>2021-04-29T05:37:21.317Z</time>
      </trkpt>
      <trkpt lat="47.23002" lon="6.01104">
        <ele>276.358763</ele>
        <time>2021-04-29T05:37:22.166Z</time>
      </trkpt>
      <trkpt lat="47.23005" lon="6.01109">
        <ele>276.289642</ele>
        <time>2021-04-29T05:37:23.165Z</time>
      </trkpt>
      <trkpt lat="47.2301" lon="6.01122">
        <ele>276.147515</ele>
        <time>2021-04-29T05:37:25.293Z</time>
      </trkpt>
      <trkpt lat="47.23014" lon="6.01134">
        <ele>276.019655</ele>
        <time>2021-04-29T05:37:27.404Z</time>
      </trkpt>
      <trkpt lat="47.2303" lon="6.01196">
        <ele>275.371907</ele>
        <time>2021-04-29T05:37:37.149Z</time>
      </trkpt>
      <trkpt lat="47.23047" lon="6.01272">
        <ele>274.079172</ele>
        <time>2021-04-29T05:37:48.453Z</time>
      </trkpt>
      <trkpt lat="47.23051" lon="6.01329">
        <ele>272.319064</ele>
        <time>2021-04-29T05:37:55.959Z</time>
      </trkpt>
      <trkpt lat="47.23037" lon="6.01469">
        <ele>267.981732</ele>
        <time>2021-04-29T05:38:13.516Z</time>
      </trkpt>
      <trkpt lat="47.23033" lon="6.01506">
        <ele>266.839686</ele>
        <time>2021-04-29T05:38:17.992Z</time>
      </trkpt>
      <trkpt lat="47.23032" lon="6.0153">
        <ele>265.812444</ele>
        <time>2021-04-29T05:38:20.866Z</time>
      </trkpt>
      <trkpt lat="47.23036" lon="6.01581">
        <ele>263.464458</ele>
        <time>2021-04-29T05:38:26.950Z</time>
      </trkpt>
      <trkpt lat="47.23048" lon="6.01632">
        <ele>261.003805</ele>
        <time>2021-04-29T05:38:33.212Z</time>
      </trkpt>
      <trkpt lat="47.2305" lon="6.01637">
        <ele>260.761295</ele>
        <time>2021-04-29T05:38:33.768Z</time>
      </trkpt>
      <trkpt lat="47.23142" lon="6.01837">
        <ele>251.233436</ele>
        <time>2021-04-29T05:39:02.425Z</time>
      </trkpt>
      <trkpt lat="47.23152" lon="6.01855">
        <ele>250.510432</ele>
        <time>2021-04-29T05:39:05.451Z</time>
      </trkpt>
      <trkpt lat="47.23171" lon="6.01871">
        <ele>249.467923</ele>
        <time>2021-04-29T05:39:09.446Z</time>
      </trkpt>
      <trkpt lat="47.23221" lon="6.01899">
        <ele>246.980501</ele>
        <time>2021-04-29T05:39:19.887Z</time>
      </trkpt>
      <trkpt lat="47.23232" lon="6.01904">
        <ele>246.46702</ele>
        <time>2021-04-29T05:39:21.913Z</time>
      </trkpt>
      <trkpt lat="47.23271" lon="6.01924">
        <ele>245.731372</ele>
        <time>2021-04-29T05:39:30.576Z</time>
      </trkpt>
      <trkpt lat="47.23287" lon="6.01933">
        <ele>245.484808</ele>
        <time>2021-04-29T05:39:35.542Z</time>
      </trkpt>
      <trkpt lat="47.233" lon="6.0194">
        <ele>245.279319</ele>
        <time>2021-04-29T05:39:38.515Z</time>
      </trkpt>
      <trkpt lat="47.23314" lon="6.01948">
        <ele>245.06947</ele>
        <time>2021-04-29T05:39:42.024Z</time>
      </trkpt>
      <trkpt lat="47.23347" lon="6.01966">
        <ele>244.557475</ele>
        <time>2021-04-29T05:39:49.949Z</time>
      </trkpt>
      <trkpt lat="47.23397" lon="6.01993">
        <ele>243.797232</ele>
        <time>2021-04-29T05:40:01.580Z</time>
      </trkpt>
      <trkpt lat="47.23408" lon="6.01999">
        <ele>243.685376</ele>
        <time>2021-04-29T05:40:04.445Z</time>
      </trkpt>
      <trkpt lat="47.23429" lon="6.0201">
        <ele>243.774227</ele>
        <time>2021-04-29T05:40:10.089Z</time>
      </trkpt>
      <trkpt lat="47.23429" lon="6.0201">
        <ele>243.77675</ele>
        <time>2021-04-29T05:40:10.269Z</time>
      </trkpt>
      <trkpt lat="47.23433" lon="6.02012">
        <ele>243.791046</ele>
        <time>2021-04-29T05:40:11.149Z</time>
      </trkpt>
      <trkpt lat="47.23436" lon="6.02014">
        <ele>243.803283</ele>
        <time>2021-04-29T05:40:11.944Z</time>
      </trkpt>
      <trkpt lat="47.23443" lon="6.02017">
        <ele>243.831876</ele>
        <time>2021-04-29T05:40:14.180Z</time>
      </trkpt>
      <trkpt lat="47.23438" lon="6.02038">
        <ele>243.88991</ele>
        <time>2021-04-29T05:40:18.316Z</time>
      </trkpt>
      <trkpt lat="47.23436" lon="6.02049">
        <ele>243.923702</ele>
        <time>2021-04-29T05:40:20.917Z</time>
      </trkpt>
      <trkpt lat="47.23445" lon="6.02056">
        <ele>243.964805</ele>
        <time>2021-04-29T05:40:24.229Z</time>
      </trkpt>
      <trkpt lat="47.23476" lon="6.02082">
        <ele>244.105271</ele>
        <time>2021-04-29T05:40:35.024Z</time>
      </trkpt>
      <trkpt lat="47.23489" lon="6.02094">
        <ele>244.1678</ele>
        <time>2021-04-29T05:40:39.662Z</time>
      </trkpt>
      <trkpt lat="47.23516" lon="6.02113">
        <ele>244.286816</ele>
        <time>2021-04-29T05:40:48.864Z</time>
      </trkpt>
      <trkpt lat="47.23528" lon="6.02118">
        <ele>244.337549</ele>
        <time>2021-04-29T05:40:52.531Z</time>
      </trkpt>
      <trkpt lat="47.2354" lon="6.02126">
        <ele>244.38914</ele>
        <time>2021-04-29T05:40:56.577Z</time>
      </trkpt>
      <trkpt lat="47.23547" lon="6.02129">
        <ele>244.489914</ele>
        <time>2021-04-29T05:40:58.844Z</time>
      </trkpt>
      <trkpt lat="47.23572" lon="6.02143">
        <ele>244.835043</ele>
        <time>2021-04-29T05:41:07.113Z</time>
      </trkpt>
      <trkpt lat="47.23662" lon="6.02191">
        <ele>246.078496</ele>
        <time>2021-04-29T05:41:38.274Z</time>
      </trkpt>
      <trkpt lat="47.23678" lon="6.02206">
        <ele>246.319692</ele>
        <time>2021-04-29T05:41:44.775Z</time>
      </trkpt>
      <trkpt lat="47.23679" lon="6.02212">
        <ele>246.374481</ele>
        <time>2021-04-29T05:41:45.989Z</time>
      </trkpt>
      <trkpt lat="47.23678" lon="6.02216">
        <ele>246.409555</ele>
        <time>2021-04-29T05:41:46.860Z</time>
      </trkpt>
      <trkpt lat="47.23677" lon="6.0222">
        <ele>246.447545</ele>
        <time>2021-04-29T05:41:47.772Z</time>
      </trkpt>
      <trkpt lat="47.23672" lon="6.02229">
        <ele>246.553424</ele>
        <time>2021-04-29T05:41:50.304Z</time>
      </trkpt>
      <trkpt lat="47.23663" lon="6.02244">
        <ele>246.734331</ele>
        <time>2021-04-29T05:41:55.115Z</time>
      </trkpt>
      <trkpt lat="47.23642" lon="6.0228">
        <ele>247.513723</ele>
        <time>2021-04-29T05:42:06.646Z</time>
      </trkpt>
      <trkpt lat="47.2364" lon="6.02283">
        <ele>247.579584</ele>
        <time>2021-04-29T05:42:07.945Z</time>
      </trkpt>
      <trkpt lat="47.23643" lon="6.02285">
        <ele>247.640845</ele>
        <time>2021-04-29T05:42:08.935Z</time>
      </trkpt>
      <trkpt lat="47.23645" lon="6.02287">
        <ele>247.694122</ele>
        <time>2021-04-29T05:42:09.960Z</time>
      </trkpt>
      <trkpt lat="47.23683" lon="6.02327">
        <ele>248.829179</ele>
        <time>2021-04-29T05:42:28.921Z</time>
      </trkpt>
      <trkpt lat="47.23691" lon="6.02335">
        <ele>249.085036</ele>
        <time>2021-04-29T05:42:32.852Z</time>
      </trkpt>
      <trkpt lat="47.2373" lon="6.02376">
        <ele>250.249583</ele>
        <time>2021-04-29T05:42:52.529Z</time>
      </trkpt>
      <trkpt lat="47.23741" lon="6.02388">
        <ele>250.569091</ele>
        <time>2021-04-29T05:42:58.231Z</time>
      </trkpt>
      <trkpt lat="47.23767" lon="6.02422">
        <ele>251.287814</ele>
        <time>2021-04-29T05:43:12.474Z</time>
      </trkpt>
      <trkpt lat="47.2377" lon="6.02427">
        <ele>251.358352</ele>
        <time>2021-04-29T05:43:14.435Z</time>
      </trkpt>
      <trkpt lat="47.23768" lon="6.0243">
        <ele>251.396516</ele>
        <time>2021-04-29T05:43:15.344Z</time>
      </trkpt>
      <trkpt lat="47.2377" lon="6.02432">
        <ele>251.432585</ele>
        <time>2021-04-29T05:43:17.093Z</time>
      </trkpt>
      <trkpt lat="47.23795" lon="6.02434">
        <ele>251.793625</ele>
        <time>2021-04-29T05:43:34.622Z</time>
      </trkpt>
      <trkpt lat="47.2377" lon="6.02432">
        <ele>252.154665</ele>
        <time>2021-04-29T05:43:52.150Z</time>
      </trkpt>
      <trkpt lat="47.23768" lon="6.0243">
        <ele>252.190734</ele>
        <time>2021-04-29T05:43:53.898Z</time>
      </trkpt>
      <trkpt lat="47.2377" lon="6.02427">
        <ele>252.228897</ele>
        <time>2021-04-29T05:43:54.961Z</time>
      </trkpt>
      <trkpt lat="47.23782" lon="6.02428">
        <ele>252.398183</ele>
        <time>2021-04-29T05:43:59.601Z</time>
      </trkpt>
      <trkpt lat="47.23799" lon="6.02429">
        <ele>252.644405</ele>
        <time>2021-04-29T05:44:05.017Z</time>
      </trkpt>
      <trkpt lat="47.23818" lon="6.0243">
        <ele>252.916397</ele>
        <time>2021-04-29T05:44:11.887Z</time>
      </trkpt>
      <trkpt lat="47.23829" lon="6.02437">
        <ele>253.09008</ele>
        <time>2021-04-29T05:44:15.361Z</time>
      </trkpt>
      <trkpt lat="47.23844" lon="6.02459">
        <ele>253.383117</ele>
        <time>2021-04-29T05:44:21.949Z</time>
      </trkpt>
      <trkpt lat="47.23851" lon="6.02471">
        <ele>253.545149</ele>
        <time>2021-04-29T05:44:24.980Z</time>
      </trkpt>
      <trkpt lat="47.2387" lon="6.02502">
        <ele>253.33631</ele>
        <time>2021-04-29T05:44:32.381Z</time>
      </trkpt>
      <trkpt lat="47.23876" lon="6.02511">
        <ele>253.183306</ele>
        <time>2021-04-29T05:44:34.401Z</time>
      </trkpt>
      <trkpt lat="47.23904" lon="6.02555">
        <ele>252.424824</ele>
        <time>2021-04-29T05:44:44.674Z</time>
      </trkpt>
      <trkpt lat="47.2393" lon="6.02595">
        <ele>251.749106</ele>
        <time>2021-04-29T05:44:53.073Z</time>
      </trkpt>
      <trkpt lat="47.23943" lon="6.02615">
        <ele>251.397447</ele>
        <time>2021-04-29T05:44:57.200Z</time>
      </trkpt>
      <trkpt lat="47.2395" lon="6.02625">
        <ele>251.224215</ele>
        <time>2021-04-29T05:44:59.228Z</time>
      </trkpt>
      <trkpt lat="47.23951" lon="6.02627">
        <ele>251.198237</ele>
        <time>2021-04-29T05:44:59.587Z</time>
      </trkpt>
      <trkpt lat="47.23955" lon="6.02634">
        <ele>251.082154</ele>
        <time>2021-04-29T05:45:01.010Z</time>
      </trkpt>
      <trkpt lat="47.23959" lon="6.02639">
        <ele>250.987181</ele>
        <time>2021-04-29T05:45:02.135Z</time>
      </trkpt>
      <trkpt lat="47.2396" lon="6.02641">
        <ele>250.957254</ele>
        <time>2021-04-29T05:45:02.407Z</time>
      </trkpt>
      <trkpt lat="47.23972" lon="6.02661">
        <ele>250.633244</ele>
        <time>2021-04-29T05:45:06.025Z</time>
      </trkpt>
      <trkpt lat="47.24006" lon="6.02716">
        <ele>249.334667</ele>
        <time>2021-04-29T05:45:16.359Z</time>
      </trkpt>
      <trkpt lat="47.24008" lon="6.02718">
        <ele>249.263159</ele>
        <time>2021-04-29T05:45:16.815Z</time>
      </trkpt>
      <trkpt lat="47.24009" lon="6.0272">
        <ele>249.219767</ele>
        <time>2021-04-29T05:45:17.068Z</time>
      </trkpt>
      <trkpt lat="47.24018" lon="6.02731">
        <ele>248.89966</ele>
        <time>2021-04-29T05:45:19.306Z</time>
      </trkpt>
      <trkpt lat="47.24062" lon="6.02788">
        <ele>247.245314</ele>
        <time>2021-04-29T05:45:31.550Z</time>
      </trkpt>
      <trkpt lat="47.24064" lon="6.02791">
        <ele>247.174095</ele>
        <time>2021-04-29T05:45:31.966Z</time>
      </trkpt>
      <trkpt lat="47.24073" lon="6.02802">
        <ele>246.847263</ele>
        <time>2021-04-29T05:45:34.463Z</time>
      </trkpt>
      <trkpt lat="47.24079" lon="6.02801">
        <ele>246.661039</ele>
        <time>2021-04-29T05:45:35.943Z</time>
      </trkpt>
      <trkpt lat="47.24083" lon="6.02802">
        <ele>246.548188</ele>
        <time>2021-04-29T05:45:36.887Z</time>
      </trkpt>
      <trkpt lat="47.24085" lon="6.02803">
        <ele>246.498346</ele>
        <time>2021-04-29T05:45:37.232Z</time>
      </trkpt>
      <trkpt lat="47.24084" lon="6.02805">
        <ele>246.45246</ele>
        <time>2021-04-29T05:45:38.367Z</time>
      </trkpt>
      <trkpt lat="47.24082" lon="6.02809">
        <ele>246.359282</ele>
        <time>2021-04-29T05:45:40.689Z</time>
      </trkpt>
      <trkpt lat="47.24081" lon="6.02812">
        <ele>246.30536</ele>
        <time>2021-04-29T05:45:42.043Z</time>
      </trkpt>
      <trkpt lat="47.24081" lon="6.02812">
        <ele>246.294301</ele>
        <time>2021-04-29T05:45:42.307Z</time>
      </trkpt>
      <trkpt lat="47.24083" lon="6.02814">
        <ele>246.22949</ele>
        <time>2021-04-29T05:45:42.793Z</time>
      </trkpt>
      <trkpt lat="47.24126" lon="6.02855">
        <ele>245.468126</ele>
        <time>2021-04-29T05:45:54.288Z</time>
      </trkpt>
      <trkpt lat="47.24209" lon="6.0293">
        <ele>246.015794</ele>
        <time>2021-04-29T05:46:21.356Z</time>
      </trkpt>
      <trkpt lat="47.24226" lon="6.02945">
        <ele>246.129237</ele>
        <time>2021-04-29T05:46:28.740Z</time>
      </trkpt>
      <trkpt lat="47.24233" lon="6.02951">
        <ele>246.175788</ele>
        <time>2021-04-29T05:46:31.809Z</time>
      </trkpt>
      <trkpt lat="47.24242" lon="6.02958">
        <ele>246.232169</ele>
        <time>2021-04-29T05:46:35.693Z</time>
      </trkpt>
      <trkpt lat="47.24243" lon="6.02959">
        <ele>246.239958</ele>
        <time>2021-04-29T05:46:36.629Z</time>
      </trkpt>
      <trkpt lat="47.24247" lon="6.02962">
        <ele>246.265181</ele>
        <time>2021-04-29T05:46:39.746Z</time>
      </trkpt>
      <trkpt lat="47.24252" lon="6.02966">
        <ele>246.29634</ele>
        <time>2021-04-29T05:46:43.605Z</time>
      </trkpt>
      <trkpt lat="47.24257" lon="6.0297">
        <ele>246.329247</ele>
        <time>2021-04-29T05:46:47.235Z</time>
      </trkpt>
      <trkpt lat="47.24256" lon="6.02989">
        <ele>246.497238</ele>
        <time>2021-04-29T05:46:52.501Z</time>
      </trkpt>
      <trkpt lat="47.24255" lon="6.02999">
        <ele>246.660066</ele>
        <time>2021-04-29T05:46:55.694Z</time>
      </trkpt>
      <trkpt lat="47.2425" lon="6.0303">
        <ele>247.175319</ele>
        <time>2021-04-29T05:47:05.079Z</time>
      </trkpt>
      <trkpt lat="47.24247" lon="6.0304">
        <ele>247.338124</ele>
        <time>2021-04-29T05:47:07.705Z</time>
      </trkpt>
      <trkpt lat="47.24246" lon="6.03045">
        <ele>247.413847</ele>
        <time>2021-04-29T05:47:09.245Z</time>
      </trkpt>
      <trkpt lat="47.24242" lon="6.03063">
        <ele>247.719799</ele>
        <time>2021-04-29T05:47:14.565Z</time>
      </trkpt>
      <trkpt lat="47.24236" lon="6.03084">
        <ele>248.095114</ele>
        <time>2021-04-29T05:47:21.249Z</time>
      </trkpt>
      <trkpt lat="47.24226" lon="6.03118">
        <ele>248.681781</ele>
        <time>2021-04-29T05:47:31.467Z</time>
      </trkpt>
      <trkpt lat="47.24214" lon="6.03151">
        <ele>249.28284</ele>
        <time>2021-04-29T05:47:41.463Z</time>
      </trkpt>
      <trkpt lat="47.24212" lon="6.03156">
        <ele>249.37703</ele>
        <time>2021-04-29T05:47:42.801Z</time>
      </trkpt>
      <trkpt lat="47.24201" lon="6.03184">
        <ele>249.899336</ele>
        <time>2021-04-29T05:47:50.262Z</time>
      </trkpt>
      <trkpt lat="47.24196" lon="6.03195">
        <ele>250.111079</ele>
        <time>2021-04-29T05:47:53.646Z</time>
      </trkpt>
      <trkpt lat="47.24167" lon="6.03249">
        <ele>251.081914</ele>
        <time>2021-04-29T05:48:09.919Z</time>
      </trkpt>
      <trkpt lat="47.24162" lon="6.03257">
        <ele>251.210574</ele>
        <time>2021-04-29T05:48:13.224Z</time>
      </trkpt>
      <trkpt lat="47.2416" lon="6.03262">
        <ele>251.288658</ele>
        <time>2021-04-29T05:48:15.017Z</time>
      </trkpt>
      <trkpt lat="47.24159" lon="6.03265">
        <ele>251.330278</ele>
        <time>2021-04-29T05:48:15.857Z</time>
      </trkpt>
      <trkpt lat="47.24156" lon="6.03269">
        <ele>251.398555</ele>
        <time>2021-04-29T05:48:18.405Z</time>
      </trkpt>
      <trkpt lat="47.24148" lon="6.03278">
        <ele>251.583461</ele>
        <time>2021-04-29T05:48:25.341Z</time>
      </trkpt>
      <trkpt lat="47.24154" lon="6.03283">
        <ele>251.712066</ele>
        <time>2021-04-29T05:48:27.367Z</time>
      </trkpt>
      <trkpt lat="47.24162" lon="6.0329">
        <ele>251.883704</ele>
        <time>2021-04-29T05:48:31.379Z</time>
      </trkpt>
      <trkpt lat="47.24171" lon="6.03299">
        <ele>252.085249</ele>
        <time>2021-04-29T05:48:35.336Z</time>
      </trkpt>
      <trkpt lat="47.24187" lon="6.03315">
        <ele>252.44009</ele>
        <time>2021-04-29T05:48:41.723Z</time>
      </trkpt>
      <trkpt lat="47.24201" lon="6.0333">
        <ele>252.755513</ele>
        <time>2021-04-29T05:48:48.375Z</time>
      </trkpt>
      <trkpt lat="47.24217" lon="6.0334">
        <ele>253.074901</ele>
        <time>2021-04-29T05:48:53.953Z</time>
      </trkpt>
      <trkpt lat="47.24227" lon="6.0335">
        <ele>253.298821</ele>
        <time>2021-04-29T05:48:59.077Z</time>
      </trkpt>
      <trkpt lat="47.24247" lon="6.03367">
        <ele>253.729198</ele>
        <time>2021-04-29T05:49:06.655Z</time>
      </trkpt>
      <trkpt lat="47.24256" lon="6.03374">
        <ele>253.924209</ele>
        <time>2021-04-29T05:49:11.096Z</time>
      </trkpt>
      <trkpt lat="47.24316" lon="6.03412">
        <ele>254.905505</ele>
        <time>2021-04-29T05:49:31.620Z</time>
      </trkpt>
      <trkpt lat="47.24377" lon="6.03443">
        <ele>255.877347</ele>
        <time>2021-04-29T05:49:54.588Z</time>
      </trkpt>
      <trkpt lat="47.24385" lon="6.03447">
        <ele>255.996435</ele>
        <time>2021-04-29T05:49:57.271Z</time>
      </trkpt>
      <trkpt lat="47.24388" lon="6.03449">
        <ele>256.046855</ele>
        <time>2021-04-29T05:49:58.761Z</time>
      </trkpt>
      <trkpt lat="47.24414" lon="6.03465">
        <ele>256.469828</ele>
        <time>2021-04-29T05:50:08.214Z</time>
      </trkpt>
      <trkpt lat="47.24453" lon="6.03483">
        <ele>256.861774</ele>
        <time>2021-04-29T05:50:21.290Z</time>
      </trkpt>
      <trkpt lat="47.24465" lon="6.0349">
        <ele>256.962829</ele>
        <time>2021-04-29T05:50:25.938Z</time>
      </trkpt>
      <trkpt lat="47.24549" lon="6.03518">
        <ele>257.611854</ele>
        <time>2021-04-29T05:50:50.568Z</time>
      </trkpt>
      <trkpt lat="47.24575" lon="6.03524">
        <ele>257.806663</ele>
        <time>2021-04-29T05:50:58.489Z</time>
      </trkpt>
      <trkpt lat="47.24588" lon="6.03528">
        <ele>257.906868</ele>
        <time>2021-04-29T05:51:02.167Z</time>
      </trkpt>
      <trkpt lat="47.24592" lon="6.0353">
        <ele>257.93951</ele>
        <time>2021-04-29T05:51:03.391Z</time>
      </trkpt>
      <trkpt lat="47.24598" lon="6.03532">
        <ele>257.986945</ele>
        <time>2021-04-29T05:51:05.458Z</time>
      </trkpt>
      <trkpt lat="47.24606" lon="6.03536">
        <ele>258.010898</ele>
        <time>2021-04-29T05:51:08.556Z</time>
      </trkpt>
      <trkpt lat="47.24614" lon="6.03542">
        <ele>258.027194</ele>
        <time>2021-04-29T05:51:11.322Z</time>
      </trkpt>
      <trkpt lat="47.24625" lon="6.0355">
        <ele>258.048491</ele>
        <time>2021-04-29T05:51:14.604Z</time>
      </trkpt>
      <trkpt lat="47.24653" lon="6.03586">
        <ele>258.116067</ele>
        <time>2021-04-29T05:51:24.450Z</time>
      </trkpt>
      <trkpt lat="47.2466" lon="6.03595">
        <ele>258.133925</ele>
        <time>2021-04-29T05:51:26.868Z</time>
      </trkpt>
      <trkpt lat="47.24697" lon="6.03642">
        <ele>258.222773</ele>
        <time>2021-04-29T05:51:39.398Z</time>
      </trkpt>
      <trkpt lat="47.24716" lon="6.0367">
        <ele>258.27211</ele>
        <time>2021-04-29T05:51:46.457Z</time>
      </trkpt>
      <trkpt lat="47.24717" lon="6.03671">
        <ele>258.273675</ele>
        <time>2021-04-29T05:51:46.709Z</time>
      </trkpt>
      <trkpt lat="47.24721" lon="6.03676">
        <ele>258.28307</ele>
        <time>2021-04-29T05:51:48.255Z</time>
      </trkpt>
      <trkpt lat="47.24726" lon="6.03691">
        <ele>258.304077</ele>
        <time>2021-04-29T05:51:51.496Z</time>
      </trkpt>
      <trkpt lat="47.24739" lon="6.03681">
        <ele>258.382925</ele>
        <time>2021-04-29T05:51:55.765Z</time>
      </trkpt>
      <trkpt lat="47.24742" lon="6.03679">
        <ele>258.449796</ele>
        <time>2021-04-29T05:51:56.824Z</time>
      </trkpt>
      <trkpt lat="47.24747" lon="6.03676">
        <ele>258.548363</ele>
        <time>2021-04-29T05:51:58.478Z</time>
      </trkpt>
      <trkpt lat="47.2475" lon="6.03675">
        <ele>258.607857</ele>
        <time>2021-04-29T05:51:59.412Z</time>
      </trkpt>
      <trkpt lat="47.24763" lon="6.03667">
        <ele>258.86448</ele>
        <time>2021-04-29T05:52:03.449Z</time>
      </trkpt>
      <trkpt lat="47.24776" lon="6.03661">
        <ele>259.106056</ele>
        <time>2021-04-29T05:52:07.346Z</time>
      </trkpt>
      <trkpt lat="47.24779" lon="6.0366">
        <ele>259.16773</ele>
        <time>2021-04-29T05:52:08.436Z</time>
      </trkpt>
      <trkpt lat="47.24782" lon="6.03658">
        <ele>259.224619</ele>
        <time>2021-04-29T05:52:09.364Z</time>
      </trkpt>
      <trkpt lat="47.24791" lon="6.03651">
        <ele>259.412994</ele>
        <time>2021-04-29T05:52:12.393Z</time>
      </trkpt>
      <trkpt lat="47.24793" lon="6.03649">
        <ele>259.465899</ele>
        <time>2021-04-29T05:52:13.331Z</time>
      </trkpt>
      <trkpt lat="47.24802" lon="6.03652">
        <ele>259.635465</ele>
        <time>2021-04-29T05:52:16.276Z</time>
      </trkpt>
      <trkpt lat="47.24811" lon="6.03652">
        <ele>259.79835</ele>
        <time>2021-04-29T05:52:19.129Z</time>
      </trkpt>
      <trkpt lat="47.24813" lon="6.03652">
        <ele>259.839147</ele>
        <time>2021-04-29T05:52:19.894Z</time>
      </trkpt>
      <trkpt lat="47.24821" lon="6.03651">
        <ele>259.979956</ele>
        <time>2021-04-29T05:52:22.282Z</time>
      </trkpt>
      <trkpt lat="47.2485" lon="6.0365">
        <ele>260.527999</ele>
        <time>2021-04-29T05:52:32.931Z</time>
      </trkpt>
      <trkpt lat="47.24882" lon="6.03649">
        <ele>261.116781</ele>
        <time>2021-04-29T05:52:45.298Z</time>
      </trkpt>
      <trkpt lat="47.24932" lon="6.03664">
        <ele>262.700184</ele>
        <time>2021-04-29T05:53:07.678Z</time>
      </trkpt>
      <trkpt lat="47.24953" lon="6.03672">
        <ele>263.745979</ele>
        <time>2021-04-29T05:53:18.925Z</time>
      </trkpt>
      <trkpt lat="47.24962" lon="6.03676">
        <ele>264.194499</ele>
        <time>2021-04-29T05:53:23.524Z</time>
      </trkpt>
      <trkpt lat="47.2501" lon="6.03697">
        <ele>266.585144</ele>
        <time>2021-04-29T05:53:49.412Z</time>
      </trkpt>
      <trkpt lat="47.25014" lon="6.03699">
        <ele>266.797724</ele>
        <time>2021-04-29T05:53:51.726Z</time>
      </trkpt>
      <trkpt lat="47.25024" lon="6.03705">
        <ele>267.279341</ele>
        <time>2021-04-29T05:53:56.774Z</time>
      </trkpt>
      <trkpt lat="47.25036" lon="6.03713">
        <ele>267.944571</ele>
        <time>2021-04-29T05:54:03.624Z</time>
      </trkpt>
      <trkpt lat="47.25063" lon="6.0373">
        <ele>269.306534</ele>
        <time>2021-04-29T05:54:18.206Z</time>
      </trkpt>
      <trkpt lat="47.25089" lon="6.03747">
        <ele>270.618778</ele>
        <time>2021-04-29T05:54:33.869Z</time>
      </trkpt>
      <trkpt lat="47.25099" lon="6.03753">
        <ele>271.09365</ele>
        <time>2021-04-29T05:54:39.331Z</time>
      </trkpt>
      <trkpt lat="47.25118" lon="6.03765">
        <ele>271.955048</ele>
        <time>2021-04-29T05:54:50.343Z</time>
      </trkpt>
      <trkpt lat="47.25132" lon="6.03776">
        <ele>272.634308</ele>
        <time>2021-04-29T05:54:57.875Z</time>
      </trkpt>
      <trkpt lat="47.25141" lon="6.03786">
        <ele>273.090302</ele>
        <time>2021-04-29T05:55:03.908Z</time>
      </trkpt>
      <trkpt lat="47.25189" lon="6.03835">
        <ele>275.600737</ele>
        <time>2021-04-29T05:55:30.911Z</time>
      </trkpt>
      <trkpt lat="47.25197" lon="6.03838">
        <ele>275.953167</ele>
        <time>2021-04-29T05:55:34.892Z</time>
      </trkpt>
      <trkpt lat="47.25199" lon="6.03849">
        <ele>276.262611</ele>
        <time>2021-04-29T05:55:38.212Z</time>
      </trkpt>
      <trkpt lat="47.25203" lon="6.0386">
        <ele>276.642026</ele>
        <time>2021-04-29T05:55:42.299Z</time>
      </trkpt>
      <trkpt lat="47.25238" lon="6.03912">
        <ele>278.391872</ele>
        <time>2021-04-29T05:56:02.435Z</time>
      </trkpt>
      <trkpt lat="47.25245" lon="6.03921">
        <ele>278.620176</ele>
        <time>2021-04-29T05:56:06.663Z</time>
      </trkpt>
      <trkpt lat="47.25264" lon="6.03948">
        <ele>279.2889</ele>
        <time>2021-04-29T05:56:16.662Z</time>
      </trkpt>
      <trkpt lat="47.25284" lon="6.03977">
        <ele>280.001376</ele>
        <time>2021-04-29T05:56:27.907Z</time>
      </trkpt>
      <trkpt lat="47.25293" lon="6.03991">
        <ele>280.327451</ele>
        <time>2021-04-29T05:56:32.843Z</time>
      </trkpt>
      <trkpt lat="47.25312" lon="6.04019">
        <ele>280.998193</ele>
        <time>2021-04-29T05:56:43.004Z</time>
      </trkpt>
      <trkpt lat="47.25348" lon="6.04074">
        <ele>282.302487</ele>
        <time>2021-04-29T05:57:02.333Z</time>
      </trkpt>
      <trkpt lat="47.25365" lon="6.04101">
        <ele>282.821888</ele>
        <time>2021-04-29T05:57:11.150Z</time>
      </trkpt>
      <trkpt lat="47.25367" lon="6.04103">
        <ele>282.867691</ele>
        <time>2021-04-29T05:57:11.912Z</time>
      </trkpt>
      <trkpt lat="47.25397" lon="6.0415">
        <ele>283.752469</ele>
        <time>2021-04-29T05:57:27.754Z</time>
      </trkpt>
      <trkpt lat="47.25508" lon="6.04304">
        <ele>287.117542</ele>
        <time>2021-04-29T05:58:22.911Z</time>
      </trkpt>
      <trkpt lat="47.25528" lon="6.0433">
        <ele>287.874586</ele>
        <time>2021-04-29T05:58:33.525Z</time>
      </trkpt>
      <trkpt lat="47.25547" lon="6.04357">
        <ele>288.596366</ele>
        <time>2021-04-29T05:58:43.788Z</time>
      </trkpt>
      <trkpt lat="47.25595" lon="6.04425">
        <ele>290.442728</ele>
        <time>2021-04-29T05:59:11.630Z</time>
      </trkpt>
      <trkpt lat="47.25599" lon="6.04431">
        <ele>290.610797</ele>
        <time>2021-04-29T05:59:14.187Z</time>
      </trkpt>
      <trkpt lat="47.25601" lon="6.04434">
        <ele>290.689586</ele>
        <time>2021-04-29T05:59:15.435Z</time>
      </trkpt>
      <trkpt lat="47.25605" lon="6.04439">
        <ele>290.823896</ele>
        <time>2021-04-29T05:59:17.612Z</time>
      </trkpt>
      <trkpt lat="47.25609" lon="6.04445">
        <ele>290.999898</ele>
        <time>2021-04-29T05:59:20.438Z</time>
      </trkpt>
      <trkpt lat="47.25614" lon="6.04452">
        <ele>291.25551</ele>
        <time>2021-04-29T05:59:23.406Z</time>
      </trkpt>
      <trkpt lat="47.25616" lon="6.04455">
        <ele>291.381113</ele>
        <time>2021-04-29T05:59:24.734Z</time>
      </trkpt>
      <trkpt lat="47.25621" lon="6.04463">
        <ele>291.659492</ele>
        <time>2021-04-29T05:59:27.851Z</time>
      </trkpt>
      <trkpt lat="47.25626" lon="6.04468">
        <ele>291.886973</ele>
        <time>2021-04-29T05:59:30.390Z</time>
      </trkpt>
      <trkpt lat="47.2563" lon="6.04474">
        <ele>292.105366</ele>
        <time>2021-04-29T05:59:32.930Z</time>
      </trkpt>
      <trkpt lat="47.25633" lon="6.04478">
        <ele>292.283407</ele>
        <time>2021-04-29T05:59:35.003Z</time>
      </trkpt>
      <trkpt lat="47.25638" lon="6.04484">
        <ele>292.50523</ele>
        <time>2021-04-29T05:59:37.560Z</time>
      </trkpt>
      <trkpt lat="47.25652" lon="6.04501">
        <ele>293.232388</ele>
        <time>2021-04-29T05:59:45.818Z</time>
      </trkpt>
      <trkpt lat="47.25666" lon="6.04519">
        <ele>293.959215</ele>
        <time>2021-04-29T05:59:54.556Z</time>
      </trkpt>
      <trkpt lat="47.25699" lon="6.04556">
        <ele>295.572196</ele>
        <time>2021-04-29T06:00:13.887Z</time>
      </trkpt>
      <trkpt lat="47.25732" lon="6.04597">
        <ele>297.270389</ele>
        <time>2021-04-29T06:00:34.752Z</time>
      </trkpt>
      <trkpt lat="47.25748" lon="6.04614">
        <ele>298.002728</ele>
        <time>2021-04-29T06:00:43.033Z</time>
      </trkpt>
      <trkpt lat="47.25763" lon="6.04633">
        <ele>298.718924</ele>
        <time>2021-04-29T06:00:52.055Z</time>
      </trkpt>
      <trkpt lat="47.25789" lon="6.04664">
        <ele>299.940568</ele>
        <time>2021-04-29T06:01:07.041Z</time>
      </trkpt>
      <trkpt lat="47.25795" lon="6.04669">
        <ele>300.196951</ele>
        <time>2021-04-29T06:01:09.851Z</time>
      </trkpt>
      <trkpt lat="47.25797" lon="6.04671">
        <ele>300.283184</ele>
        <time>2021-04-29T06:01:11.180Z</time>
      </trkpt>
      <trkpt lat="47.25801" lon="6.04673">
        <ele>300.416598</ele>
        <time>2021-04-29T06:01:12.684Z</time>
      </trkpt>
      <trkpt lat="47.2581" lon="6.04675">
        <ele>300.734703</ele>
        <time>2021-04-29T06:01:16.274Z</time>
      </trkpt>
      <trkpt lat="47.25817" lon="6.04676">
        <ele>301.008612</ele>
        <time>2021-04-29T06:01:19.383Z</time>
      </trkpt>
      <trkpt lat="47.2582" lon="6.04676">
        <ele>301.120286</ele>
        <time>2021-04-29T06:01:21.189Z</time>
      </trkpt>
      <trkpt lat="47.2587" lon="6.04681">
        <ele>302.924567</ele>
        <time>2021-04-29T06:01:42.746Z</time>
      </trkpt>
      <trkpt lat="47.25899" lon="6.04694">
        <ele>303.992666</ele>
        <time>2021-04-29T06:01:55.670Z</time>
      </trkpt>
      <trkpt lat="47.25962" lon="6.0474">
        <ele>306.684066</ele>
        <time>2021-04-29T06:02:26.643Z</time>
      </trkpt>
      <trkpt lat="47.26025" lon="6.04792">
        <ele>309.517287</ele>
        <time>2021-04-29T06:02:58.496Z</time>
      </trkpt>
      <trkpt lat="47.26033" lon="6.048">
        <ele>309.87815</ele>
        <time>2021-04-29T06:03:02.911Z</time>
      </trkpt>
      <trkpt lat="47.26102" lon="6.04858">
        <ele>312.926605</ele>
        <time>2021-04-29T06:03:42.519Z</time>
      </trkpt>
      <trkpt lat="47.2614" lon="6.04891">
        <ele>314.545166</ele>
        <time>2021-04-29T06:04:03.276Z</time>
      </trkpt>
      <trkpt lat="47.26147" lon="6.04899">
        <ele>314.867411</ele>
        <time>2021-04-29T06:04:07.227Z</time>
      </trkpt>
      <trkpt lat="47.26163" lon="6.0491">
        <ele>315.524959</ele>
        <time>2021-04-29T06:04:14.748Z</time>
      </trkpt>
      <trkpt lat="47.26174" lon="6.04919">
        <ele>315.987788</ele>
        <time>2021-04-29T06:04:20.245Z</time>
      </trkpt>
      <trkpt lat="47.26189" lon="6.04944">
        <ele>316.833057</ele>
        <time>2021-04-29T06:04:29.194Z</time>
      </trkpt>
      <trkpt lat="47.26195" lon="6.04953">
        <ele>317.144208</ele>
        <time>2021-04-29T06:04:32.602Z</time>
      </trkpt>
      <trkpt lat="47.26197" lon="6.04958">
        <ele>317.30269</ele>
        <time>2021-04-29T06:04:34.468Z</time>
      </trkpt>
      <trkpt lat="47.26196" lon="6.04964">
        <ele>317.44775</ele>
        <time>2021-04-29T06:04:35.980Z</time>
      </trkpt>
      <trkpt lat="47.26196" lon="6.04969">
        <ele>317.593804</ele>
        <time>2021-04-29T06:04:37.545Z</time>
      </trkpt>
      <trkpt lat="47.26196" lon="6.04975">
        <ele>317.739249</ele>
        <time>2021-04-29T06:04:39.117Z</time>
      </trkpt>
      <trkpt lat="47.26199" lon="6.04982">
        <ele>317.93393</ele>
        <time>2021-04-29T06:04:41.444Z</time>
      </trkpt>
      <trkpt lat="47.26204" lon="6.04989">
        <ele>318.148443</ele>
        <time>2021-04-29T06:04:44.368Z</time>
      </trkpt>
      <trkpt lat="47.26206" lon="6.0499">
        <ele>318.138237</ele>
        <time>2021-04-29T06:04:45.426Z</time>
      </trkpt>
      <trkpt lat="47.2621" lon="6.04991">
        <ele>318.118444</ele>
        <time>2021-04-29T06:04:47.173Z</time>
      </trkpt>
      <trkpt lat="47.26215" lon="6.04991">
        <ele>318.095383</ele>
        <time>2021-04-29T06:04:49.353Z</time>
      </trkpt>
      <trkpt lat="47.26219" lon="6.04988">
        <ele>318.07227</ele>
        <time>2021-04-29T06:04:51.389Z</time>
      </trkpt>
      <trkpt lat="47.26229" lon="6.04998">
        <ele>318.011993</ele>
        <time>2021-04-29T06:04:57.125Z</time>
      </trkpt>
      <trkpt lat="47.26246" lon="6.05026">
        <ele>317.882735</ele>
        <time>2021-04-29T06:05:05.249Z</time>
      </trkpt>
      <trkpt lat="47.2625" lon="6.05035">
        <ele>317.848193</ele>
        <time>2021-04-29T06:05:07.901Z</time>
      </trkpt>
      <trkpt lat="47.26249" lon="6.05044">
        <ele>317.817303</ele>
        <time>2021-04-29T06:05:10.524Z</time>
      </trkpt>
      <trkpt lat="47.2625" lon="6.05053">
        <ele>317.785689</ele>
        <time>2021-04-29T06:05:14.073Z</time>
      </trkpt>
      <trkpt lat="47.26254" lon="6.05078">
        <ele>317.699196</ele>
        <time>2021-04-29T06:05:20.626Z</time>
      </trkpt>
      <trkpt lat="47.26255" lon="6.05102">
        <ele>317.616404</ele>
        <time>2021-04-29T06:05:28.616Z</time>
      </trkpt>
      <trkpt lat="47.26255" lon="6.05127">
        <ele>317.532254</ele>
        <time>2021-04-29T06:05:34.529Z</time>
      </trkpt>
      <trkpt lat="47.26253" lon="6.05155">
        <ele>317.43571</ele>
        <time>2021-04-29T06:05:42.359Z</time>
      </trkpt>
      <trkpt lat="47.26252" lon="6.05158">
        <ele>317.421078</ele>
        <time>2021-04-29T06:05:43.220Z</time>
      </trkpt>
      <trkpt lat="47.2624" lon="6.05186">
        <ele>317.312893</ele>
        <time>2021-04-29T06:05:47.361Z</time>
      </trkpt>
      <trkpt lat="47.26239" lon="6.0519">
        <ele>317.295856</ele>
        <time>2021-04-29T06:05:48.237Z</time>
      </trkpt>
      <trkpt lat="47.26237" lon="6.052">
        <ele>317.260482</ele>
        <time>2021-04-29T06:05:49.697Z</time>
      </trkpt>
      <trkpt lat="47.26236" lon="6.05205">
        <ele>317.106762</ele>
        <time>2021-04-29T06:05:50.592Z</time>
      </trkpt>
      <trkpt lat="47.26242" lon="6.05214">
        <ele>316.59646</ele>
        <time>2021-04-29T06:05:52.014Z</time>
      </trkpt>
      <trkpt lat="47.26267" lon="6.05261">
        <ele>314.085079</ele>
        <time>2021-04-29T06:05:59.902Z</time>
      </trkpt>
      <trkpt lat="47.26296" lon="6.05341">
        <ele>310.284541</ele>
        <time>2021-04-29T06:06:11.387Z</time>
      </trkpt>
      <trkpt lat="47.26306" lon="6.05386">
        <ele>308.287733</ele>
        <time>2021-04-29T06:06:17.126Z</time>
      </trkpt>
      <trkpt lat="47.26318" lon="6.05512">
        <ele>302.448955</ele>
        <time>2021-04-29T06:06:32.254Z</time>
      </trkpt>
      <trkpt lat="47.26319" lon="6.05517">
        <ele>302.177735</ele>
        <time>2021-04-29T06:06:32.868Z</time>
      </trkpt>
      <trkpt lat="47.26322" lon="6.05517">
        <ele>301.959007</ele>
        <time>2021-04-29T06:06:33.400Z</time>
      </trkpt>
      <trkpt lat="47.26323" lon="6.05516">
        <ele>301.835497</ele>
        <time>2021-04-29T06:06:33.709Z</time>
      </trkpt>
      <trkpt lat="47.2633" lon="6.05569">
        <ele>299.216755</ele>
        <time>2021-04-29T06:06:39.971Z</time>
      </trkpt>
      <trkpt lat="47.26333" lon="6.05568">
        <ele>298.990964</ele>
        <time>2021-04-29T06:06:40.538Z</time>
      </trkpt>
      <trkpt lat="47.26336" lon="6.05567">
        <ele>298.74313</ele>
        <time>2021-04-29T06:06:41.149Z</time>
      </trkpt>
      <trkpt lat="47.26339" lon="6.05567">
        <ele>298.531458</ele>
        <time>2021-04-29T06:06:41.685Z</time>
      </trkpt>
      <trkpt lat="47.2634" lon="6.05573">
        <ele>298.208469</ele>
        <time>2021-04-29T06:06:42.484Z</time>
      </trkpt>
      <trkpt lat="47.26341" lon="6.05577">
        <ele>298.039089</ele>
        <time>2021-04-29T06:06:43.236Z</time>
      </trkpt>
      <trkpt lat="47.26343" lon="6.05586">
        <ele>297.547536</ele>
        <time>2021-04-29T06:06:45.481Z</time>
      </trkpt>
      <trkpt lat="47.26348" lon="6.05585">
        <ele>297.209461</ele>
        <time>2021-04-29T06:06:46.868Z</time>
      </trkpt>
      <trkpt lat="47.26355" lon="6.05826">
        <ele>286.808515</ele>
        <time>2021-04-29T06:07:15.702Z</time>
      </trkpt>
      <trkpt lat="47.26355" lon="6.05882">
        <ele>284.546577</ele>
        <time>2021-04-29T06:07:22.423Z</time>
      </trkpt>
      <trkpt lat="47.26343" lon="6.05948">
        <ele>281.827544</ele>
        <time>2021-04-29T06:07:30.648Z</time>
      </trkpt>
      <trkpt lat="47.26306" lon="6.06042">
        <ele>277.687448</ele>
        <time>2021-04-29T06:07:43.642Z</time>
      </trkpt>
      <trkpt lat="47.26299" lon="6.06061">
        <ele>276.87874</ele>
        <time>2021-04-29T06:07:46.145Z</time>
      </trkpt>
      <trkpt lat="47.2629" lon="6.0608">
        <ele>275.989635</ele>
        <time>2021-04-29T06:07:48.969Z</time>
      </trkpt>
      <trkpt lat="47.26296" lon="6.06087">
        <ele>275.587988</ele>
        <time>2021-04-29T06:07:51.496Z</time>
      </trkpt>
      <trkpt lat="47.26303" lon="6.06091">
        <ele>275.128349</ele>
        <time>2021-04-29T06:07:54.193Z</time>
      </trkpt>
      <trkpt lat="47.26304" lon="6.06101">
        <ele>274.769902</ele>
        <time>2021-04-29T06:07:55.356Z</time>
      </trkpt>
      <trkpt lat="47.26305" lon="6.06111">
        <ele>274.384794</ele>
        <time>2021-04-29T06:07:56.680Z</time>
      </trkpt>
      <trkpt lat="47.26307" lon="6.06118">
        <ele>274.082153</ele>
        <time>2021-04-29T06:07:57.682Z</time>
      </trkpt>
      <trkpt lat="47.26304" lon="6.06142">
        <ele>273.181021</ele>
        <time>2021-04-29T06:08:00.896Z</time>
      </trkpt>
      <trkpt lat="47.26308" lon="6.06167">
        <ele>272.287796</ele>
        <time>2021-04-29T06:08:04.119Z</time>
      </trkpt>
      <trkpt lat="47.26312" lon="6.0619">
        <ele>271.650449</ele>
        <time>2021-04-29T06:08:07.454Z</time>
      </trkpt>
      <trkpt lat="47.26314" lon="6.06198">
        <ele>271.438714</ele>
        <time>2021-04-29T06:08:08.467Z</time>
      </trkpt>
      <trkpt lat="47.26317" lon="6.06211">
        <ele>271.076843</ele>
        <time>2021-04-29T06:08:10.265Z</time>
      </trkpt>
      <trkpt lat="47.26367" lon="6.06462">
        <ele>264.070909</ele>
        <time>2021-04-29T06:08:46.317Z</time>
      </trkpt>
      <trkpt lat="47.26377" lon="6.06477">
        <ele>263.443893</ele>
        <time>2021-04-29T06:08:49.089Z</time>
      </trkpt>
      <trkpt lat="47.26374" lon="6.06499">
        <ele>262.788332</ele>
        <time>2021-04-29T06:08:52.275Z</time>
      </trkpt>
      <trkpt lat="47.26376" lon="6.06512">
        <ele>262.387752</ele>
        <time>2021-04-29T06:08:54.024Z</time>
      </trkpt>
      <trkpt lat="47.26372" lon="6.06515">
        <ele>262.165562</ele>
        <time>2021-04-29T06:08:55.748Z</time>
      </trkpt>
      <trkpt lat="47.26365" lon="6.06518">
        <ele>261.883947</ele>
        <time>2021-04-29T06:08:57.778Z</time>
      </trkpt>
      <trkpt lat="47.26379" lon="6.06589">
        <ele>259.696176</ele>
        <time>2021-04-29T06:09:14.620Z</time>
      </trkpt>
      <trkpt lat="47.26381" lon="6.0661">
        <ele>259.064359</ele>
        <time>2021-04-29T06:09:19.311Z</time>
      </trkpt>
      <trkpt lat="47.26382" lon="6.06619">
        <ele>258.805935</ele>
        <time>2021-04-29T06:09:21.167Z</time>
      </trkpt>
      <trkpt lat="47.26383" lon="6.06642">
        <ele>258.121419</ele>
        <time>2021-04-29T06:09:26.645Z</time>
      </trkpt>
      <trkpt lat="47.26381" lon="6.06643">
        <ele>258.038655</ele>
        <time>2021-04-29T06:09:26.986Z</time>
      </trkpt>
      <trkpt lat="47.26378" lon="6.06651">
        <ele>257.778563</ele>
        <time>2021-04-29T06:09:28.053Z</time>
      </trkpt>
      <trkpt lat="47.26378" lon="6.06655">
        <ele>257.647222</ele>
        <time>2021-04-29T06:09:28.588Z</time>
      </trkpt>
      <trkpt lat="47.26379" lon="6.06659">
        <ele>257.527644</ele>
        <time>2021-04-29T06:09:29.138Z</time>
      </trkpt>
      <trkpt lat="47.2638" lon="6.06663">
        <ele>257.407379</ele>
        <time>2021-04-29T06:09:29.661Z</time>
      </trkpt>
      <trkpt lat="47.26383" lon="6.06666">
        <ele>257.283731</ele>
        <time>2021-04-29T06:09:30.173Z</time>
      </trkpt>
      <trkpt lat="47.26384" lon="6.06676">
        <ele>257.016854</ele>
        <time>2021-04-29T06:09:31.405Z</time>
      </trkpt>
      <trkpt lat="47.26384" lon="6.06683">
        <ele>256.824929</ele>
        <time>2021-04-29T06:09:32.368Z</time>
      </trkpt>
      <trkpt lat="47.26382" lon="6.06696">
        <ele>256.460407</ele>
        <time>2021-04-29T06:09:34.040Z</time>
      </trkpt>
      <trkpt lat="47.26377" lon="6.06712">
        <ele>255.976501</ele>
        <time>2021-04-29T06:09:36.174Z</time>
      </trkpt>
      <trkpt lat="47.26374" lon="6.06724">
        <ele>255.61244</ele>
        <time>2021-04-29T06:09:37.787Z</time>
      </trkpt>
      <trkpt lat="47.26371" lon="6.06736">
        <ele>255.276144</ele>
        <time>2021-04-29T06:09:39.442Z</time>
      </trkpt>
      <trkpt lat="47.26368" lon="6.06746">
        <ele>254.966395</ele>
        <time>2021-04-29T06:09:40.887Z</time>
      </trkpt>
      <trkpt lat="47.26364" lon="6.06754">
        <ele>254.702983</ele>
        <time>2021-04-29T06:09:42.091Z</time>
      </trkpt>
      <trkpt lat="47.26372" lon="6.06759">
        <ele>254.369334</ele>
        <time>2021-04-29T06:09:43.609Z</time>
      </trkpt>
      <trkpt lat="47.26459" lon="6.0682">
        <ele>250.472786</ele>
        <time>2021-04-29T06:10:01.925Z</time>
      </trkpt>
      <trkpt lat="47.26514" lon="6.0689">
        <ele>249.003836</ele>
        <time>2021-04-29T06:10:16.873Z</time>
      </trkpt>
      <trkpt lat="47.26516" lon="6.06893">
        <ele>248.939775</ele>
        <time>2021-04-29T06:10:17.497Z</time>
      </trkpt>
      <trkpt lat="47.26535" lon="6.06944">
        <ele>248.157061</ele>
        <time>2021-04-29T06:10:26.040Z</time>
      </trkpt>
      <trkpt lat="47.26586" lon="6.0709">
        <ele>246.523411</ele>
        <time>2021-04-29T06:10:50.971Z</time>
      </trkpt>
      <trkpt lat="47.26577" lon="6.07097">
        <ele>246.454798</ele>
        <time>2021-04-29T06:10:53.365Z</time>
      </trkpt>
      <trkpt lat="47.26582" lon="6.07105">
        <ele>246.403995</ele>
        <time>2021-04-29T06:10:55.118Z</time>
      </trkpt>
      <trkpt lat="47.26594" lon="6.07118">
        <ele>246.304043</ele>
        <time>2021-04-29T06:10:58.378Z</time>
      </trkpt>
      <trkpt lat="47.26583" lon="6.07127">
        <ele>246.214336</ele>
        <time>2021-04-29T06:11:01.818Z</time>
      </trkpt>
      <trkpt lat="47.26569" lon="6.07136">
        <ele>246.109296</ele>
        <time>2021-04-29T06:11:05.773Z</time>
      </trkpt>
      <trkpt lat="47.26572" lon="6.07147">
        <ele>246.05097</ele>
        <time>2021-04-29T06:11:07.694Z</time>
      </trkpt>
      <trkpt lat="47.26581" lon="6.07154">
        <ele>245.984001</ele>
        <time>2021-04-29T06:11:10.259Z</time>
      </trkpt>
      <trkpt lat="47.2658" lon="6.07161">
        <ele>245.95242</ele>
        <time>2021-04-29T06:11:11.578Z</time>
      </trkpt>
      <trkpt lat="47.26582" lon="6.07167">
        <ele>245.920748</ele>
        <time>2021-04-29T06:11:12.854Z</time>
      </trkpt>
      <trkpt lat="47.26584" lon="6.07191">
        <ele>245.804518</ele>
        <time>2021-04-29T06:11:18.331Z</time>
      </trkpt>
      <trkpt lat="47.26627" lon="6.07325">
        <ele>245.446834</ele>
        <time>2021-04-29T06:11:53.158Z</time>
      </trkpt>
      <trkpt lat="47.26633" lon="6.07329">
        <ele>245.432894</ele>
        <time>2021-04-29T06:11:55.389Z</time>
      </trkpt>
      <trkpt lat="47.26642" lon="6.07322">
        <ele>245.41271</ele>
        <time>2021-04-29T06:11:58.664Z</time>
      </trkpt>
      <trkpt lat="47.26657" lon="6.07322">
        <ele>245.381142</ele>
        <time>2021-04-29T06:12:02.683Z</time>
      </trkpt>
      <trkpt lat="47.26662" lon="6.07322">
        <ele>245.371651</ele>
        <time>2021-04-29T06:12:03.857Z</time>
      </trkpt>
      <trkpt lat="47.26704" lon="6.07438">
        <ele>245.182767</ele>
        <time>2021-04-29T06:12:26.956Z</time>
      </trkpt>
      <trkpt lat="47.26745" lon="6.0751">
        <ele>245.03201</ele>
        <time>2021-04-29T06:12:43.257Z</time>
      </trkpt>
      <trkpt lat="47.2678" lon="6.07556">
        <ele>244.921319</ele>
        <time>2021-04-29T06:12:54.998Z</time>
      </trkpt>
      <trkpt lat="47.26941" lon="6.07734">
        <ele>244.524586</ele>
        <time>2021-04-29T06:13:47.144Z</time>
      </trkpt>
      <trkpt lat="47.26996" lon="6.07815">
        <ele>244.381271</ele>
        <time>2021-04-29T06:14:07.579Z</time>
      </trkpt>
      <trkpt lat="47.27045" lon="6.07915">
        <ele>244.226142</ele>
        <time>2021-04-29T06:14:29.254Z</time>
      </trkpt>
      <trkpt lat="47.27086" lon="6.08038">
        <ele>244.037066</ele>
        <time>2021-04-29T06:14:53.256Z</time>
      </trkpt>
      <trkpt lat="47.27119" lon="6.082">
        <ele>243.784153</ele>
        <time>2021-04-29T06:15:22.537Z</time>
      </trkpt>
      <trkpt lat="47.27137" lon="6.08368">
        <ele>243.70305</ele>
        <time>2021-04-29T06:15:53.001Z</time>
      </trkpt>
      <trkpt lat="47.27137" lon="6.08406">
        <ele>243.694835</ele>
        <time>2021-04-29T06:15:59.885Z</time>
      </trkpt>
      <trkpt lat="47.2713" lon="6.08436">
        <ele>243.68796</ele>
        <time>2021-04-29T06:16:05.626Z</time>
      </trkpt>
      <trkpt lat="47.27122" lon="6.08448">
        <ele>243.684252</ele>
        <time>2021-04-29T06:16:08.813Z</time>
      </trkpt>
      <trkpt lat="47.27123" lon="6.08455">
        <ele>243.682825</ele>
        <time>2021-04-29T06:16:11.946Z</time>
      </trkpt>
      <trkpt lat="47.27111" lon="6.08464">
        <ele>243.678591</ele>
        <time>2021-04-29T06:16:15.498Z</time>
      </trkpt>
      <trkpt lat="47.271" lon="6.08473">
        <ele>243.67851</ele>
        <time>2021-04-29T06:16:18.798Z</time>
      </trkpt>
      <trkpt lat="47.27086" lon="6.08477">
        <ele>243.708998</ele>
        <time>2021-04-29T06:16:22.869Z</time>
      </trkpt>
      <trkpt lat="47.27078" lon="6.08478">
        <ele>243.72446</ele>
        <time>2021-04-29T06:16:24.866Z</time>
      </trkpt>
      <trkpt lat="47.27081" lon="6.08484">
        <ele>243.733968</ele>
        <time>2021-04-29T06:16:26.099Z</time>
      </trkpt>
      <trkpt lat="47.27082" lon="6.08501">
        <ele>243.757973</ele>
        <time>2021-04-29T06:16:29.207Z</time>
      </trkpt>
      <trkpt lat="47.27091" lon="6.08603">
        <ele>243.901511</ele>
        <time>2021-04-29T06:16:48.504Z</time>
      </trkpt>
      <trkpt lat="47.27088" lon="6.08726">
        <ele>244.13298</ele>
        <time>2021-04-29T06:17:12.080Z</time>
      </trkpt>
      <trkpt lat="47.27005" lon="6.09289">
        <ele>246.462406</ele>
        <time>2021-04-29T06:19:09.764Z</time>
      </trkpt>
      <trkpt lat="47.26984" lon="6.09486">
        <ele>246.560814</ele>
        <time>2021-04-29T06:19:45.221Z</time>
      </trkpt>
      <trkpt lat="47.26982" lon="6.09668">
        <ele>246.318956</ele>
        <time>2021-04-29T06:20:16.671Z</time>
      </trkpt>
      <trkpt lat="47.26993" lon="6.09881">
        <ele>246.296825</ele>
        <time>2021-04-29T06:20:55.608Z</time>
      </trkpt>
      <trkpt lat="47.26988" lon="6.09985">
        <ele>246.364838</ele>
        <time>2021-04-29T06:21:15.246Z</time>
      </trkpt>
      <trkpt lat="47.26917" lon="6.10408">
        <ele>246.622551</ele>
        <time>2021-04-29T06:22:35.525Z</time>
      </trkpt>
      <trkpt lat="47.26905" lon="6.10523">
        <ele>246.694489</ele>
        <time>2021-04-29T06:22:56.988Z</time>
      </trkpt>
      <trkpt lat="47.26902" lon="6.10674">
        <ele>246.764254</ele>
        <time>2021-04-29T06:23:24.743Z</time>
      </trkpt>
      <trkpt lat="47.26906" lon="6.10801">
        <ele>246.822102</ele>
        <time>2021-04-29T06:23:47.835Z</time>
      </trkpt>
      <trkpt lat="47.26923" lon="6.10957">
        <ele>246.907961</ele>
        <time>2021-04-29T06:24:17.043Z</time>
      </trkpt>
      <trkpt lat="47.26942" lon="6.11062">
        <ele>246.960493</ele>
        <time>2021-04-29T06:24:37.279Z</time>
      </trkpt>
      <trkpt lat="47.2695" lon="6.11093">
        <ele>246.947079</ele>
        <time>2021-04-29T06:24:43.561Z</time>
      </trkpt>
      <trkpt lat="47.26959" lon="6.11128">
        <ele>246.93216</ele>
        <time>2021-04-29T06:24:50.279Z</time>
      </trkpt>
      <trkpt lat="47.27014" lon="6.11278">
        <ele>246.863925</ele>
        <time>2021-04-29T06:25:20.854Z</time>
      </trkpt>
      <trkpt lat="47.27049" lon="6.11348">
        <ele>246.772708</ele>
        <time>2021-04-29T06:25:35.940Z</time>
      </trkpt>
      <trkpt lat="47.27086" lon="6.11408">
        <ele>246.67633</ele>
        <time>2021-04-29T06:25:49.908Z</time>
      </trkpt>
      <trkpt lat="47.2715" lon="6.11485">
        <ele>246.57475</ele>
        <time>2021-04-29T06:26:11.070Z</time>
      </trkpt>
      <trkpt lat="47.27255" lon="6.11586">
        <ele>247.307468</ele>
        <time>2021-04-29T06:26:46.931Z</time>
      </trkpt>
      <trkpt lat="47.27272" lon="6.11604">
        <ele>247.42933</ele>
        <time>2021-04-29T06:26:53.397Z</time>
      </trkpt>
      <trkpt lat="47.27283" lon="6.11612">
        <ele>247.500993</ele>
        <time>2021-04-29T06:26:57.661Z</time>
      </trkpt>
      <trkpt lat="47.2731" lon="6.11638">
        <ele>247.739092</ele>
        <time>2021-04-29T06:27:08.684Z</time>
      </trkpt>
      <trkpt lat="47.27319" lon="6.11651">
        <ele>247.851508</ele>
        <time>2021-04-29T06:27:12.877Z</time>
      </trkpt>
      <trkpt lat="47.27346" lon="6.11684">
        <ele>248.160537</ele>
        <time>2021-04-29T06:27:24.388Z</time>
      </trkpt>
      <trkpt lat="47.27371" lon="6.11712">
        <ele>248.440045</ele>
        <time>2021-04-29T06:27:34.738Z</time>
      </trkpt>
      <trkpt lat="47.27378" lon="6.1172">
        <ele>248.519154</ele>
        <time>2021-04-29T06:27:37.197Z</time>
      </trkpt>
      <trkpt lat="47.274" lon="6.11739">
        <ele>248.744972</ele>
        <time>2021-04-29T06:27:45.588Z</time>
      </trkpt>
      <trkpt lat="47.2741" lon="6.11747">
        <ele>248.850103</ele>
        <time>2021-04-29T06:27:48.842Z</time>
      </trkpt>
      <trkpt lat="47.27424" lon="6.11751">
        <ele>248.973511</ele>
        <time>2021-04-29T06:27:52.850Z</time>
      </trkpt>
      <trkpt lat="47.27434" lon="6.11751">
        <ele>249.063301</ele>
        <time>2021-04-29T06:27:56.286Z</time>
      </trkpt>
      <trkpt lat="47.27442" lon="6.11755">
        <ele>249.135673</ele>
        <time>2021-04-29T06:27:58.363Z</time>
      </trkpt>
      <trkpt lat="47.27553" lon="6.11875">
        <ele>248.776338</ele>
        <time>2021-04-29T06:28:33.652Z</time>
      </trkpt>
      <trkpt lat="47.27699" lon="6.12054">
        <ele>248.010299</ele>
        <time>2021-04-29T06:29:19.160Z</time>
      </trkpt>
      <trkpt lat="47.27818" lon="6.1217">
        <ele>248.486429</ele>
        <time>2021-04-29T06:29:59.747Z</time>
      </trkpt>
      <trkpt lat="47.2789" lon="6.12281">
        <ele>249.143809</ele>
        <time>2021-04-29T06:30:32.900Z</time>
      </trkpt>
      <trkpt lat="47.28023" lon="6.12505">
        <ele>249.843225</ele>
        <time>2021-04-29T06:31:32.833Z</time>
      </trkpt>
      <trkpt lat="47.28046" lon="6.12554">
        <ele>249.607049</ele>
        <time>2021-04-29T06:31:42.404Z</time>
      </trkpt>
      <trkpt lat="47.28065" lon="6.12624">
        <ele>249.310118</ele>
        <time>2021-04-29T06:31:54.107Z</time>
      </trkpt>
      <trkpt lat="47.28084" lon="6.12732">
        <ele>248.796429</ele>
        <time>2021-04-29T06:32:11.005Z</time>
      </trkpt>
      <trkpt lat="47.2809" lon="6.12786">
        <ele>248.504677</ele>
        <time>2021-04-29T06:32:19.429Z</time>
      </trkpt>
      <trkpt lat="47.28095" lon="6.12855">
        <ele>248.14069</ele>
        <time>2021-04-29T06:32:30.153Z</time>
      </trkpt>
      <trkpt lat="47.28112" lon="6.13039">
        <ele>248.322836</ele>
        <time>2021-04-29T06:33:05.116Z</time>
      </trkpt>
      <trkpt lat="47.28123" lon="6.13121">
        <ele>248.848578</ele>
        <time>2021-04-29T06:33:23.649Z</time>
      </trkpt>
      <trkpt lat="47.28128" lon="6.1315">
        <ele>249.031453</ele>
        <time>2021-04-29T06:33:30.425Z</time>
      </trkpt>
      <trkpt lat="47.28129" lon="6.13159">
        <ele>249.088764</ele>
        <time>2021-04-29T06:33:32.554Z</time>
      </trkpt>
      <trkpt lat="47.28147" lon="6.13257">
        <ele>249.74937</ele>
        <time>2021-04-29T06:33:56.527Z</time>
      </trkpt>
      <trkpt lat="47.28165" lon="6.13367">
        <ele>250.502148</ele>
        <time>2021-04-29T06:34:21.863Z</time>
      </trkpt>
      <trkpt lat="47.2817" lon="6.13398">
        <ele>250.716449</ele>
        <time>2021-04-29T06:34:28.598Z</time>
      </trkpt>
      <trkpt lat="47.28183" lon="6.13476">
        <ele>251.022993</ele>
        <time>2021-04-29T06:34:43.675Z</time>
      </trkpt>
      <trkpt lat="47.28192" lon="6.13519">
        <ele>250.813066</ele>
        <time>2021-04-29T06:34:51.332Z</time>
      </trkpt>
      <trkpt lat="47.28225" lon="6.13601">
        <ele>250.362001</ele>
        <time>2021-04-29T06:35:07.018Z</time>
      </trkpt>
      <trkpt lat="47.28415" lon="6.13882">
        <ele>247.674717</ele>
        <time>2021-04-29T06:36:07.540Z</time>
      </trkpt>
      <trkpt lat="47.28441" lon="6.13939">
        <ele>247.619964</ele>
        <time>2021-04-29T06:36:19.335Z</time>
      </trkpt>
      <trkpt lat="47.28456" lon="6.14057">
        <ele>247.525454</ele>
        <time>2021-04-29T06:36:41.356Z</time>
      </trkpt>
      <trkpt lat="47.28457" lon="6.14111">
        <ele>247.505841</ele>
        <time>2021-04-29T06:36:52.088Z</time>
      </trkpt>
      <trkpt lat="47.28473" lon="6.14256">
        <ele>248.238639</ele>
        <time>2021-04-29T06:37:22.492Z</time>
      </trkpt>
      <trkpt lat="47.28488" lon="6.1448">
        <ele>248.997307</ele>
        <time>2021-04-29T06:38:09.040Z</time>
      </trkpt>
      <trkpt lat="47.28506" lon="6.14586">
        <ele>249.189188</ele>
        <time>2021-04-29T06:38:29.497Z</time>
      </trkpt>
      <trkpt lat="47.28514" lon="6.14632">
        <ele>249.253177</ele>
        <time>2021-04-29T06:38:37.648Z</time>
      </trkpt>
      <trkpt lat="47.28519" lon="6.14659">
        <ele>249.116231</ele>
        <time>2021-04-29T06:38:42.159Z</time>
      </trkpt>
      <trkpt lat="47.28536" lon="6.14734">
        <ele>248.733256</ele>
        <time>2021-04-29T06:38:55.374Z</time>
      </trkpt>
      <trkpt lat="47.28558" lon="6.14793">
        <ele>248.409642</ele>
        <time>2021-04-29T06:39:06.101Z</time>
      </trkpt>
      <trkpt lat="47.28564" lon="6.14809">
        <ele>248.322385</ele>
        <time>2021-04-29T06:39:08.798Z</time>
      </trkpt>
      <trkpt lat="47.28579" lon="6.14857">
        <ele>248.065701</ele>
        <time>2021-04-29T06:39:17.086Z</time>
      </trkpt>
      <trkpt lat="47.28632" lon="6.14975">
        <ele>247.502582</ele>
        <time>2021-04-29T06:39:39.980Z</time>
      </trkpt>
      <trkpt lat="47.28672" lon="6.15095">
        <ele>246.987955</ele>
        <time>2021-04-29T06:40:02.550Z</time>
      </trkpt>
      <trkpt lat="47.28709" lon="6.15211">
        <ele>246.972709</ele>
        <time>2021-04-29T06:40:25.569Z</time>
      </trkpt>
      <trkpt lat="47.28718" lon="6.15248">
        <ele>246.976567</ele>
        <time>2021-04-29T06:40:32.732Z</time>
      </trkpt>
      <trkpt lat="47.28807" lon="6.15682">
        <ele>247.608216</ele>
        <time>2021-04-29T06:41:59.047Z</time>
      </trkpt>
      <trkpt lat="47.28855" lon="6.16043">
        <ele>248.220487</ele>
        <time>2021-04-29T06:43:09.202Z</time>
      </trkpt>
      <trkpt lat="47.28897" lon="6.16397">
        <ele>248.460304</ele>
        <time>2021-04-29T06:44:15.315Z</time>
      </trkpt>
      <trkpt lat="47.28911" lon="6.16588">
        <ele>248.418069</ele>
        <time>2021-04-29T06:44:49.870Z</time>
      </trkpt>
      <trkpt lat="47.28923" lon="6.16846">
        <ele>248.473939</ele>
        <time>2021-04-29T06:45:36.603Z</time>
      </trkpt>
      <trkpt lat="47.2897" lon="6.17452">
        <ele>249.257984</ele>
        <time>2021-04-29T06:47:31.254Z</time>
      </trkpt>
      <trkpt lat="47.28982" lon="6.17498">
        <ele>249.356588</ele>
        <time>2021-04-29T06:47:40.866Z</time>
      </trkpt>
      <trkpt lat="47.29012" lon="6.17557">
        <ele>249.505755</ele>
        <time>2021-04-29T06:47:55.181Z</time>
      </trkpt>
      <trkpt lat="47.29014" lon="6.1756">
        <ele>249.512768</ele>
        <time>2021-04-29T06:47:56.335Z</time>
      </trkpt>
      <trkpt lat="47.29012" lon="6.17564">
        <ele>249.524341</ele>
        <time>2021-04-29T06:47:57.477Z</time>
      </trkpt>
      <trkpt lat="47.29008" lon="6.17568">
        <ele>249.537783</ele>
        <time>2021-04-29T06:47:58.720Z</time>
      </trkpt>
      <trkpt lat="47.28999" lon="6.17578">
        <ele>249.571554</ele>
        <time>2021-04-29T06:48:01.857Z</time>
      </trkpt>
      <trkpt lat="47.28998" lon="6.17581">
        <ele>249.579564</ele>
        <time>2021-04-29T06:48:02.641Z</time>
      </trkpt>
      <trkpt lat="47.29031" lon="6.1768">
        <ele>249.780103</ele>
        <time>2021-04-29T06:48:23.682Z</time>
      </trkpt>
      <trkpt lat="47.29053" lon="6.17809">
        <ele>249.922916</ele>
        <time>2021-04-29T06:48:48.603Z</time>
      </trkpt>
      <trkpt lat="47.29069" lon="6.17918">
        <ele>250.042306</ele>
        <time>2021-04-29T06:49:08.899Z</time>
      </trkpt>
      <trkpt lat="47.29073" lon="6.17952">
        <ele>250.06519</ele>
        <time>2021-04-29T06:49:15.340Z</time>
      </trkpt>
      <trkpt lat="47.29078" lon="6.18065">
        <ele>250.139952</ele>
        <time>2021-04-29T06:49:36.273Z</time>
      </trkpt>
      <trkpt lat="47.29073" lon="6.18147">
        <ele>250.194689</ele>
        <time>2021-04-29T06:49:51.762Z</time>
      </trkpt>
      <trkpt lat="47.29047" lon="6.18274">
        <ele>250.271034</ele>
        <time>2021-04-29T06:50:16.195Z</time>
      </trkpt>
      <trkpt lat="47.28979" lon="6.18516">
        <ele>250.378911</ele>
        <time>2021-04-29T06:51:04.183Z</time>
      </trkpt>
      <trkpt lat="47.28928" lon="6.18718">
        <ele>250.437523</ele>
        <time>2021-04-29T06:51:43.074Z</time>
      </trkpt>
      <trkpt lat="47.28891" lon="6.18892">
        <ele>250.557239</ele>
        <time>2021-04-29T06:52:16.608Z</time>
      </trkpt>
      <trkpt lat="47.28877" lon="6.19016">
        <ele>250.836126</ele>
        <time>2021-04-29T06:52:40.479Z</time>
      </trkpt>
      <trkpt lat="47.28873" lon="6.19121">
        <ele>251.138353</ele>
        <time>2021-04-29T06:53:01.193Z</time>
      </trkpt>
      <trkpt lat="47.28886" lon="6.19379">
        <ele>252.162387</ele>
        <time>2021-04-29T06:53:54.109Z</time>
      </trkpt>
      <trkpt lat="47.28908" lon="6.19632">
        <ele>253.118322</ele>
        <time>2021-04-29T06:54:44.897Z</time>
      </trkpt>
      <trkpt lat="47.28928" lon="6.1979">
        <ele>253.740592</ele>
        <time>2021-04-29T06:55:16.332Z</time>
      </trkpt>
      <trkpt lat="47.28958" lon="6.19938">
        <ele>254.400853</ele>
        <time>2021-04-29T06:55:47.543Z</time>
      </trkpt>
      <trkpt lat="47.29007" lon="6.20063">
        <ele>254.907074</ele>
        <time>2021-04-29T06:56:18.024Z</time>
      </trkpt>
      <trkpt lat="47.29003" lon="6.20086">
        <ele>254.984229</ele>
        <time>2021-04-29T06:56:22.539Z</time>
      </trkpt>
      <trkpt lat="47.29007" lon="6.20094">
        <ele>255.015007</ele>
        <time>2021-04-29T06:56:25.157Z</time>
      </trkpt>
      <trkpt lat="47.29021" lon="6.20128">
        <ele>255.145892</ele>
        <time>2021-04-29T06:56:32.535Z</time>
      </trkpt>
      <trkpt lat="47.29066" lon="6.20237">
        <ele>255.286316</ele>
        <time>2021-04-29T06:56:55.400Z</time>
      </trkpt>
      <trkpt lat="47.29088" lon="6.20265">
        <ele>255.150467</ele>
        <time>2021-04-29T06:57:03.050Z</time>
      </trkpt>
      <trkpt lat="47.2912" lon="6.20267">
        <ele>254.998926</ele>
        <time>2021-04-29T06:57:10.758Z</time>
      </trkpt>
      <trkpt lat="47.29133" lon="6.20267">
        <ele>254.940906</ele>
        <time>2021-04-29T06:57:13.624Z</time>
      </trkpt>
      <trkpt lat="47.29135" lon="6.20262">
        <ele>254.920749</ele>
        <time>2021-04-29T06:57:14.663Z</time>
      </trkpt>
      <trkpt lat="47.29139" lon="6.20259">
        <ele>254.901242</ele>
        <time>2021-04-29T06:57:15.664Z</time>
      </trkpt>
      <trkpt lat="47.29144" lon="6.20258">
        <ele>254.878794</ele>
        <time>2021-04-29T06:57:16.756Z</time>
      </trkpt>
      <trkpt lat="47.29195" lon="6.20295">
        <ele>254.611097</ele>
        <time>2021-04-29T06:57:30.516Z</time>
      </trkpt>
      <trkpt lat="47.29226" lon="6.20316">
        <ele>254.542459</ele>
        <time>2021-04-29T06:57:39.029Z</time>
      </trkpt>
      <trkpt lat="47.29242" lon="6.20326">
        <ele>254.522904</ele>
        <time>2021-04-29T06:57:43.127Z</time>
      </trkpt>
      <trkpt lat="47.29244" lon="6.20319">
        <ele>254.517135</ele>
        <time>2021-04-29T06:57:44.434Z</time>
      </trkpt>
      <trkpt lat="47.29252" lon="6.20296">
        <ele>254.496635</ele>
        <time>2021-04-29T06:57:48.979Z</time>
      </trkpt>
      <trkpt lat="47.29255" lon="6.20292">
        <ele>254.492361</ele>
        <time>2021-04-29T06:57:49.949Z</time>
      </trkpt>
      <trkpt lat="47.29294" lon="6.20319">
        <ele>254.44306</ele>
        <time>2021-04-29T06:58:01.657Z</time>
      </trkpt>
      <trkpt lat="47.29301" lon="6.20323">
        <ele>254.433652</ele>
        <time>2021-04-29T06:58:03.738Z</time>
      </trkpt>
      <trkpt lat="47.29325" lon="6.20337">
        <ele>254.404454</ele>
        <time>2021-04-29T06:58:11.092Z</time>
      </trkpt>
      <trkpt lat="47.29349" lon="6.20349">
        <ele>254.375098</ele>
        <time>2021-04-29T06:58:18.032Z</time>
      </trkpt>
      <trkpt lat="47.29352" lon="6.20351">
        <ele>254.370742</ele>
        <time>2021-04-29T06:58:19.176Z</time>
      </trkpt>
      <trkpt lat="47.29389" lon="6.20368">
        <ele>254.306883</ele>
        <time>2021-04-29T06:58:29.745Z</time>
      </trkpt>
      <trkpt lat="47.29476" lon="6.20401">
        <ele>254.154498</ele>
        <time>2021-04-29T06:58:52.209Z</time>
      </trkpt>
      <trkpt lat="47.29502" lon="6.2041">
        <ele>254.109167</ele>
        <time>2021-04-29T06:58:59.057Z</time>
      </trkpt>
      <trkpt lat="47.29541" lon="6.20421">
        <ele>254.078252</ele>
        <time>2021-04-29T06:59:09.505Z</time>
      </trkpt>
      <trkpt lat="47.29553" lon="6.20425">
        <ele>254.098425</ele>
        <time>2021-04-29T06:59:12.619Z</time>
      </trkpt>
      <trkpt lat="47.2958" lon="6.20432">
        <ele>254.144634</ele>
        <time>2021-04-29T06:59:19.955Z</time>
      </trkpt>
      <trkpt lat="47.29626" lon="6.2044">
        <ele>254.22163</ele>
        <time>2021-04-29T06:59:32.259Z</time>
      </trkpt>
      <trkpt lat="47.2963" lon="6.20439">
        <ele>254.228055</ele>
        <time>2021-04-29T06:59:33.149Z</time>
      </trkpt>
      <trkpt lat="47.29634" lon="6.20442">
        <ele>254.234858</ele>
        <time>2021-04-29T06:59:34.475Z</time>
      </trkpt>
      <trkpt lat="47.29778" lon="6.20482">
        <ele>254.8231</ele>
        <time>2021-04-29T07:00:17.286Z</time>
      </trkpt>
      <trkpt lat="47.29916" lon="6.20541">
        <ele>255.74872</ele>
        <time>2021-04-29T07:01:00.593Z</time>
      </trkpt>
      <trkpt lat="47.30065" lon="6.20593">
        <ele>256.714147</ele>
        <time>2021-04-29T07:01:46.425Z</time>
      </trkpt>
      <trkpt lat="47.30098" lon="6.20608">
        <ele>256.842739</ele>
        <time>2021-04-29T07:01:56.366Z</time>
      </trkpt>
      <trkpt lat="47.30125" lon="6.20619">
        <ele>256.943811</ele>
        <time>2021-04-29T07:02:04.131Z</time>
      </trkpt>
      <trkpt lat="47.30139" lon="6.20625">
        <ele>256.997987</ele>
        <time>2021-04-29T07:02:08.491Z</time>
      </trkpt>
      <trkpt lat="47.30163" lon="6.20635">
        <ele>257.088269</ele>
        <time>2021-04-29T07:02:15.228Z</time>
      </trkpt>
      <trkpt lat="47.30195" lon="6.20651">
        <ele>257.213042</ele>
        <time>2021-04-29T07:02:24.810Z</time>
      </trkpt>
      <trkpt lat="47.30233" lon="6.2068">
        <ele>257.369186</ele>
        <time>2021-04-29T07:02:37.058Z</time>
      </trkpt>
      <trkpt lat="47.30292" lon="6.20733">
        <ele>257.606706</ele>
        <time>2021-04-29T07:02:55.798Z</time>
      </trkpt>
      <trkpt lat="47.30327" lon="6.20774">
        <ele>257.757665</ele>
        <time>2021-04-29T07:03:07.945Z</time>
      </trkpt>
      <trkpt lat="47.3036" lon="6.20841">
        <ele>257.949847</ele>
        <time>2021-04-29T07:03:24.218Z</time>
      </trkpt>
      <trkpt lat="47.30378" lon="6.20898">
        <ele>258.262911</ele>
        <time>2021-04-29T07:03:37.908Z</time>
      </trkpt>
      <trkpt lat="47.30388" lon="6.20961">
        <ele>258.588101</ele>
        <time>2021-04-29T07:03:51.874Z</time>
      </trkpt>
      <trkpt lat="47.30393" lon="6.21034">
        <ele>258.959344</ele>
        <time>2021-04-29T07:04:06.984Z</time>
      </trkpt>
      <trkpt lat="47.30393" lon="6.21051">
        <ele>259.042769</ele>
        <time>2021-04-29T07:04:10.377Z</time>
      </trkpt>
      <trkpt lat="47.30392" lon="6.21067">
        <ele>259.12484</ele>
        <time>2021-04-29T07:04:14.054Z</time>
      </trkpt>
      <trkpt lat="47.30386" lon="6.21124">
        <ele>259.282893</ele>
        <time>2021-04-29T07:04:25.534Z</time>
      </trkpt>
      <trkpt lat="47.30352" lon="6.21288">
        <ele>259.172662</ele>
        <time>2021-04-29T07:04:56.772Z</time>
      </trkpt>
      <trkpt lat="47.30335" lon="6.21402">
        <ele>259.020492</ele>
        <time>2021-04-29T07:05:15.641Z</time>
      </trkpt>
      <trkpt lat="47.30327" lon="6.2143">
        <ele>258.950443</ele>
        <time>2021-04-29T07:05:20.633Z</time>
      </trkpt>
      <trkpt lat="47.30285" lon="6.21496">
        <ele>258.741704</ele>
        <time>2021-04-29T07:05:35.805Z</time>
      </trkpt>
      <trkpt lat="47.30251" lon="6.21571">
        <ele>258.535184</ele>
        <time>2021-04-29T07:05:51.550Z</time>
      </trkpt>
      <trkpt lat="47.30158" lon="6.217">
        <ele>258.846074</ele>
        <time>2021-04-29T07:06:27.479Z</time>
      </trkpt>
      <trkpt lat="47.30046" lon="6.21893">
        <ele>259.00472</ele>
        <time>2021-04-29T07:07:16.501Z</time>
      </trkpt>
      <trkpt lat="47.29988" lon="6.21992">
        <ele>258.839556</ele>
        <time>2021-04-29T07:07:38.710Z</time>
      </trkpt>
      <trkpt lat="47.29984" lon="6.21992">
        <ele>258.812026</ele>
        <time>2021-04-29T07:07:39.443Z</time>
      </trkpt>
      <trkpt lat="47.29971" lon="6.22002">
        <ele>258.712771</ele>
        <time>2021-04-29T07:07:43.148Z</time>
      </trkpt>
      <trkpt lat="47.29941" lon="6.22051">
        <ele>258.406322</ele>
        <time>2021-04-29T07:07:53.979Z</time>
      </trkpt>
      <trkpt lat="47.29898" lon="6.22134">
        <ele>257.921191</ele>
        <time>2021-04-29T07:08:10.951Z</time>
      </trkpt>
      <trkpt lat="47.29895" lon="6.22146">
        <ele>257.862831</ele>
        <time>2021-04-29T07:08:12.950Z</time>
      </trkpt>
      <trkpt lat="47.2989" lon="6.22147">
        <ele>257.826804</ele>
        <time>2021-04-29T07:08:13.938Z</time>
      </trkpt>
      <trkpt lat="47.29875" lon="6.22171">
        <ele>257.770956</ele>
        <time>2021-04-29T07:08:19.656Z</time>
      </trkpt>
      <trkpt lat="47.29871" lon="6.22185">
        <ele>257.769293</ele>
        <time>2021-04-29T07:08:22.150Z</time>
      </trkpt>
      <trkpt lat="47.29857" lon="6.22239">
        <ele>257.763224</ele>
        <time>2021-04-29T07:08:32.259Z</time>
      </trkpt>
      <trkpt lat="47.29815" lon="6.22424">
        <ele>257.814639</ele>
        <time>2021-04-29T07:09:09.327Z</time>
      </trkpt>
      <trkpt lat="47.29773" lon="6.22577">
        <ele>258.285764</ele>
        <time>2021-04-29T07:09:40.810Z</time>
      </trkpt>
      <trkpt lat="47.29657" lon="6.22845">
        <ele>259.986305</ele>
        <time>2021-04-29T07:10:45.797Z</time>
      </trkpt>
      <trkpt lat="47.29643" lon="6.22875">
        <ele>260.253885</ele>
        <time>2021-04-29T07:10:54.679Z</time>
      </trkpt>
      <trkpt lat="47.29674" lon="6.22922">
        <ele>260.844818</ele>
        <time>2021-04-29T07:11:11.064Z</time>
      </trkpt>
      <trkpt lat="47.29685" lon="6.22927">
        <ele>261.002488</ele>
        <time>2021-04-29T07:11:15.748Z</time>
      </trkpt>
      <trkpt lat="47.29715" lon="6.22972">
        <ele>261.570156</ele>
        <time>2021-04-29T07:11:30.845Z</time>
      </trkpt>
      <trkpt lat="47.29724" lon="6.22975">
        <ele>261.692414</ele>
        <time>2021-04-29T07:11:34.107Z</time>
      </trkpt>
      <trkpt lat="47.29735" lon="6.22997">
        <ele>261.932637</ele>
        <time>2021-04-29T07:11:40.191Z</time>
      </trkpt>
      <trkpt lat="47.29736" lon="6.23031">
        <ele>262.236509</ele>
        <time>2021-04-29T07:11:47.488Z</time>
      </trkpt>
      <trkpt lat="47.29748" lon="6.2305">
        <ele>262.464269</ele>
        <time>2021-04-29T07:11:53.106Z</time>
      </trkpt>
      <trkpt lat="47.29759" lon="6.23055">
        <ele>262.494309</ele>
        <time>2021-04-29T07:11:56.992Z</time>
      </trkpt>
      <trkpt lat="47.29753" lon="6.23102">
        <ele>262.405432</ele>
        <time>2021-04-29T07:12:06.605Z</time>
      </trkpt>
      <trkpt lat="47.29755" lon="6.23119">
        <ele>262.371475</ele>
        <time>2021-04-29T07:12:10.068Z</time>
      </trkpt>
      <trkpt lat="47.29768" lon="6.23172">
        <ele>262.265849</ele>
        <time>2021-04-29T07:12:20.211Z</time>
      </trkpt>
      <trkpt lat="47.29791" lon="6.23255">
        <ele>262.097971</ele>
        <time>2021-04-29T07:12:34.372Z</time>
      </trkpt>
      <trkpt lat="47.29822" lon="6.23328">
        <ele>261.614276</ele>
        <time>2021-04-29T07:12:48.035Z</time>
      </trkpt>
      <trkpt lat="47.2985" lon="6.23371">
        <ele>261.082133</ele>
        <time>2021-04-29T07:12:56.658Z</time>
      </trkpt>
      <trkpt lat="47.29872" lon="6.23398">
        <ele>260.691512</ele>
        <time>2021-04-29T07:13:03.291Z</time>
      </trkpt>
      <trkpt lat="47.29871" lon="6.23409">
        <ele>260.593907</ele>
        <time>2021-04-29T07:13:04.794Z</time>
      </trkpt>
      <trkpt lat="47.29876" lon="6.23417">
        <ele>260.489283</ele>
        <time>2021-04-29T07:13:06.390Z</time>
      </trkpt>
      <trkpt lat="47.29884" lon="6.23416">
        <ele>260.394144</ele>
        <time>2021-04-29T07:13:08.129Z</time>
      </trkpt>
      <trkpt lat="47.29888" lon="6.23409">
        <ele>260.308399</ele>
        <time>2021-04-29T07:13:09.901Z</time>
      </trkpt>
      <trkpt lat="47.29895" lon="6.23408">
        <ele>260.202088</ele>
        <time>2021-04-29T07:13:11.801Z</time>
      </trkpt>
      <trkpt lat="47.2991" lon="6.23412">
        <ele>259.999899</ele>
        <time>2021-04-29T07:13:15.034Z</time>
      </trkpt>
      <trkpt lat="47.29937" lon="6.23427">
        <ele>259.613398</ele>
        <time>2021-04-29T07:13:21.642Z</time>
      </trkpt>
      <trkpt lat="47.29952" lon="6.23445">
        <ele>259.414595</ele>
        <time>2021-04-29T07:13:25.908Z</time>
      </trkpt>
      <trkpt lat="47.29953" lon="6.23452">
        <ele>259.368959</ele>
        <time>2021-04-29T07:13:26.916Z</time>
      </trkpt>
      <trkpt lat="47.29963" lon="6.23471">
        <ele>259.196392</ele>
        <time>2021-04-29T07:13:30.566Z</time>
      </trkpt>
      <trkpt lat="47.3001" lon="6.23524">
        <ele>258.590557</ele>
        <time>2021-04-29T07:13:44.485Z</time>
      </trkpt>
      <trkpt lat="47.30025" lon="6.23522">
        <ele>258.434763</ele>
        <time>2021-04-29T07:13:48.081Z</time>
      </trkpt>
      <trkpt lat="47.30029" lon="6.23524">
        <ele>258.384532</ele>
        <time>2021-04-29T07:13:49.036Z</time>
      </trkpt>
      <trkpt lat="47.30085" lon="6.23533">
        <ele>257.801029</ele>
        <time>2021-04-29T07:14:02.621Z</time>
      </trkpt>
      <trkpt lat="47.30095" lon="6.23533">
        <ele>257.772749</ele>
        <time>2021-04-29T07:14:04.842Z</time>
      </trkpt>
      <trkpt lat="47.30096" lon="6.23536">
        <ele>257.783046</ele>
        <time>2021-04-29T07:14:05.489Z</time>
      </trkpt>
      <trkpt lat="47.30109" lon="6.23542">
        <ele>257.836825</ele>
        <time>2021-04-29T07:14:08.970Z</time>
      </trkpt>
      <trkpt lat="47.30246" lon="6.23522">
        <ele>258.385967</ele>
        <time>2021-04-29T07:14:48.830Z</time>
      </trkpt>
      <trkpt lat="47.30307" lon="6.23527">
        <ele>258.734806</ele>
        <time>2021-04-29T07:15:09.095Z</time>
      </trkpt>
      <trkpt lat="47.30333" lon="6.23536">
        <ele>258.911086</ele>
        <time>2021-04-29T07:15:17.584Z</time>
      </trkpt>
      <trkpt lat="47.30407" lon="6.23586">
        <ele>259.441276</ele>
        <time>2021-04-29T07:15:41.668Z</time>
      </trkpt>
      <trkpt lat="47.3047" lon="6.23619">
        <ele>259.479019</ele>
        <time>2021-04-29T07:16:00.004Z</time>
      </trkpt>
      <trkpt lat="47.30554" lon="6.23643">
        <ele>259.057523</ele>
        <time>2021-04-29T07:16:21.117Z</time>
      </trkpt>
      <trkpt lat="47.30578" lon="6.23667">
        <ele>258.913373</ele>
        <time>2021-04-29T07:16:27.920Z</time>
      </trkpt>
      <trkpt lat="47.30648" lon="6.23799">
        <ele>258.087168</ele>
        <time>2021-04-29T07:16:54.082Z</time>
      </trkpt>
      <trkpt lat="47.30685" lon="6.23893">
        <ele>257.488867</ele>
        <time>2021-04-29T07:17:11.595Z</time>
      </trkpt>
      <trkpt lat="47.30765" lon="6.24245">
        <ele>256.576954</ele>
        <time>2021-04-29T07:18:15.966Z</time>
      </trkpt>
      <trkpt lat="47.30819" lon="6.24435">
        <ele>256.151388</ele>
        <time>2021-04-29T07:18:50.990Z</time>
      </trkpt>
      <trkpt lat="47.30859" lon="6.2467">
        <ele>255.923188</ele>
        <time>2021-04-29T07:19:33.498Z</time>
      </trkpt>
      <trkpt lat="47.30867" lon="6.24727">
        <ele>256.035834</ele>
        <time>2021-04-29T07:19:44.548Z</time>
      </trkpt>
      <trkpt lat="47.3089" lon="6.24875">
        <ele>256.42749</ele>
        <time>2021-04-29T07:20:14.364Z</time>
      </trkpt>
      <trkpt lat="47.30948" lon="6.25261">
        <ele>258.337227</ele>
        <time>2021-04-29T07:21:34.277Z</time>
      </trkpt>
      <trkpt lat="47.30959" lon="6.25335">
        <ele>258.991979</ele>
        <time>2021-04-29T07:21:51.602Z</time>
      </trkpt>
      <trkpt lat="47.30964" lon="6.25369">
        <ele>259.295661</ele>
        <time>2021-04-29T07:21:59.890Z</time>
      </trkpt>
      <trkpt lat="47.3098" lon="6.25451">
        <ele>260.037795</ele>
        <time>2021-04-29T07:22:20.674Z</time>
      </trkpt>
      <trkpt lat="47.31009" lon="6.25655">
        <ele>260.668385</ele>
        <time>2021-04-29T07:23:03.172Z</time>
      </trkpt>
      <trkpt lat="47.31014" lon="6.25689">
        <ele>260.767357</ele>
        <time>2021-04-29T07:23:09.709Z</time>
      </trkpt>
      <trkpt lat="47.31015" lon="6.257">
        <ele>260.800402</ele>
        <time>2021-04-29T07:23:11.197Z</time>
      </trkpt>
      <trkpt lat="47.31026" lon="6.2573">
        <ele>260.74876</ele>
        <time>2021-04-29T07:23:17.121Z</time>
      </trkpt>
      <trkpt lat="47.31039" lon="6.25749">
        <ele>260.618658</ele>
        <time>2021-04-29T07:23:20.804Z</time>
      </trkpt>
      <trkpt lat="47.31095" lon="6.25837">
        <ele>260.005515</ele>
        <time>2021-04-29T07:23:40.264Z</time>
      </trkpt>
      <trkpt lat="47.31111" lon="6.25863">
        <ele>259.833177</ele>
        <time>2021-04-29T07:23:45.323Z</time>
      </trkpt>
      <trkpt lat="47.31122" lon="6.25884">
        <ele>259.698295</ele>
        <time>2021-04-29T07:23:49.779Z</time>
      </trkpt>
      <trkpt lat="47.31156" lon="6.25951">
        <ele>259.587354</ele>
        <time>2021-04-29T07:24:04.455Z</time>
      </trkpt>
      <trkpt lat="47.31168" lon="6.25974">
        <ele>259.637107</ele>
        <time>2021-04-29T07:24:10.055Z</time>
      </trkpt>
      <trkpt lat="47.31179" lon="6.25987">
        <ele>259.672136</ele>
        <time>2021-04-29T07:24:14.019Z</time>
      </trkpt>
      <trkpt lat="47.31192" lon="6.25997">
        <ele>259.709805</ele>
        <time>2021-04-29T07:24:18.292Z</time>
      </trkpt>
      <trkpt lat="47.31204" lon="6.26007">
        <ele>259.743726</ele>
        <time>2021-04-29T07:24:22.221Z</time>
      </trkpt>
      <trkpt lat="47.31238" lon="6.26031">
        <ele>259.838665</ele>
        <time>2021-04-29T07:24:33.310Z</time>
      </trkpt>
      <trkpt lat="47.31247" lon="6.26037">
        <ele>259.864403</ele>
        <time>2021-04-29T07:24:36.470Z</time>
      </trkpt>
      <trkpt lat="47.31263" lon="6.26047">
        <ele>259.906156</ele>
        <time>2021-04-29T07:24:41.551Z</time>
      </trkpt>
      <trkpt lat="47.31275" lon="6.26054">
        <ele>259.940111</ele>
        <time>2021-04-29T07:24:45.387Z</time>
      </trkpt>
      <trkpt lat="47.31296" lon="6.26065">
        <ele>259.958517</ele>
        <time>2021-04-29T07:24:51.836Z</time>
      </trkpt>
      <trkpt lat="47.31338" lon="6.26086">
        <ele>259.952589</ele>
        <time>2021-04-29T07:25:03.819Z</time>
      </trkpt>
      <trkpt lat="47.31402" lon="6.26125">
        <ele>259.943281</ele>
        <time>2021-04-29T07:25:22.180Z</time>
      </trkpt>
      <trkpt lat="47.31479" lon="6.26197">
        <ele>259.773494</ele>
        <time>2021-04-29T07:25:44.874Z</time>
      </trkpt>
      <trkpt lat="47.31533" lon="6.26236">
        <ele>259.517911</ele>
        <time>2021-04-29T07:25:59.816Z</time>
      </trkpt>
      <trkpt lat="47.31766" lon="6.26386">
        <ele>258.75595</ele>
        <time>2021-04-29T07:27:04.418Z</time>
      </trkpt>
      <trkpt lat="47.31941" lon="6.26485">
        <ele>258.636766</ele>
        <time>2021-04-29T07:27:53.808Z</time>
      </trkpt>
      <trkpt lat="47.32019" lon="6.26555">
        <ele>258.668744</ele>
        <time>2021-04-29T07:28:18.604Z</time>
      </trkpt>
      <trkpt lat="47.32058" lon="6.26613">
        <ele>258.688153</ele>
        <time>2021-04-29T07:28:33.319Z</time>
      </trkpt>
      <trkpt lat="47.32062" lon="6.26624">
        <ele>258.691392</ele>
        <time>2021-04-29T07:28:36.053Z</time>
      </trkpt>
      <trkpt lat="47.32066" lon="6.26635">
        <ele>258.694277</ele>
        <time>2021-04-29T07:28:38.133Z</time>
      </trkpt>
      <trkpt lat="47.32078" lon="6.26699">
        <ele>258.674504</ele>
        <time>2021-04-29T07:28:50.068Z</time>
      </trkpt>
      <trkpt lat="47.32085" lon="6.26773">
        <ele>258.631489</ele>
        <time>2021-04-29T07:29:03.765Z</time>
      </trkpt>
      <trkpt lat="47.32086" lon="6.27157">
        <ele>258.309656</ele>
        <time>2021-04-29T07:30:11.730Z</time>
      </trkpt>
      <trkpt lat="47.3209" lon="6.27238">
        <ele>258.29682</ele>
        <time>2021-04-29T07:30:25.858Z</time>
      </trkpt>
      <trkpt lat="47.32119" lon="6.27452">
        <ele>258.376908</ele>
        <time>2021-04-29T07:31:05.849Z</time>
      </trkpt>
      <trkpt lat="47.32124" lon="6.27461">
        <ele>258.418003</ele>
        <time>2021-04-29T07:31:07.776Z</time>
      </trkpt>
      <trkpt lat="47.32123" lon="6.27493">
        <ele>258.531427</ele>
        <time>2021-04-29T07:31:14.473Z</time>
      </trkpt>
      <trkpt lat="47.32148" lon="6.27634">
        <ele>259.047044</ele>
        <time>2021-04-29T07:31:44.181Z</time>
      </trkpt>
      <trkpt lat="47.32142" lon="6.27875">
        <ele>260.334429</ele>
        <time>2021-04-29T07:32:37.029Z</time>
      </trkpt>
      <trkpt lat="47.32137" lon="6.27902">
        <ele>260.508384</ele>
        <time>2021-04-29T07:32:43.151Z</time>
      </trkpt>
      <trkpt lat="47.32137" lon="6.27928">
        <ele>260.666191</ele>
        <time>2021-04-29T07:32:48.912Z</time>
      </trkpt>
      <trkpt lat="47.32138" lon="6.27959">
        <ele>260.854694</ele>
        <time>2021-04-29T07:32:55.569Z</time>
      </trkpt>
      <trkpt lat="47.32169" lon="6.28214">
        <ele>262.11615</ele>
        <time>2021-04-29T07:33:50.875Z</time>
      </trkpt>
      <trkpt lat="47.32182" lon="6.28245">
        <ele>262.236248</ele>
        <time>2021-04-29T07:33:58.141Z</time>
      </trkpt>
      <trkpt lat="47.32227" lon="6.28317">
        <ele>262.452559</ele>
        <time>2021-04-29T07:34:17.942Z</time>
      </trkpt>
      <trkpt lat="47.32354" lon="6.28484">
        <ele>262.901951</ele>
        <time>2021-04-29T07:35:07.034Z</time>
      </trkpt>
      <trkpt lat="47.32501" lon="6.28623">
        <ele>263.429638</ele>
        <time>2021-04-29T07:35:57.090Z</time>
      </trkpt>
      <trkpt lat="47.32661" lon="6.28791">
        <ele>264.450617</ele>
        <time>2021-04-29T07:36:58.428Z</time>
      </trkpt>
      <trkpt lat="47.32758" lon="6.28925">
        <ele>264.853557</ele>
        <time>2021-04-29T07:37:38.423Z</time>
      </trkpt>
      <trkpt lat="47.3282" lon="6.29035">
        <ele>264.531724</ele>
        <time>2021-04-29T07:38:03.713Z</time>
      </trkpt>
      <trkpt lat="47.32852" lon="6.29101">
        <ele>264.30406</ele>
        <time>2021-04-29T07:38:17.283Z</time>
      </trkpt>
      <trkpt lat="47.32895" lon="6.29193">
        <ele>263.554473</ele>
        <time>2021-04-29T07:38:35.673Z</time>
      </trkpt>
      <trkpt lat="47.32948" lon="6.29298">
        <ele>262.681645</ele>
        <time>2021-04-29T07:38:56.940Z</time>
      </trkpt>
      <trkpt lat="47.32984" lon="6.29399">
        <ele>261.934744</ele>
        <time>2021-04-29T07:39:15.997Z</time>
      </trkpt>
      <trkpt lat="47.32994" lon="6.29445">
        <ele>261.616497</ele>
        <time>2021-04-29T07:39:24.164Z</time>
      </trkpt>
      <trkpt lat="47.33014" lon="6.29591">
        <ele>260.696987</ele>
        <time>2021-04-29T07:39:48.394Z</time>
      </trkpt>
      <trkpt lat="47.33021" lon="6.29681">
        <ele>260.250161</ele>
        <time>2021-04-29T07:40:03.605Z</time>
      </trkpt>
      <trkpt lat="47.33022" lon="6.29747">
        <ele>259.929243</ele>
        <time>2021-04-29T07:40:14.672Z</time>
      </trkpt>
      <trkpt lat="47.33022" lon="6.29755">
        <ele>259.89049</ele>
        <time>2021-04-29T07:40:16.000Z</time>
      </trkpt>
      <trkpt lat="47.33023" lon="6.29785">
        <ele>259.742309</ele>
        <time>2021-04-29T07:40:21.351Z</time>
      </trkpt>
      <trkpt lat="47.33012" lon="6.30057">
        <ele>259.223896</ele>
        <time>2021-04-29T07:41:10.595Z</time>
      </trkpt>
      <trkpt lat="47.32999" lon="6.30168">
        <ele>260.002913</ele>
        <time>2021-04-29T07:41:32.276Z</time>
      </trkpt>
      <trkpt lat="47.32998" lon="6.30179">
        <ele>260.116546</ele>
        <time>2021-04-29T07:41:34.165Z</time>
      </trkpt>
      <trkpt lat="47.32989" lon="6.30233">
        <ele>260.678454</ele>
        <time>2021-04-29T07:41:46.836Z</time>
      </trkpt>
      <trkpt lat="47.32975" lon="6.30334">
        <ele>261.712777</ele>
        <time>2021-04-29T07:42:14.472Z</time>
      </trkpt>
      <trkpt lat="47.32976" lon="6.30354">
        <ele>262.046218</ele>
        <time>2021-04-29T07:42:20.178Z</time>
      </trkpt>
      <trkpt lat="47.32975" lon="6.30358">
        <ele>262.172919</ele>
        <time>2021-04-29T07:42:22.299Z</time>
      </trkpt>
      <trkpt lat="47.3297" lon="6.30388">
        <ele>263.167944</ele>
        <time>2021-04-29T07:42:31.107Z</time>
      </trkpt>
      <trkpt lat="47.32973" lon="6.30446">
        <ele>265.010187</ele>
        <time>2021-04-29T07:42:50.626Z</time>
      </trkpt>
      <trkpt lat="47.32976" lon="6.30503">
        <ele>266.837001</ele>
        <time>2021-04-29T07:43:11.300Z</time>
      </trkpt>
      <trkpt lat="47.32979" lon="6.3058">
        <ele>269.305616</ele>
        <time>2021-04-29T07:43:41.014Z</time>
      </trkpt>
      <trkpt lat="47.32983" lon="6.30677">
        <ele>271.419239</ele>
        <time>2021-04-29T07:44:14.798Z</time>
      </trkpt>
      <trkpt lat="47.32986" lon="6.30783">
        <ele>273.239343</ele>
        <time>2021-04-29T07:44:45.453Z</time>
      </trkpt>
      <trkpt lat="47.32991" lon="6.30884">
        <ele>274.722485</ele>
        <time>2021-04-29T07:45:06.898Z</time>
      </trkpt>
      <trkpt lat="47.32999" lon="6.30937">
        <ele>273.908374</ele>
        <time>2021-04-29T07:45:15.589Z</time>
      </trkpt>
      <trkpt lat="47.33034" lon="6.31056">
        <ele>271.912885</ele>
        <time>2021-04-29T07:45:34.374Z</time>
      </trkpt>
      <trkpt lat="47.33073" lon="6.31146">
        <ele>270.19005</ele>
        <time>2021-04-29T07:45:48.850Z</time>
      </trkpt>
      <trkpt lat="47.3311" lon="6.31195">
        <ele>268.828585</ele>
        <time>2021-04-29T07:45:58.938Z</time>
      </trkpt>
      <trkpt lat="47.33144" lon="6.3123">
        <ele>267.699581</ele>
        <time>2021-04-29T07:46:07.572Z</time>
      </trkpt>
      <trkpt lat="47.33199" lon="6.31272">
        <ele>265.993833</ele>
        <time>2021-04-29T07:46:21.169Z</time>
      </trkpt>
      <trkpt lat="47.33235" lon="6.31291">
        <ele>265.663269</ele>
        <time>2021-04-29T07:46:29.920Z</time>
      </trkpt>
      <trkpt lat="47.33396" lon="6.31357">
        <ele>264.761529</ele>
        <time>2021-04-29T07:47:14.013Z</time>
      </trkpt>
      <trkpt lat="47.33745" lon="6.31482">
        <ele>266.127801</ele>
        <time>2021-04-29T07:49:02.593Z</time>
      </trkpt>
      <trkpt lat="47.33845" lon="6.31529">
        <ele>266.064977</ele>
        <time>2021-04-29T07:49:31.906Z</time>
      </trkpt>
      <trkpt lat="47.33973" lon="6.31622">
        <ele>265.259009</ele>
        <time>2021-04-29T07:50:07.967Z</time>
      </trkpt>
      <trkpt lat="47.34034" lon="6.31686">
        <ele>264.60557</ele>
        <time>2021-04-29T07:50:25.548Z</time>
      </trkpt>
      <trkpt lat="47.34074" lon="6.31744">
        <ele>264.463435</ele>
        <time>2021-04-29T07:50:39.426Z</time>
      </trkpt>
      <trkpt lat="47.34097" lon="6.31777">
        <ele>264.465915</ele>
        <time>2021-04-29T07:50:47.708Z</time>
      </trkpt>
      <trkpt lat="47.34122" lon="6.31822">
        <ele>264.468936</ele>
        <time>2021-04-29T07:50:58.466Z</time>
      </trkpt>
      <trkpt lat="47.34247" lon="6.32048">
        <ele>265.833261</ele>
        <time>2021-04-29T07:52:02.515Z</time>
      </trkpt>
      <trkpt lat="47.34281" lon="6.32135">
        <ele>266.545361</ele>
        <time>2021-04-29T07:52:25.799Z</time>
      </trkpt>
      <trkpt lat="47.3431" lon="6.32253">
        <ele>267.438995</ele>
        <time>2021-04-29T07:52:54.480Z</time>
      </trkpt>
      <trkpt lat="47.34341" lon="6.32452">
        <ele>268.383957</ele>
        <time>2021-04-29T07:53:38.658Z</time>
      </trkpt>
      <trkpt lat="47.34351" lon="6.32551">
        <ele>268.527228</ele>
        <time>2021-04-29T07:53:57.958Z</time>
      </trkpt>
      <trkpt lat="47.34355" lon="6.32607">
        <ele>268.608954</ele>
        <time>2021-04-29T07:54:08.267Z</time>
      </trkpt>
      <trkpt lat="47.34347" lon="6.32686">
        <ele>268.306266</ele>
        <time>2021-04-29T07:54:22.069Z</time>
      </trkpt>
      <trkpt lat="47.34255" lon="6.33087">
        <ele>265.980236</ele>
        <time>2021-04-29T07:55:32.102Z</time>
      </trkpt>
      <trkpt lat="47.34232" lon="6.33214">
        <ele>265.653753</ele>
        <time>2021-04-29T07:55:55.323Z</time>
      </trkpt>
      <trkpt lat="47.34214" lon="6.333">
        <ele>265.589288</ele>
        <time>2021-04-29T07:56:12.400Z</time>
      </trkpt>
      <trkpt lat="47.34209" lon="6.33321">
        <ele>265.573461</ele>
        <time>2021-04-29T07:56:16.454Z</time>
      </trkpt>
      <trkpt lat="47.34205" lon="6.33342">
        <ele>265.557428</ele>
        <time>2021-04-29T07:56:20.980Z</time>
      </trkpt>
      <trkpt lat="47.34203" lon="6.33351">
        <ele>265.550233</ele>
        <time>2021-04-29T07:56:23.002Z</time>
      </trkpt>
      <trkpt lat="47.34202" lon="6.33358">
        <ele>265.545597</ele>
        <time>2021-04-29T07:56:24.169Z</time>
      </trkpt>
      <trkpt lat="47.342" lon="6.33365">
        <ele>265.540141</ele>
        <time>2021-04-29T07:56:25.525Z</time>
      </trkpt>
      <trkpt lat="47.34188" lon="6.33416">
        <ele>265.664847</ele>
        <time>2021-04-29T07:56:36.188Z</time>
      </trkpt>
      <trkpt lat="47.34154" lon="6.33598">
        <ele>266.518968</ele>
        <time>2021-04-29T07:57:15.342Z</time>
      </trkpt>
      <trkpt lat="47.34141" lon="6.33658">
        <ele>266.917524</ele>
        <time>2021-04-29T07:57:29.539Z</time>
      </trkpt>
      <trkpt lat="47.34138" lon="6.33673">
        <ele>267.099933</ele>
        <time>2021-04-29T07:57:33.371Z</time>
      </trkpt>
      <trkpt lat="47.34119" lon="6.33815">
        <ele>268.726972</ele>
        <time>2021-04-29T07:58:08.929Z</time>
      </trkpt>
      <trkpt lat="47.34121" lon="6.33858">
        <ele>269.221625</ele>
        <time>2021-04-29T07:58:20.023Z</time>
      </trkpt>
      <trkpt lat="47.34111" lon="6.33885">
        <ele>269.570568</ele>
        <time>2021-04-29T07:58:27.899Z</time>
      </trkpt>
      <trkpt lat="47.34108" lon="6.33933">
        <ele>270.12443</ele>
        <time>2021-04-29T07:58:39.426Z</time>
      </trkpt>
      <trkpt lat="47.34097" lon="6.33989">
        <ele>270.806442</ele>
        <time>2021-04-29T07:58:53.691Z</time>
      </trkpt>
      <trkpt lat="47.34081" lon="6.34051">
        <ele>271.587419</ele>
        <time>2021-04-29T07:59:10.346Z</time>
      </trkpt>
      <trkpt lat="47.34049" lon="6.3415">
        <ele>272.846733</ele>
        <time>2021-04-29T07:59:37.288Z</time>
      </trkpt>
      <trkpt lat="47.34039" lon="6.34174">
        <ele>273.013466</ele>
        <time>2021-04-29T07:59:43.255Z</time>
      </trkpt>
      <trkpt lat="47.34035" lon="6.34183">
        <ele>273.073282</ele>
        <time>2021-04-29T07:59:46.701Z</time>
      </trkpt>
      <trkpt lat="47.33983" lon="6.34295">
        <ele>273.877631</ele>
        <time>2021-04-29T08:00:16.156Z</time>
      </trkpt>
      <trkpt lat="47.33898" lon="6.34428">
        <ele>273.911313</ele>
        <time>2021-04-29T08:00:53.006Z</time>
      </trkpt>
      <trkpt lat="47.33887" lon="6.34444">
        <ele>273.79658</ele>
        <time>2021-04-29T08:00:56.545Z</time>
      </trkpt>
      <trkpt lat="47.33798" lon="6.34561">
        <ele>272.619699</ele>
        <time>2021-04-29T08:01:24.571Z</time>
      </trkpt>
      <trkpt lat="47.3378" lon="6.34587">
        <ele>272.06143</ele>
        <time>2021-04-29T08:01:30.036Z</time>
      </trkpt>
      <trkpt lat="47.3376" lon="6.34618">
        <ele>271.429221</ele>
        <time>2021-04-29T08:01:36.482Z</time>
      </trkpt>
      <trkpt lat="47.3365" lon="6.34691">
        <ele>268.801506</ele>
        <time>2021-04-29T08:02:02.328Z</time>
      </trkpt>
      <trkpt lat="47.33625" lon="6.34722">
        <ele>268.200279</ele>
        <time>2021-04-29T08:02:09.140Z</time>
      </trkpt>
      <trkpt lat="47.33591" lon="6.34781">
        <ele>267.237706</ele>
        <time>2021-04-29T08:02:20.555Z</time>
      </trkpt>
      <trkpt lat="47.33574" lon="6.34807">
        <ele>266.768883</ele>
        <time>2021-04-29T08:02:26.231Z</time>
      </trkpt>
      <trkpt lat="47.3356" lon="6.34828">
        <ele>266.405599</ele>
        <time>2021-04-29T08:02:30.548Z</time>
      </trkpt>
      <trkpt lat="47.3355" lon="6.34867">
        <ele>265.877965</ele>
        <time>2021-04-29T08:02:37.713Z</time>
      </trkpt>
      <trkpt lat="47.33549" lon="6.34887">
        <ele>265.761582</ele>
        <time>2021-04-29T08:02:40.612Z</time>
      </trkpt>
      <trkpt lat="47.33554" lon="6.34895">
        <ele>265.786821</ele>
        <time>2021-04-29T08:02:43.175Z</time>
      </trkpt>
      <trkpt lat="47.33593" lon="6.34934">
        <ele>265.963793</ele>
        <time>2021-04-29T08:02:55.803Z</time>
      </trkpt>
      <trkpt lat="47.33659" lon="6.35035">
        <ele>266.312566</ele>
        <time>2021-04-29T08:03:26.166Z</time>
      </trkpt>
      <trkpt lat="47.33699" lon="6.35076">
        <ele>266.474389</ele>
        <time>2021-04-29T08:03:42.380Z</time>
      </trkpt>
      <trkpt lat="47.33723" lon="6.35094">
        <ele>266.550444</ele>
        <time>2021-04-29T08:03:51.283Z</time>
      </trkpt>
      <trkpt lat="47.33728" lon="6.35098">
        <ele>266.568139</ele>
        <time>2021-04-29T08:03:52.798Z</time>
      </trkpt>
      <trkpt lat="47.33762" lon="6.35119">
        <ele>266.675668</ele>
        <time>2021-04-29T08:04:04.155Z</time>
      </trkpt>
      <trkpt lat="47.33973" lon="6.35317">
        <ele>266.202338</ele>
        <time>2021-04-29T08:05:10.174Z</time>
      </trkpt>
      <trkpt lat="47.34012" lon="6.35363">
        <ele>266.05475</ele>
        <time>2021-04-29T08:05:22.223Z</time>
      </trkpt>
      <trkpt lat="47.34031" lon="6.35397">
        <ele>265.986328</ele>
        <time>2021-04-29T08:05:29.395Z</time>
      </trkpt>
      <trkpt lat="47.34076" lon="6.35465">
        <ele>265.837928</ele>
        <time>2021-04-29T08:05:46.971Z</time>
      </trkpt>
      <trkpt lat="47.34083" lon="6.3548">
        <ele>265.808865</ele>
        <time>2021-04-29T08:05:50.873Z</time>
      </trkpt>
      <trkpt lat="47.34088" lon="6.35491">
        <ele>265.78858</ele>
        <time>2021-04-29T08:05:53.441Z</time>
      </trkpt>
      <trkpt lat="47.34115" lon="6.35548">
        <ele>265.83124</ele>
        <time>2021-04-29T08:06:07.232Z</time>
      </trkpt>
      <trkpt lat="47.34052" lon="6.35613">
        <ele>266.345335</ele>
        <time>2021-04-29T08:06:31.293Z</time>
      </trkpt>
      <trkpt lat="47.34048" lon="6.35615">
        <ele>266.371099</ele>
        <time>2021-04-29T08:06:32.633Z</time>
      </trkpt>
      <trkpt lat="47.34192" lon="6.35988">
        <ele>268.837768</ele>
        <time>2021-04-29T08:08:04.518Z</time>
      </trkpt>
      <trkpt lat="47.34206" lon="6.36027">
        <ele>269.356026</ele>
        <time>2021-04-29T08:08:13.969Z</time>
      </trkpt>
      <trkpt lat="47.34199" lon="6.36037">
        <ele>269.52892</ele>
        <time>2021-04-29T08:08:18.952Z</time>
      </trkpt>
      <trkpt lat="47.34192" lon="6.36047">
        <ele>269.697315</ele>
        <time>2021-04-29T08:08:24.029Z</time>
      </trkpt>
      <trkpt lat="47.34184" lon="6.36057">
        <ele>269.889196</ele>
        <time>2021-04-29T08:08:29.922Z</time>
      </trkpt>
      <trkpt lat="47.34194" lon="6.36075">
        <ele>270.166992</ele>
        <time>2021-04-29T08:08:35.211Z</time>
      </trkpt>
      <trkpt lat="47.34204" lon="6.36125">
        <ele>270.791566</ele>
        <time>2021-04-29T08:08:48.583Z</time>
      </trkpt>
      <trkpt lat="47.3421" lon="6.3617">
        <ele>271.343998</ele>
        <time>2021-04-29T08:09:01.138Z</time>
      </trkpt>
      <trkpt lat="47.34211" lon="6.36186">
        <ele>271.581054</ele>
        <time>2021-04-29T08:09:05.677Z</time>
      </trkpt>
      <trkpt lat="47.34205" lon="6.36207">
        <ele>272.153887</ele>
        <time>2021-04-29T08:09:12.334Z</time>
      </trkpt>
      <trkpt lat="47.34202" lon="6.36229">
        <ele>272.71881</ele>
        <time>2021-04-29T08:09:18.691Z</time>
      </trkpt>
      <trkpt lat="47.34125" lon="6.36686">
        <ele>284.931786</ele>
        <time>2021-04-29T08:11:48.445Z</time>
      </trkpt>
      <trkpt lat="47.34121" lon="6.36811">
        <ele>286.704876</ele>
        <time>2021-04-29T08:12:27.736Z</time>
      </trkpt>
      <trkpt lat="47.34127" lon="6.37238">
        <ele>287.494406</ele>
        <time>2021-04-29T08:13:54.642Z</time>
      </trkpt>
      <trkpt lat="47.3412" lon="6.3727">
        <ele>285.878174</ele>
        <time>2021-04-29T08:13:58.954Z</time>
      </trkpt>
      <trkpt lat="47.34124" lon="6.37281">
        <ele>285.270708</ele>
        <time>2021-04-29T08:14:00.403Z</time>
      </trkpt>
      <trkpt lat="47.34145" lon="6.37326">
        <ele>282.648732</ele>
        <time>2021-04-29T08:14:11.607Z</time>
      </trkpt>
      <trkpt lat="47.34147" lon="6.37329">
        <ele>282.459157</ele>
        <time>2021-04-29T08:14:12.025Z</time>
      </trkpt>
      <trkpt lat="47.34164" lon="6.37358">
        <ele>280.557237</ele>
        <time>2021-04-29T08:14:16.830Z</time>
      </trkpt>
      <trkpt lat="47.34196" lon="6.3737">
        <ele>278.255491</ele>
        <time>2021-04-29T08:14:22.431Z</time>
      </trkpt>
      <trkpt lat="47.34244" lon="6.37379">
        <ele>275.05194</ele>
        <time>2021-04-29T08:14:30.753Z</time>
      </trkpt>
      <trkpt lat="47.34316" lon="6.37406">
        <ele>273.216963</ele>
        <time>2021-04-29T08:14:44.351Z</time>
      </trkpt>
      <trkpt lat="47.34449" lon="6.37376">
        <ele>271.684448</ele>
        <time>2021-04-29T08:15:28.988Z</time>
      </trkpt>
      <trkpt lat="47.34498" lon="6.37372">
        <ele>273.062014</ele>
        <time>2021-04-29T08:15:50.803Z</time>
      </trkpt>
      <trkpt lat="47.34584" lon="6.37385">
        <ele>275.472665</ele>
        <time>2021-04-29T08:16:29.490Z</time>
      </trkpt>
      <trkpt lat="47.34658" lon="6.37411">
        <ele>276.613005</ele>
        <time>2021-04-29T08:17:01.178Z</time>
      </trkpt>
      <trkpt lat="47.34755" lon="6.37424">
        <ele>277.890169</ele>
        <time>2021-04-29T08:17:32.510Z</time>
      </trkpt>
      <trkpt lat="47.34844" lon="6.37417">
        <ele>276.551889</ele>
        <time>2021-04-29T08:17:53.239Z</time>
      </trkpt>
      <trkpt lat="47.3506" lon="6.37346">
        <ele>271.594064</ele>
        <time>2021-04-29T08:18:39.269Z</time>
      </trkpt>
      <trkpt lat="47.35083" lon="6.37352">
        <ele>271.029178</ele>
        <time>2021-04-29T08:18:44.491Z</time>
      </trkpt>
      <trkpt lat="47.35106" lon="6.37377">
        <ele>270.360927</ele>
        <time>2021-04-29T08:18:50.837Z</time>
      </trkpt>
      <trkpt lat="47.3511" lon="6.37375">
        <ele>270.262311</ele>
        <time>2021-04-29T08:18:51.805Z</time>
      </trkpt>
      <trkpt lat="47.35114" lon="6.37372">
        <ele>270.146293</ele>
        <time>2021-04-29T08:18:52.935Z</time>
      </trkpt>
      <trkpt lat="47.35124" lon="6.37356">
        <ele>270.077174</ele>
        <time>2021-04-29T08:18:56.404Z</time>
      </trkpt>
      <trkpt lat="47.35131" lon="6.37346">
        <ele>270.115651</ele>
        <time>2021-04-29T08:18:58.718Z</time>
      </trkpt>
      <trkpt lat="47.35135" lon="6.37342">
        <ele>270.134245</ele>
        <time>2021-04-29T08:18:59.877Z</time>
      </trkpt>
      <trkpt lat="47.35164" lon="6.37356">
        <ele>270.2557</ele>
        <time>2021-04-29T08:19:07.522Z</time>
      </trkpt>
      <trkpt lat="47.35191" lon="6.37391">
        <ele>270.398049</ele>
        <time>2021-04-29T08:19:17.291Z</time>
      </trkpt>
      <trkpt lat="47.35234" lon="6.37474">
        <ele>270.681084</ele>
        <time>2021-04-29T08:19:39.302Z</time>
      </trkpt>
      <trkpt lat="47.35262" lon="6.37544">
        <ele>272.914116</ele>
        <time>2021-04-29T08:20:01.626Z</time>
      </trkpt>
      <trkpt lat="47.35282" lon="6.37637">
        <ele>276.69416</ele>
        <time>2021-04-29T08:20:39.451Z</time>
      </trkpt>
      <trkpt lat="47.35291" lon="6.37713">
        <ele>279.723329</ele>
        <time>2021-04-29T08:21:12.587Z</time>
      </trkpt>
      <trkpt lat="47.35292" lon="6.37763">
        <ele>281.713838</ele>
        <time>2021-04-29T08:21:35.024Z</time>
      </trkpt>
      <trkpt lat="47.35286" lon="6.37839">
        <ele>284.913601</ele>
        <time>2021-04-29T08:22:10.944Z</time>
      </trkpt>
      <trkpt lat="47.3523" lon="6.38145">
        <ele>293.730524</ele>
        <time>2021-04-29T08:24:02.972Z</time>
      </trkpt>
      <trkpt lat="47.35211" lon="6.38276">
        <ele>294.87249</ele>
        <time>2021-04-29T08:24:23.012Z</time>
      </trkpt>
      <trkpt lat="47.35208" lon="6.38335">
        <ele>293.877807</ele>
        <time>2021-04-29T08:24:31.093Z</time>
      </trkpt>
      <trkpt lat="47.35179" lon="6.38477">
        <ele>291.388776</ele>
        <time>2021-04-29T08:24:51.644Z</time>
      </trkpt>
      <trkpt lat="47.35178" lon="6.38541">
        <ele>290.954966</ele>
        <time>2021-04-29T08:25:01.811Z</time>
      </trkpt>
      <trkpt lat="47.35185" lon="6.38607">
        <ele>292.426872</ele>
        <time>2021-04-29T08:25:15.697Z</time>
      </trkpt>
      <trkpt lat="47.35209" lon="6.3874">
        <ele>295.44141</ele>
        <time>2021-04-29T08:26:00.319Z</time>
      </trkpt>
      <trkpt lat="47.35252" lon="6.38844">
        <ele>298.800689</ele>
        <time>2021-04-29T08:26:51.853Z</time>
      </trkpt>
      <trkpt lat="47.35275" lon="6.38897">
        <ele>300.739449</ele>
        <time>2021-04-29T08:27:17.049Z</time>
      </trkpt>
      <trkpt lat="47.35297" lon="6.38935">
        <ele>302.269938</ele>
        <time>2021-04-29T08:27:35.952Z</time>
      </trkpt>
      <trkpt lat="47.35414" lon="6.39124">
        <ele>301.140918</ele>
        <time>2021-04-29T08:28:26.382Z</time>
      </trkpt>
      <trkpt lat="47.3545" lon="6.39168">
        <ele>299.828939</ele>
        <time>2021-04-29T08:28:34.659Z</time>
      </trkpt>
      <trkpt lat="47.35607" lon="6.39308">
        <ele>282.334858</ele>
        <time>2021-04-29T08:29:05.724Z</time>
      </trkpt>
      <trkpt lat="47.35671" lon="6.39386">
        <ele>277.348097</ele>
        <time>2021-04-29T08:29:20.334Z</time>
      </trkpt>
      <trkpt lat="47.35714" lon="6.39479">
        <ele>273.044655</ele>
        <time>2021-04-29T08:29:35.050Z</time>
      </trkpt>
      <trkpt lat="47.35754" lon="6.39625">
        <ele>272.186743</ele>
        <time>2021-04-29T08:30:01.518Z</time>
      </trkpt>
      <trkpt lat="47.35763" lon="6.39707">
        <ele>272.679536</ele>
        <time>2021-04-29T08:30:22.022Z</time>
      </trkpt>
      <trkpt lat="47.35766" lon="6.39788">
        <ele>273.703668</ele>
        <time>2021-04-29T08:30:45.294Z</time>
      </trkpt>
      <trkpt lat="47.35763" lon="6.39878">
        <ele>277.360382</ele>
        <time>2021-04-29T08:31:14.673Z</time>
      </trkpt>
      <trkpt lat="47.35747" lon="6.39943">
        <ele>280.149711</ele>
        <time>2021-04-29T08:31:41.250Z</time>
      </trkpt>
      <trkpt lat="47.35752" lon="6.3998">
        <ele>281.67593</ele>
        <time>2021-04-29T08:31:57.524Z</time>
      </trkpt>
      <trkpt lat="47.35738" lon="6.40058">
        <ele>285.641335</ele>
        <time>2021-04-29T08:32:35.239Z</time>
      </trkpt>
      <trkpt lat="47.35728" lon="6.40099">
        <ele>288.550544</ele>
        <time>2021-04-29T08:32:57.809Z</time>
      </trkpt>
      <trkpt lat="47.3567" lon="6.40342">
        <ele>303.682782</ele>
        <time>2021-04-29T08:35:13.993Z</time>
      </trkpt>
      <trkpt lat="47.35654" lon="6.40465">
        <ele>308.072758</ele>
        <time>2021-04-29T08:36:03.183Z</time>
      </trkpt>
      <trkpt lat="47.35635" lon="6.40675">
        <ele>308.043665</ele>
        <time>2021-04-29T08:36:38.255Z</time>
      </trkpt>
      <trkpt lat="47.35633" lon="6.40761">
        <ele>306.325349</ele>
        <time>2021-04-29T08:36:49.295Z</time>
      </trkpt>
      <trkpt lat="47.3566" lon="6.41042">
        <ele>297.330633</ele>
        <time>2021-04-29T08:37:23.537Z</time>
      </trkpt>
      <trkpt lat="47.35693" lon="6.4123">
        <ele>295.842716</ele>
        <time>2021-04-29T08:37:51.211Z</time>
      </trkpt>
      <trkpt lat="47.35738" lon="6.41438">
        <ele>298.851139</ele>
        <time>2021-04-29T08:38:51.071Z</time>
      </trkpt>
      <trkpt lat="47.35772" lon="6.41657">
        <ele>303.310014</ele>
        <time>2021-04-29T08:40:10.238Z</time>
      </trkpt>
      <trkpt lat="47.35789" lon="6.41728">
        <ele>303.741942</ele>
        <time>2021-04-29T08:40:29.607Z</time>
      </trkpt>
      <trkpt lat="47.35829" lon="6.41833">
        <ele>303.806233</ele>
        <time>2021-04-29T08:40:46.648Z</time>
      </trkpt>
      <trkpt lat="47.3585" lon="6.41871">
        <ele>300.922834</ele>
        <time>2021-04-29T08:40:52.447Z</time>
      </trkpt>
      <trkpt lat="47.35877" lon="6.41905">
        <ele>297.821376</ele>
        <time>2021-04-29T08:40:58.422Z</time>
      </trkpt>
      <trkpt lat="47.35915" lon="6.41921">
        <ele>294.369163</ele>
        <time>2021-04-29T08:41:04.870Z</time>
      </trkpt>
      <trkpt lat="47.35969" lon="6.41932">
        <ele>289.672125</ele>
        <time>2021-04-29T08:41:13.475Z</time>
      </trkpt>
      <trkpt lat="47.36122" lon="6.41944">
        <ele>275.617634</ele>
        <time>2021-04-29T08:41:38.470Z</time>
      </trkpt>
      <trkpt lat="47.36224" lon="6.4193">
        <ele>270.458817</ele>
        <time>2021-04-29T08:41:56.987Z</time>
      </trkpt>
      <trkpt lat="47.36288" lon="6.41917">
        <ele>268.693028</ele>
        <time>2021-04-29T08:42:10.948Z</time>
      </trkpt>
      <trkpt lat="47.3637" lon="6.419">
        <ele>267.387121</ele>
        <time>2021-04-29T08:42:31.986Z</time>
      </trkpt>
      <trkpt lat="47.36438" lon="6.41896">
        <ele>267.487368</ele>
        <time>2021-04-29T08:42:50.994Z</time>
      </trkpt>
      <trkpt lat="47.36545" lon="6.41904">
        <ele>267.726517</ele>
        <time>2021-04-29T08:43:21.535Z</time>
      </trkpt>
      <trkpt lat="47.36588" lon="6.41917">
        <ele>267.914121</ele>
        <time>2021-04-29T08:43:34.130Z</time>
      </trkpt>
      <trkpt lat="47.36683" lon="6.41962">
        <ele>268.343387</ele>
        <time>2021-04-29T08:44:03.179Z</time>
      </trkpt>
      <trkpt lat="47.36856" lon="6.42061">
        <ele>268.780875</ele>
        <time>2021-04-29T08:44:55.131Z</time>
      </trkpt>
      <trkpt lat="47.36931" lon="6.42118">
        <ele>268.622962</ele>
        <time>2021-04-29T08:45:16.726Z</time>
      </trkpt>
      <trkpt lat="47.36993" lon="6.42182">
        <ele>268.472678</ele>
        <time>2021-04-29T08:45:35.554Z</time>
      </trkpt>
      <trkpt lat="47.3705" lon="6.42263">
        <ele>268.805526</ele>
        <time>2021-04-29T08:45:56.292Z</time>
      </trkpt>
      <trkpt lat="47.37092" lon="6.42342">
        <ele>269.261403</ele>
        <time>2021-04-29T08:46:16.554Z</time>
      </trkpt>
      <trkpt lat="47.37106" lon="6.42373">
        <ele>269.42872</ele>
        <time>2021-04-29T08:46:24.476Z</time>
      </trkpt>
      <trkpt lat="47.37131" lon="6.42431">
        <ele>270.107731</ele>
        <time>2021-04-29T08:46:40.292Z</time>
      </trkpt>
      <trkpt lat="47.37163" lon="6.42519">
        <ele>272.050609</ele>
        <time>2021-04-29T08:47:05.988Z</time>
      </trkpt>
      <trkpt lat="47.37167" lon="6.42564">
        <ele>272.926492</ele>
        <time>2021-04-29T08:47:18.820Z</time>
      </trkpt>
      <trkpt lat="47.37156" lon="6.42605">
        <ele>273.773047</ele>
        <time>2021-04-29T08:47:32.052Z</time>
      </trkpt>
      <trkpt lat="47.37109" lon="6.42692">
        <ele>276.402095</ele>
        <time>2021-04-29T08:48:06.998Z</time>
      </trkpt>
      <trkpt lat="47.37091" lon="6.42705">
        <ele>277.17306</ele>
        <time>2021-04-29T08:48:16.161Z</time>
      </trkpt>
      <trkpt lat="47.37026" lon="6.42723">
        <ele>279.793822</ele>
        <time>2021-04-29T08:48:47.167Z</time>
      </trkpt>
      <trkpt lat="47.36972" lon="6.42714">
        <ele>281.936466</ele>
        <time>2021-04-29T08:49:12.266Z</time>
      </trkpt>
      <trkpt lat="47.36933" lon="6.42718">
        <ele>282.810591</ele>
        <time>2021-04-29T08:49:29.288Z</time>
      </trkpt>
      <trkpt lat="47.36821" lon="6.4279">
        <ele>285.572385</ele>
        <time>2021-04-29T08:50:14.135Z</time>
      </trkpt>
      <trkpt lat="47.36794" lon="6.42826">
        <ele>285.894404</ele>
        <time>2021-04-29T08:50:25.084Z</time>
      </trkpt>
      <trkpt lat="47.36764" lon="6.42902">
        <ele>285.699444</ele>
        <time>2021-04-29T08:50:41.577Z</time>
      </trkpt>
      <trkpt lat="47.36746" lon="6.42971">
        <ele>285.536633</ele>
        <time>2021-04-29T08:50:54.115Z</time>
      </trkpt>
      <trkpt lat="47.36712" lon="6.43156">
        <ele>283.200366</ele>
        <time>2021-04-29T08:51:22.448Z</time>
      </trkpt>
      <trkpt lat="47.36682" lon="6.43407">
        <ele>278.593356</ele>
        <time>2021-04-29T08:51:55.541Z</time>
      </trkpt>
      <trkpt lat="47.36679" lon="6.43441">
        <ele>277.992501</ele>
        <time>2021-04-29T08:52:00.135Z</time>
      </trkpt>
      <trkpt lat="47.36678" lon="6.43453">
        <ele>277.787555</ele>
        <time>2021-04-29T08:52:01.820Z</time>
      </trkpt>
      <trkpt lat="47.36674" lon="6.43494">
        <ele>277.085757</ele>
        <time>2021-04-29T08:52:07.552Z</time>
      </trkpt>
      <trkpt lat="47.36668" lon="6.43587">
        <ele>275.985112</ele>
        <time>2021-04-29T08:52:21.665Z</time>
      </trkpt>
      <trkpt lat="47.36655" lon="6.43706">
        <ele>276.886795</ele>
        <time>2021-04-29T08:52:44.931Z</time>
      </trkpt>
      <trkpt lat="47.36652" lon="6.43802">
        <ele>277.595643</ele>
        <time>2021-04-29T08:53:09.337Z</time>
      </trkpt>
      <trkpt lat="47.36641" lon="6.43881">
        <ele>279.00621</ele>
        <time>2021-04-29T08:53:32.282Z</time>
      </trkpt>
      <trkpt lat="47.36604" lon="6.43994">
        <ele>281.817099</ele>
        <time>2021-04-29T08:54:07.836Z</time>
      </trkpt>
      <trkpt lat="47.3652" lon="6.44165">
        <ele>286.988947</ele>
        <time>2021-04-29T08:55:12.506Z</time>
      </trkpt>
      <trkpt lat="47.36482" lon="6.44254">
        <ele>289.66769</ele>
        <time>2021-04-29T08:55:45.007Z</time>
      </trkpt>
      <trkpt lat="47.36406" lon="6.4439">
        <ele>293.67657</ele>
        <time>2021-04-29T08:56:37.483Z</time>
      </trkpt>
      <trkpt lat="47.36286" lon="6.44666">
        <ele>299.62687</ele>
        <time>2021-04-29T08:58:06.969Z</time>
      </trkpt>
      <trkpt lat="47.36246" lon="6.44787">
        <ele>299.93698</ele>
        <time>2021-04-29T08:58:36.482Z</time>
      </trkpt>
      <trkpt lat="47.36238" lon="6.44855">
        <ele>299.286118</ele>
        <time>2021-04-29T08:58:47.762Z</time>
      </trkpt>
      <trkpt lat="47.36235" lon="6.44949">
        <ele>298.386963</ele>
        <time>2021-04-29T08:59:00.849Z</time>
      </trkpt>
      <trkpt lat="47.36244" lon="6.45033">
        <ele>295.675449</ele>
        <time>2021-04-29T08:59:11.401Z</time>
      </trkpt>
      <trkpt lat="47.36265" lon="6.45105">
        <ele>292.188444</ele>
        <time>2021-04-29T08:59:20.648Z</time>
      </trkpt>
      <trkpt lat="47.36302" lon="6.45167">
        <ele>288.480308</ele>
        <time>2021-04-29T08:59:30.133Z</time>
      </trkpt>
      <trkpt lat="47.36347" lon="6.4522">
        <ele>284.804203</ele>
        <time>2021-04-29T08:59:39.889Z</time>
      </trkpt>
      <trkpt lat="47.36372" lon="6.45246">
        <ele>282.982831</ele>
        <time>2021-04-29T08:59:45.067Z</time>
      </trkpt>
      <trkpt lat="47.36388" lon="6.4525">
        <ele>282.04981</ele>
        <time>2021-04-29T08:59:47.846Z</time>
      </trkpt>
      <trkpt lat="47.36404" lon="6.45251">
        <ele>281.079061</ele>
        <time>2021-04-29T08:59:50.573Z</time>
      </trkpt>
      <trkpt lat="47.36418" lon="6.45257">
        <ele>280.175114</ele>
        <time>2021-04-29T08:59:53.325Z</time>
      </trkpt>
      <trkpt lat="47.36483" lon="6.4528">
        <ele>276.173604</ele>
        <time>2021-04-29T09:00:05.345Z</time>
      </trkpt>
      <trkpt lat="47.36552" lon="6.45303">
        <ele>274.371384</ele>
        <time>2021-04-29T09:00:19.025Z</time>
      </trkpt>
      <trkpt lat="47.3662" lon="6.45311">
        <ele>273.108333</ele>
        <time>2021-04-29T09:00:34.408Z</time>
      </trkpt>
      <trkpt lat="47.36866" lon="6.45327">
        <ele>271.455828</ele>
        <time>2021-04-29T09:01:36.015Z</time>
      </trkpt>
      <trkpt lat="47.36905" lon="6.45336">
        <ele>271.455233</ele>
        <time>2021-04-29T09:01:46.811Z</time>
      </trkpt>
      <trkpt lat="47.36992" lon="6.4538">
        <ele>271.45384</ele>
        <time>2021-04-29T09:02:12.005Z</time>
      </trkpt>
      <trkpt lat="47.37033" lon="6.45407">
        <ele>271.439579</ele>
        <time>2021-04-29T09:02:24.146Z</time>
      </trkpt>
      <trkpt lat="47.37193" lon="6.45557">
        <ele>271.299</ele>
        <time>2021-04-29T09:03:12.954Z</time>
      </trkpt>
      <trkpt lat="47.37305" lon="6.45699">
        <ele>271.994355</ele>
        <time>2021-04-29T09:03:54.019Z</time>
      </trkpt>
      <trkpt lat="47.37335" lon="6.45767">
        <ele>273.258359</ele>
        <time>2021-04-29T09:04:13.390Z</time>
      </trkpt>
      <trkpt lat="47.3735" lon="6.45852">
        <ele>274.985782</ele>
        <time>2021-04-29T09:04:37.761Z</time>
      </trkpt>
      <trkpt lat="47.37357" lon="6.45899">
        <ele>275.913144</ele>
        <time>2021-04-29T09:04:51.819Z</time>
      </trkpt>
      <trkpt lat="47.37355" lon="6.45913">
        <ele>276.192383</ele>
        <time>2021-04-29T09:04:56.242Z</time>
      </trkpt>
      <trkpt lat="47.37349" lon="6.45919">
        <ele>276.406746</ele>
        <time>2021-04-29T09:04:59.706Z</time>
      </trkpt>
      <trkpt lat="47.37309" lon="6.4594">
        <ele>277.770045</ele>
        <time>2021-04-29T09:05:19.573Z</time>
      </trkpt>
      <trkpt lat="47.37284" lon="6.45952">
        <ele>278.828347</ele>
        <time>2021-04-29T09:05:32.107Z</time>
      </trkpt>
      <trkpt lat="47.37269" lon="6.45972">
        <ele>279.646112</ele>
        <time>2021-04-29T09:05:42.061Z</time>
      </trkpt>
      <trkpt lat="47.37195" lon="6.46112">
        <ele>284.507099</ele>
        <time>2021-04-29T09:06:40.226Z</time>
      </trkpt>
      <trkpt lat="47.37124" lon="6.46307">
        <ele>289.187852</ele>
        <time>2021-04-29T09:07:43.289Z</time>
      </trkpt>
      <trkpt lat="47.37111" lon="6.46331">
        <ele>289.850618</ele>
        <time>2021-04-29T09:07:52.064Z</time>
      </trkpt>
      <trkpt lat="47.37088" lon="6.46364">
        <ele>290.946506</ele>
        <time>2021-04-29T09:08:05.487Z</time>
      </trkpt>
      <trkpt lat="47.37061" lon="6.46391">
        <ele>292.099658</ele>
        <time>2021-04-29T09:08:19.440Z</time>
      </trkpt>
      <trkpt lat="47.3694" lon="6.46475">
        <ele>296.884863</ele>
        <time>2021-04-29T09:09:20.040Z</time>
      </trkpt>
      <trkpt lat="47.36908" lon="6.46512">
        <ele>298.679712</ele>
        <time>2021-04-29T09:09:39.864Z</time>
      </trkpt>
      <trkpt lat="47.36793" lon="6.46708">
        <ele>306.096631</ele>
        <time>2021-04-29T09:11:08.290Z</time>
      </trkpt>
      <trkpt lat="47.36782" lon="6.4673">
        <ele>306.779962</ele>
        <time>2021-04-29T09:11:16.462Z</time>
      </trkpt>
      <trkpt lat="47.36768" lon="6.46784">
        <ele>308.215916</ele>
        <time>2021-04-29T09:11:34.092Z</time>
      </trkpt>
      <trkpt lat="47.36761" lon="6.46805">
        <ele>308.807956</ele>
        <time>2021-04-29T09:11:41.914Z</time>
      </trkpt>
      <trkpt lat="47.36772" lon="6.4691">
        <ele>311.288653</ele>
        <time>2021-04-29T09:12:11.507Z</time>
      </trkpt>
      <trkpt lat="47.36783" lon="6.47002">
        <ele>312.713703</ele>
        <time>2021-04-29T09:12:35.509Z</time>
      </trkpt>
      <trkpt lat="47.36783" lon="6.47068">
        <ele>313.713891</ele>
        <time>2021-04-29T09:12:51.176Z</time>
      </trkpt>
      <trkpt lat="47.36769" lon="6.47241">
        <ele>316.569471</ele>
        <time>2021-04-29T09:13:34.449Z</time>
      </trkpt>
      <trkpt lat="47.36756" lon="6.47353">
        <ele>318.592528</ele>
        <time>2021-04-29T09:14:06.507Z</time>
      </trkpt>
      <trkpt lat="47.36739" lon="6.4742">
        <ele>319.795442</ele>
        <time>2021-04-29T09:14:26.162Z</time>
      </trkpt>
      <trkpt lat="47.36731" lon="6.47488">
        <ele>320.419845</ele>
        <time>2021-04-29T09:14:44.213Z</time>
      </trkpt>
      <trkpt lat="47.36729" lon="6.47538">
        <ele>320.874735</ele>
        <time>2021-04-29T09:14:56.579Z</time>
      </trkpt>
      <trkpt lat="47.36727" lon="6.47575">
        <ele>321.203235</ele>
        <time>2021-04-29T09:15:04.927Z</time>
      </trkpt>
      <trkpt lat="47.36725" lon="6.47642">
        <ele>321.813092</ele>
        <time>2021-04-29T09:15:19.572Z</time>
      </trkpt>
      <trkpt lat="47.36719" lon="6.47706">
        <ele>321.668784</ele>
        <time>2021-04-29T09:15:30.543Z</time>
      </trkpt>
      <trkpt lat="47.36725" lon="6.47795">
        <ele>320.20967</ele>
        <time>2021-04-29T09:15:43.048Z</time>
      </trkpt>
      <trkpt lat="47.36734" lon="6.47882">
        <ele>318.775919</ele>
        <time>2021-04-29T09:15:54.813Z</time>
      </trkpt>
      <trkpt lat="47.36735" lon="6.47894">
        <ele>318.582563</ele>
        <time>2021-04-29T09:15:56.373Z</time>
      </trkpt>
      <trkpt lat="47.36737" lon="6.47926">
        <ele>318.043231</ele>
        <time>2021-04-29T09:16:00.737Z</time>
      </trkpt>
      <trkpt lat="47.36726" lon="6.47989">
        <ele>316.710523</ele>
        <time>2021-04-29T09:16:09.518Z</time>
      </trkpt>
      <trkpt lat="47.36722" lon="6.4808">
        <ele>314.72757</ele>
        <time>2021-04-29T09:16:21.934Z</time>
      </trkpt>
      <trkpt lat="47.36715" lon="6.48135">
        <ele>313.502318</ele>
        <time>2021-04-29T09:16:29.786Z</time>
      </trkpt>
      <trkpt lat="47.36709" lon="6.48164">
        <ele>312.850051</ele>
        <time>2021-04-29T09:16:34.337Z</time>
      </trkpt>
      <trkpt lat="47.36735" lon="6.48197">
        <ele>311.891266</ele>
        <time>2021-04-29T09:16:41.408Z</time>
      </trkpt>
      <trkpt lat="47.36722" lon="6.48233">
        <ele>311.462462</ele>
        <time>2021-04-29T09:16:47.440Z</time>
      </trkpt>
      <trkpt lat="47.36705" lon="6.4827">
        <ele>310.999791</ele>
        <time>2021-04-29T09:16:54.086Z</time>
      </trkpt>
      <trkpt lat="47.36697" lon="6.48292">
        <ele>310.738839</ele>
        <time>2021-04-29T09:16:57.797Z</time>
      </trkpt>
      <trkpt lat="47.36699" lon="6.48308">
        <ele>310.574783</ele>
        <time>2021-04-29T09:17:00.127Z</time>
      </trkpt>
      <trkpt lat="47.36703" lon="6.4834">
        <ele>310.228083</ele>
        <time>2021-04-29T09:17:04.847Z</time>
      </trkpt>
      <trkpt lat="47.3672" lon="6.48353">
        <ele>309.93851</ele>
        <time>2021-04-29T09:17:09.485Z</time>
      </trkpt>
      <trkpt lat="47.36724" lon="6.48355">
        <ele>309.869714</ele>
        <time>2021-04-29T09:17:10.348Z</time>
      </trkpt>
      <trkpt lat="47.36733" lon="6.48362">
        <ele>309.715114</ele>
        <time>2021-04-29T09:17:12.509Z</time>
      </trkpt>
      <trkpt lat="47.36751" lon="6.48381">
        <ele>309.366647</ele>
        <time>2021-04-29T09:17:19.124Z</time>
      </trkpt>
      <trkpt lat="47.36775" lon="6.4846">
        <ele>309.568179</ele>
        <time>2021-04-29T09:17:34.652Z</time>
      </trkpt>
      <trkpt lat="47.36778" lon="6.48734">
        <ele>310.69645</ele>
        <time>2021-04-29T09:18:33.264Z</time>
      </trkpt>
      <trkpt lat="47.36786" lon="6.48741">
        <ele>310.747086</ele>
        <time>2021-04-29T09:18:36.797Z</time>
      </trkpt>
      <trkpt lat="47.36787" lon="6.48765">
        <ele>310.840464</ele>
        <time>2021-04-29T09:18:41.416Z</time>
      </trkpt>
      <trkpt lat="47.368" lon="6.48877">
        <ele>311.289847</ele>
        <time>2021-04-29T09:19:04.744Z</time>
      </trkpt>
      <trkpt lat="47.3684" lon="6.49113">
        <ele>311.19101</ele>
        <time>2021-04-29T09:19:49.251Z</time>
      </trkpt>
      <trkpt lat="47.36835" lon="6.49129">
        <ele>311.173557</ele>
        <time>2021-04-29T09:19:52.606Z</time>
      </trkpt>
      <trkpt lat="47.36867" lon="6.49249">
        <ele>310.747271</ele>
        <time>2021-04-29T09:20:14.413Z</time>
      </trkpt>
      <trkpt lat="47.36981" lon="6.49582">
        <ele>308.880698</ele>
        <time>2021-04-29T09:21:14.602Z</time>
      </trkpt>
      <trkpt lat="47.37123" lon="6.49873">
        <ele>305.918077</ele>
        <time>2021-04-29T09:22:10.851Z</time>
      </trkpt>
      <trkpt lat="47.37162" lon="6.49972">
        <ele>303.997211</ele>
        <time>2021-04-29T09:22:26.614Z</time>
      </trkpt>
      <trkpt lat="47.37226" lon="6.50052">
        <ele>301.935131</ele>
        <time>2021-04-29T09:22:42.879Z</time>
      </trkpt>
      <trkpt lat="47.37287" lon="6.50097">
        <ele>301.301898</ele>
        <time>2021-04-29T09:22:57.155Z</time>
      </trkpt>
      <trkpt lat="47.37298" lon="6.5012">
        <ele>301.126585</ele>
        <time>2021-04-29T09:23:01.014Z</time>
      </trkpt>
      <trkpt lat="47.37316" lon="6.50125">
        <ele>300.959213</ele>
        <time>2021-04-29T09:23:06.193Z</time>
      </trkpt>
      <trkpt lat="47.37383" lon="6.50148">
        <ele>300.316405</ele>
        <time>2021-04-29T09:23:25.049Z</time>
      </trkpt>
      <trkpt lat="47.37421" lon="6.5017">
        <ele>301.003132</ele>
        <time>2021-04-29T09:23:38.549Z</time>
      </trkpt>
      <trkpt lat="47.37643" lon="6.50352">
        <ele>305.889692</ele>
        <time>2021-04-29T09:25:16.126Z</time>
      </trkpt>
      <trkpt lat="47.37699" lon="6.50388">
        <ele>306.993199</ele>
        <time>2021-04-29T09:25:35.471Z</time>
      </trkpt>
      <trkpt lat="47.3774" lon="6.50405">
        <ele>307.144874</ele>
        <time>2021-04-29T09:25:47.623Z</time>
      </trkpt>
      <trkpt lat="47.37858" lon="6.50431">
        <ele>307.138187</ele>
        <time>2021-04-29T09:26:18.844Z</time>
      </trkpt>
      <trkpt lat="47.37929" lon="6.50448">
        <ele>306.701709</ele>
        <time>2021-04-29T09:26:36.571Z</time>
      </trkpt>
      <trkpt lat="47.38013" lon="6.50472">
        <ele>305.866133</ele>
        <time>2021-04-29T09:26:57.050Z</time>
      </trkpt>
      <trkpt lat="47.38145" lon="6.50521">
        <ele>303.153841</ele>
        <time>2021-04-29T09:27:26.303Z</time>
      </trkpt>
      <trkpt lat="47.38289" lon="6.50528">
        <ele>299.388512</ele>
        <time>2021-04-29T09:27:54.312Z</time>
      </trkpt>
      <trkpt lat="47.3831" lon="6.50523">
        <ele>298.826746</ele>
        <time>2021-04-29T09:27:58.464Z</time>
      </trkpt>
      <trkpt lat="47.38354" lon="6.5049">
        <ele>297.534965</ele>
        <time>2021-04-29T09:28:08.205Z</time>
      </trkpt>
      <trkpt lat="47.3836" lon="6.50485">
        <ele>297.36343</ele>
        <time>2021-04-29T09:28:09.506Z</time>
      </trkpt>
      <trkpt lat="47.38369" lon="6.5048">
        <ele>297.091874</ele>
        <time>2021-04-29T09:28:11.659Z</time>
      </trkpt>
      <trkpt lat="47.38378" lon="6.5047">
        <ele>296.78872</ele>
        <time>2021-04-29T09:28:14.065Z</time>
      </trkpt>
      <trkpt lat="47.38413" lon="6.50445">
        <ele>296.007781</ele>
        <time>2021-04-29T09:28:22.510Z</time>
      </trkpt>
      <trkpt lat="47.38497" lon="6.50408">
        <ele>296.094947</ele>
        <time>2021-04-29T09:28:43.319Z</time>
      </trkpt>
      <trkpt lat="47.38562" lon="6.50363">
        <ele>296.166664</ele>
        <time>2021-04-29T09:29:06.436Z</time>
      </trkpt>
      <trkpt lat="47.38601" lon="6.50335">
        <ele>296.948732</ele>
        <time>2021-04-29T09:29:21.483Z</time>
      </trkpt>
      <trkpt lat="47.3879" lon="6.5019">
        <ele>301.330547</ele>
        <time>2021-04-29T09:30:46.482Z</time>
      </trkpt>
      <trkpt lat="47.38831" lon="6.50181">
        <ele>301.856574</ele>
        <time>2021-04-29T09:31:00.444Z</time>
      </trkpt>
      <trkpt lat="47.38845" lon="6.50186">
        <ele>302.036747</ele>
        <time>2021-04-29T09:31:06.130Z</time>
      </trkpt>
      <trkpt lat="47.3887" lon="6.50179">
        <ele>302.359105</ele>
        <time>2021-04-29T09:31:12.193Z</time>
      </trkpt>
      <trkpt lat="47.38889" lon="6.50168">
        <ele>302.616903</ele>
        <time>2021-04-29T09:31:18.074Z</time>
      </trkpt>
      <trkpt lat="47.38929" lon="6.50129">
        <ele>301.926025</ele>
        <time>2021-04-29T09:31:29.234Z</time>
      </trkpt>
      <trkpt lat="47.38937" lon="6.50132">
        <ele>301.713827</ele>
        <time>2021-04-29T09:31:31.450Z</time>
      </trkpt>
      <trkpt lat="47.3898" lon="6.50054">
        <ele>300.021684</ele>
        <time>2021-04-29T09:31:45.473Z</time>
      </trkpt>
      <trkpt lat="47.39021" lon="6.50005">
        <ele>298.729866</ele>
        <time>2021-04-29T09:31:55.254Z</time>
      </trkpt>
      <trkpt lat="47.39115" lon="6.49919">
        <ele>295.840938</ele>
        <time>2021-04-29T09:32:16.337Z</time>
      </trkpt>
      <trkpt lat="47.3916" lon="6.49876">
        <ele>294.436863</ele>
        <time>2021-04-29T09:32:28.413Z</time>
      </trkpt>
      <trkpt lat="47.392" lon="6.49838">
        <ele>293.664198</ele>
        <time>2021-04-29T09:32:39.245Z</time>
      </trkpt>
      <trkpt lat="47.3923" lon="6.49802">
        <ele>293.80648</ele>
        <time>2021-04-29T09:32:47.337Z</time>
      </trkpt>
      <trkpt lat="47.3924" lon="6.49821">
        <ele>293.86664</ele>
        <time>2021-04-29T09:32:51.399Z</time>
      </trkpt>
      <trkpt lat="47.39252" lon="6.49838">
        <ele>293.929805</ele>
        <time>2021-04-29T09:32:55.360Z</time>
      </trkpt>
      <trkpt lat="47.39271" lon="6.4982">
        <ele>294.013435</ele>
        <time>2021-04-29T09:33:01.776Z</time>
      </trkpt>
      <trkpt lat="47.39293" lon="6.49784">
        <ele>294.136267</ele>
        <time>2021-04-29T09:33:12.461Z</time>
      </trkpt>
      <trkpt lat="47.39312" lon="6.49757">
        <ele>294.233092</ele>
        <time>2021-04-29T09:33:21.653Z</time>
      </trkpt>
      <trkpt lat="47.3934" lon="6.49726">
        <ele>295.996572</ele>
        <time>2021-04-29T09:33:37.893Z</time>
      </trkpt>
      <trkpt lat="47.39342" lon="6.4973">
        <ele>296.240617</ele>
        <time>2021-04-29T09:33:39.860Z</time>
      </trkpt>
      <trkpt lat="47.39377" lon="6.49777">
        <ele>299.553864</ele>
        <time>2021-04-29T09:34:06.985Z</time>
      </trkpt>
      <trkpt lat="47.39395" lon="6.49811">
        <ele>301.56707</ele>
        <time>2021-04-29T09:34:24.687Z</time>
      </trkpt>
      <trkpt lat="47.39409" lon="6.49857">
        <ele>304.002825</ele>
        <time>2021-04-29T09:34:47.467Z</time>
      </trkpt>
      <trkpt lat="47.39451" lon="6.49969">
        <ele>310.392782</ele>
        <time>2021-04-29T09:35:52.778Z</time>
      </trkpt>
      <trkpt lat="47.3947" lon="6.50016">
        <ele>313.306403</ele>
        <time>2021-04-29T09:36:20.064Z</time>
      </trkpt>
      <trkpt lat="47.39525" lon="6.50153">
        <ele>321.087893</ele>
        <time>2021-04-29T09:37:24.606Z</time>
      </trkpt>
      <trkpt lat="47.39532" lon="6.50175">
        <ele>321.451528</ele>
        <time>2021-04-29T09:37:31.461Z</time>
      </trkpt>
      <trkpt lat="47.39547" lon="6.50219">
        <ele>322.164009</ele>
        <time>2021-04-29T09:37:43.722Z</time>
      </trkpt>
      <trkpt lat="47.39568" lon="6.50278">
        <ele>323.162329</ele>
        <time>2021-04-29T09:37:58.535Z</time>
      </trkpt>
      <trkpt lat="47.39585" lon="6.50333">
        <ele>324.050969</ele>
        <time>2021-04-29T09:38:11.416Z</time>
      </trkpt>
      <trkpt lat="47.39602" lon="6.50399">
        <ele>324.873674</ele>
        <time>2021-04-29T09:38:25.990Z</time>
      </trkpt>
      <trkpt lat="47.39632" lon="6.50503">
        <ele>325.349293</ele>
        <time>2021-04-29T09:38:49.257Z</time>
      </trkpt>
      <trkpt lat="47.39676" lon="6.50615">
        <ele>325.899277</ele>
        <time>2021-04-29T09:39:15.283Z</time>
      </trkpt>
      <trkpt lat="47.3971" lon="6.50677">
        <ele>325.380665</ele>
        <time>2021-04-29T09:39:29.748Z</time>
      </trkpt>
      <trkpt lat="47.39769" lon="6.50767">
        <ele>324.512841</ele>
        <time>2021-04-29T09:39:49.531Z</time>
      </trkpt>
      <trkpt lat="47.39803" lon="6.50806">
        <ele>324.06837</ele>
        <time>2021-04-29T09:39:58.587Z</time>
      </trkpt>
      <trkpt lat="47.39882" lon="6.50881">
        <ele>320.95337</ele>
        <time>2021-04-29T09:40:17.005Z</time>
      </trkpt>
      <trkpt lat="47.40005" lon="6.50973">
        <ele>316.120654</ele>
        <time>2021-04-29T09:40:43.075Z</time>
      </trkpt>
      <trkpt lat="47.40143" lon="6.51049">
        <ele>310.665738</ele>
        <time>2021-04-29T09:41:11.141Z</time>
      </trkpt>
      <trkpt lat="47.40204" lon="6.51089">
        <ele>308.43806</ele>
        <time>2021-04-29T09:41:24.321Z</time>
      </trkpt>
      <trkpt lat="47.40254" lon="6.51131">
        <ele>306.525125</ele>
        <time>2021-04-29T09:41:35.594Z</time>
      </trkpt>
      <trkpt lat="47.4031" lon="6.51191">
        <ele>304.047174</ele>
        <time>2021-04-29T09:41:49.042Z</time>
      </trkpt>
      <trkpt lat="47.40349" lon="6.51241">
        <ele>302.069175</ele>
        <time>2021-04-29T09:41:58.673Z</time>
      </trkpt>
      <trkpt lat="47.40394" lon="6.51303">
        <ele>299.685879</ele>
        <time>2021-04-29T09:42:10.145Z</time>
      </trkpt>
      <trkpt lat="47.40431" lon="6.51361">
        <ele>297.860649</ele>
        <time>2021-04-29T09:42:20.337Z</time>
      </trkpt>
      <trkpt lat="47.40473" lon="6.51442">
        <ele>296.154011</ele>
        <time>2021-04-29T09:42:33.733Z</time>
      </trkpt>
      <trkpt lat="47.40523" lon="6.5155">
        <ele>293.938532</ele>
        <time>2021-04-29T09:42:52.590Z</time>
      </trkpt>
      <trkpt lat="47.40583" lon="6.51709">
        <ele>294.266243</ele>
        <time>2021-04-29T09:43:27.039Z</time>
      </trkpt>
      <trkpt lat="47.40663" lon="6.51918">
        <ele>295.725311</ele>
        <time>2021-04-29T09:44:20.302Z</time>
      </trkpt>
      <trkpt lat="47.4074" lon="6.52137">
        <ele>297.8992</ele>
        <time>2021-04-29T09:45:14.804Z</time>
      </trkpt>
      <trkpt lat="47.40759" lon="6.52206">
        <ele>298.59132</ele>
        <time>2021-04-29T09:45:31.623Z</time>
      </trkpt>
      <trkpt lat="47.4078" lon="6.52309">
        <ele>299.673891</ele>
        <time>2021-04-29T09:45:56.722Z</time>
      </trkpt>
      <trkpt lat="47.40796" lon="6.5241">
        <ele>300.798146</ele>
        <time>2021-04-29T09:46:21.487Z</time>
      </trkpt>
      <trkpt lat="47.40827" lon="6.52601">
        <ele>302.434062</ele>
        <time>2021-04-29T09:47:06.816Z</time>
      </trkpt>
      <trkpt lat="47.40846" lon="6.5273">
        <ele>303.102434</ele>
        <time>2021-04-29T09:47:33.576Z</time>
      </trkpt>
      <trkpt lat="47.40874" lon="6.52861">
        <ele>303.184661</ele>
        <time>2021-04-29T09:47:57.570Z</time>
      </trkpt>
      <trkpt lat="47.40902" lon="6.52955">
        <ele>303.001023</ele>
        <time>2021-04-29T09:48:14.863Z</time>
      </trkpt>
      <trkpt lat="47.4097" lon="6.53144">
        <ele>302.584774</ele>
        <time>2021-04-29T09:48:51.729Z</time>
      </trkpt>
      <trkpt lat="47.40991" lon="6.53213">
        <ele>302.431569</ele>
        <time>2021-04-29T09:49:05.089Z</time>
      </trkpt>
      <trkpt lat="47.41013" lon="6.5329">
        <ele>302.210299</ele>
        <time>2021-04-29T09:49:19.158Z</time>
      </trkpt>
      <trkpt lat="47.41022" lon="6.53325">
        <ele>302.075805</ele>
        <time>2021-04-29T09:49:25.832Z</time>
      </trkpt>
      <trkpt lat="47.41079" lon="6.53575">
        <ele>300.568655</ele>
        <time>2021-04-29T09:50:09.774Z</time>
      </trkpt>
      <trkpt lat="47.41098" lon="6.53722">
        <ele>298.830807</ele>
        <time>2021-04-29T09:50:30.653Z</time>
      </trkpt>
      <trkpt lat="47.41112" lon="6.53833">
        <ele>298.109014</ele>
        <time>2021-04-29T09:50:46.736Z</time>
      </trkpt>
      <trkpt lat="47.41126" lon="6.53893">
        <ele>297.943564</ele>
        <time>2021-04-29T09:50:56.806Z</time>
      </trkpt>
      <trkpt lat="47.41152" lon="6.53981">
        <ele>297.689132</ele>
        <time>2021-04-29T09:51:13.382Z</time>
      </trkpt>
      <trkpt lat="47.41178" lon="6.54053">
        <ele>298.367912</ele>
        <time>2021-04-29T09:51:33.188Z</time>
      </trkpt>
      <trkpt lat="47.41215" lon="6.54158">
        <ele>300.633286</ele>
        <time>2021-04-29T09:52:06.952Z</time>
      </trkpt>
      <trkpt lat="47.41242" lon="6.54274">
        <ele>303.024371</ele>
        <time>2021-04-29T09:52:42.669Z</time>
      </trkpt>
      <trkpt lat="47.41259" lon="6.54394">
        <ele>305.751362</ele>
        <time>2021-04-29T09:53:16.734Z</time>
      </trkpt>
      <trkpt lat="47.41265" lon="6.54512">
        <ele>308.378961</ele>
        <time>2021-04-29T09:53:50.668Z</time>
      </trkpt>
      <trkpt lat="47.41254" lon="6.54814">
        <ele>316.147991</ele>
        <time>2021-04-29T09:55:24.317Z</time>
      </trkpt>
      <trkpt lat="47.41276" lon="6.5526">
        <ele>325.593123</ele>
        <time>2021-04-29T09:57:35.306Z</time>
      </trkpt>
      <trkpt lat="47.41354" lon="6.5557">
        <ele>327.256514</ele>
        <time>2021-04-29T09:58:39.237Z</time>
      </trkpt>
      <trkpt lat="47.41411" lon="6.5575">
        <ele>326.759349</ele>
        <time>2021-04-29T09:59:11.620Z</time>
      </trkpt>
      <trkpt lat="47.41504" lon="6.55908">
        <ele>326.659223</ele>
        <time>2021-04-29T09:59:49.090Z</time>
      </trkpt>
      <trkpt lat="47.41622" lon="6.56056">
        <ele>325.989384</ele>
        <time>2021-04-29T10:00:32.246Z</time>
      </trkpt>
      <trkpt lat="47.41765" lon="6.56179">
        <ele>322.924189</ele>
        <time>2021-04-29T10:01:07.917Z</time>
      </trkpt>
      <trkpt lat="47.41898" lon="6.56256">
        <ele>317.744159</ele>
        <time>2021-04-29T10:01:34.483Z</time>
      </trkpt>
      <trkpt lat="47.41989" lon="6.56281">
        <ele>313.263689</ele>
        <time>2021-04-29T10:01:51.288Z</time>
      </trkpt>
      <trkpt lat="47.42043" lon="6.56288">
        <ele>310.643506</ele>
        <time>2021-04-29T10:02:01.098Z</time>
      </trkpt>
      <trkpt lat="47.42147" lon="6.56284">
        <ele>305.827907</ele>
        <time>2021-04-29T10:02:20.149Z</time>
      </trkpt>
      <trkpt lat="47.42203" lon="6.56278">
        <ele>303.261144</ele>
        <time>2021-04-29T10:02:30.472Z</time>
      </trkpt>
      <trkpt lat="47.42252" lon="6.56269">
        <ele>301.292942</ele>
        <time>2021-04-29T10:02:39.611Z</time>
      </trkpt>
      <trkpt lat="47.42396" lon="6.56217">
        <ele>296.45549</ele>
        <time>2021-04-29T10:03:08.531Z</time>
      </trkpt>
      <trkpt lat="47.424" lon="6.56217">
        <ele>296.317821</ele>
        <time>2021-04-29T10:03:09.240Z</time>
      </trkpt>
      <trkpt lat="47.42436" lon="6.56213">
        <ele>295.897113</ele>
        <time>2021-04-29T10:03:17.133Z</time>
      </trkpt>
      <trkpt lat="47.42473" lon="6.56213">
        <ele>295.610361</ele>
        <time>2021-04-29T10:03:25.380Z</time>
      </trkpt>
      <trkpt lat="47.42515" lon="6.5622">
        <ele>295.286385</ele>
        <time>2021-04-29T10:03:35.222Z</time>
      </trkpt>
      <trkpt lat="47.42529" lon="6.56222">
        <ele>295.179354</ele>
        <time>2021-04-29T10:03:38.719Z</time>
      </trkpt>
      <trkpt lat="47.42584" lon="6.56214">
        <ele>294.752403</ele>
        <time>2021-04-29T10:03:53.928Z</time>
      </trkpt>
      <trkpt lat="47.42608" lon="6.56211">
        <ele>294.916188</ele>
        <time>2021-04-29T10:04:02.108Z</time>
      </trkpt>
      <trkpt lat="47.42628" lon="6.5621">
        <ele>295.066603</ele>
        <time>2021-04-29T10:04:08.881Z</time>
      </trkpt>
      <trkpt lat="47.42638" lon="6.56211">
        <ele>295.143679</ele>
        <time>2021-04-29T10:04:11.987Z</time>
      </trkpt>
      <trkpt lat="47.42661" lon="6.5622">
        <ele>295.317621</ele>
        <time>2021-04-29T10:04:20.689Z</time>
      </trkpt>
      <trkpt lat="47.42703" lon="6.56248">
        <ele>295.666248</ele>
        <time>2021-04-29T10:04:34.396Z</time>
      </trkpt>
      <trkpt lat="47.42717" lon="6.56261">
        <ele>295.791707</ele>
        <time>2021-04-29T10:04:39.340Z</time>
      </trkpt>
      <trkpt lat="47.42714" lon="6.56265">
        <ele>295.822994</ele>
        <time>2021-04-29T10:04:41.073Z</time>
      </trkpt>
      <trkpt lat="47.42705" lon="6.56281">
        <ele>295.928511</ele>
        <time>2021-04-29T10:04:44.659Z</time>
      </trkpt>
      <trkpt lat="47.42703" lon="6.56289">
        <ele>295.971408</ele>
        <time>2021-04-29T10:04:47.564Z</time>
      </trkpt>
      <trkpt lat="47.42706" lon="6.56292">
        <ele>295.99878</ele>
        <time>2021-04-29T10:04:48.797Z</time>
      </trkpt>
      <trkpt lat="47.4273" lon="6.56379">
        <ele>295.849263</ele>
        <time>2021-04-29T10:05:05.341Z</time>
      </trkpt>
      <trkpt lat="47.42732" lon="6.56385">
        <ele>295.824523</ele>
        <time>2021-04-29T10:05:08.029Z</time>
      </trkpt>
      <trkpt lat="47.42738" lon="6.56397">
        <ele>295.779832</ele>
        <time>2021-04-29T10:05:10.012Z</time>
      </trkpt>
      <trkpt lat="47.42817" lon="6.56521">
        <ele>295.262814</ele>
        <time>2021-04-29T10:05:38.879Z</time>
      </trkpt>
      <trkpt lat="47.42856" lon="6.56554">
        <ele>295.93534</ele>
        <time>2021-04-29T10:05:49.661Z</time>
      </trkpt>
      <trkpt lat="47.42867" lon="6.56559">
        <ele>296.117217</ele>
        <time>2021-04-29T10:05:52.452Z</time>
      </trkpt>
      <trkpt lat="47.4288" lon="6.56574">
        <ele>296.359076</ele>
        <time>2021-04-29T10:05:58.394Z</time>
      </trkpt>
      <trkpt lat="47.429" lon="6.56598">
        <ele>296.751703</ele>
        <time>2021-04-29T10:06:06.920Z</time>
      </trkpt>
      <trkpt lat="47.42974" lon="6.56686">
        <ele>298.643928</ele>
        <time>2021-04-29T10:06:46.043Z</time>
      </trkpt>
      <trkpt lat="47.4301" lon="6.56727">
        <ele>300.681997</ele>
        <time>2021-04-29T10:07:08.794Z</time>
      </trkpt>
      <trkpt lat="47.43035" lon="6.56756">
        <ele>302.106093</ele>
        <time>2021-04-29T10:07:24.632Z</time>
      </trkpt>
      <trkpt lat="47.4306" lon="6.568">
        <ele>303.868948</ele>
        <time>2021-04-29T10:07:44.646Z</time>
      </trkpt>
      <trkpt lat="47.43076" lon="6.56838">
        <ele>305.233044</ele>
        <time>2021-04-29T10:07:59.800Z</time>
      </trkpt>
      <trkpt lat="47.43086" lon="6.56876">
        <ele>306.417318</ele>
        <time>2021-04-29T10:08:13.827Z</time>
      </trkpt>
      <trkpt lat="47.43092" lon="6.56937">
        <ele>307.968644</ele>
        <time>2021-04-29T10:08:32.911Z</time>
      </trkpt>
      <trkpt lat="47.43091" lon="6.56988">
        <ele>309.242685</ele>
        <time>2021-04-29T10:08:47.844Z</time>
      </trkpt>
      <trkpt lat="47.43082" lon="6.57041">
        <ele>310.625119</ele>
        <time>2021-04-29T10:09:03.827Z</time>
      </trkpt>
      <trkpt lat="47.43068" lon="6.57088">
        <ele>311.91722</ele>
        <time>2021-04-29T10:09:18.601Z</time>
      </trkpt>
      <trkpt lat="47.42966" lon="6.57299">
        <ele>318.209158</ele>
        <time>2021-04-29T10:10:33.831Z</time>
      </trkpt>
      <trkpt lat="47.4294" lon="6.57386">
        <ele>321.05904</ele>
        <time>2021-04-29T10:11:04.073Z</time>
      </trkpt>
      <trkpt lat="47.42941" lon="6.57495">
        <ele>324.770546</ele>
        <time>2021-04-29T10:11:41.410Z</time>
      </trkpt>
      <trkpt lat="47.42963" lon="6.57594">
        <ele>328.326319</ele>
        <time>2021-04-29T10:12:19.840Z</time>
      </trkpt>
      <trkpt lat="47.43057" lon="6.57802">
        <ele>337.598885</ele>
        <time>2021-04-29T10:13:52.907Z</time>
      </trkpt>
      <trkpt lat="47.43174" lon="6.58049">
        <ele>343.565441</ele>
        <time>2021-04-29T10:15:19.029Z</time>
      </trkpt>
      <trkpt lat="47.4316" lon="6.58069">
        <ele>343.300683</ele>
        <time>2021-04-29T10:15:24.599Z</time>
      </trkpt>
      <trkpt lat="47.43159" lon="6.58112">
        <ele>342.892932</ele>
        <time>2021-04-29T10:15:31.532Z</time>
      </trkpt>
      <trkpt lat="47.43184" lon="6.58223">
        <ele>341.794273</ele>
        <time>2021-04-29T10:15:48.170Z</time>
      </trkpt>
      <trkpt lat="47.4318" lon="6.5834">
        <ele>339.659319</ele>
        <time>2021-04-29T10:16:02.871Z</time>
      </trkpt>
      <trkpt lat="47.43148" lon="6.58564">
        <ele>334.196874</ele>
        <time>2021-04-29T10:16:31.896Z</time>
      </trkpt>
      <trkpt lat="47.43149" lon="6.58658">
        <ele>333.918522</ele>
        <time>2021-04-29T10:16:46.088Z</time>
      </trkpt>
      <trkpt lat="47.4315" lon="6.58691">
        <ele>333.823094</ele>
        <time>2021-04-29T10:16:51.745Z</time>
      </trkpt>
      <trkpt lat="47.43162" lon="6.58745">
        <ele>333.65708</ele>
        <time>2021-04-29T10:17:02.831Z</time>
      </trkpt>
      <trkpt lat="47.43175" lon="6.58795">
        <ele>333.498467</ele>
        <time>2021-04-29T10:17:15.641Z</time>
      </trkpt>
      <trkpt lat="47.4318" lon="6.58993">
        <ele>337.788085</ele>
        <time>2021-04-29T10:18:15.491Z</time>
      </trkpt>
      <trkpt lat="47.43319" lon="6.5956">
        <ele>351.722553</ele>
        <time>2021-04-29T10:21:21.140Z</time>
      </trkpt>
      <trkpt lat="47.43322" lon="6.59612">
        <ele>351.320316</ele>
        <time>2021-04-29T10:21:31.958Z</time>
      </trkpt>
      <trkpt lat="47.4331" lon="6.59668">
        <ele>350.860559</ele>
        <time>2021-04-29T10:21:42.376Z</time>
      </trkpt>
      <trkpt lat="47.43257" lon="6.59776">
        <ele>349.812014</ele>
        <time>2021-04-29T10:22:02.004Z</time>
      </trkpt>
      <trkpt lat="47.43226" lon="6.59852">
        <ele>347.186145</ele>
        <time>2021-04-29T10:22:13.917Z</time>
      </trkpt>
      <trkpt lat="47.4315" lon="6.60001">
        <ele>340.188426</ele>
        <time>2021-04-29T10:22:37.356Z</time>
      </trkpt>
      <trkpt lat="47.43076" lon="6.60146">
        <ele>330.549998</ele>
        <time>2021-04-29T10:22:59.191Z</time>
      </trkpt>
      <trkpt lat="47.43012" lon="6.60255">
        <ele>322.471641</ele>
        <time>2021-04-29T10:23:16.116Z</time>
      </trkpt>
      <trkpt lat="47.42961" lon="6.60358">
        <ele>314.733902</ele>
        <time>2021-04-29T10:23:31.192Z</time>
      </trkpt>
      <trkpt lat="47.4293" lon="6.60429">
        <ele>309.687678</ele>
        <time>2021-04-29T10:23:41.048Z</time>
      </trkpt>
      <trkpt lat="47.4291" lon="6.60476">
        <ele>307.371593</ele>
        <time>2021-04-29T10:23:47.738Z</time>
      </trkpt>
      <trkpt lat="47.42911" lon="6.60485">
        <ele>306.998161</ele>
        <time>2021-04-29T10:23:48.886Z</time>
      </trkpt>
      <trkpt lat="47.42904" lon="6.60508">
        <ele>306.018627</ele>
        <time>2021-04-29T10:23:51.780Z</time>
      </trkpt>
      <trkpt lat="47.42883" lon="6.60619">
        <ele>301.564075</ele>
        <time>2021-04-29T10:24:05.636Z</time>
      </trkpt>
      <trkpt lat="47.42877" lon="6.60641">
        <ele>300.671437</ele>
        <time>2021-04-29T10:24:08.616Z</time>
      </trkpt>
      <trkpt lat="47.42866" lon="6.60662">
        <ele>299.625707</ele>
        <time>2021-04-29T10:24:12.074Z</time>
      </trkpt>
      <trkpt lat="47.42855" lon="6.6068">
        <ele>298.946959</ele>
        <time>2021-04-29T10:24:15.489Z</time>
      </trkpt>
      <trkpt lat="47.42861" lon="6.60692">
        <ele>298.889569</ele>
        <time>2021-04-29T10:24:17.425Z</time>
      </trkpt>
      <trkpt lat="47.42871" lon="6.60742">
        <ele>298.690887</ele>
        <time>2021-04-29T10:24:25.380Z</time>
      </trkpt>
      <trkpt lat="47.42878" lon="6.60768">
        <ele>298.579599</ele>
        <time>2021-04-29T10:24:30.189Z</time>
      </trkpt>
      <trkpt lat="47.42878" lon="6.60788">
        <ele>298.504575</ele>
        <time>2021-04-29T10:24:33.873Z</time>
      </trkpt>
      <trkpt lat="47.42875" lon="6.60817">
        <ele>298.389665</ele>
        <time>2021-04-29T10:24:39.199Z</time>
      </trkpt>
      <trkpt lat="47.42868" lon="6.60869">
        <ele>298.186622</ele>
        <time>2021-04-29T10:24:50.016Z</time>
      </trkpt>
      <trkpt lat="47.42866" lon="6.60883">
        <ele>298.129546</ele>
        <time>2021-04-29T10:24:53.335Z</time>
      </trkpt>
      <trkpt lat="47.42861" lon="6.60931">
        <ele>297.960666</ele>
        <time>2021-04-29T10:25:02.689Z</time>
      </trkpt>
      <trkpt lat="47.4285" lon="6.61028">
        <ele>298.584347</ele>
        <time>2021-04-29T10:25:21.339Z</time>
      </trkpt>
      <trkpt lat="47.42848" lon="6.61048">
        <ele>298.709378</ele>
        <time>2021-04-29T10:25:25.496Z</time>
      </trkpt>
      <trkpt lat="47.42839" lon="6.61113">
        <ele>299.131642</ele>
        <time>2021-04-29T10:25:38.898Z</time>
      </trkpt>
      <trkpt lat="47.42831" lon="6.61142">
        <ele>299.327439</ele>
        <time>2021-04-29T10:25:45.629Z</time>
      </trkpt>
      <trkpt lat="47.42827" lon="6.61151">
        <ele>299.39348</ele>
        <time>2021-04-29T10:25:48.219Z</time>
      </trkpt>
      <trkpt lat="47.42829" lon="6.6116">
        <ele>299.450478</ele>
        <time>2021-04-29T10:25:50.581Z</time>
      </trkpt>
      <trkpt lat="47.42822" lon="6.61189">
        <ele>299.678643</ele>
        <time>2021-04-29T10:25:59.562Z</time>
      </trkpt>
      <trkpt lat="47.42791" lon="6.61284">
        <ele>301.915021</ele>
        <time>2021-04-29T10:26:28.428Z</time>
      </trkpt>
      <trkpt lat="47.42792" lon="6.61292">
        <ele>302.08449</ele>
        <time>2021-04-29T10:26:30.985Z</time>
      </trkpt>
      <trkpt lat="47.4275" lon="6.61411">
        <ele>304.930929</ele>
        <time>2021-04-29T10:27:27.291Z</time>
      </trkpt>
      <trkpt lat="47.42719" lon="6.61497">
        <ele>307.034446</ele>
        <time>2021-04-29T10:28:10.294Z</time>
      </trkpt>
      <trkpt lat="47.4266" lon="6.61729">
        <ele>310.945471</ele>
        <time>2021-04-29T10:29:49.327Z</time>
      </trkpt>
      <trkpt lat="47.42636" lon="6.61861">
        <ele>310.638517</ele>
        <time>2021-04-29T10:30:27.586Z</time>
      </trkpt>
      <trkpt lat="47.42621" lon="6.6201">
        <ele>308.568878</ele>
        <time>2021-04-29T10:31:04.565Z</time>
      </trkpt>
      <trkpt lat="47.4263" lon="6.62254">
        <ele>303.350525</ele>
        <time>2021-04-29T10:32:01.733Z</time>
      </trkpt>
      <trkpt lat="47.42652" lon="6.62463">
        <ele>299.589957</ele>
        <time>2021-04-29T10:32:54.878Z</time>
      </trkpt>
      <trkpt lat="47.42702" lon="6.62696">
        <ele>296.880738</ele>
        <time>2021-04-29T10:33:58.943Z</time>
      </trkpt>
      <trkpt lat="47.42771" lon="6.62868">
        <ele>295.693927</ele>
        <time>2021-04-29T10:34:54.213Z</time>
      </trkpt>
      <trkpt lat="47.42813" lon="6.62935">
        <ele>295.236977</ele>
        <time>2021-04-29T10:35:20.510Z</time>
      </trkpt>
      <trkpt lat="47.4286" lon="6.62995">
        <ele>295.10624</ele>
        <time>2021-04-29T10:35:47.542Z</time>
      </trkpt>
      <trkpt lat="47.42916" lon="6.63044">
        <ele>294.971712</ele>
        <time>2021-04-29T10:36:15.892Z</time>
      </trkpt>
      <trkpt lat="47.42973" lon="6.63089">
        <ele>294.916088</ele>
        <time>2021-04-29T10:36:44.704Z</time>
      </trkpt>
      <trkpt lat="47.43017" lon="6.63121">
        <ele>294.99651</ele>
        <time>2021-04-29T10:37:06.408Z</time>
      </trkpt>
      <trkpt lat="47.43166" lon="6.63171">
        <ele>295.224987</ele>
        <time>2021-04-29T10:38:16.543Z</time>
      </trkpt>
      <trkpt lat="47.43236" lon="6.63174">
        <ele>295.297526</ele>
        <time>2021-04-29T10:38:48.352Z</time>
      </trkpt>
      <trkpt lat="47.43307" lon="6.63167">
        <ele>295.36282</ele>
        <time>2021-04-29T10:39:19.708Z</time>
      </trkpt>
      <trkpt lat="47.43434" lon="6.63123">
        <ele>295.251113</ele>
        <time>2021-04-29T10:40:16.554Z</time>
      </trkpt>
      <trkpt lat="47.43543" lon="6.6306">
        <ele>295.374553</ele>
        <time>2021-04-29T10:41:08.970Z</time>
      </trkpt>
      <trkpt lat="47.43732" lon="6.62938">
        <ele>296.054232</ele>
        <time>2021-04-29T10:42:44.877Z</time>
      </trkpt>
      <trkpt lat="47.43813" lon="6.62888">
        <ele>296.490234</ele>
        <time>2021-04-29T10:43:25.511Z</time>
      </trkpt>
      <trkpt lat="47.43835" lon="6.62865">
        <ele>296.831903</ele>
        <time>2021-04-29T10:43:38.445Z</time>
      </trkpt>
      <trkpt lat="47.43847" lon="6.62858">
        <ele>296.98833</ele>
        <time>2021-04-29T10:43:44.468Z</time>
      </trkpt>
      <trkpt lat="47.43933" lon="6.62813">
        <ele>298.120279</ele>
        <time>2021-04-29T10:44:30.048Z</time>
      </trkpt>
      <trkpt lat="47.43952" lon="6.62814">
        <ele>298.368687</ele>
        <time>2021-04-29T10:44:40.391Z</time>
      </trkpt>
      <trkpt lat="47.4407" lon="6.62853">
        <ele>301.263275</ele>
        <time>2021-04-29T10:45:47.542Z</time>
      </trkpt>
      <trkpt lat="47.44088" lon="6.62873">
        <ele>301.873681</ele>
        <time>2021-04-29T10:46:01.034Z</time>
      </trkpt>
      <trkpt lat="47.44165" lon="6.62899">
        <ele>303.971839</ele>
        <time>2021-04-29T10:46:48.862Z</time>
      </trkpt>
      <trkpt lat="47.44192" lon="6.62894">
        <ele>304.653258</ele>
        <time>2021-04-29T10:47:04.748Z</time>
      </trkpt>
      <trkpt lat="47.44346" lon="6.62954">
        <ele>308.211192</ele>
        <time>2021-04-29T10:48:35.297Z</time>
      </trkpt>
      <trkpt lat="47.44562" lon="6.6306">
        <ele>307.776559</ele>
        <time>2021-04-29T10:50:13.934Z</time>
      </trkpt>
      <trkpt lat="47.44565" lon="6.6306">
        <ele>307.733113</ele>
        <time>2021-04-29T10:50:15.287Z</time>
      </trkpt>
      <trkpt lat="47.44575" lon="6.63059">
        <ele>307.604618</ele>
        <time>2021-04-29T10:50:18.485Z</time>
      </trkpt>
      <trkpt lat="47.44587" lon="6.63064">
        <ele>307.433681</ele>
        <time>2021-04-29T10:50:23.783Z</time>
      </trkpt>
      <trkpt lat="47.44619" lon="6.63096">
        <ele>306.940022</ele>
        <time>2021-04-29T10:50:37.900Z</time>
      </trkpt>
      <trkpt lat="47.44647" lon="6.63156">
        <ele>306.338616</ele>
        <time>2021-04-29T10:50:56.327Z</time>
      </trkpt>
      <trkpt lat="47.44782" lon="6.64904">
        <ele>299.881053</ele>
        <time>2021-04-29T10:59:19.750Z</time>
      </trkpt>
      <trkpt lat="47.44783" lon="6.64919">
        <ele>299.859159</ele>
        <time>2021-04-29T10:59:24.729Z</time>
      </trkpt>
      <trkpt lat="47.44783" lon="6.64958">
        <ele>299.802735</ele>
        <time>2021-04-29T10:59:32.021Z</time>
      </trkpt>
      <trkpt lat="47.44784" lon="6.64961">
        <ele>299.797516</ele>
        <time>2021-04-29T10:59:32.760Z</time>
      </trkpt>
      <trkpt lat="47.44786" lon="6.64964">
        <ele>299.792854</ele>
        <time>2021-04-29T10:59:33.622Z</time>
      </trkpt>
      <trkpt lat="47.44792" lon="6.64999">
        <ele>299.749726</ele>
        <time>2021-04-29T10:59:40.226Z</time>
      </trkpt>
      <trkpt lat="47.44794" lon="6.65008">
        <ele>299.753812</ele>
        <time>2021-04-29T10:59:42.266Z</time>
      </trkpt>
      <trkpt lat="47.44792" lon="6.65036">
        <ele>299.765181</ele>
        <time>2021-04-29T10:59:51.205Z</time>
      </trkpt>
      <trkpt lat="47.4499" lon="6.6758">
        <ele>300.767914</ele>
        <time>2021-04-29T11:12:48.204Z</time>
      </trkpt>
      <trkpt lat="47.4499" lon="6.67588">
        <ele>300.769522</ele>
        <time>2021-04-29T11:12:50.682Z</time>
      </trkpt>
      <trkpt lat="47.44998" lon="6.67695">
        <ele>300.715602</ele>
        <time>2021-04-29T11:13:22.776Z</time>
      </trkpt>
      <trkpt lat="47.45013" lon="6.67873">
        <ele>300.523968</ele>
        <time>2021-04-29T11:14:15.800Z</time>
      </trkpt>
      <trkpt lat="47.45029" lon="6.67976">
        <ele>300.556357</ele>
        <time>2021-04-29T11:14:47.303Z</time>
      </trkpt>
      <trkpt lat="47.45047" lon="6.68065">
        <ele>300.628152</ele>
        <time>2021-04-29T11:15:15.172Z</time>
      </trkpt>
      <trkpt lat="47.45099" lon="6.68242">
        <ele>301.022145</ele>
        <time>2021-04-29T11:16:16.071Z</time>
      </trkpt>
      <trkpt lat="47.45133" lon="6.68332">
        <ele>301.353161</ele>
        <time>2021-04-29T11:16:48.739Z</time>
      </trkpt>
      <trkpt lat="47.45162" lon="6.68394">
        <ele>301.600041</ele>
        <time>2021-04-29T11:17:13.158Z</time>
      </trkpt>
      <trkpt lat="47.45217" lon="6.68493">
        <ele>302.011635</ele>
        <time>2021-04-29T11:17:53.932Z</time>
      </trkpt>
      <trkpt lat="47.45315" lon="6.6863">
        <ele>302.57561</ele>
        <time>2021-04-29T11:18:56.617Z</time>
      </trkpt>
      <trkpt lat="47.45372" lon="6.68694">
        <ele>302.801058</ele>
        <time>2021-04-29T11:19:29.360Z</time>
      </trkpt>
      <trkpt lat="47.45521" lon="6.68858">
        <ele>303.182757</ele>
        <time>2021-04-29T11:20:53.998Z</time>
      </trkpt>
      <trkpt lat="47.45523" lon="6.68854">
        <ele>303.188266</ele>
        <time>2021-04-29T11:20:54.968Z</time>
      </trkpt>
      <trkpt lat="47.4553" lon="6.68843">
        <ele>303.202997</ele>
        <time>2021-04-29T11:20:57.583Z</time>
      </trkpt>
      <trkpt lat="47.45534" lon="6.68835">
        <ele>303.213823</ele>
        <time>2021-04-29T11:20:59.586Z</time>
      </trkpt>
      <trkpt lat="47.45568" lon="6.68804">
        <ele>303.261313</ele>
        <time>2021-04-29T11:21:10.530Z</time>
      </trkpt>
      <trkpt lat="47.45594" lon="6.68776">
        <ele>303.248247</ele>
        <time>2021-04-29T11:21:19.214Z</time>
      </trkpt>
      <trkpt lat="47.45619" lon="6.6875">
        <ele>303.235687</ele>
        <time>2021-04-29T11:21:27.414Z</time>
      </trkpt>
      <trkpt lat="47.45658" lon="6.68799">
        <ele>303.215065</ele>
        <time>2021-04-29T11:21:40.910Z</time>
      </trkpt>
      <trkpt lat="47.4566" lon="6.68802">
        <ele>303.213848</ele>
        <time>2021-04-29T11:21:41.736Z</time>
      </trkpt>
      <trkpt lat="47.45711" lon="6.68873">
        <ele>303.156602</ele>
        <time>2021-04-29T11:21:59.723Z</time>
      </trkpt>
      <trkpt lat="47.45792" lon="6.69033">
        <ele>302.824572</ele>
        <time>2021-04-29T11:22:34.462Z</time>
      </trkpt>
      <trkpt lat="47.45852" lon="6.69149">
        <ele>302.724947</ele>
        <time>2021-04-29T11:22:59.579Z</time>
      </trkpt>
      <trkpt lat="47.45957" lon="6.69276">
        <ele>302.960338</ele>
        <time>2021-04-29T11:23:36.196Z</time>
      </trkpt>
      <trkpt lat="47.46038" lon="6.69364">
        <ele>304.124461</ele>
        <time>2021-04-29T11:24:06.518Z</time>
      </trkpt>
      <trkpt lat="47.46165" lon="6.69521">
        <ele>307.361485</ele>
        <time>2021-04-29T11:25:10.556Z</time>
      </trkpt>
      <trkpt lat="47.46174" lon="6.69545">
        <ele>307.80055</ele>
        <time>2021-04-29T11:25:18.046Z</time>
      </trkpt>
      <trkpt lat="47.46177" lon="6.69558">
        <ele>308.012</ele>
        <time>2021-04-29T11:25:21.468Z</time>
      </trkpt>
      <trkpt lat="47.46184" lon="6.69592">
        <ele>308.584873</ele>
        <time>2021-04-29T11:25:30.837Z</time>
      </trkpt>
      <trkpt lat="47.4619" lon="6.69611">
        <ele>308.910911</ele>
        <time>2021-04-29T11:25:35.836Z</time>
      </trkpt>
      <trkpt lat="47.462" lon="6.69632">
        <ele>309.081979</ele>
        <time>2021-04-29T11:25:42.364Z</time>
      </trkpt>
      <trkpt lat="47.4622" lon="6.69664">
        <ele>309.263108</ele>
        <time>2021-04-29T11:25:52.589Z</time>
      </trkpt>
      <trkpt lat="47.46264" lon="6.69741">
        <ele>309.683914</ele>
        <time>2021-04-29T11:26:14.978Z</time>
      </trkpt>
      <trkpt lat="47.4636" lon="6.69938">
        <ele>309.482372</ele>
        <time>2021-04-29T11:26:53.017Z</time>
      </trkpt>
      <trkpt lat="47.4644" lon="6.7011">
        <ele>309.198654</ele>
        <time>2021-04-29T11:27:29.010Z</time>
      </trkpt>
      <trkpt lat="47.46502" lon="6.70243">
        <ele>309.703201</ele>
        <time>2021-04-29T11:28:01.924Z</time>
      </trkpt>
      <trkpt lat="47.46506" lon="6.70252">
        <ele>309.73601</ele>
        <time>2021-04-29T11:28:04.204Z</time>
      </trkpt>
      <trkpt lat="47.46556" lon="6.70355">
        <ele>310.495384</ele>
        <time>2021-04-29T11:28:32.362Z</time>
      </trkpt>
      <trkpt lat="47.46667" lon="6.70593">
        <ele>311.785407</ele>
        <time>2021-04-29T11:29:31.191Z</time>
      </trkpt>
      <trkpt lat="47.46755" lon="6.70778">
        <ele>312.588366</ele>
        <time>2021-04-29T11:30:12.357Z</time>
      </trkpt>
      <trkpt lat="47.46844" lon="6.70963">
        <ele>314.344863</ele>
        <time>2021-04-29T11:31:00.894Z</time>
      </trkpt>
      <trkpt lat="47.46899" lon="6.71083">
        <ele>316.674986</ele>
        <time>2021-04-29T11:31:39.435Z</time>
      </trkpt>
      <trkpt lat="47.46987" lon="6.71284">
        <ele>321.629484</ele>
        <time>2021-04-29T11:32:48.792Z</time>
      </trkpt>
      <trkpt lat="47.47049" lon="6.71438">
        <ele>325.164424</ele>
        <time>2021-04-29T11:33:40.273Z</time>
      </trkpt>
      <trkpt lat="47.4718" lon="6.71852">
        <ele>331.628253</ele>
        <time>2021-04-29T11:35:35.577Z</time>
      </trkpt>
      <trkpt lat="47.47202" lon="6.71911">
        <ele>331.326543</ele>
        <time>2021-04-29T11:35:47.664Z</time>
      </trkpt>
      <trkpt lat="47.47208" lon="6.71926">
        <ele>331.249697</ele>
        <time>2021-04-29T11:35:50.223Z</time>
      </trkpt>
      <trkpt lat="47.47289" lon="6.72126">
        <ele>329.578417</ele>
        <time>2021-04-29T11:36:24.969Z</time>
      </trkpt>
      <trkpt lat="47.47324" lon="6.72227">
        <ele>328.049379</ele>
        <time>2021-04-29T11:36:41.766Z</time>
      </trkpt>
      <trkpt lat="47.47364" lon="6.72373">
        <ele>325.096936</ele>
        <time>2021-04-29T11:37:03.035Z</time>
      </trkpt>
      <trkpt lat="47.47367" lon="6.72392">
        <ele>324.618194</ele>
        <time>2021-04-29T11:37:05.547Z</time>
      </trkpt>
      <trkpt lat="47.4737" lon="6.72406">
        <ele>324.254991</ele>
        <time>2021-04-29T11:37:07.419Z</time>
      </trkpt>
      <trkpt lat="47.47377" lon="6.72442">
        <ele>323.34036</ele>
        <time>2021-04-29T11:37:12.204Z</time>
      </trkpt>
      <trkpt lat="47.47385" lon="6.72504">
        <ele>321.780301</ele>
        <time>2021-04-29T11:37:20.311Z</time>
      </trkpt>
      <trkpt lat="47.47386" lon="6.72512">
        <ele>321.571316</ele>
        <time>2021-04-29T11:37:21.331Z</time>
      </trkpt>
      <trkpt lat="47.47397" lon="6.72588">
        <ele>319.703404</ele>
        <time>2021-04-29T11:37:31.063Z</time>
      </trkpt>
      <trkpt lat="47.47432" lon="6.72847">
        <ele>313.866015</ele>
        <time>2021-04-29T11:38:05.635Z</time>
      </trkpt>
      <trkpt lat="47.47438" lon="6.7293">
        <ele>312.865202</ele>
        <time>2021-04-29T11:38:17.960Z</time>
      </trkpt>
      <trkpt lat="47.47436" lon="6.73015">
        <ele>311.85261</ele>
        <time>2021-04-29T11:38:30.709Z</time>
      </trkpt>
      <trkpt lat="47.47429" lon="6.73049">
        <ele>311.438352</ele>
        <time>2021-04-29T11:38:36.118Z</time>
      </trkpt>
      <trkpt lat="47.47425" lon="6.73082">
        <ele>311.032366</ele>
        <time>2021-04-29T11:38:41.371Z</time>
      </trkpt>
      <trkpt lat="47.4742" lon="6.73107">
        <ele>310.853211</ele>
        <time>2021-04-29T11:38:45.466Z</time>
      </trkpt>
      <trkpt lat="47.47415" lon="6.7316">
        <ele>310.493829</ele>
        <time>2021-04-29T11:38:53.901Z</time>
      </trkpt>
      <trkpt lat="47.47424" lon="6.73169">
        <ele>310.381835</ele>
        <time>2021-04-29T11:38:56.559Z</time>
      </trkpt>
      <trkpt lat="47.47437" lon="6.73235">
        <ele>309.920678</ele>
        <time>2021-04-29T11:39:07.993Z</time>
      </trkpt>
      <trkpt lat="47.4744" lon="6.7324">
        <ele>309.876854</ele>
        <time>2021-04-29T11:39:09.057Z</time>
      </trkpt>
      <trkpt lat="47.47445" lon="6.7326">
        <ele>309.733228</ele>
        <time>2021-04-29T11:39:12.533Z</time>
      </trkpt>
      <trkpt lat="47.47453" lon="6.73277">
        <ele>309.598859</ele>
        <time>2021-04-29T11:39:15.763Z</time>
      </trkpt>
      <trkpt lat="47.47458" lon="6.73287">
        <ele>309.514131</ele>
        <time>2021-04-29T11:39:17.851Z</time>
      </trkpt>
      <trkpt lat="47.47477" lon="6.73352">
        <ele>309.143009</ele>
        <time>2021-04-29T11:39:29.885Z</time>
      </trkpt>
      <trkpt lat="47.47482" lon="6.73361">
        <ele>309.105506</ele>
        <time>2021-04-29T11:39:31.813Z</time>
      </trkpt>
      <trkpt lat="47.47485" lon="6.73366">
        <ele>309.083644</ele>
        <time>2021-04-29T11:39:33.023Z</time>
      </trkpt>
      <trkpt lat="47.4749" lon="6.73369">
        <ele>309.056374</ele>
        <time>2021-04-29T11:39:34.574Z</time>
      </trkpt>
      <trkpt lat="47.47505" lon="6.73361">
        <ele>308.977763</ele>
        <time>2021-04-29T11:39:38.774Z</time>
      </trkpt>
      <trkpt lat="47.47515" lon="6.73397">
        <ele>308.848194</ele>
        <time>2021-04-29T11:39:45.538Z</time>
      </trkpt>
      <trkpt lat="47.47545" lon="6.73539">
        <ele>308.370344</ele>
        <time>2021-04-29T11:40:11.838Z</time>
      </trkpt>
      <trkpt lat="47.47546" lon="6.73546">
        <ele>308.368211</ele>
        <time>2021-04-29T11:40:13.260Z</time>
      </trkpt>
      <trkpt lat="47.47547" lon="6.73555">
        <ele>308.365454</ele>
        <time>2021-04-29T11:40:15.906Z</time>
      </trkpt>
      <trkpt lat="47.4755" lon="6.73579">
        <ele>308.358223</ele>
        <time>2021-04-29T11:40:23.232Z</time>
      </trkpt>
      <trkpt lat="47.47552" lon="6.73588">
        <ele>308.355483</ele>
        <time>2021-04-29T11:40:25.843Z</time>
      </trkpt>
      <trkpt lat="47.4756" lon="6.73587">
        <ele>308.351935</ele>
        <time>2021-04-29T11:40:29.379Z</time>
      </trkpt>
      <trkpt lat="47.47572" lon="6.73585">
        <ele>308.346576</ele>
        <time>2021-04-29T11:40:34.651Z</time>
      </trkpt>
      <trkpt lat="47.47577" lon="6.73638">
        <ele>308.330425</ele>
        <time>2021-04-29T11:40:50.782Z</time>
      </trkpt>
      <trkpt lat="47.4763" lon="6.73911">
        <ele>308.320622</ele>
        <time>2021-04-29T11:42:17.111Z</time>
      </trkpt>
      <trkpt lat="47.4767" lon="6.74111">
        <ele>308.168977</ele>
        <time>2021-04-29T11:43:19.530Z</time>
      </trkpt>
      <trkpt lat="47.47681" lon="6.74166">
        <ele>308.064642</ele>
        <time>2021-04-29T11:43:36.345Z</time>
      </trkpt>
      <trkpt lat="47.47706" lon="6.74317">
        <ele>307.814819</ele>
        <time>2021-04-29T11:44:21.320Z</time>
      </trkpt>
      <trkpt lat="47.47719" lon="6.74436">
        <ele>307.685262</ele>
        <time>2021-04-29T11:44:56.555Z</time>
      </trkpt>
      <trkpt lat="47.47713" lon="6.74448">
        <ele>307.669032</ele>
        <time>2021-04-29T11:45:00.705Z</time>
      </trkpt>
      <trkpt lat="47.47712" lon="6.74453">
        <ele>307.662851</ele>
        <time>2021-04-29T11:45:02.846Z</time>
      </trkpt>
      <trkpt lat="47.47716" lon="6.7451">
        <ele>307.601346</ele>
        <time>2021-04-29T11:45:20.182Z</time>
      </trkpt>
      <trkpt lat="47.47726" lon="6.74548">
        <ele>307.612144</ele>
        <time>2021-04-29T11:45:32.359Z</time>
      </trkpt>
      <trkpt lat="47.47728" lon="6.74682">
        <ele>307.915067</ele>
        <time>2021-04-29T11:46:15.030Z</time>
      </trkpt>
      <trkpt lat="47.47714" lon="6.75268">
        <ele>309.210119</ele>
        <time>2021-04-29T11:49:18.723Z</time>
      </trkpt>
      <trkpt lat="47.47712" lon="6.7529">
        <ele>309.252577</ele>
        <time>2021-04-29T11:49:25.125Z</time>
      </trkpt>
      <trkpt lat="47.47705" lon="6.75503">
        <ele>309.62706</ele>
        <time>2021-04-29T11:50:30.179Z</time>
      </trkpt>
      <trkpt lat="47.47705" lon="6.75611">
        <ele>309.82918</ele>
        <time>2021-04-29T11:51:04.370Z</time>
      </trkpt>
      <trkpt lat="47.47701" lon="6.7572">
        <ele>310.13423</ele>
        <time>2021-04-29T11:51:38.820Z</time>
      </trkpt>
      <trkpt lat="47.47702" lon="6.75787">
        <ele>310.324004</ele>
        <time>2021-04-29T11:52:00.211Z</time>
      </trkpt>
      <trkpt lat="47.47693" lon="6.75934">
        <ele>310.502317</ele>
        <time>2021-04-29T11:52:46.025Z</time>
      </trkpt>
      <trkpt lat="47.47668" lon="6.7599">
        <ele>310.47693</ele>
        <time>2021-04-29T11:53:06.265Z</time>
      </trkpt>
      <trkpt lat="47.47663" lon="6.76016">
        <ele>310.466607</ele>
        <time>2021-04-29T11:53:14.290Z</time>
      </trkpt>
      <trkpt lat="47.4767" lon="6.76069">
        <ele>310.446115</ele>
        <time>2021-04-29T11:53:29.966Z</time>
      </trkpt>
      <trkpt lat="47.47676" lon="6.76082">
        <ele>310.440215</ele>
        <time>2021-04-29T11:53:34.460Z</time>
      </trkpt>
      <trkpt lat="47.47703" lon="6.76123">
        <ele>310.370879</ele>
        <time>2021-04-29T11:53:51.028Z</time>
      </trkpt>
      <trkpt lat="47.47759" lon="6.76211">
        <ele>310.114619</ele>
        <time>2021-04-29T11:54:12.695Z</time>
      </trkpt>
      <trkpt lat="47.47766" lon="6.76222">
        <ele>310.083592</ele>
        <time>2021-04-29T11:54:16.991Z</time>
      </trkpt>
      <trkpt lat="47.47781" lon="6.76245">
        <ele>310.01759</ele>
        <time>2021-04-29T11:54:26.135Z</time>
      </trkpt>
      <trkpt lat="47.47835" lon="6.76279">
        <ele>309.888297</ele>
        <time>2021-04-29T11:54:51.449Z</time>
      </trkpt>
      <trkpt lat="47.47865" lon="6.76329">
        <ele>309.972118</ele>
        <time>2021-04-29T11:55:11.592Z</time>
      </trkpt>
      <trkpt lat="47.47915" lon="6.76442">
        <ele>310.139429</ele>
        <time>2021-04-29T11:55:53.466Z</time>
      </trkpt>
      <trkpt lat="47.47918" lon="6.76456">
        <ele>310.156837</ele>
        <time>2021-04-29T11:55:57.836Z</time>
      </trkpt>
      <trkpt lat="47.47921" lon="6.76467">
        <ele>310.171727</ele>
        <time>2021-04-29T11:56:00.430Z</time>
      </trkpt>
      <trkpt lat="47.47935" lon="6.76527">
        <ele>310.382684</ele>
        <time>2021-04-29T11:56:13.522Z</time>
      </trkpt>
      <trkpt lat="47.47947" lon="6.76586">
        <ele>310.650065</ele>
        <time>2021-04-29T11:56:26.470Z</time>
      </trkpt>
      <trkpt lat="47.47953" lon="6.7662">
        <ele>310.805425</ele>
        <time>2021-04-29T11:56:34.134Z</time>
      </trkpt>
      <trkpt lat="47.47961" lon="6.76616">
        <ele>310.859095</ele>
        <time>2021-04-29T11:56:36.653Z</time>
      </trkpt>
      <trkpt lat="47.47962" lon="6.76614">
        <ele>310.873094</ele>
        <time>2021-04-29T11:56:37.288Z</time>
      </trkpt>
      <trkpt lat="47.47975" lon="6.76606">
        <ele>310.96316</ele>
        <time>2021-04-29T11:56:41.444Z</time>
      </trkpt>
      <trkpt lat="47.4798" lon="6.76604">
        <ele>310.994448</ele>
        <time>2021-04-29T11:56:42.960Z</time>
      </trkpt>
      <trkpt lat="47.47981" lon="6.7661">
        <ele>311.022115</ele>
        <time>2021-04-29T11:56:44.377Z</time>
      </trkpt>
      <trkpt lat="47.48031" lon="6.76578">
        <ele>311.364015</ele>
        <time>2021-04-29T11:57:10.167Z</time>
      </trkpt>
      <trkpt lat="47.48053" lon="6.76561">
        <ele>311.439421</ele>
        <time>2021-04-29T11:57:21.900Z</time>
      </trkpt>
      <trkpt lat="47.48105" lon="6.76511">
        <ele>311.631244</ele>
        <time>2021-04-29T11:57:51.039Z</time>
      </trkpt>
      <trkpt lat="47.4812" lon="6.76545">
        <ele>311.716912</ele>
        <time>2021-04-29T11:57:58.786Z</time>
      </trkpt>
      <trkpt lat="47.48103" lon="6.76582">
        <ele>311.809619</ele>
        <time>2021-04-29T11:58:07.089Z</time>
      </trkpt>
      <trkpt lat="47.48097" lon="6.76605">
        <ele>311.860075</ele>
        <time>2021-04-29T11:58:11.619Z</time>
      </trkpt>
      <trkpt lat="47.48099" lon="6.7663">
        <ele>311.907404</ele>
        <time>2021-04-29T11:58:16.246Z</time>
      </trkpt>
      <trkpt lat="47.48157" lon="6.76738">
        <ele>311.806223</ele>
        <time>2021-04-29T11:58:40.139Z</time>
      </trkpt>
      <trkpt lat="47.48182" lon="6.76772">
        <ele>311.76918</ele>
        <time>2021-04-29T11:58:48.976Z</time>
      </trkpt>
      <trkpt lat="47.4823" lon="6.76797">
        <ele>311.713275</ele>
        <time>2021-04-29T11:59:02.665Z</time>
      </trkpt>
      <trkpt lat="47.48238" lon="6.76801">
        <ele>311.721922</ele>
        <time>2021-04-29T11:59:04.706Z</time>
      </trkpt>
      <trkpt lat="47.48247" lon="6.76809">
        <ele>311.735161</ele>
        <time>2021-04-29T11:59:07.410Z</time>
      </trkpt>
      <trkpt lat="47.4829" lon="6.7687">
        <ele>311.80989</ele>
        <time>2021-04-29T11:59:23.568Z</time>
      </trkpt>
      <trkpt lat="47.48335" lon="6.76907">
        <ele>311.875014</ele>
        <time>2021-04-29T11:59:37.679Z</time>
      </trkpt>
      <trkpt lat="47.48433" lon="6.76963">
        <ele>311.965434</ele>
        <time>2021-04-29T12:00:07.426Z</time>
      </trkpt>
      <trkpt lat="47.48545" lon="6.77043">
        <ele>312.028197</ele>
        <time>2021-04-29T12:00:40.807Z</time>
      </trkpt>
      <trkpt lat="47.48563" lon="6.77049">
        <ele>311.935914</ele>
        <time>2021-04-29T12:00:45.478Z</time>
      </trkpt>
      <trkpt lat="47.48603" lon="6.77068">
        <ele>311.709319</ele>
        <time>2021-04-29T12:00:56.053Z</time>
      </trkpt>
      <trkpt lat="47.48609" lon="6.77077">
        <ele>311.666244</ele>
        <time>2021-04-29T12:00:57.887Z</time>
      </trkpt>
      <trkpt lat="47.48627" lon="6.77087">
        <ele>311.562429</ele>
        <time>2021-04-29T12:01:02.803Z</time>
      </trkpt>
      <trkpt lat="47.48645" lon="6.77105">
        <ele>311.450545</ele>
        <time>2021-04-29T12:01:07.738Z</time>
      </trkpt>
      <trkpt lat="47.48685" lon="6.77149">
        <ele>311.182955</ele>
        <time>2021-04-29T12:01:19.797Z</time>
      </trkpt>
      <trkpt lat="47.48839" lon="6.7727">
        <ele>310.223343</ele>
        <time>2021-04-29T12:02:01.775Z</time>
      </trkpt>
      <trkpt lat="47.48867" lon="6.77284">
        <ele>310.075011</ele>
        <time>2021-04-29T12:02:09.318Z</time>
      </trkpt>
      <trkpt lat="47.48973" lon="6.7732">
        <ele>309.994149</ele>
        <time>2021-04-29T12:02:38.535Z</time>
      </trkpt>
      <trkpt lat="47.49104" lon="6.77328">
        <ele>309.787254</ele>
        <time>2021-04-29T12:03:12.945Z</time>
      </trkpt>
      <trkpt lat="47.49141" lon="6.77331">
        <ele>309.69487</ele>
        <time>2021-04-29T12:03:22.568Z</time>
      </trkpt>
      <trkpt lat="47.49149" lon="6.77331">
        <ele>309.675332</ele>
        <time>2021-04-29T12:03:25.980Z</time>
      </trkpt>
      <trkpt lat="47.49199" lon="6.77335">
        <ele>309.552621</ele>
        <time>2021-04-29T12:03:38.337Z</time>
      </trkpt>
      <trkpt lat="47.49244" lon="6.77339">
        <ele>309.551655</ele>
        <time>2021-04-29T12:03:49.885Z</time>
      </trkpt>
      <trkpt lat="47.49257" lon="6.77328">
        <ele>309.584578</ele>
        <time>2021-04-29T12:03:53.673Z</time>
      </trkpt>
      <trkpt lat="47.49271" lon="6.77325">
        <ele>309.616295</ele>
        <time>2021-04-29T12:03:57.147Z</time>
      </trkpt>
      <trkpt lat="47.49282" lon="6.77326">
        <ele>309.640694</ele>
        <time>2021-04-29T12:04:00.087Z</time>
      </trkpt>
      <trkpt lat="47.49315" lon="6.77329">
        <ele>309.716364</ele>
        <time>2021-04-29T12:04:08.965Z</time>
      </trkpt>
      <trkpt lat="47.49332" lon="6.77339">
        <ele>309.75704</ele>
        <time>2021-04-29T12:04:14.019Z</time>
      </trkpt>
      <trkpt lat="47.49336" lon="6.77345">
        <ele>309.770124</ele>
        <time>2021-04-29T12:04:15.513Z</time>
      </trkpt>
      <trkpt lat="47.49566" lon="6.77361">
        <ele>311.292196</ele>
        <time>2021-04-29T12:05:26.006Z</time>
      </trkpt>
      <trkpt lat="47.49715" lon="6.77332">
        <ele>312.569823</ele>
        <time>2021-04-29T12:06:12.405Z</time>
      </trkpt>
      <trkpt lat="47.49764" lon="6.7731">
        <ele>313.011381</ele>
        <time>2021-04-29T12:06:27.971Z</time>
      </trkpt>
      <trkpt lat="47.49854" lon="6.773">
        <ele>313.891265</ele>
        <time>2021-04-29T12:06:56.808Z</time>
      </trkpt>
      <trkpt lat="47.49897" lon="6.77289">
        <ele>314.312526</ele>
        <time>2021-04-29T12:07:11.008Z</time>
      </trkpt>
      <trkpt lat="47.49988" lon="6.77241">
        <ele>314.63379</ele>
        <time>2021-04-29T12:07:39.830Z</time>
      </trkpt>
      <trkpt lat="47.50015" lon="6.7723">
        <ele>314.631735</ele>
        <time>2021-04-29T12:07:47.499Z</time>
      </trkpt>
      <trkpt lat="47.5002" lon="6.77227">
        <ele>314.631294</ele>
        <time>2021-04-29T12:07:48.944Z</time>
      </trkpt>
      <trkpt lat="47.50055" lon="6.7721">
        <ele>314.628561</ele>
        <time>2021-04-29T12:07:58.377Z</time>
      </trkpt>
      <trkpt lat="47.501" lon="6.77196">
        <ele>314.625144</ele>
        <time>2021-04-29T12:08:09.561Z</time>
      </trkpt>
      <trkpt lat="47.50145" lon="6.77205">
        <ele>314.174574</ele>
        <time>2021-04-29T12:08:19.931Z</time>
      </trkpt>
      <trkpt lat="47.50211" lon="6.77263">
        <ele>313.390916</ele>
        <time>2021-04-29T12:08:37.012Z</time>
      </trkpt>
      <trkpt lat="47.50296" lon="6.77321">
        <ele>312.652142</ele>
        <time>2021-04-29T12:08:58.869Z</time>
      </trkpt>
      <trkpt lat="47.50318" lon="6.7734">
        <ele>312.546543</ele>
        <time>2021-04-29T12:09:05.273Z</time>
      </trkpt>
      <trkpt lat="47.50384" lon="6.77392">
        <ele>312.248136</ele>
        <time>2021-04-29T12:09:23.940Z</time>
      </trkpt>
      <trkpt lat="47.50397" lon="6.77403">
        <ele>312.187551</ele>
        <time>2021-04-29T12:09:27.848Z</time>
      </trkpt>
      <trkpt lat="47.50475" lon="6.77472">
        <ele>312.139202</ele>
        <time>2021-04-29T12:09:52.769Z</time>
      </trkpt>
      <trkpt lat="47.50543" lon="6.77519">
        <ele>312.227763</ele>
        <time>2021-04-29T12:10:13.474Z</time>
      </trkpt>
      <trkpt lat="47.50559" lon="6.77548">
        <ele>312.257656</ele>
        <time>2021-04-29T12:10:20.252Z</time>
      </trkpt>
      <trkpt lat="47.50569" lon="6.7755">
        <ele>312.268825</ele>
        <time>2021-04-29T12:10:22.670Z</time>
      </trkpt>
      <trkpt lat="47.50573" lon="6.77553">
        <ele>312.274391</ele>
        <time>2021-04-29T12:10:24.299Z</time>
      </trkpt>
      <trkpt lat="47.50577" lon="6.77553">
        <ele>312.281538</ele>
        <time>2021-04-29T12:10:26.103Z</time>
      </trkpt>
      <trkpt lat="47.50583" lon="6.7755">
        <ele>312.309123</ele>
        <time>2021-04-29T12:10:28.387Z</time>
      </trkpt>
      <trkpt lat="47.50583" lon="6.77537">
        <ele>312.351298</ele>
        <time>2021-04-29T12:10:31.762Z</time>
      </trkpt>
      <trkpt lat="47.5063" lon="6.77524">
        <ele>312.566725</ele>
        <time>2021-04-29T12:10:44.967Z</time>
      </trkpt>
      <trkpt lat="47.50635" lon="6.77524">
        <ele>312.58889</ele>
        <time>2021-04-29T12:10:46.326Z</time>
      </trkpt>
      <trkpt lat="47.5064" lon="6.77525">
        <ele>312.611665</ele>
        <time>2021-04-29T12:10:48.003Z</time>
      </trkpt>
      <trkpt lat="47.50648" lon="6.77529">
        <ele>312.652868</ele>
        <time>2021-04-29T12:10:50.572Z</time>
      </trkpt>
      <trkpt lat="47.50694" lon="6.77526">
        <ele>312.858287</ele>
        <time>2021-04-29T12:11:03.881Z</time>
      </trkpt>
      <trkpt lat="47.50705" lon="6.77527">
        <ele>312.908042</ele>
        <time>2021-04-29T12:11:06.855Z</time>
      </trkpt>
      <trkpt lat="47.50716" lon="6.7753">
        <ele>312.960244</ele>
        <time>2021-04-29T12:11:10.624Z</time>
      </trkpt>
      <trkpt lat="47.50833" lon="6.77627">
        <ele>313.789969</ele>
        <time>2021-04-29T12:11:50.666Z</time>
      </trkpt>
      <trkpt lat="47.50872" lon="6.7768">
        <ele>314.141447</ele>
        <time>2021-04-29T12:12:06.759Z</time>
      </trkpt>
      <trkpt lat="47.50886" lon="6.77703">
        <ele>314.281955</ele>
        <time>2021-04-29T12:12:13.172Z</time>
      </trkpt>
      <trkpt lat="47.50897" lon="6.77727">
        <ele>314.344178</ele>
        <time>2021-04-29T12:12:18.635Z</time>
      </trkpt>
      <trkpt lat="47.50925" lon="6.77804">
        <ele>314.520896</ele>
        <time>2021-04-29T12:12:35.857Z</time>
      </trkpt>
      <trkpt lat="47.50934" lon="6.77838">
        <ele>314.5959</ele>
        <time>2021-04-29T12:12:42.840Z</time>
      </trkpt>
      <trkpt lat="47.50936" lon="6.77845">
        <ele>314.612002</ele>
        <time>2021-04-29T12:12:44.471Z</time>
      </trkpt>
      <trkpt lat="47.50942" lon="6.77878">
        <ele>314.679994</ele>
        <time>2021-04-29T12:12:50.562Z</time>
      </trkpt>
      <trkpt lat="47.5095" lon="6.77891">
        <ele>314.716564</ele>
        <time>2021-04-29T12:12:54.033Z</time>
      </trkpt>
      <trkpt lat="47.50954" lon="6.77925">
        <ele>314.788008</ele>
        <time>2021-04-29T12:13:00.235Z</time>
      </trkpt>
      <trkpt lat="47.50956" lon="6.77958">
        <ele>314.834839</ele>
        <time>2021-04-29T12:13:06.280Z</time>
      </trkpt>
      <trkpt lat="47.50957" lon="6.77966">
        <ele>314.837694</ele>
        <time>2021-04-29T12:13:07.605Z</time>
      </trkpt>
      <trkpt lat="47.5096" lon="6.78033">
        <ele>314.863697</ele>
        <time>2021-04-29T12:13:19.550Z</time>
      </trkpt>
      <trkpt lat="47.50953" lon="6.78047">
        <ele>314.870755</ele>
        <time>2021-04-29T12:13:22.732Z</time>
      </trkpt>
      <trkpt lat="47.50958" lon="6.78172">
        <ele>314.919429</ele>
        <time>2021-04-29T12:13:45.520Z</time>
      </trkpt>
      <trkpt lat="47.50967" lon="6.78199">
        <ele>314.931221</ele>
        <time>2021-04-29T12:13:51.380Z</time>
      </trkpt>
      <trkpt lat="47.50966" lon="6.78204">
        <ele>314.932891</ele>
        <time>2021-04-29T12:13:52.021Z</time>
      </trkpt>
      <trkpt lat="47.50966" lon="6.78214">
        <ele>314.962978</ele>
        <time>2021-04-29T12:13:54.018Z</time>
      </trkpt>
      <trkpt lat="47.50953" lon="6.78365">
        <ele>315.455494</ele>
        <time>2021-04-29T12:14:23.559Z</time>
      </trkpt>
      <trkpt lat="47.50961" lon="6.78368">
        <ele>315.498234</ele>
        <time>2021-04-29T12:14:26.205Z</time>
      </trkpt>
      <trkpt lat="47.5096" lon="6.78379">
        <ele>315.535459</ele>
        <time>2021-04-29T12:14:28.599Z</time>
      </trkpt>
      <trkpt lat="47.5096" lon="6.78383">
        <ele>315.547867</ele>
        <time>2021-04-29T12:14:29.588Z</time>
      </trkpt>
      <trkpt lat="47.5093" lon="6.78623">
        <ele>316.291949</ele>
        <time>2021-04-29T12:15:18.690Z</time>
      </trkpt>
      <trkpt lat="47.50916" lon="6.78731">
        <ele>316.583595</ele>
        <time>2021-04-29T12:15:39.146Z</time>
      </trkpt>
      <trkpt lat="47.50921" lon="6.78733">
        <ele>316.585486</ele>
        <time>2021-04-29T12:15:42.815Z</time>
      </trkpt>
      <trkpt lat="47.50917" lon="6.78761">
        <ele>316.59255</ele>
        <time>2021-04-29T12:15:48.044Z</time>
      </trkpt>
      <trkpt lat="47.50913" lon="6.78797">
        <ele>316.601148</ele>
        <time>2021-04-29T12:15:54.591Z</time>
      </trkpt>
      <trkpt lat="47.50906" lon="6.78854">
        <ele>316.615287</ele>
        <time>2021-04-29T12:16:05.161Z</time>
      </trkpt>
      <trkpt lat="47.50904" lon="6.78892">
        <ele>316.624283</ele>
        <time>2021-04-29T12:16:12.001Z</time>
      </trkpt>
      <trkpt lat="47.50906" lon="6.78977">
        <ele>316.644496</ele>
        <time>2021-04-29T12:16:27.570Z</time>
      </trkpt>
      <trkpt lat="47.50906" lon="6.79126">
        <ele>316.52893</ele>
        <time>2021-04-29T12:16:53.688Z</time>
      </trkpt>
      <trkpt lat="47.50907" lon="6.79148">
        <ele>316.511887</ele>
        <time>2021-04-29T12:16:57.732Z</time>
      </trkpt>
      <trkpt lat="47.50906" lon="6.79224">
        <ele>316.452354</ele>
        <time>2021-04-29T12:17:11.146Z</time>
      </trkpt>
      <trkpt lat="47.50906" lon="6.79233">
        <ele>316.445714</ele>
        <time>2021-04-29T12:17:12.586Z</time>
      </trkpt>
      <trkpt lat="47.50907" lon="6.79331">
        <ele>316.885251</ele>
        <time>2021-04-29T12:17:30.296Z</time>
      </trkpt>
      <trkpt lat="47.50908" lon="6.79343">
        <ele>316.945808</ele>
        <time>2021-04-29T12:17:32.513Z</time>
      </trkpt>
      <trkpt lat="47.50913" lon="6.79363">
        <ele>317.056288</ele>
        <time>2021-04-29T12:17:36.738Z</time>
      </trkpt>
      <trkpt lat="47.50914" lon="6.79385">
        <ele>317.167795</ele>
        <time>2021-04-29T12:17:40.939Z</time>
      </trkpt>
      <trkpt lat="47.50914" lon="6.79401">
        <ele>317.250826</ele>
        <time>2021-04-29T12:17:44.261Z</time>
      </trkpt>
      <trkpt lat="47.50908" lon="6.79418">
        <ele>317.348847</ele>
        <time>2021-04-29T12:17:48.249Z</time>
      </trkpt>
      <trkpt lat="47.50908" lon="6.79444">
        <ele>317.477678</ele>
        <time>2021-04-29T12:17:53.775Z</time>
      </trkpt>
      <trkpt lat="47.50897" lon="6.79447">
        <ele>317.560514</ele>
        <time>2021-04-29T12:17:57.771Z</time>
      </trkpt>
      <trkpt lat="47.50891" lon="6.79451">
        <ele>317.609878</ele>
        <time>2021-04-29T12:18:00.248Z</time>
      </trkpt>
      <trkpt lat="47.5089" lon="6.79455">
        <ele>317.631851</ele>
        <time>2021-04-29T12:18:01.192Z</time>
      </trkpt>
      <trkpt lat="47.50894" lon="6.795">
        <ele>317.972471</ele>
        <time>2021-04-29T12:18:12.139Z</time>
      </trkpt>
      <trkpt lat="47.50902" lon="6.79532">
        <ele>318.441219</ele>
        <time>2021-04-29T12:18:20.845Z</time>
      </trkpt>
      <trkpt lat="47.5091" lon="6.79562">
        <ele>318.873532</ele>
        <time>2021-04-29T12:18:28.727Z</time>
      </trkpt>
      <trkpt lat="47.50916" lon="6.79585">
        <ele>319.209484</ele>
        <time>2021-04-29T12:18:34.576Z</time>
      </trkpt>
      <trkpt lat="47.50927" lon="6.79631">
        <ele>319.858836</ele>
        <time>2021-04-29T12:18:47.156Z</time>
      </trkpt>
      <trkpt lat="47.5093" lon="6.79636">
        <ele>319.960225</ele>
        <time>2021-04-29T12:18:48.856Z</time>
      </trkpt>
      <trkpt lat="47.50933" lon="6.79648">
        <ele>320.129995</ele>
        <time>2021-04-29T12:18:53.400Z</time>
      </trkpt>
      <trkpt lat="47.50949" lon="6.79704">
        <ele>320.946391</ele>
        <time>2021-04-29T12:19:12.136Z</time>
      </trkpt>
      <trkpt lat="47.50949" lon="6.79727">
        <ele>321.250702</ele>
        <time>2021-04-29T12:19:18.933Z</time>
      </trkpt>
      <trkpt lat="47.50956" lon="6.79727">
        <ele>321.382822</ele>
        <time>2021-04-29T12:19:21.083Z</time>
      </trkpt>
      <trkpt lat="47.50982" lon="6.79716">
        <ele>321.457031</ele>
        <time>2021-04-29T12:19:30.915Z</time>
      </trkpt>
      <trkpt lat="47.50986" lon="6.79715">
        <ele>321.469249</ele>
        <time>2021-04-29T12:19:31.953Z</time>
      </trkpt>
      <trkpt lat="47.50993" lon="6.79747">
        <ele>321.533059</ele>
        <time>2021-04-29T12:19:39.454Z</time>
      </trkpt>
      <trkpt lat="47.51001" lon="6.79779">
        <ele>321.598599</ele>
        <time>2021-04-29T12:19:46.192Z</time>
      </trkpt>
      <trkpt lat="47.51005" lon="6.79795">
        <ele>321.630202</ele>
        <time>2021-04-29T12:19:49.536Z</time>
      </trkpt>
      <trkpt lat="47.5101" lon="6.79816">
        <ele>321.673671</ele>
        <time>2021-04-29T12:19:53.394Z</time>
      </trkpt>
      <trkpt lat="47.5104" lon="6.79797">
        <ele>321.766304</ele>
        <time>2021-04-29T12:20:01.894Z</time>
      </trkpt>
      <trkpt lat="47.51042" lon="6.79804">
        <ele>321.781058</ele>
        <time>2021-04-29T12:20:03.032Z</time>
      </trkpt>
      <trkpt lat="47.51055" lon="6.79861">
        <ele>321.861106</ele>
        <time>2021-04-29T12:20:13.012Z</time>
      </trkpt>
      <trkpt lat="47.51063" lon="6.79893">
        <ele>321.626706</ele>
        <time>2021-04-29T12:20:18.833Z</time>
      </trkpt>
      <trkpt lat="47.51064" lon="6.79898">
        <ele>321.59316</ele>
        <time>2021-04-29T12:20:19.647Z</time>
      </trkpt>
      <trkpt lat="47.51073" lon="6.79926">
        <ele>321.38069</ele>
        <time>2021-04-29T12:20:24.875Z</time>
      </trkpt>
      <trkpt lat="47.51075" lon="6.79932">
        <ele>321.335517</ele>
        <time>2021-04-29T12:20:26.157Z</time>
      </trkpt>
      <trkpt lat="47.51107" lon="6.80025">
        <ele>320.626136</ele>
        <time>2021-04-29T12:20:47.688Z</time>
      </trkpt>
      <trkpt lat="47.51111" lon="6.80035">
        <ele>320.54265</ele>
        <time>2021-04-29T12:20:50.223Z</time>
      </trkpt>
      <trkpt lat="47.51143" lon="6.80012">
        <ele>320.188133</ele>
        <time>2021-04-29T12:20:58.505Z</time>
      </trkpt>
      <trkpt lat="47.51152" lon="6.80006">
        <ele>320.089592</ele>
        <time>2021-04-29T12:21:00.839Z</time>
      </trkpt>
      <trkpt lat="47.5118" lon="6.79985">
        <ele>320.139041</ele>
        <time>2021-04-29T12:21:08.478Z</time>
      </trkpt>
      <trkpt lat="47.51192" lon="6.79976">
        <ele>320.167309</ele>
        <time>2021-04-29T12:21:11.758Z</time>
      </trkpt>
      <trkpt lat="47.512" lon="6.79969">
        <ele>320.186016</ele>
        <time>2021-04-29T12:21:14.031Z</time>
      </trkpt>
      <trkpt lat="47.51208" lon="6.79962">
        <ele>320.20487</ele>
        <time>2021-04-29T12:21:16.165Z</time>
      </trkpt>
      <trkpt lat="47.51229" lon="6.79943">
        <ele>320.256127</ele>
        <time>2021-04-29T12:21:22.408Z</time>
      </trkpt>
      <trkpt lat="47.5124" lon="6.79933">
        <ele>320.284241</ele>
        <time>2021-04-29T12:21:25.843Z</time>
      </trkpt>
      <trkpt lat="47.51246" lon="6.79928">
        <ele>320.29701</ele>
        <time>2021-04-29T12:21:27.532Z</time>
      </trkpt>
      <trkpt lat="47.51258" lon="6.79918">
        <ele>320.325589</ele>
        <time>2021-04-29T12:21:31.257Z</time>
      </trkpt>
      <trkpt lat="47.51259" lon="6.79916">
        <ele>320.329882</ele>
        <time>2021-04-29T12:21:31.953Z</time>
      </trkpt>
      <trkpt lat="47.51276" lon="6.799">
        <ele>320.372209</ele>
        <time>2021-04-29T12:21:38.169Z</time>
      </trkpt>
      <trkpt lat="47.51292" lon="6.79889">
        <ele>320.406823</ele>
        <time>2021-04-29T12:21:43.701Z</time>
      </trkpt>
      <trkpt lat="47.51332" lon="6.7987">
        <ele>321.236381</ele>
        <time>2021-04-29T12:21:58.700Z</time>
      </trkpt>
      <trkpt lat="47.51339" lon="6.79867">
        <ele>321.522823</ele>
        <time>2021-04-29T12:22:01.536Z</time>
      </trkpt>
      <trkpt lat="47.51341" lon="6.79873">
        <ele>321.675931</ele>
        <time>2021-04-29T12:22:03.078Z</time>
      </trkpt>
      <trkpt lat="47.51342" lon="6.79877">
        <ele>321.785316</ele>
        <time>2021-04-29T12:22:04.303Z</time>
      </trkpt>
      <trkpt lat="47.51348" lon="6.79903">
        <ele>322.463293</ele>
        <time>2021-04-29T12:22:11.437Z</time>
      </trkpt>
      <trkpt lat="47.51351" lon="6.79922">
        <ele>322.938106</ele>
        <time>2021-04-29T12:22:16.298Z</time>
      </trkpt>
      <trkpt lat="47.51356" lon="6.79943">
        <ele>323.460769</ele>
        <time>2021-04-29T12:22:21.670Z</time>
      </trkpt>
      <trkpt lat="47.51356" lon="6.79946">
        <ele>323.543679</ele>
        <time>2021-04-29T12:22:22.666Z</time>
      </trkpt>
      <trkpt lat="47.51357" lon="6.7995">
        <ele>323.653064</ele>
        <time>2021-04-29T12:22:24.221Z</time>
      </trkpt>
      <trkpt lat="47.51361" lon="6.79972">
        <ele>324.2137</ele>
        <time>2021-04-29T12:22:31.213Z</time>
      </trkpt>
      <trkpt lat="47.51361" lon="6.79976">
        <ele>324.297016</ele>
        <time>2021-04-29T12:22:32.478Z</time>
      </trkpt>
      <trkpt lat="47.5136" lon="6.79983">
        <ele>324.483744</ele>
        <time>2021-04-29T12:22:34.595Z</time>
      </trkpt>
      <trkpt lat="47.51356" lon="6.79994">
        <ele>324.774547</ele>
        <time>2021-04-29T12:22:37.910Z</time>
      </trkpt>
      <trkpt lat="47.51347" lon="6.80013">
        <ele>325.32836</ele>
        <time>2021-04-29T12:22:46.199Z</time>
      </trkpt>
      <trkpt lat="47.51292" lon="6.80138">
        <ele>330.176038</ele>
        <time>2021-04-29T12:23:41.744Z</time>
      </trkpt>
      <trkpt lat="47.5129" lon="6.80148">
        <ele>330.599875</ele>
        <time>2021-04-29T12:23:46.488Z</time>
      </trkpt>
      <trkpt lat="47.51291" lon="6.80159">
        <ele>331.005898</ele>
        <time>2021-04-29T12:23:50.438Z</time>
      </trkpt>
      <trkpt lat="47.51295" lon="6.80165">
        <ele>331.340364</ele>
        <time>2021-04-29T12:23:53.569Z</time>
      </trkpt>
      <trkpt lat="47.51336" lon="6.80199">
        <ele>334.013125</ele>
        <time>2021-04-29T12:24:17.765Z</time>
      </trkpt>
      <trkpt lat="47.51357" lon="6.80235">
        <ele>335.861616</ele>
        <time>2021-04-29T12:24:34.640Z</time>
      </trkpt>
      <trkpt lat="47.5138" lon="6.80263">
        <ele>337.516794</ele>
        <time>2021-04-29T12:24:51.524Z</time>
      </trkpt>
      <trkpt lat="47.51416" lon="6.80189">
        <ele>340.722492</ele>
        <time>2021-04-29T12:25:31.588Z</time>
      </trkpt>
      <trkpt lat="47.51429" lon="6.80203">
        <ele>341.531514</ele>
        <time>2021-04-29T12:25:41.393Z</time>
      </trkpt>
      <trkpt lat="47.51437" lon="6.80213">
        <ele>342.081789</ele>
        <time>2021-04-29T12:25:47.510Z</time>
      </trkpt>
      <trkpt lat="47.51442" lon="6.80212">
        <ele>342.334386</ele>
        <time>2021-04-29T12:25:50.414Z</time>
      </trkpt>
      <trkpt lat="47.5145" lon="6.80219">
        <ele>342.772038</ele>
        <time>2021-04-29T12:25:55.502Z</time>
      </trkpt>
      <trkpt lat="47.51463" lon="6.8021">
        <ele>343.517674</ele>
        <time>2021-04-29T12:26:03.703Z</time>
      </trkpt>
      <trkpt lat="47.51494" lon="6.80234">
        <ele>345.342548</ele>
        <time>2021-04-29T12:26:23.346Z</time>
      </trkpt>
      <trkpt lat="47.51622" lon="6.80318">
        <ele>351.112886</ele>
        <time>2021-04-29T12:27:41.651Z</time>
      </trkpt>
      <trkpt lat="47.51644" lon="6.8038">
        <ele>352.986789</ele>
        <time>2021-04-29T12:28:05.640Z</time>
      </trkpt>
      <trkpt lat="47.51654" lon="6.80415">
        <ele>353.924274</ele>
        <time>2021-04-29T12:28:18.856Z</time>
      </trkpt>
      <trkpt lat="47.51647" lon="6.80424">
        <ele>354.218995</ele>
        <time>2021-04-29T12:28:23.304Z</time>
      </trkpt>
      <trkpt lat="47.51644" lon="6.80441">
        <ele>354.577916</ele>
        <time>2021-04-29T12:28:29.012Z</time>
      </trkpt>
      <trkpt lat="47.51649" lon="6.80439">
        <ele>354.724391</ele>
        <time>2021-04-29T12:28:31.128Z</time>
      </trkpt>
      <trkpt lat="47.51679" lon="6.80469">
        <ele>355.877804</ele>
        <time>2021-04-29T12:28:46.671Z</time>
      </trkpt>
      <trkpt lat="47.51706" lon="6.80498">
        <ele>356.913705</ele>
        <time>2021-04-29T12:29:00.579Z</time>
      </trkpt>
      <trkpt lat="47.5177" lon="6.80566">
        <ele>359.342835</ele>
        <time>2021-04-29T12:29:34.469Z</time>
      </trkpt>
      <trkpt lat="47.5183" lon="6.80633">
        <ele>361.206595</ele>
        <time>2021-04-29T12:30:08.207Z</time>
      </trkpt>
      <trkpt lat="47.51953" lon="6.80766">
        <ele>362.879632</ele>
        <time>2021-04-29T12:31:03.471Z</time>
      </trkpt>
      <trkpt lat="47.51958" lon="6.80772">
        <ele>362.788774</ele>
        <time>2021-04-29T12:31:04.934Z</time>
      </trkpt>
      <trkpt lat="47.5198" lon="6.80796">
        <ele>362.380503</ele>
        <time>2021-04-29T12:31:11.895Z</time>
      </trkpt>
      <trkpt lat="47.51989" lon="6.80805">
        <ele>362.217679</ele>
        <time>2021-04-29T12:31:14.321Z</time>
      </trkpt>
      <trkpt lat="47.52002" lon="6.80818">
        <ele>361.988789</ele>
        <time>2021-04-29T12:31:17.611Z</time>
      </trkpt>
      <trkpt lat="47.52016" lon="6.80841">
        <ele>361.676048</ele>
        <time>2021-04-29T12:31:22.216Z</time>
      </trkpt>
      <trkpt lat="47.52012" lon="6.80881">
        <ele>361.279483</ele>
        <time>2021-04-29T12:31:27.784Z</time>
      </trkpt>
      <trkpt lat="47.52004" lon="6.80893">
        <ele>361.106558</ele>
        <time>2021-04-29T12:31:29.949Z</time>
      </trkpt>
      <trkpt lat="47.52008" lon="6.80898">
        <ele>361.029992</ele>
        <time>2021-04-29T12:31:30.913Z</time>
      </trkpt>
      <trkpt lat="47.52018" lon="6.80905">
        <ele>360.607296</ele>
        <time>2021-04-29T12:31:33.080Z</time>
      </trkpt>
      <trkpt lat="47.52049" lon="6.80905">
        <ele>359.256646</ele>
        <time>2021-04-29T12:31:38.784Z</time>
      </trkpt>
      <trkpt lat="47.52074" lon="6.80908">
        <ele>358.136008</ele>
        <time>2021-04-29T12:31:43.476Z</time>
      </trkpt>
      <trkpt lat="47.52112" lon="6.80913">
        <ele>356.483271</ele>
        <time>2021-04-29T12:31:50.437Z</time>
      </trkpt>
      <trkpt lat="47.5216" lon="6.80919">
        <ele>354.384313</ele>
        <time>2021-04-29T12:31:59.849Z</time>
      </trkpt>
      <trkpt lat="47.52213" lon="6.80922">
        <ele>352.777593</ele>
        <time>2021-04-29T12:32:11.422Z</time>
      </trkpt>
      <trkpt lat="47.52249" lon="6.80924">
        <ele>352.276336</ele>
        <time>2021-04-29T12:32:19.769Z</time>
      </trkpt>
      <trkpt lat="47.52213" lon="6.80922">
        <ele>351.775078</ele>
        <time>2021-04-29T12:32:28.354Z</time>
      </trkpt>
      <trkpt lat="47.5216" lon="6.80919">
        <ele>351.035046</ele>
        <time>2021-04-29T12:32:41.891Z</time>
      </trkpt>
      <trkpt lat="47.52112" lon="6.80913">
        <ele>349.995478</ele>
        <time>2021-04-29T12:32:53.352Z</time>
      </trkpt>
      <trkpt lat="47.52113" lon="6.80931">
        <ele>349.574249</ele>
        <time>2021-04-29T12:32:56.775Z</time>
      </trkpt>
      <trkpt lat="47.5211" lon="6.80955">
        <ele>348.974986</ele>
        <time>2021-04-29T12:33:02.618Z</time>
      </trkpt>
      <trkpt lat="47.52064" lon="6.81005">
        <ele>346.910523</ele>
        <time>2021-04-29T12:33:18.483Z</time>
      </trkpt>
      <trkpt lat="47.52054" lon="6.8102">
        <ele>346.383747</ele>
        <time>2021-04-29T12:33:22.253Z</time>
      </trkpt>
      <trkpt lat="47.52046" lon="6.81025">
        <ele>346.090233</ele>
        <time>2021-04-29T12:33:24.312Z</time>
      </trkpt>
      <trkpt lat="47.52012" lon="6.81041">
        <ele>344.794375</ele>
        <time>2021-04-29T12:33:33.158Z</time>
      </trkpt>
      <trkpt lat="47.51969" lon="6.81055">
        <ele>342.455224</ele>
        <time>2021-04-29T12:33:43.412Z</time>
      </trkpt>
      <trkpt lat="47.51951" lon="6.81061">
        <ele>341.182045</ele>
        <time>2021-04-29T12:33:46.730Z</time>
      </trkpt>
      <trkpt lat="47.51931" lon="6.81073">
        <ele>339.699347</ele>
        <time>2021-04-29T12:33:50.734Z</time>
      </trkpt>
      <trkpt lat="47.51888" lon="6.8111">
        <ele>336.362555</ele>
        <time>2021-04-29T12:33:59.510Z</time>
      </trkpt>
      <trkpt lat="47.51869" lon="6.81106">
        <ele>335.073767</ele>
        <time>2021-04-29T12:34:03.119Z</time>
      </trkpt>
      <trkpt lat="47.51866" lon="6.81117">
        <ele>334.570327</ele>
        <time>2021-04-29T12:34:04.411Z</time>
      </trkpt>
      <trkpt lat="47.51861" lon="6.81126">
        <ele>333.97658</ele>
        <time>2021-04-29T12:34:05.955Z</time>
      </trkpt>
      <trkpt lat="47.51848" lon="6.81143">
        <ele>332.839508</ele>
        <time>2021-04-29T12:34:09.150Z</time>
      </trkpt>
      <trkpt lat="47.51837" lon="6.81153">
        <ele>331.978584</ele>
        <time>2021-04-29T12:34:11.460Z</time>
      </trkpt>
      <trkpt lat="47.5183" lon="6.8116">
        <ele>331.609787</ele>
        <time>2021-04-29T12:34:13.000Z</time>
      </trkpt>
      <trkpt lat="47.5182" lon="6.81171">
        <ele>331.072173</ele>
        <time>2021-04-29T12:34:15.458Z</time>
      </trkpt>
      <trkpt lat="47.51812" lon="6.81188">
        <ele>330.490446</ele>
        <time>2021-04-29T12:34:17.958Z</time>
      </trkpt>
      <trkpt lat="47.51804" lon="6.81207">
        <ele>329.816578</ele>
        <time>2021-04-29T12:34:20.920Z</time>
      </trkpt>
      <trkpt lat="47.51792" lon="6.81243">
        <ele>328.645608</ele>
        <time>2021-04-29T12:34:26.099Z</time>
      </trkpt>
      <trkpt lat="47.51787" lon="6.81241">
        <ele>328.430037</ele>
        <time>2021-04-29T12:34:27.017Z</time>
      </trkpt>
      <trkpt lat="47.51783" lon="6.81249">
        <ele>328.102387</ele>
        <time>2021-04-29T12:34:28.506Z</time>
      </trkpt>
      <trkpt lat="47.51773" lon="6.81248">
        <ele>327.674718</ele>
        <time>2021-04-29T12:34:30.395Z</time>
      </trkpt>
      <trkpt lat="47.51771" lon="6.81246">
        <ele>327.587683</ele>
        <time>2021-04-29T12:34:30.740Z</time>
      </trkpt>
      <trkpt lat="47.51754" lon="6.81229">
        <ele>326.687563</ele>
        <time>2021-04-29T12:34:34.645Z</time>
      </trkpt>
      <trkpt lat="47.51616" lon="6.81056">
        <ele>321.279595</ele>
        <time>2021-04-29T12:35:11.226Z</time>
      </trkpt>
      <trkpt lat="47.51576" lon="6.81008">
        <ele>320.055756</ele>
        <time>2021-04-29T12:35:22.202Z</time>
      </trkpt>
      <trkpt lat="47.51567" lon="6.80996">
        <ele>319.82952</ele>
        <time>2021-04-29T12:35:24.897Z</time>
      </trkpt>
      <trkpt lat="47.51564" lon="6.81">
        <ele>319.768634</ele>
        <time>2021-04-29T12:35:25.848Z</time>
      </trkpt>
      <trkpt lat="47.5156" lon="6.81007">
        <ele>319.677559</ele>
        <time>2021-04-29T12:35:27.292Z</time>
      </trkpt>
      <trkpt lat="47.51556" lon="6.81012">
        <ele>319.605685</ele>
        <time>2021-04-29T12:35:28.363Z</time>
      </trkpt>
      <trkpt lat="47.51547" lon="6.81002">
        <ele>319.428901</ele>
        <time>2021-04-29T12:35:30.978Z</time>
      </trkpt>
      <trkpt lat="47.51542" lon="6.81003">
        <ele>319.360972</ele>
        <time>2021-04-29T12:35:31.937Z</time>
      </trkpt>
      <trkpt lat="47.51538" lon="6.81003">
        <ele>319.30253</ele>
        <time>2021-04-29T12:35:32.770Z</time>
      </trkpt>
      <trkpt lat="47.51532" lon="6.80984">
        <ele>319.101265</ele>
        <time>2021-04-29T12:35:35.774Z</time>
      </trkpt>
      <trkpt lat="47.51516" lon="6.80962">
        <ele>318.774442</ele>
        <time>2021-04-29T12:35:40.532Z</time>
      </trkpt>
      <trkpt lat="47.51444" lon="6.80864">
        <ele>317.349669</ele>
        <time>2021-04-29T12:36:02.334Z</time>
      </trkpt>
      <trkpt lat="47.51432" lon="6.80857">
        <ele>317.27677</ele>
        <time>2021-04-29T12:36:05.274Z</time>
      </trkpt>
      <trkpt lat="47.5142" lon="6.80852">
        <ele>317.222163</ele>
        <time>2021-04-29T12:36:08.663Z</time>
      </trkpt>
      <trkpt lat="47.51392" lon="6.80826">
        <ele>317.0857</ele>
        <time>2021-04-29T12:36:16.776Z</time>
      </trkpt>
      <trkpt lat="47.51387" lon="6.80821">
        <ele>317.059289</ele>
        <time>2021-04-29T12:36:18.401Z</time>
      </trkpt>
      <trkpt lat="47.51375" lon="6.80817">
        <ele>317.008951</ele>
        <time>2021-04-29T12:36:21.564Z</time>
      </trkpt>
      <trkpt lat="47.51375" lon="6.80811">
        <ele>316.991332</ele>
        <time>2021-04-29T12:36:22.576Z</time>
      </trkpt>
      <trkpt lat="47.51375" lon="6.80805">
        <ele>316.975104</ele>
        <time>2021-04-29T12:36:23.545Z</time>
      </trkpt>
      <trkpt lat="47.51375" lon="6.80801">
        <ele>316.961454</ele>
        <time>2021-04-29T12:36:24.383Z</time>
      </trkpt>
      <trkpt lat="47.51374" lon="6.80794">
        <ele>316.942771</ele>
        <time>2021-04-29T12:36:25.539Z</time>
      </trkpt>
      <trkpt lat="47.51358" lon="6.808">
        <ele>316.872923</ele>
        <time>2021-04-29T12:36:29.893Z</time>
      </trkpt>
      <trkpt lat="47.51354" lon="6.808">
        <ele>316.85808</ele>
        <time>2021-04-29T12:36:30.839Z</time>
      </trkpt>
      <trkpt lat="47.51326" lon="6.80807">
        <ele>316.736149</ele>
        <time>2021-04-29T12:36:38.223Z</time>
      </trkpt>
      <trkpt lat="47.51322" lon="6.80812">
        <ele>316.713088</ele>
        <time>2021-04-29T12:36:39.711Z</time>
      </trkpt>
      <trkpt lat="47.51297" lon="6.80817">
        <ele>316.610778</ele>
        <time>2021-04-29T12:36:45.911Z</time>
      </trkpt>
      <trkpt lat="47.51051" lon="6.80869">
        <ele>315.773568</ele>
        <time>2021-04-29T12:37:48.608Z</time>
      </trkpt>
      <trkpt lat="47.51047" lon="6.80871">
        <ele>315.758962</ele>
        <time>2021-04-29T12:37:49.662Z</time>
      </trkpt>
      <trkpt lat="47.51042" lon="6.80872">
        <ele>315.742154</ele>
        <time>2021-04-29T12:37:50.857Z</time>
      </trkpt>
      <trkpt lat="47.51043" lon="6.80879">
        <ele>315.724469</ele>
        <time>2021-04-29T12:37:52.141Z</time>
      </trkpt>
      <trkpt lat="47.51037" lon="6.80887">
        <ele>315.69688</ele>
        <time>2021-04-29T12:37:53.988Z</time>
      </trkpt>
      <trkpt lat="47.50979" lon="6.80899">
        <ele>315.498811</ele>
        <time>2021-04-29T12:38:08.640Z</time>
      </trkpt>
      <trkpt lat="47.50946" lon="6.80906">
        <ele>315.383275</ele>
        <time>2021-04-29T12:38:17.388Z</time>
      </trkpt>
      <trkpt lat="47.50932" lon="6.80911">
        <ele>315.38132</ele>
        <time>2021-04-29T12:38:20.955Z</time>
      </trkpt>
      <trkpt lat="47.50918" lon="6.80917">
        <ele>315.426769</ele>
        <time>2021-04-29T12:38:24.944Z</time>
      </trkpt>
      <trkpt lat="47.50886" lon="6.80935">
        <ele>315.531503</ele>
        <time>2021-04-29T12:38:33.965Z</time>
      </trkpt>
      <trkpt lat="47.50883" lon="6.80956">
        <ele>315.574749</ele>
        <time>2021-04-29T12:38:37.749Z</time>
      </trkpt>
      <trkpt lat="47.50879" lon="6.80963">
        <ele>315.594135</ele>
        <time>2021-04-29T12:38:39.564Z</time>
      </trkpt>
      <trkpt lat="47.50872" lon="6.80969">
        <ele>315.619034</ele>
        <time>2021-04-29T12:38:41.803Z</time>
      </trkpt>
      <trkpt lat="47.50867" lon="6.80976">
        <ele>315.639399</ele>
        <time>2021-04-29T12:38:43.680Z</time>
      </trkpt>
      <trkpt lat="47.50864" lon="6.8098">
        <ele>315.651134</ele>
        <time>2021-04-29T12:38:44.763Z</time>
      </trkpt>
      <trkpt lat="47.50852" lon="6.80966">
        <ele>315.698568</ele>
        <time>2021-04-29T12:38:49.126Z</time>
      </trkpt>
      <trkpt lat="47.50825" lon="6.80948">
        <ele>315.790487</ele>
        <time>2021-04-29T12:38:57.802Z</time>
      </trkpt>
      <trkpt lat="47.50796" lon="6.80945">
        <ele>315.878681</ele>
        <time>2021-04-29T12:39:06.497Z</time>
      </trkpt>
      <trkpt lat="47.50701" lon="6.80997">
        <ele>317.051237</ele>
        <time>2021-04-29T12:39:38.619Z</time>
      </trkpt>
      <trkpt lat="47.50675" lon="6.81013">
        <ele>317.404462</ele>
        <time>2021-04-29T12:39:47.804Z</time>
      </trkpt>
      <trkpt lat="47.50576" lon="6.81074">
        <ele>318.828664</ele>
        <time>2021-04-29T12:40:24.877Z</time>
      </trkpt>
      <trkpt lat="47.50475" lon="6.81139">
        <ele>320.389305</ele>
        <time>2021-04-29T12:41:03.192Z</time>
      </trkpt>
      <trkpt lat="47.50432" lon="6.81168">
        <ele>320.723554</ele>
        <time>2021-04-29T12:41:17.390Z</time>
      </trkpt>
      <trkpt lat="47.5043" lon="6.8117">
        <ele>320.724275</ele>
        <time>2021-04-29T12:41:17.991Z</time>
      </trkpt>
      <trkpt lat="47.50413" lon="6.81181">
        <ele>320.730359</ele>
        <time>2021-04-29T12:41:23.078Z</time>
      </trkpt>
      <trkpt lat="47.50393" lon="6.81193">
        <ele>320.737587</ele>
        <time>2021-04-29T12:41:29.230Z</time>
      </trkpt>
      <trkpt lat="47.5037" lon="6.81203">
        <ele>320.745799</ele>
        <time>2021-04-29T12:41:35.860Z</time>
      </trkpt>
      <trkpt lat="47.50366" lon="6.81211">
        <ele>320.747898</ele>
        <time>2021-04-29T12:41:37.528Z</time>
      </trkpt>
      <trkpt lat="47.5037" lon="6.81225">
        <ele>320.751312</ele>
        <time>2021-04-29T12:41:40.148Z</time>
      </trkpt>
      <trkpt lat="47.50382" lon="6.81245">
        <ele>320.757511</ele>
        <time>2021-04-29T12:41:45.258Z</time>
      </trkpt>
      <trkpt lat="47.50386" lon="6.81248">
        <ele>320.758891</ele>
        <time>2021-04-29T12:41:46.278Z</time>
      </trkpt>
      <trkpt lat="47.504" lon="6.81258">
        <ele>320.763961</ele>
        <time>2021-04-29T12:41:50.074Z</time>
      </trkpt>
      <trkpt lat="47.50401" lon="6.81269">
        <ele>320.766393</ele>
        <time>2021-04-29T12:41:51.913Z</time>
      </trkpt>
      <trkpt lat="47.50407" lon="6.8134">
        <ele>320.692966</ele>
        <time>2021-04-29T12:42:04.201Z</time>
      </trkpt>
      <trkpt lat="47.50414" lon="6.81354">
        <ele>320.645969</ele>
        <time>2021-04-29T12:42:07.100Z</time>
      </trkpt>
      <trkpt lat="47.50418" lon="6.81358">
        <ele>320.626792</ele>
        <time>2021-04-29T12:42:08.205Z</time>
      </trkpt>
      <trkpt lat="47.50346" lon="6.82305">
        <ele>318.338744</ele>
        <time>2021-04-29T12:44:50.454Z</time>
      </trkpt>
      <trkpt lat="47.50346" lon="6.82368">
        <ele>318.272382</ele>
        <time>2021-04-29T12:45:01.815Z</time>
      </trkpt>
      <trkpt lat="47.50348" lon="6.8239">
        <ele>318.314129</ele>
        <time>2021-04-29T12:45:06.708Z</time>
      </trkpt>
      <trkpt lat="47.50365" lon="6.82435">
        <ele>318.408978</ele>
        <time>2021-04-29T12:45:16.682Z</time>
      </trkpt>
      <trkpt lat="47.50367" lon="6.82533">
        <ele>318.591691</ele>
        <time>2021-04-29T12:45:35.790Z</time>
      </trkpt>
      <trkpt lat="47.5035" lon="6.82564">
        <ele>318.66746</ele>
        <time>2021-04-29T12:45:43.241Z</time>
      </trkpt>
      <trkpt lat="47.50348" lon="6.82573">
        <ele>318.685425</ele>
        <time>2021-04-29T12:45:45.617Z</time>
      </trkpt>
      <trkpt lat="47.50347" lon="6.82619">
        <ele>318.743208</ele>
        <time>2021-04-29T12:45:54.089Z</time>
      </trkpt>
      <trkpt lat="47.50348" lon="6.82728">
        <ele>318.569612</ele>
        <time>2021-04-29T12:46:13.039Z</time>
      </trkpt>
      <trkpt lat="47.50352" lon="6.82777">
        <ele>318.489894</ele>
        <time>2021-04-29T12:46:21.538Z</time>
      </trkpt>
      <trkpt lat="47.50362" lon="6.82831">
        <ele>318.401071</ele>
        <time>2021-04-29T12:46:30.939Z</time>
      </trkpt>
      <trkpt lat="47.50369" lon="6.8286">
        <ele>318.352201</ele>
        <time>2021-04-29T12:46:36.016Z</time>
      </trkpt>
      <trkpt lat="47.5037" lon="6.82864">
        <ele>318.345533</ele>
        <time>2021-04-29T12:46:36.615Z</time>
      </trkpt>
      <trkpt lat="47.50374" lon="6.82889">
        <ele>318.326389</ele>
        <time>2021-04-29T12:46:40.961Z</time>
      </trkpt>
      <trkpt lat="47.50411" lon="6.83137">
        <ele>318.295892</ele>
        <time>2021-04-29T12:47:26.486Z</time>
      </trkpt>
      <trkpt lat="47.50415" lon="6.83168">
        <ele>318.517813</ele>
        <time>2021-04-29T12:47:32.961Z</time>
      </trkpt>
      <trkpt lat="47.50421" lon="6.83183">
        <ele>318.636854</ele>
        <time>2021-04-29T12:47:36.301Z</time>
      </trkpt>
      <trkpt lat="47.50436" lon="6.83253">
        <ele>319.153447</ele>
        <time>2021-04-29T12:47:51.641Z</time>
      </trkpt>
      <trkpt lat="47.50433" lon="6.83346">
        <ele>319.80518</ele>
        <time>2021-04-29T12:48:12.356Z</time>
      </trkpt>
      <trkpt lat="47.50421" lon="6.83355">
        <ele>319.940652</ele>
        <time>2021-04-29T12:48:16.916Z</time>
      </trkpt>
      <trkpt lat="47.50399" lon="6.8336">
        <ele>320.239145</ele>
        <time>2021-04-29T12:48:24.363Z</time>
      </trkpt>
      <trkpt lat="47.50269" lon="6.83389">
        <ele>323.73099</ele>
        <time>2021-04-29T12:49:18.033Z</time>
      </trkpt>
      <trkpt lat="47.50252" lon="6.83393">
        <ele>324.184127</ele>
        <time>2021-04-29T12:49:25.250Z</time>
      </trkpt>
      <trkpt lat="47.50244" lon="6.83395">
        <ele>324.408502</ele>
        <time>2021-04-29T12:49:29.250Z</time>
      </trkpt>
      <trkpt lat="47.50225" lon="6.83395">
        <ele>324.926243</ele>
        <time>2021-04-29T12:49:38.156Z</time>
      </trkpt>
      <trkpt lat="47.50192" lon="6.83391">
        <ele>325.527048</ele>
        <time>2021-04-29T12:49:52.129Z</time>
      </trkpt>
      <trkpt lat="47.5008" lon="6.83377">
        <ele>327.630055</ele>
        <time>2021-04-29T12:50:37.309Z</time>
      </trkpt>
      <trkpt lat="47.49906" lon="6.83356">
        <ele>326.326706</ele>
        <time>2021-04-29T12:51:19.711Z</time>
      </trkpt>
      <trkpt lat="47.49889" lon="6.8335">
        <ele>326.086591</ele>
        <time>2021-04-29T12:51:23.386Z</time>
      </trkpt>
      <trkpt lat="47.49872" lon="6.83342">
        <ele>325.846567</ele>
        <time>2021-04-29T12:51:26.916Z</time>
      </trkpt>
      <trkpt lat="47.49861" lon="6.83335">
        <ele>325.571237</ele>
        <time>2021-04-29T12:51:29.498Z</time>
      </trkpt>
      <trkpt lat="47.49847" lon="6.83323">
        <ele>325.108369</ele>
        <time>2021-04-29T12:51:32.732Z</time>
      </trkpt>
      <trkpt lat="47.49815" lon="6.83297">
        <ele>324.09201</ele>
        <time>2021-04-29T12:51:40.069Z</time>
      </trkpt>
      <trkpt lat="47.49745" lon="6.83236">
        <ele>321.818686</ele>
        <time>2021-04-29T12:51:56.808Z</time>
      </trkpt>
      <trkpt lat="47.49732" lon="6.83229">
        <ele>321.427935</ele>
        <time>2021-04-29T12:51:59.947Z</time>
      </trkpt>
      <trkpt lat="47.49724" lon="6.83227">
        <ele>321.201562</ele>
        <time>2021-04-29T12:52:01.549Z</time>
      </trkpt>
      <trkpt lat="47.49706" lon="6.83226">
        <ele>320.725754</ele>
        <time>2021-04-29T12:52:05.556Z</time>
      </trkpt>
      <trkpt lat="47.49698" lon="6.83227">
        <ele>320.658219</ele>
        <time>2021-04-29T12:52:07.483Z</time>
      </trkpt>
      <trkpt lat="47.49688" lon="6.8323">
        <ele>320.562352</ele>
        <time>2021-04-29T12:52:09.771Z</time>
      </trkpt>
      <trkpt lat="47.49655" lon="6.83251">
        <ele>320.243492</ele>
        <time>2021-04-29T12:52:18.208Z</time>
      </trkpt>
      <trkpt lat="47.49534" lon="6.83332">
        <ele>319.108572</ele>
        <time>2021-04-29T12:52:52.531Z</time>
      </trkpt>
      <trkpt lat="47.49528" lon="6.83339">
        <ele>319.092585</ele>
        <time>2021-04-29T12:52:54.588Z</time>
      </trkpt>
      <trkpt lat="47.49523" lon="6.83344">
        <ele>319.079603</ele>
        <time>2021-04-29T12:52:56.230Z</time>
      </trkpt>
      <trkpt lat="47.49516" lon="6.83347">
        <ele>319.0639</ele>
        <time>2021-04-29T12:52:58.155Z</time>
      </trkpt>
      <trkpt lat="47.49503" lon="6.83343">
        <ele>319.034715</ele>
        <time>2021-04-29T12:53:01.954Z</time>
      </trkpt>
      <trkpt lat="47.4939" lon="6.83413">
        <ele>318.769065</ele>
        <time>2021-04-29T12:53:35.039Z</time>
      </trkpt>
      <trkpt lat="47.4935" lon="6.83423">
        <ele>318.748239</ele>
        <time>2021-04-29T12:53:45.924Z</time>
      </trkpt>
      <trkpt lat="47.49322" lon="6.83419">
        <ele>318.757782</ele>
        <time>2021-04-29T12:53:53.698Z</time>
      </trkpt>
      <trkpt lat="47.49306" lon="6.83415">
        <ele>318.763133</ele>
        <time>2021-04-29T12:53:58.072Z</time>
      </trkpt>
      <trkpt lat="47.49297" lon="6.83413">
        <ele>318.76641</ele>
        <time>2021-04-29T12:54:00.773Z</time>
      </trkpt>
      <trkpt lat="47.49246" lon="6.83396">
        <ele>318.783997</ele>
        <time>2021-04-29T12:54:15.377Z</time>
      </trkpt>
      <trkpt lat="47.49237" lon="6.83393">
        <ele>318.786971</ele>
        <time>2021-04-29T12:54:17.866Z</time>
      </trkpt>
      <trkpt lat="47.4922" lon="6.83388">
        <ele>318.793008</ele>
        <time>2021-04-29T12:54:22.962Z</time>
      </trkpt>
      <trkpt lat="47.49189" lon="6.83379">
        <ele>318.82539</ele>
        <time>2021-04-29T12:54:31.714Z</time>
      </trkpt>
      <trkpt lat="47.49003" lon="6.83324">
        <ele>319.299436</ele>
        <time>2021-04-29T12:55:27.244Z</time>
      </trkpt>
      <trkpt lat="47.48957" lon="6.83311">
        <ele>319.385532</ele>
        <time>2021-04-29T12:55:41.033Z</time>
      </trkpt>
      <trkpt lat="47.48948" lon="6.8331">
        <ele>319.401941</ele>
        <time>2021-04-29T12:55:43.635Z</time>
      </trkpt>
      <trkpt lat="47.48923" lon="6.83307">
        <ele>319.447087</ele>
        <time>2021-04-29T12:55:50.778Z</time>
      </trkpt>
      <trkpt lat="47.4891" lon="6.83309">
        <ele>319.470594</ele>
        <time>2021-04-29T12:55:54.481Z</time>
      </trkpt>
      <trkpt lat="47.48895" lon="6.83317">
        <ele>319.499422</ele>
        <time>2021-04-29T12:55:58.960Z</time>
      </trkpt>
      <trkpt lat="47.4885" lon="6.83372">
        <ele>319.593966</ele>
        <time>2021-04-29T12:56:15.642Z</time>
      </trkpt>
      <trkpt lat="47.48778" lon="6.83478">
        <ele>319.637589</ele>
        <time>2021-04-29T12:56:43.893Z</time>
      </trkpt>
      <trkpt lat="47.48768" lon="6.83513">
        <ele>319.648678</ele>
        <time>2021-04-29T12:56:51.158Z</time>
      </trkpt>
      <trkpt lat="47.48766" lon="6.83549">
        <ele>319.659253</ele>
        <time>2021-04-29T12:56:58.175Z</time>
      </trkpt>
      <trkpt lat="47.48784" lon="6.83673">
        <ele>319.679455</ele>
        <time>2021-04-29T12:57:21.929Z</time>
      </trkpt>
      <trkpt lat="47.48761" lon="6.83754">
        <ele>319.690179</ele>
        <time>2021-04-29T12:57:38.367Z</time>
      </trkpt>
      <trkpt lat="47.48764" lon="6.83756">
        <ele>319.690683</ele>
        <time>2021-04-29T12:57:39.190Z</time>
      </trkpt>
      <trkpt lat="47.4877" lon="6.8376">
        <ele>319.691902</ele>
        <time>2021-04-29T12:57:41.040Z</time>
      </trkpt>
      <trkpt lat="47.48787" lon="6.83779">
        <ele>319.695784</ele>
        <time>2021-04-29T12:57:47.051Z</time>
      </trkpt>
      <trkpt lat="47.48788" lon="6.83789">
        <ele>319.697031</ele>
        <time>2021-04-29T12:57:48.974Z</time>
      </trkpt>
      <trkpt lat="47.48772" lon="6.83818">
        <ele>319.712207</ele>
        <time>2021-04-29T12:57:55.945Z</time>
      </trkpt>
      <trkpt lat="47.4877" lon="6.83826">
        <ele>319.721167</ele>
        <time>2021-04-29T12:57:57.644Z</time>
      </trkpt>
      <trkpt lat="47.4877" lon="6.83831">
        <ele>319.725867</ele>
        <time>2021-04-29T12:57:58.531Z</time>
      </trkpt>
      <trkpt lat="47.48776" lon="6.83838">
        <ele>319.73751</ele>
        <time>2021-04-29T12:58:00.797Z</time>
      </trkpt>
      <trkpt lat="47.48778" lon="6.83851">
        <ele>319.750781</ele>
        <time>2021-04-29T12:58:03.345Z</time>
      </trkpt>
      <trkpt lat="47.48753" lon="6.83913">
        <ele>319.821782</ele>
        <time>2021-04-29T12:58:17.006Z</time>
      </trkpt>
      <trkpt lat="47.48747" lon="6.83924">
        <ele>319.83492</ele>
        <time>2021-04-29T12:58:19.505Z</time>
      </trkpt>
      <trkpt lat="47.48743" lon="6.83933">
        <ele>319.8453</ele>
        <time>2021-04-29T12:58:21.438Z</time>
      </trkpt>
      <trkpt lat="47.48681" lon="6.84032">
        <ele>320.011977</ele>
        <time>2021-04-29T12:58:48.166Z</time>
      </trkpt>
      <trkpt lat="47.48669" lon="6.8405">
        <ele>320.086184</ele>
        <time>2021-04-29T12:58:53.665Z</time>
      </trkpt>
      <trkpt lat="47.4866" lon="6.84064">
        <ele>320.141792</ele>
        <time>2021-04-29T12:58:57.683Z</time>
      </trkpt>
      <trkpt lat="47.48631" lon="6.84106">
        <ele>320.315208</ele>
        <time>2021-04-29T12:59:10.035Z</time>
      </trkpt>
      <trkpt lat="47.486" lon="6.84154">
        <ele>320.509219</ele>
        <time>2021-04-29T12:59:23.269Z</time>
      </trkpt>
      <trkpt lat="47.48565" lon="6.842">
        <ele>320.707704</ele>
        <time>2021-04-29T12:59:36.870Z</time>
      </trkpt>
      <trkpt lat="47.48547" lon="6.84226">
        <ele>320.831788</ele>
        <time>2021-04-29T12:59:44.556Z</time>
      </trkpt>
      <trkpt lat="47.48521" lon="6.8426">
        <ele>321.008327</ele>
        <time>2021-04-29T12:59:55.230Z</time>
      </trkpt>
      <trkpt lat="47.48486" lon="6.84302">
        <ele>321.236364</ele>
        <time>2021-04-29T13:00:09.134Z</time>
      </trkpt>
      <trkpt lat="47.48407" lon="6.84397">
        <ele>321.79558</ele>
        <time>2021-04-29T13:00:39.423Z</time>
      </trkpt>
      <trkpt lat="47.48354" lon="6.84451">
        <ele>322.258346</ele>
        <time>2021-04-29T13:00:59.540Z</time>
      </trkpt>
      <trkpt lat="47.48309" lon="6.84496">
        <ele>322.644317</ele>
        <time>2021-04-29T13:01:16.735Z</time>
      </trkpt>
      <trkpt lat="47.48301" lon="6.84504">
        <ele>322.711384</ele>
        <time>2021-04-29T13:01:19.723Z</time>
      </trkpt>
      <trkpt lat="47.48268" lon="6.84538">
        <ele>323.04305</ele>
        <time>2021-04-29T13:01:32.799Z</time>
      </trkpt>
      <trkpt lat="47.48249" lon="6.84557">
        <ele>323.293643</ele>
        <time>2021-04-29T13:01:40.022Z</time>
      </trkpt>
      <trkpt lat="47.48203" lon="6.84604">
        <ele>323.906759</ele>
        <time>2021-04-29T13:01:57.944Z</time>
      </trkpt>
      <trkpt lat="47.48195" lon="6.84612">
        <ele>324.015312</ele>
        <time>2021-04-29T13:02:01.173Z</time>
      </trkpt>
      <trkpt lat="47.48186" lon="6.84622">
        <ele>324.137597</ele>
        <time>2021-04-29T13:02:04.802Z</time>
      </trkpt>
      <trkpt lat="47.48013" lon="6.84796">
        <ele>327.039611</ele>
        <time>2021-04-29T13:03:17.255Z</time>
      </trkpt>
      <trkpt lat="47.47954" lon="6.84863">
        <ele>328.365674</ele>
        <time>2021-04-29T13:03:44.051Z</time>
      </trkpt>
      <trkpt lat="47.47931" lon="6.8486">
        <ele>328.864131</ele>
        <time>2021-04-29T13:03:53.291Z</time>
      </trkpt>
      <trkpt lat="47.47924" lon="6.8486">
        <ele>329.005944</ele>
        <time>2021-04-29T13:03:55.552Z</time>
      </trkpt>
      <trkpt lat="47.47917" lon="6.84864">
        <ele>329.156749</ele>
        <time>2021-04-29T13:03:58.041Z</time>
      </trkpt>
      <trkpt lat="47.47901" lon="6.84878">
        <ele>329.551112</ele>
        <time>2021-04-29T13:04:05.512Z</time>
      </trkpt>
      <trkpt lat="47.47875" lon="6.84877">
        <ele>330.109669</ele>
        <time>2021-04-29T13:04:15.964Z</time>
      </trkpt>
      <trkpt lat="47.47871" lon="6.84884">
        <ele>330.241387</ele>
        <time>2021-04-29T13:04:18.757Z</time>
      </trkpt>
      <trkpt lat="47.47854" lon="6.84897">
        <ele>330.649437</ele>
        <time>2021-04-29T13:04:25.598Z</time>
      </trkpt>
      <trkpt lat="47.47848" lon="6.84892">
        <ele>330.784669</ele>
        <time>2021-04-29T13:04:28.421Z</time>
      </trkpt>
      <trkpt lat="47.47843" lon="6.84884">
        <ele>330.947635</ele>
        <time>2021-04-29T13:04:31.859Z</time>
      </trkpt>
      <trkpt lat="47.47795" lon="6.84865">
        <ele>331.624047</ele>
        <time>2021-04-29T13:04:49.595Z</time>
      </trkpt>
      <trkpt lat="47.47758" lon="6.84837">
        <ele>331.891184</ele>
        <time>2021-04-29T13:05:03.961Z</time>
      </trkpt>
      <trkpt lat="47.47752" lon="6.84831">
        <ele>331.93639</ele>
        <time>2021-04-29T13:05:06.735Z</time>
      </trkpt>
      <trkpt lat="47.47738" lon="6.84814">
        <ele>332.054795</ele>
        <time>2021-04-29T13:05:12.258Z</time>
      </trkpt>
      <trkpt lat="47.47729" lon="6.84802">
        <ele>332.133841</ele>
        <time>2021-04-29T13:05:15.505Z</time>
      </trkpt>
      <trkpt lat="47.47695" lon="6.84743">
        <ele>332.469249</ele>
        <time>2021-04-29T13:05:29.688Z</time>
      </trkpt>
      <trkpt lat="47.47675" lon="6.84684">
        <ele>332.247633</ele>
        <time>2021-04-29T13:05:39.941Z</time>
      </trkpt>
      <trkpt lat="47.47665" lon="6.84661">
        <ele>331.906225</ele>
        <time>2021-04-29T13:05:44.382Z</time>
      </trkpt>
      <trkpt lat="47.47658" lon="6.84646">
        <ele>331.6817</ele>
        <time>2021-04-29T13:05:46.926Z</time>
      </trkpt>
      <trkpt lat="47.47619" lon="6.84587">
        <ele>330.655434</ele>
        <time>2021-04-29T13:05:58.468Z</time>
      </trkpt>
      <trkpt lat="47.47569" lon="6.84561">
        <ele>329.685555</ele>
        <time>2021-04-29T13:06:09.433Z</time>
      </trkpt>
      <trkpt lat="47.47563" lon="6.8456">
        <ele>329.574536</ele>
        <time>2021-04-29T13:06:10.551Z</time>
      </trkpt>
      <trkpt lat="47.47565" lon="6.8455">
        <ele>329.441925</ele>
        <time>2021-04-29T13:06:12.082Z</time>
      </trkpt>
      <trkpt lat="47.47561" lon="6.84549">
        <ele>329.377656</ele>
        <time>2021-04-29T13:06:12.871Z</time>
      </trkpt>
      <trkpt lat="47.47551" lon="6.84548">
        <ele>329.236154</ele>
        <time>2021-04-29T13:06:15.152Z</time>
      </trkpt>
      <trkpt lat="47.47512" lon="6.84522">
        <ele>328.70698</ele>
        <time>2021-04-29T13:06:24.839Z</time>
      </trkpt>
      <trkpt lat="47.4748" lon="6.84504">
        <ele>328.288331</ele>
        <time>2021-04-29T13:06:32.653Z</time>
      </trkpt>
      <trkpt lat="47.47449" lon="6.84495">
        <ele>327.894129</ele>
        <time>2021-04-29T13:06:40.154Z</time>
      </trkpt>
      <trkpt lat="47.47432" lon="6.84494">
        <ele>327.68514</ele>
        <time>2021-04-29T13:06:43.995Z</time>
      </trkpt>
      <trkpt lat="47.4743" lon="6.84488">
        <ele>327.62469</ele>
        <time>2021-04-29T13:06:45.167Z</time>
      </trkpt>
      <trkpt lat="47.47384" lon="6.84449">
        <ele>327.184931</ele>
        <time>2021-04-29T13:06:59.826Z</time>
      </trkpt>
      <trkpt lat="47.47382" lon="6.84442">
        <ele>327.218497</ele>
        <time>2021-04-29T13:07:01.274Z</time>
      </trkpt>
      <trkpt lat="47.4738" lon="6.8444">
        <ele>327.240119</ele>
        <time>2021-04-29T13:07:02.017Z</time>
      </trkpt>
      <trkpt lat="47.47344" lon="6.8441">
        <ele>327.51478</ele>
        <time>2021-04-29T13:07:13.921Z</time>
      </trkpt>
      <trkpt lat="47.47338" lon="6.84409">
        <ele>327.558278</ele>
        <time>2021-04-29T13:07:15.642Z</time>
      </trkpt>
      <trkpt lat="47.47282" lon="6.84373">
        <ele>327.970749</ele>
        <time>2021-04-29T13:07:35.030Z</time>
      </trkpt>
      <trkpt lat="47.47242" lon="6.84333">
        <ele>328.296611</ele>
        <time>2021-04-29T13:07:51.295Z</time>
      </trkpt>
      <trkpt lat="47.47237" lon="6.84326">
        <ele>328.376446</ele>
        <time>2021-04-29T13:07:53.902Z</time>
      </trkpt>
      <trkpt lat="47.47234" lon="6.84321">
        <ele>328.470382</ele>
        <time>2021-04-29T13:07:55.689Z</time>
      </trkpt>
      <trkpt lat="47.4723" lon="6.84314">
        <ele>328.568379</ele>
        <time>2021-04-29T13:07:57.567Z</time>
      </trkpt>
      <trkpt lat="47.47206" lon="6.8427">
        <ele>329.273409</ele>
        <time>2021-04-29T13:08:11.298Z</time>
      </trkpt>
      <trkpt lat="47.47131" lon="6.84156">
        <ele>331.259102</ele>
        <time>2021-04-29T13:08:51.256Z</time>
      </trkpt>
      <trkpt lat="47.47092" lon="6.84111">
        <ele>332.272443</ele>
        <time>2021-04-29T13:09:10.016Z</time>
      </trkpt>
      <trkpt lat="47.47072" lon="6.84103">
        <ele>332.725175</ele>
        <time>2021-04-29T13:09:17.702Z</time>
      </trkpt>
      <trkpt lat="47.47043" lon="6.84106">
        <ele>333.379603</ele>
        <time>2021-04-29T13:09:29.129Z</time>
      </trkpt>
      <trkpt lat="47.46984" lon="6.84123">
        <ele>334.704316</ele>
        <time>2021-04-29T13:09:52.267Z</time>
      </trkpt>
      <trkpt lat="47.46886" lon="6.84171">
        <ele>336.980709</ele>
        <time>2021-04-29T13:10:32.588Z</time>
      </trkpt>
      <trkpt lat="47.46777" lon="6.84197">
        <ele>339.436615</ele>
        <time>2021-04-29T13:11:14.807Z</time>
      </trkpt>
      <trkpt lat="47.46648" lon="6.84194">
        <ele>342.161988</ele>
        <time>2021-04-29T13:12:03.071Z</time>
      </trkpt>
      <trkpt lat="47.4654" lon="6.8422">
        <ele>344.407447</ele>
        <time>2021-04-29T13:12:45.750Z</time>
      </trkpt>
      <trkpt lat="47.46445" lon="6.84222">
        <ele>346.299417</ele>
        <time>2021-04-29T13:13:22.767Z</time>
      </trkpt>
      <trkpt lat="47.46246" lon="6.84202">
        <ele>348.23452</ele>
        <time>2021-04-29T13:14:26.544Z</time>
      </trkpt>
      <trkpt lat="47.46237" lon="6.84204">
        <ele>348.308993</ele>
        <time>2021-04-29T13:14:29.623Z</time>
      </trkpt>
      <trkpt lat="47.46232" lon="6.84203">
        <ele>348.348629</ele>
        <time>2021-04-29T13:14:30.535Z</time>
      </trkpt>
      <trkpt lat="47.46194" lon="6.84191">
        <ele>348.872869</ele>
        <time>2021-04-29T13:14:40.493Z</time>
      </trkpt>
      <trkpt lat="47.46051" lon="6.84168">
        <ele>350.948542</ele>
        <time>2021-04-29T13:15:30.633Z</time>
      </trkpt>
      <trkpt lat="47.46032" lon="6.84166">
        <ele>351.818829</ele>
        <time>2021-04-29T13:15:39.102Z</time>
      </trkpt>
      <trkpt lat="47.46026" lon="6.84177">
        <ele>352.251784</ele>
        <time>2021-04-29T13:15:43.238Z</time>
      </trkpt>
      <trkpt lat="47.46018" lon="6.84179">
        <ele>352.636308</ele>
        <time>2021-04-29T13:15:47.196Z</time>
      </trkpt>
      <trkpt lat="47.46004" lon="6.84209">
        <ele>353.778982</ele>
        <time>2021-04-29T13:15:58.983Z</time>
      </trkpt>
      <trkpt lat="47.45926" lon="6.84294">
        <ele>358.294636</ele>
        <time>2021-04-29T13:16:51.034Z</time>
      </trkpt>
      <trkpt lat="47.45897" lon="6.84305">
        <ele>359.602183</ele>
        <time>2021-04-29T13:17:07.569Z</time>
      </trkpt>
      <trkpt lat="47.45822" lon="6.843">
        <ele>362.656182</ele>
        <time>2021-04-29T13:17:45.309Z</time>
      </trkpt>
      <trkpt lat="47.45807" lon="6.8431">
        <ele>363.302482</ele>
        <time>2021-04-29T13:17:51.956Z</time>
      </trkpt>
      <trkpt lat="47.45802" lon="6.84325">
        <ele>363.768496</ele>
        <time>2021-04-29T13:17:56.336Z</time>
      </trkpt>
      <trkpt lat="47.458" lon="6.84345">
        <ele>364.302535</ele>
        <time>2021-04-29T13:18:03.181Z</time>
      </trkpt>
      <trkpt lat="47.45806" lon="6.84365">
        <ele>364.900282</ele>
        <time>2021-04-29T13:18:08.310Z</time>
      </trkpt>
      <trkpt lat="47.45818" lon="6.84377">
        <ele>365.499024</ele>
        <time>2021-04-29T13:18:14.882Z</time>
      </trkpt>
      <trkpt lat="47.45852" lon="6.84388">
        <ele>366.630956</ele>
        <time>2021-04-29T13:18:28.732Z</time>
      </trkpt>
      <trkpt lat="47.45859" lon="6.84396">
        <ele>366.79646</ele>
        <time>2021-04-29T13:18:33.362Z</time>
      </trkpt>
      <trkpt lat="47.45868" lon="6.84419">
        <ele>367.122787</ele>
        <time>2021-04-29T13:18:39.113Z</time>
      </trkpt>
      <trkpt lat="47.45884" lon="6.84492">
        <ele>368.0585</ele>
        <time>2021-04-29T13:18:59.232Z</time>
      </trkpt>
      <trkpt lat="47.45888" lon="6.84511">
        <ele>368.311271</ele>
        <time>2021-04-29T13:19:03.254Z</time>
      </trkpt>
      <trkpt lat="47.45894" lon="6.84544">
        <ele>368.727599</ele>
        <time>2021-04-29T13:19:10.192Z</time>
      </trkpt>
      <trkpt lat="47.45892" lon="6.84556">
        <ele>368.883942</ele>
        <time>2021-04-29T13:19:13.017Z</time>
      </trkpt>
      <trkpt lat="47.4588" lon="6.84581">
        <ele>369.256298</ele>
        <time>2021-04-29T13:19:18.932Z</time>
      </trkpt>
      <trkpt lat="47.45876" lon="6.84587">
        <ele>369.358131</ele>
        <time>2021-04-29T13:19:21.026Z</time>
      </trkpt>
      <trkpt lat="47.45741" lon="6.84615">
        <ele>371.586271</ele>
        <time>2021-04-29T13:20:06.343Z</time>
      </trkpt>
      <trkpt lat="47.45583" lon="6.8463">
        <ele>375.596535</ele>
        <time>2021-04-29T13:21:05.145Z</time>
      </trkpt>
      <trkpt lat="47.45531" lon="6.84637">
        <ele>377.210242</ele>
        <time>2021-04-29T13:21:27.680Z</time>
      </trkpt>
      <trkpt lat="47.45513" lon="6.84641">
        <ele>377.779689</ele>
        <time>2021-04-29T13:21:36.191Z</time>
      </trkpt>
      <trkpt lat="47.45493" lon="6.84644">
        <ele>378.659145</ele>
        <time>2021-04-29T13:21:45.747Z</time>
      </trkpt>
      <trkpt lat="47.45388" lon="6.84662">
        <ele>385.690513</ele>
        <time>2021-04-29T13:22:44.424Z</time>
      </trkpt>
      <trkpt lat="47.44962" lon="6.8473">
        <ele>420.452463</ele>
        <time>2021-04-29T13:27:34.099Z</time>
      </trkpt>
      <trkpt lat="47.44674" lon="6.84775">
        <ele>439.60524</ele>
        <time>2021-04-29T13:30:23.148Z</time>
      </trkpt>
      <trkpt lat="47.44634" lon="6.84781">
        <ele>442.151386</ele>
        <time>2021-04-29T13:30:45.886Z</time>
      </trkpt>
      <trkpt lat="47.4462" lon="6.84783">
        <ele>443.000241</ele>
        <time>2021-04-29T13:30:53.378Z</time>
      </trkpt>
      <trkpt lat="47.44576" lon="6.8479">
        <ele>445.00915</ele>
        <time>2021-04-29T13:31:18.338Z</time>
      </trkpt>
      <trkpt lat="47.44448" lon="6.84769">
        <ele>449.776181</ele>
        <time>2021-04-29T13:32:13.198Z</time>
      </trkpt>
      <trkpt lat="47.44441" lon="6.84771">
        <ele>450.053377</ele>
        <time>2021-04-29T13:32:17.020Z</time>
      </trkpt>
      <trkpt lat="47.44424" lon="6.84775">
        <ele>450.635052</ele>
        <time>2021-04-29T13:32:21.881Z</time>
      </trkpt>
      <trkpt lat="47.44404" lon="6.84791">
        <ele>451.255306</ele>
        <time>2021-04-29T13:32:30.983Z</time>
      </trkpt>
      <trkpt lat="47.444" lon="6.84794">
        <ele>451.371814</ele>
        <time>2021-04-29T13:32:32.038Z</time>
      </trkpt>
      <trkpt lat="47.44374" lon="6.84816">
        <ele>452.196144</ele>
        <time>2021-04-29T13:32:43.454Z</time>
      </trkpt>
      <trkpt lat="47.44364" lon="6.84818">
        <ele>452.465431</ele>
        <time>2021-04-29T13:32:46.253Z</time>
      </trkpt>
      <trkpt lat="47.4436" lon="6.84817">
        <ele>452.563891</ele>
        <time>2021-04-29T13:32:47.375Z</time>
      </trkpt>
      <trkpt lat="47.44357" lon="6.84817">
        <ele>452.638367</ele>
        <time>2021-04-29T13:32:48.284Z</time>
      </trkpt>
      <trkpt lat="47.44352" lon="6.84814">
        <ele>452.792542</ele>
        <time>2021-04-29T13:32:50.243Z</time>
      </trkpt>
      <trkpt lat="47.44349" lon="6.84812">
        <ele>452.873089</ele>
        <time>2021-04-29T13:32:51.530Z</time>
      </trkpt>
      <trkpt lat="47.44313" lon="6.84769">
        <ele>454.129838</ele>
        <time>2021-04-29T13:33:09.853Z</time>
      </trkpt>
      <trkpt lat="47.44283" lon="6.84731">
        <ele>455.206852</ele>
        <time>2021-04-29T13:33:24.756Z</time>
      </trkpt>
      <trkpt lat="47.44216" lon="6.84633">
        <ele>461.259706</ele>
        <time>2021-04-29T13:34:14.628Z</time>
      </trkpt>
      <trkpt lat="47.44123" lon="6.84498">
        <ele>470.265495</ele>
        <time>2021-04-29T13:35:42.476Z</time>
      </trkpt>
      <trkpt lat="47.44116" lon="6.84489">
        <ele>471.001555</ele>
        <time>2021-04-29T13:35:50.116Z</time>
      </trkpt>
      <trkpt lat="47.44108" lon="6.84482">
        <ele>471.700059</ele>
        <time>2021-04-29T13:35:55.600Z</time>
      </trkpt>
      <trkpt lat="47.44096" lon="6.84477">
        <ele>472.586047</ele>
        <time>2021-04-29T13:36:03.737Z</time>
      </trkpt>
      <trkpt lat="47.44077" lon="6.84474">
        <ele>474.029315</ele>
        <time>2021-04-29T13:36:16.416Z</time>
      </trkpt>
      <trkpt lat="47.43987" lon="6.84479">
        <ele>480.768984</ele>
        <time>2021-04-29T13:37:10.945Z</time>
      </trkpt>
      <trkpt lat="47.4395" lon="6.84481">
        <ele>482.494437</ele>
        <time>2021-04-29T13:37:31.829Z</time>
      </trkpt>
      <trkpt lat="47.43924" lon="6.84483">
        <ele>483.641661</ele>
        <time>2021-04-29T13:37:43.391Z</time>
      </trkpt>
      <trkpt lat="47.43898" lon="6.84486">
        <ele>484.773079</ele>
        <time>2021-04-29T13:37:54.935Z</time>
      </trkpt>
      <trkpt lat="47.43835" lon="6.84492">
        <ele>487.498841</ele>
        <time>2021-04-29T13:38:22.301Z</time>
      </trkpt>
      <trkpt lat="47.43705" lon="6.84503">
        <ele>492.550837</ele>
        <time>2021-04-29T13:39:21.601Z</time>
      </trkpt>
      <trkpt lat="47.43686" lon="6.84505">
        <ele>493.269156</ele>
        <time>2021-04-29T13:39:30.114Z</time>
      </trkpt>
      <trkpt lat="47.43668" lon="6.84502">
        <ele>493.927194</ele>
        <time>2021-04-29T13:39:38.523Z</time>
      </trkpt>
      <trkpt lat="47.43647" lon="6.84495">
        <ele>494.727999</ele>
        <time>2021-04-29T13:39:47.834Z</time>
      </trkpt>
      <trkpt lat="47.43592" lon="6.8446">
        <ele>496.3094</ele>
        <time>2021-04-29T13:40:13.563Z</time>
      </trkpt>
      <trkpt lat="47.43552" lon="6.84436">
        <ele>497.18714</ele>
        <time>2021-04-29T13:40:30.411Z</time>
      </trkpt>
      <trkpt lat="47.43532" lon="6.84426">
        <ele>497.617555</ele>
        <time>2021-04-29T13:40:38.481Z</time>
      </trkpt>
      <trkpt lat="47.4351" lon="6.84422">
        <ele>498.065368</ele>
        <time>2021-04-29T13:40:45.779Z</time>
      </trkpt>
      <trkpt lat="47.43478" lon="6.84422">
        <ele>498.707354</ele>
        <time>2021-04-29T13:40:55.948Z</time>
      </trkpt>
      <trkpt lat="47.43433" lon="6.84431">
        <ele>499.15278</ele>
        <time>2021-04-29T13:41:09.382Z</time>
      </trkpt>
      <trkpt lat="47.43181" lon="6.84502">
        <ele>499.641204</ele>
        <time>2021-04-29T13:42:14.677Z</time>
      </trkpt>
      <trkpt lat="47.43063" lon="6.84558">
        <ele>500.70429</ele>
        <time>2021-04-29T13:42:58.117Z</time>
      </trkpt>
      <trkpt lat="47.43039" lon="6.84561">
        <ele>501.019344</ele>
        <time>2021-04-29T13:43:06.617Z</time>
      </trkpt>
      <trkpt lat="47.43021" lon="6.84559">
        <ele>501.253991</ele>
        <time>2021-04-29T13:43:12.931Z</time>
      </trkpt>
      <trkpt lat="47.43006" lon="6.84549">
        <ele>501.466062</ele>
        <time>2021-04-29T13:43:18.490Z</time>
      </trkpt>
      <trkpt lat="47.42974" lon="6.84525">
        <ele>501.935091</ele>
        <time>2021-04-29T13:43:30.121Z</time>
      </trkpt>
      <trkpt lat="47.4283" lon="6.84376">
        <ele>503.55601</ele>
        <time>2021-04-29T13:44:21.172Z</time>
      </trkpt>
      <trkpt lat="47.42825" lon="6.84372">
        <ele>503.597234</ele>
        <time>2021-04-29T13:44:22.545Z</time>
      </trkpt>
      <trkpt lat="47.42791" lon="6.84336">
        <ele>503.968724</ele>
        <time>2021-04-29T13:44:35.983Z</time>
      </trkpt>
      <trkpt lat="47.42763" lon="6.84318">
        <ele>505.022439</ele>
        <time>2021-04-29T13:44:46.883Z</time>
      </trkpt>
      <trkpt lat="47.42746" lon="6.84315">
        <ele>505.59393</ele>
        <time>2021-04-29T13:44:53.343Z</time>
      </trkpt>
      <trkpt lat="47.42709" lon="6.84311">
        <ele>506.873492</ele>
        <time>2021-04-29T13:45:08.842Z</time>
      </trkpt>
      <trkpt lat="47.42456" lon="6.84299">
        <ele>517.135193</ele>
        <time>2021-04-29T13:47:12.197Z</time>
      </trkpt>
      <trkpt lat="47.42201" lon="6.84167">
        <ele>527.769056</ele>
        <time>2021-04-29T13:49:12.436Z</time>
      </trkpt>
      <trkpt lat="47.42133" lon="6.84152">
        <ele>530.652256</ele>
        <time>2021-04-29T13:49:44.891Z</time>
      </trkpt>
      <trkpt lat="47.42016" lon="6.84144">
        <ele>536.213786</ele>
        <time>2021-04-29T13:50:43.263Z</time>
      </trkpt>
      <trkpt lat="47.41936" lon="6.84131">
        <ele>540.207282</ele>
        <time>2021-04-29T13:51:25.062Z</time>
      </trkpt>
      <trkpt lat="47.41915" lon="6.84122">
        <ele>541.305454</ele>
        <time>2021-04-29T13:51:36.333Z</time>
      </trkpt>
      <trkpt lat="47.41887" lon="6.84109">
        <ele>542.677227</ele>
        <time>2021-04-29T13:51:51.866Z</time>
      </trkpt>
      <trkpt lat="47.41746" lon="6.84016">
        <ele>549.761247</ele>
        <time>2021-04-29T13:53:07.683Z</time>
      </trkpt>
      <trkpt lat="47.417" lon="6.83998">
        <ele>550.80787</ele>
        <time>2021-04-29T13:53:27.711Z</time>
      </trkpt>
      <trkpt lat="47.41602" lon="6.84">
        <ele>552.951295</ele>
        <time>2021-04-29T13:54:03.548Z</time>
      </trkpt>
      <trkpt lat="47.41226" lon="6.84024">
        <ele>554.994497</ele>
        <time>2021-04-29T13:55:50.158Z</time>
      </trkpt>
      <trkpt lat="47.41042" lon="6.84036">
        <ele>555.230552</ele>
        <time>2021-04-29T13:56:42.051Z</time>
      </trkpt>
      <trkpt lat="47.40987" lon="6.84046">
        <ele>554.720642</ele>
        <time>2021-04-29T13:56:54.954Z</time>
      </trkpt>
      <trkpt lat="47.40926" lon="6.84074">
        <ele>553.951575</ele>
        <time>2021-04-29T13:57:09.997Z</time>
      </trkpt>
      <trkpt lat="47.40922" lon="6.84075">
        <ele>553.909507</ele>
        <time>2021-04-29T13:57:10.615Z</time>
      </trkpt>
      <trkpt lat="47.40918" lon="6.84068">
        <ele>553.832273</ele>
        <time>2021-04-29T13:57:12.113Z</time>
      </trkpt>
      <trkpt lat="47.40912" lon="6.84065">
        <ele>553.754782</ele>
        <time>2021-04-29T13:57:13.727Z</time>
      </trkpt>
      <trkpt lat="47.40906" lon="6.84069">
        <ele>553.67795</ele>
        <time>2021-04-29T13:57:15.165Z</time>
      </trkpt>
      <trkpt lat="47.40902" lon="6.84077">
        <ele>553.600485</ele>
        <time>2021-04-29T13:57:16.689Z</time>
      </trkpt>
      <trkpt lat="47.40902" lon="6.84086">
        <ele>553.523825</ele>
        <time>2021-04-29T13:57:18.119Z</time>
      </trkpt>
      <trkpt lat="47.40898" lon="6.84089">
        <ele>553.471455</ele>
        <time>2021-04-29T13:57:18.867Z</time>
      </trkpt>
      <trkpt lat="47.40535" lon="6.84306">
        <ele>548.105056</ele>
        <time>2021-04-29T13:58:44.886Z</time>
      </trkpt>
      <trkpt lat="47.40405" lon="6.84382">
        <ele>548.572141</ele>
        <time>2021-04-29T13:59:27.253Z</time>
      </trkpt>
      <trkpt lat="47.40366" lon="6.84419">
        <ele>548.607813</ele>
        <time>2021-04-29T13:59:41.903Z</time>
      </trkpt>
      <trkpt lat="47.40305" lon="6.84479">
        <ele>547.702294</ele>
        <time>2021-04-29T14:00:00.164Z</time>
      </trkpt>
      <trkpt lat="47.40264" lon="6.84519">
        <ele>547.100261</ele>
        <time>2021-04-29T14:00:10.389Z</time>
      </trkpt>
      <trkpt lat="47.40224" lon="6.84559">
        <ele>546.500468</ele>
        <time>2021-04-29T14:00:20.346Z</time>
      </trkpt>
      <trkpt lat="47.40199" lon="6.84585">
        <ele>545.962343</ele>
        <time>2021-04-29T14:00:26.585Z</time>
      </trkpt>
      <trkpt lat="47.40161" lon="6.84635">
        <ele>545.03926</ele>
        <time>2021-04-29T14:00:37.088Z</time>
      </trkpt>
      <trkpt lat="47.40127" lon="6.84676">
        <ele>544.255867</ele>
        <time>2021-04-29T14:00:46.272Z</time>
      </trkpt>
      <trkpt lat="47.4008" lon="6.84723">
        <ele>543.256775</ele>
        <time>2021-04-29T14:00:58.911Z</time>
      </trkpt>
      <trkpt lat="47.40041" lon="6.84737">
        <ele>543.654672</ele>
        <time>2021-04-29T14:01:09.333Z</time>
      </trkpt>
      <trkpt lat="47.39767" lon="6.84758">
        <ele>547.27881</ele>
        <time>2021-04-29T14:02:43.836Z</time>
      </trkpt>
      <trkpt lat="47.39657" lon="6.8477">
        <ele>549.082649</ele>
        <time>2021-04-29T14:03:22.714Z</time>
      </trkpt>
      <trkpt lat="47.39552" lon="6.84776">
        <ele>550.795444</ele>
        <time>2021-04-29T14:03:58.783Z</time>
      </trkpt>
      <trkpt lat="47.39367" lon="6.84778">
        <ele>552.953143</ele>
        <time>2021-04-29T14:04:59.702Z</time>
      </trkpt>
      <trkpt lat="47.39352" lon="6.84778">
        <ele>552.962116</ele>
        <time>2021-04-29T14:05:04.477Z</time>
      </trkpt>
      <trkpt lat="47.39197" lon="6.84783">
        <ele>552.4872</ele>
        <time>2021-04-29T14:05:44.112Z</time>
      </trkpt>
      <trkpt lat="47.39172" lon="6.84785">
        <ele>552.210594</ele>
        <time>2021-04-29T14:05:49.484Z</time>
      </trkpt>
      <trkpt lat="47.39093" lon="6.8479">
        <ele>550.512722</ele>
        <time>2021-04-29T14:06:05.905Z</time>
      </trkpt>
      <trkpt lat="47.38994" lon="6.84796">
        <ele>548.632695</ele>
        <time>2021-04-29T14:06:25.627Z</time>
      </trkpt>
      <trkpt lat="47.38895" lon="6.84805">
        <ele>549.005862</ele>
        <time>2021-04-29T14:06:49.650Z</time>
      </trkpt>
      <trkpt lat="47.3889" lon="6.84806">
        <ele>549.024828</ele>
        <time>2021-04-29T14:06:51.416Z</time>
      </trkpt>
      <trkpt lat="47.38854" lon="6.84808">
        <ele>549.160767</ele>
        <time>2021-04-29T14:07:03.933Z</time>
      </trkpt>
      <trkpt lat="47.38824" lon="6.8481">
        <ele>549.275601</ele>
        <time>2021-04-29T14:07:15.770Z</time>
      </trkpt>
      <trkpt lat="47.38768" lon="6.84814">
        <ele>551.521651</ele>
        <time>2021-04-29T14:07:41.886Z</time>
      </trkpt>
      <trkpt lat="47.38706" lon="6.84819">
        <ele>553.965868</ele>
        <time>2021-04-29T14:08:12.944Z</time>
      </trkpt>
      <trkpt lat="47.387" lon="6.84821">
        <ele>554.237892</ele>
        <time>2021-04-29T14:08:16.699Z</time>
      </trkpt>
      <trkpt lat="47.38687" lon="6.84826">
        <ele>554.767662</ele>
        <time>2021-04-29T14:08:23.124Z</time>
      </trkpt>
      <trkpt lat="47.386" lon="6.84883">
        <ele>556.554783</ele>
        <time>2021-04-29T14:09:04.399Z</time>
      </trkpt>
      <trkpt lat="47.38582" lon="6.84896">
        <ele>556.593579</ele>
        <time>2021-04-29T14:09:10.433Z</time>
      </trkpt>
      <trkpt lat="47.38575" lon="6.84905">
        <ele>556.612495</ele>
        <time>2021-04-29T14:09:12.899Z</time>
      </trkpt>
      <trkpt lat="47.38542" lon="6.84959">
        <ele>556.711553</ele>
        <time>2021-04-29T14:09:24.275Z</time>
      </trkpt>
      <trkpt lat="47.38535" lon="6.84964">
        <ele>556.726136</ele>
        <time>2021-04-29T14:09:25.885Z</time>
      </trkpt>
      <trkpt lat="47.38499" lon="6.84981">
        <ele>556.802234</ele>
        <time>2021-04-29T14:09:33.676Z</time>
      </trkpt>
      <trkpt lat="47.38492" lon="6.84984">
        <ele>556.715618</ele>
        <time>2021-04-29T14:09:35.058Z</time>
      </trkpt>
      <trkpt lat="47.38466" lon="6.84999">
        <ele>556.11635</ele>
        <time>2021-04-29T14:09:40.763Z</time>
      </trkpt>
      <trkpt lat="47.38424" lon="6.85022">
        <ele>555.174524</ele>
        <time>2021-04-29T14:09:49.526Z</time>
      </trkpt>
      <trkpt lat="47.38415" lon="6.85031">
        <ele>554.936656</ele>
        <time>2021-04-29T14:09:51.996Z</time>
      </trkpt>
      <trkpt lat="47.38412" lon="6.85041">
        <ele>554.78513</ele>
        <time>2021-04-29T14:09:53.418Z</time>
      </trkpt>
      <trkpt lat="47.38428" lon="6.85091">
        <ele>553.989968</ele>
        <time>2021-04-29T14:10:01.149Z</time>
      </trkpt>
      <trkpt lat="47.38467" lon="6.85206">
        <ele>552.640185</ele>
        <time>2021-04-29T14:10:20.564Z</time>
      </trkpt>
      <trkpt lat="47.38474" lon="6.85214">
        <ele>552.566726</ele>
        <time>2021-04-29T14:10:23.355Z</time>
      </trkpt>
      <trkpt lat="47.38485" lon="6.85236">
        <ele>552.405565</ele>
        <time>2021-04-29T14:10:28.469Z</time>
      </trkpt>
      <trkpt lat="47.38492" lon="6.85252">
        <ele>552.29936</ele>
        <time>2021-04-29T14:10:32.501Z</time>
      </trkpt>
      <trkpt lat="47.38496" lon="6.85266">
        <ele>552.211106</ele>
        <time>2021-04-29T14:10:35.997Z</time>
      </trkpt>
      <trkpt lat="47.38489" lon="6.853">
        <ele>552.005971</ele>
        <time>2021-04-29T14:10:43.276Z</time>
      </trkpt>
      <trkpt lat="47.38516" lon="6.8531">
        <ele>551.773884</ele>
        <time>2021-04-29T14:10:55.149Z</time>
      </trkpt>
      <trkpt lat="47.38524" lon="6.85323">
        <ele>551.671778</ele>
        <time>2021-04-29T14:11:00.297Z</time>
      </trkpt>
      <trkpt lat="47.38524" lon="6.85339">
        <ele>551.581421</ele>
        <time>2021-04-29T14:11:04.488Z</time>
      </trkpt>
      <trkpt lat="47.38524" lon="6.85388">
        <ele>550.656904</ele>
        <time>2021-04-29T14:11:16.897Z</time>
      </trkpt>
      <trkpt lat="47.38527" lon="6.85407">
        <ele>550.081049</ele>
        <time>2021-04-29T14:11:21.452Z</time>
      </trkpt>
      <trkpt lat="47.38532" lon="6.85434">
        <ele>549.277495</ele>
        <time>2021-04-29T14:11:27.938Z</time>
      </trkpt>
      <trkpt lat="47.38535" lon="6.85436">
        <ele>549.132787</ele>
        <time>2021-04-29T14:11:29.085Z</time>
      </trkpt>
      <trkpt lat="47.38539" lon="6.85435">
        <ele>548.961941</ele>
        <time>2021-04-29T14:11:30.416Z</time>
      </trkpt>
      <trkpt lat="47.38545" lon="6.8541">
        <ele>548.205535</ele>
        <time>2021-04-29T14:11:36.267Z</time>
      </trkpt>
      <trkpt lat="47.38549" lon="6.85391">
        <ele>547.621912</ele>
        <time>2021-04-29T14:11:40.905Z</time>
      </trkpt>
      <trkpt lat="47.38592" lon="6.85267">
        <ele>543.666233</ele>
        <time>2021-04-29T14:12:11.487Z</time>
      </trkpt>
      <trkpt lat="47.38655" lon="6.85084">
        <ele>540.714486</ele>
        <time>2021-04-29T14:12:59.755Z</time>
      </trkpt>
      <trkpt lat="47.38592" lon="6.85267">
        <ele>544.141672</ele>
        <time>2021-04-29T14:14:26.177Z</time>
      </trkpt>
      <trkpt lat="47.38549" lon="6.85391">
        <ele>547.997681</ele>
        <time>2021-04-29T14:15:34.063Z</time>
      </trkpt>
      <trkpt lat="47.38545" lon="6.8541">
        <ele>548.52163</ele>
        <time>2021-04-29T14:15:42.821Z</time>
      </trkpt>
      <trkpt lat="47.38539" lon="6.85435">
        <ele>549.200696</ele>
        <time>2021-04-29T14:15:54.930Z</time>
      </trkpt>
      <trkpt lat="47.38535" lon="6.85436">
        <ele>549.354074</ele>
        <time>2021-04-29T14:15:57.774Z</time>
      </trkpt>
      <trkpt lat="47.38532" lon="6.85434">
        <ele>549.483985</ele>
        <time>2021-04-29T14:15:59.972Z</time>
      </trkpt>
      <trkpt lat="47.38527" lon="6.85407">
        <ele>550.205379</ele>
        <time>2021-04-29T14:16:11.943Z</time>
      </trkpt>
      <trkpt lat="47.38524" lon="6.85388">
        <ele>550.722353</ele>
        <time>2021-04-29T14:16:21.014Z</time>
      </trkpt>
      <trkpt lat="47.38524" lon="6.85339">
        <ele>552.013074</ele>
        <time>2021-04-29T14:16:42.472Z</time>
      </trkpt>
      <trkpt lat="47.38524" lon="6.85323">
        <ele>552.421918</ele>
        <time>2021-04-29T14:16:48.507Z</time>
      </trkpt>
      <trkpt lat="47.38516" lon="6.8531">
        <ele>552.883928</ele>
        <time>2021-04-29T14:16:56.141Z</time>
      </trkpt>
      <trkpt lat="47.38489" lon="6.853">
        <ele>553.934068</ele>
        <time>2021-04-29T14:17:10.797Z</time>
      </trkpt>
      <trkpt lat="47.38496" lon="6.85266">
        <ele>554.457191</ele>
        <time>2021-04-29T14:17:19.740Z</time>
      </trkpt>
      <trkpt lat="47.38507" lon="6.85216">
        <ele>554.880036</ele>
        <time>2021-04-29T14:17:32.651Z</time>
      </trkpt>
      <trkpt lat="47.3851" lon="6.85204">
        <ele>554.980796</ele>
        <time>2021-04-29T14:17:35.343Z</time>
      </trkpt>
      <trkpt lat="47.38511" lon="6.85198">
        <ele>555.029934</ele>
        <time>2021-04-29T14:17:36.914Z</time>
      </trkpt>
      <trkpt lat="47.38513" lon="6.85189">
        <ele>555.110776</ele>
        <time>2021-04-29T14:17:39.976Z</time>
      </trkpt>
      <trkpt lat="47.38538" lon="6.85001">
        <ele>556.056736</ele>
        <time>2021-04-29T14:18:20.006Z</time>
      </trkpt>
      <trkpt lat="47.38536" lon="6.84975">
        <ele>555.722624</ele>
        <time>2021-04-29T14:18:24.229Z</time>
      </trkpt>
      <trkpt lat="47.38535" lon="6.84964">
        <ele>555.57836</ele>
        <time>2021-04-29T14:18:26.278Z</time>
      </trkpt>
      <trkpt lat="47.38499" lon="6.84981">
        <ele>554.866359</ele>
        <time>2021-04-29T14:18:34.057Z</time>
      </trkpt>
      <trkpt lat="47.38492" lon="6.84984">
        <ele>554.731139</ele>
        <time>2021-04-29T14:18:35.398Z</time>
      </trkpt>
      <trkpt lat="47.38466" lon="6.84999">
        <ele>554.204378</ele>
        <time>2021-04-29T14:18:41.246Z</time>
      </trkpt>
      <trkpt lat="47.38424" lon="6.85022">
        <ele>553.376506</ele>
        <time>2021-04-29T14:18:50.007Z</time>
      </trkpt>
      <trkpt lat="47.38415" lon="6.85019">
        <ele>553.199296</ele>
        <time>2021-04-29T14:18:51.835Z</time>
      </trkpt>
      <trkpt lat="47.38407" lon="6.85013">
        <ele>553.02727</ele>
        <time>2021-04-29T14:18:53.724Z</time>
      </trkpt>
      <trkpt lat="47.38398" lon="6.85001">
        <ele>552.784792</ele>
        <time>2021-04-29T14:18:56.192Z</time>
      </trkpt>
      <trkpt lat="47.38389" lon="6.84975">
        <ele>552.365581</ele>
        <time>2021-04-29T14:19:00.062Z</time>
      </trkpt>
      <trkpt lat="47.38371" lon="6.8492">
        <ele>551.49974</ele>
        <time>2021-04-29T14:19:08.261Z</time>
      </trkpt>
      <trkpt lat="47.38361" lon="6.84873">
        <ele>550.812187</ele>
        <time>2021-04-29T14:19:15.031Z</time>
      </trkpt>
      <trkpt lat="47.38345" lon="6.84795">
        <ele>549.658071</ele>
        <time>2021-04-29T14:19:27.558Z</time>
      </trkpt>
      <trkpt lat="47.38326" lon="6.84598">
        <ele>547.8738</ele>
        <time>2021-04-29T14:20:00.518Z</time>
      </trkpt>
      <trkpt lat="47.38317" lon="6.84418">
        <ele>545.436564</ele>
        <time>2021-04-29T14:20:26.073Z</time>
      </trkpt>
      <trkpt lat="47.38301" lon="6.84342">
        <ele>543.918061</ele>
        <time>2021-04-29T14:20:36.714Z</time>
      </trkpt>
      <trkpt lat="47.38279" lon="6.8429">
        <ele>542.77401</ele>
        <time>2021-04-29T14:20:44.680Z</time>
      </trkpt>
      <trkpt lat="47.38247" lon="6.84211">
        <ele>541.428049</ele>
        <time>2021-04-29T14:20:57.041Z</time>
      </trkpt>
      <trkpt lat="47.38224" lon="6.84197">
        <ele>540.992571</ele>
        <time>2021-04-29T14:21:05.976Z</time>
      </trkpt>
      <trkpt lat="47.38162" lon="6.84125">
        <ele>539.612062</ele>
        <time>2021-04-29T14:21:36.160Z</time>
      </trkpt>
      <trkpt lat="47.38116" lon="6.84047">
        <ele>539.708348</ele>
        <time>2021-04-29T14:22:06.996Z</time>
      </trkpt>
      <trkpt lat="47.38085" lon="6.84045">
        <ele>540.456189</ele>
        <time>2021-04-29T14:22:23.211Z</time>
      </trkpt>
      <trkpt lat="47.38043" lon="6.84072">
        <ele>541.558366</ele>
        <time>2021-04-29T14:22:49.550Z</time>
      </trkpt>
      <trkpt lat="47.38003" lon="6.84077">
        <ele>542.50104</ele>
        <time>2021-04-29T14:23:14.306Z</time>
      </trkpt>
      <trkpt lat="47.37979" lon="6.84063">
        <ele>543.122906</ele>
        <time>2021-04-29T14:23:31.574Z</time>
      </trkpt>
      <trkpt lat="47.37947" lon="6.84059">
        <ele>544.292085</ele>
        <time>2021-04-29T14:23:52.334Z</time>
      </trkpt>
      <trkpt lat="47.37834" lon="6.84072">
        <ele>548.742992</ele>
        <time>2021-04-29T14:25:05.262Z</time>
      </trkpt>
      <trkpt lat="47.37789" lon="6.84082">
        <ele>550.478717</ele>
        <time>2021-04-29T14:25:25.753Z</time>
      </trkpt>
      <trkpt lat="47.37751" lon="6.84086">
        <ele>551.528105</ele>
        <time>2021-04-29T14:25:41.905Z</time>
      </trkpt>
      <trkpt lat="47.37699" lon="6.84075">
        <ele>552.984163</ele>
        <time>2021-04-29T14:26:03.451Z</time>
      </trkpt>
      <trkpt lat="47.37642" lon="6.84066">
        <ele>554.553081</ele>
        <time>2021-04-29T14:26:24.797Z</time>
      </trkpt>
      <trkpt lat="47.37621" lon="6.84054">
        <ele>555.174496</ele>
        <time>2021-04-29T14:26:33.580Z</time>
      </trkpt>
      <trkpt lat="47.37594" lon="6.84028">
        <ele>556.375972</ele>
        <time>2021-04-29T14:26:46.994Z</time>
      </trkpt>
      <trkpt lat="47.37579" lon="6.84007">
        <ele>557.163737</ele>
        <time>2021-04-29T14:26:57.046Z</time>
      </trkpt>
      <trkpt lat="47.37555" lon="6.83979">
        <ele>558.348115</ele>
        <time>2021-04-29T14:27:11.038Z</time>
      </trkpt>
      <trkpt lat="47.37546" lon="6.83991">
        <ele>558.814678</ele>
        <time>2021-04-29T14:27:16.295Z</time>
      </trkpt>
      <trkpt lat="47.37534" lon="6.84001">
        <ele>559.344389</ele>
        <time>2021-04-29T14:27:22.195Z</time>
      </trkpt>
      <trkpt lat="47.37531" lon="6.83985">
        <ele>559.75938</ele>
        <time>2021-04-29T14:27:27.585Z</time>
      </trkpt>
      <trkpt lat="47.37532" lon="6.83967">
        <ele>560.227397</ele>
        <time>2021-04-29T14:27:32.978Z</time>
      </trkpt>
      <trkpt lat="47.37532" lon="6.83936">
        <ele>561.046907</ele>
        <time>2021-04-29T14:27:44.197Z</time>
      </trkpt>
      <trkpt lat="47.37532" lon="6.83897">
        <ele>562.065865</ele>
        <time>2021-04-29T14:27:57.456Z</time>
      </trkpt>
      <trkpt lat="47.37529" lon="6.83874">
        <ele>562.728247</ele>
        <time>2021-04-29T14:28:05.590Z</time>
      </trkpt>
      <trkpt lat="47.37502" lon="6.83765">
        <ele>566.028487</ele>
        <time>2021-04-29T14:28:42.243Z</time>
      </trkpt>
      <trkpt lat="47.37499" lon="6.83747">
        <ele>566.558364</ele>
        <time>2021-04-29T14:28:48.630Z</time>
      </trkpt>
      <trkpt lat="47.37487" lon="6.83714">
        <ele>567.623877</ele>
        <time>2021-04-29T14:29:00.633Z</time>
      </trkpt>
      <trkpt lat="47.37477" lon="6.83691">
        <ele>568.415984</ele>
        <time>2021-04-29T14:29:09.518Z</time>
      </trkpt>
      <trkpt lat="47.37415" lon="6.83598">
        <ele>572.108942</ele>
        <time>2021-04-29T14:29:47.780Z</time>
      </trkpt>
      <trkpt lat="47.37404" lon="6.83571">
        <ele>573.00016</ele>
        <time>2021-04-29T14:29:57.246Z</time>
      </trkpt>
      <trkpt lat="47.37399" lon="6.83551">
        <ele>573.607516</ele>
        <time>2021-04-29T14:30:04.815Z</time>
      </trkpt>
      <trkpt lat="47.37389" lon="6.83517">
        <ele>574.641794</ele>
        <time>2021-04-29T14:30:14.863Z</time>
      </trkpt>
      <trkpt lat="47.37366" lon="6.83479">
        <ele>576.098436</ele>
        <time>2021-04-29T14:30:30.962Z</time>
      </trkpt>
      <trkpt lat="47.37354" lon="6.83459">
        <ele>576.841663</ele>
        <time>2021-04-29T14:30:40.339Z</time>
      </trkpt>
      <trkpt lat="47.37351" lon="6.83449">
        <ele>577.171652</ele>
        <time>2021-04-29T14:30:44.013Z</time>
      </trkpt>
      <trkpt lat="47.3735" lon="6.83437">
        <ele>577.655081</ele>
        <time>2021-04-29T14:30:47.549Z</time>
      </trkpt>
      <trkpt lat="47.37349" lon="6.83431">
        <ele>577.917997</ele>
        <time>2021-04-29T14:30:49.419Z</time>
      </trkpt>
      <trkpt lat="47.37349" lon="6.83419">
        <ele>578.480913</ele>
        <time>2021-04-29T14:30:54.702Z</time>
      </trkpt>
      <trkpt lat="47.37363" lon="6.83258">
        <ele>585.985062</ele>
        <time>2021-04-29T14:31:58.520Z</time>
      </trkpt>
      <trkpt lat="47.37358" lon="6.83208">
        <ele>588.282644</ele>
        <time>2021-04-29T14:32:21.184Z</time>
      </trkpt>
      <trkpt lat="47.37349" lon="6.83184">
        <ele>589.551216</ele>
        <time>2021-04-29T14:32:33.353Z</time>
      </trkpt>
      <trkpt lat="47.37285" lon="6.8308">
        <ele>598.411098</ele>
        <time>2021-04-29T14:33:39.840Z</time>
      </trkpt>
      <trkpt lat="47.37242" lon="6.82965">
        <ele>606.700123</ele>
        <time>2021-04-29T14:34:46.255Z</time>
      </trkpt>
      <trkpt lat="47.37188" lon="6.82875">
        <ele>614.64129</ele>
        <time>2021-04-29T14:35:47.244Z</time>
      </trkpt>
      <trkpt lat="47.37159" lon="6.82781">
        <ele>621.427736</ele>
        <time>2021-04-29T14:36:38.435Z</time>
      </trkpt>
      <trkpt lat="47.37124" lon="6.82712">
        <ele>626.786503</ele>
        <time>2021-04-29T14:37:19.926Z</time>
      </trkpt>
      <trkpt lat="47.36988" lon="6.82391">
        <ele>649.553418</ele>
        <time>2021-04-29T14:40:17.487Z</time>
      </trkpt>
      <trkpt lat="47.36924" lon="6.823">
        <ele>657.297275</ele>
        <time>2021-04-29T14:41:18.101Z</time>
      </trkpt>
      <trkpt lat="47.36914" lon="6.82266">
        <ele>659.396577</ele>
        <time>2021-04-29T14:41:34.880Z</time>
      </trkpt>
      <trkpt lat="47.36912" lon="6.82251">
        <ele>660.317713</ele>
        <time>2021-04-29T14:41:42.209Z</time>
      </trkpt>
      <trkpt lat="47.36921" lon="6.82203">
        <ele>663.151702</ele>
        <time>2021-04-29T14:42:04.841Z</time>
      </trkpt>
      <trkpt lat="47.36837" lon="6.81845">
        <ele>684.607237</ele>
        <time>2021-04-29T14:44:57.199Z</time>
      </trkpt>
      <trkpt lat="47.36836" lon="6.81824">
        <ele>685.775281</ele>
        <time>2021-04-29T14:45:06.376Z</time>
      </trkpt>
      <trkpt lat="47.36855" lon="6.81765">
        <ele>689.078014</ele>
        <time>2021-04-29T14:45:34.607Z</time>
      </trkpt>
      <trkpt lat="47.3685" lon="6.81686">
        <ele>693.143495</ele>
        <time>2021-04-29T14:46:08.790Z</time>
      </trkpt>
      <trkpt lat="47.36721" lon="6.81133">
        <ele>722.640827</ele>
        <time>2021-04-29T14:50:12.038Z</time>
      </trkpt>
      <trkpt lat="47.36694" lon="6.80983">
        <ele>731.908796</ele>
        <time>2021-04-29T14:51:25.624Z</time>
      </trkpt>
      <trkpt lat="47.36693" lon="6.80979">
        <ele>732.174546</ele>
        <time>2021-04-29T14:51:28.948Z</time>
      </trkpt>
      <trkpt lat="47.36689" lon="6.80945">
        <ele>734.368927</ele>
        <time>2021-04-29T14:51:46.688Z</time>
      </trkpt>
      <trkpt lat="47.36687" lon="6.80905">
        <ele>737.00164</ele>
        <time>2021-04-29T14:52:07.014Z</time>
      </trkpt>
      <trkpt lat="47.36679" lon="6.80879">
        <ele>738.822721</ele>
        <time>2021-04-29T14:52:18.416Z</time>
      </trkpt>
      <trkpt lat="47.3667" lon="6.80874">
        <ele>739.757057</ele>
        <time>2021-04-29T14:52:27.812Z</time>
      </trkpt>
      <trkpt lat="47.3666" lon="6.80884">
        <ele>740.893572</ele>
        <time>2021-04-29T14:52:37.042Z</time>
      </trkpt>
      <trkpt lat="47.36652" lon="6.80924">
        <ele>743.557947</ele>
        <time>2021-04-29T14:52:57.750Z</time>
      </trkpt>
      <trkpt lat="47.36634" lon="6.80972">
        <ele>746.57218</ele>
        <time>2021-04-29T14:53:25.531Z</time>
      </trkpt>
      <trkpt lat="47.36591" lon="6.81178">
        <ele>758.460078</ele>
        <time>2021-04-29T14:54:58.994Z</time>
      </trkpt>
      <trkpt lat="47.3657" lon="6.81251">
        <ele>761.951105</ele>
        <time>2021-04-29T14:55:29.967Z</time>
      </trkpt>
      <trkpt lat="47.36499" lon="6.81461">
        <ele>772.309857</ele>
        <time>2021-04-29T14:57:01.132Z</time>
      </trkpt>
      <trkpt lat="47.3645" lon="6.81586">
        <ele>778.531873</ele>
        <time>2021-04-29T14:57:55.778Z</time>
      </trkpt>
      <trkpt lat="47.36368" lon="6.81822">
        <ele>790.600585</ele>
        <time>2021-04-29T14:59:43.268Z</time>
      </trkpt>
      <trkpt lat="47.36357" lon="6.81843">
        <ele>791.836077</ele>
        <time>2021-04-29T14:59:54.385Z</time>
      </trkpt>
      <trkpt lat="47.36345" lon="6.81867">
        <ele>793.201189</ele>
        <time>2021-04-29T15:00:06.118Z</time>
      </trkpt>
      <trkpt lat="47.36327" lon="6.81908">
        <ele>795.13781</ele>
        <time>2021-04-29T15:00:25.360Z</time>
      </trkpt>
      <trkpt lat="47.36304" lon="6.82042">
        <ele>800.506621</ele>
        <time>2021-04-29T15:01:20.934Z</time>
      </trkpt>
      <trkpt lat="47.36288" lon="6.82103">
        <ele>803.043253</ele>
        <time>2021-04-29T15:01:42.568Z</time>
      </trkpt>
      <trkpt lat="47.36261" lon="6.82186">
        <ele>803.629772</ele>
        <time>2021-04-29T15:02:08.501Z</time>
      </trkpt>
      <trkpt lat="47.3625" lon="6.82194">
        <ele>803.588965</ele>
        <time>2021-04-29T15:02:11.872Z</time>
      </trkpt>
      <trkpt lat="47.36246" lon="6.82191">
        <ele>803.572231</ele>
        <time>2021-04-29T15:02:15.259Z</time>
      </trkpt>
      <trkpt lat="47.36243" lon="6.82184">
        <ele>803.553043</ele>
        <time>2021-04-29T15:02:16.502Z</time>
      </trkpt>
      <trkpt lat="47.36241" lon="6.82169">
        <ele>803.517197</ele>
        <time>2021-04-29T15:02:18.593Z</time>
      </trkpt>
      <trkpt lat="47.36239" lon="6.82147">
        <ele>803.464596</ele>
        <time>2021-04-29T15:02:21.940Z</time>
      </trkpt>
      <trkpt lat="47.36233" lon="6.82091">
        <ele>803.332872</ele>
        <time>2021-04-29T15:02:30.379Z</time>
      </trkpt>
      <trkpt lat="47.36219" lon="6.82033">
        <ele>803.189091</ele>
        <time>2021-04-29T15:02:38.730Z</time>
      </trkpt>
      <trkpt lat="47.36212" lon="6.82027">
        <ele>802.970171</ele>
        <time>2021-04-29T15:02:40.164Z</time>
      </trkpt>
      <trkpt lat="47.36204" lon="6.82023">
        <ele>802.555695</ele>
        <time>2021-04-29T15:02:41.761Z</time>
      </trkpt>
      <trkpt lat="47.36189" lon="6.82016">
        <ele>801.859463</ele>
        <time>2021-04-29T15:02:45.059Z</time>
      </trkpt>
      <trkpt lat="47.36181" lon="6.8201">
        <ele>801.439967</ele>
        <time>2021-04-29T15:02:46.686Z</time>
      </trkpt>
      <trkpt lat="47.36172" lon="6.81998">
        <ele>800.895668</ele>
        <time>2021-04-29T15:02:48.758Z</time>
      </trkpt>
      <trkpt lat="47.36124" lon="6.81931">
        <ele>797.8802</ele>
        <time>2021-04-29T15:03:00.454Z</time>
      </trkpt>
      <trkpt lat="47.36031" lon="6.8176">
        <ele>792.970415</ele>
        <time>2021-04-29T15:03:28.778Z</time>
      </trkpt>
      <trkpt lat="47.36025" lon="6.81745">
        <ele>792.680434</ele>
        <time>2021-04-29T15:03:31.560Z</time>
      </trkpt>
      <trkpt lat="47.36001" lon="6.81756">
        <ele>792.088282</ele>
        <time>2021-04-29T15:03:37.496Z</time>
      </trkpt>
      <trkpt lat="47.35904" lon="6.81793">
        <ele>790.173291</ele>
        <time>2021-04-29T15:03:59.897Z</time>
      </trkpt>
      <trkpt lat="47.35871" lon="6.81809">
        <ele>789.741241</ele>
        <time>2021-04-29T15:04:07.861Z</time>
      </trkpt>
      <trkpt lat="47.35846" lon="6.81832">
        <ele>789.369964</ele>
        <time>2021-04-29T15:04:14.590Z</time>
      </trkpt>
      <trkpt lat="47.35823" lon="6.81867">
        <ele>788.956953</ele>
        <time>2021-04-29T15:04:22.025Z</time>
      </trkpt>
      <trkpt lat="47.35808" lon="6.82028">
        <ele>787.876092</ele>
        <time>2021-04-29T15:04:46.583Z</time>
      </trkpt>
      <trkpt lat="47.35785" lon="6.82113">
        <ele>787.36609</ele>
        <time>2021-04-29T15:05:01.906Z</time>
      </trkpt>
      <trkpt lat="47.35684" lon="6.82416">
        <ele>785.668504</ele>
        <time>2021-04-29T15:05:58.785Z</time>
      </trkpt>
      <trkpt lat="47.35666" lon="6.82521">
        <ele>783.692431</ele>
        <time>2021-04-29T15:06:13.901Z</time>
      </trkpt>
      <trkpt lat="47.35644" lon="6.82574">
        <ele>782.554421</ele>
        <time>2021-04-29T15:06:22.297Z</time>
      </trkpt>
      <trkpt lat="47.35634" lon="6.82626">
        <ele>781.577476</ele>
        <time>2021-04-29T15:06:29.382Z</time>
      </trkpt>
      <trkpt lat="47.35609" lon="6.82799">
        <ele>777.738166</ele>
        <time>2021-04-29T15:06:52.226Z</time>
      </trkpt>
      <trkpt lat="47.35581" lon="6.8296">
        <ele>773.875511</ele>
        <time>2021-04-29T15:07:14.879Z</time>
      </trkpt>
      <trkpt lat="47.35564" lon="6.8306">
        <ele>771.236972</ele>
        <time>2021-04-29T15:07:28.472Z</time>
      </trkpt>
      <trkpt lat="47.35534" lon="6.83109">
        <ele>769.545866</ele>
        <time>2021-04-29T15:07:36.939Z</time>
      </trkpt>
      <trkpt lat="47.35527" lon="6.83112">
        <ele>769.266745</ele>
        <time>2021-04-29T15:07:38.663Z</time>
      </trkpt>
      <trkpt lat="47.35508" lon="6.83113">
        <ele>768.552308</ele>
        <time>2021-04-29T15:07:41.995Z</time>
      </trkpt>
      <trkpt lat="47.35446" lon="6.83021">
        <ele>763.087417</ele>
        <time>2021-04-29T15:07:57.746Z</time>
      </trkpt>
      <trkpt lat="47.35425" lon="6.83009">
        <ele>761.59004</ele>
        <time>2021-04-29T15:08:01.534Z</time>
      </trkpt>
      <trkpt lat="47.35316" lon="6.82986">
        <ele>754.155035</ele>
        <time>2021-04-29T15:08:20.215Z</time>
      </trkpt>
      <trkpt lat="47.35269" lon="6.82986">
        <ele>750.969253</ele>
        <time>2021-04-29T15:08:28.299Z</time>
      </trkpt>
      <trkpt lat="47.35259" lon="6.82979">
        <ele>750.207388</ele>
        <time>2021-04-29T15:08:30.279Z</time>
      </trkpt>
      <trkpt lat="47.35255" lon="6.82972">
        <ele>749.752553</ele>
        <time>2021-04-29T15:08:31.332Z</time>
      </trkpt>
      <trkpt lat="47.35253" lon="6.8296">
        <ele>749.194336</ele>
        <time>2021-04-29T15:08:32.888Z</time>
      </trkpt>
      <trkpt lat="47.35264" lon="6.82943">
        <ele>748.134576</ele>
        <time>2021-04-29T15:08:35.685Z</time>
      </trkpt>
      <trkpt lat="47.35338" lon="6.82944">
        <ele>743.086561</ele>
        <time>2021-04-29T15:08:48.641Z</time>
      </trkpt>
      <trkpt lat="47.35351" lon="6.82941">
        <ele>742.16948</ele>
        <time>2021-04-29T15:08:50.850Z</time>
      </trkpt>
      <trkpt lat="47.35359" lon="6.82931">
        <ele>741.424779</ele>
        <time>2021-04-29T15:08:52.848Z</time>
      </trkpt>
      <trkpt lat="47.35355" lon="6.8291">
        <ele>740.377788</ele>
        <time>2021-04-29T15:08:55.581Z</time>
      </trkpt>
      <trkpt lat="47.35336" lon="6.82899">
        <ele>738.973254</ele>
        <time>2021-04-29T15:08:59.042Z</time>
      </trkpt>
      <trkpt lat="47.35247" lon="6.82869">
        <ele>732.641124</ele>
        <time>2021-04-29T15:09:14.917Z</time>
      </trkpt>
      <trkpt lat="47.35205" lon="6.82878">
        <ele>729.086126</ele>
        <time>2021-04-29T15:09:22.109Z</time>
      </trkpt>
      <trkpt lat="47.35142" lon="6.82904">
        <ele>722.941811</ele>
        <time>2021-04-29T15:09:32.762Z</time>
      </trkpt>
      <trkpt lat="47.3509" lon="6.8291">
        <ele>718.041442</ele>
        <time>2021-04-29T15:09:41.193Z</time>
      </trkpt>
      <trkpt lat="47.35065" lon="6.82907">
        <ele>715.655765</ele>
        <time>2021-04-29T15:09:45.335Z</time>
      </trkpt>
      <trkpt lat="47.35049" lon="6.82901">
        <ele>714.140989</ele>
        <time>2021-04-29T15:09:47.992Z</time>
      </trkpt>
      <trkpt lat="47.35033" lon="6.82893">
        <ele>712.721164</ele>
        <time>2021-04-29T15:09:50.879Z</time>
      </trkpt>
      <trkpt lat="47.34965" lon="6.82854">
        <ele>706.821427</ele>
        <time>2021-04-29T15:10:02.788Z</time>
      </trkpt>
      <trkpt lat="47.34805" lon="6.82761">
        <ele>695.250681</ele>
        <time>2021-04-29T15:10:32.480Z</time>
      </trkpt>
      <trkpt lat="47.34754" lon="6.82735">
        <ele>692.450285</ele>
        <time>2021-04-29T15:10:42.593Z</time>
      </trkpt>
      <trkpt lat="47.34699" lon="6.82705">
        <ele>689.693779</ele>
        <time>2021-04-29T15:10:53.965Z</time>
      </trkpt>
      <trkpt lat="47.34675" lon="6.82708">
        <ele>688.847546</ele>
        <time>2021-04-29T15:10:58.544Z</time>
      </trkpt>
      <trkpt lat="47.3467" lon="6.82716">
        <ele>688.578859</ele>
        <time>2021-04-29T15:11:00.000Z</time>
      </trkpt>
      <trkpt lat="47.34665" lon="6.82741">
        <ele>687.961084</ele>
        <time>2021-04-29T15:11:03.599Z</time>
      </trkpt>
      <trkpt lat="47.34663" lon="6.8277">
        <ele>687.262025</ele>
        <time>2021-04-29T15:11:07.432Z</time>
      </trkpt>
      <trkpt lat="47.34646" lon="6.82763">
        <ele>686.635574</ele>
        <time>2021-04-29T15:11:11.108Z</time>
      </trkpt>
      <trkpt lat="47.34632" lon="6.82746">
        <ele>685.997412</ele>
        <time>2021-04-29T15:11:14.536Z</time>
      </trkpt>
      <trkpt lat="47.34613" lon="6.82723">
        <ele>685.13718</ele>
        <time>2021-04-29T15:11:19.471Z</time>
      </trkpt>
      <trkpt lat="47.34586" lon="6.82689">
        <ele>683.854968</ele>
        <time>2021-04-29T15:11:26.246Z</time>
      </trkpt>
      <trkpt lat="47.34584" lon="6.82687">
        <ele>683.773116</ele>
        <time>2021-04-29T15:11:26.561Z</time>
      </trkpt>
      <trkpt lat="47.34527" lon="6.82627">
        <ele>680.885854</ele>
        <time>2021-04-29T15:11:39.630Z</time>
      </trkpt>
      <trkpt lat="47.34487" lon="6.82603">
        <ele>679.074106</ele>
        <time>2021-04-29T15:11:47.621Z</time>
      </trkpt>
      <trkpt lat="47.34425" lon="6.82567">
        <ele>676.41094</ele>
        <time>2021-04-29T15:12:00.128Z</time>
      </trkpt>
      <trkpt lat="47.34394" lon="6.82546">
        <ele>675.529465</ele>
        <time>2021-04-29T15:12:06.755Z</time>
      </trkpt>
      <trkpt lat="47.34346" lon="6.82494">
        <ele>674.002964</ele>
        <time>2021-04-29T15:12:18.510Z</time>
      </trkpt>
      <trkpt lat="47.3432" lon="6.82475">
        <ele>673.264571</ele>
        <time>2021-04-29T15:12:24.460Z</time>
      </trkpt>
      <trkpt lat="47.34294" lon="6.82454">
        <ele>672.497848</ele>
        <time>2021-04-29T15:12:30.848Z</time>
      </trkpt>
      <trkpt lat="47.34182" lon="6.82271">
        <ele>670.535136</ele>
        <time>2021-04-29T15:13:09.891Z</time>
      </trkpt>
      <trkpt lat="47.33997" lon="6.82073">
        <ele>667.80246</ele>
        <time>2021-04-29T15:14:03.825Z</time>
      </trkpt>
      <trkpt lat="47.3395" lon="6.82039">
        <ele>665.847854</ele>
        <time>2021-04-29T15:14:14.534Z</time>
      </trkpt>
      <trkpt lat="47.33942" lon="6.82034">
        <ele>665.546985</ele>
        <time>2021-04-29T15:14:17.086Z</time>
      </trkpt>
      <trkpt lat="47.33904" lon="6.81997">
        <ele>663.821107</ele>
        <time>2021-04-29T15:14:33.077Z</time>
      </trkpt>
      <trkpt lat="47.33857" lon="6.81929">
        <ele>661.207914</ele>
        <time>2021-04-29T15:14:54.602Z</time>
      </trkpt>
      <trkpt lat="47.33726" lon="6.81827">
        <ele>651.602578</ele>
        <time>2021-04-29T15:15:41.338Z</time>
      </trkpt>
      <trkpt lat="47.33653" lon="6.8176">
        <ele>645.232928</ele>
        <time>2021-04-29T15:16:07.990Z</time>
      </trkpt>
      <trkpt lat="47.33587" lon="6.81693">
        <ele>639.111344</ele>
        <time>2021-04-29T15:16:32.476Z</time>
      </trkpt>
      <trkpt lat="47.33551" lon="6.81688">
        <ele>636.333614</ele>
        <time>2021-04-29T15:16:43.619Z</time>
      </trkpt>
      <trkpt lat="47.33532" lon="6.81697">
        <ele>634.796568</ele>
        <time>2021-04-29T15:16:49.765Z</time>
      </trkpt>
      <trkpt lat="47.33472" lon="6.81771">
        <ele>628.748291</ele>
        <time>2021-04-29T15:17:13.943Z</time>
      </trkpt>
      <trkpt lat="47.33356" lon="6.81779">
        <ele>618.864251</ele>
        <time>2021-04-29T15:17:49.228Z</time>
      </trkpt>
      <trkpt lat="47.33316" lon="6.81766">
        <ele>614.368877</ele>
        <time>2021-04-29T15:18:01.502Z</time>
      </trkpt>
      <trkpt lat="47.33262" lon="6.81768">
        <ele>608.588307</ele>
        <time>2021-04-29T15:18:16.914Z</time>
      </trkpt>
      <trkpt lat="47.33178" lon="6.81745">
        <ele>598.196648</ele>
        <time>2021-04-29T15:18:41.210Z</time>
      </trkpt>
      <trkpt lat="47.33112" lon="6.81693">
        <ele>587.480823</ele>
        <time>2021-04-29T15:19:02.172Z</time>
      </trkpt>
      <trkpt lat="47.33089" lon="6.81695">
        <ele>584.244042</ele>
        <time>2021-04-29T15:19:08.492Z</time>
      </trkpt>
      <trkpt lat="47.33064" lon="6.81738">
        <ele>578.718079</ele>
        <time>2021-04-29T15:19:19.345Z</time>
      </trkpt>
      <trkpt lat="47.3304" lon="6.81742">
        <ele>575.210743</ele>
        <time>2021-04-29T15:19:26.019Z</time>
      </trkpt>
      <trkpt lat="47.33041" lon="6.81717">
        <ele>572.756171</ele>
        <time>2021-04-29T15:19:30.636Z</time>
      </trkpt>
      <trkpt lat="47.33033" lon="6.81651">
        <ele>565.933656</ele>
        <time>2021-04-29T15:19:43.456Z</time>
      </trkpt>
      <trkpt lat="47.3306" lon="6.81665">
        <ele>561.758368</ele>
        <time>2021-04-29T15:19:51.170Z</time>
      </trkpt>
      <trkpt lat="47.33116" lon="6.81605">
        <ele>551.484104</ele>
        <time>2021-04-29T15:20:10.245Z</time>
      </trkpt>
      <trkpt lat="47.33148" lon="6.81597">
        <ele>545.885397</ele>
        <time>2021-04-29T15:20:19.586Z</time>
      </trkpt>
      <trkpt lat="47.33152" lon="6.81582">
        <ele>544.029535</ele>
        <time>2021-04-29T15:20:22.579Z</time>
      </trkpt>
      <trkpt lat="47.33131" lon="6.81542">
        <ele>538.153157</ele>
        <time>2021-04-29T15:20:31.782Z</time>
      </trkpt>
      <trkpt lat="47.33122" lon="6.81547">
        <ele>536.419399</ele>
        <time>2021-04-29T15:20:34.447Z</time>
      </trkpt>
      <trkpt lat="47.33024" lon="6.8153">
        <ele>519.186507</ele>
        <time>2021-04-29T15:21:01.131Z</time>
      </trkpt>
      <trkpt lat="47.33014" lon="6.81527">
        <ele>517.31336</ele>
        <time>2021-04-29T15:21:03.911Z</time>
      </trkpt>
      <trkpt lat="47.33005" lon="6.81524">
        <ele>515.611334</ele>
        <time>2021-04-29T15:21:06.362Z</time>
      </trkpt>
      <trkpt lat="47.32972" lon="6.81515">
        <ele>509.345843</ele>
        <time>2021-04-29T15:21:15.524Z</time>
      </trkpt>
      <trkpt lat="47.32951" lon="6.81511">
        <ele>505.432878</ele>
        <time>2021-04-29T15:21:21.392Z</time>
      </trkpt>
      <trkpt lat="47.3294" lon="6.81512">
        <ele>503.322138</ele>
        <time>2021-04-29T15:21:24.478Z</time>
      </trkpt>
      <trkpt lat="47.32924" lon="6.81526">
        <ele>499.897657</ele>
        <time>2021-04-29T15:21:29.452Z</time>
      </trkpt>
      <trkpt lat="47.32908" lon="6.81541">
        <ele>496.346892</ele>
        <time>2021-04-29T15:21:34.599Z</time>
      </trkpt>
      <trkpt lat="47.32902" lon="6.81545">
        <ele>495.205844</ele>
        <time>2021-04-29T15:21:35.590Z</time>
      </trkpt>
      <trkpt lat="47.32896" lon="6.81547">
        <ele>494.069518</ele>
        <time>2021-04-29T15:21:36.560Z</time>
      </trkpt>
      <trkpt lat="47.32878" lon="6.81539">
        <ele>490.622882</ele>
        <time>2021-04-29T15:21:39.556Z</time>
      </trkpt>
      <trkpt lat="47.32852" lon="6.81506">
        <ele>484.255732</ele>
        <time>2021-04-29T15:21:45.150Z</time>
      </trkpt>
      <trkpt lat="47.32848" lon="6.815">
        <ele>483.29164</ele>
        <time>2021-04-29T15:21:46.056Z</time>
      </trkpt>
      <trkpt lat="47.32841" lon="6.81491">
        <ele>481.84162</ele>
        <time>2021-04-29T15:21:47.458Z</time>
      </trkpt>
      <trkpt lat="47.32826" lon="6.81477">
        <ele>478.771192</ele>
        <time>2021-04-29T15:21:50.363Z</time>
      </trkpt>
      <trkpt lat="47.32823" lon="6.81475">
        <ele>478.262357</ele>
        <time>2021-04-29T15:21:50.845Z</time>
      </trkpt>
      <trkpt lat="47.32811" lon="6.8147">
        <ele>476.074354</ele>
        <time>2021-04-29T15:21:52.946Z</time>
      </trkpt>
      <trkpt lat="47.32785" lon="6.81461">
        <ele>471.623</ele>
        <time>2021-04-29T15:21:57.188Z</time>
      </trkpt>
      <trkpt lat="47.32725" lon="6.81432">
        <ele>460.988534</ele>
        <time>2021-04-29T15:22:07.409Z</time>
      </trkpt>
      <trkpt lat="47.32694" lon="6.81444">
        <ele>455.566331</ele>
        <time>2021-04-29T15:22:12.598Z</time>
      </trkpt>
      <trkpt lat="47.32683" lon="6.81448">
        <ele>453.872366</ele>
        <time>2021-04-29T15:22:14.499Z</time>
      </trkpt>
      <trkpt lat="47.32671" lon="6.81453">
        <ele>452.293557</ele>
        <time>2021-04-29T15:22:16.489Z</time>
      </trkpt>
      <trkpt lat="47.3265" lon="6.81469">
        <ele>449.085321</ele>
        <time>2021-04-29T15:22:20.386Z</time>
      </trkpt>
      <trkpt lat="47.32634" lon="6.815">
        <ele>445.602678</ele>
        <time>2021-04-29T15:22:24.817Z</time>
      </trkpt>
      <trkpt lat="47.32625" lon="6.81509">
        <ele>444.144536</ele>
        <time>2021-04-29T15:22:26.599Z</time>
      </trkpt>
      <trkpt lat="47.32618" lon="6.81511">
        <ele>443.228293</ele>
        <time>2021-04-29T15:22:27.766Z</time>
      </trkpt>
      <trkpt lat="47.3261" lon="6.81512">
        <ele>442.15661</ele>
        <time>2021-04-29T15:22:29.099Z</time>
      </trkpt>
      <trkpt lat="47.32547" lon="6.81511">
        <ele>433.690193</ele>
        <time>2021-04-29T15:22:39.714Z</time>
      </trkpt>
      <trkpt lat="47.32458" lon="6.8144">
        <ele>421.119807</ele>
        <time>2021-04-29T15:22:56.700Z</time>
      </trkpt>
      <trkpt lat="47.32385" lon="6.81411">
        <ele>411.934034</ele>
        <time>2021-04-29T15:23:09.187Z</time>
      </trkpt>
      <trkpt lat="47.32379" lon="6.81404">
        <ele>410.993709</ele>
        <time>2021-04-29T15:23:10.429Z</time>
      </trkpt>
      <trkpt lat="47.32333" lon="6.81387">
        <ele>406.004573</ele>
        <time>2021-04-29T15:23:17.942Z</time>
      </trkpt>
      <trkpt lat="47.32301" lon="6.81381">
        <ele>402.730088</ele>
        <time>2021-04-29T15:23:23.277Z</time>
      </trkpt>
      <trkpt lat="47.3229" lon="6.81381">
        <ele>401.708107</ele>
        <time>2021-04-29T15:23:24.909Z</time>
      </trkpt>
      <trkpt lat="47.32283" lon="6.81381">
        <ele>400.962917</ele>
        <time>2021-04-29T15:23:26.179Z</time>
      </trkpt>
      <trkpt lat="47.32243" lon="6.81405">
        <ele>396.688778</ele>
        <time>2021-04-29T15:23:33.168Z</time>
      </trkpt>
      <trkpt lat="47.32227" lon="6.81419">
        <ele>394.863033</ele>
        <time>2021-04-29T15:23:36.148Z</time>
      </trkpt>
      <trkpt lat="47.32175" lon="6.81484">
        <ele>389.749517</ele>
        <time>2021-04-29T15:23:48.059Z</time>
      </trkpt>
      <trkpt lat="47.32155" lon="6.81507">
        <ele>388.511167</ele>
        <time>2021-04-29T15:23:52.542Z</time>
      </trkpt>
      <trkpt lat="47.32109" lon="6.81553">
        <ele>385.781409</ele>
        <time>2021-04-29T15:24:02.883Z</time>
      </trkpt>
      <trkpt lat="47.32095" lon="6.81564">
        <ele>385.008253</ele>
        <time>2021-04-29T15:24:05.808Z</time>
      </trkpt>
      <trkpt lat="47.32074" lon="6.81584">
        <ele>383.76593</ele>
        <time>2021-04-29T15:24:10.546Z</time>
      </trkpt>
      <trkpt lat="47.32017" lon="6.81635">
        <ele>381.45429</ele>
        <time>2021-04-29T15:24:23.482Z</time>
      </trkpt>
      <trkpt lat="47.32007" lon="6.81645">
        <ele>381.150149</ele>
        <time>2021-04-29T15:24:25.721Z</time>
      </trkpt>
      <trkpt lat="47.32005" lon="6.81646">
        <ele>381.087211</ele>
        <time>2021-04-29T15:24:26.182Z</time>
      </trkpt>
      <trkpt lat="47.31992" lon="6.81614">
        <ele>380.426481</ele>
        <time>2021-04-29T15:24:33.172Z</time>
      </trkpt>
      <trkpt lat="47.31981" lon="6.81613">
        <ele>380.140658</ele>
        <time>2021-04-29T15:24:36.198Z</time>
      </trkpt>
      <trkpt lat="47.31957" lon="6.81572">
        <ele>379.187433</ele>
        <time>2021-04-29T15:24:46.596Z</time>
      </trkpt>
      <trkpt lat="47.31983" lon="6.8152">
        <ele>378.050559</ele>
        <time>2021-04-29T15:24:55.823Z</time>
      </trkpt>
      <trkpt lat="47.31993" lon="6.81503">
        <ele>377.986563</ele>
        <time>2021-04-29T15:24:59.055Z</time>
      </trkpt>
      <trkpt lat="47.31994" lon="6.81493">
        <ele>378.083016</ele>
        <time>2021-04-29T15:25:00.515Z</time>
      </trkpt>
      <trkpt lat="47.31995" lon="6.81485">
        <ele>378.160894</ele>
        <time>2021-04-29T15:25:01.769Z</time>
      </trkpt>
      <trkpt lat="47.31994" lon="6.81478">
        <ele>378.225323</ele>
        <time>2021-04-29T15:25:02.927Z</time>
      </trkpt>
      <trkpt lat="47.31993" lon="6.81469">
        <ele>378.309714</ele>
        <time>2021-04-29T15:25:04.475Z</time>
      </trkpt>
      <trkpt lat="47.31992" lon="6.81464">
        <ele>378.36448</ele>
        <time>2021-04-29T15:25:05.278Z</time>
      </trkpt>
      <trkpt lat="47.31951" lon="6.81385">
        <ele>379.308364</ele>
        <time>2021-04-29T15:25:26.643Z</time>
      </trkpt>
      <trkpt lat="47.31935" lon="6.81356">
        <ele>379.655503</ele>
        <time>2021-04-29T15:25:35.864Z</time>
      </trkpt>
      <trkpt lat="47.31929" lon="6.81345">
        <ele>379.792638</ele>
        <time>2021-04-29T15:25:39.706Z</time>
      </trkpt>
      <trkpt lat="47.31925" lon="6.81332">
        <ele>379.9297</ele>
        <time>2021-04-29T15:25:42.907Z</time>
      </trkpt>
      <trkpt lat="47.31924" lon="6.81326">
        <ele>379.986697</ele>
        <time>2021-04-29T15:25:44.574Z</time>
      </trkpt>
      <trkpt lat="47.31913" lon="6.81317">
        <ele>380.16978</ele>
        <time>2021-04-29T15:25:50.400Z</time>
      </trkpt>
      <trkpt lat="47.3191" lon="6.81316">
        <ele>380.203647</ele>
        <time>2021-04-29T15:25:51.373Z</time>
      </trkpt>
      <trkpt lat="47.31891" lon="6.81303">
        <ele>380.91497</ele>
        <time>2021-04-29T15:25:59.768Z</time>
      </trkpt>
      <trkpt lat="47.31888" lon="6.81301">
        <ele>381.106195</ele>
        <time>2021-04-29T15:26:01.491Z</time>
      </trkpt>
      <trkpt lat="47.31886" lon="6.81299">
        <ele>381.287989</ele>
        <time>2021-04-29T15:26:03.277Z</time>
      </trkpt>
      <trkpt lat="47.31883" lon="6.81298">
        <ele>381.442915</ele>
        <time>2021-04-29T15:26:04.628Z</time>
      </trkpt>
      <trkpt lat="47.31882" lon="6.81297">
        <ele>381.51367</ele>
        <time>2021-04-29T15:26:05.152Z</time>
      </trkpt>
      <trkpt lat="47.31843" lon="6.8127">
        <ele>384.281297</ele>
        <time>2021-04-29T15:26:29.753Z</time>
      </trkpt>
      <trkpt lat="47.31834" lon="6.81263">
        <ele>384.937154</ele>
        <time>2021-04-29T15:26:36.801Z</time>
      </trkpt>
      <trkpt lat="47.31825" lon="6.81257">
        <ele>385.587361</ele>
        <time>2021-04-29T15:26:42.556Z</time>
      </trkpt>
      <trkpt lat="47.3182" lon="6.81253">
        <ele>385.932072</ele>
        <time>2021-04-29T15:26:46.026Z</time>
      </trkpt>
      <trkpt lat="47.31816" lon="6.81248">
        <ele>386.284531</ele>
        <time>2021-04-29T15:26:49.574Z</time>
      </trkpt>
      <trkpt lat="47.31806" lon="6.81235">
        <ele>387.112609</ele>
        <time>2021-04-29T15:26:59.452Z</time>
      </trkpt>
      <trkpt lat="47.31816" lon="6.81248">
        <ele>387.940687</ele>
        <time>2021-04-29T15:27:07.254Z</time>
      </trkpt>
      <trkpt lat="47.31813" lon="6.81256">
        <ele>388.297406</ele>
        <time>2021-04-29T15:27:10.910Z</time>
      </trkpt>
      <trkpt lat="47.31807" lon="6.81293">
        <ele>389.96742</ele>
        <time>2021-04-29T15:27:28.710Z</time>
      </trkpt>
      <trkpt lat="47.31802" lon="6.81303">
        <ele>390.507303</ele>
        <time>2021-04-29T15:27:33.318Z</time>
      </trkpt>
      <trkpt lat="47.31789" lon="6.81317">
        <ele>391.506096</ele>
        <time>2021-04-29T15:27:42.907Z</time>
      </trkpt>
      <trkpt lat="47.31788" lon="6.81324">
        <ele>391.793854</ele>
        <time>2021-04-29T15:27:46.291Z</time>
      </trkpt>
      <trkpt lat="47.31787" lon="6.81331">
        <ele>392.009143</ele>
        <time>2021-04-29T15:27:49.085Z</time>
      </trkpt>
      <trkpt lat="47.31786" lon="6.81349">
        <ele>392.437692</ele>
        <time>2021-04-29T15:27:53.655Z</time>
      </trkpt>
      <trkpt lat="47.31785" lon="6.8136">
        <ele>392.704655</ele>
        <time>2021-04-29T15:27:57.297Z</time>
      </trkpt>
      <trkpt lat="47.31783" lon="6.81369">
        <ele>392.944481</ele>
        <time>2021-04-29T15:28:01.592Z</time>
      </trkpt>
      <trkpt lat="47.31783" lon="6.81409">
        <ele>393.887849</ele>
        <time>2021-04-29T15:28:13.481Z</time>
      </trkpt>
      <trkpt lat="47.31785" lon="6.81432">
        <ele>394.44539</ele>
        <time>2021-04-29T15:28:22.977Z</time>
      </trkpt>
      <trkpt lat="47.31786" lon="6.81448">
        <ele>394.827317</ele>
        <time>2021-04-29T15:28:26.462Z</time>
      </trkpt>
      <trkpt lat="47.31789" lon="6.81485">
        <ele>395.724949</ele>
        <time>2021-04-29T15:28:39.360Z</time>
      </trkpt>
      <trkpt lat="47.31792" lon="6.81504">
        <ele>396.189938</ele>
        <time>2021-04-29T15:28:43.327Z</time>
      </trkpt>
      <trkpt lat="47.31794" lon="6.81519">
        <ele>396.559294</ele>
        <time>2021-04-29T15:28:47.184Z</time>
      </trkpt>
      <trkpt lat="47.31796" lon="6.81536">
        <ele>396.973575</ele>
        <time>2021-04-29T15:28:54.070Z</time>
      </trkpt>
      <trkpt lat="47.31797" lon="6.81549">
        <ele>397.283392</ele>
        <time>2021-04-29T15:28:56.258Z</time>
      </trkpt>
      <trkpt lat="47.31798" lon="6.81563">
        <ele>397.627166</ele>
        <time>2021-04-29T15:28:58.284Z</time>
      </trkpt>
      <trkpt lat="47.31813" lon="6.81784">
        <ele>400.376735</ele>
        <time>2021-04-29T15:29:41.857Z</time>
      </trkpt>
      <trkpt lat="47.31826" lon="6.81854">
        <ele>401.271443</ele>
        <time>2021-04-29T15:30:03.253Z</time>
      </trkpt>
      <trkpt lat="47.3185" lon="6.81903">
        <ele>403.725991</ele>
        <time>2021-04-29T15:30:22.674Z</time>
      </trkpt>
      <trkpt lat="47.31959" lon="6.82085">
        <ele>413.600137</ele>
        <time>2021-04-29T15:32:01.305Z</time>
      </trkpt>
      <trkpt lat="47.31973" lon="6.82112">
        <ele>414.918912</ele>
        <time>2021-04-29T15:32:15.300Z</time>
      </trkpt>
      <trkpt lat="47.32002" lon="6.82168">
        <ele>417.758564</ele>
        <time>2021-04-29T15:32:43.104Z</time>
      </trkpt>
      <trkpt lat="47.32052" lon="6.82274">
        <ele>422.711111</ele>
        <time>2021-04-29T15:33:30.140Z</time>
      </trkpt>
      <trkpt lat="47.32094" lon="6.8247">
        <ele>426.769096</ele>
        <time>2021-04-29T15:34:23.598Z</time>
      </trkpt>
      <trkpt lat="47.3217" lon="6.82684">
        <ele>432.072108</ele>
        <time>2021-04-29T15:35:27.252Z</time>
      </trkpt>
      <trkpt lat="47.32189" lon="6.82731">
        <ele>433.308485</ele>
        <time>2021-04-29T15:35:45.441Z</time>
      </trkpt>
      <trkpt lat="47.32202" lon="6.82761">
        <ele>434.279671</ele>
        <time>2021-04-29T15:35:58.760Z</time>
      </trkpt>
      <trkpt lat="47.32303" lon="6.8298">
        <ele>442.696381</ele>
        <time>2021-04-29T15:37:32.760Z</time>
      </trkpt>
      <trkpt lat="47.32311" lon="6.82994">
        <ele>442.77164</ele>
        <time>2021-04-29T15:37:40.043Z</time>
      </trkpt>
      <trkpt lat="47.3232" lon="6.83005">
        <ele>442.835824</ele>
        <time>2021-04-29T15:37:42.276Z</time>
      </trkpt>
      <trkpt lat="47.32357" lon="6.83054">
        <ele>443.13164</ele>
        <time>2021-04-29T15:37:58.848Z</time>
      </trkpt>
      <trkpt lat="47.32386" lon="6.83163">
        <ele>443.59724</ele>
        <time>2021-04-29T15:38:19.126Z</time>
      </trkpt>
      <trkpt lat="47.32399" lon="6.83195">
        <ele>443.347208</ele>
        <time>2021-04-29T15:38:23.912Z</time>
      </trkpt>
      <trkpt lat="47.32451" lon="6.83258">
        <ele>440.762589</ele>
        <time>2021-04-29T15:38:36.980Z</time>
      </trkpt>
      <trkpt lat="47.32461" lon="6.8328">
        <ele>440.066464</ele>
        <time>2021-04-29T15:38:40.438Z</time>
      </trkpt>
      <trkpt lat="47.3247" lon="6.83326">
        <ele>438.814632</ele>
        <time>2021-04-29T15:38:46.583Z</time>
      </trkpt>
      <trkpt lat="47.32476" lon="6.83403">
        <ele>436.781854</ele>
        <time>2021-04-29T15:38:56.332Z</time>
      </trkpt>
      <trkpt lat="47.32476" lon="6.83546">
        <ele>432.156382</ele>
        <time>2021-04-29T15:39:13.644Z</time>
      </trkpt>
      <trkpt lat="47.3247" lon="6.83628">
        <ele>429.48861</ele>
        <time>2021-04-29T15:39:23.763Z</time>
      </trkpt>
      <trkpt lat="47.32454" lon="6.83732">
        <ele>427.672459</ele>
        <time>2021-04-29T15:39:37.735Z</time>
      </trkpt>
      <trkpt lat="47.32459" lon="6.83895">
        <ele>426.362706</ele>
        <time>2021-04-29T15:40:05.411Z</time>
      </trkpt>
      <trkpt lat="47.32432" lon="6.84001">
        <ele>425.07884</ele>
        <time>2021-04-29T15:40:28.944Z</time>
      </trkpt>
      <trkpt lat="47.3243" lon="6.84108">
        <ele>423.702363</ele>
        <time>2021-04-29T15:40:46.222Z</time>
      </trkpt>
      <trkpt lat="47.32369" lon="6.84432">
        <ele>412.730978</ele>
        <time>2021-04-29T15:41:26.961Z</time>
      </trkpt>
      <trkpt lat="47.32358" lon="6.84458">
        <ele>411.773696</ele>
        <time>2021-04-29T15:41:30.408Z</time>
      </trkpt>
      <trkpt lat="47.32308" lon="6.84542">
        <ele>408.538203</ele>
        <time>2021-04-29T15:41:43.597Z</time>
      </trkpt>
      <trkpt lat="47.3229" lon="6.84589">
        <ele>406.970226</ele>
        <time>2021-04-29T15:41:50.429Z</time>
      </trkpt>
      <trkpt lat="47.32281" lon="6.84703">
        <ele>405.873382</ele>
        <time>2021-04-29T15:42:07.382Z</time>
      </trkpt>
      <trkpt lat="47.32279" lon="6.84714">
        <ele>406.228755</ele>
        <time>2021-04-29T15:42:08.865Z</time>
      </trkpt>
      <trkpt lat="47.32276" lon="6.84725">
        <ele>406.617653</ele>
        <time>2021-04-29T15:42:12.833Z</time>
      </trkpt>
      <trkpt lat="47.32239" lon="6.84838">
        <ele>410.627</ele>
        <time>2021-04-29T15:42:58.710Z</time>
      </trkpt>
      <trkpt lat="47.32226" lon="6.84856">
        <ele>411.467062</ele>
        <time>2021-04-29T15:43:11.438Z</time>
      </trkpt>
      <trkpt lat="47.32185" lon="6.84883">
        <ele>413.772678</ele>
        <time>2021-04-29T15:43:40.985Z</time>
      </trkpt>
      <trkpt lat="47.32171" lon="6.84904">
        <ele>415.243675</ele>
        <time>2021-04-29T15:43:52.096Z</time>
      </trkpt>
      <trkpt lat="47.32168" lon="6.84914">
        <ele>415.79289</ele>
        <time>2021-04-29T15:44:00.950Z</time>
      </trkpt>
      <trkpt lat="47.32164" lon="6.84918">
        <ele>416.170056</ele>
        <time>2021-04-29T15:44:04.203Z</time>
      </trkpt>
      <trkpt lat="47.32157" lon="6.84932">
        <ele>417.053452</ele>
        <time>2021-04-29T15:44:10.586Z</time>
      </trkpt>
      <trkpt lat="47.32085" lon="6.85207">
        <ele>429.669669</ele>
        <time>2021-04-29T15:46:12.259Z</time>
      </trkpt>
      <trkpt lat="47.3205" lon="6.85435">
        <ele>434.781454</ele>
        <time>2021-04-29T15:47:14.162Z</time>
      </trkpt>
      <trkpt lat="47.32044" lon="6.85534">
        <ele>435.363478</ele>
        <time>2021-04-29T15:47:30.240Z</time>
      </trkpt>
      <trkpt lat="47.32069" lon="6.85712">
        <ele>438.560442</ele>
        <time>2021-04-29T15:48:07.361Z</time>
      </trkpt>
      <trkpt lat="47.32066" lon="6.8574">
        <ele>439.413033</ele>
        <time>2021-04-29T15:48:18.553Z</time>
      </trkpt>
      <trkpt lat="47.32057" lon="6.85757">
        <ele>440.037449</ele>
        <time>2021-04-29T15:48:23.703Z</time>
      </trkpt>
      <trkpt lat="47.3205" lon="6.85762">
        <ele>440.371707</ele>
        <time>2021-04-29T15:48:25.208Z</time>
      </trkpt>
      <trkpt lat="47.32043" lon="6.85765">
        <ele>440.700277</ele>
        <time>2021-04-29T15:48:34.520Z</time>
      </trkpt>
      <trkpt lat="47.31989" lon="6.85783">
        <ele>443.0892</ele>
        <time>2021-04-29T15:49:03.964Z</time>
      </trkpt>
      <trkpt lat="47.31981" lon="6.85796">
        <ele>443.619123</ele>
        <time>2021-04-29T15:49:10.311Z</time>
      </trkpt>
      <trkpt lat="47.3198" lon="6.85818">
        <ele>444.673234</ele>
        <time>2021-04-29T15:49:22.604Z</time>
      </trkpt>
      <trkpt lat="47.31996" lon="6.85846">
        <ele>446.491738</ele>
        <time>2021-04-29T15:49:38.968Z</time>
      </trkpt>
      <trkpt lat="47.3204" lon="6.85868">
        <ele>449.978118</ele>
        <time>2021-04-29T15:50:13.153Z</time>
      </trkpt>
      <trkpt lat="47.32092" lon="6.85989">
        <ele>457.211351</ele>
        <time>2021-04-29T15:51:12.747Z</time>
      </trkpt>
      <trkpt lat="47.32152" lon="6.86045">
        <ele>458.956566</ele>
        <time>2021-04-29T15:51:46.168Z</time>
      </trkpt>
      <trkpt lat="47.32176" lon="6.86081">
        <ele>459.79281</ele>
        <time>2021-04-29T15:51:59.982Z</time>
      </trkpt>
      <trkpt lat="47.32189" lon="6.86118">
        <ele>460.490116</ele>
        <time>2021-04-29T15:52:07.703Z</time>
      </trkpt>
      <trkpt lat="47.32193" lon="6.86148">
        <ele>460.998289</ele>
        <time>2021-04-29T15:52:14.673Z</time>
      </trkpt>
      <trkpt lat="47.32189" lon="6.86201">
        <ele>461.419664</ele>
        <time>2021-04-29T15:52:23.266Z</time>
      </trkpt>
      <trkpt lat="47.32177" lon="6.86275">
        <ele>460.555313</ele>
        <time>2021-04-29T15:52:33.967Z</time>
      </trkpt>
      <trkpt lat="47.32178" lon="6.86302">
        <ele>460.257388</ele>
        <time>2021-04-29T15:52:38.238Z</time>
      </trkpt>
      <trkpt lat="47.32179" lon="6.86309">
        <ele>460.176428</ele>
        <time>2021-04-29T15:52:39.474Z</time>
      </trkpt>
      <trkpt lat="47.32181" lon="6.86313">
        <ele>460.115507</ele>
        <time>2021-04-29T15:52:40.032Z</time>
      </trkpt>
      <trkpt lat="47.32189" lon="6.86321">
        <ele>459.957558</ele>
        <time>2021-04-29T15:52:42.206Z</time>
      </trkpt>
      <trkpt lat="47.32204" lon="6.86318">
        <ele>459.707221</ele>
        <time>2021-04-29T15:52:45.540Z</time>
      </trkpt>
      <trkpt lat="47.32237" lon="6.86266">
        <ele>458.905395</ele>
        <time>2021-04-29T15:52:54.746Z</time>
      </trkpt>
      <trkpt lat="47.3225" lon="6.86255">
        <ele>458.652193</ele>
        <time>2021-04-29T15:52:59.263Z</time>
      </trkpt>
      <trkpt lat="47.32281" lon="6.86256">
        <ele>459.965357</ele>
        <time>2021-04-29T15:53:06.950Z</time>
      </trkpt>
      <trkpt lat="47.32319" lon="6.86268">
        <ele>461.773376</ele>
        <time>2021-04-29T15:53:20.874Z</time>
      </trkpt>
      <trkpt lat="47.32334" lon="6.86285">
        <ele>462.67781</ele>
        <time>2021-04-29T15:53:30.107Z</time>
      </trkpt>
      <trkpt lat="47.32342" lon="6.86316">
        <ele>463.752928</ele>
        <time>2021-04-29T15:53:42.726Z</time>
      </trkpt>
      <trkpt lat="47.32344" lon="6.86352">
        <ele>464.931738</ele>
        <time>2021-04-29T15:53:56.438Z</time>
      </trkpt>
      <trkpt lat="47.32345" lon="6.86365">
        <ele>465.337036</ele>
        <time>2021-04-29T15:54:02.571Z</time>
      </trkpt>
      <trkpt lat="47.32353" lon="6.86474">
        <ele>470.880342</ele>
        <time>2021-04-29T15:54:56.925Z</time>
      </trkpt>
      <trkpt lat="47.32369" lon="6.8659">
        <ele>479.229258</ele>
        <time>2021-04-29T15:56:02.060Z</time>
      </trkpt>
      <trkpt lat="47.32361" lon="6.86614">
        <ele>481.134936</ele>
        <time>2021-04-29T15:56:17.976Z</time>
      </trkpt>
      <trkpt lat="47.32348" lon="6.86621">
        <ele>482.537474</ele>
        <time>2021-04-29T15:56:26.722Z</time>
      </trkpt>
      <trkpt lat="47.32342" lon="6.86617">
        <ele>483.180031</ele>
        <time>2021-04-29T15:56:30.520Z</time>
      </trkpt>
      <trkpt lat="47.32338" lon="6.86611">
        <ele>483.825328</ele>
        <time>2021-04-29T15:56:38.150Z</time>
      </trkpt>
      <trkpt lat="47.32335" lon="6.86599">
        <ele>484.680686</ele>
        <time>2021-04-29T15:56:42.739Z</time>
      </trkpt>
      <trkpt lat="47.32332" lon="6.8655">
        <ele>488.131097</ele>
        <time>2021-04-29T15:57:07.525Z</time>
      </trkpt>
      <trkpt lat="47.3232" lon="6.86518">
        <ele>490.710019</ele>
        <time>2021-04-29T15:57:24.372Z</time>
      </trkpt>
      <trkpt lat="47.32291" lon="6.86496">
        <ele>494.071908</ele>
        <time>2021-04-29T15:57:49.497Z</time>
      </trkpt>
      <trkpt lat="47.32252" lon="6.86483">
        <ele>498.164631</ele>
        <time>2021-04-29T15:58:20.944Z</time>
      </trkpt>
      <trkpt lat="47.32218" lon="6.86489">
        <ele>501.697548</ele>
        <time>2021-04-29T15:58:47.056Z</time>
      </trkpt>
      <trkpt lat="47.32194" lon="6.86493">
        <ele>504.22231</ele>
        <time>2021-04-29T15:59:06.487Z</time>
      </trkpt>
      <trkpt lat="47.32118" lon="6.8652">
        <ele>512.264314</ele>
        <time>2021-04-29T16:00:06.582Z</time>
      </trkpt>
      <trkpt lat="47.3209" lon="6.86513">
        <ele>515.255532</ele>
        <time>2021-04-29T16:00:31.587Z</time>
      </trkpt>
      <trkpt lat="47.32003" lon="6.86415">
        <ele>525.384246</ele>
        <time>2021-04-29T16:01:51.208Z</time>
      </trkpt>
      <trkpt lat="47.31984" lon="6.8637">
        <ele>527.970851</ele>
        <time>2021-04-29T16:02:13.488Z</time>
      </trkpt>
      <trkpt lat="47.31975" lon="6.86335">
        <ele>529.753205</ele>
        <time>2021-04-29T16:02:27.956Z</time>
      </trkpt>
      <trkpt lat="47.31976" lon="6.86284">
        <ele>532.184124</ele>
        <time>2021-04-29T16:02:47.201Z</time>
      </trkpt>
      <trkpt lat="47.31968" lon="6.86262">
        <ele>533.391794</ele>
        <time>2021-04-29T16:02:56.682Z</time>
      </trkpt>
      <trkpt lat="47.31958" lon="6.86258">
        <ele>534.110854</ele>
        <time>2021-04-29T16:03:02.260Z</time>
      </trkpt>
      <trkpt lat="47.31943" lon="6.86268">
        <ele>535.294382</ele>
        <time>2021-04-29T16:03:11.435Z</time>
      </trkpt>
      <trkpt lat="47.31938" lon="6.863">
        <ele>536.595727</ele>
        <time>2021-04-29T16:03:23.576Z</time>
      </trkpt>
      <trkpt lat="47.31944" lon="6.86339">
        <ele>538.07439</ele>
        <time>2021-04-29T16:03:38.485Z</time>
      </trkpt>
      <trkpt lat="47.31963" lon="6.86407">
        <ele>540.765429</ele>
        <time>2021-04-29T16:04:05.344Z</time>
      </trkpt>
      <trkpt lat="47.32046" lon="6.86551">
        <ele>547.236558</ele>
        <time>2021-04-29T16:05:10.044Z</time>
      </trkpt>
      <trkpt lat="47.32051" lon="6.86581">
        <ele>548.186038</ele>
        <time>2021-04-29T16:05:20.708Z</time>
      </trkpt>
      <trkpt lat="47.32046" lon="6.86664">
        <ele>550.666471</ele>
        <time>2021-04-29T16:05:48.400Z</time>
      </trkpt>
      <trkpt lat="47.32052" lon="6.86706">
        <ele>551.952671</ele>
        <time>2021-04-29T16:06:02.018Z</time>
      </trkpt>
      <trkpt lat="47.32063" lon="6.86725">
        <ele>552.713925</ele>
        <time>2021-04-29T16:06:09.696Z</time>
      </trkpt>
      <trkpt lat="47.32131" lon="6.86786">
        <ele>555.333577</ele>
        <time>2021-04-29T16:06:43.148Z</time>
      </trkpt>
      <trkpt lat="47.32145" lon="6.86807">
        <ele>555.964048</ele>
        <time>2021-04-29T16:06:51.822Z</time>
      </trkpt>
      <trkpt lat="47.32229" lon="6.87045">
        <ele>563.344645</ele>
        <time>2021-04-29T16:08:04.748Z</time>
      </trkpt>
      <trkpt lat="47.32236" lon="6.87072">
        <ele>564.320107</ele>
        <time>2021-04-29T16:08:13.672Z</time>
      </trkpt>
      <trkpt lat="47.32237" lon="6.87164">
        <ele>567.553234</ele>
        <time>2021-04-29T16:08:51.348Z</time>
      </trkpt>
      <trkpt lat="47.32256" lon="6.87241">
        <ele>572.498288</ele>
        <time>2021-04-29T16:09:34.672Z</time>
      </trkpt>
      <trkpt lat="47.32253" lon="6.87266">
        <ele>574.192158</ele>
        <time>2021-04-29T16:09:43.345Z</time>
      </trkpt>
      <trkpt lat="47.3225" lon="6.87277">
        <ele>574.968778</ele>
        <time>2021-04-29T16:09:48.982Z</time>
      </trkpt>
      <trkpt lat="47.32244" lon="6.87285">
        <ele>575.755097</ele>
        <time>2021-04-29T16:10:00.014Z</time>
      </trkpt>
      <trkpt lat="47.32227" lon="6.87296">
        <ele>577.614984</ele>
        <time>2021-04-29T16:10:09.620Z</time>
      </trkpt>
      <trkpt lat="47.32205" lon="6.87287">
        <ele>579.841493</ele>
        <time>2021-04-29T16:10:31.176Z</time>
      </trkpt>
      <trkpt lat="47.3217" lon="6.87219">
        <ele>585.499365</ele>
        <time>2021-04-29T16:11:09.617Z</time>
      </trkpt>
      <trkpt lat="47.32167" lon="6.87208">
        <ele>586.09603</ele>
        <time>2021-04-29T16:11:20.990Z</time>
      </trkpt>
      <trkpt lat="47.32164" lon="6.87196">
        <ele>586.584401</ele>
        <time>2021-04-29T16:11:25.721Z</time>
      </trkpt>
      <trkpt lat="47.32157" lon="6.87137">
        <ele>589.00618</ele>
        <time>2021-04-29T16:11:55.051Z</time>
      </trkpt>
      <trkpt lat="47.32151" lon="6.87014">
        <ele>593.951865</ele>
        <time>2021-04-29T16:12:37.528Z</time>
      </trkpt>
      <trkpt lat="47.32135" lon="6.8696">
        <ele>596.356536</ele>
        <time>2021-04-29T16:12:55.430Z</time>
      </trkpt>
      <trkpt lat="47.32121" lon="6.86933">
        <ele>596.863211</ele>
        <time>2021-04-29T16:13:02.188Z</time>
      </trkpt>
      <trkpt lat="47.32086" lon="6.86893">
        <ele>597.762187</ele>
        <time>2021-04-29T16:13:15.443Z</time>
      </trkpt>
      <trkpt lat="47.32061" lon="6.86882">
        <ele>598.287141</ele>
        <time>2021-04-29T16:13:23.495Z</time>
      </trkpt>
      <trkpt lat="47.32002" lon="6.86871">
        <ele>599.485378</ele>
        <time>2021-04-29T16:13:44.663Z</time>
      </trkpt>
      <trkpt lat="47.31978" lon="6.86854">
        <ele>600.016808</ele>
        <time>2021-04-29T16:13:55.939Z</time>
      </trkpt>
      <trkpt lat="47.31933" lon="6.86754">
        <ele>603.905539</ele>
        <time>2021-04-29T16:14:32.047Z</time>
      </trkpt>
      <trkpt lat="47.31925" lon="6.86745">
        <ele>604.372625</ele>
        <time>2021-04-29T16:14:35.122Z</time>
      </trkpt>
      <trkpt lat="47.31917" lon="6.8674">
        <ele>604.796571</ele>
        <time>2021-04-29T16:14:42.217Z</time>
      </trkpt>
      <trkpt lat="47.31827" lon="6.86732">
        <ele>609.218562</ele>
        <time>2021-04-29T16:15:31.191Z</time>
      </trkpt>
      <trkpt lat="47.31778" lon="6.86719">
        <ele>612.322747</ele>
        <time>2021-04-29T16:16:01.303Z</time>
      </trkpt>
      <trkpt lat="47.31738" lon="6.86697">
        <ele>614.907892</ele>
        <time>2021-04-29T16:16:26.198Z</time>
      </trkpt>
      <trkpt lat="47.31696" lon="6.86661">
        <ele>617.92403</ele>
        <time>2021-04-29T16:16:52.735Z</time>
      </trkpt>
      <trkpt lat="47.31563" lon="6.86532">
        <ele>627.797979</ele>
        <time>2021-04-29T16:18:17.737Z</time>
      </trkpt>
      <trkpt lat="47.31491" lon="6.86463">
        <ele>634.431483</ele>
        <time>2021-04-29T16:19:10.102Z</time>
      </trkpt>
      <trkpt lat="47.3144" lon="6.86427">
        <ele>640.123516</ele>
        <time>2021-04-29T16:19:54.241Z</time>
      </trkpt>
      <trkpt lat="47.31386" lon="6.86423">
        <ele>645.414742</ele>
        <time>2021-04-29T16:20:35.457Z</time>
      </trkpt>
      <trkpt lat="47.31343" lon="6.8643">
        <ele>649.704537</ele>
        <time>2021-04-29T16:21:14.635Z</time>
      </trkpt>
      <trkpt lat="47.31315" lon="6.86427">
        <ele>652.220375</ele>
        <time>2021-04-29T16:21:32.935Z</time>
      </trkpt>
      <trkpt lat="47.31306" lon="6.86424">
        <ele>653.044651</ele>
        <time>2021-04-29T16:21:44.121Z</time>
      </trkpt>
      <trkpt lat="47.31305" lon="6.86423">
        <ele>653.183498</ele>
        <time>2021-04-29T16:21:45.494Z</time>
      </trkpt>
      <trkpt lat="47.31294" lon="6.86416">
        <ele>654.242837</ele>
        <time>2021-04-29T16:21:52.165Z</time>
      </trkpt>
      <trkpt lat="47.31192" lon="6.86243">
        <ele>666.601299</ele>
        <time>2021-04-29T16:23:35.967Z</time>
      </trkpt>
      <trkpt lat="47.31172" lon="6.86186">
        <ele>668.436243</ele>
        <time>2021-04-29T16:23:55.958Z</time>
      </trkpt>
      <trkpt lat="47.31117" lon="6.85979">
        <ele>672.412798</ele>
        <time>2021-04-29T16:24:55.604Z</time>
      </trkpt>
      <trkpt lat="47.31081" lon="6.8589">
        <ele>671.988726</ele>
        <time>2021-04-29T16:25:13.077Z</time>
      </trkpt>
      <trkpt lat="47.31066" lon="6.85875">
        <ele>671.880748</ele>
        <time>2021-04-29T16:25:16.801Z</time>
      </trkpt>
      <trkpt lat="47.31034" lon="6.85866">
        <ele>671.682031</ele>
        <time>2021-04-29T16:25:23.327Z</time>
      </trkpt>
      <trkpt lat="47.3101" lon="6.85848">
        <ele>670.775314</ele>
        <time>2021-04-29T16:25:28.347Z</time>
      </trkpt>
      <trkpt lat="47.30971" lon="6.85783">
        <ele>667.888808</ele>
        <time>2021-04-29T16:25:38.849Z</time>
      </trkpt>
      <trkpt lat="47.30945" lon="6.85766">
        <ele>666.47699</ele>
        <time>2021-04-29T16:25:43.913Z</time>
      </trkpt>
      <trkpt lat="47.30916" lon="6.85763">
        <ele>665.028408</ele>
        <time>2021-04-29T16:25:49.135Z</time>
      </trkpt>
      <trkpt lat="47.30852" lon="6.85791">
        <ele>662.471269</ele>
        <time>2021-04-29T16:26:01.145Z</time>
      </trkpt>
      <trkpt lat="47.308" lon="6.85801">
        <ele>661.660211</ele>
        <time>2021-04-29T16:26:11.451Z</time>
      </trkpt>
      <trkpt lat="47.30772" lon="6.8582">
        <ele>661.185207</ele>
        <time>2021-04-29T16:26:18.018Z</time>
      </trkpt>
      <trkpt lat="47.30765" lon="6.85833">
        <ele>661.015646</ele>
        <time>2021-04-29T16:26:20.574Z</time>
      </trkpt>
      <trkpt lat="47.30756" lon="6.85862">
        <ele>660.679512</ele>
        <time>2021-04-29T16:26:25.961Z</time>
      </trkpt>
      <trkpt lat="47.30762" lon="6.86054">
        <ele>661.971816</ele>
        <time>2021-04-29T16:27:13.296Z</time>
      </trkpt>
      <trkpt lat="47.30764" lon="6.86089">
        <ele>662.508902</ele>
        <time>2021-04-29T16:27:23.094Z</time>
      </trkpt>
      <trkpt lat="47.30776" lon="6.86122">
        <ele>663.077452</ele>
        <time>2021-04-29T16:27:33.718Z</time>
      </trkpt>
      <trkpt lat="47.30786" lon="6.86167">
        <ele>663.791386</ele>
        <time>2021-04-29T16:27:46.335Z</time>
      </trkpt>
      <trkpt lat="47.30786" lon="6.86198">
        <ele>664.263936</ele>
        <time>2021-04-29T16:27:53.620Z</time>
      </trkpt>
      <trkpt lat="47.30781" lon="6.86218">
        <ele>664.576244</ele>
        <time>2021-04-29T16:27:59.790Z</time>
      </trkpt>
      <trkpt lat="47.30779" lon="6.8623">
        <ele>664.756104</ele>
        <time>2021-04-29T16:28:02.419Z</time>
      </trkpt>
      <trkpt lat="47.30768" lon="6.86264">
        <ele>665.317355</ele>
        <time>2021-04-29T16:28:12.703Z</time>
      </trkpt>
      <trkpt lat="47.30757" lon="6.86332">
        <ele>666.344598</ele>
        <time>2021-04-29T16:28:29.533Z</time>
      </trkpt>
      <trkpt lat="47.30754" lon="6.86382">
        <ele>667.082688</ele>
        <time>2021-04-29T16:28:41.715Z</time>
      </trkpt>
      <trkpt lat="47.30761" lon="6.86434">
        <ele>667.853058</ele>
        <time>2021-04-29T16:28:54.723Z</time>
      </trkpt>
      <trkpt lat="47.30766" lon="6.8645">
        <ele>668.183948</ele>
        <time>2021-04-29T16:28:59.188Z</time>
      </trkpt>
      <trkpt lat="47.30794" lon="6.8656">
        <ele>670.734772</ele>
        <time>2021-04-29T16:29:29.847Z</time>
      </trkpt>
      <trkpt lat="47.30857" lon="6.86734">
        <ele>675.726211</ele>
        <time>2021-04-29T16:30:30.519Z</time>
      </trkpt>
      <trkpt lat="47.30953" lon="6.87026">
        <ele>687.621497</ele>
        <time>2021-04-29T16:32:25.634Z</time>
      </trkpt>
      <trkpt lat="47.31007" lon="6.87158">
        <ele>694.120012</ele>
        <time>2021-04-29T16:33:28.080Z</time>
      </trkpt>
      <trkpt lat="47.31022" lon="6.87174">
        <ele>695.288766</ele>
        <time>2021-04-29T16:33:39.488Z</time>
      </trkpt>
      <trkpt lat="47.31082" lon="6.87201">
        <ele>699.231189</ele>
        <time>2021-04-29T16:34:18.658Z</time>
      </trkpt>
      <trkpt lat="47.3111" lon="6.87242">
        <ele>701.710295</ele>
        <time>2021-04-29T16:34:40.560Z</time>
      </trkpt>
      <trkpt lat="47.3113" lon="6.87348">
        <ele>705.871864</ele>
        <time>2021-04-29T16:35:19.725Z</time>
      </trkpt>
      <trkpt lat="47.3113" lon="6.87375">
        <ele>706.565318</ele>
        <time>2021-04-29T16:35:28.066Z</time>
      </trkpt>
      <trkpt lat="47.31127" lon="6.8739">
        <ele>706.957546</ele>
        <time>2021-04-29T16:35:34.140Z</time>
      </trkpt>
      <trkpt lat="47.31122" lon="6.87413">
        <ele>707.530672</ele>
        <time>2021-04-29T16:35:40.709Z</time>
      </trkpt>
      <trkpt lat="47.31118" lon="6.8743">
        <ele>707.980447</ele>
        <time>2021-04-29T16:35:45.844Z</time>
      </trkpt>
      <trkpt lat="47.31118" lon="6.87445">
        <ele>708.369329</ele>
        <time>2021-04-29T16:35:51.314Z</time>
      </trkpt>
      <trkpt lat="47.31126" lon="6.87484">
        <ele>709.386046</ele>
        <time>2021-04-29T16:36:02.451Z</time>
      </trkpt>
      <trkpt lat="47.31127" lon="6.87489">
        <ele>709.516639</ele>
        <time>2021-04-29T16:36:04.249Z</time>
      </trkpt>
      <trkpt lat="47.31135" lon="6.87509">
        <ele>710.078449</ele>
        <time>2021-04-29T16:36:10.258Z</time>
      </trkpt>
      <trkpt lat="47.31146" lon="6.87528">
        <ele>710.714627</ele>
        <time>2021-04-29T16:36:17.047Z</time>
      </trkpt>
      <trkpt lat="47.31156" lon="6.87545">
        <ele>711.269468</ele>
        <time>2021-04-29T16:36:23.186Z</time>
      </trkpt>
      <trkpt lat="47.31166" lon="6.87579">
        <ele>712.105029</ele>
        <time>2021-04-29T16:36:32.869Z</time>
      </trkpt>
      <trkpt lat="47.31183" lon="6.87703">
        <ele>714.730659</ele>
        <time>2021-04-29T16:37:06.022Z</time>
      </trkpt>
      <trkpt lat="47.31236" lon="6.87835">
        <ele>718.414972</ele>
        <time>2021-04-29T16:37:50.993Z</time>
      </trkpt>
      <trkpt lat="47.31343" lon="6.88242">
        <ele>735.509835</ele>
        <time>2021-04-29T16:40:30.120Z</time>
      </trkpt>
      <trkpt lat="47.31406" lon="6.88537">
        <ele>752.626513</ele>
        <time>2021-04-29T16:42:53.703Z</time>
      </trkpt>
      <trkpt lat="47.31419" lon="6.88632">
        <ele>758.019157</ele>
        <time>2021-04-29T16:43:39.473Z</time>
      </trkpt>
      <trkpt lat="47.31458" lon="6.88821">
        <ele>768.805423</ele>
        <time>2021-04-29T16:45:06.378Z</time>
      </trkpt>
      <trkpt lat="47.3153" lon="6.89061">
        <ele>781.353621</ele>
        <time>2021-04-29T16:46:52.858Z</time>
      </trkpt>
      <trkpt lat="47.3158" lon="6.89205">
        <ele>789.028546</ele>
        <time>2021-04-29T16:47:59.664Z</time>
      </trkpt>
      <trkpt lat="47.31572" lon="6.89258">
        <ele>791.591255</ele>
        <time>2021-04-29T16:48:23.081Z</time>
      </trkpt>
      <trkpt lat="47.31538" lon="6.89373">
        <ele>795.941823</ele>
        <time>2021-04-29T16:49:12.340Z</time>
      </trkpt>
      <trkpt lat="47.3156" lon="6.89475">
        <ele>799.072348</ele>
        <time>2021-04-29T16:49:46.519Z</time>
      </trkpt>
      <trkpt lat="47.31563" lon="6.89489">
        <ele>799.500628</ele>
        <time>2021-04-29T16:49:50.592Z</time>
      </trkpt>
      <trkpt lat="47.31548" lon="6.89475">
        <ele>800.267482</ele>
        <time>2021-04-29T16:49:57.417Z</time>
      </trkpt>
      <trkpt lat="47.31518" lon="6.89387">
        <ele>800.773892</ele>
        <time>2021-04-29T16:50:20.165Z</time>
      </trkpt>
      <trkpt lat="47.31457" lon="6.89309">
        <ele>800.124477</ele>
        <time>2021-04-29T16:50:38.339Z</time>
      </trkpt>
      <trkpt lat="47.31428" lon="6.89288">
        <ele>799.860504</ele>
        <time>2021-04-29T16:50:44.976Z</time>
      </trkpt>
      <trkpt lat="47.31354" lon="6.89281">
        <ele>797.847561</ele>
        <time>2021-04-29T16:50:59.724Z</time>
      </trkpt>
      <trkpt lat="47.31346" lon="6.89281">
        <ele>797.564138</ele>
        <time>2021-04-29T16:51:01.185Z</time>
      </trkpt>
      <trkpt lat="47.31294" lon="6.89265">
        <ele>795.740845</ele>
        <time>2021-04-29T16:51:11.534Z</time>
      </trkpt>
      <trkpt lat="47.31281" lon="6.89245">
        <ele>795.084626</ele>
        <time>2021-04-29T16:51:15.085Z</time>
      </trkpt>
      <trkpt lat="47.31179" lon="6.88867">
        <ele>783.635186</ele>
        <time>2021-04-29T16:52:06.930Z</time>
      </trkpt>
      <trkpt lat="47.31132" lon="6.88741">
        <ele>778.760964</ele>
        <time>2021-04-29T16:52:24.791Z</time>
      </trkpt>
      <trkpt lat="47.31086" lon="6.88656">
        <ele>774.168307</ele>
        <time>2021-04-29T16:52:37.760Z</time>
      </trkpt>
      <trkpt lat="47.31008" lon="6.88556">
        <ele>766.668127</ele>
        <time>2021-04-29T16:52:55.271Z</time>
      </trkpt>
      <trkpt lat="47.31001" lon="6.88543">
        <ele>765.830477</ele>
        <time>2021-04-29T16:52:57.173Z</time>
      </trkpt>
      <trkpt lat="47.30903" lon="6.88579">
        <ele>758.472414</ele>
        <time>2021-04-29T16:53:20.344Z</time>
      </trkpt>
      <trkpt lat="47.30833" lon="6.88616">
        <ele>752.996141</ele>
        <time>2021-04-29T16:53:37.844Z</time>
      </trkpt>
      <trkpt lat="47.30827" lon="6.88607">
        <ele>752.362777</ele>
        <time>2021-04-29T16:53:39.794Z</time>
      </trkpt>
      <trkpt lat="47.30819" lon="6.88585">
        <ele>751.156814</ele>
        <time>2021-04-29T16:53:43.988Z</time>
      </trkpt>
      <trkpt lat="47.30812" lon="6.88577">
        <ele>750.732994</ele>
        <time>2021-04-29T16:53:46.178Z</time>
      </trkpt>
      <trkpt lat="47.30804" lon="6.88573">
        <ele>750.468383</ele>
        <time>2021-04-29T16:53:48.151Z</time>
      </trkpt>
      <trkpt lat="47.30803" lon="6.88572">
        <ele>750.410987</ele>
        <time>2021-04-29T16:53:48.563Z</time>
      </trkpt>
      <trkpt lat="47.30798" lon="6.88562">
        <ele>750.148752</ele>
        <time>2021-04-29T16:53:50.784Z</time>
      </trkpt>
      <trkpt lat="47.30793" lon="6.88528">
        <ele>749.401724</ele>
        <time>2021-04-29T16:53:56.854Z</time>
      </trkpt>
      <trkpt lat="47.30798" lon="6.88504">
        <ele>748.857748</ele>
        <time>2021-04-29T16:54:01.461Z</time>
      </trkpt>
      <trkpt lat="47.30793" lon="6.88504">
        <ele>748.701981</ele>
        <time>2021-04-29T16:54:02.382Z</time>
      </trkpt>
      <trkpt lat="47.30746" lon="6.88502">
        <ele>747.204313</ele>
        <time>2021-04-29T16:54:11.780Z</time>
      </trkpt>
      <trkpt lat="47.30734" lon="6.88507">
        <ele>746.789116</ele>
        <time>2021-04-29T16:54:14.280Z</time>
      </trkpt>
      <trkpt lat="47.30639" lon="6.88579">
        <ele>744.714268</ele>
        <time>2021-04-29T16:54:38.759Z</time>
      </trkpt>
      <trkpt lat="47.30624" lon="6.88623">
        <ele>744.435361</ele>
        <time>2021-04-29T16:54:46.613Z</time>
      </trkpt>
      <trkpt lat="47.30616" lon="6.88704">
        <ele>743.969475</ele>
        <time>2021-04-29T16:54:59.984Z</time>
      </trkpt>
      <trkpt lat="47.30595" lon="6.88791">
        <ele>743.685464</ele>
        <time>2021-04-29T16:55:15.568Z</time>
      </trkpt>
      <trkpt lat="47.30585" lon="6.88817">
        <ele>743.694061</ele>
        <time>2021-04-29T16:55:20.619Z</time>
      </trkpt>
      <trkpt lat="47.30578" lon="6.88836">
        <ele>743.700641</ele>
        <time>2021-04-29T16:55:24.577Z</time>
      </trkpt>
      <trkpt lat="47.30548" lon="6.88898">
        <ele>743.722933</ele>
        <time>2021-04-29T16:55:38.376Z</time>
      </trkpt>
      <trkpt lat="47.30507" lon="6.88974">
        <ele>743.751839</ele>
        <time>2021-04-29T16:55:57.264Z</time>
      </trkpt>
      <trkpt lat="47.30472" lon="6.89035">
        <ele>744.247387</ele>
        <time>2021-04-29T16:56:13.241Z</time>
      </trkpt>
      <trkpt lat="47.30423" lon="6.89125">
        <ele>744.957981</ele>
        <time>2021-04-29T16:56:38.206Z</time>
      </trkpt>
      <trkpt lat="47.30372" lon="6.89215">
        <ele>745.575266</ele>
        <time>2021-04-29T16:57:04.026Z</time>
      </trkpt>
      <trkpt lat="47.30366" lon="6.89227">
        <ele>745.635904</ele>
        <time>2021-04-29T16:57:07.294Z</time>
      </trkpt>
      <trkpt lat="47.3034" lon="6.89268">
        <ele>745.845994</ele>
        <time>2021-04-29T16:57:18.271Z</time>
      </trkpt>
      <trkpt lat="47.3032" lon="6.89288">
        <ele>745.983775</ele>
        <time>2021-04-29T16:57:25.096Z</time>
      </trkpt>
      <trkpt lat="47.30319" lon="6.891">
        <ele>746.282002</ele>
        <time>2021-04-29T16:58:01.528Z</time>
      </trkpt>
      <trkpt lat="47.30312" lon="6.89055">
        <ele>746.206495</ele>
        <time>2021-04-29T16:58:09.123Z</time>
      </trkpt>
      <trkpt lat="47.30309" lon="6.89039">
        <ele>746.178512</ele>
        <time>2021-04-29T16:58:12.132Z</time>
      </trkpt>
      <trkpt lat="47.30294" lon="6.88994">
        <ele>746.094043</ele>
        <time>2021-04-29T16:58:20.424Z</time>
      </trkpt>
      <trkpt lat="47.30279" lon="6.88953">
        <ele>746.017505</ele>
        <time>2021-04-29T16:58:28.034Z</time>
      </trkpt>
      <trkpt lat="47.30265" lon="6.88914">
        <ele>745.930062</ele>
        <time>2021-04-29T16:58:35.393Z</time>
      </trkpt>
      <trkpt lat="47.30246" lon="6.88871">
        <ele>745.798934</ele>
        <time>2021-04-29T16:58:44.401Z</time>
      </trkpt>
      <trkpt lat="47.30208" lon="6.88824">
        <ele>745.61431</ele>
        <time>2021-04-29T16:58:57.519Z</time>
      </trkpt>
      <trkpt lat="47.3019" lon="6.88781">
        <ele>745.488052</ele>
        <time>2021-04-29T16:59:06.049Z</time>
      </trkpt>
      <trkpt lat="47.30184" lon="6.88751">
        <ele>745.406817</ele>
        <time>2021-04-29T16:59:11.274Z</time>
      </trkpt>
      <trkpt lat="47.30194" lon="6.88642">
        <ele>745.170734</ele>
        <time>2021-04-29T16:59:29.458Z</time>
      </trkpt>
      <trkpt lat="47.30186" lon="6.88588">
        <ele>745.066027</ele>
        <time>2021-04-29T16:59:38.962Z</time>
      </trkpt>
      <trkpt lat="47.30121" lon="6.88467">
        <ele>744.797862</ele>
        <time>2021-04-29T17:00:06.302Z</time>
      </trkpt>
      <trkpt lat="47.30086" lon="6.88417">
        <ele>744.828002</ele>
        <time>2021-04-29T17:00:19.048Z</time>
      </trkpt>
      <trkpt lat="47.30066" lon="6.88402">
        <ele>744.841865</ele>
        <time>2021-04-29T17:00:25.003Z</time>
      </trkpt>
      <trkpt lat="47.29963" lon="6.88351">
        <ele>744.93035</ele>
        <time>2021-04-29T17:00:55.108Z</time>
      </trkpt>
      <trkpt lat="47.29847" lon="6.88229">
        <ele>745.41853</ele>
        <time>2021-04-29T17:01:35.136Z</time>
      </trkpt>
      <trkpt lat="47.29799" lon="6.88199">
        <ele>745.822197</ele>
        <time>2021-04-29T17:01:50.105Z</time>
      </trkpt>
      <trkpt lat="47.29713" lon="6.8817">
        <ele>747.023722</ele>
        <time>2021-04-29T17:02:18.152Z</time>
      </trkpt>
      <trkpt lat="47.29692" lon="6.88156">
        <ele>747.339825</ele>
        <time>2021-04-29T17:02:26.442Z</time>
      </trkpt>
      <trkpt lat="47.29672" lon="6.88131">
        <ele>747.691704</ele>
        <time>2021-04-29T17:02:35.065Z</time>
      </trkpt>
      <trkpt lat="47.2967" lon="6.8812">
        <ele>747.805932</ele>
        <time>2021-04-29T17:02:38.805Z</time>
      </trkpt>
      <trkpt lat="47.29653" lon="6.88065">
        <ele>748.734944</ele>
        <time>2021-04-29T17:02:54.257Z</time>
      </trkpt>
      <trkpt lat="47.29629" lon="6.88025">
        <ele>749.697101</ele>
        <time>2021-04-29T17:03:08.637Z</time>
      </trkpt>
      <trkpt lat="47.29578" lon="6.87983">
        <ele>751.258174</ele>
        <time>2021-04-29T17:03:32.030Z</time>
      </trkpt>
      <trkpt lat="47.29509" lon="6.87899">
        <ele>753.350834</ele>
        <time>2021-04-29T17:04:09.182Z</time>
      </trkpt>
      <trkpt lat="47.29415" lon="6.87714">
        <ele>755.91524</ele>
        <time>2021-04-29T17:05:02.660Z</time>
      </trkpt>
      <trkpt lat="47.29374" lon="6.8761">
        <ele>756.007334</ele>
        <time>2021-04-29T17:05:24.851Z</time>
      </trkpt>
      <trkpt lat="47.29337" lon="6.87551">
        <ele>756.068658</ele>
        <time>2021-04-29T17:05:38.604Z</time>
      </trkpt>
      <trkpt lat="47.29319" lon="6.87506">
        <ele>756.108861</ele>
        <time>2021-04-29T17:05:47.414Z</time>
      </trkpt>
      <trkpt lat="47.29313" lon="6.8748">
        <ele>756.143862</ele>
        <time>2021-04-29T17:05:52.255Z</time>
      </trkpt>
      <trkpt lat="47.29308" lon="6.87458">
        <ele>756.172715</ele>
        <time>2021-04-29T17:05:56.119Z</time>
      </trkpt>
      <trkpt lat="47.29291" lon="6.874">
        <ele>756.252145</ele>
        <time>2021-04-29T17:06:07.325Z</time>
      </trkpt>
      <trkpt lat="47.29274" lon="6.87361">
        <ele>756.310852</ele>
        <time>2021-04-29T17:06:15.907Z</time>
      </trkpt>
      <trkpt lat="47.29257" lon="6.87338">
        <ele>756.352418</ele>
        <time>2021-04-29T17:06:22.249Z</time>
      </trkpt>
      <trkpt lat="47.2922" lon="6.87318">
        <ele>756.42612</ele>
        <time>2021-04-29T17:06:33.855Z</time>
      </trkpt>
      <trkpt lat="47.29196" lon="6.87316">
        <ele>756.689576</ele>
        <time>2021-04-29T17:06:41.215Z</time>
      </trkpt>
      <trkpt lat="47.29097" lon="6.87312">
        <ele>758.221265</ele>
        <time>2021-04-29T17:07:14.555Z</time>
      </trkpt>
      <trkpt lat="47.29021" lon="6.87312">
        <ele>759.542209</ele>
        <time>2021-04-29T17:07:42.248Z</time>
      </trkpt>
      <trkpt lat="47.28995" lon="6.87312">
        <ele>760.254036</ele>
        <time>2021-04-29T17:07:51.805Z</time>
      </trkpt>
      <trkpt lat="47.28972" lon="6.87307">
        <ele>760.902372</ele>
        <time>2021-04-29T17:08:00.929Z</time>
      </trkpt>
      <trkpt lat="47.28941" lon="6.8729">
        <ele>761.821383</ele>
        <time>2021-04-29T17:08:14.077Z</time>
      </trkpt>
      <trkpt lat="47.28874" lon="6.872">
        <ele>764.365308</ele>
        <time>2021-04-29T17:08:51.706Z</time>
      </trkpt>
      <trkpt lat="47.2886" lon="6.87191">
        <ele>764.978836</ele>
        <time>2021-04-29T17:08:58.438Z</time>
      </trkpt>
      <trkpt lat="47.28831" lon="6.87195">
        <ele>766.164309</ele>
        <time>2021-04-29T17:09:11.361Z</time>
      </trkpt>
      <trkpt lat="47.28796" lon="6.87213">
        <ele>767.665344</ele>
        <time>2021-04-29T17:09:28.378Z</time>
      </trkpt>
      <trkpt lat="47.28749" lon="6.87213">
        <ele>769.555989</ele>
        <time>2021-04-29T17:09:50.571Z</time>
      </trkpt>
      <trkpt lat="47.28717" lon="6.87194">
        <ele>770.955883</ele>
        <time>2021-04-29T17:10:07.480Z</time>
      </trkpt>
      <trkpt lat="47.28635" lon="6.87108">
        <ele>775.225163</ele>
        <time>2021-04-29T17:10:55.718Z</time>
      </trkpt>
      <trkpt lat="47.28595" lon="6.87079">
        <ele>777.153659</ele>
        <time>2021-04-29T17:11:17.541Z</time>
      </trkpt>
      <trkpt lat="47.28527" lon="6.87045">
        <ele>779.711044</ele>
        <time>2021-04-29T17:11:50.658Z</time>
      </trkpt>
      <trkpt lat="47.28469" lon="6.87022">
        <ele>780.98904</ele>
        <time>2021-04-29T17:12:15.590Z</time>
      </trkpt>
      <trkpt lat="47.28392" lon="6.87017">
        <ele>782.64093</ele>
        <time>2021-04-29T17:12:42.645Z</time>
      </trkpt>
      <trkpt lat="47.28369" lon="6.87009">
        <ele>782.954059</ele>
        <time>2021-04-29T17:12:49.466Z</time>
      </trkpt>
      <trkpt lat="47.28347" lon="6.87005">
        <ele>782.550387</ele>
        <time>2021-04-29T17:12:55.691Z</time>
      </trkpt>
      <trkpt lat="47.28345" lon="6.87004">
        <ele>782.512705</ele>
        <time>2021-04-29T17:12:56.174Z</time>
      </trkpt>
      <trkpt lat="47.28304" lon="6.87022">
        <ele>781.755103</ele>
        <time>2021-04-29T17:13:05.850Z</time>
      </trkpt>
      <trkpt lat="47.2827" lon="6.86952">
        <ele>780.703697</ele>
        <time>2021-04-29T17:13:18.165Z</time>
      </trkpt>
      <trkpt lat="47.28261" lon="6.86945">
        <ele>780.515301</ele>
        <time>2021-04-29T17:13:20.401Z</time>
      </trkpt>
      <trkpt lat="47.28257" lon="6.86925">
        <ele>780.267776</ele>
        <time>2021-04-29T17:13:23.077Z</time>
      </trkpt>
      <trkpt lat="47.28248" lon="6.86904">
        <ele>779.958664</ele>
        <time>2021-04-29T17:13:26.575Z</time>
      </trkpt>
      <trkpt lat="47.28237" lon="6.86888">
        <ele>779.782708</ele>
        <time>2021-04-29T17:13:29.659Z</time>
      </trkpt>
      <trkpt lat="47.28223" lon="6.8686">
        <ele>779.673335</ele>
        <time>2021-04-29T17:13:34.532Z</time>
      </trkpt>
      <trkpt lat="47.28217" lon="6.86833">
        <ele>779.585756</ele>
        <time>2021-04-29T17:13:38.435Z</time>
      </trkpt>
      <trkpt lat="47.28208" lon="6.86813">
        <ele>779.511414</ele>
        <time>2021-04-29T17:13:42.006Z</time>
      </trkpt>
      <trkpt lat="47.28211" lon="6.86771">
        <ele>779.380982</ele>
        <time>2021-04-29T17:13:48.517Z</time>
      </trkpt>
      <trkpt lat="47.28218" lon="6.86767">
        <ele>779.345929</ele>
        <time>2021-04-29T17:13:50.639Z</time>
      </trkpt>
      <trkpt lat="47.28223" lon="6.86764">
        <ele>779.321194</ele>
        <time>2021-04-29T17:13:52.052Z</time>
      </trkpt>
      <trkpt lat="47.28247" lon="6.86785">
        <ele>779.193228</ele>
        <time>2021-04-29T17:14:00.131Z</time>
      </trkpt>
      <trkpt lat="47.28247" lon="6.86786">
        <ele>779.191308</ele>
        <time>2021-04-29T17:14:00.355Z</time>
      </trkpt>
      <trkpt lat="47.28247" lon="6.86788">
        <ele>779.182477</ele>
        <time>2021-04-29T17:14:01.008Z</time>
      </trkpt>
      <trkpt lat="47.28249" lon="6.868">
        <ele>779.145337</ele>
        <time>2021-04-29T17:14:03.789Z</time>
      </trkpt>
      <trkpt lat="47.28244" lon="6.86806">
        <ele>779.112507</ele>
        <time>2021-04-29T17:14:05.743Z</time>
      </trkpt>
      <trkpt lat="47.28232" lon="6.8682">
        <ele>779.04385</ele>
        <time>2021-04-29T17:14:10.816Z</time>
      </trkpt>
      <trkpt lat="47.28217" lon="6.86833">
        <ele>779.215342</ele>
        <time>2021-04-29T17:14:17.284Z</time>
      </trkpt>
      <trkpt lat="47.28223" lon="6.8686">
        <ele>779.932868</ele>
        <time>2021-04-29T17:14:24.631Z</time>
      </trkpt>
      <trkpt lat="47.28237" lon="6.86888">
        <ele>780.828944</ele>
        <time>2021-04-29T17:14:35.006Z</time>
      </trkpt>
      <trkpt lat="47.28248" lon="6.86904">
        <ele>781.401093</ele>
        <time>2021-04-29T17:14:42.196Z</time>
      </trkpt>
      <trkpt lat="47.28257" lon="6.86925">
        <ele>782.048095</ele>
        <time>2021-04-29T17:14:50.117Z</time>
      </trkpt>
      <trkpt lat="47.28261" lon="6.86945">
        <ele>782.566189</ele>
        <time>2021-04-29T17:14:56.730Z</time>
      </trkpt>
      <trkpt lat="47.28262" lon="6.86966">
        <ele>783.117798</ele>
        <time>2021-04-29T17:15:03.961Z</time>
      </trkpt>
      <trkpt lat="47.28262" lon="6.87042">
        <ele>785.043042</ele>
        <time>2021-04-29T17:15:28.854Z</time>
      </trkpt>
      <trkpt lat="47.28262" lon="6.87106">
        <ele>786.531261</ele>
        <time>2021-04-29T17:15:50.563Z</time>
      </trkpt>
      <trkpt lat="47.28261" lon="6.87199">
        <ele>788.539546</ele>
        <time>2021-04-29T17:16:19.129Z</time>
      </trkpt>
      <trkpt lat="47.28255" lon="6.87203">
        <ele>788.75178</ele>
        <time>2021-04-29T17:16:22.462Z</time>
      </trkpt>
      <trkpt lat="47.28202" lon="6.87292">
        <ele>791.302346</ele>
        <time>2021-04-29T17:16:53.450Z</time>
      </trkpt>
      <trkpt lat="47.28189" lon="6.87315">
        <ele>791.664007</ele>
        <time>2021-04-29T17:17:00.600Z</time>
      </trkpt>
      <trkpt lat="47.2817" lon="6.87357">
        <ele>792.119797</ele>
        <time>2021-04-29T17:17:12.259Z</time>
      </trkpt>
      <trkpt lat="47.28157" lon="6.87385">
        <ele>792.423176</ele>
        <time>2021-04-29T17:17:19.829Z</time>
      </trkpt>
      <trkpt lat="47.28138" lon="6.87424">
        <ele>792.862535</ele>
        <time>2021-04-29T17:17:30.027Z</time>
      </trkpt>
      <trkpt lat="47.28099" lon="6.87513">
        <ele>793.822386</ele>
        <time>2021-04-29T17:17:54.234Z</time>
      </trkpt>
      <trkpt lat="47.28063" lon="6.87602">
        <ele>795.564043</ele>
        <time>2021-04-29T17:18:19.651Z</time>
      </trkpt>
      <trkpt lat="47.28053" lon="6.87626">
        <ele>796.047349</ele>
        <time>2021-04-29T17:18:27.322Z</time>
      </trkpt>
      <trkpt lat="47.28009" lon="6.87687">
        <ele>797.574655</ele>
        <time>2021-04-29T17:18:51.881Z</time>
      </trkpt>
      <trkpt lat="47.27969" lon="6.8777">
        <ele>799.849506</ele>
        <time>2021-04-29T17:19:22.487Z</time>
      </trkpt>
      <trkpt lat="47.2794" lon="6.87896">
        <ele>803.449811</ele>
        <time>2021-04-29T17:20:04.704Z</time>
      </trkpt>
      <trkpt lat="47.27936" lon="6.87943">
        <ele>804.716192</ele>
        <time>2021-04-29T17:20:19.620Z</time>
      </trkpt>
      <trkpt lat="47.27941" lon="6.88142">
        <ele>809.955601</ele>
        <time>2021-04-29T17:21:22.408Z</time>
      </trkpt>
      <trkpt lat="47.27939" lon="6.8819">
        <ele>811.212811</ele>
        <time>2021-04-29T17:21:36.938Z</time>
      </trkpt>
      <trkpt lat="47.27921" lon="6.88273">
        <ele>813.228919</ele>
        <time>2021-04-29T17:22:02.380Z</time>
      </trkpt>
      <trkpt lat="47.27906" lon="6.88317">
        <ele>814.200164</ele>
        <time>2021-04-29T17:22:16.513Z</time>
      </trkpt>
      <trkpt lat="47.27883" lon="6.88362">
        <ele>815.288882</ele>
        <time>2021-04-29T17:22:31.931Z</time>
      </trkpt>
      <trkpt lat="47.27772" lon="6.88508">
        <ele>819.326204</ele>
        <time>2021-04-29T17:23:29.463Z</time>
      </trkpt>
      <trkpt lat="47.27756" lon="6.88535">
        <ele>819.9297</ele>
        <time>2021-04-29T17:23:38.597Z</time>
      </trkpt>
      <trkpt lat="47.27709" lon="6.88661">
        <ele>822.42706</ele>
        <time>2021-04-29T17:24:16.499Z</time>
      </trkpt>
      <trkpt lat="47.27675" lon="6.88871">
        <ele>826.74616</ele>
        <time>2021-04-29T17:25:16.187Z</time>
      </trkpt>
      <trkpt lat="47.27668" lon="6.88958">
        <ele>828.699764</ele>
        <time>2021-04-29T17:25:41.226Z</time>
      </trkpt>
      <trkpt lat="47.2767" lon="6.89216">
        <ele>834.991523</ele>
        <time>2021-04-29T17:26:59.503Z</time>
      </trkpt>
      <trkpt lat="47.27675" lon="6.89338">
        <ele>837.963491</ele>
        <time>2021-04-29T17:27:37.198Z</time>
      </trkpt>
      <trkpt lat="47.27668" lon="6.89463">
        <ele>840.660894</ele>
        <time>2021-04-29T17:28:13.597Z</time>
      </trkpt>
      <trkpt lat="47.27671" lon="6.89556">
        <ele>841.712026</ele>
        <time>2021-04-29T17:28:37.671Z</time>
      </trkpt>
      <trkpt lat="47.27683" lon="6.89645">
        <ele>842.747826</ele>
        <time>2021-04-29T17:28:57.966Z</time>
      </trkpt>
      <trkpt lat="47.27717" lon="6.89718">
        <ele>843.300138</ele>
        <time>2021-04-29T17:29:14.843Z</time>
      </trkpt>
      <trkpt lat="47.27729" lon="6.89759">
        <ele>843.222617</ele>
        <time>2021-04-29T17:29:22.613Z</time>
      </trkpt>
      <trkpt lat="47.27771" lon="6.90022">
        <ele>843.161453</ele>
        <time>2021-04-29T17:30:08.083Z</time>
      </trkpt>
      <trkpt lat="47.27787" lon="6.90094">
        <ele>843.40048</ele>
        <time>2021-04-29T17:30:22.458Z</time>
      </trkpt>
      <trkpt lat="47.27857" lon="6.90286">
        <ele>845.466639</ele>
        <time>2021-04-29T17:31:11.747Z</time>
      </trkpt>
      <trkpt lat="47.27878" lon="6.90367">
        <ele>846.792792</ele>
        <time>2021-04-29T17:31:34.461Z</time>
      </trkpt>
      <trkpt lat="47.27942" lon="6.90632">
        <ele>852.976486</ele>
        <time>2021-04-29T17:32:57.297Z</time>
      </trkpt>
      <trkpt lat="47.27999" lon="6.90959">
        <ele>861.274299</ele>
        <time>2021-04-29T17:34:41.785Z</time>
      </trkpt>
      <trkpt lat="47.28023" lon="6.91055">
        <ele>862.362148</ele>
        <time>2021-04-29T17:35:10.035Z</time>
      </trkpt>
      <trkpt lat="47.28035" lon="6.91109">
        <ele>862.968365</ele>
        <time>2021-04-29T17:35:22.940Z</time>
      </trkpt>
      <trkpt lat="47.28036" lon="6.91144">
        <ele>863.339879</ele>
        <time>2021-04-29T17:35:29.902Z</time>
      </trkpt>
      <trkpt lat="47.28035" lon="6.91156">
        <ele>863.463295</ele>
        <time>2021-04-29T17:35:32.370Z</time>
      </trkpt>
      <trkpt lat="47.28017" lon="6.9125">
        <ele>862.697025</ele>
        <time>2021-04-29T17:35:47.048Z</time>
      </trkpt>
      <trkpt lat="47.28017" lon="6.9128">
        <ele>862.152902</ele>
        <time>2021-04-29T17:35:51.402Z</time>
      </trkpt>
      <trkpt lat="47.28017" lon="6.91306">
        <ele>861.662459</ele>
        <time>2021-04-29T17:35:54.781Z</time>
      </trkpt>
      <trkpt lat="47.28016" lon="6.91393">
        <ele>860.037259</ele>
        <time>2021-04-29T17:36:06.377Z</time>
      </trkpt>
      <trkpt lat="47.28015" lon="6.91407">
        <ele>859.792114</ele>
        <time>2021-04-29T17:36:07.983Z</time>
      </trkpt>
      <trkpt lat="47.28016" lon="6.91421">
        <ele>859.5172</ele>
        <time>2021-04-29T17:36:10.050Z</time>
      </trkpt>
      <trkpt lat="47.2802" lon="6.91444">
        <ele>859.091074</ele>
        <time>2021-04-29T17:36:13.123Z</time>
      </trkpt>
      <trkpt lat="47.28022" lon="6.91493">
        <ele>857.865234</ele>
        <time>2021-04-29T17:36:19.881Z</time>
      </trkpt>
      <trkpt lat="47.28037" lon="6.91536">
        <ele>856.62781</ele>
        <time>2021-04-29T17:36:26.424Z</time>
      </trkpt>
      <trkpt lat="47.2804" lon="6.9154">
        <ele>856.459482</ele>
        <time>2021-04-29T17:36:27.218Z</time>
      </trkpt>
      <trkpt lat="47.28038" lon="6.91548">
        <ele>856.252958</ele>
        <time>2021-04-29T17:36:28.368Z</time>
      </trkpt>
      <trkpt lat="47.28033" lon="6.91582">
        <ele>855.344944</ele>
        <time>2021-04-29T17:36:32.987Z</time>
      </trkpt>
      <trkpt lat="47.28033" lon="6.91591">
        <ele>855.105652</ele>
        <time>2021-04-29T17:36:34.176Z</time>
      </trkpt>
      <trkpt lat="47.28045" lon="6.91633">
        <ele>853.91094</ele>
        <time>2021-04-29T17:36:40.034Z</time>
      </trkpt>
      <trkpt lat="47.28048" lon="6.91678">
        <ele>852.746354</ele>
        <time>2021-04-29T17:36:45.906Z</time>
      </trkpt>
      <trkpt lat="47.28042" lon="6.91737">
        <ele>851.272776</ele>
        <time>2021-04-29T17:36:53.979Z</time>
      </trkpt>
      <trkpt lat="47.28044" lon="6.91763">
        <ele>850.68167</ele>
        <time>2021-04-29T17:36:57.483Z</time>
      </trkpt>
      <trkpt lat="47.2805" lon="6.9178">
        <ele>850.225537</ele>
        <time>2021-04-29T17:36:59.883Z</time>
      </trkpt>
      <trkpt lat="47.28082" lon="6.91832">
        <ele>848.586312</ele>
        <time>2021-04-29T17:37:09.359Z</time>
      </trkpt>
      <trkpt lat="47.28139" lon="6.92077">
        <ele>842.001813</ele>
        <time>2021-04-29T17:37:42.866Z</time>
      </trkpt>
      <trkpt lat="47.2822" lon="6.92291">
        <ele>834.198939</ele>
        <time>2021-04-29T17:38:13.928Z</time>
      </trkpt>
      <trkpt lat="47.28288" lon="6.92428">
        <ele>827.78343</ele>
        <time>2021-04-29T17:38:34.213Z</time>
      </trkpt>
      <trkpt lat="47.2831" lon="6.92471">
        <ele>825.327721</ele>
        <time>2021-04-29T17:38:40.439Z</time>
      </trkpt>
      <trkpt lat="47.28393" lon="6.92604">
        <ele>816.915317</ele>
        <time>2021-04-29T17:39:01.506Z</time>
      </trkpt>
      <trkpt lat="47.28455" lon="6.92686">
        <ele>811.519603</ele>
        <time>2021-04-29T17:39:15.802Z</time>
      </trkpt>
      <trkpt lat="47.28541" lon="6.92744">
        <ele>805.371741</ele>
        <time>2021-04-29T17:39:32.484Z</time>
      </trkpt>
      <trkpt lat="47.28563" lon="6.92764">
        <ele>804.143123</ele>
        <time>2021-04-29T17:39:37.062Z</time>
      </trkpt>
      <trkpt lat="47.28574" lon="6.92779">
        <ele>803.467667</ele>
        <time>2021-04-29T17:39:39.807Z</time>
      </trkpt>
      <trkpt lat="47.286" lon="6.92847">
        <ele>801.098964</ele>
        <time>2021-04-29T17:39:49.554Z</time>
      </trkpt>
      <trkpt lat="47.28624" lon="6.92942">
        <ele>798.032634</ele>
        <time>2021-04-29T17:40:02.683Z</time>
      </trkpt>
      <trkpt lat="47.28638" lon="6.93053">
        <ele>793.593144</ele>
        <time>2021-04-29T17:40:17.280Z</time>
      </trkpt>
      <trkpt lat="47.28635" lon="6.93127">
        <ele>790.434246</ele>
        <time>2021-04-29T17:40:26.238Z</time>
      </trkpt>
      <trkpt lat="47.28616" lon="6.93236">
        <ele>785.564428</ele>
        <time>2021-04-29T17:40:39.164Z</time>
      </trkpt>
      <trkpt lat="47.28617" lon="6.9335">
        <ele>776.76746</ele>
        <time>2021-04-29T17:40:51.702Z</time>
      </trkpt>
      <trkpt lat="47.286" lon="6.93447">
        <ele>769.013195</ele>
        <time>2021-04-29T17:41:02.508Z</time>
      </trkpt>
      <trkpt lat="47.28568" lon="6.93497">
        <ele>763.655789</ele>
        <time>2021-04-29T17:41:10.014Z</time>
      </trkpt>
      <trkpt lat="47.28527" lon="6.93525">
        <ele>758.687337</ele>
        <time>2021-04-29T17:41:17.151Z</time>
      </trkpt>
      <trkpt lat="47.28471" lon="6.93511">
        <ele>752.399214</ele>
        <time>2021-04-29T17:41:26.298Z</time>
      </trkpt>
      <trkpt lat="47.2845" lon="6.93523">
        <ele>749.871191</ele>
        <time>2021-04-29T17:41:29.993Z</time>
      </trkpt>
      <trkpt lat="47.28411" lon="6.93561">
        <ele>744.87174</ele>
        <time>2021-04-29T17:41:37.510Z</time>
      </trkpt>
      <trkpt lat="47.28388" lon="6.93573">
        <ele>742.925603</ele>
        <time>2021-04-29T17:41:41.601Z</time>
      </trkpt>
      <trkpt lat="47.28369" lon="6.93568">
        <ele>741.4347</ele>
        <time>2021-04-29T17:41:44.707Z</time>
      </trkpt>
      <trkpt lat="47.28352" lon="6.93548">
        <ele>739.685054</ele>
        <time>2021-04-29T17:41:48.490Z</time>
      </trkpt>
      <trkpt lat="47.28328" lon="6.93502">
        <ele>736.552099</ele>
        <time>2021-04-29T17:41:55.243Z</time>
      </trkpt>
      <trkpt lat="47.28326" lon="6.93497">
        <ele>736.276209</ele>
        <time>2021-04-29T17:41:55.791Z</time>
      </trkpt>
      <trkpt lat="47.28227" lon="6.93337">
        <ele>727.165519</ele>
        <time>2021-04-29T17:42:21.338Z</time>
      </trkpt>
      <trkpt lat="47.28196" lon="6.93269">
        <ele>724.502785</ele>
        <time>2021-04-29T17:42:31.655Z</time>
      </trkpt>
      <trkpt lat="47.28043" lon="6.93063">
        <ele>720.138242</ele>
        <time>2021-04-29T17:43:15.038Z</time>
      </trkpt>
      <trkpt lat="47.28014" lon="6.93015">
        <ele>720.816955</ele>
        <time>2021-04-29T17:43:30.792Z</time>
      </trkpt>
      <trkpt lat="47.27979" lon="6.92896">
        <ele>723.690109</ele>
        <time>2021-04-29T17:44:10.477Z</time>
      </trkpt>
      <trkpt lat="47.27952" lon="6.92831">
        <ele>725.383699</ele>
        <time>2021-04-29T17:44:36.019Z</time>
      </trkpt>
      <trkpt lat="47.27923" lon="6.92791">
        <ele>726.052876</ele>
        <time>2021-04-29T17:44:54.740Z</time>
      </trkpt>
      <trkpt lat="47.27898" lon="6.92792">
        <ele>726.294909</ele>
        <time>2021-04-29T17:45:05.831Z</time>
      </trkpt>
      <trkpt lat="47.27879" lon="6.92808">
        <ele>726.49432</ele>
        <time>2021-04-29T17:45:14.538Z</time>
      </trkpt>
      <trkpt lat="47.2787" lon="6.9283">
        <ele>726.659976</ele>
        <time>2021-04-29T17:45:21.345Z</time>
      </trkpt>
      <trkpt lat="47.27866" lon="6.92854">
        <ele>726.820042</ele>
        <time>2021-04-29T17:45:27.313Z</time>
      </trkpt>
      <trkpt lat="47.27869" lon="6.93053">
        <ele>723.884772</ele>
        <time>2021-04-29T17:45:54.873Z</time>
      </trkpt>
      <trkpt lat="47.27866" lon="6.93086">
        <ele>722.588139</ele>
        <time>2021-04-29T17:45:58.883Z</time>
      </trkpt>
      <trkpt lat="47.27859" lon="6.9311">
        <ele>721.581558</ele>
        <time>2021-04-29T17:46:01.969Z</time>
      </trkpt>
      <trkpt lat="47.27823" lon="6.93187">
        <ele>717.95269</ele>
        <time>2021-04-29T17:46:12.821Z</time>
      </trkpt>
      <trkpt lat="47.27815" lon="6.93218">
        <ele>716.23149</ele>
        <time>2021-04-29T17:46:16.595Z</time>
      </trkpt>
      <trkpt lat="47.27812" lon="6.93374">
        <ele>705.749315</ele>
        <time>2021-04-29T17:46:33.892Z</time>
      </trkpt>
      <trkpt lat="47.27808" lon="6.9363">
        <ele>688.387518</ele>
        <time>2021-04-29T17:47:02.087Z</time>
      </trkpt>
      <trkpt lat="47.27802" lon="6.93771">
        <ele>679.460212</ele>
        <time>2021-04-29T17:47:17.916Z</time>
      </trkpt>
      <trkpt lat="47.27787" lon="6.9385">
        <ele>675.448415</ele>
        <time>2021-04-29T17:47:27.329Z</time>
      </trkpt>
      <trkpt lat="47.27779" lon="6.93872">
        <ele>674.204726</ele>
        <time>2021-04-29T17:47:30.303Z</time>
      </trkpt>
      <trkpt lat="47.27693" lon="6.9399">
        <ele>666.299944</ele>
        <time>2021-04-29T17:47:51.091Z</time>
      </trkpt>
      <trkpt lat="47.27679" lon="6.9402">
        <ele>664.894127</ele>
        <time>2021-04-29T17:47:55.619Z</time>
      </trkpt>
      <trkpt lat="47.27659" lon="6.94088">
        <ele>662.010656</ele>
        <time>2021-04-29T17:48:04.984Z</time>
      </trkpt>
      <trkpt lat="47.27629" lon="6.9413">
        <ele>659.657379</ele>
        <time>2021-04-29T17:48:12.145Z</time>
      </trkpt>
      <trkpt lat="47.27618" lon="6.94141">
        <ele>658.895722</ele>
        <time>2021-04-29T17:48:14.310Z</time>
      </trkpt>
      <trkpt lat="47.27606" lon="6.94154">
        <ele>657.978101</ele>
        <time>2021-04-29T17:48:17.179Z</time>
      </trkpt>
      <trkpt lat="47.27575" lon="6.9419">
        <ele>654.328685</ele>
        <time>2021-04-29T17:48:24.013Z</time>
      </trkpt>
      <trkpt lat="47.27566" lon="6.94203">
        <ele>653.225688</ele>
        <time>2021-04-29T17:48:25.948Z</time>
      </trkpt>
      <trkpt lat="47.27562" lon="6.9421">
        <ele>652.632715</ele>
        <time>2021-04-29T17:48:27.017Z</time>
      </trkpt>
      <trkpt lat="47.27553" lon="6.94228">
        <ele>651.257318</ele>
        <time>2021-04-29T17:48:29.688Z</time>
      </trkpt>
      <trkpt lat="47.27549" lon="6.94237">
        <ele>650.563902</ele>
        <time>2021-04-29T17:48:30.948Z</time>
      </trkpt>
      <trkpt lat="47.27557" lon="6.94245">
        <ele>649.726526</ele>
        <time>2021-04-29T17:48:32.449Z</time>
      </trkpt>
      <trkpt lat="47.27572" lon="6.94242">
        <ele>648.308929</ele>
        <time>2021-04-29T17:48:35.205Z</time>
      </trkpt>
      <trkpt lat="47.2759" lon="6.94264">
        <ele>646.166512</ele>
        <time>2021-04-29T17:48:39.141Z</time>
      </trkpt>
      <trkpt lat="47.27616" lon="6.94318">
        <ele>642.015907</ele>
        <time>2021-04-29T17:48:46.830Z</time>
      </trkpt>
      <trkpt lat="47.27604" lon="6.94385">
        <ele>636.388729</ele>
        <time>2021-04-29T17:48:54.799Z</time>
      </trkpt>
      <trkpt lat="47.27575" lon="6.94421">
        <ele>631.777996</ele>
        <time>2021-04-29T17:49:01.097Z</time>
      </trkpt>
      <trkpt lat="47.27522" lon="6.94465">
        <ele>624.369863</ele>
        <time>2021-04-29T17:49:11.257Z</time>
      </trkpt>
      <trkpt lat="47.27494" lon="6.94505">
        <ele>619.592599</ele>
        <time>2021-04-29T17:49:17.775Z</time>
      </trkpt>
      <trkpt lat="47.27413" lon="6.94568">
        <ele>606.524693</ele>
        <time>2021-04-29T17:49:32.847Z</time>
      </trkpt>
      <trkpt lat="47.27392" lon="6.94572">
        <ele>603.422925</ele>
        <time>2021-04-29T17:49:36.419Z</time>
      </trkpt>
      <trkpt lat="47.27286" lon="6.94567">
        <ele>587.971608</ele>
        <time>2021-04-29T17:49:53.612Z</time>
      </trkpt>
      <trkpt lat="47.27284" lon="6.94579">
        <ele>586.705021</ele>
        <time>2021-04-29T17:49:54.944Z</time>
      </trkpt>
      <trkpt lat="47.27315" lon="6.94664">
        <ele>576.75879</ele>
        <time>2021-04-29T17:50:05.772Z</time>
      </trkpt>
      <trkpt lat="47.27313" lon="6.9467">
        <ele>576.140376</ele>
        <time>2021-04-29T17:50:06.442Z</time>
      </trkpt>
      <trkpt lat="47.27307" lon="6.94672">
        <ele>575.255072</ele>
        <time>2021-04-29T17:50:07.366Z</time>
      </trkpt>
      <trkpt lat="47.27275" lon="6.94662">
        <ele>570.166154</ele>
        <time>2021-04-29T17:50:12.880Z</time>
      </trkpt>
      <trkpt lat="47.27199" lon="6.94715">
        <ele>560.241899</ele>
        <time>2021-04-29T17:50:26.823Z</time>
      </trkpt>
      <trkpt lat="47.27137" lon="6.94721">
        <ele>553.660289</ele>
        <time>2021-04-29T17:50:37.464Z</time>
      </trkpt>
      <trkpt lat="47.27057" lon="6.94821">
        <ele>543.258194</ele>
        <time>2021-04-29T17:50:55.964Z</time>
      </trkpt>
      <trkpt lat="47.27025" lon="6.9484">
        <ele>539.995354</ele>
        <time>2021-04-29T17:51:01.917Z</time>
      </trkpt>
      <trkpt lat="47.26983" lon="6.94854">
        <ele>536.032872</ele>
        <time>2021-04-29T17:51:09.218Z</time>
      </trkpt>
      <trkpt lat="47.26913" lon="6.949">
        <ele>528.847674</ele>
        <time>2021-04-29T17:51:22.350Z</time>
      </trkpt>
      <trkpt lat="47.26906" lon="6.94917">
        <ele>527.509186</ele>
        <time>2021-04-29T17:51:24.767Z</time>
      </trkpt>
      <trkpt lat="47.26905" lon="6.94932">
        <ele>526.526174</ele>
        <time>2021-04-29T17:51:26.445Z</time>
      </trkpt>
      <trkpt lat="47.26906" lon="6.94942">
        <ele>525.853816</ele>
        <time>2021-04-29T17:51:27.709Z</time>
      </trkpt>
      <trkpt lat="47.26956" lon="6.95012">
        <ele>519.292186</ele>
        <time>2021-04-29T17:51:39.440Z</time>
      </trkpt>
      <trkpt lat="47.26958" lon="6.95027">
        <ele>518.316785</ele>
        <time>2021-04-29T17:51:41.247Z</time>
      </trkpt>
      <trkpt lat="47.26955" lon="6.95033">
        <ele>517.793272</ele>
        <time>2021-04-29T17:51:42.172Z</time>
      </trkpt>
      <trkpt lat="47.26936" lon="6.9504">
        <ele>515.938828</ele>
        <time>2021-04-29T17:51:45.383Z</time>
      </trkpt>
      <trkpt lat="47.26918" lon="6.95039">
        <ele>514.19765</ele>
        <time>2021-04-29T17:51:48.547Z</time>
      </trkpt>
      <trkpt lat="47.26858" lon="6.95005">
        <ele>509.977828</ele>
        <time>2021-04-29T17:51:59.898Z</time>
      </trkpt>
      <trkpt lat="47.26837" lon="6.95001">
        <ele>508.647635</ele>
        <time>2021-04-29T17:52:03.791Z</time>
      </trkpt>
      <trkpt lat="47.26818" lon="6.94999">
        <ele>507.49183</ele>
        <time>2021-04-29T17:52:07.287Z</time>
      </trkpt>
      <trkpt lat="47.2681" lon="6.94996">
        <ele>506.96781</ele>
        <time>2021-04-29T17:52:08.757Z</time>
      </trkpt>
      <trkpt lat="47.26749" lon="6.94989">
        <ele>503.121564</ele>
        <time>2021-04-29T17:52:20.705Z</time>
      </trkpt>
      <trkpt lat="47.26704" lon="6.94953">
        <ele>501.507106</ele>
        <time>2021-04-29T17:52:30.931Z</time>
      </trkpt>
      <trkpt lat="47.26666" lon="6.94956">
        <ele>500.647237</ele>
        <time>2021-04-29T17:52:38.860Z</time>
      </trkpt>
      <trkpt lat="47.26579" lon="6.9494">
        <ele>498.672277</ele>
        <time>2021-04-29T17:52:59.273Z</time>
      </trkpt>
      <trkpt lat="47.2657" lon="6.94941">
        <ele>498.46697</ele>
        <time>2021-04-29T17:53:02.263Z</time>
      </trkpt>
      <trkpt lat="47.26561" lon="6.94942">
        <ele>498.318654</ele>
        <time>2021-04-29T17:53:04.282Z</time>
      </trkpt>
      <trkpt lat="47.26553" lon="6.94944">
        <ele>498.250417</ele>
        <time>2021-04-29T17:53:06.250Z</time>
      </trkpt>
      <trkpt lat="47.26546" lon="6.94946">
        <ele>498.196455</ele>
        <time>2021-04-29T17:53:07.610Z</time>
      </trkpt>
      <trkpt lat="47.2652" lon="6.9496">
        <ele>497.968746</ele>
        <time>2021-04-29T17:53:14.820Z</time>
      </trkpt>
      <trkpt lat="47.26486" lon="6.95006">
        <ele>497.593438</ele>
        <time>2021-04-29T17:53:25.714Z</time>
      </trkpt>
      <trkpt lat="47.26454" lon="6.95017">
        <ele>497.321705</ele>
        <time>2021-04-29T17:53:34.130Z</time>
      </trkpt>
      <trkpt lat="47.26437" lon="6.95014">
        <ele>497.18134</ele>
        <time>2021-04-29T17:53:38.939Z</time>
      </trkpt>
      <trkpt lat="47.26373" lon="6.9498">
        <ele>496.860503</ele>
        <time>2021-04-29T17:53:56.054Z</time>
      </trkpt>
      <trkpt lat="47.26367" lon="6.94977">
        <ele>496.85639</ele>
        <time>2021-04-29T17:53:57.514Z</time>
      </trkpt>
      <trkpt lat="47.26362" lon="6.94975">
        <ele>496.853011</ele>
        <time>2021-04-29T17:53:59.385Z</time>
      </trkpt>
      <trkpt lat="47.26188" lon="6.9499">
        <ele>498.069771</ele>
        <time>2021-04-29T17:54:47.865Z</time>
      </trkpt>
      <trkpt lat="47.26182" lon="6.9499">
        <ele>498.262947</ele>
        <time>2021-04-29T17:54:50.692Z</time>
      </trkpt>
      <trkpt lat="47.26181" lon="6.9499">
        <ele>498.312176</ele>
        <time>2021-04-29T17:54:50.981Z</time>
      </trkpt>
      <trkpt lat="47.26168" lon="6.94998">
        <ele>498.793391</ele>
        <time>2021-04-29T17:54:55.440Z</time>
      </trkpt>
      <trkpt lat="47.26166" lon="6.95">
        <ele>498.879647</ele>
        <time>2021-04-29T17:54:56.362Z</time>
      </trkpt>
      <trkpt lat="47.26168" lon="6.95002">
        <ele>498.965705</ele>
        <time>2021-04-29T17:54:56.878Z</time>
      </trkpt>
      <trkpt lat="47.26172" lon="6.95031">
        <ele>499.663195</ele>
        <time>2021-04-29T17:55:05.126Z</time>
      </trkpt>
      <trkpt lat="47.26172" lon="6.95038">
        <ele>499.834959</ele>
        <time>2021-04-29T17:55:06.798Z</time>
      </trkpt>
      <trkpt lat="47.26179" lon="6.95038">
        <ele>500.084512</ele>
        <time>2021-04-29T17:55:09.075Z</time>
      </trkpt>
      <trkpt lat="47.26178" lon="6.95059">
        <ele>500.57615</ele>
        <time>2021-04-29T17:55:14.435Z</time>
      </trkpt>
      <trkpt lat="47.26179" lon="6.95038">
        <ele>501.067789</ele>
        <time>2021-04-29T17:55:23.632Z</time>
      </trkpt>
      <trkpt lat="47.26172" lon="6.95038">
        <ele>501.317342</ele>
        <time>2021-04-29T17:55:25.863Z</time>
      </trkpt>
      <trkpt lat="47.26172" lon="6.95031">
        <ele>501.489106</ele>
        <time>2021-04-29T17:55:27.284Z</time>
      </trkpt>
      <trkpt lat="47.26168" lon="6.95002">
        <ele>502.186596</ele>
        <time>2021-04-29T17:55:39.440Z</time>
      </trkpt>
      <trkpt lat="47.26166" lon="6.95">
        <ele>502.272654</ele>
        <time>2021-04-29T17:55:40.597Z</time>
      </trkpt>
      <trkpt lat="47.26168" lon="6.94998">
        <ele>502.35891</ele>
        <time>2021-04-29T17:55:41.291Z</time>
      </trkpt>
      <trkpt lat="47.26181" lon="6.9499">
        <ele>502.840125</ele>
        <time>2021-04-29T17:55:49.508Z</time>
      </trkpt>
      <trkpt lat="47.26182" lon="6.9499">
        <ele>502.889354</ele>
        <time>2021-04-29T17:55:50.165Z</time>
      </trkpt>
      <trkpt lat="47.26182" lon="6.94974">
        <ele>503.74011</ele>
        <time>2021-04-29T17:55:57.714Z</time>
      </trkpt>
      <trkpt lat="47.26152" lon="6.94936">
        <ele>508.343094</ele>
        <time>2021-04-29T17:56:25.150Z</time>
      </trkpt>
      <trkpt lat="47.2614" lon="6.94896">
        <ele>511.818631</ele>
        <time>2021-04-29T17:56:49.265Z</time>
      </trkpt>
      <trkpt lat="47.26138" lon="6.94893">
        <ele>512.161319</ele>
        <time>2021-04-29T17:56:53.248Z</time>
      </trkpt>
      <trkpt lat="47.26136" lon="6.94888">
        <ele>512.60901</ele>
        <time>2021-04-29T17:56:57.057Z</time>
      </trkpt>
      <trkpt lat="47.26124" lon="6.94848">
        <ele>516.098907</ele>
        <time>2021-04-29T17:57:23.614Z</time>
      </trkpt>
      <trkpt lat="47.26125" lon="6.94823">
        <ele>518.117166</ele>
        <time>2021-04-29T17:57:37.116Z</time>
      </trkpt>
      <trkpt lat="47.26127" lon="6.9482">
        <ele>518.449121</ele>
        <time>2021-04-29T17:57:40.459Z</time>
      </trkpt>
      <trkpt lat="47.2613" lon="6.94817">
        <ele>518.807443</ele>
        <time>2021-04-29T17:57:43.986Z</time>
      </trkpt>
      <trkpt lat="47.26142" lon="6.94797">
        <ele>521.017517</ele>
        <time>2021-04-29T17:58:05.388Z</time>
      </trkpt>
      <trkpt lat="47.26136" lon="6.94774">
        <ele>523.010722</ele>
        <time>2021-04-29T17:58:18.368Z</time>
      </trkpt>
      <trkpt lat="47.26134" lon="6.94771">
        <ele>523.31982</ele>
        <time>2021-04-29T17:58:22.023Z</time>
      </trkpt>
      <trkpt lat="47.26133" lon="6.94769">
        <ele>523.584764</ele>
        <time>2021-04-29T17:58:24.587Z</time>
      </trkpt>
      <trkpt lat="47.2611" lon="6.9474">
        <ele>527.194456</ele>
        <time>2021-04-29T17:58:52.603Z</time>
      </trkpt>
      <trkpt lat="47.26096" lon="6.94725">
        <ele>529.359344</ele>
        <time>2021-04-29T17:59:11.788Z</time>
      </trkpt>
      <trkpt lat="47.26087" lon="6.94703">
        <ele>531.470606</ele>
        <time>2021-04-29T17:59:26.871Z</time>
      </trkpt>
      <trkpt lat="47.26082" lon="6.94655">
        <ele>535.567731</ele>
        <time>2021-04-29T17:59:55.600Z</time>
      </trkpt>
      <trkpt lat="47.26052" lon="6.94646">
        <ele>539.322629</ele>
        <time>2021-04-29T18:00:23.779Z</time>
      </trkpt>
      <trkpt lat="47.26052" lon="6.94622">
        <ele>541.38559</ele>
        <time>2021-04-29T18:00:39.318Z</time>
      </trkpt>
      <trkpt lat="47.26048" lon="6.94615">
        <ele>542.134815</ele>
        <time>2021-04-29T18:00:43.737Z</time>
      </trkpt>
      <trkpt lat="47.26023" lon="6.94598">
        <ele>545.585045</ele>
        <time>2021-04-29T18:01:05.188Z</time>
      </trkpt>
      <trkpt lat="47.2602" lon="6.94601">
        <ele>546.051801</ele>
        <time>2021-04-29T18:01:07.345Z</time>
      </trkpt>
      <trkpt lat="47.26016" lon="6.94604">
        <ele>546.433489</ele>
        <time>2021-04-29T18:01:10.544Z</time>
      </trkpt>
      <trkpt lat="47.2601" lon="6.94611">
        <ele>546.960396</ele>
        <time>2021-04-29T18:01:15.820Z</time>
      </trkpt>
      <trkpt lat="47.26005" lon="6.94608">
        <ele>547.378642</ele>
        <time>2021-04-29T18:01:20.408Z</time>
      </trkpt>
      <trkpt lat="47.25954" lon="6.94591">
        <ele>550.933385</ele>
        <time>2021-04-29T18:01:53.495Z</time>
      </trkpt>
      <trkpt lat="47.25894" lon="6.94545">
        <ele>555.536674</ele>
        <time>2021-04-29T18:02:33.805Z</time>
      </trkpt>
      <trkpt lat="47.2587" lon="6.94513">
        <ele>557.707367</ele>
        <time>2021-04-29T18:02:48.745Z</time>
      </trkpt>
      <trkpt lat="47.25838" lon="6.94454">
        <ele>560.301146</ele>
        <time>2021-04-29T18:03:14.727Z</time>
      </trkpt>
      <trkpt lat="47.25771" lon="6.94385">
        <ele>563.944264</ele>
        <time>2021-04-29T18:03:55.088Z</time>
      </trkpt>
      <trkpt lat="47.25735" lon="6.94382">
        <ele>565.565318</ele>
        <time>2021-04-29T18:04:12.697Z</time>
      </trkpt>
      <trkpt lat="47.25698" lon="6.94371">
        <ele>567.282767</ele>
        <time>2021-04-29T18:04:30.865Z</time>
      </trkpt>
      <trkpt lat="47.25689" lon="6.94368">
        <ele>567.689018</ele>
        <time>2021-04-29T18:04:34.136Z</time>
      </trkpt>
      <trkpt lat="47.25685" lon="6.94366">
        <ele>567.894454</ele>
        <time>2021-04-29T18:04:37.218Z</time>
      </trkpt>
      <trkpt lat="47.25671" lon="6.94357">
        <ele>568.589029</ele>
        <time>2021-04-29T18:04:44.555Z</time>
      </trkpt>
      <trkpt lat="47.25588" lon="6.94246">
        <ele>573.637159</ele>
        <time>2021-04-29T18:05:38.420Z</time>
      </trkpt>
      <trkpt lat="47.25544" lon="6.94219">
        <ele>576.290147</ele>
        <time>2021-04-29T18:06:05.142Z</time>
      </trkpt>
      <trkpt lat="47.25488" lon="6.94207">
        <ele>579.997536</ele>
        <time>2021-04-29T18:06:35.506Z</time>
      </trkpt>
      <trkpt lat="47.25456" lon="6.94184">
        <ele>582.365235</ele>
        <time>2021-04-29T18:06:56.057Z</time>
      </trkpt>
      <trkpt lat="47.2545" lon="6.94178">
        <ele>582.827097</ele>
        <time>2021-04-29T18:07:00.108Z</time>
      </trkpt>
      <trkpt lat="47.25441" lon="6.94168">
        <ele>583.552972</ele>
        <time>2021-04-29T18:07:07.422Z</time>
      </trkpt>
      <trkpt lat="47.25397" lon="6.94099">
        <ele>588.83692</ele>
        <time>2021-04-29T18:07:48.955Z</time>
      </trkpt>
      <trkpt lat="47.25319" lon="6.94066">
        <ele>598.887026</ele>
        <time>2021-04-29T18:08:54.498Z</time>
      </trkpt>
      <trkpt lat="47.25278" lon="6.94043">
        <ele>604.298066</ele>
        <time>2021-04-29T18:09:33.776Z</time>
      </trkpt>
      <trkpt lat="47.25215" lon="6.93958">
        <ele>617.46863</ele>
        <time>2021-04-29T18:11:08.245Z</time>
      </trkpt>
      <trkpt lat="47.25192" lon="6.93937">
        <ele>622.176774</ele>
        <time>2021-04-29T18:11:43.144Z</time>
      </trkpt>
      <trkpt lat="47.25174" lon="6.93932">
        <ele>625.465753</ele>
        <time>2021-04-29T18:12:05.037Z</time>
      </trkpt>
      <trkpt lat="47.2515" lon="6.93941">
        <ele>629.827765</ele>
        <time>2021-04-29T18:12:34.371Z</time>
      </trkpt>
      <trkpt lat="47.25118" lon="6.93979">
        <ele>637.055934</ele>
        <time>2021-04-29T18:13:20.042Z</time>
      </trkpt>
      <trkpt lat="47.25109" lon="6.93997">
        <ele>639.849892</ele>
        <time>2021-04-29T18:13:40.934Z</time>
      </trkpt>
      <trkpt lat="47.25102" lon="6.94014">
        <ele>641.647915</ele>
        <time>2021-04-29T18:13:52.732Z</time>
      </trkpt>
      <trkpt lat="47.25085" lon="6.94071">
        <ele>646.912106</ele>
        <time>2021-04-29T18:14:34.143Z</time>
      </trkpt>
      <trkpt lat="47.2504" lon="6.94171">
        <ele>657.078031</ele>
        <time>2021-04-29T18:15:48.832Z</time>
      </trkpt>
      <trkpt lat="47.2496" lon="6.94257">
        <ele>666.99367</ele>
        <time>2021-04-29T18:16:52.297Z</time>
      </trkpt>
      <trkpt lat="47.24927" lon="6.94318">
        <ele>671.155865</ele>
        <time>2021-04-29T18:17:26.087Z</time>
      </trkpt>
      <trkpt lat="47.24901" lon="6.9435">
        <ele>673.74687</ele>
        <time>2021-04-29T18:17:48.165Z</time>
      </trkpt>
      <trkpt lat="47.24848" lon="6.94434">
        <ele>678.955731</ele>
        <time>2021-04-29T18:18:40.627Z</time>
      </trkpt>
      <trkpt lat="47.24778" lon="6.94526">
        <ele>684.008915</ele>
        <time>2021-04-29T18:19:35.231Z</time>
      </trkpt>
      <trkpt lat="47.24736" lon="6.946">
        <ele>685.698568</ele>
        <time>2021-04-29T18:20:01.983Z</time>
      </trkpt>
      <trkpt lat="47.24719" lon="6.94644">
        <ele>683.87867</ele>
        <time>2021-04-29T18:20:12.302Z</time>
      </trkpt>
      <trkpt lat="47.24679" lon="6.94703">
        <ele>680.919355</ele>
        <time>2021-04-29T18:20:22.833Z</time>
      </trkpt>
      <trkpt lat="47.24646" lon="6.94825">
        <ele>675.716931</ele>
        <time>2021-04-29T18:20:38.087Z</time>
      </trkpt>
      <trkpt lat="47.24628" lon="6.94859">
        <ele>673.390647</ele>
        <time>2021-04-29T18:20:43.003Z</time>
      </trkpt>
      <trkpt lat="47.24625" lon="6.94866">
        <ele>672.918663</ele>
        <time>2021-04-29T18:20:43.980Z</time>
      </trkpt>
      <trkpt lat="47.24621" lon="6.94875">
        <ele>672.38209</ele>
        <time>2021-04-29T18:20:45.196Z</time>
      </trkpt>
      <trkpt lat="47.24619" lon="6.94883">
        <ele>671.902054</ele>
        <time>2021-04-29T18:20:46.279Z</time>
      </trkpt>
      <trkpt lat="47.24617" lon="6.94891">
        <ele>671.459722</ele>
        <time>2021-04-29T18:20:47.226Z</time>
      </trkpt>
      <trkpt lat="47.24617" lon="6.94892">
        <ele>671.361996</ele>
        <time>2021-04-29T18:20:47.453Z</time>
      </trkpt>
      <trkpt lat="47.24612" lon="6.94928">
        <ele>669.350564</ele>
        <time>2021-04-29T18:20:52.031Z</time>
      </trkpt>
      <trkpt lat="47.24598" lon="6.94938">
        <ele>668.167912</ele>
        <time>2021-04-29T18:20:54.510Z</time>
      </trkpt>
      <trkpt lat="47.24585" lon="6.94929">
        <ele>667.00639</ele>
        <time>2021-04-29T18:20:57.176Z</time>
      </trkpt>
      <trkpt lat="47.24556" lon="6.94886">
        <ele>663.698698</ele>
        <time>2021-04-29T18:21:04.762Z</time>
      </trkpt>
      <trkpt lat="47.2454" lon="6.94863">
        <ele>662.945816</ele>
        <time>2021-04-29T18:21:08.896Z</time>
      </trkpt>
      <trkpt lat="47.24527" lon="6.94841">
        <ele>663.407281</ele>
        <time>2021-04-29T18:21:12.997Z</time>
      </trkpt>
      <trkpt lat="47.24478" lon="6.94744">
        <ele>665.292946</ele>
        <time>2021-04-29T18:21:46.252Z</time>
      </trkpt>
      <trkpt lat="47.2437" lon="6.94578">
        <ele>672.087851</ele>
        <time>2021-04-29T18:23:17.364Z</time>
      </trkpt>
      <trkpt lat="47.24282" lon="6.94429">
        <ele>679.488768</ele>
        <time>2021-04-29T18:24:31.374Z</time>
      </trkpt>
      <trkpt lat="47.24205" lon="6.94361">
        <ele>683.677163</ele>
        <time>2021-04-29T18:25:15.476Z</time>
      </trkpt>
      <trkpt lat="47.24103" lon="6.9418">
        <ele>690.782932</ele>
        <time>2021-04-29T18:26:30.646Z</time>
      </trkpt>
      <trkpt lat="47.24019" lon="6.94084">
        <ele>696.092733</ele>
        <time>2021-04-29T18:27:25.046Z</time>
      </trkpt>
      <trkpt lat="47.23994" lon="6.94023">
        <ele>699.005276</ele>
        <time>2021-04-29T18:27:52.530Z</time>
      </trkpt>
      <trkpt lat="47.23965" lon="6.93977">
        <ele>701.594358</ele>
        <time>2021-04-29T18:28:17.811Z</time>
      </trkpt>
      <trkpt lat="47.23908" lon="6.93921">
        <ele>705.9038</ele>
        <time>2021-04-29T18:28:59.015Z</time>
      </trkpt>
      <trkpt lat="47.23781" lon="6.93841">
        <ele>715.500519</ele>
        <time>2021-04-29T18:30:24.214Z</time>
      </trkpt>
      <trkpt lat="47.2363" lon="6.93807">
        <ele>725.740269</ele>
        <time>2021-04-29T18:31:56.395Z</time>
      </trkpt>
      <trkpt lat="47.23563" lon="6.93724">
        <ele>731.327801</ele>
        <time>2021-04-29T18:32:47.992Z</time>
      </trkpt>
      <trkpt lat="47.23555" lon="6.93692">
        <ele>732.677198</ele>
        <time>2021-04-29T18:33:00.872Z</time>
      </trkpt>
      <trkpt lat="47.23553" lon="6.93571">
        <ele>737.641155</ele>
        <time>2021-04-29T18:33:47.475Z</time>
      </trkpt>
      <trkpt lat="47.23561" lon="6.93429">
        <ele>743.106222</ele>
        <time>2021-04-29T18:34:40.658Z</time>
      </trkpt>
      <trkpt lat="47.23555" lon="6.93314">
        <ele>747.298275</ele>
        <time>2021-04-29T18:35:22.080Z</time>
      </trkpt>
      <trkpt lat="47.23558" lon="6.93144">
        <ele>753.276297</ele>
        <time>2021-04-29T18:36:23.276Z</time>
      </trkpt>
      <trkpt lat="47.23546" lon="6.93034">
        <ele>757.074803</ele>
        <time>2021-04-29T18:37:01.999Z</time>
      </trkpt>
      <trkpt lat="47.23545" lon="6.93027">
        <ele>757.317605</ele>
        <time>2021-04-29T18:37:05.430Z</time>
      </trkpt>
      <trkpt lat="47.23543" lon="6.93019">
        <ele>757.611375</ele>
        <time>2021-04-29T18:37:08.558Z</time>
      </trkpt>
      <trkpt lat="47.23519" lon="6.92951">
        <ele>760.252117</ele>
        <time>2021-04-29T18:37:34.012Z</time>
      </trkpt>
      <trkpt lat="47.23449" lon="6.9281">
        <ele>766.367531</ele>
        <time>2021-04-29T18:38:35.205Z</time>
      </trkpt>
      <trkpt lat="47.23313" lon="6.92616">
        <ele>778.132849</ele>
        <time>2021-04-29T18:40:22.943Z</time>
      </trkpt>
      <trkpt lat="47.23307" lon="6.92589">
        <ele>779.396551</ele>
        <time>2021-04-29T18:40:35.918Z</time>
      </trkpt>
      <trkpt lat="47.23314" lon="6.92559">
        <ele>781.407173</ele>
        <time>2021-04-29T18:40:50.399Z</time>
      </trkpt>
      <trkpt lat="47.23332" lon="6.92531">
        <ele>783.813987</ele>
        <time>2021-04-29T18:41:08.193Z</time>
      </trkpt>
      <trkpt lat="47.2342" lon="6.92435">
        <ele>794.095925</ele>
        <time>2021-04-29T18:42:30.901Z</time>
      </trkpt>
      <trkpt lat="47.23497" lon="6.92358">
        <ele>803.166435</ele>
        <time>2021-04-29T18:43:43.566Z</time>
      </trkpt>
      <trkpt lat="47.23522" lon="6.92343">
        <ele>805.789256</ele>
        <time>2021-04-29T18:44:03.951Z</time>
      </trkpt>
      <trkpt lat="47.23621" lon="6.9235">
        <ele>815.242311</ele>
        <time>2021-04-29T18:45:17.329Z</time>
      </trkpt>
      <trkpt lat="47.23652" lon="6.9236">
        <ele>817.654488</ele>
        <time>2021-04-29T18:45:39.674Z</time>
      </trkpt>
      <trkpt lat="47.23715" lon="6.92425">
        <ele>823.513369</ele>
        <time>2021-04-29T18:46:31.100Z</time>
      </trkpt>
      <trkpt lat="47.23751" lon="6.9249">
        <ele>827.744622</ele>
        <time>2021-04-29T18:47:03.321Z</time>
      </trkpt>
      <trkpt lat="47.23767" lon="6.9251">
        <ele>828.368325</ele>
        <time>2021-04-29T18:47:15.070Z</time>
      </trkpt>
      <trkpt lat="47.23793" lon="6.92541">
        <ele>829.377118</ele>
        <time>2021-04-29T18:47:31.267Z</time>
      </trkpt>
      <trkpt lat="47.23825" lon="6.92584">
        <ele>830.689312</ele>
        <time>2021-04-29T18:47:49.967Z</time>
      </trkpt>
      <trkpt lat="47.23881" lon="6.92682">
        <ele>833.149189</ele>
        <time>2021-04-29T18:48:20.646Z</time>
      </trkpt>
      <trkpt lat="47.23898" lon="6.92701">
        <ele>833.232661</ele>
        <time>2021-04-29T18:48:26.430Z</time>
      </trkpt>
      <trkpt lat="47.23915" lon="6.92708">
        <ele>833.301353</ele>
        <time>2021-04-29T18:48:31.012Z</time>
      </trkpt>
      <trkpt lat="47.23985" lon="6.92705">
        <ele>833.581735</ele>
        <time>2021-04-29T18:48:49.693Z</time>
      </trkpt>
      <trkpt lat="47.23995" lon="6.9269">
        <ele>833.638107</ele>
        <time>2021-04-29T18:48:53.492Z</time>
      </trkpt>
      <trkpt lat="47.23995" lon="6.92671">
        <ele>833.689621</ele>
        <time>2021-04-29T18:48:56.998Z</time>
      </trkpt>
      <trkpt lat="47.23968" lon="6.92637">
        <ele>833.830491</ele>
        <time>2021-04-29T18:49:08.835Z</time>
      </trkpt>
      <trkpt lat="47.23963" lon="6.92596">
        <ele>834.445701</ele>
        <time>2021-04-29T18:49:18.783Z</time>
      </trkpt>
      <trkpt lat="47.23968" lon="6.92575">
        <ele>834.805125</ele>
        <time>2021-04-29T18:49:23.482Z</time>
      </trkpt>
      <trkpt lat="47.24014" lon="6.9248">
        <ele>836.630249</ele>
        <time>2021-04-29T18:49:54.416Z</time>
      </trkpt>
      <trkpt lat="47.24019" lon="6.92471">
        <ele>836.813491</ele>
        <time>2021-04-29T18:49:58.573Z</time>
      </trkpt>
      <trkpt lat="47.24022" lon="6.92461">
        <ele>836.978023</ele>
        <time>2021-04-29T18:50:01.804Z</time>
      </trkpt>
      <trkpt lat="47.24031" lon="6.92421">
        <ele>837.646673</ele>
        <time>2021-04-29T18:50:13.729Z</time>
      </trkpt>
      <trkpt lat="47.24031" lon="6.92383">
        <ele>838.334343</ele>
        <time>2021-04-29T18:50:24.045Z</time>
      </trkpt>
      <trkpt lat="47.24025" lon="6.92294">
        <ele>840.28106</ele>
        <time>2021-04-29T18:50:49.707Z</time>
      </trkpt>
      <trkpt lat="47.24024" lon="6.92281">
        <ele>840.57591</ele>
        <time>2021-04-29T18:50:53.472Z</time>
      </trkpt>
      <trkpt lat="47.24019" lon="6.92246">
        <ele>841.357884</ele>
        <time>2021-04-29T18:51:03.551Z</time>
      </trkpt>
      <trkpt lat="47.24017" lon="6.92236">
        <ele>841.568618</ele>
        <time>2021-04-29T18:51:06.463Z</time>
      </trkpt>
      <trkpt lat="47.24012" lon="6.92217">
        <ele>842.028551</ele>
        <time>2021-04-29T18:51:11.135Z</time>
      </trkpt>
      <trkpt lat="47.23998" lon="6.92177">
        <ele>843.011747</ele>
        <time>2021-04-29T18:51:23.285Z</time>
      </trkpt>
      <trkpt lat="47.23952" lon="6.92086">
        <ele>846.430062</ele>
        <time>2021-04-29T18:52:00.291Z</time>
      </trkpt>
      <trkpt lat="47.23935" lon="6.9203">
        <ele>848.475774</ele>
        <time>2021-04-29T18:52:19.648Z</time>
      </trkpt>
      <trkpt lat="47.23931" lon="6.9202">
        <ele>848.864269</ele>
        <time>2021-04-29T18:52:23.366Z</time>
      </trkpt>
      <trkpt lat="47.23948" lon="6.92004">
        <ele>849.86766</ele>
        <time>2021-04-29T18:52:33.033Z</time>
      </trkpt>
      <trkpt lat="47.23956" lon="6.91995">
        <ele>850.379993</ele>
        <time>2021-04-29T18:52:38.758Z</time>
      </trkpt>
      <trkpt lat="47.23967" lon="6.91984">
        <ele>851.022883</ele>
        <time>2021-04-29T18:52:46.656Z</time>
      </trkpt>
      <trkpt lat="47.23979" lon="6.91975">
        <ele>851.714585</ele>
        <time>2021-04-29T18:52:53.874Z</time>
      </trkpt>
      <trkpt lat="47.23987" lon="6.91976">
        <ele>852.105183</ele>
        <time>2021-04-29T18:52:58.896Z</time>
      </trkpt>
      <trkpt lat="47.24053" lon="6.92083">
        <ele>859.396775</ele>
        <time>2021-04-29T18:54:00.239Z</time>
      </trkpt>
      <trkpt lat="47.24067" lon="6.92101">
        <ele>860.835299</ele>
        <time>2021-04-29T18:54:12.968Z</time>
      </trkpt>
      <trkpt lat="47.24057" lon="6.92061">
        <ele>863.051154</ele>
        <time>2021-04-29T18:54:32.788Z</time>
      </trkpt>
      <trkpt lat="47.24029" lon="6.91911">
        <ele>871.885872</ele>
        <time>2021-04-29T18:55:46.015Z</time>
      </trkpt>
      <trkpt lat="47.24027" lon="6.91874">
        <ele>874.102889</ele>
        <time>2021-04-29T18:56:02.291Z</time>
      </trkpt>
      <trkpt lat="47.24027" lon="6.91863">
        <ele>874.729253</ele>
        <time>2021-04-29T18:56:09.008Z</time>
      </trkpt>
      <trkpt lat="47.24027" lon="6.91849">
        <ele>875.557893</ele>
        <time>2021-04-29T18:56:16.525Z</time>
      </trkpt>
      <trkpt lat="47.24004" lon="6.91723">
        <ele>883.428585</ele>
        <time>2021-04-29T18:57:16.865Z</time>
      </trkpt>
      <trkpt lat="47.23957" lon="6.916">
        <ele>892.371134</ele>
        <time>2021-04-29T18:58:27.728Z</time>
      </trkpt>
      <trkpt lat="47.23941" lon="6.91542">
        <ele>896.337686</ele>
        <time>2021-04-29T18:58:57.295Z</time>
      </trkpt>
      <trkpt lat="47.23854" lon="6.91032">
        <ele>932.734453</ele>
        <time>2021-04-29T19:03:29.625Z</time>
      </trkpt>
      <trkpt lat="47.23868" lon="6.91004">
        <ele>935.280262</ele>
        <time>2021-04-29T19:03:51.508Z</time>
      </trkpt>
      <trkpt lat="47.23874" lon="6.90965">
        <ele>938.199007</ele>
        <time>2021-04-29T19:04:15.127Z</time>
      </trkpt>
      <trkpt lat="47.2388" lon="6.90951">
        <ele>939.449808</ele>
        <time>2021-04-29T19:04:25.181Z</time>
      </trkpt>
      <trkpt lat="47.23923" lon="6.90915">
        <ele>944.879018</ele>
        <time>2021-04-29T19:05:06.166Z</time>
      </trkpt>
      <trkpt lat="47.23932" lon="6.90899">
        <ele>946.399853</ele>
        <time>2021-04-29T19:05:19.714Z</time>
      </trkpt>
      <trkpt lat="47.23937" lon="6.90874">
        <ele>948.317424</ele>
        <time>2021-04-29T19:05:31.961Z</time>
      </trkpt>
      <trkpt lat="47.23938" lon="6.90846">
        <ele>950.392718</ele>
        <time>2021-04-29T19:05:49.539Z</time>
      </trkpt>
      <trkpt lat="47.23935" lon="6.90805">
        <ele>953.48813</ele>
        <time>2021-04-29T19:06:09.601Z</time>
      </trkpt>
      <trkpt lat="47.23944" lon="6.90797">
        <ele>954.631981</ele>
        <time>2021-04-29T19:06:19.360Z</time>
      </trkpt>
      <trkpt lat="47.23957" lon="6.90774">
        <ele>956.495485</ele>
        <time>2021-04-29T19:06:31.882Z</time>
      </trkpt>
      <trkpt lat="47.23957" lon="6.90747">
        <ele>957.628814</ele>
        <time>2021-04-29T19:06:46.924Z</time>
      </trkpt>
      <trkpt lat="47.2389" lon="6.90514">
        <ele>967.083286</ele>
        <time>2021-04-29T19:08:19.057Z</time>
      </trkpt>
      <trkpt lat="47.23887" lon="6.90462">
        <ele>966.899174</ele>
        <time>2021-04-29T19:08:30.644Z</time>
      </trkpt>
      <trkpt lat="47.23893" lon="6.90377">
        <ele>966.596024</ele>
        <time>2021-04-29T19:08:45.448Z</time>
      </trkpt>
      <trkpt lat="47.23922" lon="6.90198">
        <ele>962.746614</ele>
        <time>2021-04-29T19:09:09.080Z</time>
      </trkpt>
      <trkpt lat="47.23944" lon="6.90107">
        <ele>958.578866</ele>
        <time>2021-04-29T19:09:20.543Z</time>
      </trkpt>
      <trkpt lat="47.23961" lon="6.90067">
        <ele>956.51011</ele>
        <time>2021-04-29T19:09:26.009Z</time>
      </trkpt>
      <trkpt lat="47.24045" lon="6.8992">
        <ele>946.450947</ele>
        <time>2021-04-29T19:09:47.684Z</time>
      </trkpt>
      <trkpt lat="47.24054" lon="6.89897">
        <ele>945.0057</ele>
        <time>2021-04-29T19:09:50.629Z</time>
      </trkpt>
      <trkpt lat="47.2406" lon="6.89863">
        <ele>943.060006</ele>
        <time>2021-04-29T19:09:54.754Z</time>
      </trkpt>
      <trkpt lat="47.24084" lon="6.8967">
        <ele>933.935793</ele>
        <time>2021-04-29T19:10:17.707Z</time>
      </trkpt>
      <trkpt lat="47.24078" lon="6.89603">
        <ele>930.997796</ele>
        <time>2021-04-29T19:10:25.916Z</time>
      </trkpt>
      <trkpt lat="47.24066" lon="6.89568">
        <ele>929.293151</ele>
        <time>2021-04-29T19:10:30.694Z</time>
      </trkpt>
      <trkpt lat="47.24052" lon="6.89555">
        <ele>928.326019</ele>
        <time>2021-04-29T19:10:33.467Z</time>
      </trkpt>
      <trkpt lat="47.23999" lon="6.89521">
        <ele>925.063873</ele>
        <time>2021-04-29T19:10:43.906Z</time>
      </trkpt>
      <trkpt lat="47.23991" lon="6.89514">
        <ele>924.53391</ele>
        <time>2021-04-29T19:10:45.566Z</time>
      </trkpt>
      <trkpt lat="47.23983" lon="6.89504">
        <ele>923.957414</ele>
        <time>2021-04-29T19:10:47.296Z</time>
      </trkpt>
      <trkpt lat="47.23965" lon="6.89474">
        <ele>922.447277</ele>
        <time>2021-04-29T19:10:52.154Z</time>
      </trkpt>
      <trkpt lat="47.23939" lon="6.89389">
        <ele>918.873228</ele>
        <time>2021-04-29T19:11:03.535Z</time>
      </trkpt>
      <trkpt lat="47.23928" lon="6.89313">
        <ele>917.212715</ele>
        <time>2021-04-29T19:11:12.985Z</time>
      </trkpt>
      <trkpt lat="47.23914" lon="6.89266">
        <ele>916.189681</ele>
        <time>2021-04-29T19:11:19.547Z</time>
      </trkpt>
      <trkpt lat="47.23865" lon="6.89138">
        <ele>913.451705</ele>
        <time>2021-04-29T19:11:41.081Z</time>
      </trkpt>
      <trkpt lat="47.23833" lon="6.89082">
        <ele>914.736122</ele>
        <time>2021-04-29T19:11:56.426Z</time>
      </trkpt>
      <trkpt lat="47.23819" lon="6.89035">
        <ele>915.643659</ele>
        <time>2021-04-29T19:12:09.336Z</time>
      </trkpt>
      <trkpt lat="47.23792" lon="6.89042">
        <ele>916.34428</ele>
        <time>2021-04-29T19:12:20.714Z</time>
      </trkpt>
      <trkpt lat="47.23789" lon="6.89042">
        <ele>916.407197</ele>
        <time>2021-04-29T19:12:22.174Z</time>
      </trkpt>
      <trkpt lat="47.23755" lon="6.89046">
        <ele>917.288092</ele>
        <time>2021-04-29T19:12:37.198Z</time>
      </trkpt>
      <trkpt lat="47.23667" lon="6.89008">
        <ele>923.032338</ele>
        <time>2021-04-29T19:13:29.625Z</time>
      </trkpt>
      <trkpt lat="47.23609" lon="6.89001">
        <ele>927.587014</ele>
        <time>2021-04-29T19:14:08.437Z</time>
      </trkpt>
      <trkpt lat="47.23579" lon="6.89009">
        <ele>929.931753</ele>
        <time>2021-04-29T19:14:29.130Z</time>
      </trkpt>
      <trkpt lat="47.23562" lon="6.89023">
        <ele>931.492909</ele>
        <time>2021-04-29T19:14:44.394Z</time>
      </trkpt>
      <trkpt lat="47.23477" lon="6.89091">
        <ele>943.276727</ele>
        <time>2021-04-29T19:16:03.500Z</time>
      </trkpt>
      <trkpt lat="47.23465" lon="6.89101">
        <ele>944.990797</ele>
        <time>2021-04-29T19:16:16.172Z</time>
      </trkpt>
      <trkpt lat="47.23455" lon="6.891">
        <ele>946.249565</ele>
        <time>2021-04-29T19:16:25.228Z</time>
      </trkpt>
      <trkpt lat="47.23411" lon="6.89081">
        <ele>952.014218</ele>
        <time>2021-04-29T19:17:10.461Z</time>
      </trkpt>
      <trkpt lat="47.23396" lon="6.89079">
        <ele>954.006128</ele>
        <time>2021-04-29T19:17:25.859Z</time>
      </trkpt>
      <trkpt lat="47.23352" lon="6.89099">
        <ele>960.213782</ele>
        <time>2021-04-29T19:18:10.542Z</time>
      </trkpt>
      <trkpt lat="47.23274" lon="6.89098">
        <ele>970.952715</ele>
        <time>2021-04-29T19:19:26.137Z</time>
      </trkpt>
      <trkpt lat="47.23252" lon="6.89103">
        <ele>974.124979</ele>
        <time>2021-04-29T19:19:48.228Z</time>
      </trkpt>
      <trkpt lat="47.23192" lon="6.89132">
        <ele>981.458188</ele>
        <time>2021-04-29T19:20:44.656Z</time>
      </trkpt>
      <trkpt lat="47.23095" lon="6.89139">
        <ele>989.287619</ele>
        <time>2021-04-29T19:21:55.127Z</time>
      </trkpt>
      <trkpt lat="47.22993" lon="6.89178">
        <ele>994.55331</ele>
        <time>2021-04-29T19:22:43.498Z</time>
      </trkpt>
      <trkpt lat="47.22976" lon="6.8917">
        <ele>994.722799</ele>
        <time>2021-04-29T19:22:49.962Z</time>
      </trkpt>
      <trkpt lat="47.22947" lon="6.89142">
        <ele>995.046219</ele>
        <time>2021-04-29T19:23:00.653Z</time>
      </trkpt>
      <trkpt lat="47.22941" lon="6.89137">
        <ele>995.103663</ele>
        <time>2021-04-29T19:23:01.978Z</time>
      </trkpt>
      <trkpt lat="47.22912" lon="6.89083">
        <ele>995.538677</ele>
        <time>2021-04-29T19:23:14.213Z</time>
      </trkpt>
      <trkpt lat="47.22892" lon="6.89023">
        <ele>995.477407</ele>
        <time>2021-04-29T19:23:25.010Z</time>
      </trkpt>
      <trkpt lat="47.22843" lon="6.8897">
        <ele>994.396889</ele>
        <time>2021-04-29T19:23:38.780Z</time>
      </trkpt>
      <trkpt lat="47.22762" lon="6.88771">
        <ele>990.705069</ele>
        <time>2021-04-29T19:24:13.683Z</time>
      </trkpt>
      <trkpt lat="47.22743" lon="6.88694">
        <ele>988.858031</ele>
        <time>2021-04-29T19:24:24.875Z</time>
      </trkpt>
      <trkpt lat="47.22747" lon="6.88667">
        <ele>988.241481</ele>
        <time>2021-04-29T19:24:28.560Z</time>
      </trkpt>
      <trkpt lat="47.22775" lon="6.88599">
        <ele>986.341962</ele>
        <time>2021-04-29T19:24:39.182Z</time>
      </trkpt>
      <trkpt lat="47.22779" lon="6.88559">
        <ele>984.787598</ele>
        <time>2021-04-29T19:24:44.532Z</time>
      </trkpt>
      <trkpt lat="47.22777" lon="6.8852">
        <ele>983.310222</ele>
        <time>2021-04-29T19:24:49.500Z</time>
      </trkpt>
      <trkpt lat="47.22771" lon="6.88479">
        <ele>981.717408</ele>
        <time>2021-04-29T19:24:54.928Z</time>
      </trkpt>
      <trkpt lat="47.22763" lon="6.88455">
        <ele>980.709723</ele>
        <time>2021-04-29T19:24:58.265Z</time>
      </trkpt>
      <trkpt lat="47.22725" lon="6.88409">
        <ele>977.925043</ele>
        <time>2021-04-29T19:25:07.435Z</time>
      </trkpt>
      <trkpt lat="47.22697" lon="6.88376">
        <ele>975.90374</ele>
        <time>2021-04-29T19:25:13.813Z</time>
      </trkpt>
      <trkpt lat="47.22684" lon="6.8836">
        <ele>974.843363</ele>
        <time>2021-04-29T19:25:16.877Z</time>
      </trkpt>
      <trkpt lat="47.2267" lon="6.88323">
        <ele>973.073603</ele>
        <time>2021-04-29T19:25:22.261Z</time>
      </trkpt>
      <trkpt lat="47.2265" lon="6.8828">
        <ele>970.908191</ele>
        <time>2021-04-29T19:25:28.741Z</time>
      </trkpt>
      <trkpt lat="47.22646" lon="6.88271">
        <ele>970.483413</ele>
        <time>2021-04-29T19:25:29.931Z</time>
      </trkpt>
      <trkpt lat="47.22608" lon="6.88206">
        <ele>966.848203</ele>
        <time>2021-04-29T19:25:40.946Z</time>
      </trkpt>
      <trkpt lat="47.22579" lon="6.88158">
        <ele>964.466071</ele>
        <time>2021-04-29T19:25:49.075Z</time>
      </trkpt>
      <trkpt lat="47.22565" lon="6.88142">
        <ele>963.626125</ele>
        <time>2021-04-29T19:25:52.316Z</time>
      </trkpt>
      <trkpt lat="47.22516" lon="6.88109">
        <ele>961.010623</ele>
        <time>2021-04-29T19:26:02.666Z</time>
      </trkpt>
      <trkpt lat="47.2246" lon="6.88043">
        <ele>957.572142</ele>
        <time>2021-04-29T19:26:16.755Z</time>
      </trkpt>
      <trkpt lat="47.22302" lon="6.87978">
        <ele>950.312089</ele>
        <time>2021-04-29T19:26:48.418Z</time>
      </trkpt>
      <trkpt lat="47.22193" lon="6.87948">
        <ele>946.234048</ele>
        <time>2021-04-29T19:27:10.152Z</time>
      </trkpt>
      <trkpt lat="47.22123" lon="6.87948">
        <ele>943.8195</ele>
        <time>2021-04-29T19:27:24.774Z</time>
      </trkpt>
      <trkpt lat="47.22068" lon="6.87972">
        <ele>942.071435</ele>
        <time>2021-04-29T19:27:37.153Z</time>
      </trkpt>
      <trkpt lat="47.22054" lon="6.87972">
        <ele>941.702846</ele>
        <time>2021-04-29T19:27:40.137Z</time>
      </trkpt>
      <trkpt lat="47.21995" lon="6.87939">
        <ele>940.018146</ele>
        <time>2021-04-29T19:27:53.702Z</time>
      </trkpt>
      <trkpt lat="47.21968" lon="6.87932">
        <ele>939.303118</ele>
        <time>2021-04-29T19:27:59.357Z</time>
      </trkpt>
      <trkpt lat="47.21954" lon="6.87931">
        <ele>938.912896</ele>
        <time>2021-04-29T19:28:02.502Z</time>
      </trkpt>
      <trkpt lat="47.21918" lon="6.87929">
        <ele>937.919564</ele>
        <time>2021-04-29T19:28:09.984Z</time>
      </trkpt>
      <trkpt lat="47.219" lon="6.87928">
        <ele>937.139596</ele>
        <time>2021-04-29T19:28:13.497Z</time>
      </trkpt>
      <trkpt lat="47.21859" lon="6.87907">
        <ele>935.224915</ele>
        <time>2021-04-29T19:28:22.238Z</time>
      </trkpt>
      <trkpt lat="47.21543" lon="6.8757">
        <ele>917.669766</ele>
        <time>2021-04-29T19:29:37.362Z</time>
      </trkpt>
      <trkpt lat="47.21519" lon="6.87547">
        <ele>916.304843</ele>
        <time>2021-04-29T19:29:42.965Z</time>
      </trkpt>
      <trkpt lat="47.21509" lon="6.8753">
        <ele>915.601397</ele>
        <time>2021-04-29T19:29:45.893Z</time>
      </trkpt>
      <trkpt lat="47.21505" lon="6.87484">
        <ele>914.111684</ele>
        <time>2021-04-29T19:29:51.966Z</time>
      </trkpt>
      <trkpt lat="47.21509" lon="6.87429">
        <ele>912.077579</ele>
        <time>2021-04-29T19:29:59.143Z</time>
      </trkpt>
      <trkpt lat="47.21519" lon="6.8739">
        <ele>910.451179</ele>
        <time>2021-04-29T19:30:04.510Z</time>
      </trkpt>
      <trkpt lat="47.21539" lon="6.87359">
        <ele>908.775395</ele>
        <time>2021-04-29T19:30:10.022Z</time>
      </trkpt>
      <trkpt lat="47.21769" lon="6.8722">
        <ele>893.946435</ele>
        <time>2021-04-29T19:30:55.544Z</time>
      </trkpt>
      <trkpt lat="47.2179" lon="6.87213">
        <ele>892.613823</ele>
        <time>2021-04-29T19:30:59.628Z</time>
      </trkpt>
      <trkpt lat="47.21855" lon="6.87165">
        <ele>888.31356</ele>
        <time>2021-04-29T19:31:13.161Z</time>
      </trkpt>
      <trkpt lat="47.21874" lon="6.87142">
        <ele>886.855927</ele>
        <time>2021-04-29T19:31:17.779Z</time>
      </trkpt>
      <trkpt lat="47.21921" lon="6.87062">
        <ele>882.557731</ele>
        <time>2021-04-29T19:31:31.222Z</time>
      </trkpt>
      <trkpt lat="47.21985" lon="6.86978">
        <ele>876.373012</ele>
        <time>2021-04-29T19:31:46.643Z</time>
      </trkpt>
      <trkpt lat="47.22012" lon="6.86952">
        <ele>873.969693</ele>
        <time>2021-04-29T19:31:52.322Z</time>
      </trkpt>
      <trkpt lat="47.22038" lon="6.86911">
        <ele>871.078365</ele>
        <time>2021-04-29T19:31:59.122Z</time>
      </trkpt>
      <trkpt lat="47.22086" lon="6.86869">
        <ele>867.007767</ele>
        <time>2021-04-29T19:32:08.776Z</time>
      </trkpt>
      <trkpt lat="47.22142" lon="6.86806">
        <ele>862.039153</ele>
        <time>2021-04-29T19:32:21.363Z</time>
      </trkpt>
      <trkpt lat="47.22178" lon="6.8678">
        <ele>859.25452</ele>
        <time>2021-04-29T19:32:28.601Z</time>
      </trkpt>
      <trkpt lat="47.22203" lon="6.86769">
        <ele>857.421001</ele>
        <time>2021-04-29T19:32:33.406Z</time>
      </trkpt>
      <trkpt lat="47.22303" lon="6.86725">
        <ele>852.68006</ele>
        <time>2021-04-29T19:32:53.347Z</time>
      </trkpt>
      <trkpt lat="47.22342" lon="6.86702">
        <ele>851.128359</ele>
        <time>2021-04-29T19:33:01.776Z</time>
      </trkpt>
      <trkpt lat="47.2244" lon="6.86599">
        <ele>847.447455</ele>
        <time>2021-04-29T19:33:27.895Z</time>
      </trkpt>
      <trkpt lat="47.22503" lon="6.86575">
        <ele>845.909017</ele>
        <time>2021-04-29T19:33:41.804Z</time>
      </trkpt>
      <trkpt lat="47.2252" lon="6.86565">
        <ele>845.465535</ele>
        <time>2021-04-29T19:33:45.847Z</time>
      </trkpt>
      <trkpt lat="47.22519" lon="6.86555">
        <ele>845.301292</ele>
        <time>2021-04-29T19:33:47.333Z</time>
      </trkpt>
      <trkpt lat="47.22504" lon="6.86499">
        <ele>844.484401</ele>
        <time>2021-04-29T19:33:56.181Z</time>
      </trkpt>
      <trkpt lat="47.22506" lon="6.86495">
        <ele>844.452136</ele>
        <time>2021-04-29T19:33:56.830Z</time>
      </trkpt>
      <trkpt lat="47.22475" lon="6.86439">
        <ele>843.957585</ele>
        <time>2021-04-29T19:34:07.087Z</time>
      </trkpt>
      <trkpt lat="47.22452" lon="6.86397">
        <ele>843.587015</ele>
        <time>2021-04-29T19:34:15.254Z</time>
      </trkpt>
      <trkpt lat="47.22404" lon="6.86341">
        <ele>842.974568</ele>
        <time>2021-04-29T19:34:30.571Z</time>
      </trkpt>
      <trkpt lat="47.22356" lon="6.86301">
        <ele>843.546161</ele>
        <time>2021-04-29T19:34:47.006Z</time>
      </trkpt>
      <trkpt lat="47.22357" lon="6.86298">
        <ele>843.587713</ele>
        <time>2021-04-29T19:34:48.523Z</time>
      </trkpt>
      <trkpt lat="47.22364" lon="6.86273">
        <ele>843.983408</ele>
        <time>2021-04-29T19:34:54.869Z</time>
      </trkpt>
      <trkpt lat="47.224" lon="6.86205">
        <ele>845.220254</ele>
        <time>2021-04-29T19:35:17.712Z</time>
      </trkpt>
      <trkpt lat="47.22411" lon="6.86167">
        <ele>845.808461</ele>
        <time>2021-04-29T19:35:28.617Z</time>
      </trkpt>
      <trkpt lat="47.22402" lon="6.85951">
        <ele>850.290061</ele>
        <time>2021-04-29T19:36:34.676Z</time>
      </trkpt>
      <trkpt lat="47.22409" lon="6.85872">
        <ele>852.102418</ele>
        <time>2021-04-29T19:36:58.243Z</time>
      </trkpt>
      <trkpt lat="47.22415" lon="6.85693">
        <ele>856.027764</ele>
        <time>2021-04-29T19:37:49.972Z</time>
      </trkpt>
      <trkpt lat="47.2243" lon="6.856">
        <ele>858.115883</ele>
        <time>2021-04-29T19:38:18.149Z</time>
      </trkpt>
      <trkpt lat="47.22435" lon="6.85575">
        <ele>858.734268</ele>
        <time>2021-04-29T19:38:25.526Z</time>
      </trkpt>
      <trkpt lat="47.22434" lon="6.85555">
        <ele>859.286668</ele>
        <time>2021-04-29T19:38:32.185Z</time>
      </trkpt>
      <trkpt lat="47.22355" lon="6.85384">
        <ele>864.732896</ele>
        <time>2021-04-29T19:39:37.860Z</time>
      </trkpt>
      <trkpt lat="47.22307" lon="6.85247">
        <ele>869.262859</ele>
        <time>2021-04-29T19:40:28.452Z</time>
      </trkpt>
      <trkpt lat="47.22215" lon="6.85123">
        <ele>874.707506</ele>
        <time>2021-04-29T19:41:30.695Z</time>
      </trkpt>
      <trkpt lat="47.22193" lon="6.85066">
        <ele>876.558087</ele>
        <time>2021-04-29T19:41:54.175Z</time>
      </trkpt>
      <trkpt lat="47.22178" lon="6.84964">
        <ele>879.492137</ele>
        <time>2021-04-29T19:42:28.618Z</time>
      </trkpt>
      <trkpt lat="47.22142" lon="6.84864">
        <ele>881.283203</ele>
        <time>2021-04-29T19:43:00.689Z</time>
      </trkpt>
      <trkpt lat="47.22059" lon="6.84683">
        <ele>882.588348</ele>
        <time>2021-04-29T19:43:45.725Z</time>
      </trkpt>
      <trkpt lat="47.22032" lon="6.84632">
        <ele>882.046795</ele>
        <time>2021-04-29T19:43:55.775Z</time>
      </trkpt>
      <trkpt lat="47.21991" lon="6.84502">
        <ele>880.860331</ele>
        <time>2021-04-29T19:44:18.038Z</time>
      </trkpt>
      <trkpt lat="47.21958" lon="6.84419">
        <ele>880.074694</ele>
        <time>2021-04-29T19:44:33.409Z</time>
      </trkpt>
      <trkpt lat="47.21938" lon="6.84311">
        <ele>879.162162</ele>
        <time>2021-04-29T19:44:52.013Z</time>
      </trkpt>
      <trkpt lat="47.2192" lon="6.84133">
        <ele>877.558705</ele>
        <time>2021-04-29T19:45:20.931Z</time>
      </trkpt>
      <trkpt lat="47.2191" lon="6.84059">
        <ele>876.806745</ele>
        <time>2021-04-29T19:45:32.818Z</time>
      </trkpt>
      <trkpt lat="47.21808" lon="6.83669">
        <ele>873.061124</ele>
        <time>2021-04-29T19:46:37.936Z</time>
      </trkpt>
      <trkpt lat="47.21794" lon="6.83616">
        <ele>873.05823</ele>
        <time>2021-04-29T19:46:48.247Z</time>
      </trkpt>
      <trkpt lat="47.21782" lon="6.83569">
        <ele>873.055689</ele>
        <time>2021-04-29T19:46:57.675Z</time>
      </trkpt>
      <trkpt lat="47.21761" lon="6.83508">
        <ele>873.052167</ele>
        <time>2021-04-29T19:47:12.054Z</time>
      </trkpt>
      <trkpt lat="47.21759" lon="6.83501">
        <ele>873.051744</ele>
        <time>2021-04-29T19:47:13.778Z</time>
      </trkpt>
      <trkpt lat="47.21756" lon="6.83494">
        <ele>873.051381</ele>
        <time>2021-04-29T19:47:15.369Z</time>
      </trkpt>
      <trkpt lat="47.21719" lon="6.83418">
        <ele>873.280874</ele>
        <time>2021-04-29T19:47:35.412Z</time>
      </trkpt>
      <trkpt lat="47.21685" lon="6.8335">
        <ele>873.554459</ele>
        <time>2021-04-29T19:47:52.461Z</time>
      </trkpt>
      <trkpt lat="47.21676" lon="6.83331">
        <ele>873.63062</ele>
        <time>2021-04-29T19:47:56.890Z</time>
      </trkpt>
      <trkpt lat="47.21672" lon="6.83323">
        <ele>873.664094</ele>
        <time>2021-04-29T19:47:58.968Z</time>
      </trkpt>
      <trkpt lat="47.21653" lon="6.83281">
        <ele>873.82742</ele>
        <time>2021-04-29T19:48:08.342Z</time>
      </trkpt>
      <trkpt lat="47.21621" lon="6.83215">
        <ele>873.504882</ele>
        <time>2021-04-29T19:48:22.804Z</time>
      </trkpt>
      <trkpt lat="47.21605" lon="6.83179">
        <ele>873.18191</ele>
        <time>2021-04-29T19:48:29.867Z</time>
      </trkpt>
      <trkpt lat="47.21601" lon="6.83171">
        <ele>873.10303</ele>
        <time>2021-04-29T19:48:31.541Z</time>
      </trkpt>
      <trkpt lat="47.2158" lon="6.83127">
        <ele>872.702872</ele>
        <time>2021-04-29T19:48:39.720Z</time>
      </trkpt>
      <trkpt lat="47.21432" lon="6.82808">
        <ele>868.157349</ele>
        <time>2021-04-29T19:49:35.563Z</time>
      </trkpt>
      <trkpt lat="47.21419" lon="6.8278">
        <ele>867.729178</ele>
        <time>2021-04-29T19:49:40.459Z</time>
      </trkpt>
      <trkpt lat="47.214" lon="6.82741">
        <ele>867.141824</ele>
        <time>2021-04-29T19:49:47.001Z</time>
      </trkpt>
      <trkpt lat="47.2139" lon="6.82724">
        <ele>866.849966</ele>
        <time>2021-04-29T19:49:50.326Z</time>
      </trkpt>
      <trkpt lat="47.21352" lon="6.82676">
        <ele>865.940212</ele>
        <time>2021-04-29T19:50:00.821Z</time>
      </trkpt>
      <trkpt lat="47.21316" lon="6.82642">
        <ele>865.139805</ele>
        <time>2021-04-29T19:50:10.556Z</time>
      </trkpt>
      <trkpt lat="47.21298" lon="6.82636">
        <ele>865.029434</ele>
        <time>2021-04-29T19:50:14.540Z</time>
      </trkpt>
      <trkpt lat="47.21296" lon="6.82637">
        <ele>865.020172</ele>
        <time>2021-04-29T19:50:15.035Z</time>
      </trkpt>
      <trkpt lat="47.21292" lon="6.82589">
        <ele>864.911975</ele>
        <time>2021-04-29T19:50:22.906Z</time>
      </trkpt>
      <trkpt lat="47.21296" lon="6.82543">
        <ele>864.807646</ele>
        <time>2021-04-29T19:50:30.485Z</time>
      </trkpt>
      <trkpt lat="47.21297" lon="6.82528">
        <ele>864.773899</ele>
        <time>2021-04-29T19:50:32.624Z</time>
      </trkpt>
      <trkpt lat="47.213" lon="6.82503">
        <ele>864.717944</ele>
        <time>2021-04-29T19:50:37.839Z</time>
      </trkpt>
      <trkpt lat="47.21303" lon="6.82473">
        <ele>864.649671</ele>
        <time>2021-04-29T19:50:42.737Z</time>
      </trkpt>
      <trkpt lat="47.21304" lon="6.82451">
        <ele>864.599444</ele>
        <time>2021-04-29T19:50:47.549Z</time>
      </trkpt>
      <trkpt lat="47.21304" lon="6.82421">
        <ele>864.533535</ele>
        <time>2021-04-29T19:50:52.537Z</time>
      </trkpt>
      <trkpt lat="47.21309" lon="6.82369">
        <ele>864.793655</ele>
        <time>2021-04-29T19:51:04.575Z</time>
      </trkpt>
      <trkpt lat="47.21311" lon="6.8234">
        <ele>865.08678</ele>
        <time>2021-04-29T19:51:11.587Z</time>
      </trkpt>
      <trkpt lat="47.21308" lon="6.82325">
        <ele>865.246395</ele>
        <time>2021-04-29T19:51:14.972Z</time>
      </trkpt>
      <trkpt lat="47.21306" lon="6.8232">
        <ele>865.30815</ele>
        <time>2021-04-29T19:51:16.289Z</time>
      </trkpt>
      <trkpt lat="47.21313" lon="6.82312">
        <ele>865.438842</ele>
        <time>2021-04-29T19:51:20.157Z</time>
      </trkpt>
      <trkpt lat="47.21355" lon="6.82254">
        <ele>866.296766</ele>
        <time>2021-04-29T19:51:38.872Z</time>
      </trkpt>
      <trkpt lat="47.21368" lon="6.8224">
        <ele>866.536977</ele>
        <time>2021-04-29T19:51:45.243Z</time>
      </trkpt>
      <trkpt lat="47.21371" lon="6.82236">
        <ele>866.596637</ele>
        <time>2021-04-29T19:51:46.317Z</time>
      </trkpt>
      <trkpt lat="47.21398" lon="6.82204">
        <ele>867.115572</ele>
        <time>2021-04-29T19:51:58.966Z</time>
      </trkpt>
      <trkpt lat="47.21417" lon="6.8218">
        <ele>867.332319</ele>
        <time>2021-04-29T19:52:07.829Z</time>
      </trkpt>
      <trkpt lat="47.21419" lon="6.82178">
        <ele>867.343779</ele>
        <time>2021-04-29T19:52:08.889Z</time>
      </trkpt>
      <trkpt lat="47.2143" lon="6.82197">
        <ele>867.465626</ele>
        <time>2021-04-29T19:52:15.631Z</time>
      </trkpt>
      <trkpt lat="47.21444" lon="6.82216">
        <ele>867.608594</ele>
        <time>2021-04-29T19:52:24.326Z</time>
      </trkpt>
      <trkpt lat="47.21455" lon="6.82221">
        <ele>867.693512</ele>
        <time>2021-04-29T19:52:28.665Z</time>
      </trkpt>
      <trkpt lat="47.21469" lon="6.82213">
        <ele>867.798102</ele>
        <time>2021-04-29T19:52:35.924Z</time>
      </trkpt>
      <trkpt lat="47.21471" lon="6.82224">
        <ele>867.853856</ele>
        <time>2021-04-29T19:52:38.707Z</time>
      </trkpt>
      <trkpt lat="47.21495" lon="6.82273">
        <ele>868.154285</ele>
        <time>2021-04-29T19:52:51.794Z</time>
      </trkpt>
      <trkpt lat="47.21498" lon="6.82281">
        <ele>868.198254</ele>
        <time>2021-04-29T19:52:53.513Z</time>
      </trkpt>
      <trkpt lat="47.21495" lon="6.82273">
        <ele>868.242223</ele>
        <time>2021-04-29T19:52:55.180Z</time>
      </trkpt>
      <trkpt lat="47.21471" lon="6.82224">
        <ele>868.276458</ele>
        <time>2021-04-29T19:53:05.404Z</time>
      </trkpt>
      <trkpt lat="47.21469" lon="6.82213">
        <ele>868.090825</ele>
        <time>2021-04-29T19:53:07.139Z</time>
      </trkpt>
      <trkpt lat="47.21455" lon="6.82221">
        <ele>867.742588</ele>
        <time>2021-04-29T19:53:12.827Z</time>
      </trkpt>
      <trkpt lat="47.21444" lon="6.82216">
        <ele>867.459851</ele>
        <time>2021-04-29T19:53:16.701Z</time>
      </trkpt>
      <trkpt lat="47.2143" lon="6.82197">
        <ele>866.983835</ele>
        <time>2021-04-29T19:53:22.445Z</time>
      </trkpt>
      <trkpt lat="47.21419" lon="6.82178">
        <ele>866.578141</ele>
        <time>2021-04-29T19:53:27.663Z</time>
      </trkpt>
      <trkpt lat="47.21417" lon="6.8218">
        <ele>866.539985</ele>
        <time>2021-04-29T19:53:27.940Z</time>
      </trkpt>
      <trkpt lat="47.21398" lon="6.82204">
        <ele>865.914366</ele>
        <time>2021-04-29T19:53:33.133Z</time>
      </trkpt>
      <trkpt lat="47.21371" lon="6.82236">
        <ele>865.072988</ele>
        <time>2021-04-29T19:53:39.997Z</time>
      </trkpt>
      <trkpt lat="47.21368" lon="6.8224">
        <ele>864.976258</ele>
        <time>2021-04-29T19:53:40.942Z</time>
      </trkpt>
      <trkpt lat="47.21355" lon="6.82254">
        <ele>864.58679</ele>
        <time>2021-04-29T19:53:43.815Z</time>
      </trkpt>
      <trkpt lat="47.21313" lon="6.82312">
        <ele>862.45909</ele>
        <time>2021-04-29T19:53:54.870Z</time>
      </trkpt>
      <trkpt lat="47.21306" lon="6.8232">
        <ele>862.078571</ele>
        <time>2021-04-29T19:53:56.437Z</time>
      </trkpt>
      <trkpt lat="47.21298" lon="6.82324">
        <ele>861.718077</ele>
        <time>2021-04-29T19:53:57.824Z</time>
      </trkpt>
      <trkpt lat="47.21235" lon="6.82321">
        <ele>858.970435</ele>
        <time>2021-04-29T19:54:09.613Z</time>
      </trkpt>
      <trkpt lat="47.21228" lon="6.82323">
        <ele>858.644869</ele>
        <time>2021-04-29T19:54:10.858Z</time>
      </trkpt>
      <trkpt lat="47.2118" lon="6.82344">
        <ele>856.477842</ele>
        <time>2021-04-29T19:54:20.229Z</time>
      </trkpt>
      <trkpt lat="47.21148" lon="6.82358">
        <ele>855.338798</ele>
        <time>2021-04-29T19:54:26.422Z</time>
      </trkpt>
      <trkpt lat="47.21099" lon="6.82379">
        <ele>853.688187</ele>
        <time>2021-04-29T19:54:36.240Z</time>
      </trkpt>
      <trkpt lat="47.20935" lon="6.82448">
        <ele>848.917241</ele>
        <time>2021-04-29T19:55:10.510Z</time>
      </trkpt>
      <trkpt lat="47.20877" lon="6.82472">
        <ele>847.57381</ele>
        <time>2021-04-29T19:55:23.500Z</time>
      </trkpt>
      <trkpt lat="47.20846" lon="6.82473">
        <ele>846.888765</ele>
        <time>2021-04-29T19:55:30.030Z</time>
      </trkpt>
      <trkpt lat="47.20833" lon="6.82466">
        <ele>846.585415</ele>
        <time>2021-04-29T19:55:32.914Z</time>
      </trkpt>
      <trkpt lat="47.20782" lon="6.8243">
        <ele>845.898044</ele>
        <time>2021-04-29T19:55:44.964Z</time>
      </trkpt>
      <trkpt lat="47.2072" lon="6.82388">
        <ele>845.115465</ele>
        <time>2021-04-29T19:56:00.392Z</time>
      </trkpt>
      <trkpt lat="47.20695" lon="6.8237">
        <ele>844.79974</ele>
        <time>2021-04-29T19:56:06.905Z</time>
      </trkpt>
      <trkpt lat="47.20678" lon="6.82361">
        <ele>844.599468</ele>
        <time>2021-04-29T19:56:11.000Z</time>
      </trkpt>
      <trkpt lat="47.20539" lon="6.82307">
        <ele>845.149095</ele>
        <time>2021-04-29T19:56:51.608Z</time>
      </trkpt>
      <trkpt lat="47.20489" lon="6.82288">
        <ele>845.482911</ele>
        <time>2021-04-29T19:57:09.092Z</time>
      </trkpt>
      <trkpt lat="47.20439" lon="6.82268">
        <ele>846.764323</ele>
        <time>2021-04-29T19:57:26.442Z</time>
      </trkpt>
      <trkpt lat="47.2032" lon="6.82222">
        <ele>849.790257</ele>
        <time>2021-04-29T19:58:13.163Z</time>
      </trkpt>
      <trkpt lat="47.20303" lon="6.82218">
        <ele>850.81803</ele>
        <time>2021-04-29T19:58:21.733Z</time>
      </trkpt>
      <trkpt lat="47.20246" lon="6.82215">
        <ele>854.714959</ele>
        <time>2021-04-29T19:58:52.453Z</time>
      </trkpt>
      <trkpt lat="47.20128" lon="6.82208">
        <ele>862.837541</ele>
        <time>2021-04-29T20:00:09.220Z</time>
      </trkpt>
      <trkpt lat="47.19954" lon="6.82203">
        <ele>878.332353</ele>
        <time>2021-04-29T20:02:14.671Z</time>
      </trkpt>
      <trkpt lat="47.19782" lon="6.8222">
        <ele>890.223962</ele>
        <time>2021-04-29T20:03:59.775Z</time>
      </trkpt>
      <trkpt lat="47.19751" lon="6.82223">
        <ele>890.681088</ele>
        <time>2021-04-29T20:04:15.051Z</time>
      </trkpt>
      <trkpt lat="47.1961" lon="6.82231">
        <ele>891.927165</ele>
        <time>2021-04-29T20:04:57.725Z</time>
      </trkpt>
      <trkpt lat="47.19451" lon="6.82241">
        <ele>884.709185</ele>
        <time>2021-04-29T20:05:25.997Z</time>
      </trkpt>
      <trkpt lat="47.19442" lon="6.82242">
        <ele>884.257799</ele>
        <time>2021-04-29T20:05:27.487Z</time>
      </trkpt>
      <trkpt lat="47.19336" lon="6.82249">
        <ele>881.468704</ele>
        <time>2021-04-29T20:05:47.377Z</time>
      </trkpt>
      <trkpt lat="47.19291" lon="6.82252">
        <ele>880.59335</ele>
        <time>2021-04-29T20:05:57.454Z</time>
      </trkpt>
      <trkpt lat="47.19263" lon="6.82259">
        <ele>880.022784</ele>
        <time>2021-04-29T20:06:06.416Z</time>
      </trkpt>
      <trkpt lat="47.19234" lon="6.82273">
        <ele>879.647277</ele>
        <time>2021-04-29T20:06:17.190Z</time>
      </trkpt>
      <trkpt lat="47.19203" lon="6.82303">
        <ele>880.010777</ele>
        <time>2021-04-29T20:06:29.943Z</time>
      </trkpt>
      <trkpt lat="47.19157" lon="6.82398">
        <ele>880.800892</ele>
        <time>2021-04-29T20:06:57.511Z</time>
      </trkpt>
      <trkpt lat="47.19146" lon="6.82421">
        <ele>880.984643</ele>
        <time>2021-04-29T20:07:03.790Z</time>
      </trkpt>
      <trkpt lat="47.1913" lon="6.82455">
        <ele>881.264135</ele>
        <time>2021-04-29T20:07:11.339Z</time>
      </trkpt>
      <trkpt lat="47.19104" lon="6.82488">
        <ele>880.919969</ele>
        <time>2021-04-29T20:07:19.787Z</time>
      </trkpt>
      <trkpt lat="47.19075" lon="6.82505">
        <ele>880.379166</ele>
        <time>2021-04-29T20:07:26.777Z</time>
      </trkpt>
      <trkpt lat="47.19044" lon="6.82508">
        <ele>879.841152</ele>
        <time>2021-04-29T20:07:33.265Z</time>
      </trkpt>
      <trkpt lat="47.19017" lon="6.82498">
        <ele>879.356554</ele>
        <time>2021-04-29T20:07:39.191Z</time>
      </trkpt>
      <trkpt lat="47.18994" lon="6.82478">
        <ele>878.889376</ele>
        <time>2021-04-29T20:07:44.374Z</time>
      </trkpt>
      <trkpt lat="47.18931" lon="6.82398">
        <ele>877.823058</ele>
        <time>2021-04-29T20:08:01.657Z</time>
      </trkpt>
      <trkpt lat="47.18929" lon="6.82397">
        <ele>877.804162</ele>
        <time>2021-04-29T20:08:02.026Z</time>
      </trkpt>
      <trkpt lat="47.18885" lon="6.82361">
        <ele>877.356861</ele>
        <time>2021-04-29T20:08:13.308Z</time>
      </trkpt>
      <trkpt lat="47.18868" lon="6.82347">
        <ele>877.183028</ele>
        <time>2021-04-29T20:08:18.228Z</time>
      </trkpt>
      <trkpt lat="47.18847" lon="6.82324">
        <ele>876.951668</ele>
        <time>2021-04-29T20:08:25.108Z</time>
      </trkpt>
      <trkpt lat="47.18711" lon="6.82175">
        <ele>877.760181</ele>
        <time>2021-04-29T20:09:18.112Z</time>
      </trkpt>
      <trkpt lat="47.18674" lon="6.82153">
        <ele>878.096684</ele>
        <time>2021-04-29T20:09:31.026Z</time>
      </trkpt>
      <trkpt lat="47.18544" lon="6.82154">
        <ele>878.370207</ele>
        <time>2021-04-29T20:10:07.938Z</time>
      </trkpt>
      <trkpt lat="47.18505" lon="6.82161">
        <ele>878.438389</ele>
        <time>2021-04-29T20:10:17.619Z</time>
      </trkpt>
      <trkpt lat="47.18488" lon="6.82167">
        <ele>878.469503</ele>
        <time>2021-04-29T20:10:21.775Z</time>
      </trkpt>
      <trkpt lat="47.18471" lon="6.82142">
        <ele>878.632728</ele>
        <time>2021-04-29T20:10:27.829Z</time>
      </trkpt>
      <trkpt lat="47.18427" lon="6.82106">
        <ele>878.976775</ele>
        <time>2021-04-29T20:10:42.018Z</time>
      </trkpt>
      <trkpt lat="47.1839" lon="6.82083">
        <ele>879.253873</ele>
        <time>2021-04-29T20:10:53.638Z</time>
      </trkpt>
      <trkpt lat="47.18363" lon="6.82104">
        <ele>879.459241</ele>
        <time>2021-04-29T20:11:02.629Z</time>
      </trkpt>
      <trkpt lat="47.18346" lon="6.82122">
        <ele>879.600281</ele>
        <time>2021-04-29T20:11:08.762Z</time>
      </trkpt>
      <trkpt lat="47.18333" lon="6.8214">
        <ele>879.916341</ele>
        <time>2021-04-29T20:11:15.602Z</time>
      </trkpt>
      <trkpt lat="47.18263" lon="6.8223">
        <ele>885.313171</ele>
        <time>2021-04-29T20:12:02.221Z</time>
      </trkpt>
      <trkpt lat="47.18227" lon="6.82255">
        <ele>887.558466</ele>
        <time>2021-04-29T20:12:26.604Z</time>
      </trkpt>
      <trkpt lat="47.18205" lon="6.82276">
        <ele>889.092206</ele>
        <time>2021-04-29T20:12:43.948Z</time>
      </trkpt>
      <trkpt lat="47.18191" lon="6.82291">
        <ele>890.13214</ele>
        <time>2021-04-29T20:13:00.311Z</time>
      </trkpt>
      <trkpt lat="47.18149" lon="6.82317">
        <ele>894.643311</ele>
        <time>2021-04-29T20:13:40.434Z</time>
      </trkpt>
      <trkpt lat="47.1806" lon="6.82341">
        <ele>903.531603</ele>
        <time>2021-04-29T20:15:06.749Z</time>
      </trkpt>
      <trkpt lat="47.18022" lon="6.82363">
        <ele>907.5843</ele>
        <time>2021-04-29T20:15:44.993Z</time>
      </trkpt>
      <trkpt lat="47.17934" lon="6.82359">
        <ele>915.558303</ele>
        <time>2021-04-29T20:17:04.260Z</time>
      </trkpt>
      <trkpt lat="47.17911" lon="6.82371">
        <ele>917.706167</ele>
        <time>2021-04-29T20:17:25.355Z</time>
      </trkpt>
      <trkpt lat="47.17897" lon="6.82392">
        <ele>919.495029</ele>
        <time>2021-04-29T20:17:42.064Z</time>
      </trkpt>
      <trkpt lat="47.17881" lon="6.82391">
        <ele>921.017115</ele>
        <time>2021-04-29T20:17:56.986Z</time>
      </trkpt>
      <trkpt lat="47.17803" lon="6.82392">
        <ele>927.359587</ele>
        <time>2021-04-29T20:18:48.055Z</time>
      </trkpt>
      <trkpt lat="47.1776" lon="6.82386">
        <ele>930.554063</ele>
        <time>2021-04-29T20:19:15.237Z</time>
      </trkpt>
      <trkpt lat="47.17618" lon="6.82332">
        <ele>940.731262</ele>
        <time>2021-04-29T20:20:44.410Z</time>
      </trkpt>
      <trkpt lat="47.17489" lon="6.82252">
        <ele>948.780135</ele>
        <time>2021-04-29T20:21:59.111Z</time>
      </trkpt>
      <trkpt lat="47.17458" lon="6.82229">
        <ele>950.196307</ele>
        <time>2021-04-29T20:22:15.689Z</time>
      </trkpt>
      <trkpt lat="47.1742" lon="6.8219">
        <ele>952.100714</ele>
        <time>2021-04-29T20:22:37.177Z</time>
      </trkpt>
      <trkpt lat="47.17288" lon="6.82037">
        <ele>958.38257</ele>
        <time>2021-04-29T20:23:50.661Z</time>
      </trkpt>
      <trkpt lat="47.17273" lon="6.82031">
        <ele>958.887897</ele>
        <time>2021-04-29T20:23:57.165Z</time>
      </trkpt>
      <trkpt lat="47.17246" lon="6.82034">
        <ele>959.819206</ele>
        <time>2021-04-29T20:24:09.104Z</time>
      </trkpt>
      <trkpt lat="47.17226" lon="6.82049">
        <ele>960.567921</ele>
        <time>2021-04-29T20:24:18.813Z</time>
      </trkpt>
      <trkpt lat="47.17104" lon="6.82172">
        <ele>963.317589</ele>
        <time>2021-04-29T20:25:18.347Z</time>
      </trkpt>
      <trkpt lat="47.17088" lon="6.82184">
        <ele>963.594794</ele>
        <time>2021-04-29T20:25:24.128Z</time>
      </trkpt>
      <trkpt lat="47.17063" lon="6.82194">
        <ele>963.97428</ele>
        <time>2021-04-29T20:25:29.859Z</time>
      </trkpt>
      <trkpt lat="47.17033" lon="6.82202">
        <ele>963.915868</ele>
        <time>2021-04-29T20:25:36.400Z</time>
      </trkpt>
      <trkpt lat="47.17015" lon="6.82206">
        <ele>963.358766</ele>
        <time>2021-04-29T20:25:40.771Z</time>
      </trkpt>
      <trkpt lat="47.16978" lon="6.82215">
        <ele>962.210224</ele>
        <time>2021-04-29T20:25:48.499Z</time>
      </trkpt>
      <trkpt lat="47.16969" lon="6.8222">
        <ele>961.891808</ele>
        <time>2021-04-29T20:25:50.385Z</time>
      </trkpt>
      <trkpt lat="47.16952" lon="6.82235">
        <ele>961.30335</ele>
        <time>2021-04-29T20:25:54.372Z</time>
      </trkpt>
      <trkpt lat="47.16941" lon="6.82258">
        <ele>960.705839</ele>
        <time>2021-04-29T20:25:58.033Z</time>
      </trkpt>
      <trkpt lat="47.16935" lon="6.82292">
        <ele>959.983136</ele>
        <time>2021-04-29T20:26:02.417Z</time>
      </trkpt>
      <trkpt lat="47.1693" lon="6.82389">
        <ele>957.72512</ele>
        <time>2021-04-29T20:26:14.575Z</time>
      </trkpt>
      <trkpt lat="47.16917" lon="6.82439">
        <ele>956.319761</ele>
        <time>2021-04-29T20:26:21.569Z</time>
      </trkpt>
      <trkpt lat="47.16905" lon="6.82466">
        <ele>955.440653</ele>
        <time>2021-04-29T20:26:26.450Z</time>
      </trkpt>
      <trkpt lat="47.169" lon="6.82475">
        <ele>955.147357</ele>
        <time>2021-04-29T20:26:28.030Z</time>
      </trkpt>
      <trkpt lat="47.16894" lon="6.82486">
        <ele>954.778927</ele>
        <time>2021-04-29T20:26:30.136Z</time>
      </trkpt>
      <trkpt lat="47.16886" lon="6.82501">
        <ele>954.27238</ele>
        <time>2021-04-29T20:26:32.441Z</time>
      </trkpt>
      <trkpt lat="47.16869" lon="6.82531">
        <ele>953.237636</ele>
        <time>2021-04-29T20:26:37.759Z</time>
      </trkpt>
      <trkpt lat="47.16863" lon="6.82539">
        <ele>952.922737</ele>
        <time>2021-04-29T20:26:39.119Z</time>
      </trkpt>
      <trkpt lat="47.16861" lon="6.82536">
        <ele>952.799799</ele>
        <time>2021-04-29T20:26:40.834Z</time>
      </trkpt>
      <trkpt lat="47.16834" lon="6.82478">
        <ele>950.246834</ele>
        <time>2021-04-29T20:26:50.063Z</time>
      </trkpt>
      <trkpt lat="47.16861" lon="6.82536">
        <ele>946.743187</ele>
        <time>2021-04-29T20:26:58.790Z</time>
      </trkpt>
      <trkpt lat="47.16863" lon="6.82539">
        <ele>946.510644</ele>
        <time>2021-04-29T20:26:59.298Z</time>
      </trkpt>
      <trkpt lat="47.16856" lon="6.82552">
        <ele>945.705268</ele>
        <time>2021-04-29T20:27:01.456Z</time>
      </trkpt>
      <trkpt lat="47.16853" lon="6.82561">
        <ele>945.193801</ele>
        <time>2021-04-29T20:27:02.787Z</time>
      </trkpt>
      <trkpt lat="47.16851" lon="6.82569">
        <ele>944.760997</ele>
        <time>2021-04-29T20:27:03.729Z</time>
      </trkpt>
      <trkpt lat="47.16844" lon="6.8257">
        <ele>944.259473</ele>
        <time>2021-04-29T20:27:04.910Z</time>
      </trkpt>
      <trkpt lat="47.16817" lon="6.82604">
        <ele>941.65235</ele>
        <time>2021-04-29T20:27:11.235Z</time>
      </trkpt>
      <trkpt lat="47.16811" lon="6.82613">
        <ele>941.023423</ele>
        <time>2021-04-29T20:27:12.670Z</time>
      </trkpt>
      <trkpt lat="47.16799" lon="6.8263">
        <ele>939.769439</ele>
        <time>2021-04-29T20:27:15.731Z</time>
      </trkpt>
      <trkpt lat="47.16796" lon="6.82634">
        <ele>939.510131</ele>
        <time>2021-04-29T20:27:16.302Z</time>
      </trkpt>
      <trkpt lat="47.16791" lon="6.82623">
        <ele>938.821714</ele>
        <time>2021-04-29T20:27:17.818Z</time>
      </trkpt>
      <trkpt lat="47.1678" lon="6.82605">
        <ele>937.360242</ele>
        <time>2021-04-29T20:27:20.484Z</time>
      </trkpt>
      <trkpt lat="47.16774" lon="6.82597">
        <ele>936.522796</ele>
        <time>2021-04-29T20:27:21.843Z</time>
      </trkpt>
      <trkpt lat="47.16756" lon="6.82584">
        <ele>934.569846</ele>
        <time>2021-04-29T20:27:25.030Z</time>
      </trkpt>
      <trkpt lat="47.16743" lon="6.82586">
        <ele>933.29444</ele>
        <time>2021-04-29T20:27:27.248Z</time>
      </trkpt>
      <trkpt lat="47.16735" lon="6.82591">
        <ele>932.44358</ele>
        <time>2021-04-29T20:27:28.594Z</time>
      </trkpt>
      <trkpt lat="47.16727" lon="6.82601">
        <ele>931.417962</ele>
        <time>2021-04-29T20:27:30.237Z</time>
      </trkpt>
      <trkpt lat="47.16717" lon="6.82637">
        <ele>928.843251</ele>
        <time>2021-04-29T20:27:34.558Z</time>
      </trkpt>
      <trkpt lat="47.1672" lon="6.82654">
        <ele>927.673975</ele>
        <time>2021-04-29T20:27:36.491Z</time>
      </trkpt>
      <trkpt lat="47.16724" lon="6.82669">
        <ele>926.588699</ele>
        <time>2021-04-29T20:27:38.435Z</time>
      </trkpt>
      <trkpt lat="47.16716" lon="6.82681">
        <ele>925.412088</ele>
        <time>2021-04-29T20:27:41.833Z</time>
      </trkpt>
      <trkpt lat="47.16689" lon="6.82703">
        <ele>922.408583</ele>
        <time>2021-04-29T20:27:51.017Z</time>
      </trkpt>
      <trkpt lat="47.16675" lon="6.82703">
        <ele>921.003087</ele>
        <time>2021-04-29T20:27:55.170Z</time>
      </trkpt>
      <trkpt lat="47.16668" lon="6.82713">
        <ele>920.286951</ele>
        <time>2021-04-29T20:27:58.237Z</time>
      </trkpt>
      <trkpt lat="47.16661" lon="6.82743">
        <ele>918.838341</ele>
        <time>2021-04-29T20:28:04.747Z</time>
      </trkpt>
      <trkpt lat="47.16659" lon="6.8275">
        <ele>918.489853</ele>
        <time>2021-04-29T20:28:06.201Z</time>
      </trkpt>
      <trkpt lat="47.1665" lon="6.82752">
        <ele>917.879058</ele>
        <time>2021-04-29T20:28:07.761Z</time>
      </trkpt>
      <trkpt lat="47.16641" lon="6.82758">
        <ele>917.235733</ele>
        <time>2021-04-29T20:28:09.434Z</time>
      </trkpt>
      <trkpt lat="47.16635" lon="6.82763">
        <ele>916.758367</ele>
        <time>2021-04-29T20:28:10.619Z</time>
      </trkpt>
      <trkpt lat="47.16629" lon="6.82763">
        <ele>916.341839</ele>
        <time>2021-04-29T20:28:11.680Z</time>
      </trkpt>
      <trkpt lat="47.16609" lon="6.82775">
        <ele>914.872568</ele>
        <time>2021-04-29T20:28:15.397Z</time>
      </trkpt>
      <trkpt lat="47.16587" lon="6.82787">
        <ele>913.288376</ele>
        <time>2021-04-29T20:28:19.314Z</time>
      </trkpt>
      <trkpt lat="47.16538" lon="6.82822">
        <ele>909.646933</ele>
        <time>2021-04-29T20:28:29.351Z</time>
      </trkpt>
      <trkpt lat="47.16472" lon="6.82866">
        <ele>908.278483</ele>
        <time>2021-04-29T20:28:43.558Z</time>
      </trkpt>
      <trkpt lat="47.16456" lon="6.82874">
        <ele>908.149179</ele>
        <time>2021-04-29T20:28:46.871Z</time>
      </trkpt>
      <trkpt lat="47.16445" lon="6.82875">
        <ele>908.064707</ele>
        <time>2021-04-29T20:28:50.264Z</time>
      </trkpt>
      <trkpt lat="47.16423" lon="6.8287">
        <ele>907.891102</ele>
        <time>2021-04-29T20:28:55.538Z</time>
      </trkpt>
      <trkpt lat="47.16373" lon="6.8284">
        <ele>907.464733</ele>
        <time>2021-04-29T20:29:13.511Z</time>
      </trkpt>
      <trkpt lat="47.16342" lon="6.82843">
        <ele>907.722376</ele>
        <time>2021-04-29T20:29:25.154Z</time>
      </trkpt>
      <trkpt lat="47.16317" lon="6.82857">
        <ele>908.406784</ele>
        <time>2021-04-29T20:29:35.258Z</time>
      </trkpt>
      <trkpt lat="47.1626" lon="6.82927">
        <ele>910.338375</ele>
        <time>2021-04-29T20:30:08.544Z</time>
      </trkpt>
      <trkpt lat="47.16224" lon="6.82996">
        <ele>911.872799</ele>
        <time>2021-04-29T20:30:31.094Z</time>
      </trkpt>
      <trkpt lat="47.16192" lon="6.83031">
        <ele>912.064085</ele>
        <time>2021-04-29T20:30:44.530Z</time>
      </trkpt>
      <trkpt lat="47.1616" lon="6.83062">
        <ele>912.130009</ele>
        <time>2021-04-29T20:30:56.305Z</time>
      </trkpt>
      <trkpt lat="47.1615" lon="6.83071">
        <ele>912.150182</ele>
        <time>2021-04-29T20:30:59.118Z</time>
      </trkpt>
      <trkpt lat="47.16118" lon="6.83097">
        <ele>912.211468</ele>
        <time>2021-04-29T20:31:08.556Z</time>
      </trkpt>
      <trkpt lat="47.16092" lon="6.83107">
        <ele>912.25682</ele>
        <time>2021-04-29T20:31:15.299Z</time>
      </trkpt>
      <trkpt lat="47.16" lon="6.83103">
        <ele>911.981625</ele>
        <time>2021-04-29T20:31:35.728Z</time>
      </trkpt>
      <trkpt lat="47.15965" lon="6.83111">
        <ele>911.790895</ele>
        <time>2021-04-29T20:31:43.691Z</time>
      </trkpt>
      <trkpt lat="47.15926" lon="6.83116">
        <ele>911.577165</ele>
        <time>2021-04-29T20:31:53.682Z</time>
      </trkpt>
      <trkpt lat="47.15886" lon="6.8311">
        <ele>911.360155</ele>
        <time>2021-04-29T20:32:04.883Z</time>
      </trkpt>
      <trkpt lat="47.15825" lon="6.83084">
        <ele>912.554967</ele>
        <time>2021-04-29T20:32:25.000Z</time>
      </trkpt>
      <trkpt lat="47.15795" lon="6.83064">
        <ele>913.216917</ele>
        <time>2021-04-29T20:32:36.549Z</time>
      </trkpt>
      <trkpt lat="47.15754" lon="6.83007">
        <ele>914.388394</ele>
        <time>2021-04-29T20:32:59.129Z</time>
      </trkpt>
      <trkpt lat="47.15723" lon="6.82936">
        <ele>915.871883</ele>
        <time>2021-04-29T20:33:23.656Z</time>
      </trkpt>
      <trkpt lat="47.15663" lon="6.82899">
        <ele>917.994932</ele>
        <time>2021-04-29T20:33:52.703Z</time>
      </trkpt>
      <trkpt lat="47.15563" lon="6.82855">
        <ele>921.385636</ele>
        <time>2021-04-29T20:34:35.842Z</time>
      </trkpt>
      <trkpt lat="47.15505" lon="6.82818">
        <ele>923.384888</ele>
        <time>2021-04-29T20:35:01.207Z</time>
      </trkpt>
      <trkpt lat="47.15453" lon="6.82767">
        <ele>925.354948</ele>
        <time>2021-04-29T20:35:27.120Z</time>
      </trkpt>
      <trkpt lat="47.1542" lon="6.8272">
        <ele>926.830858</ele>
        <time>2021-04-29T20:35:47.551Z</time>
      </trkpt>
      <trkpt lat="47.15411" lon="6.827">
        <ele>927.389835</ele>
        <time>2021-04-29T20:35:55.022Z</time>
      </trkpt>
      <trkpt lat="47.15396" lon="6.82669">
        <ele>928.272322</ele>
        <time>2021-04-29T20:36:06.701Z</time>
      </trkpt>
      <trkpt lat="47.15384" lon="6.82597">
        <ele>929.984163</ele>
        <time>2021-04-29T20:36:28.845Z</time>
      </trkpt>
      <trkpt lat="47.15378" lon="6.82552">
        <ele>931.051276</ele>
        <time>2021-04-29T20:36:43.021Z</time>
      </trkpt>
      <trkpt lat="47.15373" lon="6.82513">
        <ele>931.965476</ele>
        <time>2021-04-29T20:36:54.924Z</time>
      </trkpt>
      <trkpt lat="47.15371" lon="6.82427">
        <ele>932.93177</ele>
        <time>2021-04-29T20:37:17.531Z</time>
      </trkpt>
      <trkpt lat="47.15361" lon="6.82364">
        <ele>933.201195</ele>
        <time>2021-04-29T20:37:32.420Z</time>
      </trkpt>
      <trkpt lat="47.15335" lon="6.82306">
        <ele>933.490065</ele>
        <time>2021-04-29T20:37:45.448Z</time>
      </trkpt>
      <trkpt lat="47.15311" lon="6.82275">
        <ele>933.683767</ele>
        <time>2021-04-29T20:37:52.870Z</time>
      </trkpt>
      <trkpt lat="47.15271" lon="6.82262">
        <ele>933.486803</ele>
        <time>2021-04-29T20:38:01.928Z</time>
      </trkpt>
      <trkpt lat="47.15135" lon="6.82265">
        <ele>931.379314</ele>
        <time>2021-04-29T20:38:30.333Z</time>
      </trkpt>
      <trkpt lat="47.15077" lon="6.82216">
        <ele>931.764476</ele>
        <time>2021-04-29T20:38:46.677Z</time>
      </trkpt>
      <trkpt lat="47.15068" lon="6.82208">
        <ele>931.940884</ele>
        <time>2021-04-29T20:38:49.026Z</time>
      </trkpt>
      <trkpt lat="47.14837" lon="6.81995">
        <ele>938.949278</ele>
        <time>2021-04-29T20:40:40.993Z</time>
      </trkpt>
      <trkpt lat="47.14805" lon="6.81959">
        <ele>940.283538</ele>
        <time>2021-04-29T20:41:00.600Z</time>
      </trkpt>
      <trkpt lat="47.14789" lon="6.81921">
        <ele>941.266233</ele>
        <time>2021-04-29T20:41:14.729Z</time>
      </trkpt>
      <trkpt lat="47.14777" lon="6.81857">
        <ele>942.745582</ele>
        <time>2021-04-29T20:41:35.640Z</time>
      </trkpt>
      <trkpt lat="47.14751" lon="6.81726">
        <ele>945.756083</ele>
        <time>2021-04-29T20:42:13.885Z</time>
      </trkpt>
      <trkpt lat="47.14728" lon="6.81589">
        <ele>946.669517</ele>
        <time>2021-04-29T20:42:45.174Z</time>
      </trkpt>
      <trkpt lat="47.14731" lon="6.81544">
        <ele>946.928564</ele>
        <time>2021-04-29T20:42:53.528Z</time>
      </trkpt>
      <trkpt lat="47.14758" lon="6.81402">
        <ele>947.800022</ele>
        <time>2021-04-29T20:43:20.481Z</time>
      </trkpt>
      <trkpt lat="47.14757" lon="6.81347">
        <ele>948.130935</ele>
        <time>2021-04-29T20:43:31.125Z</time>
      </trkpt>
      <trkpt lat="47.1475" lon="6.81313">
        <ele>948.346675</ele>
        <time>2021-04-29T20:43:38.410Z</time>
      </trkpt>
      <trkpt lat="47.14713" lon="6.81216">
        <ele>949.028588</ele>
        <time>2021-04-29T20:44:03.629Z</time>
      </trkpt>
      <trkpt lat="47.14685" lon="6.81083">
        <ele>951.970877</ele>
        <time>2021-04-29T20:44:41.128Z</time>
      </trkpt>
      <trkpt lat="47.14525" lon="6.80751">
        <ele>962.29958</ele>
        <time>2021-04-29T20:46:47.451Z</time>
      </trkpt>
      <trkpt lat="47.14515" lon="6.80712">
        <ele>963.585421</ele>
        <time>2021-04-29T20:47:00.874Z</time>
      </trkpt>
      <trkpt lat="47.14503" lon="6.80577">
        <ele>967.802595</ele>
        <time>2021-04-29T20:47:45.915Z</time>
      </trkpt>
      <trkpt lat="47.14493" lon="6.80536">
        <ele>969.159781</ele>
        <time>2021-04-29T20:48:00.703Z</time>
      </trkpt>
      <trkpt lat="47.14413" lon="6.80319">
        <ele>977.469202</ele>
        <time>2021-04-29T20:49:27.010Z</time>
      </trkpt>
      <trkpt lat="47.1437" lon="6.80219">
        <ele>980.888431</ele>
        <time>2021-04-29T20:50:06.076Z</time>
      </trkpt>
      <trkpt lat="47.14368" lon="6.80214">
        <ele>981.055635</ele>
        <time>2021-04-29T20:50:08.975Z</time>
      </trkpt>
      <trkpt lat="47.14338" lon="6.80128">
        <ele>983.626797</ele>
        <time>2021-04-29T20:50:38.449Z</time>
      </trkpt>
      <trkpt lat="47.14315" lon="6.80035">
        <ele>986.071755</ele>
        <time>2021-04-29T20:51:07.283Z</time>
      </trkpt>
      <trkpt lat="47.14299" lon="6.79992">
        <ele>986.62142</ele>
        <time>2021-04-29T20:51:20.290Z</time>
      </trkpt>
      <trkpt lat="47.14259" lon="6.79918">
        <ele>987.688699</ele>
        <time>2021-04-29T20:51:42.405Z</time>
      </trkpt>
      <trkpt lat="47.14211" lon="6.79849">
        <ele>988.798355</ele>
        <time>2021-04-29T20:52:03.735Z</time>
      </trkpt>
      <trkpt lat="47.14181" lon="6.79783">
        <ele>988.984185</ele>
        <time>2021-04-29T20:52:19.535Z</time>
      </trkpt>
      <trkpt lat="47.14158" lon="6.79682">
        <ele>989.096122</ele>
        <time>2021-04-29T20:52:38.917Z</time>
      </trkpt>
      <trkpt lat="47.14146" lon="6.79651">
        <ele>989.133009</ele>
        <time>2021-04-29T20:52:45.076Z</time>
      </trkpt>
      <trkpt lat="47.14086" lon="6.79523">
        <ele>989.428382</ele>
        <time>2021-04-29T20:53:12.605Z</time>
      </trkpt>
      <trkpt lat="47.13995" lon="6.79422">
        <ele>989.86827</ele>
        <time>2021-04-29T20:53:46.518Z</time>
      </trkpt>
      <trkpt lat="47.13961" lon="6.79363">
        <ele>990.544485</ele>
        <time>2021-04-29T20:54:03.234Z</time>
      </trkpt>
      <trkpt lat="47.13924" lon="6.79293">
        <ele>991.321091</ele>
        <time>2021-04-29T20:54:23.285Z</time>
      </trkpt>
      <trkpt lat="47.13834" lon="6.79147">
        <ele>993.203678</ele>
        <time>2021-04-29T20:55:09.625Z</time>
      </trkpt>
      <trkpt lat="47.13832" lon="6.79144">
        <ele>993.243377</ele>
        <time>2021-04-29T20:55:10.697Z</time>
      </trkpt>
      <trkpt lat="47.13803" lon="6.79099">
        <ele>993.865963</ele>
        <time>2021-04-29T20:55:24.557Z</time>
      </trkpt>
      <trkpt lat="47.13779" lon="6.79044">
        <ele>994.530776</ele>
        <time>2021-04-29T20:55:39.106Z</time>
      </trkpt>
      <trkpt lat="47.13772" lon="6.79024">
        <ele>994.754844</ele>
        <time>2021-04-29T20:55:44.120Z</time>
      </trkpt>
      <trkpt lat="47.1376" lon="6.7899">
        <ele>995.280137</ele>
        <time>2021-04-29T20:55:52.743Z</time>
      </trkpt>
      <trkpt lat="47.13743" lon="6.78943">
        <ele>996.051269</ele>
        <time>2021-04-29T20:56:05.590Z</time>
      </trkpt>
      <trkpt lat="47.13714" lon="6.78885">
        <ele>997.097879</ele>
        <time>2021-04-29T20:56:23.811Z</time>
      </trkpt>
      <trkpt lat="47.13682" lon="6.78825">
        <ele>998.191099</ele>
        <time>2021-04-29T20:56:43.728Z</time>
      </trkpt>
      <trkpt lat="47.1363" lon="6.78727">
        <ele>1000.450134</ele>
        <time>2021-04-29T20:57:18.041Z</time>
      </trkpt>
      <trkpt lat="47.13611" lon="6.78682">
        <ele>1001.454819</ele>
        <time>2021-04-29T20:57:32.880Z</time>
      </trkpt>
      <trkpt lat="47.13581" lon="6.78554">
        <ele>1003.779143</ele>
        <time>2021-04-29T20:58:10.843Z</time>
      </trkpt>
      <trkpt lat="47.1357" lon="6.78525">
        <ele>1003.925011</ele>
        <time>2021-04-29T20:58:19.359Z</time>
      </trkpt>
      <trkpt lat="47.13538" lon="6.78473">
        <ele>1004.223871</ele>
        <time>2021-04-29T20:58:35.166Z</time>
      </trkpt>
      <trkpt lat="47.13493" lon="6.78416">
        <ele>1004.602891</ele>
        <time>2021-04-29T20:58:52.195Z</time>
      </trkpt>
      <trkpt lat="47.1348" lon="6.78394">
        <ele>1004.730532</ele>
        <time>2021-04-29T20:58:56.933Z</time>
      </trkpt>
      <trkpt lat="47.1343" lon="6.78282">
        <ele>1002.208614</ele>
        <time>2021-04-29T20:59:16.086Z</time>
      </trkpt>
      <trkpt lat="47.13284" lon="6.78019">
        <ele>991.76751</ele>
        <time>2021-04-29T20:59:58.189Z</time>
      </trkpt>
      <trkpt lat="47.13244" lon="6.77968">
        <ele>988.92857</ele>
        <time>2021-04-29T21:00:07.531Z</time>
      </trkpt>
      <trkpt lat="47.13088" lon="6.77835">
        <ele>978.12756</ele>
        <time>2021-04-29T21:00:39.025Z</time>
      </trkpt>
      <trkpt lat="47.1306" lon="6.77786">
        <ele>976.670458</ele>
        <time>2021-04-29T21:00:46.967Z</time>
      </trkpt>
      <trkpt lat="47.13021" lon="6.77693">
        <ele>974.322352</ele>
        <time>2021-04-29T21:01:01.088Z</time>
      </trkpt>
      <trkpt lat="47.12988" lon="6.77637">
        <ele>972.72511</ele>
        <time>2021-04-29T21:01:12.310Z</time>
      </trkpt>
      <trkpt lat="47.12978" lon="6.77619">
        <ele>972.349732</ele>
        <time>2021-04-29T21:01:15.825Z</time>
      </trkpt>
      <trkpt lat="47.12969" lon="6.77595">
        <ele>972.686187</ele>
        <time>2021-04-29T21:01:21.503Z</time>
      </trkpt>
      <trkpt lat="47.12964" lon="6.77575">
        <ele>972.953137</ele>
        <time>2021-04-29T21:01:25.447Z</time>
      </trkpt>
      <trkpt lat="47.12959" lon="6.77554">
        <ele>973.222053</ele>
        <time>2021-04-29T21:01:29.980Z</time>
      </trkpt>
      <trkpt lat="47.12955" lon="6.7753">
        <ele>973.522845</ele>
        <time>2021-04-29T21:01:35.754Z</time>
      </trkpt>
      <trkpt lat="47.12952" lon="6.77507">
        <ele>973.802245</ele>
        <time>2021-04-29T21:01:40.613Z</time>
      </trkpt>
      <trkpt lat="47.12951" lon="6.77489">
        <ele>974.022224</ele>
        <time>2021-04-29T21:01:45.636Z</time>
      </trkpt>
      <trkpt lat="47.12948" lon="6.77468">
        <ele>974.287098</ele>
        <time>2021-04-29T21:01:50.387Z</time>
      </trkpt>
      <trkpt lat="47.12947" lon="6.77447">
        <ele>974.551602</ele>
        <time>2021-04-29T21:01:56.194Z</time>
      </trkpt>
      <trkpt lat="47.12947" lon="6.77431">
        <ele>974.743778</ele>
        <time>2021-04-29T21:02:00.999Z</time>
      </trkpt>
      <trkpt lat="47.12956" lon="6.77287">
        <ele>977.689589</ele>
        <time>2021-04-29T21:02:45.047Z</time>
      </trkpt>
      <trkpt lat="47.12952" lon="6.77203">
        <ele>979.96983</ele>
        <time>2021-04-29T21:03:12.469Z</time>
      </trkpt>
      <trkpt lat="47.12933" lon="6.77061">
        <ele>983.766246</ele>
        <time>2021-04-29T21:03:57.824Z</time>
      </trkpt>
      <trkpt lat="47.12907" lon="6.76948">
        <ele>986.611629</ele>
        <time>2021-04-29T21:04:34.732Z</time>
      </trkpt>
      <trkpt lat="47.12866" lon="6.76684">
        <ele>991.393809</ele>
        <time>2021-04-29T21:05:48.965Z</time>
      </trkpt>
      <trkpt lat="47.12835" lon="6.76569">
        <ele>992.761967</ele>
        <time>2021-04-29T21:06:15.098Z</time>
      </trkpt>
      <trkpt lat="47.12794" lon="6.76456">
        <ele>992.959996</ele>
        <time>2021-04-29T21:06:37.645Z</time>
      </trkpt>
      <trkpt lat="47.12723" lon="6.76341">
        <ele>993.89583</ele>
        <time>2021-04-29T21:07:06.200Z</time>
      </trkpt>
      <trkpt lat="47.12663" lon="6.76267">
        <ele>995.756812</ele>
        <time>2021-04-29T21:07:34.139Z</time>
      </trkpt>
      <trkpt lat="47.12654" lon="6.76253">
        <ele>996.059757</ele>
        <time>2021-04-29T21:07:39.124Z</time>
      </trkpt>
      <trkpt lat="47.12641" lon="6.76233">
        <ele>996.503045</ele>
        <time>2021-04-29T21:07:47.494Z</time>
      </trkpt>
      <trkpt lat="47.12604" lon="6.76168">
        <ele>998.646059</ele>
        <time>2021-04-29T21:08:14.538Z</time>
      </trkpt>
      <trkpt lat="47.12537" lon="6.76017">
        <ele>1006.217028</ele>
        <time>2021-04-29T21:09:27.074Z</time>
      </trkpt>
      <trkpt lat="47.12492" lon="6.75907">
        <ele>1011.222626</ele>
        <time>2021-04-29T21:10:18.057Z</time>
      </trkpt>
      <trkpt lat="47.12459" lon="6.75826">
        <ele>1014.706243</ele>
        <time>2021-04-29T21:10:52.954Z</time>
      </trkpt>
      <trkpt lat="47.12439" lon="6.75765">
        <ele>1017.182424</ele>
        <time>2021-04-29T21:11:16.025Z</time>
      </trkpt>
      <trkpt lat="47.12388" lon="6.75559">
        <ele>1023.032995</ele>
        <time>2021-04-29T21:12:20.578Z</time>
      </trkpt>
      <trkpt lat="47.12353" lon="6.7539">
        <ele>1027.687982</ele>
        <time>2021-04-29T21:13:15.200Z</time>
      </trkpt>
      <trkpt lat="47.12337" lon="6.75291">
        <ele>1030.462214</ele>
        <time>2021-04-29T21:13:49.134Z</time>
      </trkpt>
      <trkpt lat="47.12335" lon="6.75219">
        <ele>1032.191546</ele>
        <time>2021-04-29T21:14:11.440Z</time>
      </trkpt>
      <trkpt lat="47.12352" lon="6.75106">
        <ele>1033.36427</ele>
        <time>2021-04-29T21:14:42.035Z</time>
      </trkpt>
      <trkpt lat="47.12348" lon="6.75072">
        <ele>1033.71819</ele>
        <time>2021-04-29T21:14:50.784Z</time>
      </trkpt>
      <trkpt lat="47.12346" lon="6.75044">
        <ele>1034.00188</ele>
        <time>2021-04-29T21:14:55.984Z</time>
      </trkpt>
      <trkpt lat="47.12298" lon="6.74774">
        <ele>1033.922384</ele>
        <time>2021-04-29T21:15:41.104Z</time>
      </trkpt>
      <trkpt lat="47.12253" lon="6.74577">
        <ele>1034.454737</ele>
        <time>2021-04-29T21:16:17.958Z</time>
      </trkpt>
      <trkpt lat="47.12252" lon="6.74534">
        <ele>1034.674904</ele>
        <time>2021-04-29T21:16:27.606Z</time>
      </trkpt>
      <trkpt lat="47.12253" lon="6.74525">
        <ele>1034.721564</ele>
        <time>2021-04-29T21:16:29.615Z</time>
      </trkpt>
      <trkpt lat="47.12257" lon="6.74493">
        <ele>1034.888526</ele>
        <time>2021-04-29T21:16:37.936Z</time>
      </trkpt>
      <trkpt lat="47.12282" lon="6.74398">
        <ele>1035.810346</ele>
        <time>2021-04-29T21:17:04.931Z</time>
      </trkpt>
      <trkpt lat="47.12314" lon="6.74311">
        <ele>1036.872053</ele>
        <time>2021-04-29T21:17:30.207Z</time>
      </trkpt>
      <trkpt lat="47.12325" lon="6.74278">
        <ele>1037.258471</ele>
        <time>2021-04-29T21:17:38.972Z</time>
      </trkpt>
      <trkpt lat="47.12351" lon="6.74202">
        <ele>1037.241608</ele>
        <time>2021-04-29T21:17:55.013Z</time>
      </trkpt>
      <trkpt lat="47.12357" lon="6.74131">
        <ele>1035.645171</ele>
        <time>2021-04-29T21:18:06.509Z</time>
      </trkpt>
      <trkpt lat="47.12346" lon="6.73819">
        <ele>1024.998994</ele>
        <time>2021-04-29T21:18:44.915Z</time>
      </trkpt>
      <trkpt lat="47.12344" lon="6.73783">
        <ele>1023.336532</ele>
        <time>2021-04-29T21:18:48.867Z</time>
      </trkpt>
      <trkpt lat="47.12343" lon="6.73734">
        <ele>1021.013694</ele>
        <time>2021-04-29T21:18:54.424Z</time>
      </trkpt>
      <trkpt lat="47.12349" lon="6.73702">
        <ele>1019.46121</ele>
        <time>2021-04-29T21:18:58.145Z</time>
      </trkpt>
      <trkpt lat="47.12397" lon="6.73639">
        <ele>1015.224123</ele>
        <time>2021-04-29T21:19:09.104Z</time>
      </trkpt>
      <trkpt lat="47.124" lon="6.73634">
        <ele>1014.925116</ele>
        <time>2021-04-29T21:19:09.812Z</time>
      </trkpt>
      <trkpt lat="47.12418" lon="6.73609">
        <ele>1013.336355</ele>
        <time>2021-04-29T21:19:14.050Z</time>
      </trkpt>
      <trkpt lat="47.12422" lon="6.7359">
        <ele>1012.446984</ele>
        <time>2021-04-29T21:19:16.279Z</time>
      </trkpt>
      <trkpt lat="47.12422" lon="6.7358">
        <ele>1011.981777</ele>
        <time>2021-04-29T21:19:17.550Z</time>
      </trkpt>
      <trkpt lat="47.12322" lon="6.73256">
        <ele>999.974805</ele>
        <time>2021-04-29T21:20:03.298Z</time>
      </trkpt>
      <trkpt lat="47.12254" lon="6.73091">
        <ele>990.30291</ele>
        <time>2021-04-29T21:20:25.961Z</time>
      </trkpt>
      <trkpt lat="47.1218" lon="6.72867">
        <ele>975.480539</ele>
        <time>2021-04-29T21:20:53.907Z</time>
      </trkpt>
      <trkpt lat="47.12133" lon="6.72738">
        <ele>966.608976</ele>
        <time>2021-04-29T21:21:10.415Z</time>
      </trkpt>
      <trkpt lat="47.12125" lon="6.72691">
        <ele>963.916417</ele>
        <time>2021-04-29T21:21:15.900Z</time>
      </trkpt>
      <trkpt lat="47.12123" lon="6.72649">
        <ele>961.562193</ele>
        <time>2021-04-29T21:21:20.702Z</time>
      </trkpt>
      <trkpt lat="47.12116" lon="6.72605">
        <ele>959.03737</ele>
        <time>2021-04-29T21:21:25.877Z</time>
      </trkpt>
      <trkpt lat="47.12093" lon="6.72532">
        <ele>954.626166</ele>
        <time>2021-04-29T21:21:35.183Z</time>
      </trkpt>
      <trkpt lat="47.12091" lon="6.7251">
        <ele>953.735032</ele>
        <time>2021-04-29T21:21:37.714Z</time>
      </trkpt>
      <trkpt lat="47.1211" lon="6.7239">
        <ele>948.722752</ele>
        <time>2021-04-29T21:21:52.291Z</time>
      </trkpt>
      <trkpt lat="47.12127" lon="6.72354">
        <ele>946.974367</ele>
        <time>2021-04-29T21:21:57.578Z</time>
      </trkpt>
      <trkpt lat="47.12191" lon="6.72285">
        <ele>943.373799</ele>
        <time>2021-04-29T21:22:12.344Z</time>
      </trkpt>
      <trkpt lat="47.12261" lon="6.72155">
        <ele>940.478073</ele>
        <time>2021-04-29T21:22:35.850Z</time>
      </trkpt>
      <trkpt lat="47.12264" lon="6.72138">
        <ele>940.178252</ele>
        <time>2021-04-29T21:22:38.807Z</time>
      </trkpt>
      <trkpt lat="47.12261" lon="6.72123">
        <ele>939.906095</ele>
        <time>2021-04-29T21:22:40.989Z</time>
      </trkpt>
      <trkpt lat="47.12192" lon="6.71994">
        <ele>938.089403</ele>
        <time>2021-04-29T21:23:05.767Z</time>
      </trkpt>
      <trkpt lat="47.12154" lon="6.71907">
        <ele>937.023</ele>
        <time>2021-04-29T21:23:21.233Z</time>
      </trkpt>
      <trkpt lat="47.12144" lon="6.71879">
        <ele>936.701496</ele>
        <time>2021-04-29T21:23:25.916Z</time>
      </trkpt>
      <trkpt lat="47.12135" lon="6.71841">
        <ele>936.30039</ele>
        <time>2021-04-29T21:23:31.952Z</time>
      </trkpt>
      <trkpt lat="47.12131" lon="6.71816">
        <ele>936.03732</ele>
        <time>2021-04-29T21:23:35.948Z</time>
      </trkpt>
      <trkpt lat="47.12129" lon="6.71805">
        <ele>935.924204</ele>
        <time>2021-04-29T21:23:37.662Z</time>
      </trkpt>
      <trkpt lat="47.12111" lon="6.71763">
        <ele>935.424204</ele>
        <time>2021-04-29T21:23:45.142Z</time>
      </trkpt>
      <trkpt lat="47.12083" lon="6.71712">
        <ele>934.769832</ele>
        <time>2021-04-29T21:23:54.841Z</time>
      </trkpt>
      <trkpt lat="47.12068" lon="6.71679">
        <ele>934.374224</ele>
        <time>2021-04-29T21:24:00.724Z</time>
      </trkpt>
      <trkpt lat="47.1205" lon="6.71629">
        <ele>933.897594</ele>
        <time>2021-04-29T21:24:09.397Z</time>
      </trkpt>
      <trkpt lat="47.12032" lon="6.71583">
        <ele>933.471263</ele>
        <time>2021-04-29T21:24:17.760Z</time>
      </trkpt>
      <trkpt lat="47.12005" lon="6.71541">
        <ele>933.010983</ele>
        <time>2021-04-29T21:24:26.654Z</time>
      </trkpt>
      <trkpt lat="47.11968" lon="6.71515">
        <ele>932.534595</ele>
        <time>2021-04-29T21:24:35.846Z</time>
      </trkpt>
      <trkpt lat="47.11913" lon="6.71481">
        <ele>932.013001</ele>
        <time>2021-04-29T21:24:49.760Z</time>
      </trkpt>
      <trkpt lat="47.11882" lon="6.71466">
        <ele>931.86579</ele>
        <time>2021-04-29T21:24:57.606Z</time>
      </trkpt>
      <trkpt lat="47.11845" lon="6.71445">
        <ele>931.685288</ele>
        <time>2021-04-29T21:25:07.708Z</time>
      </trkpt>
      <trkpt lat="47.11821" lon="6.71424">
        <ele>931.560051</ele>
        <time>2021-04-29T21:25:14.762Z</time>
      </trkpt>
      <trkpt lat="47.11805" lon="6.71404">
        <ele>931.465504</ele>
        <time>2021-04-29T21:25:20.267Z</time>
      </trkpt>
      <trkpt lat="47.11791" lon="6.71396">
        <ele>931.398258</ele>
        <time>2021-04-29T21:25:23.995Z</time>
      </trkpt>
      <trkpt lat="47.11758" lon="6.71397">
        <ele>931.327153</ele>
        <time>2021-04-29T21:25:32.372Z</time>
      </trkpt>
      <trkpt lat="47.11728" lon="6.71376">
        <ele>931.354522</ele>
        <time>2021-04-29T21:25:41.245Z</time>
      </trkpt>
      <trkpt lat="47.11712" lon="6.71362">
        <ele>931.369887</ele>
        <time>2021-04-29T21:25:46.477Z</time>
      </trkpt>
      <trkpt lat="47.11692" lon="6.71339">
        <ele>931.390636</ele>
        <time>2021-04-29T21:25:53.245Z</time>
      </trkpt>
      <trkpt lat="47.11671" lon="6.7131">
        <ele>931.4148</ele>
        <time>2021-04-29T21:26:01.399Z</time>
      </trkpt>
      <trkpt lat="47.11652" lon="6.71275">
        <ele>931.440043</ele>
        <time>2021-04-29T21:26:09.798Z</time>
      </trkpt>
      <trkpt lat="47.1163" lon="6.71236">
        <ele>931.473328</ele>
        <time>2021-04-29T21:26:19.455Z</time>
      </trkpt>
      <trkpt lat="47.11563" lon="6.71086">
        <ele>931.678446</ele>
        <time>2021-04-29T21:26:52.722Z</time>
      </trkpt>
      <trkpt lat="47.11554" lon="6.71064">
        <ele>931.707905</ele>
        <time>2021-04-29T21:26:57.778Z</time>
      </trkpt>
      <trkpt lat="47.11549" lon="6.71052">
        <ele>931.723283</ele>
        <time>2021-04-29T21:27:00.288Z</time>
      </trkpt>
      <trkpt lat="47.11536" lon="6.71017">
        <ele>931.768624</ele>
        <time>2021-04-29T21:27:07.933Z</time>
      </trkpt>
      <trkpt lat="47.11519" lon="6.70963">
        <ele>931.822584</ele>
        <time>2021-04-29T21:27:19.051Z</time>
      </trkpt>
      <trkpt lat="47.11507" lon="6.70923">
        <ele>931.862892</ele>
        <time>2021-04-29T21:27:27.399Z</time>
      </trkpt>
      <trkpt lat="47.11435" lon="6.70648">
        <ele>932.104434</ele>
        <time>2021-04-29T21:28:21.801Z</time>
      </trkpt>
      <trkpt lat="47.11422" lon="6.706">
        <ele>932.141</ele>
        <time>2021-04-29T21:28:31.269Z</time>
      </trkpt>
      <trkpt lat="47.11359" lon="6.70358">
        <ele>932.478158</ele>
        <time>2021-04-29T21:29:19.942Z</time>
      </trkpt>
      <trkpt lat="47.11287" lon="6.70135">
        <ele>932.849039</ele>
        <time>2021-04-29T21:30:07.777Z</time>
      </trkpt>
      <trkpt lat="47.11279" lon="6.70086">
        <ele>932.924365</ele>
        <time>2021-04-29T21:30:17.498Z</time>
      </trkpt>
      <trkpt lat="47.11257" lon="6.69848">
        <ele>932.611318</ele>
        <time>2021-04-29T21:30:59.705Z</time>
      </trkpt>
      <trkpt lat="47.11255" lon="6.69791">
        <ele>932.49797</ele>
        <time>2021-04-29T21:31:09.090Z</time>
      </trkpt>
      <trkpt lat="47.11262" lon="6.69653">
        <ele>932.010365</ele>
        <time>2021-04-29T21:31:31.894Z</time>
      </trkpt>
      <trkpt lat="47.11243" lon="6.69432">
        <ele>931.422845</ele>
        <time>2021-04-29T21:32:09.576Z</time>
      </trkpt>
      <trkpt lat="47.11233" lon="6.69376">
        <ele>931.375918</ele>
        <time>2021-04-29T21:32:20.830Z</time>
      </trkpt>
      <trkpt lat="47.11187" lon="6.69255">
        <ele>931.216698</ele>
        <time>2021-04-29T21:32:45.655Z</time>
      </trkpt>
      <trkpt lat="47.11187" lon="6.69223">
        <ele>931.078245</ele>
        <time>2021-04-29T21:32:51.274Z</time>
      </trkpt>
      <trkpt lat="47.11204" lon="6.69192">
        <ele>930.907201</ele>
        <time>2021-04-29T21:32:58.290Z</time>
      </trkpt>
      <trkpt lat="47.11189" lon="6.69164">
        <ele>930.752091</ele>
        <time>2021-04-29T21:33:04.129Z</time>
      </trkpt>
      <trkpt lat="47.11127" lon="6.68992">
        <ele>929.910102</ele>
        <time>2021-04-29T21:33:35.022Z</time>
      </trkpt>
      <trkpt lat="47.11101" lon="6.68913">
        <ele>929.544657</ele>
        <time>2021-04-29T21:33:48.745Z</time>
      </trkpt>
      <trkpt lat="47.11079" lon="6.68845">
        <ele>929.2317</ele>
        <time>2021-04-29T21:34:01.548Z</time>
      </trkpt>
      <trkpt lat="47.1105" lon="6.68761">
        <ele>929.203082</ele>
        <time>2021-04-29T21:34:18.840Z</time>
      </trkpt>
      <trkpt lat="47.11046" lon="6.6875">
        <ele>929.254829</ele>
        <time>2021-04-29T21:34:21.260Z</time>
      </trkpt>
      <trkpt lat="47.1102" lon="6.6868">
        <ele>929.596055</ele>
        <time>2021-04-29T21:34:38.099Z</time>
      </trkpt>
      <trkpt lat="47.11008" lon="6.68611">
        <ele>929.89865</ele>
        <time>2021-04-29T21:34:53.230Z</time>
      </trkpt>
      <trkpt lat="47.11004" lon="6.68548">
        <ele>930.160927</ele>
        <time>2021-04-29T21:35:06.353Z</time>
      </trkpt>
      <trkpt lat="47.10998" lon="6.68438">
        <ele>930.551153</ele>
        <time>2021-04-29T21:35:28.793Z</time>
      </trkpt>
      <trkpt lat="47.10991" lon="6.68328">
        <ele>930.94125</ele>
        <time>2021-04-29T21:35:50.388Z</time>
      </trkpt>
      <trkpt lat="47.10983" lon="6.68188">
        <ele>931.448335</ele>
        <time>2021-04-29T21:36:17.419Z</time>
      </trkpt>
      <trkpt lat="47.10973" lon="6.68122">
        <ele>931.697786</ele>
        <time>2021-04-29T21:36:31.199Z</time>
      </trkpt>
      <trkpt lat="47.10964" lon="6.68092">
        <ele>931.817978</ele>
        <time>2021-04-29T21:36:38.092Z</time>
      </trkpt>
      <trkpt lat="47.10888" lon="6.67936">
        <ele>932.281835</ele>
        <time>2021-04-29T21:37:17.034Z</time>
      </trkpt>
      <trkpt lat="47.1084" lon="6.67838">
        <ele>932.505075</ele>
        <time>2021-04-29T21:37:39.080Z</time>
      </trkpt>
      <trkpt lat="47.10832" lon="6.67821">
        <ele>932.51203</ele>
        <time>2021-04-29T21:37:42.417Z</time>
      </trkpt>
      <trkpt lat="47.10762" lon="6.67675">
        <ele>932.12349</ele>
        <time>2021-04-29T21:38:12.593Z</time>
      </trkpt>
      <trkpt lat="47.10744" lon="6.67639">
        <ele>932.027216</ele>
        <time>2021-04-29T21:38:20.012Z</time>
      </trkpt>
      <trkpt lat="47.10638" lon="6.67426">
        <ele>932.586169</ele>
        <time>2021-04-29T21:39:09.709Z</time>
      </trkpt>
      <trkpt lat="47.10517" lon="6.67175">
        <ele>935.248422</ele>
        <time>2021-04-29T21:40:20.360Z</time>
      </trkpt>
      <trkpt lat="47.10466" lon="6.67049">
        <ele>936.609296</ele>
        <time>2021-04-29T21:40:54.964Z</time>
      </trkpt>
      <trkpt lat="47.10452" lon="6.67006">
        <ele>937.057942</ele>
        <time>2021-04-29T21:41:05.921Z</time>
      </trkpt>
      <trkpt lat="47.10405" lon="6.66822">
        <ele>937.745156</ele>
        <time>2021-04-29T21:41:46.274Z</time>
      </trkpt>
      <trkpt lat="47.10373" lon="6.66696">
        <ele>937.832398</ele>
        <time>2021-04-29T21:42:09.178Z</time>
      </trkpt>
      <trkpt lat="47.10348" lon="6.66619">
        <ele>937.386938</ele>
        <time>2021-04-29T21:42:23.104Z</time>
      </trkpt>
      <trkpt lat="47.10283" lon="6.66431">
        <ele>936.166691</ele>
        <time>2021-04-29T21:42:57.287Z</time>
      </trkpt>
      <trkpt lat="47.10261" lon="6.66368">
        <ele>935.570142</ele>
        <time>2021-04-29T21:43:08.258Z</time>
      </trkpt>
      <trkpt lat="47.10246" lon="6.66332">
        <ele>935.212542</ele>
        <time>2021-04-29T21:43:14.754Z</time>
      </trkpt>
      <trkpt lat="47.1023" lon="6.663">
        <ele>934.876015</ele>
        <time>2021-04-29T21:43:20.903Z</time>
      </trkpt>
      <trkpt lat="47.102" lon="6.66246">
        <ele>934.289108</ele>
        <time>2021-04-29T21:43:31.432Z</time>
      </trkpt>
      <trkpt lat="47.10189" lon="6.66225">
        <ele>933.887659</ele>
        <time>2021-04-29T21:43:35.262Z</time>
      </trkpt>
      <trkpt lat="47.10182" lon="6.66213">
        <ele>933.624631</ele>
        <time>2021-04-29T21:43:37.564Z</time>
      </trkpt>
      <trkpt lat="47.10158" lon="6.66171">
        <ele>932.716692</ele>
        <time>2021-04-29T21:43:45.341Z</time>
      </trkpt>
      <trkpt lat="47.10127" lon="6.66114">
        <ele>931.515559</ele>
        <time>2021-04-29T21:43:55.324Z</time>
      </trkpt>
      <trkpt lat="47.10116" lon="6.66093">
        <ele>931.076597</ele>
        <time>2021-04-29T21:43:58.936Z</time>
      </trkpt>
      <trkpt lat="47.10059" lon="6.65988">
        <ele>928.949118</ele>
        <time>2021-04-29T21:44:17.167Z</time>
      </trkpt>
      <trkpt lat="47.1" lon="6.65878">
        <ele>926.809609</ele>
        <time>2021-04-29T21:44:36.748Z</time>
      </trkpt>
      <trkpt lat="47.09956" lon="6.65794">
        <ele>925.669807</ele>
        <time>2021-04-29T21:44:52.840Z</time>
      </trkpt>
      <trkpt lat="47.09882" lon="6.65658">
        <ele>924.838964</ele>
        <time>2021-04-29T21:45:22.008Z</time>
      </trkpt>
      <trkpt lat="47.09642" lon="6.65213">
        <ele>923.511157</ele>
        <time>2021-04-29T21:47:00.486Z</time>
      </trkpt>
      <trkpt lat="47.09618" lon="6.65171">
        <ele>923.445592</ele>
        <time>2021-04-29T21:47:09.745Z</time>
      </trkpt>
      <trkpt lat="47.09592" lon="6.65131">
        <ele>923.381645</ele>
        <time>2021-04-29T21:47:19.633Z</time>
      </trkpt>
      <trkpt lat="47.09534" lon="6.6505">
        <ele>923.249994</ele>
        <time>2021-04-29T21:47:40.365Z</time>
      </trkpt>
      <trkpt lat="47.09526" lon="6.65039">
        <ele>923.231927</ele>
        <time>2021-04-29T21:47:43.532Z</time>
      </trkpt>
      <trkpt lat="47.09399" lon="6.64864">
        <ele>922.564602</ele>
        <time>2021-04-29T21:48:28.443Z</time>
      </trkpt>
      <trkpt lat="47.0937" lon="6.64831">
        <ele>922.252494</ele>
        <time>2021-04-29T21:48:36.858Z</time>
      </trkpt>
      <trkpt lat="47.09333" lon="6.64804">
        <ele>921.590067</ele>
        <time>2021-04-29T21:48:46.009Z</time>
      </trkpt>
      <trkpt lat="47.09245" lon="6.6475">
        <ele>920.061697</ele>
        <time>2021-04-29T21:49:06.423Z</time>
      </trkpt>
      <trkpt lat="47.09215" lon="6.64731">
        <ele>919.536267</ele>
        <time>2021-04-29T21:49:13.314Z</time>
      </trkpt>
      <trkpt lat="47.09177" lon="6.64707">
        <ele>918.861915</ele>
        <time>2021-04-29T21:49:22.047Z</time>
      </trkpt>
      <trkpt lat="47.091" lon="6.6466">
        <ele>917.502441</ele>
        <time>2021-04-29T21:49:40.079Z</time>
      </trkpt>
      <trkpt lat="47.09039" lon="6.64606">
        <ele>916.384423</ele>
        <time>2021-04-29T21:49:56.181Z</time>
      </trkpt>
      <trkpt lat="47.0886" lon="6.64381">
        <ele>913.115807</ele>
        <time>2021-04-29T21:50:48.944Z</time>
      </trkpt>
      <trkpt lat="47.08831" lon="6.64333">
        <ele>912.47852</ele>
        <time>2021-04-29T21:50:58.449Z</time>
      </trkpt>
      <trkpt lat="47.0882" lon="6.64305">
        <ele>912.154913</ele>
        <time>2021-04-29T21:51:03.220Z</time>
      </trkpt>
      <trkpt lat="47.08805" lon="6.64264">
        <ele>911.688914</ele>
        <time>2021-04-29T21:51:10.127Z</time>
      </trkpt>
      <trkpt lat="47.08775" lon="6.64199">
        <ele>910.931645</ele>
        <time>2021-04-29T21:51:21.852Z</time>
      </trkpt>
      <trkpt lat="47.08657" lon="6.64004">
        <ele>908.864876</ele>
        <time>2021-04-29T21:52:01.572Z</time>
      </trkpt>
      <trkpt lat="47.08619" lon="6.63948">
        <ele>908.642718</ele>
        <time>2021-04-29T21:52:14.846Z</time>
      </trkpt>
      <trkpt lat="47.08598" lon="6.63918">
        <ele>908.519693</ele>
        <time>2021-04-29T21:52:22.630Z</time>
      </trkpt>
      <trkpt lat="47.08485" lon="6.63769">
        <ele>908.67477</ele>
        <time>2021-04-29T21:53:05.419Z</time>
      </trkpt>
      <trkpt lat="47.08391" lon="6.63649">
        <ele>908.876171</ele>
        <time>2021-04-29T21:53:41.857Z</time>
      </trkpt>
      <trkpt lat="47.08374" lon="6.63627">
        <ele>908.822324</ele>
        <time>2021-04-29T21:53:48.051Z</time>
      </trkpt>
      <trkpt lat="47.08357" lon="6.63606">
        <ele>908.76837</ele>
        <time>2021-04-29T21:53:54.065Z</time>
      </trkpt>
      <trkpt lat="47.08355" lon="6.63603">
        <ele>908.762227</ele>
        <time>2021-04-29T21:53:54.724Z</time>
      </trkpt>
      <trkpt lat="47.0834" lon="6.63583">
        <ele>908.713007</ele>
        <time>2021-04-29T21:53:59.881Z</time>
      </trkpt>
      <trkpt lat="47.08335" lon="6.63576">
        <ele>908.696196</ele>
        <time>2021-04-29T21:54:01.738Z</time>
      </trkpt>
      <trkpt lat="47.083" lon="6.63529">
        <ele>908.583156</ele>
        <time>2021-04-29T21:54:13.589Z</time>
      </trkpt>
      <trkpt lat="47.08296" lon="6.63522">
        <ele>908.56789</ele>
        <time>2021-04-29T21:54:15.115Z</time>
      </trkpt>
      <trkpt lat="47.08289" lon="6.6351">
        <ele>908.44724</ele>
        <time>2021-04-29T21:54:17.587Z</time>
      </trkpt>
      <trkpt lat="47.0828" lon="6.63483">
        <ele>907.608146</ele>
        <time>2021-04-29T21:54:22.360Z</time>
      </trkpt>
      <trkpt lat="47.08278" lon="6.63464">
        <ele>907.084168</ele>
        <time>2021-04-29T21:54:25.180Z</time>
      </trkpt>
      <trkpt lat="47.08279" lon="6.63446">
        <ele>906.599314</ele>
        <time>2021-04-29T21:54:27.679Z</time>
      </trkpt>
      <trkpt lat="47.08284" lon="6.63431">
        <ele>906.121493</ele>
        <time>2021-04-29T21:54:29.880Z</time>
      </trkpt>
      <trkpt lat="47.08277" lon="6.6342">
        <ele>905.726039</ele>
        <time>2021-04-29T21:54:31.708Z</time>
      </trkpt>
      <trkpt lat="47.08271" lon="6.63408">
        <ele>905.309702</ele>
        <time>2021-04-29T21:54:33.805Z</time>
      </trkpt>
      <trkpt lat="47.08261" lon="6.6337">
        <ele>904.181587</ele>
        <time>2021-04-29T21:54:38.931Z</time>
      </trkpt>
      <trkpt lat="47.08255" lon="6.63332">
        <ele>903.137987</ele>
        <time>2021-04-29T21:54:43.646Z</time>
      </trkpt>
      <trkpt lat="47.08253" lon="6.63295">
        <ele>902.122133</ele>
        <time>2021-04-29T21:54:48.206Z</time>
      </trkpt>
      <trkpt lat="47.08251" lon="6.63253">
        <ele>900.629222</ele>
        <time>2021-04-29T21:54:53.349Z</time>
      </trkpt>
      <trkpt lat="47.08249" lon="6.63219">
        <ele>898.900565</ele>
        <time>2021-04-29T21:54:57.266Z</time>
      </trkpt>
      <trkpt lat="47.08247" lon="6.63147">
        <ele>895.221931</ele>
        <time>2021-04-29T21:55:05.687Z</time>
      </trkpt>
      <trkpt lat="47.08255" lon="6.63031">
        <ele>889.255767</ele>
        <time>2021-04-29T21:55:18.978Z</time>
      </trkpt>
      <trkpt lat="47.0825" lon="6.62971">
        <ele>886.491223</ele>
        <time>2021-04-29T21:55:25.993Z</time>
      </trkpt>
      <trkpt lat="47.08236" lon="6.62924">
        <ele>884.404856</ele>
        <time>2021-04-29T21:55:32.037Z</time>
      </trkpt>
      <trkpt lat="47.08225" lon="6.62905">
        <ele>883.42177</ele>
        <time>2021-04-29T21:55:34.828Z</time>
      </trkpt>
      <trkpt lat="47.08205" lon="6.6289">
        <ele>882.051143</ele>
        <time>2021-04-29T21:55:38.760Z</time>
      </trkpt>
      <trkpt lat="47.08143" lon="6.62887">
        <ele>878.368219</ele>
        <time>2021-04-29T21:55:49.639Z</time>
      </trkpt>
      <trkpt lat="47.08098" lon="6.62872">
        <ele>877.075716</ele>
        <time>2021-04-29T21:55:59.586Z</time>
      </trkpt>
      <trkpt lat="47.08075" lon="6.62857">
        <ele>877.083819</ele>
        <time>2021-04-29T21:56:04.621Z</time>
      </trkpt>
      <trkpt lat="47.08057" lon="6.62844">
        <ele>877.090178</ele>
        <time>2021-04-29T21:56:10.518Z</time>
      </trkpt>
      <trkpt lat="47.08044" lon="6.62831">
        <ele>877.095185</ele>
        <time>2021-04-29T21:56:13.887Z</time>
      </trkpt>
      <trkpt lat="47.08041" lon="6.62827">
        <ele>877.09646</ele>
        <time>2021-04-29T21:56:16.755Z</time>
      </trkpt>
      <trkpt lat="47.08018" lon="6.62795">
        <ele>877.106518</ele>
        <time>2021-04-29T21:56:24.499Z</time>
      </trkpt>
      <trkpt lat="47.08021" lon="6.62789">
        <ele>877.10828</ele>
        <time>2021-04-29T21:56:28.600Z</time>
      </trkpt>
      <trkpt lat="47.08026" lon="6.62765">
        <ele>877.113654</ele>
        <time>2021-04-29T21:56:33.546Z</time>
      </trkpt>
      <trkpt lat="47.08019" lon="6.62607">
        <ele>878.122121</ele>
        <time>2021-04-29T21:57:18.074Z</time>
      </trkpt>
      <trkpt lat="47.08007" lon="6.62521">
        <ele>878.961271</ele>
        <time>2021-04-29T21:57:40.299Z</time>
      </trkpt>
      <trkpt lat="47.0801" lon="6.62508">
        <ele>879.097021</ele>
        <time>2021-04-29T21:57:43.415Z</time>
      </trkpt>
      <trkpt lat="47.08014" lon="6.62499">
        <ele>879.192522</ele>
        <time>2021-04-29T21:57:46.107Z</time>
      </trkpt>
      <trkpt lat="47.08008" lon="6.62493">
        <ele>879.290627</ele>
        <time>2021-04-29T21:57:47.727Z</time>
      </trkpt>
      <trkpt lat="47.08" lon="6.6247">
        <ele>879.535489</ele>
        <time>2021-04-29T21:57:52.433Z</time>
      </trkpt>
      <trkpt lat="47.07985" lon="6.62335">
        <ele>877.132097</ele>
        <time>2021-04-29T21:58:13.049Z</time>
      </trkpt>
      <trkpt lat="47.0797" lon="6.62284">
        <ele>876.029492</ele>
        <time>2021-04-29T21:58:20.647Z</time>
      </trkpt>
      <trkpt lat="47.07955" lon="6.62253">
        <ele>875.253606</ele>
        <time>2021-04-29T21:58:25.845Z</time>
      </trkpt>
      <trkpt lat="47.07947" lon="6.62235">
        <ele>874.828857</ele>
        <time>2021-04-29T21:58:28.672Z</time>
      </trkpt>
      <trkpt lat="47.07927" lon="6.62196">
        <ele>873.50734</ele>
        <time>2021-04-29T21:58:35.073Z</time>
      </trkpt>
      <trkpt lat="47.07894" lon="6.62086">
        <ele>869.449272</ele>
        <time>2021-04-29T21:58:50.655Z</time>
      </trkpt>
      <trkpt lat="47.07835" lon="6.61977">
        <ele>864.801672</ele>
        <time>2021-04-29T21:59:08.519Z</time>
      </trkpt>
      <trkpt lat="47.07789" lon="6.61903">
        <ele>861.442169</ele>
        <time>2021-04-29T21:59:21.790Z</time>
      </trkpt>
      <trkpt lat="47.07732" lon="6.6183">
        <ele>857.759103</ele>
        <time>2021-04-29T21:59:36.447Z</time>
      </trkpt>
      <trkpt lat="47.07611" lon="6.61765">
        <ele>849.468258</ele>
        <time>2021-04-29T22:00:00.279Z</time>
      </trkpt>
      <trkpt lat="47.07586" lon="6.61762">
        <ele>847.785105</ele>
        <time>2021-04-29T22:00:04.776Z</time>
      </trkpt>
      <trkpt lat="47.07576" lon="6.61778">
        <ele>846.794152</ele>
        <time>2021-04-29T22:00:07.441Z</time>
      </trkpt>
      <trkpt lat="47.07571" lon="6.6179">
        <ele>846.130359</ele>
        <time>2021-04-29T22:00:09.103Z</time>
      </trkpt>
      <trkpt lat="47.07561" lon="6.61797">
        <ele>845.385905</ele>
        <time>2021-04-29T22:00:11.144Z</time>
      </trkpt>
      <trkpt lat="47.07503" lon="6.61797">
        <ele>840.288886</ele>
        <time>2021-04-29T22:00:21.174Z</time>
      </trkpt>
      <trkpt lat="47.07477" lon="6.61808">
        <ele>837.749356</ele>
        <time>2021-04-29T22:00:25.932Z</time>
      </trkpt>
      <trkpt lat="47.07443" lon="6.61839">
        <ele>834.031845</ele>
        <time>2021-04-29T22:00:32.764Z</time>
      </trkpt>
      <trkpt lat="47.0739" lon="6.61878">
        <ele>828.531314</ele>
        <time>2021-04-29T22:00:42.963Z</time>
      </trkpt>
      <trkpt lat="47.07354" lon="6.61896">
        <ele>825.134339</ele>
        <time>2021-04-29T22:00:49.536Z</time>
      </trkpt>
      <trkpt lat="47.07332" lon="6.61898">
        <ele>823.258499</ele>
        <time>2021-04-29T22:00:53.240Z</time>
      </trkpt>
      <trkpt lat="47.07317" lon="6.6189">
        <ele>821.838606</ele>
        <time>2021-04-29T22:00:55.994Z</time>
      </trkpt>
      <trkpt lat="47.073" lon="6.61859">
        <ele>819.43452</ele>
        <time>2021-04-29T22:01:00.758Z</time>
      </trkpt>
      <trkpt lat="47.07278" lon="6.61835">
        <ele>817.067744</ele>
        <time>2021-04-29T22:01:05.511Z</time>
      </trkpt>
      <trkpt lat="47.07255" lon="6.61825">
        <ele>814.992002</ele>
        <time>2021-04-29T22:01:09.686Z</time>
      </trkpt>
      <trkpt lat="47.07225" lon="6.61823">
        <ele>812.337418</ele>
        <time>2021-04-29T22:01:15.047Z</time>
      </trkpt>
      <trkpt lat="47.07186" lon="6.61833">
        <ele>809.739146</ele>
        <time>2021-04-29T22:01:22.134Z</time>
      </trkpt>
      <trkpt lat="47.07153" lon="6.61844">
        <ele>807.594032</ele>
        <time>2021-04-29T22:01:28.156Z</time>
      </trkpt>
      <trkpt lat="47.07148" lon="6.6183">
        <ele>806.869447</ele>
        <time>2021-04-29T22:01:30.233Z</time>
      </trkpt>
      <trkpt lat="47.07123" lon="6.61812">
        <ele>805.076919</ele>
        <time>2021-04-29T22:01:35.308Z</time>
      </trkpt>
      <trkpt lat="47.07099" lon="6.61806">
        <ele>803.524849</ele>
        <time>2021-04-29T22:01:39.770Z</time>
      </trkpt>
      <trkpt lat="47.06947" lon="6.61791">
        <ele>795.901789</ele>
        <time>2021-04-29T22:02:08.710Z</time>
      </trkpt>
      <trkpt lat="47.06931" lon="6.61788">
        <ele>795.202145</ele>
        <time>2021-04-29T22:02:11.778Z</time>
      </trkpt>
      <trkpt lat="47.06926" lon="6.61785">
        <ele>794.936895</ele>
        <time>2021-04-29T22:02:13.046Z</time>
      </trkpt>
      <trkpt lat="47.06862" lon="6.61759">
        <ele>792.339971</ele>
        <time>2021-04-29T22:02:26.433Z</time>
      </trkpt>
      <trkpt lat="47.06842" lon="6.61755">
        <ele>791.902154</ele>
        <time>2021-04-29T22:02:30.686Z</time>
      </trkpt>
      <trkpt lat="47.06815" lon="6.61745">
        <ele>791.299049</ele>
        <time>2021-04-29T22:02:36.405Z</time>
      </trkpt>
      <trkpt lat="47.06785" lon="6.61725">
        <ele>790.571835</ele>
        <time>2021-04-29T22:02:43.453Z</time>
      </trkpt>
      <trkpt lat="47.06776" lon="6.61722">
        <ele>790.368323</ele>
        <time>2021-04-29T22:02:45.496Z</time>
      </trkpt>
      <trkpt lat="47.06764" lon="6.617">
        <ele>789.948715</ele>
        <time>2021-04-29T22:02:50.070Z</time>
      </trkpt>
      <trkpt lat="47.06738" lon="6.61658">
        <ele>789.0962</ele>
        <time>2021-04-29T22:02:59.157Z</time>
      </trkpt>
      <trkpt lat="47.06714" lon="6.61628">
        <ele>788.375623</ele>
        <time>2021-04-29T22:03:06.761Z</time>
      </trkpt>
      <trkpt lat="47.06636" lon="6.61574">
        <ele>786.389765</ele>
        <time>2021-04-29T22:03:26.494Z</time>
      </trkpt>
      <trkpt lat="47.06616" lon="6.61548">
        <ele>785.761842</ele>
        <time>2021-04-29T22:03:32.220Z</time>
      </trkpt>
      <trkpt lat="47.06604" lon="6.61523">
        <ele>785.29447</ele>
        <time>2021-04-29T22:03:36.415Z</time>
      </trkpt>
      <trkpt lat="47.06593" lon="6.61501">
        <ele>784.862232</ele>
        <time>2021-04-29T22:03:40.238Z</time>
      </trkpt>
      <trkpt lat="47.06585" lon="6.61473">
        <ele>784.207297</ele>
        <time>2021-04-29T22:03:44.419Z</time>
      </trkpt>
      <trkpt lat="47.06573" lon="6.61426">
        <ele>782.520483</ele>
        <time>2021-04-29T22:03:51.228Z</time>
      </trkpt>
      <trkpt lat="47.06563" lon="6.61377">
        <ele>780.821681</ele>
        <time>2021-04-29T22:03:57.932Z</time>
      </trkpt>
      <trkpt lat="47.06551" lon="6.61317">
        <ele>778.758848</ele>
        <time>2021-04-29T22:04:05.889Z</time>
      </trkpt>
      <trkpt lat="47.06536" lon="6.61276">
        <ele>777.185527</ele>
        <time>2021-04-29T22:04:11.781Z</time>
      </trkpt>
      <trkpt lat="47.06513" lon="6.61246">
        <ele>775.735618</ele>
        <time>2021-04-29T22:04:17.304Z</time>
      </trkpt>
      <trkpt lat="47.06452" lon="6.61195">
        <ele>773.700836</ele>
        <time>2021-04-29T22:04:30.935Z</time>
      </trkpt>
      <trkpt lat="47.06423" lon="6.61156">
        <ele>772.578499</ele>
        <time>2021-04-29T22:04:39.026Z</time>
      </trkpt>
      <trkpt lat="47.06407" lon="6.61128">
        <ele>771.854333</ele>
        <time>2021-04-29T22:04:44.607Z</time>
      </trkpt>
      <trkpt lat="47.06369" lon="6.61055">
        <ele>770.918608</ele>
        <time>2021-04-29T22:05:00.449Z</time>
      </trkpt>
      <trkpt lat="47.06305" lon="6.60911">
        <ele>773.134905</ele>
        <time>2021-04-29T22:05:44.263Z</time>
      </trkpt>
      <trkpt lat="47.06299" lon="6.60908">
        <ele>773.243039</ele>
        <time>2021-04-29T22:05:47.633Z</time>
      </trkpt>
      <trkpt lat="47.06297" lon="6.60893">
        <ele>773.42942</ele>
        <time>2021-04-29T22:05:52.050Z</time>
      </trkpt>
      <trkpt lat="47.06293" lon="6.6088">
        <ele>773.625743</ele>
        <time>2021-04-29T22:05:56.075Z</time>
      </trkpt>
      <trkpt lat="47.06235" lon="6.60769">
        <ele>775.745194</ele>
        <time>2021-04-29T22:06:38.055Z</time>
      </trkpt>
      <trkpt lat="47.06212" lon="6.60729">
        <ele>776.578124</ele>
        <time>2021-04-29T22:06:52.269Z</time>
      </trkpt>
      <trkpt lat="47.06178" lon="6.60657">
        <ele>777.963759</ele>
        <time>2021-04-29T22:07:12.628Z</time>
      </trkpt>
      <trkpt lat="47.06171" lon="6.60651">
        <ele>778.155158</ele>
        <time>2021-04-29T22:07:15.906Z</time>
      </trkpt>
      <trkpt lat="47.06161" lon="6.60651">
        <ele>778.223598</ele>
        <time>2021-04-29T22:07:19.112Z</time>
      </trkpt>
      <trkpt lat="47.0611" lon="6.60677">
        <ele>778.597645</ele>
        <time>2021-04-29T22:07:35.944Z</time>
      </trkpt>
      <trkpt lat="47.06105" lon="6.60678">
        <ele>778.633577</ele>
        <time>2021-04-29T22:07:37.216Z</time>
      </trkpt>
      <trkpt lat="47.06101" lon="6.60677">
        <ele>778.665233</ele>
        <time>2021-04-29T22:07:38.694Z</time>
      </trkpt>
      <trkpt lat="47.06085" lon="6.6067">
        <ele>778.781021</ele>
        <time>2021-04-29T22:07:43.213Z</time>
      </trkpt>
      <trkpt lat="47.06076" lon="6.60651">
        <ele>778.889538</ele>
        <time>2021-04-29T22:07:47.917Z</time>
      </trkpt>
      <trkpt lat="47.06074" lon="6.60641">
        <ele>778.941808</ele>
        <time>2021-04-29T22:07:49.756Z</time>
      </trkpt>
      <trkpt lat="47.06077" lon="6.60634">
        <ele>778.976493</ele>
        <time>2021-04-29T22:07:51.122Z</time>
      </trkpt>
      <trkpt lat="47.06082" lon="6.60624">
        <ele>779.039559</ele>
        <time>2021-04-29T22:07:53.792Z</time>
      </trkpt>
      <trkpt lat="47.06085" lon="6.60626">
        <ele>779.061305</ele>
        <time>2021-04-29T22:07:55.177Z</time>
      </trkpt>
      <trkpt lat="47.06098" lon="6.60617">
        <ele>779.15938</ele>
        <time>2021-04-29T22:07:59.221Z</time>
      </trkpt>
      <trkpt lat="47.06099" lon="6.60613">
        <ele>779.180586</ele>
        <time>2021-04-29T22:08:00.050Z</time>
      </trkpt>
      <trkpt lat="47.06099" lon="6.60608">
        <ele>779.202481</ele>
        <time>2021-04-29T22:08:00.887Z</time>
      </trkpt>
      <trkpt lat="47.06096" lon="6.606">
        <ele>779.246342</ele>
        <time>2021-04-29T22:08:02.955Z</time>
      </trkpt>
      <trkpt lat="47.06093" lon="6.60597">
        <ele>779.268583</ele>
        <time>2021-04-29T22:08:04.048Z</time>
      </trkpt>
      <trkpt lat="47.0609" lon="6.60596">
        <ele>779.291234</ele>
        <time>2021-04-29T22:08:04.883Z</time>
      </trkpt>
      <trkpt lat="47.06081" lon="6.606">
        <ele>779.357185</ele>
        <time>2021-04-29T22:08:08.509Z</time>
      </trkpt>
      <trkpt lat="47.06079" lon="6.60604">
        <ele>779.37961</ele>
        <time>2021-04-29T22:08:09.108Z</time>
      </trkpt>
      <trkpt lat="47.06068" lon="6.60595">
        <ele>779.518185</ele>
        <time>2021-04-29T22:08:12.847Z</time>
      </trkpt>
      <trkpt lat="47.06048" lon="6.60587">
        <ele>779.775425</ele>
        <time>2021-04-29T22:08:19.934Z</time>
      </trkpt>
      <trkpt lat="47.06068" lon="6.60595">
        <ele>780.032666</ele>
        <time>2021-04-29T22:08:25.768Z</time>
      </trkpt>
      <trkpt lat="47.06079" lon="6.60604">
        <ele>780.191251</ele>
        <time>2021-04-29T22:08:30.816Z</time>
      </trkpt>
      <trkpt lat="47.06078" lon="6.60609">
        <ele>780.238129</ele>
        <time>2021-04-29T22:08:31.668Z</time>
      </trkpt>
      <trkpt lat="47.0608" lon="6.6062">
        <ele>780.331381</ele>
        <time>2021-04-29T22:08:33.553Z</time>
      </trkpt>
      <trkpt lat="47.06082" lon="6.60624">
        <ele>780.378428</ele>
        <time>2021-04-29T22:08:34.789Z</time>
      </trkpt>
      <trkpt lat="47.06085" lon="6.60626">
        <ele>780.417103</ele>
        <time>2021-04-29T22:08:36.330Z</time>
      </trkpt>
      <trkpt lat="47.06098" lon="6.60617">
        <ele>780.59153</ele>
        <time>2021-04-29T22:08:41.525Z</time>
      </trkpt>
      <trkpt lat="47.06099" lon="6.60613">
        <ele>780.629244</ele>
        <time>2021-04-29T22:08:43.032Z</time>
      </trkpt>
      <trkpt lat="47.06099" lon="6.60608">
        <ele>780.668184</ele>
        <time>2021-04-29T22:08:43.906Z</time>
      </trkpt>
      <trkpt lat="47.06096" lon="6.606">
        <ele>780.746192</ele>
        <time>2021-04-29T22:08:45.361Z</time>
      </trkpt>
      <trkpt lat="47.06093" lon="6.60597">
        <ele>780.785748</ele>
        <time>2021-04-29T22:08:46.411Z</time>
      </trkpt>
      <trkpt lat="47.06093" lon="6.60588">
        <ele>780.864434</ele>
        <time>2021-04-29T22:08:48.914Z</time>
      </trkpt>
      <trkpt lat="47.06093" lon="6.60568">
        <ele>781.037901</ele>
        <time>2021-04-29T22:08:53.414Z</time>
      </trkpt>
      <trkpt lat="47.06025" lon="6.60459">
        <ele>782.374782</ele>
        <time>2021-04-29T22:09:28.416Z</time>
      </trkpt>
      <trkpt lat="47.06011" lon="6.60437">
        <ele>782.667477</ele>
        <time>2021-04-29T22:09:35.598Z</time>
      </trkpt>
      <trkpt lat="47.05994" lon="6.60407">
        <ele>783.042124</ele>
        <time>2021-04-29T22:09:44.550Z</time>
      </trkpt>
      <trkpt lat="47.05964" lon="6.6036">
        <ele>783.661226</ele>
        <time>2021-04-29T22:09:59.736Z</time>
      </trkpt>
      <trkpt lat="47.05932" lon="6.60241">
        <ele>785.394129</ele>
        <time>2021-04-29T22:10:30.057Z</time>
      </trkpt>
      <trkpt lat="47.05938" lon="6.60218">
        <ele>785.801212</ele>
        <time>2021-04-29T22:10:35.783Z</time>
      </trkpt>
      <trkpt lat="47.05945" lon="6.60206">
        <ele>786.061114</ele>
        <time>2021-04-29T22:10:41.159Z</time>
      </trkpt>
      <trkpt lat="47.05938" lon="6.60194">
        <ele>786.322626</ele>
        <time>2021-04-29T22:10:44.333Z</time>
      </trkpt>
      <trkpt lat="47.05932" lon="6.60184">
        <ele>786.548296</ele>
        <time>2021-04-29T22:10:47.946Z</time>
      </trkpt>
      <trkpt lat="47.05904" lon="6.6014">
        <ele>787.54833</ele>
        <time>2021-04-29T22:11:04.702Z</time>
      </trkpt>
      <trkpt lat="47.0589" lon="6.60119">
        <ele>788.023587</ele>
        <time>2021-04-29T22:11:12.548Z</time>
      </trkpt>
      <trkpt lat="47.05886" lon="6.60113">
        <ele>788.158123</ele>
        <time>2021-04-29T22:11:14.876Z</time>
      </trkpt>
      <trkpt lat="47.0589" lon="6.60091">
        <ele>788.531203</ele>
        <time>2021-04-29T22:11:22.722Z</time>
      </trkpt>
      <trkpt lat="47.0584" lon="6.60077">
        <ele>790.117064</ele>
        <time>2021-04-29T22:11:44.423Z</time>
      </trkpt>
      <trkpt lat="47.05823" lon="6.60073">
        <ele>790.658441</ele>
        <time>2021-04-29T22:11:52.691Z</time>
      </trkpt>
      <trkpt lat="47.058" lon="6.60058">
        <ele>791.44829</ele>
        <time>2021-04-29T22:12:02.803Z</time>
      </trkpt>
      <trkpt lat="47.05787" lon="6.60016">
        <ele>792.433239</ele>
        <time>2021-04-29T22:12:15.567Z</time>
      </trkpt>
      <trkpt lat="47.05786" lon="6.60005">
        <ele>792.676147</ele>
        <time>2021-04-29T22:12:20.173Z</time>
      </trkpt>
      <trkpt lat="47.05795" lon="6.59972">
        <ele>793.435461</ele>
        <time>2021-04-29T22:12:29.486Z</time>
      </trkpt>
      <trkpt lat="47.05796" lon="6.59968">
        <ele>793.529543</ele>
        <time>2021-04-29T22:12:30.505Z</time>
      </trkpt>
      <trkpt lat="47.05798" lon="6.59963">
        <ele>793.657231</ele>
        <time>2021-04-29T22:12:32.891Z</time>
      </trkpt>
      <trkpt lat="47.05795" lon="6.5996">
        <ele>793.755828</ele>
        <time>2021-04-29T22:12:34.373Z</time>
      </trkpt>
      <trkpt lat="47.05791" lon="6.59956">
        <ele>793.908727</ele>
        <time>2021-04-29T22:12:36.474Z</time>
      </trkpt>
      <trkpt lat="47.05784" lon="6.59949">
        <ele>794.163918</ele>
        <time>2021-04-29T22:12:39.041Z</time>
      </trkpt>
      <trkpt lat="47.05706" lon="6.59864">
        <ele>797.017718</ele>
        <time>2021-04-29T22:13:18.636Z</time>
      </trkpt>
      <trkpt lat="47.05622" lon="6.59734">
        <ele>801.198765</ele>
        <time>2021-04-29T22:14:07.941Z</time>
      </trkpt>
      <trkpt lat="47.05608" lon="6.59711">
        <ele>802.160406</ele>
        <time>2021-04-29T22:14:17.793Z</time>
      </trkpt>
      <trkpt lat="47.05584" lon="6.59671">
        <ele>803.764228</ele>
        <time>2021-04-29T22:14:34.231Z</time>
      </trkpt>
      <trkpt lat="47.05531" lon="6.59537">
        <ele>808.916514</ele>
        <time>2021-04-29T22:15:30.942Z</time>
      </trkpt>
      <trkpt lat="47.05494" lon="6.59464">
        <ele>812.853852</ele>
        <time>2021-04-29T22:16:05.635Z</time>
      </trkpt>
      <trkpt lat="47.05491" lon="6.5945">
        <ele>813.457845</ele>
        <time>2021-04-29T22:16:10.531Z</time>
      </trkpt>
      <trkpt lat="47.05502" lon="6.59433">
        <ele>814.489048</ele>
        <time>2021-04-29T22:16:18.463Z</time>
      </trkpt>
      <trkpt lat="47.05508" lon="6.59434">
        <ele>814.830998</ele>
        <time>2021-04-29T22:16:23.219Z</time>
      </trkpt>
      <trkpt lat="47.05515" lon="6.5944">
        <ele>815.355147</ele>
        <time>2021-04-29T22:16:28.212Z</time>
      </trkpt>
      <trkpt lat="47.05567" lon="6.59533">
        <ele>821.234513</ele>
        <time>2021-04-29T22:17:15.778Z</time>
      </trkpt>
      <trkpt lat="47.05604" lon="6.59582">
        <ele>825.689521</ele>
        <time>2021-04-29T22:17:51.620Z</time>
      </trkpt>
      <trkpt lat="47.0565" lon="6.59645">
        <ele>831.353549</ele>
        <time>2021-04-29T22:18:39.046Z</time>
      </trkpt>
      <trkpt lat="47.05656" lon="6.59653">
        <ele>832.082167</ele>
        <time>2021-04-29T22:18:42.574Z</time>
      </trkpt>
      <trkpt lat="47.05661" lon="6.59645">
        <ele>832.697603</ele>
        <time>2021-04-29T22:18:51.587Z</time>
      </trkpt>
      <trkpt lat="47.05693" lon="6.59638">
        <ele>835.64819</ele>
        <time>2021-04-29T22:19:14.212Z</time>
      </trkpt>
      <trkpt lat="47.05701" lon="6.59629">
        <ele>836.554483</ele>
        <time>2021-04-29T22:19:26.578Z</time>
      </trkpt>
      <trkpt lat="47.05692" lon="6.59615">
        <ele>837.778138</ele>
        <time>2021-04-29T22:19:33.396Z</time>
      </trkpt>
      <trkpt lat="47.0567" lon="6.59588">
        <ele>840.341498</ele>
        <time>2021-04-29T22:19:55.278Z</time>
      </trkpt>
      <trkpt lat="47.05634" lon="6.59517">
        <ele>845.787316</ele>
        <time>2021-04-29T22:20:38.759Z</time>
      </trkpt>
      <trkpt lat="47.05618" lon="6.59466">
        <ele>849.265922</ele>
        <time>2021-04-29T22:21:06.070Z</time>
      </trkpt>
      <trkpt lat="47.05617" lon="6.59459">
        <ele>849.654222</ele>
        <time>2021-04-29T22:21:11.431Z</time>
      </trkpt>
      <trkpt lat="47.05612" lon="6.59451">
        <ele>850.407049</ele>
        <time>2021-04-29T22:21:16.013Z</time>
      </trkpt>
      <trkpt lat="47.05588" lon="6.59415">
        <ele>854.19245</ele>
        <time>2021-04-29T22:21:35.017Z</time>
      </trkpt>
      <trkpt lat="47.05577" lon="6.5939">
        <ele>856.74776</ele>
        <time>2021-04-29T22:21:45.643Z</time>
      </trkpt>
      <trkpt lat="47.05537" lon="6.59264">
        <ele>868.278778</ele>
        <time>2021-04-29T22:23:05.874Z</time>
      </trkpt>
      <trkpt lat="47.05527" lon="6.59239">
        <ele>870.682341</ele>
        <time>2021-04-29T22:23:23.695Z</time>
      </trkpt>
      <trkpt lat="47.05503" lon="6.59214">
        <ele>874.947531</ele>
        <time>2021-04-29T22:23:53.181Z</time>
      </trkpt>
      <trkpt lat="47.05489" lon="6.59188">
        <ele>879.535851</ele>
        <time>2021-04-29T22:24:24.031Z</time>
      </trkpt>
      <trkpt lat="47.05481" lon="6.5917">
        <ele>882.552644</ele>
        <time>2021-04-29T22:24:40.846Z</time>
      </trkpt>
      <trkpt lat="47.05481" lon="6.59152">
        <ele>885.0516</ele>
        <time>2021-04-29T22:24:57.986Z</time>
      </trkpt>
      <trkpt lat="47.05489" lon="6.5911">
        <ele>891.14222</ele>
        <time>2021-04-29T22:25:36.865Z</time>
      </trkpt>
      <trkpt lat="47.05506" lon="6.5907">
        <ele>897.576618</ele>
        <time>2021-04-29T22:26:17.284Z</time>
      </trkpt>
      <trkpt lat="47.05514" lon="6.59036">
        <ele>902.630036</ele>
        <time>2021-04-29T22:26:49.626Z</time>
      </trkpt>
      <trkpt lat="47.05519" lon="6.58975">
        <ele>910.532226</ele>
        <time>2021-04-29T22:27:42.495Z</time>
      </trkpt>
      <trkpt lat="47.0552" lon="6.58963">
        <ele>911.435867</ele>
        <time>2021-04-29T22:27:53.917Z</time>
      </trkpt>
      <trkpt lat="47.05537" lon="6.58928">
        <ele>914.680367</ele>
        <time>2021-04-29T22:28:26.517Z</time>
      </trkpt>
      <trkpt lat="47.05539" lon="6.58924">
        <ele>915.031927</ele>
        <time>2021-04-29T22:28:30.572Z</time>
      </trkpt>
      <trkpt lat="47.05594" lon="6.58863">
        <ele>922.587219</ele>
        <time>2021-04-29T22:29:25.460Z</time>
      </trkpt>
      <trkpt lat="47.057" lon="6.58806">
        <ele>931.191074</ele>
        <time>2021-04-29T22:30:16.316Z</time>
      </trkpt>
      <trkpt lat="47.0576" lon="6.58779">
        <ele>933.236238</ele>
        <time>2021-04-29T22:30:36.728Z</time>
      </trkpt>
      <trkpt lat="47.05779" lon="6.58763">
        <ele>933.972097</ele>
        <time>2021-04-29T22:30:45.462Z</time>
      </trkpt>
      <trkpt lat="47.05791" lon="6.5874">
        <ele>934.615618</ele>
        <time>2021-04-29T22:30:53.772Z</time>
      </trkpt>
      <trkpt lat="47.05802" lon="6.58702">
        <ele>935.559597</ele>
        <time>2021-04-29T22:31:06.991Z</time>
      </trkpt>
      <trkpt lat="47.05804" lon="6.58659">
        <ele>937.447923</ele>
        <time>2021-04-29T22:31:22.996Z</time>
      </trkpt>
      <trkpt lat="47.05786" lon="6.58494">
        <ele>944.695021</ele>
        <time>2021-04-29T22:32:32.065Z</time>
      </trkpt>
      <trkpt lat="47.05777" lon="6.58443">
        <ele>946.995097</ele>
        <time>2021-04-29T22:32:53.898Z</time>
      </trkpt>
      <trkpt lat="47.05752" lon="6.58382">
        <ele>949.452077</ele>
        <time>2021-04-29T22:33:21.830Z</time>
      </trkpt>
      <trkpt lat="47.05697" lon="6.58265">
        <ele>954.375542</ele>
        <time>2021-04-29T22:34:10.583Z</time>
      </trkpt>
      <trkpt lat="47.05688" lon="6.58222">
        <ele>955.935428</ele>
        <time>2021-04-29T22:34:24.011Z</time>
      </trkpt>
      <trkpt lat="47.05677" lon="6.58035">
        <ele>960.741803</ele>
        <time>2021-04-29T22:35:17.943Z</time>
      </trkpt>
      <trkpt lat="47.05646" lon="6.57821">
        <ele>967.331362</ele>
        <time>2021-04-29T22:36:29.375Z</time>
      </trkpt>
      <trkpt lat="47.05635" lon="6.57769">
        <ele>969.160049</ele>
        <time>2021-04-29T22:36:49.134Z</time>
      </trkpt>
      <trkpt lat="47.05623" lon="6.57715">
        <ele>971.047402</ele>
        <time>2021-04-29T22:37:09.635Z</time>
      </trkpt>
      <trkpt lat="47.05607" lon="6.57669">
        <ele>972.768501</ele>
        <time>2021-04-29T22:37:28.143Z</time>
      </trkpt>
      <trkpt lat="47.05588" lon="6.57578">
        <ele>975.981161</ele>
        <time>2021-04-29T22:38:02.047Z</time>
      </trkpt>
      <trkpt lat="47.05579" lon="6.5744">
        <ele>980.607638</ele>
        <time>2021-04-29T22:38:49.763Z</time>
      </trkpt>
      <trkpt lat="47.05567" lon="6.57152">
        <ele>987.077453</ele>
        <time>2021-04-29T22:40:14.137Z</time>
      </trkpt>
      <trkpt lat="47.05552" lon="6.56989">
        <ele>989.08813</ele>
        <time>2021-04-29T22:40:54.237Z</time>
      </trkpt>
      <trkpt lat="47.05551" lon="6.56565">
        <ele>990.877724</ele>
        <time>2021-04-29T22:42:20.037Z</time>
      </trkpt>
      <trkpt lat="47.05557" lon="6.56526">
        <ele>990.778533</ele>
        <time>2021-04-29T22:42:27.398Z</time>
      </trkpt>
      <trkpt lat="47.05581" lon="6.56449">
        <ele>990.573655</ele>
        <time>2021-04-29T22:42:41.654Z</time>
      </trkpt>
      <trkpt lat="47.05604" lon="6.56302">
        <ele>988.863064</ele>
        <time>2021-04-29T22:43:03.670Z</time>
      </trkpt>
      <trkpt lat="47.05604" lon="6.56265">
        <ele>988.279765</ele>
        <time>2021-04-29T22:43:08.702Z</time>
      </trkpt>
      <trkpt lat="47.05593" lon="6.56209">
        <ele>987.379593</ele>
        <time>2021-04-29T22:43:16.659Z</time>
      </trkpt>
      <trkpt lat="47.05595" lon="6.5617">
        <ele>986.770571</ele>
        <time>2021-04-29T22:43:21.979Z</time>
      </trkpt>
      <trkpt lat="47.05602" lon="6.56131">
        <ele>986.154095</ele>
        <time>2021-04-29T22:43:27.724Z</time>
      </trkpt>
      <trkpt lat="47.05622" lon="6.56078">
        <ele>985.272281</ele>
        <time>2021-04-29T22:43:36.228Z</time>
      </trkpt>
      <trkpt lat="47.05651" lon="6.56052">
        <ele>984.556871</ele>
        <time>2021-04-29T22:43:43.222Z</time>
      </trkpt>
      <trkpt lat="47.0574" lon="6.56008">
        <ele>982.552284</ele>
        <time>2021-04-29T22:44:03.138Z</time>
      </trkpt>
      <trkpt lat="47.05796" lon="6.56004">
        <ele>980.988916</ele>
        <time>2021-04-29T22:44:15.445Z</time>
      </trkpt>
      <trkpt lat="47.05906" lon="6.56042">
        <ele>977.759496</ele>
        <time>2021-04-29T22:44:37.753Z</time>
      </trkpt>
      <trkpt lat="47.05917" lon="6.56036">
        <ele>977.428455</ele>
        <time>2021-04-29T22:44:39.917Z</time>
      </trkpt>
      <trkpt lat="47.05921" lon="6.56014">
        <ele>976.752331</ele>
        <time>2021-04-29T22:44:42.743Z</time>
      </trkpt>
      <trkpt lat="47.05907" lon="6.55997">
        <ele>975.935078</ele>
        <time>2021-04-29T22:44:46.105Z</time>
      </trkpt>
      <trkpt lat="47.05852" lon="6.5596">
        <ele>973.1565</ele>
        <time>2021-04-29T22:44:57.366Z</time>
      </trkpt>
      <trkpt lat="47.05835" lon="6.55948">
        <ele>972.323132</ele>
        <time>2021-04-29T22:45:00.706Z</time>
      </trkpt>
      <trkpt lat="47.05752" lon="6.55873">
        <ele>967.83253</ele>
        <time>2021-04-29T22:45:18.435Z</time>
      </trkpt>
      <trkpt lat="47.05598" lon="6.55777">
        <ele>959.541605</ele>
        <time>2021-04-29T22:45:49.311Z</time>
      </trkpt>
      <trkpt lat="47.05544" lon="6.55694">
        <ele>954.662083</ele>
        <time>2021-04-29T22:46:03.165Z</time>
      </trkpt>
      <trkpt lat="47.05537" lon="6.55669">
        <ele>953.549583</ele>
        <time>2021-04-29T22:46:06.240Z</time>
      </trkpt>
      <trkpt lat="47.05264" lon="6.55332">
        <ele>928.57628</ele>
        <time>2021-04-29T22:47:07.325Z</time>
      </trkpt>
      <trkpt lat="47.05142" lon="6.55206">
        <ele>918.329551</ele>
        <time>2021-04-29T22:47:33.028Z</time>
      </trkpt>
      <trkpt lat="47.04994" lon="6.54988">
        <ele>904.986982</ele>
        <time>2021-04-29T22:48:09.684Z</time>
      </trkpt>
      <trkpt lat="47.04936" lon="6.54868">
        <ele>899.318342</ele>
        <time>2021-04-29T22:48:27.297Z</time>
      </trkpt>
      <trkpt lat="47.04922" lon="6.54826">
        <ele>897.844404</ele>
        <time>2021-04-29T22:48:33.052Z</time>
      </trkpt>
      <trkpt lat="47.04915" lon="6.54771">
        <ele>896.060514</ele>
        <time>2021-04-29T22:48:40.131Z</time>
      </trkpt>
      <trkpt lat="47.04896" lon="6.54732">
        <ele>894.537122</ele>
        <time>2021-04-29T22:48:46.311Z</time>
      </trkpt>
      <trkpt lat="47.04773" lon="6.54569">
        <ele>888.165291</ele>
        <time>2021-04-29T22:49:17.931Z</time>
      </trkpt>
      <trkpt lat="47.04766" lon="6.54548">
        <ele>887.609163</ele>
        <time>2021-04-29T22:49:21.129Z</time>
      </trkpt>
      <trkpt lat="47.04764" lon="6.54536">
        <ele>887.321047</ele>
        <time>2021-04-29T22:49:22.625Z</time>
      </trkpt>
      <trkpt lat="47.04755" lon="6.54444">
        <ele>885.200228</ele>
        <time>2021-04-29T22:49:35.300Z</time>
      </trkpt>
      <trkpt lat="47.04741" lon="6.54393">
        <ele>884.030436</ele>
        <time>2021-04-29T22:49:42.533Z</time>
      </trkpt>
      <trkpt lat="47.0468" lon="6.54239">
        <ele>880.315627</ele>
        <time>2021-04-29T22:50:06.482Z</time>
      </trkpt>
      <trkpt lat="47.0468" lon="6.54231">
        <ele>880.226923</ele>
        <time>2021-04-29T22:50:07.386Z</time>
      </trkpt>
      <trkpt lat="47.0468" lon="6.54223">
        <ele>880.123629</ele>
        <time>2021-04-29T22:50:08.569Z</time>
      </trkpt>
      <trkpt lat="47.04682" lon="6.54216">
        <ele>880.030379</ele>
        <time>2021-04-29T22:50:09.680Z</time>
      </trkpt>
      <trkpt lat="47.04684" lon="6.54212">
        <ele>879.966384</ele>
        <time>2021-04-29T22:50:10.414Z</time>
      </trkpt>
      <trkpt lat="47.04677" lon="6.54207">
        <ele>879.824855</ele>
        <time>2021-04-29T22:50:12.096Z</time>
      </trkpt>
      <trkpt lat="47.04666" lon="6.54198">
        <ele>879.593776</ele>
        <time>2021-04-29T22:50:14.810Z</time>
      </trkpt>
      <trkpt lat="47.04658" lon="6.54178">
        <ele>879.306735</ele>
        <time>2021-04-29T22:50:18.344Z</time>
      </trkpt>
      <trkpt lat="47.04649" lon="6.54144">
        <ele>878.848411</ele>
        <time>2021-04-29T22:50:23.845Z</time>
      </trkpt>
      <trkpt lat="47.0462" lon="6.54062">
        <ele>877.698883</ele>
        <time>2021-04-29T22:50:38.419Z</time>
      </trkpt>
      <trkpt lat="47.04575" lon="6.53955">
        <ele>876.760997</ele>
        <time>2021-04-29T22:50:59.296Z</time>
      </trkpt>
      <trkpt lat="47.04526" lon="6.53766">
        <ele>875.871362</ele>
        <time>2021-04-29T22:51:35.084Z</time>
      </trkpt>
      <trkpt lat="47.04496" lon="6.53699">
        <ele>875.709137</ele>
        <time>2021-04-29T22:51:48.823Z</time>
      </trkpt>
      <trkpt lat="47.04458" lon="6.53628">
        <ele>875.524455</ele>
        <time>2021-04-29T22:52:04.654Z</time>
      </trkpt>
      <trkpt lat="47.04392" lon="6.53489">
        <ele>875.845374</ele>
        <time>2021-04-29T22:52:38.164Z</time>
      </trkpt>
      <trkpt lat="47.04391" lon="6.53484">
        <ele>875.870559</ele>
        <time>2021-04-29T22:52:39.365Z</time>
      </trkpt>
      <trkpt lat="47.04368" lon="6.53433">
        <ele>876.176578</ele>
        <time>2021-04-29T22:52:52.483Z</time>
      </trkpt>
      <trkpt lat="47.04359" lon="6.53423">
        <ele>876.261399</ele>
        <time>2021-04-29T22:52:55.940Z</time>
      </trkpt>
      <trkpt lat="47.04352" lon="6.53419">
        <ele>876.312159</ele>
        <time>2021-04-29T22:52:58.209Z</time>
      </trkpt>
      <trkpt lat="47.04351" lon="6.53408">
        <ele>876.367572</ele>
        <time>2021-04-29T22:53:01.036Z</time>
      </trkpt>
      <trkpt lat="47.04315" lon="6.53282">
        <ele>877.221274</ele>
        <time>2021-04-29T22:53:32.437Z</time>
      </trkpt>
      <trkpt lat="47.04278" lon="6.53183">
        <ele>878.061606</ele>
        <time>2021-04-29T22:53:58.931Z</time>
      </trkpt>
      <trkpt lat="47.04241" lon="6.53103">
        <ele>878.700842</ele>
        <time>2021-04-29T22:54:19.588Z</time>
      </trkpt>
      <trkpt lat="47.04234" lon="6.53044">
        <ele>878.903013</ele>
        <time>2021-04-29T22:54:32.043Z</time>
      </trkpt>
      <trkpt lat="47.0423" lon="6.52949">
        <ele>879.224564</ele>
        <time>2021-04-29T22:54:51.583Z</time>
      </trkpt>
      <trkpt lat="47.04194" lon="6.52846">
        <ele>879.520362</ele>
        <time>2021-04-29T22:55:14.952Z</time>
      </trkpt>
      <trkpt lat="47.04149" lon="6.52743">
        <ele>879.478095</ele>
        <time>2021-04-29T22:55:39.574Z</time>
      </trkpt>
      <trkpt lat="47.0413" lon="6.52573">
        <ele>878.489852</ele>
        <time>2021-04-29T22:56:10.371Z</time>
      </trkpt>
      <trkpt lat="47.04129" lon="6.52559">
        <ele>878.25359</ele>
        <time>2021-04-29T22:56:12.794Z</time>
      </trkpt>
      <trkpt lat="47.04124" lon="6.52548">
        <ele>878.042896</ele>
        <time>2021-04-29T22:56:14.803Z</time>
      </trkpt>
      <trkpt lat="47.04046" lon="6.52278">
        <ele>870.542546</ele>
        <time>2021-04-29T22:56:55.527Z</time>
      </trkpt>
      <trkpt lat="47.03993" lon="6.52132">
        <ele>863.585503</ele>
        <time>2021-04-29T22:57:15.776Z</time>
      </trkpt>
      <trkpt lat="47.03978" lon="6.52066">
        <ele>858.766819</ele>
        <time>2021-04-29T22:57:24.018Z</time>
      </trkpt>
      <trkpt lat="47.03968" lon="6.51987">
        <ele>853.196158</ele>
        <time>2021-04-29T22:57:33.473Z</time>
      </trkpt>
      <trkpt lat="47.0397" lon="6.5193">
        <ele>849.276606</ele>
        <time>2021-04-29T22:57:40.015Z</time>
      </trkpt>
      <trkpt lat="47.03963" lon="6.51864">
        <ele>844.226995</ele>
        <time>2021-04-29T22:57:47.630Z</time>
      </trkpt>
      <trkpt lat="47.03949" lon="6.51822">
        <ele>840.309683</ele>
        <time>2021-04-29T22:57:52.886Z</time>
      </trkpt>
      <trkpt lat="47.03924" lon="6.51779">
        <ele>835.491126</ele>
        <time>2021-04-29T22:57:59.296Z</time>
      </trkpt>
      <trkpt lat="47.03903" lon="6.51741">
        <ele>831.414413</ele>
        <time>2021-04-29T22:58:04.786Z</time>
      </trkpt>
      <trkpt lat="47.03897" lon="6.5173">
        <ele>830.188762</ele>
        <time>2021-04-29T22:58:06.370Z</time>
      </trkpt>
      <trkpt lat="47.03858" lon="6.51667">
        <ele>823.208907</ele>
        <time>2021-04-29T22:58:16.136Z</time>
      </trkpt>
      <trkpt lat="47.03842" lon="6.51629">
        <ele>820.514781</ele>
        <time>2021-04-29T22:58:21.235Z</time>
      </trkpt>
      <trkpt lat="47.03835" lon="6.51532">
        <ele>814.650437</ele>
        <time>2021-04-29T22:58:32.403Z</time>
      </trkpt>
      <trkpt lat="47.03826" lon="6.51491">
        <ele>812.014861</ele>
        <time>2021-04-29T22:58:37.764Z</time>
      </trkpt>
      <trkpt lat="47.03818" lon="6.51474">
        <ele>810.736562</ele>
        <time>2021-04-29T22:58:40.522Z</time>
      </trkpt>
      <trkpt lat="47.03815" lon="6.51472">
        <ele>810.444222</ele>
        <time>2021-04-29T22:58:41.043Z</time>
      </trkpt>
      <trkpt lat="47.03816" lon="6.5146">
        <ele>809.723309</ele>
        <time>2021-04-29T22:58:42.490Z</time>
      </trkpt>
      <trkpt lat="47.03815" lon="6.51385">
        <ele>807.212021</ele>
        <time>2021-04-29T22:58:51.996Z</time>
      </trkpt>
      <trkpt lat="47.03793" lon="6.51157">
        <ele>803.964181</ele>
        <time>2021-04-29T22:59:26.754Z</time>
      </trkpt>
      <trkpt lat="47.03793" lon="6.51126">
        <ele>803.958926</ele>
        <time>2021-04-29T22:59:32.218Z</time>
      </trkpt>
      <trkpt lat="47.03793" lon="6.51109">
        <ele>803.956018</ele>
        <time>2021-04-29T22:59:36.511Z</time>
      </trkpt>
      <trkpt lat="47.03789" lon="6.51083">
        <ele>803.951385</ele>
        <time>2021-04-29T22:59:41.003Z</time>
      </trkpt>
      <trkpt lat="47.0378" lon="6.51066">
        <ele>803.947661</ele>
        <time>2021-04-29T22:59:45.733Z</time>
      </trkpt>
      <trkpt lat="47.03773" lon="6.5106">
        <ele>803.945599</ele>
        <time>2021-04-29T22:59:48.951Z</time>
      </trkpt>
      <trkpt lat="47.03765" lon="6.51054">
        <ele>803.94348</ele>
        <time>2021-04-29T22:59:50.624Z</time>
      </trkpt>
      <trkpt lat="47.03737" lon="6.51022">
        <ele>803.934576</ele>
        <time>2021-04-29T23:00:00.694Z</time>
      </trkpt>
      <trkpt lat="47.03715" lon="6.50955">
        <ele>803.921774</ele>
        <time>2021-04-29T23:00:15.223Z</time>
      </trkpt>
      <trkpt lat="47.0371" lon="6.50934">
        <ele>803.865819</ele>
        <time>2021-04-29T23:00:20.455Z</time>
      </trkpt>
      <trkpt lat="47.03707" lon="6.5093">
        <ele>803.844288</ele>
        <time>2021-04-29T23:00:21.970Z</time>
      </trkpt>
      <trkpt lat="47.03643" lon="6.50855">
        <ele>803.46882</ele>
        <time>2021-04-29T23:00:55.676Z</time>
      </trkpt>
      <trkpt lat="47.03613" lon="6.5081">
        <ele>803.267196</ele>
        <time>2021-04-29T23:01:13.841Z</time>
      </trkpt>
      <trkpt lat="47.03589" lon="6.508">
        <ele>803.152991</ele>
        <time>2021-04-29T23:01:23.937Z</time>
      </trkpt>
      <trkpt lat="47.0357" lon="6.50771">
        <ele>803.061689</ele>
        <time>2021-04-29T23:01:35.779Z</time>
      </trkpt>
      <trkpt lat="47.03543" lon="6.50745">
        <ele>803.000486</ele>
        <time>2021-04-29T23:01:49.796Z</time>
      </trkpt>
      <trkpt lat="47.03509" lon="6.50684">
        <ele>802.89798</ele>
        <time>2021-04-29T23:02:13.728Z</time>
      </trkpt>
      <trkpt lat="47.03478" lon="6.50617">
        <ele>802.793969</ele>
        <time>2021-04-29T23:02:37.976Z</time>
      </trkpt>
      <trkpt lat="47.03448" lon="6.50533">
        <ele>802.617784</ele>
        <time>2021-04-29T23:02:54.705Z</time>
      </trkpt>
      <trkpt lat="47.03449" lon="6.5046">
        <ele>802.453361</ele>
        <time>2021-04-29T23:03:07.281Z</time>
      </trkpt>
      <trkpt lat="47.03457" lon="6.50432">
        <ele>802.386575</ele>
        <time>2021-04-29T23:03:12.385Z</time>
      </trkpt>
      <trkpt lat="47.03442" lon="6.50297">
        <ele>802.2275</ele>
        <time>2021-04-29T23:03:35.343Z</time>
      </trkpt>
      <trkpt lat="47.03337" lon="6.4997">
        <ele>804.528511</ele>
        <time>2021-04-29T23:04:47.342Z</time>
      </trkpt>
      <trkpt lat="47.03282" lon="6.49864">
        <ele>806.362555</ele>
        <time>2021-04-29T23:05:25.159Z</time>
      </trkpt>
      <trkpt lat="47.03189" lon="6.49686">
        <ele>813.429077</ele>
        <time>2021-04-29T23:06:42.227Z</time>
      </trkpt>
      <trkpt lat="47.03135" lon="6.49613">
        <ele>817.340311</ele>
        <time>2021-04-29T23:07:20.745Z</time>
      </trkpt>
      <trkpt lat="47.03106" lon="6.49595">
        <ele>819.160351</ele>
        <time>2021-04-29T23:07:37.779Z</time>
      </trkpt>
      <trkpt lat="47.03056" lon="6.49499">
        <ele>823.965604</ele>
        <time>2021-04-29T23:08:24.771Z</time>
      </trkpt>
      <trkpt lat="47.0303" lon="6.49461">
        <ele>826.289107</ele>
        <time>2021-04-29T23:08:46.331Z</time>
      </trkpt>
      <trkpt lat="47.02815" lon="6.49013">
        <ele>851.537537</ele>
        <time>2021-04-29T23:12:38.752Z</time>
      </trkpt>
      <trkpt lat="47.02796" lon="6.48998">
        <ele>852.392119</ele>
        <time>2021-04-29T23:12:49.903Z</time>
      </trkpt>
      <trkpt lat="47.02752" lon="6.48997">
        <ele>854.121161</ele>
        <time>2021-04-29T23:13:10.977Z</time>
      </trkpt>
      <trkpt lat="47.02691" lon="6.48941">
        <ele>856.948462</ele>
        <time>2021-04-29T23:13:40.386Z</time>
      </trkpt>
      <trkpt lat="47.02649" lon="6.48833">
        <ele>857.77597</ele>
        <time>2021-04-29T23:14:07.854Z</time>
      </trkpt>
      <trkpt lat="47.02613" lon="6.4874">
        <ele>858.136255</ele>
        <time>2021-04-29T23:14:28.336Z</time>
      </trkpt>
      <trkpt lat="47.02599" lon="6.48718">
        <ele>858.2388</ele>
        <time>2021-04-29T23:14:33.590Z</time>
      </trkpt>
      <trkpt lat="47.02591" lon="6.48705">
        <ele>858.300671</ele>
        <time>2021-04-29T23:14:37.206Z</time>
      </trkpt>
      <trkpt lat="47.02575" lon="6.48681">
        <ele>858.184682</ele>
        <time>2021-04-29T23:14:42.799Z</time>
      </trkpt>
      <trkpt lat="47.02569" lon="6.48681">
        <ele>858.14838</ele>
        <time>2021-04-29T23:14:44.899Z</time>
      </trkpt>
      <trkpt lat="47.02185" lon="6.48722">
        <ele>855.717288</ele>
        <time>2021-04-29T23:16:17.917Z</time>
      </trkpt>
      <trkpt lat="47.02181" lon="6.48722">
        <ele>855.687728</ele>
        <time>2021-04-29T23:16:18.688Z</time>
      </trkpt>
      <trkpt lat="47.02178" lon="6.48723">
        <ele>855.666979</ele>
        <time>2021-04-29T23:16:19.551Z</time>
      </trkpt>
      <trkpt lat="47.02123" lon="6.48728">
        <ele>855.22226</ele>
        <time>2021-04-29T23:16:33.644Z</time>
      </trkpt>
      <trkpt lat="47.02063" lon="6.48724">
        <ele>854.750109</ele>
        <time>2021-04-29T23:16:47.546Z</time>
      </trkpt>
      <trkpt lat="47.01988" lon="6.48693">
        <ele>852.989325</ele>
        <time>2021-04-29T23:17:04.364Z</time>
      </trkpt>
      <trkpt lat="47.01959" lon="6.48673">
        <ele>852.253099</ele>
        <time>2021-04-29T23:17:10.878Z</time>
      </trkpt>
      <trkpt lat="47.01922" lon="6.48639">
        <ele>851.239328</ele>
        <time>2021-04-29T23:17:19.519Z</time>
      </trkpt>
      <trkpt lat="47.01887" lon="6.48595">
        <ele>850.08263</ele>
        <time>2021-04-29T23:17:28.572Z</time>
      </trkpt>
      <trkpt lat="47.0185" lon="6.48534">
        <ele>848.514609</ele>
        <time>2021-04-29T23:17:39.287Z</time>
      </trkpt>
      <trkpt lat="47.01834" lon="6.48496">
        <ele>847.647709</ele>
        <time>2021-04-29T23:17:45.171Z</time>
      </trkpt>
      <trkpt lat="47.01808" lon="6.484">
        <ele>845.647597</ele>
        <time>2021-04-29T23:17:59.550Z</time>
      </trkpt>
      <trkpt lat="47.01778" lon="6.48187">
        <ele>843.754758</ele>
        <time>2021-04-29T23:18:32.919Z</time>
      </trkpt>
      <trkpt lat="47.01764" lon="6.4811">
        <ele>843.338502</ele>
        <time>2021-04-29T23:18:46.384Z</time>
      </trkpt>
      <trkpt lat="47.01739" lon="6.4804">
        <ele>843.523958</ele>
        <time>2021-04-29T23:19:00.691Z</time>
      </trkpt>
      <trkpt lat="47.01714" lon="6.47993">
        <ele>843.66387</ele>
        <time>2021-04-29T23:19:12.643Z</time>
      </trkpt>
      <trkpt lat="47.01675" lon="6.4794">
        <ele>843.846902</ele>
        <time>2021-04-29T23:19:28.940Z</time>
      </trkpt>
      <trkpt lat="47.01647" lon="6.47916">
        <ele>844.030399</ele>
        <time>2021-04-29T23:19:38.788Z</time>
      </trkpt>
      <trkpt lat="47.01627" lon="6.47901">
        <ele>844.228139</ele>
        <time>2021-04-29T23:19:45.910Z</time>
      </trkpt>
      <trkpt lat="47.01623" lon="6.47898">
        <ele>844.265298</ele>
        <time>2021-04-29T23:19:47.566Z</time>
      </trkpt>
      <trkpt lat="47.01512" lon="6.47834">
        <ele>845.280314</ele>
        <time>2021-04-29T23:20:25.350Z</time>
      </trkpt>
      <trkpt lat="47.01248" lon="6.47654">
        <ele>845.287858</ele>
        <time>2021-04-29T23:21:46.360Z</time>
      </trkpt>
      <trkpt lat="47.01241" lon="6.4765">
        <ele>845.236316</ele>
        <time>2021-04-29T23:21:48.134Z</time>
      </trkpt>
      <trkpt lat="47.01235" lon="6.47646">
        <ele>845.185871</ele>
        <time>2021-04-29T23:21:49.592Z</time>
      </trkpt>
      <trkpt lat="47.01093" lon="6.47549">
        <ele>842.713009</ele>
        <time>2021-04-29T23:22:22.742Z</time>
      </trkpt>
      <trkpt lat="47.01059" lon="6.47546">
        <ele>841.918971</ele>
        <time>2021-04-29T23:22:29.620Z</time>
      </trkpt>
      <trkpt lat="47.01001" lon="6.47503">
        <ele>840.43922</ele>
        <time>2021-04-29T23:22:42.933Z</time>
      </trkpt>
      <trkpt lat="47.00998" lon="6.47501">
        <ele>840.372473</ele>
        <time>2021-04-29T23:22:43.533Z</time>
      </trkpt>
      <trkpt lat="47.00996" lon="6.47499">
        <ele>840.318649</ele>
        <time>2021-04-29T23:22:44.015Z</time>
      </trkpt>
      <trkpt lat="47.00986" lon="6.47498">
        <ele>840.127008</ele>
        <time>2021-04-29T23:22:46.080Z</time>
      </trkpt>
      <trkpt lat="47.00926" lon="6.4746">
        <ele>838.849072</ele>
        <time>2021-04-29T23:22:59.531Z</time>
      </trkpt>
      <trkpt lat="47.00916" lon="6.47442">
        <ele>838.55077</ele>
        <time>2021-04-29T23:23:02.770Z</time>
      </trkpt>
      <trkpt lat="47.00908" lon="6.47422">
        <ele>838.237925</ele>
        <time>2021-04-29T23:23:06.134Z</time>
      </trkpt>
      <trkpt lat="47.00899" lon="6.47392">
        <ele>837.805411</ele>
        <time>2021-04-29T23:23:10.903Z</time>
      </trkpt>
      <trkpt lat="47.00899" lon="6.47382">
        <ele>837.664018</ele>
        <time>2021-04-29T23:23:13.171Z</time>
      </trkpt>
      <trkpt lat="47.00898" lon="6.47378">
        <ele>837.606202</ele>
        <time>2021-04-29T23:23:13.691Z</time>
      </trkpt>
      <trkpt lat="47.00851" lon="6.47303">
        <ele>836.792904</ele>
        <time>2021-04-29T23:23:29.682Z</time>
      </trkpt>
      <trkpt lat="47.00826" lon="6.47243">
        <ele>836.554385</ele>
        <time>2021-04-29T23:23:41.130Z</time>
      </trkpt>
      <trkpt lat="47.00756" lon="6.47045">
        <ele>836.013936</ele>
        <time>2021-04-29T23:24:20.906Z</time>
      </trkpt>
      <trkpt lat="47.00699" lon="6.46951">
        <ele>835.916416</ele>
        <time>2021-04-29T23:24:43.777Z</time>
      </trkpt>
      <trkpt lat="47.00656" lon="6.4691">
        <ele>835.817697</ele>
        <time>2021-04-29T23:24:57.314Z</time>
      </trkpt>
      <trkpt lat="47.0047" lon="6.46785">
        <ele>835.068916</ele>
        <time>2021-04-29T23:25:48.089Z</time>
      </trkpt>
      <trkpt lat="47.0041" lon="6.46761">
        <ele>834.890641</ele>
        <time>2021-04-29T23:26:03.769Z</time>
      </trkpt>
      <trkpt lat="47.00365" lon="6.46758">
        <ele>834.760393</ele>
        <time>2021-04-29T23:26:15.392Z</time>
      </trkpt>
      <trkpt lat="47.00362" lon="6.46758">
        <ele>834.751221</ele>
        <time>2021-04-29T23:26:16.077Z</time>
      </trkpt>
      <trkpt lat="47.00359" lon="6.46759">
        <ele>834.743774</ele>
        <time>2021-04-29T23:26:17.072Z</time>
      </trkpt>
      <trkpt lat="47.00315" lon="6.46764">
        <ele>834.640362</ele>
        <time>2021-04-29T23:26:28.516Z</time>
      </trkpt>
      <trkpt lat="47.00283" lon="6.46777">
        <ele>834.591005</ele>
        <time>2021-04-29T23:26:37.116Z</time>
      </trkpt>
      <trkpt lat="47.00247" lon="6.46801">
        <ele>834.53157</ele>
        <time>2021-04-29T23:26:47.677Z</time>
      </trkpt>
      <trkpt lat="47.0012" lon="6.46915">
        <ele>833.802802</ele>
        <time>2021-04-29T23:27:26.159Z</time>
      </trkpt>
      <trkpt lat="47.00073" lon="6.46939">
        <ele>833.308253</ele>
        <time>2021-04-29T23:27:37.702Z</time>
      </trkpt>
      <trkpt lat="47.00023" lon="6.46949">
        <ele>832.792701</ele>
        <time>2021-04-29T23:27:49.139Z</time>
      </trkpt>
      <trkpt lat="46.99987" lon="6.46948">
        <ele>832.209726</ele>
        <time>2021-04-29T23:27:56.690Z</time>
      </trkpt>
      <trkpt lat="46.99919" lon="6.46927">
        <ele>830.42858</ele>
        <time>2021-04-29T23:28:10.759Z</time>
      </trkpt>
      <trkpt lat="46.99882" lon="6.46904">
        <ele>829.387423</ele>
        <time>2021-04-29T23:28:18.857Z</time>
      </trkpt>
      <trkpt lat="46.99849" lon="6.46873">
        <ele>828.382951</ele>
        <time>2021-04-29T23:28:26.623Z</time>
      </trkpt>
      <trkpt lat="46.9981" lon="6.46821">
        <ele>827.207493</ele>
        <time>2021-04-29T23:28:37.145Z</time>
      </trkpt>
      <trkpt lat="46.99719" lon="6.4665">
        <ele>824.223649</ele>
        <time>2021-04-29T23:29:08.519Z</time>
      </trkpt>
      <trkpt lat="46.99682" lon="6.46606">
        <ele>823.830981</ele>
        <time>2021-04-29T23:29:20.161Z</time>
      </trkpt>
      <trkpt lat="46.99521" lon="6.46442">
        <ele>821.087175</ele>
        <time>2021-04-29T23:30:07.714Z</time>
      </trkpt>
      <trkpt lat="46.99432" lon="6.46319">
        <ele>818.005027</ele>
        <time>2021-04-29T23:30:31.260Z</time>
      </trkpt>
      <trkpt lat="46.99424" lon="6.46307">
        <ele>817.685026</ele>
        <time>2021-04-29T23:30:33.325Z</time>
      </trkpt>
      <trkpt lat="46.99412" lon="6.46283">
        <ele>817.097789</ele>
        <time>2021-04-29T23:30:37.244Z</time>
      </trkpt>
      <trkpt lat="46.99406" lon="6.46272">
        <ele>816.841302</ele>
        <time>2021-04-29T23:30:38.960Z</time>
      </trkpt>
      <trkpt lat="46.99406" lon="6.46271">
        <ele>816.820467</ele>
        <time>2021-04-29T23:30:39.102Z</time>
      </trkpt>
      <trkpt lat="46.994" lon="6.46258">
        <ele>816.509483</ele>
        <time>2021-04-29T23:30:41.189Z</time>
      </trkpt>
      <trkpt lat="46.99396" lon="6.46247">
        <ele>816.270601</ele>
        <time>2021-04-29T23:30:42.693Z</time>
      </trkpt>
      <trkpt lat="46.99369" lon="6.4619">
        <ele>814.926228</ele>
        <time>2021-04-29T23:30:52.058Z</time>
      </trkpt>
      <trkpt lat="46.99339" lon="6.46094">
        <ele>813.381359</ele>
        <time>2021-04-29T23:31:06.983Z</time>
      </trkpt>
      <trkpt lat="46.99329" lon="6.4604">
        <ele>814.007026</ele>
        <time>2021-04-29T23:31:17.552Z</time>
      </trkpt>
      <trkpt lat="46.99323" lon="6.45982">
        <ele>814.658041</ele>
        <time>2021-04-29T23:31:31.680Z</time>
      </trkpt>
      <trkpt lat="46.99323" lon="6.45931">
        <ele>815.224015</ele>
        <time>2021-04-29T23:31:45.034Z</time>
      </trkpt>
      <trkpt lat="46.9935" lon="6.45751">
        <ele>819.300422</ele>
        <time>2021-04-29T23:32:41.335Z</time>
      </trkpt>
      <trkpt lat="46.99355" lon="6.45681">
        <ele>821.44113</ele>
        <time>2021-04-29T23:33:05.157Z</time>
      </trkpt>
      <trkpt lat="46.99354" lon="6.45636">
        <ele>822.841672</ele>
        <time>2021-04-29T23:33:21.142Z</time>
      </trkpt>
      <trkpt lat="46.99351" lon="6.45599">
        <ele>823.986324</ele>
        <time>2021-04-29T23:33:34.402Z</time>
      </trkpt>
      <trkpt lat="46.99334" lon="6.45521">
        <ele>826.144322</ele>
        <time>2021-04-29T23:34:03.407Z</time>
      </trkpt>
      <trkpt lat="46.99295" lon="6.45414">
        <ele>829.311225</ele>
        <time>2021-04-29T23:34:42.735Z</time>
      </trkpt>
      <trkpt lat="46.99259" lon="6.45356">
        <ele>831.050978</ele>
        <time>2021-04-29T23:35:03.503Z</time>
      </trkpt>
      <trkpt lat="46.9923" lon="6.45328">
        <ele>830.791393</ele>
        <time>2021-04-29T23:35:14.715Z</time>
      </trkpt>
      <trkpt lat="46.99057" lon="6.45195">
        <ele>828.174053</ele>
        <time>2021-04-29T23:35:56.867Z</time>
      </trkpt>
      <trkpt lat="46.98752" lon="6.44944">
        <ele>818.101391</ele>
        <time>2021-04-29T23:37:05.138Z</time>
      </trkpt>
      <trkpt lat="46.98712" lon="6.44921">
        <ele>817.286826</ele>
        <time>2021-04-29T23:37:14.070Z</time>
      </trkpt>
      <trkpt lat="46.98641" lon="6.44904">
        <ele>815.900102</ele>
        <time>2021-04-29T23:37:30.195Z</time>
      </trkpt>
      <trkpt lat="46.98524" lon="6.4492">
        <ele>814.15638</ele>
        <time>2021-04-29T23:37:58.085Z</time>
      </trkpt>
      <trkpt lat="46.98448" lon="6.44913">
        <ele>813.09176</ele>
        <time>2021-04-29T23:38:14.713Z</time>
      </trkpt>
      <trkpt lat="46.98387" lon="6.44884">
        <ele>811.041066</ele>
        <time>2021-04-29T23:38:27.448Z</time>
      </trkpt>
      <trkpt lat="46.98348" lon="6.44852">
        <ele>809.555158</ele>
        <time>2021-04-29T23:38:36.016Z</time>
      </trkpt>
      <trkpt lat="46.98297" lon="6.44785">
        <ele>807.278855</ele>
        <time>2021-04-29T23:38:48.978Z</time>
      </trkpt>
      <trkpt lat="46.98259" lon="6.44709">
        <ele>805.696412</ele>
        <time>2021-04-29T23:39:01.222Z</time>
      </trkpt>
      <trkpt lat="46.98233" lon="6.44583">
        <ele>803.558561</ele>
        <time>2021-04-29T23:39:19.549Z</time>
      </trkpt>
      <trkpt lat="46.98187" lon="6.44259">
        <ele>802.043244</ele>
        <time>2021-04-29T23:40:16.528Z</time>
      </trkpt>
      <trkpt lat="46.98167" lon="6.44176">
        <ele>802.098492</ele>
        <time>2021-04-29T23:40:33.014Z</time>
      </trkpt>
      <trkpt lat="46.98153" lon="6.44139">
        <ele>802.125254</ele>
        <time>2021-04-29T23:40:40.995Z</time>
      </trkpt>
      <trkpt lat="46.98132" lon="6.44096">
        <ele>802.158199</ele>
        <time>2021-04-29T23:40:50.859Z</time>
      </trkpt>
      <trkpt lat="46.97925" lon="6.43785">
        <ele>802.142855</ele>
        <time>2021-04-29T23:42:13.879Z</time>
      </trkpt>
      <trkpt lat="46.97887" lon="6.43741">
        <ele>801.838311</ele>
        <time>2021-04-29T23:42:25.398Z</time>
      </trkpt>
      <trkpt lat="46.9785" lon="6.43709">
        <ele>801.568823</ele>
        <time>2021-04-29T23:42:35.146Z</time>
      </trkpt>
      <trkpt lat="46.97839" lon="6.43703">
        <ele>801.495186</ele>
        <time>2021-04-29T23:42:38.020Z</time>
      </trkpt>
      <trkpt lat="46.97829" lon="6.43699">
        <ele>801.277274</ele>
        <time>2021-04-29T23:42:40.038Z</time>
      </trkpt>
      <trkpt lat="46.97663" lon="6.4365">
        <ele>797.129061</ele>
        <time>2021-04-29T23:43:14.269Z</time>
      </trkpt>
      <trkpt lat="46.97614" lon="6.43619">
        <ele>796.102273</ele>
        <time>2021-04-29T23:43:25.158Z</time>
      </trkpt>
      <trkpt lat="46.97572" lon="6.43576">
        <ele>795.136206</ele>
        <time>2021-04-29T23:43:35.855Z</time>
      </trkpt>
      <trkpt lat="46.97456" lon="6.43413">
        <ele>793.101511</ele>
        <time>2021-04-29T23:44:12.479Z</time>
      </trkpt>
      <trkpt lat="46.97256" lon="6.43225">
        <ele>791.971021</ele>
        <time>2021-04-29T23:45:12.455Z</time>
      </trkpt>
      <trkpt lat="46.9719" lon="6.43152">
        <ele>791.656257</ele>
        <time>2021-04-29T23:45:33.358Z</time>
      </trkpt>
      <trkpt lat="46.97109" lon="6.43053">
        <ele>791.197724</ele>
        <time>2021-04-29T23:45:59.710Z</time>
      </trkpt>
      <trkpt lat="46.96924" lon="6.42771">
        <ele>790.037317</ele>
        <time>2021-04-29T23:47:05.926Z</time>
      </trkpt>
      <trkpt lat="46.96778" lon="6.42591">
        <ele>789.625011</ele>
        <time>2021-04-29T23:47:53.983Z</time>
      </trkpt>
      <trkpt lat="46.96648" lon="6.424">
        <ele>790.432386</ele>
        <time>2021-04-29T23:48:46.648Z</time>
      </trkpt>
      <trkpt lat="46.96618" lon="6.42341">
        <ele>790.913944</ele>
        <time>2021-04-29T23:49:03.219Z</time>
      </trkpt>
      <trkpt lat="46.96596" lon="6.4227">
        <ele>791.423182</ele>
        <time>2021-04-29T23:49:20.323Z</time>
      </trkpt>
      <trkpt lat="46.96594" lon="6.42264">
        <ele>791.469994</ele>
        <time>2021-04-29T23:49:22.371Z</time>
      </trkpt>
      <trkpt lat="46.96591" lon="6.42252">
        <ele>791.562792</ele>
        <time>2021-04-29T23:49:25.666Z</time>
      </trkpt>
      <trkpt lat="46.96568" lon="6.42144">
        <ele>792.3977</ele>
        <time>2021-04-29T23:49:51.402Z</time>
      </trkpt>
      <trkpt lat="46.96563" lon="6.42054">
        <ele>793.060091</ele>
        <time>2021-04-29T23:50:10.963Z</time>
      </trkpt>
      <trkpt lat="46.96563" lon="6.42038">
        <ele>793.176818</ele>
        <time>2021-04-29T23:50:14.535Z</time>
      </trkpt>
      <trkpt lat="46.96564" lon="6.42021">
        <ele>793.304582</ele>
        <time>2021-04-29T23:50:17.771Z</time>
      </trkpt>
      <trkpt lat="46.96568" lon="6.41945">
        <ele>793.520199</ele>
        <time>2021-04-29T23:50:32.205Z</time>
      </trkpt>
      <trkpt lat="46.96569" lon="6.41877">
        <ele>793.646594</ele>
        <time>2021-04-29T23:50:45.605Z</time>
      </trkpt>
      <trkpt lat="46.96558" lon="6.41771">
        <ele>793.842647</ele>
        <time>2021-04-29T23:51:05.917Z</time>
      </trkpt>
      <trkpt lat="46.96555" lon="6.4176">
        <ele>793.864433</ele>
        <time>2021-04-29T23:51:07.816Z</time>
      </trkpt>
      <trkpt lat="46.96537" lon="6.41698">
        <ele>793.859949</ele>
        <time>2021-04-29T23:51:20.228Z</time>
      </trkpt>
      <trkpt lat="46.96512" lon="6.41608">
        <ele>793.804563</ele>
        <time>2021-04-29T23:51:37.632Z</time>
      </trkpt>
      <trkpt lat="46.96503" lon="6.41593">
        <ele>793.792895</ele>
        <time>2021-04-29T23:51:41.410Z</time>
      </trkpt>
      <trkpt lat="46.96505" lon="6.41586">
        <ele>793.788558</ele>
        <time>2021-04-29T23:51:43.082Z</time>
      </trkpt>
      <trkpt lat="46.96499" lon="6.41569">
        <ele>793.777911</ele>
        <time>2021-04-29T23:51:46.058Z</time>
      </trkpt>
      <trkpt lat="46.96475" lon="6.41552">
        <ele>793.75523</ele>
        <time>2021-04-29T23:51:53.479Z</time>
      </trkpt>
      <trkpt lat="46.96454" lon="6.41523">
        <ele>793.721701</ele>
        <time>2021-04-29T23:52:00.895Z</time>
      </trkpt>
      <trkpt lat="46.96388" lon="6.41401">
        <ele>793.542482</ele>
        <time>2021-04-29T23:52:27.610Z</time>
      </trkpt>
      <trkpt lat="46.96226" lon="6.41162">
        <ele>793.425393</ele>
        <time>2021-04-29T23:53:29.516Z</time>
      </trkpt>
      <trkpt lat="46.96128" lon="6.41038">
        <ele>793.345219</ele>
        <time>2021-04-29T23:54:02.899Z</time>
      </trkpt>
      <trkpt lat="46.96032" lon="6.4089">
        <ele>793.768258</ele>
        <time>2021-04-29T23:54:41.031Z</time>
      </trkpt>
      <trkpt lat="46.95953" lon="6.40791">
        <ele>794.407043</ele>
        <time>2021-04-29T23:55:13.298Z</time>
      </trkpt>
      <trkpt lat="46.95944" lon="6.4078">
        <ele>794.521221</ele>
        <time>2021-04-29T23:55:17.367Z</time>
      </trkpt>
      <trkpt lat="46.95932" lon="6.40767">
        <ele>794.679366</ele>
        <time>2021-04-29T23:55:22.107Z</time>
      </trkpt>
      <trkpt lat="46.95893" lon="6.40718">
        <ele>795.204259</ele>
        <time>2021-04-29T23:55:38.923Z</time>
      </trkpt>
      <trkpt lat="46.95756" lon="6.40474">
        <ele>796.984947</ele>
        <time>2021-04-29T23:56:46.183Z</time>
      </trkpt>
      <trkpt lat="46.95606" lon="6.40254">
        <ele>797.556358</ele>
        <time>2021-04-29T23:57:44.582Z</time>
      </trkpt>
      <trkpt lat="46.95573" lon="6.40198">
        <ele>797.553608</ele>
        <time>2021-04-29T23:57:57.640Z</time>
      </trkpt>
      <trkpt lat="46.95531" lon="6.40106">
        <ele>797.39538</ele>
        <time>2021-04-29T23:58:16.871Z</time>
      </trkpt>
      <trkpt lat="46.95334" lon="6.39646">
        <ele>796.891538</ele>
        <time>2021-04-29T23:59:52.643Z</time>
      </trkpt>
      <trkpt lat="46.95311" lon="6.39563">
        <ele>796.931365</ele>
        <time>2021-04-30T00:00:10.015Z</time>
      </trkpt>
      <trkpt lat="46.95275" lon="6.39356">
        <ele>797.698991</ele>
        <time>2021-04-30T00:00:53.327Z</time>
      </trkpt>
      <trkpt lat="46.95244" lon="6.39239">
        <ele>798.161405</ele>
        <time>2021-04-30T00:01:18.773Z</time>
      </trkpt>
      <trkpt lat="46.95218" lon="6.39173">
        <ele>798.412394</ele>
        <time>2021-04-30T00:01:33.842Z</time>
      </trkpt>
      <trkpt lat="46.95123" lon="6.38996">
        <ele>799.011327</ele>
        <time>2021-04-30T00:02:17.827Z</time>
      </trkpt>
      <trkpt lat="46.95069" lon="6.3885">
        <ele>799.296231</ele>
        <time>2021-04-30T00:02:49.684Z</time>
      </trkpt>
      <trkpt lat="46.95042" lon="6.38754">
        <ele>799.085522</ele>
        <time>2021-04-30T00:03:08.084Z</time>
      </trkpt>
      <trkpt lat="46.95017" lon="6.38688">
        <ele>798.912641</ele>
        <time>2021-04-30T00:03:21.135Z</time>
      </trkpt>
      <trkpt lat="46.95012" lon="6.38673">
        <ele>798.874824</ele>
        <time>2021-04-30T00:03:24.066Z</time>
      </trkpt>
      <trkpt lat="46.95001" lon="6.38665">
        <ele>798.835244</ele>
        <time>2021-04-30T00:03:26.760Z</time>
      </trkpt>
      <trkpt lat="46.94947" lon="6.38559">
        <ele>798.495092</ele>
        <time>2021-04-30T00:03:48.944Z</time>
      </trkpt>
      <trkpt lat="46.9492" lon="6.38522">
        <ele>798.346598</ele>
        <time>2021-04-30T00:03:57.770Z</time>
      </trkpt>
      <trkpt lat="46.9487" lon="6.3847">
        <ele>798.098066</ele>
        <time>2021-04-30T00:04:12.955Z</time>
      </trkpt>
      <trkpt lat="46.94749" lon="6.38362">
        <ele>798.189536</ele>
        <time>2021-04-30T00:04:51.686Z</time>
      </trkpt>
      <trkpt lat="46.94708" lon="6.3831">
        <ele>798.291256</ele>
        <time>2021-04-30T00:05:07.481Z</time>
      </trkpt>
      <trkpt lat="46.94672" lon="6.38242">
        <ele>798.354759</ele>
        <time>2021-04-30T00:05:24.350Z</time>
      </trkpt>
      <trkpt lat="46.94659" lon="6.38213">
        <ele>798.373933</ele>
        <time>2021-04-30T00:05:30.823Z</time>
      </trkpt>
      <trkpt lat="46.94617" lon="6.38114">
        <ele>798.439023</ele>
        <time>2021-04-30T00:05:51.971Z</time>
      </trkpt>
      <trkpt lat="46.94615" lon="6.3811">
        <ele>798.442165</ele>
        <time>2021-04-30T00:05:52.930Z</time>
      </trkpt>
      <trkpt lat="46.946" lon="6.38079">
        <ele>798.463372</ele>
        <time>2021-04-30T00:05:59.748Z</time>
      </trkpt>
      <trkpt lat="46.94577" lon="6.38035">
        <ele>798.349866</ele>
        <time>2021-04-30T00:06:09.316Z</time>
      </trkpt>
      <trkpt lat="46.94515" lon="6.3794">
        <ele>798.06075</ele>
        <time>2021-04-30T00:06:31.514Z</time>
      </trkpt>
      <trkpt lat="46.94474" lon="6.37889">
        <ele>797.887377</ele>
        <time>2021-04-30T00:06:45.134Z</time>
      </trkpt>
      <trkpt lat="46.94467" lon="6.3788">
        <ele>797.885614</ele>
        <time>2021-04-30T00:06:47.444Z</time>
      </trkpt>
      <trkpt lat="46.94435" lon="6.37842">
        <ele>797.890323</ele>
        <time>2021-04-30T00:06:58.604Z</time>
      </trkpt>
      <trkpt lat="46.94373" lon="6.37764">
        <ele>797.899525</ele>
        <time>2021-04-30T00:07:20.470Z</time>
      </trkpt>
      <trkpt lat="46.94301" lon="6.37641">
        <ele>798.246474</ele>
        <time>2021-04-30T00:07:51.113Z</time>
      </trkpt>
      <trkpt lat="46.94009" lon="6.37246">
        <ele>800.316692</ele>
        <time>2021-04-30T00:09:49.199Z</time>
      </trkpt>
      <trkpt lat="46.93991" lon="6.37212">
        <ele>800.446604</ele>
        <time>2021-04-30T00:09:57.726Z</time>
      </trkpt>
      <trkpt lat="46.93962" lon="6.37119">
        <ele>800.60651</ele>
        <time>2021-04-30T00:10:17.346Z</time>
      </trkpt>
      <trkpt lat="46.93931" lon="6.36914">
        <ele>800.133786</ele>
        <time>2021-04-30T00:10:53.072Z</time>
      </trkpt>
      <trkpt lat="46.9391" lon="6.36838">
        <ele>800.479939</ele>
        <time>2021-04-30T00:11:06.429Z</time>
      </trkpt>
      <trkpt lat="46.93892" lon="6.36796">
        <ele>800.826904</ele>
        <time>2021-04-30T00:11:14.921Z</time>
      </trkpt>
      <trkpt lat="46.93855" lon="6.36735">
        <ele>801.399568</ele>
        <time>2021-04-30T00:11:33.174Z</time>
      </trkpt>
      <trkpt lat="46.93825" lon="6.367">
        <ele>801.79914</ele>
        <time>2021-04-30T00:11:48.150Z</time>
      </trkpt>
      <trkpt lat="46.93785" lon="6.36668">
        <ele>803.076283</ele>
        <time>2021-04-30T00:12:06.790Z</time>
      </trkpt>
      <trkpt lat="46.93762" lon="6.36655">
        <ele>803.969695</ele>
        <time>2021-04-30T00:12:17.899Z</time>
      </trkpt>
      <trkpt lat="46.9371" lon="6.36631">
        <ele>805.898196</ele>
        <time>2021-04-30T00:12:42.841Z</time>
      </trkpt>
      <trkpt lat="46.93549" lon="6.36555">
        <ele>810.938613</ele>
        <time>2021-04-30T00:13:58.525Z</time>
      </trkpt>
      <trkpt lat="46.93495" lon="6.36521">
        <ele>812.428513</ele>
        <time>2021-04-30T00:14:18.165Z</time>
      </trkpt>
      <trkpt lat="46.93435" lon="6.36467">
        <ele>812.648209</ele>
        <time>2021-04-30T00:14:39.455Z</time>
      </trkpt>
      <trkpt lat="46.93121" lon="6.36036">
        <ele>809.907442</ele>
        <time>2021-04-30T00:16:20.695Z</time>
      </trkpt>
      <trkpt lat="46.93119" lon="6.36035">
        <ele>809.895902</ele>
        <time>2021-04-30T00:16:20.985Z</time>
      </trkpt>
      <trkpt lat="46.93118" lon="6.36035">
        <ele>809.884959</ele>
        <time>2021-04-30T00:16:21.399Z</time>
      </trkpt>
      <trkpt lat="46.93113" lon="6.36037">
        <ele>809.847751</ele>
        <time>2021-04-30T00:16:22.795Z</time>
      </trkpt>
      <trkpt lat="46.93109" lon="6.36038">
        <ele>809.819991</ele>
        <time>2021-04-30T00:16:23.803Z</time>
      </trkpt>
      <trkpt lat="46.93107" lon="6.36036">
        <ele>809.804041</ele>
        <time>2021-04-30T00:16:24.253Z</time>
      </trkpt>
      <trkpt lat="46.93099" lon="6.36022">
        <ele>809.713144</ele>
        <time>2021-04-30T00:16:27.390Z</time>
      </trkpt>
      <trkpt lat="46.93093" lon="6.35995">
        <ele>809.577714</ele>
        <time>2021-04-30T00:16:32.117Z</time>
      </trkpt>
      <trkpt lat="46.9308" lon="6.35978">
        <ele>809.49836</ele>
        <time>2021-04-30T00:16:36.582Z</time>
      </trkpt>
      <trkpt lat="46.92949" lon="6.35796">
        <ele>809.82854</ele>
        <time>2021-04-30T00:17:25.808Z</time>
      </trkpt>
      <trkpt lat="46.9276" lon="6.35541">
        <ele>813.055833</ele>
        <time>2021-04-30T00:18:48.131Z</time>
      </trkpt>
      <trkpt lat="46.92702" lon="6.35468">
        <ele>814.497989</ele>
        <time>2021-04-30T00:19:18.183Z</time>
      </trkpt>
      <trkpt lat="46.92693" lon="6.35455">
        <ele>814.742415</ele>
        <time>2021-04-30T00:19:23.437Z</time>
      </trkpt>
      <trkpt lat="46.92689" lon="6.35451">
        <ele>814.828871</ele>
        <time>2021-04-30T00:19:25.412Z</time>
      </trkpt>
      <trkpt lat="46.92638" lon="6.35395">
        <ele>815.701268</ele>
        <time>2021-04-30T00:19:49.234Z</time>
      </trkpt>
      <trkpt lat="46.92593" lon="6.35351">
        <ele>816.444998</ele>
        <time>2021-04-30T00:20:08.184Z</time>
      </trkpt>
      <trkpt lat="46.92583" lon="6.35341">
        <ele>816.599148</ele>
        <time>2021-04-30T00:20:11.859Z</time>
      </trkpt>
      <trkpt lat="46.92578" lon="6.35336">
        <ele>816.689344</ele>
        <time>2021-04-30T00:20:14.055Z</time>
      </trkpt>
      <trkpt lat="46.9257" lon="6.35328">
        <ele>816.818554</ele>
        <time>2021-04-30T00:20:17.146Z</time>
      </trkpt>
      <trkpt lat="46.92494" lon="6.35256">
        <ele>816.831445</ele>
        <time>2021-04-30T00:20:39.954Z</time>
      </trkpt>
      <trkpt lat="46.92418" lon="6.35197">
        <ele>816.056125</ele>
        <time>2021-04-30T00:20:59.059Z</time>
      </trkpt>
      <trkpt lat="46.9231" lon="6.35117">
        <ele>815.484166</ele>
        <time>2021-04-30T00:21:27.044Z</time>
      </trkpt>
      <trkpt lat="46.92244" lon="6.35078">
        <ele>815.299756</ele>
        <time>2021-04-30T00:21:46.303Z</time>
      </trkpt>
      <trkpt lat="46.9217" lon="6.3504">
        <ele>816.035214</ele>
        <time>2021-04-30T00:22:09.991Z</time>
      </trkpt>
      <trkpt lat="46.92076" lon="6.34992">
        <ele>817.627912</ele>
        <time>2021-04-30T00:22:45.764Z</time>
      </trkpt>
      <trkpt lat="46.92068" lon="6.34978">
        <ele>817.823862</ele>
        <time>2021-04-30T00:22:50.181Z</time>
      </trkpt>
      <trkpt lat="46.92067" lon="6.34969">
        <ele>817.928613</ele>
        <time>2021-04-30T00:22:52.905Z</time>
      </trkpt>
      <trkpt lat="46.92063" lon="6.34955">
        <ele>818.087253</ele>
        <time>2021-04-30T00:22:56.764Z</time>
      </trkpt>
      <trkpt lat="46.92047" lon="6.3496">
        <ele>818.419899</ele>
        <time>2021-04-30T00:23:02.662Z</time>
      </trkpt>
      <trkpt lat="46.92032" lon="6.34962">
        <ele>818.733926</ele>
        <time>2021-04-30T00:23:08.609Z</time>
      </trkpt>
      <trkpt lat="46.9203" lon="6.34964">
        <ele>818.779073</ele>
        <time>2021-04-30T00:23:09.457Z</time>
      </trkpt>
      <trkpt lat="46.92028" lon="6.34966">
        <ele>818.839037</ele>
        <time>2021-04-30T00:23:10.555Z</time>
      </trkpt>
      <trkpt lat="46.92015" lon="6.34978">
        <ele>819.146659</ele>
        <time>2021-04-30T00:23:16.053Z</time>
      </trkpt>
      <trkpt lat="46.92012" lon="6.34979">
        <ele>819.221412</ele>
        <time>2021-04-30T00:23:17.399Z</time>
      </trkpt>
      <trkpt lat="46.92008" lon="6.3498">
        <ele>819.288641</ele>
        <time>2021-04-30T00:23:18.678Z</time>
      </trkpt>
      <trkpt lat="46.92003" lon="6.34981">
        <ele>819.410679</ele>
        <time>2021-04-30T00:23:21.070Z</time>
      </trkpt>
      <trkpt lat="46.91911" lon="6.35012">
        <ele>821.349003</ele>
        <time>2021-04-30T00:23:56.226Z</time>
      </trkpt>
      <trkpt lat="46.91906" lon="6.35014">
        <ele>821.465277</ele>
        <time>2021-04-30T00:23:58.203Z</time>
      </trkpt>
      <trkpt lat="46.91873" lon="6.35025">
        <ele>821.899787</ele>
        <time>2021-04-30T00:24:09.623Z</time>
      </trkpt>
      <trkpt lat="46.91817" lon="6.35042">
        <ele>822.226717</ele>
        <time>2021-04-30T00:24:27.900Z</time>
      </trkpt>
      <trkpt lat="46.91809" lon="6.35044">
        <ele>822.268459</ele>
        <time>2021-04-30T00:24:30.164Z</time>
      </trkpt>
      <trkpt lat="46.91792" lon="6.35049">
        <ele>822.365648</ele>
        <time>2021-04-30T00:24:35.179Z</time>
      </trkpt>
      <trkpt lat="46.91759" lon="6.35056">
        <ele>822.552702</ele>
        <time>2021-04-30T00:24:44.335Z</time>
      </trkpt>
      <trkpt lat="46.91742" lon="6.3506">
        <ele>822.653974</ele>
        <time>2021-04-30T00:24:48.991Z</time>
      </trkpt>
      <trkpt lat="46.91734" lon="6.35064">
        <ele>822.701091</ele>
        <time>2021-04-30T00:24:51.174Z</time>
      </trkpt>
      <trkpt lat="46.91701" lon="6.3508">
        <ele>822.694623</ele>
        <time>2021-04-30T00:24:59.975Z</time>
      </trkpt>
      <trkpt lat="46.91686" lon="6.35088">
        <ele>822.540073</ele>
        <time>2021-04-30T00:25:03.969Z</time>
      </trkpt>
      <trkpt lat="46.91676" lon="6.35094">
        <ele>822.434184</ele>
        <time>2021-04-30T00:25:06.613Z</time>
      </trkpt>
      <trkpt lat="46.91675" lon="6.3509">
        <ele>822.404512</ele>
        <time>2021-04-30T00:25:07.359Z</time>
      </trkpt>
      <trkpt lat="46.91674" lon="6.35088">
        <ele>822.390771</ele>
        <time>2021-04-30T00:25:07.718Z</time>
      </trkpt>
      <trkpt lat="46.91614" lon="6.34893">
        <ele>820.952813</ele>
        <time>2021-04-30T00:25:40.836Z</time>
      </trkpt>
      <trkpt lat="46.91608" lon="6.34868">
        <ele>820.732536</ele>
        <time>2021-04-30T00:25:45.254Z</time>
      </trkpt>
      <trkpt lat="46.91605" lon="6.34821">
        <ele>820.332469</ele>
        <time>2021-04-30T00:25:52.433Z</time>
      </trkpt>
      <trkpt lat="46.91627" lon="6.34713">
        <ele>819.372224</ele>
        <time>2021-04-30T00:26:09.626Z</time>
      </trkpt>
      <trkpt lat="46.91631" lon="6.34693">
        <ele>819.192992</ele>
        <time>2021-04-30T00:26:12.745Z</time>
      </trkpt>
      <trkpt lat="46.91635" lon="6.34695">
        <ele>819.135213</ele>
        <time>2021-04-30T00:26:14.184Z</time>
      </trkpt>
      <trkpt lat="46.91634" lon="6.34702">
        <ele>819.071317</ele>
        <time>2021-04-30T00:26:17.789Z</time>
      </trkpt>
      <trkpt lat="46.91628" lon="6.34729">
        <ele>818.844138</ele>
        <time>2021-04-30T00:26:31.364Z</time>
      </trkpt>
      <trkpt lat="46.91634" lon="6.34702">
        <ele>818.735847</ele>
        <time>2021-04-30T00:26:44.938Z</time>
      </trkpt>
      <trkpt lat="46.91635" lon="6.34695">
        <ele>818.707284</ele>
        <time>2021-04-30T00:26:48.543Z</time>
      </trkpt>
      <trkpt lat="46.91631" lon="6.34693">
        <ele>818.681454</ele>
        <time>2021-04-30T00:26:50.045Z</time>
      </trkpt>
      <trkpt lat="46.91632" lon="6.34684">
        <ele>818.648519</ele>
        <time>2021-04-30T00:26:51.389Z</time>
      </trkpt>
      <trkpt lat="46.91633" lon="6.34658">
        <ele>818.551321</ele>
        <time>2021-04-30T00:26:55.777Z</time>
      </trkpt>
      <trkpt lat="46.91631" lon="6.34637">
        <ele>818.470187</ele>
        <time>2021-04-30T00:26:59.094Z</time>
      </trkpt>
      <trkpt lat="46.9163" lon="6.34626">
        <ele>818.427703</ele>
        <time>2021-04-30T00:27:00.878Z</time>
      </trkpt>
      <trkpt lat="46.91624" lon="6.34584">
        <ele>818.264515</ele>
        <time>2021-04-30T00:27:08.290Z</time>
      </trkpt>
      <trkpt lat="46.91624" lon="6.34581">
        <ele>818.254883</ele>
        <time>2021-04-30T00:27:08.706Z</time>
      </trkpt>
      <trkpt lat="46.91619" lon="6.3458">
        <ele>818.226819</ele>
        <time>2021-04-30T00:27:10.278Z</time>
      </trkpt>
      <trkpt lat="46.91594" lon="6.3457">
        <ele>818.08397</ele>
        <time>2021-04-30T00:27:19.171Z</time>
      </trkpt>
      <trkpt lat="46.91546" lon="6.3456">
        <ele>817.898951</ele>
        <time>2021-04-30T00:27:35.775Z</time>
      </trkpt>
      <trkpt lat="46.91496" lon="6.34553">
        <ele>818.148499</ele>
        <time>2021-04-30T00:27:53.903Z</time>
      </trkpt>
      <trkpt lat="46.91489" lon="6.34549">
        <ele>818.188417</ele>
        <time>2021-04-30T00:27:56.816Z</time>
      </trkpt>
      <trkpt lat="46.91466" lon="6.34563">
        <ele>818.311687</ele>
        <time>2021-04-30T00:28:03.909Z</time>
      </trkpt>
      <trkpt lat="46.91462" lon="6.34566">
        <ele>818.33517</ele>
        <time>2021-04-30T00:28:05.340Z</time>
      </trkpt>
      <trkpt lat="46.9144" lon="6.34579">
        <ele>818.454981</ele>
        <time>2021-04-30T00:28:12.327Z</time>
      </trkpt>
      <trkpt lat="46.91424" lon="6.34589">
        <ele>818.543126</ele>
        <time>2021-04-30T00:28:17.627Z</time>
      </trkpt>
      <trkpt lat="46.91391" lon="6.3461">
        <ele>818.723342</ele>
        <time>2021-04-30T00:28:28.515Z</time>
      </trkpt>
      <trkpt lat="46.91385" lon="6.34613">
        <ele>818.758334</ele>
        <time>2021-04-30T00:28:30.652Z</time>
      </trkpt>
      <trkpt lat="46.91363" lon="6.34627">
        <ele>819.082005</ele>
        <time>2021-04-30T00:28:38.016Z</time>
      </trkpt>
      <trkpt lat="46.91345" lon="6.34638">
        <ele>819.35535</ele>
        <time>2021-04-30T00:28:44.408Z</time>
      </trkpt>
      <trkpt lat="46.91277" lon="6.34679">
        <ele>820.395441</ele>
        <time>2021-04-30T00:29:09.021Z</time>
      </trkpt>
      <trkpt lat="46.91239" lon="6.34702">
        <ele>820.989808</ele>
        <time>2021-04-30T00:29:23.839Z</time>
      </trkpt>
      <trkpt lat="46.9123" lon="6.34708">
        <ele>821.121807</ele>
        <time>2021-04-30T00:29:26.949Z</time>
      </trkpt>
      <trkpt lat="46.91216" lon="6.34716">
        <ele>821.34598</ele>
        <time>2021-04-30T00:29:32.543Z</time>
      </trkpt>
      <trkpt lat="46.91206" lon="6.34722">
        <ele>821.496685</ele>
        <time>2021-04-30T00:29:36.005Z</time>
      </trkpt>
      <trkpt lat="46.91185" lon="6.34739">
        <ele>821.855578</ele>
        <time>2021-04-30T00:29:44.272Z</time>
      </trkpt>
      <trkpt lat="46.91174" lon="6.34746">
        <ele>822.041743</ele>
        <time>2021-04-30T00:29:48.563Z</time>
      </trkpt>
      <trkpt lat="46.9117" lon="6.34746">
        <ele>822.103036</ele>
        <time>2021-04-30T00:29:49.974Z</time>
      </trkpt>
      <trkpt lat="46.91162" lon="6.34751">
        <ele>822.224387</ele>
        <time>2021-04-30T00:29:52.660Z</time>
      </trkpt>
      <trkpt lat="46.9116" lon="6.34756">
        <ele>822.286835</ele>
        <time>2021-04-30T00:29:54.176Z</time>
      </trkpt>
      <trkpt lat="46.91147" lon="6.34757">
        <ele>822.477064</ele>
        <time>2021-04-30T00:29:58.628Z</time>
      </trkpt>
      <trkpt lat="46.91132" lon="6.34767">
        <ele>822.718507</ele>
        <time>2021-04-30T00:30:04.078Z</time>
      </trkpt>
      <trkpt lat="46.91124" lon="6.34772">
        <ele>822.849907</ele>
        <time>2021-04-30T00:30:07.256Z</time>
      </trkpt>
      <trkpt lat="46.91116" lon="6.34777">
        <ele>822.98899</ele>
        <time>2021-04-30T00:30:10.557Z</time>
      </trkpt>
      <trkpt lat="46.91096" lon="6.34789">
        <ele>823.314632</ele>
        <time>2021-04-30T00:30:17.831Z</time>
      </trkpt>
      <trkpt lat="46.91075" lon="6.34802">
        <ele>823.652882</ele>
        <time>2021-04-30T00:30:25.525Z</time>
      </trkpt>
      <trkpt lat="46.91045" lon="6.3482">
        <ele>824.108181</ele>
        <time>2021-04-30T00:30:35.851Z</time>
      </trkpt>
      <trkpt lat="46.91042" lon="6.34822">
        <ele>824.137586</ele>
        <time>2021-04-30T00:30:36.655Z</time>
      </trkpt>
      <trkpt lat="46.90987" lon="6.34855">
        <ele>824.818302</ele>
        <time>2021-04-30T00:30:55.436Z</time>
      </trkpt>
      <trkpt lat="46.9098" lon="6.3486">
        <ele>824.904704</ele>
        <time>2021-04-30T00:30:57.776Z</time>
      </trkpt>
      <trkpt lat="46.9097" lon="6.34866">
        <ele>825.025607</ele>
        <time>2021-04-30T00:31:01.098Z</time>
      </trkpt>
      <trkpt lat="46.90961" lon="6.34871">
        <ele>825.133912</ele>
        <time>2021-04-30T00:31:04.131Z</time>
      </trkpt>
      <trkpt lat="46.90953" lon="6.34876">
        <ele>825.241164</ele>
        <time>2021-04-30T00:31:07.090Z</time>
      </trkpt>
      <trkpt lat="46.90912" lon="6.34901">
        <ele>825.739178</ele>
        <time>2021-04-30T00:31:21.166Z</time>
      </trkpt>
      <trkpt lat="46.90906" lon="6.34905">
        <ele>825.820781</ele>
        <time>2021-04-30T00:31:23.494Z</time>
      </trkpt>
      <trkpt lat="46.90898" lon="6.3491">
        <ele>825.919484</ele>
        <time>2021-04-30T00:31:26.363Z</time>
      </trkpt>
      <trkpt lat="46.90872" lon="6.34925">
        <ele>826.247309</ele>
        <time>2021-04-30T00:31:35.598Z</time>
      </trkpt>
      <trkpt lat="46.90859" lon="6.34933">
        <ele>826.415507</ele>
        <time>2021-04-30T00:31:40.428Z</time>
      </trkpt>
      <trkpt lat="46.9085" lon="6.34939">
        <ele>826.535741</ele>
        <time>2021-04-30T00:31:43.752Z</time>
      </trkpt>
      <trkpt lat="46.90844" lon="6.34943">
        <ele>826.621852</ele>
        <time>2021-04-30T00:31:46.127Z</time>
      </trkpt>
      <trkpt lat="46.90829" lon="6.34952">
        <ele>826.823045</ele>
        <time>2021-04-30T00:31:51.867Z</time>
      </trkpt>
      <trkpt lat="46.90822" lon="6.34956">
        <ele>826.910283</ele>
        <time>2021-04-30T00:31:54.243Z</time>
      </trkpt>
      <trkpt lat="46.90814" lon="6.34961">
        <ele>827.015065</ele>
        <time>2021-04-30T00:31:56.982Z</time>
      </trkpt>
      <trkpt lat="46.9079" lon="6.34975">
        <ele>827.329893</ele>
        <time>2021-04-30T00:32:05.489Z</time>
      </trkpt>
      <trkpt lat="46.90774" lon="6.34985">
        <ele>827.545733</ele>
        <time>2021-04-30T00:32:11.037Z</time>
      </trkpt>
      <trkpt lat="46.9077" lon="6.34988">
        <ele>827.5974</ele>
        <time>2021-04-30T00:32:12.502Z</time>
      </trkpt>
      <trkpt lat="46.9076" lon="6.34994">
        <ele>827.732929</ele>
        <time>2021-04-30T00:32:16.144Z</time>
      </trkpt>
      <trkpt lat="46.90741" lon="6.35006">
        <ele>827.988217</ele>
        <time>2021-04-30T00:32:22.710Z</time>
      </trkpt>
      <trkpt lat="46.90734" lon="6.35011">
        <ele>828.081254</ele>
        <time>2021-04-30T00:32:25.288Z</time>
      </trkpt>
      <trkpt lat="46.90706" lon="6.35028">
        <ele>828.302998</ele>
        <time>2021-04-30T00:32:34.724Z</time>
      </trkpt>
      <trkpt lat="46.90699" lon="6.35029">
        <ele>828.325362</ele>
        <time>2021-04-30T00:32:36.925Z</time>
      </trkpt>
      <trkpt lat="46.90694" lon="6.35029">
        <ele>828.339086</ele>
        <time>2021-04-30T00:32:38.184Z</time>
      </trkpt>
      <trkpt lat="46.90691" lon="6.35029">
        <ele>828.349297</ele>
        <time>2021-04-30T00:32:39.168Z</time>
      </trkpt>
      <trkpt lat="46.90687" lon="6.35028">
        <ele>828.361932</ele>
        <time>2021-04-30T00:32:40.301Z</time>
      </trkpt>
      <trkpt lat="46.90677" lon="6.35022">
        <ele>828.39583</ele>
        <time>2021-04-30T00:32:43.351Z</time>
      </trkpt>
      <trkpt lat="46.90653" lon="6.34997">
        <ele>828.490862</ele>
        <time>2021-04-30T00:32:51.912Z</time>
      </trkpt>
      <trkpt lat="46.90645" lon="6.34989">
        <ele>828.521381</ele>
        <time>2021-04-30T00:32:54.575Z</time>
      </trkpt>
      <trkpt lat="46.90599" lon="6.34941">
        <ele>828.701274</ele>
        <time>2021-04-30T00:33:10.087Z</time>
      </trkpt>
      <trkpt lat="46.90593" lon="6.34937">
        <ele>828.722313</ele>
        <time>2021-04-30T00:33:11.773Z</time>
      </trkpt>
      <trkpt lat="46.90586" lon="6.34934">
        <ele>828.745104</ele>
        <time>2021-04-30T00:33:13.609Z</time>
      </trkpt>
      <trkpt lat="46.90574" lon="6.34969">
        <ele>828.833245</ele>
        <time>2021-04-30T00:33:20.574Z</time>
      </trkpt>
      <trkpt lat="46.90559" lon="6.35007">
        <ele>828.945145</ele>
        <time>2021-04-30T00:33:28.264Z</time>
      </trkpt>
      <trkpt lat="46.90556" lon="6.35016">
        <ele>828.971107</ele>
        <time>2021-04-30T00:33:30.037Z</time>
      </trkpt>
      <trkpt lat="46.90539" lon="6.35056">
        <ele>829.091777</ele>
        <time>2021-04-30T00:33:39.021Z</time>
      </trkpt>
      <trkpt lat="46.90534" lon="6.35052">
        <ele>829.112098</ele>
        <time>2021-04-30T00:33:40.457Z</time>
      </trkpt>
      <trkpt lat="46.9052" lon="6.35041">
        <ele>829.174085</ele>
        <time>2021-04-30T00:33:45.212Z</time>
      </trkpt>
      <trkpt lat="46.90484" lon="6.35034">
        <ele>829.308641</ele>
        <time>2021-04-30T00:33:55.614Z</time>
      </trkpt>
      <trkpt lat="46.90421" lon="6.3503">
        <ele>829.640811</ele>
        <time>2021-04-30T00:34:14.505Z</time>
      </trkpt>
      <trkpt lat="46.90418" lon="6.3503">
        <ele>829.674199</ele>
        <time>2021-04-30T00:34:15.427Z</time>
      </trkpt>
      <trkpt lat="46.90406" lon="6.35029">
        <ele>829.814178</ele>
        <time>2021-04-30T00:34:19.462Z</time>
      </trkpt>
      <trkpt lat="46.90403" lon="6.35054">
        <ele>830.016813</ele>
        <time>2021-04-30T00:34:24.670Z</time>
      </trkpt>
      <trkpt lat="46.90402" lon="6.35064">
        <ele>830.093816</ele>
        <time>2021-04-30T00:34:26.836Z</time>
      </trkpt>
      <trkpt lat="46.90394" lon="6.35132">
        <ele>830.630704</ele>
        <time>2021-04-30T00:34:42.426Z</time>
      </trkpt>
      <trkpt lat="46.90382" lon="6.35185">
        <ele>831.070548</ele>
        <time>2021-04-30T00:34:55.120Z</time>
      </trkpt>
      <trkpt lat="46.90382" lon="6.35187">
        <ele>831.086584</ele>
        <time>2021-04-30T00:34:55.712Z</time>
      </trkpt>
      <trkpt lat="46.9038" lon="6.35197">
        <ele>831.171193</ele>
        <time>2021-04-30T00:34:57.973Z</time>
      </trkpt>
      <trkpt lat="46.90379" lon="6.35205">
        <ele>831.231266</ele>
        <time>2021-04-30T00:34:59.624Z</time>
      </trkpt>
      <trkpt lat="46.90379" lon="6.35219">
        <ele>831.342067</ele>
        <time>2021-04-30T00:35:02.903Z</time>
      </trkpt>
      <trkpt lat="46.90379" lon="6.35221">
        <ele>831.35914</ele>
        <time>2021-04-30T00:35:03.396Z</time>
      </trkpt>
      <trkpt lat="46.90377" lon="6.35226">
        <ele>831.405954</ele>
        <time>2021-04-30T00:35:04.963Z</time>
      </trkpt>
      <trkpt lat="46.90359" lon="6.35248">
        <ele>831.64846</ele>
        <time>2021-04-30T00:35:12.652Z</time>
      </trkpt>
      <trkpt lat="46.9035" lon="6.35257">
        <ele>831.736576</ele>
        <time>2021-04-30T00:35:16.121Z</time>
      </trkpt>
      <trkpt lat="46.90347" lon="6.35261">
        <ele>831.775519</ele>
        <time>2021-04-30T00:35:17.622Z</time>
      </trkpt>
      <trkpt lat="46.90341" lon="6.3527">
        <ele>831.845882</ele>
        <time>2021-04-30T00:35:20.319Z</time>
      </trkpt>
      <trkpt lat="46.9034" lon="6.35271">
        <ele>831.858046</ele>
        <time>2021-04-30T00:35:20.786Z</time>
      </trkpt>
      <trkpt lat="46.90338" lon="6.35269">
        <ele>831.879747</ele>
        <time>2021-04-30T00:35:22.538Z</time>
      </trkpt>
      <trkpt lat="46.9033" lon="6.35278">
        <ele>831.959542</ele>
        <time>2021-04-30T00:35:25.522Z</time>
      </trkpt>
      <trkpt lat="46.9031" lon="6.3531">
        <ele>832.213425</ele>
        <time>2021-04-30T00:35:35.204Z</time>
      </trkpt>
      <trkpt lat="46.90302" lon="6.35308">
        <ele>832.279862</ele>
        <time>2021-04-30T00:35:37.600Z</time>
      </trkpt>
      <trkpt lat="46.90282" lon="6.35338">
        <ele>832.520674</ele>
        <time>2021-04-30T00:35:46.656Z</time>
      </trkpt>
      <trkpt lat="46.90283" lon="6.35348">
        <ele>832.582253</ele>
        <time>2021-04-30T00:35:50.179Z</time>
      </trkpt>
      <trkpt lat="46.90281" lon="6.35351">
        <ele>832.602998</ele>
        <time>2021-04-30T00:35:51.383Z</time>
      </trkpt>
      <trkpt lat="46.9028" lon="6.35353">
        <ele>832.617901</ele>
        <time>2021-04-30T00:35:52.263Z</time>
      </trkpt>
      <trkpt lat="46.90283" lon="6.35357">
        <ele>832.655601</ele>
        <time>2021-04-30T00:35:53.714Z</time>
      </trkpt>
      <trkpt lat="46.90227" lon="6.35436">
        <ele>833.034242</ele>
        <time>2021-04-30T00:36:15.502Z</time>
      </trkpt>
      <trkpt lat="46.90226" lon="6.35438">
        <ele>833.030356</ele>
        <time>2021-04-30T00:36:15.962Z</time>
      </trkpt>
      <trkpt lat="46.90224" lon="6.35441">
        <ele>833.023996</ele>
        <time>2021-04-30T00:36:16.752Z</time>
      </trkpt>
      <trkpt lat="46.90222" lon="6.35444">
        <ele>833.017733</ele>
        <time>2021-04-30T00:36:17.512Z</time>
      </trkpt>
      <trkpt lat="46.90216" lon="6.35444">
        <ele>833.006099</ele>
        <time>2021-04-30T00:36:19.030Z</time>
      </trkpt>
      <trkpt lat="46.90214" lon="6.35447">
        <ele>833.000187</ele>
        <time>2021-04-30T00:36:19.734Z</time>
      </trkpt>
      <trkpt lat="46.90184" lon="6.35494">
        <ele>832.90707</ele>
        <time>2021-04-30T00:36:31.031Z</time>
      </trkpt>
      <trkpt lat="46.90182" lon="6.35495">
        <ele>832.903127</ele>
        <time>2021-04-30T00:36:31.511Z</time>
      </trkpt>
      <trkpt lat="46.90179" lon="6.35498">
        <ele>832.894036</ele>
        <time>2021-04-30T00:36:32.549Z</time>
      </trkpt>
      <trkpt lat="46.90175" lon="6.35508">
        <ele>832.877669</ele>
        <time>2021-04-30T00:36:34.461Z</time>
      </trkpt>
      <trkpt lat="46.90151" lon="6.35546">
        <ele>832.802764</ele>
        <time>2021-04-30T00:36:43.848Z</time>
      </trkpt>
      <trkpt lat="46.90115" lon="6.356">
        <ele>832.672154</ele>
        <time>2021-04-30T00:36:56.463Z</time>
      </trkpt>
      <trkpt lat="46.9011" lon="6.35608">
        <ele>832.636569</ele>
        <time>2021-04-30T00:36:58.343Z</time>
      </trkpt>
      <trkpt lat="46.90068" lon="6.3567">
        <ele>832.347615</ele>
        <time>2021-04-30T00:37:12.483Z</time>
      </trkpt>
      <trkpt lat="46.90065" lon="6.35675">
        <ele>832.323971</ele>
        <time>2021-04-30T00:37:13.554Z</time>
      </trkpt>
      <trkpt lat="46.9006" lon="6.35668">
        <ele>832.289557</ele>
        <time>2021-04-30T00:37:15.420Z</time>
      </trkpt>
      <trkpt lat="46.90055" lon="6.35655">
        <ele>832.240524</ele>
        <time>2021-04-30T00:37:17.853Z</time>
      </trkpt>
      <trkpt lat="46.90052" lon="6.35646">
        <ele>832.206382</ele>
        <time>2021-04-30T00:37:19.963Z</time>
      </trkpt>
      <trkpt lat="46.90047" lon="6.35662">
        <ele>832.146569</ele>
        <time>2021-04-30T00:37:22.814Z</time>
      </trkpt>
      <trkpt lat="46.90046" lon="6.35666">
        <ele>832.13459</ele>
        <time>2021-04-30T00:37:23.404Z</time>
      </trkpt>
      <trkpt lat="46.90038" lon="6.35694">
        <ele>832.032091</ele>
        <time>2021-04-30T00:37:28.989Z</time>
      </trkpt>
      <trkpt lat="46.90032" lon="6.35715">
        <ele>831.957851</ele>
        <time>2021-04-30T00:37:32.570Z</time>
      </trkpt>
      <trkpt lat="46.90023" lon="6.35748">
        <ele>831.838106</ele>
        <time>2021-04-30T00:37:39.011Z</time>
      </trkpt>
      <trkpt lat="46.90016" lon="6.35772">
        <ele>831.797893</ele>
        <time>2021-04-30T00:37:43.445Z</time>
      </trkpt>
      <trkpt lat="46.89998" lon="6.3584">
        <ele>831.683694</ele>
        <time>2021-04-30T00:37:56.520Z</time>
      </trkpt>
      <trkpt lat="46.89992" lon="6.35857">
        <ele>831.654838</ele>
        <time>2021-04-30T00:37:59.547Z</time>
      </trkpt>
      <trkpt lat="46.8999" lon="6.35862">
        <ele>831.645643</ele>
        <time>2021-04-30T00:38:00.486Z</time>
      </trkpt>
      <trkpt lat="46.89988" lon="6.35866">
        <ele>831.637975</ele>
        <time>2021-04-30T00:38:01.354Z</time>
      </trkpt>
      <trkpt lat="46.89985" lon="6.35871">
        <ele>831.627729</ele>
        <time>2021-04-30T00:38:02.527Z</time>
      </trkpt>
      <trkpt lat="46.89984" lon="6.35873">
        <ele>831.624224</ele>
        <time>2021-04-30T00:38:02.928Z</time>
      </trkpt>
      <trkpt lat="46.89982" lon="6.35875">
        <ele>831.618651</ele>
        <time>2021-04-30T00:38:03.559Z</time>
      </trkpt>
      <trkpt lat="46.89974" lon="6.3587">
        <ele>831.598633</ele>
        <time>2021-04-30T00:38:05.665Z</time>
      </trkpt>
      <trkpt lat="46.89908" lon="6.35906">
        <ele>831.439494</ele>
        <time>2021-04-30T00:38:25.115Z</time>
      </trkpt>
      <trkpt lat="46.89807" lon="6.35946">
        <ele>831.536009</ele>
        <time>2021-04-30T00:38:54.842Z</time>
      </trkpt>
      <trkpt lat="46.89701" lon="6.36024">
        <ele>831.875917</ele>
        <time>2021-04-30T00:39:28.348Z</time>
      </trkpt>
      <trkpt lat="46.89694" lon="6.36029">
        <ele>831.930266</ele>
        <time>2021-04-30T00:39:31.566Z</time>
      </trkpt>
      <trkpt lat="46.89689" lon="6.36032">
        <ele>831.964462</ele>
        <time>2021-04-30T00:39:32.770Z</time>
      </trkpt>
      <trkpt lat="46.89645" lon="6.36075">
        <ele>832.314393</ele>
        <time>2021-04-30T00:39:49.166Z</time>
      </trkpt>
      <trkpt lat="46.89624" lon="6.36108">
        <ele>832.517319</ele>
        <time>2021-04-30T00:39:59.046Z</time>
      </trkpt>
      <trkpt lat="46.89618" lon="6.3612">
        <ele>832.585642</ele>
        <time>2021-04-30T00:40:01.963Z</time>
      </trkpt>
      <trkpt lat="46.89589" lon="6.36175">
        <ele>832.983626</ele>
        <time>2021-04-30T00:40:17.433Z</time>
      </trkpt>
      <trkpt lat="46.89536" lon="6.36278">
        <ele>834.164415</ele>
        <time>2021-04-30T00:40:47.093Z</time>
      </trkpt>
      <trkpt lat="46.89481" lon="6.36364">
        <ele>835.23823</ele>
        <time>2021-04-30T00:41:15.986Z</time>
      </trkpt>
      <trkpt lat="46.89468" lon="6.36383">
        <ele>835.532398</ele>
        <time>2021-04-30T00:41:22.396Z</time>
      </trkpt>
      <trkpt lat="46.89469" lon="6.36392">
        <ele>835.629629</ele>
        <time>2021-04-30T00:41:25.749Z</time>
      </trkpt>
      <trkpt lat="46.89467" lon="6.36397">
        <ele>835.688982</ele>
        <time>2021-04-30T00:41:27.133Z</time>
      </trkpt>
      <trkpt lat="46.8946" lon="6.36405">
        <ele>835.836766</ele>
        <time>2021-04-30T00:41:30.402Z</time>
      </trkpt>
      <trkpt lat="46.89453" lon="6.36413">
        <ele>835.975007</ele>
        <time>2021-04-30T00:41:33.255Z</time>
      </trkpt>
      <trkpt lat="46.89439" lon="6.36428">
        <ele>836.24581</ele>
        <time>2021-04-30T00:41:39.202Z</time>
      </trkpt>
      <trkpt lat="46.89422" lon="6.36437">
        <ele>836.524949</ele>
        <time>2021-04-30T00:41:45.239Z</time>
      </trkpt>
      <trkpt lat="46.8941" lon="6.36443">
        <ele>836.720166</ele>
        <time>2021-04-30T00:41:49.419Z</time>
      </trkpt>
      <trkpt lat="46.89371" lon="6.36468">
        <ele>837.391234</ele>
        <time>2021-04-30T00:42:04.303Z</time>
      </trkpt>
      <trkpt lat="46.8936" lon="6.36473">
        <ele>837.561191</ele>
        <time>2021-04-30T00:42:08.125Z</time>
      </trkpt>
      <trkpt lat="46.89345" lon="6.3648">
        <ele>837.818821</ele>
        <time>2021-04-30T00:42:13.501Z</time>
      </trkpt>
      <trkpt lat="46.89339" lon="6.36482">
        <ele>837.905701</ele>
        <time>2021-04-30T00:42:15.524Z</time>
      </trkpt>
      <trkpt lat="46.89333" lon="6.36483">
        <ele>837.999567</ele>
        <time>2021-04-30T00:42:17.742Z</time>
      </trkpt>
      <trkpt lat="46.89316" lon="6.36485">
        <ele>838.235763</ele>
        <time>2021-04-30T00:42:23.446Z</time>
      </trkpt>
      <trkpt lat="46.89293" lon="6.36487">
        <ele>838.549463</ele>
        <time>2021-04-30T00:42:31.487Z</time>
      </trkpt>
      <trkpt lat="46.89279" lon="6.36488">
        <ele>838.744107</ele>
        <time>2021-04-30T00:42:36.171Z</time>
      </trkpt>
      <trkpt lat="46.89251" lon="6.3649">
        <ele>839.111768</ele>
        <time>2021-04-30T00:42:45.310Z</time>
      </trkpt>
      <trkpt lat="46.89247" lon="6.3649">
        <ele>839.173951</ele>
        <time>2021-04-30T00:42:46.733Z</time>
      </trkpt>
      <trkpt lat="46.89214" lon="6.36492">
        <ele>839.61193</ele>
        <time>2021-04-30T00:42:57.357Z</time>
      </trkpt>
      <trkpt lat="46.89172" lon="6.36494">
        <ele>840.179396</ele>
        <time>2021-04-30T00:43:10.839Z</time>
      </trkpt>
      <trkpt lat="46.89141" lon="6.36496">
        <ele>840.674629</ele>
        <time>2021-04-30T00:43:21.017Z</time>
      </trkpt>
      <trkpt lat="46.89137" lon="6.36496">
        <ele>840.754146</ele>
        <time>2021-04-30T00:43:22.348Z</time>
      </trkpt>
      <trkpt lat="46.89134" lon="6.36494">
        <ele>840.820928</ele>
        <time>2021-04-30T00:43:23.486Z</time>
      </trkpt>
      <trkpt lat="46.89068" lon="6.36499">
        <ele>842.090629</ele>
        <time>2021-04-30T00:43:45.727Z</time>
      </trkpt>
      <trkpt lat="46.89044" lon="6.36501">
        <ele>842.565941</ele>
        <time>2021-04-30T00:43:54.489Z</time>
      </trkpt>
      <trkpt lat="46.88954" lon="6.36508">
        <ele>844.637264</ele>
        <time>2021-04-30T00:44:28.274Z</time>
      </trkpt>
      <trkpt lat="46.88929" lon="6.36511">
        <ele>845.573727</ele>
        <time>2021-04-30T00:44:39.501Z</time>
      </trkpt>
      <trkpt lat="46.88837" lon="6.36518">
        <ele>849.046296</ele>
        <time>2021-04-30T00:45:22.818Z</time>
      </trkpt>
      <trkpt lat="46.88803" lon="6.36519">
        <ele>850.306831</ele>
        <time>2021-04-30T00:45:39.084Z</time>
      </trkpt>
      <trkpt lat="46.88791" lon="6.36519">
        <ele>850.724918</ele>
        <time>2021-04-30T00:45:44.662Z</time>
      </trkpt>
      <trkpt lat="46.8877" lon="6.3652">
        <ele>851.408185</ele>
        <time>2021-04-30T00:45:55.042Z</time>
      </trkpt>
      <trkpt lat="46.8849" lon="6.36492">
        <ele>858.551697</ele>
        <time>2021-04-30T00:47:47.424Z</time>
      </trkpt>
      <trkpt lat="46.88479" lon="6.36491">
        <ele>858.751946</ele>
        <time>2021-04-30T00:47:51.792Z</time>
      </trkpt>
      <trkpt lat="46.88438" lon="6.36487">
        <ele>859.498666</ele>
        <time>2021-04-30T00:48:02.687Z</time>
      </trkpt>
      <trkpt lat="46.88421" lon="6.3648">
        <ele>859.553413</ele>
        <time>2021-04-30T00:48:06.150Z</time>
      </trkpt>
      <trkpt lat="46.88403" lon="6.36468">
        <ele>859.540714</ele>
        <time>2021-04-30T00:48:12.660Z</time>
      </trkpt>
      <trkpt lat="46.88394" lon="6.36461">
        <ele>859.534807</ele>
        <time>2021-04-30T00:48:14.420Z</time>
      </trkpt>
      <trkpt lat="46.8839" lon="6.36458">
        <ele>859.531895</ele>
        <time>2021-04-30T00:48:15.313Z</time>
      </trkpt>
      <trkpt lat="46.88366" lon="6.36452">
        <ele>859.516644</ele>
        <time>2021-04-30T00:48:21.691Z</time>
      </trkpt>
      <trkpt lat="46.88243" lon="6.36456">
        <ele>859.770195</ele>
        <time>2021-04-30T00:48:53.535Z</time>
      </trkpt>
      <trkpt lat="46.88204" lon="6.36444">
        <ele>860.581986</ele>
        <time>2021-04-30T00:49:10.018Z</time>
      </trkpt>
      <trkpt lat="46.88188" lon="6.36439">
        <ele>860.927408</ele>
        <time>2021-04-30T00:49:16.467Z</time>
      </trkpt>
      <trkpt lat="46.88174" lon="6.36433">
        <ele>861.220261</ele>
        <time>2021-04-30T00:49:23.335Z</time>
      </trkpt>
      <trkpt lat="46.88167" lon="6.36431">
        <ele>861.359443</ele>
        <time>2021-04-30T00:49:26.291Z</time>
      </trkpt>
      <trkpt lat="46.8815" lon="6.36429">
        <ele>861.712057</ele>
        <time>2021-04-30T00:49:33.064Z</time>
      </trkpt>
      <trkpt lat="46.88142" lon="6.36429">
        <ele>861.878625</ele>
        <time>2021-04-30T00:49:36.663Z</time>
      </trkpt>
      <trkpt lat="46.88138" lon="6.36429">
        <ele>861.959875</ele>
        <time>2021-04-30T00:49:39.416Z</time>
      </trkpt>
      <trkpt lat="46.88111" lon="6.36434">
        <ele>862.50115</ele>
        <time>2021-04-30T00:49:49.595Z</time>
      </trkpt>
      <trkpt lat="46.88097" lon="6.36441">
        <ele>862.799753</ele>
        <time>2021-04-30T00:49:55.786Z</time>
      </trkpt>
      <trkpt lat="46.88076" lon="6.36456">
        <ele>862.876391</ele>
        <time>2021-04-30T00:50:02.519Z</time>
      </trkpt>
      <trkpt lat="46.88039" lon="6.36492">
        <ele>861.719398</ele>
        <time>2021-04-30T00:50:14.848Z</time>
      </trkpt>
      <trkpt lat="46.88" lon="6.36548">
        <ele>860.300921</ele>
        <time>2021-04-30T00:50:25.780Z</time>
      </trkpt>
      <trkpt lat="46.87959" lon="6.36604">
        <ele>858.834953</ele>
        <time>2021-04-30T00:50:36.059Z</time>
      </trkpt>
      <trkpt lat="46.87949" lon="6.36618">
        <ele>858.46754</ele>
        <time>2021-04-30T00:50:38.521Z</time>
      </trkpt>
      <trkpt lat="46.87905" lon="6.36657">
        <ele>855.97656</ele>
        <time>2021-04-30T00:50:47.525Z</time>
      </trkpt>
      <trkpt lat="46.87838" lon="6.36693">
        <ele>852.445348</ele>
        <time>2021-04-30T00:50:59.975Z</time>
      </trkpt>
      <trkpt lat="46.87791" lon="6.36703">
        <ele>850.095209</ele>
        <time>2021-04-30T00:51:09.003Z</time>
      </trkpt>
      <trkpt lat="46.87747" lon="6.36701">
        <ele>849.094039</ele>
        <time>2021-04-30T00:51:18.238Z</time>
      </trkpt>
      <trkpt lat="46.87506" lon="6.36665">
        <ele>846.977429</ele>
        <time>2021-04-30T00:52:16.252Z</time>
      </trkpt>
      <trkpt lat="46.87367" lon="6.366">
        <ele>846.808271</ele>
        <time>2021-04-30T00:52:55.781Z</time>
      </trkpt>
      <trkpt lat="46.87324" lon="6.36573">
        <ele>846.877695</ele>
        <time>2021-04-30T00:53:08.849Z</time>
      </trkpt>
      <trkpt lat="46.87304" lon="6.36557">
        <ele>846.912061</ele>
        <time>2021-04-30T00:53:15.250Z</time>
      </trkpt>
      <trkpt lat="46.87242" lon="6.36503">
        <ele>847.00573</ele>
        <time>2021-04-30T00:53:34.948Z</time>
      </trkpt>
      <trkpt lat="46.87215" lon="6.3648">
        <ele>847.035457</ele>
        <time>2021-04-30T00:53:43.558Z</time>
      </trkpt>
      <trkpt lat="46.87192" lon="6.36467">
        <ele>847.058941</ele>
        <time>2021-04-30T00:53:50.416Z</time>
      </trkpt>
      <trkpt lat="46.87009" lon="6.36418">
        <ele>847.080466</ele>
        <time>2021-04-30T00:54:40.208Z</time>
      </trkpt>
      <trkpt lat="46.86941" lon="6.36377">
        <ele>847.016445</ele>
        <time>2021-04-30T00:54:59.102Z</time>
      </trkpt>
      <trkpt lat="46.86909" lon="6.36347">
        <ele>847.029857</ele>
        <time>2021-04-30T00:55:09.094Z</time>
      </trkpt>
      <trkpt lat="46.86828" lon="6.36241">
        <ele>847.242541</ele>
        <time>2021-04-30T00:55:38.572Z</time>
      </trkpt>
      <trkpt lat="46.86792" lon="6.36178">
        <ele>847.361919</ele>
        <time>2021-04-30T00:55:54.591Z</time>
      </trkpt>
      <trkpt lat="46.86729" lon="6.35985">
        <ele>848.702111</ele>
        <time>2021-04-30T00:56:40.882Z</time>
      </trkpt>
      <trkpt lat="46.86702" lon="6.35924">
        <ele>849.099756</ele>
        <time>2021-04-30T00:56:56.623Z</time>
      </trkpt>
      <trkpt lat="46.86674" lon="6.35871">
        <ele>849.37365</ele>
        <time>2021-04-30T00:57:10.697Z</time>
      </trkpt>
      <trkpt lat="46.86649" lon="6.35829">
        <ele>849.599116</ele>
        <time>2021-04-30T00:57:21.912Z</time>
      </trkpt>
      <trkpt lat="46.86616" lon="6.35758">
        <ele>849.948376</ele>
        <time>2021-04-30T00:57:38.630Z</time>
      </trkpt>
      <trkpt lat="46.86579" lon="6.35649">
        <ele>850.254948</ele>
        <time>2021-04-30T00:58:01.398Z</time>
      </trkpt>
      <trkpt lat="46.86557" lon="6.35598">
        <ele>850.378001</ele>
        <time>2021-04-30T00:58:12.695Z</time>
      </trkpt>
      <trkpt lat="46.86529" lon="6.35552">
        <ele>850.502432</ele>
        <time>2021-04-30T00:58:24.494Z</time>
      </trkpt>
      <trkpt lat="46.8645" lon="6.35448">
        <ele>851.181184</ele>
        <time>2021-04-30T00:58:56.579Z</time>
      </trkpt>
      <trkpt lat="46.86384" lon="6.35306">
        <ele>852.027222</ele>
        <time>2021-04-30T00:59:33.665Z</time>
      </trkpt>
      <trkpt lat="46.86332" lon="6.35225">
        <ele>851.959825</ele>
        <time>2021-04-30T00:59:54.265Z</time>
      </trkpt>
      <trkpt lat="46.86271" lon="6.35154">
        <ele>851.889766</ele>
        <time>2021-04-30T01:00:13.828Z</time>
      </trkpt>
      <trkpt lat="46.86245" lon="6.35121">
        <ele>851.778586</ele>
        <time>2021-04-30T01:00:22.043Z</time>
      </trkpt>
      <trkpt lat="46.86223" lon="6.35082">
        <ele>851.60361</ele>
        <time>2021-04-30T01:00:30.095Z</time>
      </trkpt>
      <trkpt lat="46.86106" lon="6.34826">
        <ele>851.011748</ele>
        <time>2021-04-30T01:01:22.926Z</time>
      </trkpt>
      <trkpt lat="46.86004" lon="6.34568">
        <ele>851.404371</ele>
        <time>2021-04-30T01:02:22.062Z</time>
      </trkpt>
      <trkpt lat="46.85955" lon="6.34435">
        <ele>851.554685</ele>
        <time>2021-04-30T01:02:50.240Z</time>
      </trkpt>
      <trkpt lat="46.85922" lon="6.34305">
        <ele>851.340348</ele>
        <time>2021-04-30T01:03:14.192Z</time>
      </trkpt>
      <trkpt lat="46.85899" lon="6.34238">
        <ele>851.22415</ele>
        <time>2021-04-30T01:03:27.108Z</time>
      </trkpt>
      <trkpt lat="46.85853" lon="6.34145">
        <ele>851.134957</ele>
        <time>2021-04-30T01:03:47.229Z</time>
      </trkpt>
      <trkpt lat="46.85844" lon="6.34127">
        <ele>851.118152</ele>
        <time>2021-04-30T01:03:51.240Z</time>
      </trkpt>
      <trkpt lat="46.85846" lon="6.34122">
        <ele>851.113876</ele>
        <time>2021-04-30T01:03:52.295Z</time>
      </trkpt>
      <trkpt lat="46.8582" lon="6.34054">
        <ele>851.055664</ele>
        <time>2021-04-30T01:04:06.337Z</time>
      </trkpt>
      <trkpt lat="46.85804" lon="6.33976">
        <ele>851.11609</ele>
        <time>2021-04-30T01:04:21.795Z</time>
      </trkpt>
      <trkpt lat="46.85762" lon="6.33832">
        <ele>851.512078</ele>
        <time>2021-04-30T01:04:52.458Z</time>
      </trkpt>
      <trkpt lat="46.85751" lon="6.33801">
        <ele>851.601477</ele>
        <time>2021-04-30T01:04:59.444Z</time>
      </trkpt>
      <trkpt lat="46.85731" lon="6.33767">
        <ele>851.700184</ele>
        <time>2021-04-30T01:05:08.501Z</time>
      </trkpt>
      <trkpt lat="46.85715" lon="6.33752">
        <ele>851.724874</ele>
        <time>2021-04-30T01:05:14.005Z</time>
      </trkpt>
      <trkpt lat="46.85681" lon="6.33724">
        <ele>851.777202</ele>
        <time>2021-04-30T01:05:25.009Z</time>
      </trkpt>
      <trkpt lat="46.85661" lon="6.33705">
        <ele>851.80866</ele>
        <time>2021-04-30T01:05:31.516Z</time>
      </trkpt>
      <trkpt lat="46.85632" lon="6.33673">
        <ele>851.856825</ele>
        <time>2021-04-30T01:05:41.350Z</time>
      </trkpt>
      <trkpt lat="46.85631" lon="6.33669">
        <ele>851.860636</ele>
        <time>2021-04-30T01:05:42.187Z</time>
      </trkpt>
      <trkpt lat="46.85598" lon="6.33636">
        <ele>851.913553</ele>
        <time>2021-04-30T01:05:52.866Z</time>
      </trkpt>
      <trkpt lat="46.85591" lon="6.33632">
        <ele>851.922516</ele>
        <time>2021-04-30T01:05:54.611Z</time>
      </trkpt>
      <trkpt lat="46.85586" lon="6.33627">
        <ele>851.922761</ele>
        <time>2021-04-30T01:05:56.259Z</time>
      </trkpt>
      <trkpt lat="46.85584" lon="6.33623">
        <ele>851.904961</ele>
        <time>2021-04-30T01:05:57.206Z</time>
      </trkpt>
      <trkpt lat="46.85579" lon="6.3362">
        <ele>851.877463</ele>
        <time>2021-04-30T01:05:58.609Z</time>
      </trkpt>
      <trkpt lat="46.85576" lon="6.33617">
        <ele>851.857708</ele>
        <time>2021-04-30T01:05:59.606Z</time>
      </trkpt>
      <trkpt lat="46.85573" lon="6.3362">
        <ele>851.840113</ele>
        <time>2021-04-30T01:06:00.443Z</time>
      </trkpt>
      <trkpt lat="46.85569" lon="6.33623">
        <ele>851.817508</ele>
        <time>2021-04-30T01:06:01.657Z</time>
      </trkpt>
      <trkpt lat="46.85563" lon="6.33622">
        <ele>851.785925</ele>
        <time>2021-04-30T01:06:03.215Z</time>
      </trkpt>
      <trkpt lat="46.85542" lon="6.33619">
        <ele>851.68243</ele>
        <time>2021-04-30T01:06:08.519Z</time>
      </trkpt>
      <trkpt lat="46.85408" lon="6.33595">
        <ele>851.003126</ele>
        <time>2021-04-30T01:06:40.883Z</time>
      </trkpt>
      <trkpt lat="46.85394" lon="6.33588">
        <ele>850.94373</ele>
        <time>2021-04-30T01:06:44.936Z</time>
      </trkpt>
      <trkpt lat="46.8538" lon="6.33579">
        <ele>850.887591</ele>
        <time>2021-04-30T01:06:48.479Z</time>
      </trkpt>
      <trkpt lat="46.85372" lon="6.33573">
        <ele>850.852425</ele>
        <time>2021-04-30T01:06:50.701Z</time>
      </trkpt>
      <trkpt lat="46.85358" lon="6.33558">
        <ele>850.787227</ele>
        <time>2021-04-30T01:06:55.213Z</time>
      </trkpt>
      <trkpt lat="46.85353" lon="6.3356">
        <ele>850.768065</ele>
        <time>2021-04-30T01:06:56.372Z</time>
      </trkpt>
      <trkpt lat="46.85335" lon="6.33539">
        <ele>850.679748</ele>
        <time>2021-04-30T01:07:02.186Z</time>
      </trkpt>
      <trkpt lat="46.85316" lon="6.33518">
        <ele>850.587608</ele>
        <time>2021-04-30T01:07:08.060Z</time>
      </trkpt>
      <trkpt lat="46.85306" lon="6.33506">
        <ele>850.537923</ele>
        <time>2021-04-30T01:07:11.507Z</time>
      </trkpt>
      <trkpt lat="46.8526" lon="6.33461">
        <ele>850.358192</ele>
        <time>2021-04-30T01:07:24.837Z</time>
      </trkpt>
      <trkpt lat="46.85209" lon="6.33433">
        <ele>851.176479</ele>
        <time>2021-04-30T01:07:40.512Z</time>
      </trkpt>
      <trkpt lat="46.85155" lon="6.33387">
        <ele>852.106564</ele>
        <time>2021-04-30T01:08:01.527Z</time>
      </trkpt>
      <trkpt lat="46.85131" lon="6.33369">
        <ele>852.515311</ele>
        <time>2021-04-30T01:08:11.182Z</time>
      </trkpt>
      <trkpt lat="46.85116" lon="6.33339">
        <ele>852.898393</ele>
        <time>2021-04-30T01:08:24.815Z</time>
      </trkpt>
      <trkpt lat="46.85093" lon="6.33293">
        <ele>854.416241</ele>
        <time>2021-04-30T01:08:48.618Z</time>
      </trkpt>
      <trkpt lat="46.85089" lon="6.33287">
        <ele>854.698611</ele>
        <time>2021-04-30T01:08:53.240Z</time>
      </trkpt>
      <trkpt lat="46.85089" lon="6.33284">
        <ele>854.821268</ele>
        <time>2021-04-30T01:08:54.671Z</time>
      </trkpt>
      <trkpt lat="46.85086" lon="6.33274">
        <ele>855.153191</ele>
        <time>2021-04-30T01:08:58.217Z</time>
      </trkpt>
      <trkpt lat="46.85058" lon="6.33236">
        <ele>856.950844</ele>
        <time>2021-04-30T01:09:18.268Z</time>
      </trkpt>
      <trkpt lat="46.85029" lon="6.33195">
        <ele>858.853731</ele>
        <time>2021-04-30T01:09:40.374Z</time>
      </trkpt>
      <trkpt lat="46.85023" lon="6.33177">
        <ele>859.490653</ele>
        <time>2021-04-30T01:09:48.067Z</time>
      </trkpt>
      <trkpt lat="46.85022" lon="6.33157">
        <ele>860.13348</ele>
        <time>2021-04-30T01:09:55.800Z</time>
      </trkpt>
      <trkpt lat="46.85029" lon="6.33125">
        <ele>861.206787</ele>
        <time>2021-04-30T01:10:07.812Z</time>
      </trkpt>
      <trkpt lat="46.85031" lon="6.3309">
        <ele>862.123651</ele>
        <time>2021-04-30T01:10:19.551Z</time>
      </trkpt>
      <trkpt lat="46.85031" lon="6.33076">
        <ele>862.461882</ele>
        <time>2021-04-30T01:10:24.650Z</time>
      </trkpt>
      <trkpt lat="46.85005" lon="6.33056">
        <ele>863.498583</ele>
        <time>2021-04-30T01:10:36.847Z</time>
      </trkpt>
      <trkpt lat="46.84969" lon="6.33025">
        <ele>864.984251</ele>
        <time>2021-04-30T01:10:56.261Z</time>
      </trkpt>
      <trkpt lat="46.84941" lon="6.32998">
        <ele>866.16072</ele>
        <time>2021-04-30T01:11:10.737Z</time>
      </trkpt>
      <trkpt lat="46.84924" lon="6.3298">
        <ele>866.91524</ele>
        <time>2021-04-30T01:11:19.323Z</time>
      </trkpt>
      <trkpt lat="46.84922" lon="6.32985">
        <ele>867.050007</ele>
        <time>2021-04-30T01:11:20.086Z</time>
      </trkpt>
      <trkpt lat="46.84905" lon="6.32998">
        <ele>867.713435</ele>
        <time>2021-04-30T01:11:29.027Z</time>
      </trkpt>
      <trkpt lat="46.84887" lon="6.33001">
        <ele>868.256805</ele>
        <time>2021-04-30T01:11:34.113Z</time>
      </trkpt>
      <trkpt lat="46.84876" lon="6.33003">
        <ele>868.575288</ele>
        <time>2021-04-30T01:11:39.092Z</time>
      </trkpt>
      <trkpt lat="46.84847" lon="6.32986">
        <ele>869.470905</ele>
        <time>2021-04-30T01:11:50.200Z</time>
      </trkpt>
      <trkpt lat="46.84762" lon="6.32914">
        <ele>872.293443</ele>
        <time>2021-04-30T01:12:30.134Z</time>
      </trkpt>
      <trkpt lat="46.84662" lon="6.32867">
        <ele>877.636293</ele>
        <time>2021-04-30T01:13:22.602Z</time>
      </trkpt>
      <trkpt lat="46.84624" lon="6.32874">
        <ele>879.836652</ele>
        <time>2021-04-30T01:13:45.099Z</time>
      </trkpt>
      <trkpt lat="46.84567" lon="6.32913">
        <ele>883.529151</ele>
        <time>2021-04-30T01:14:23.901Z</time>
      </trkpt>
      <trkpt lat="46.84552" lon="6.32919">
        <ele>884.682622</ele>
        <time>2021-04-30T01:14:33.552Z</time>
      </trkpt>
      <trkpt lat="46.84508" lon="6.32922">
        <ele>888.01348</ele>
        <time>2021-04-30T01:15:01.718Z</time>
      </trkpt>
      <trkpt lat="46.84433" lon="6.32917">
        <ele>893.709745</ele>
        <time>2021-04-30T01:15:51.466Z</time>
      </trkpt>
      <trkpt lat="46.84345" lon="6.3288">
        <ele>899.523916</ele>
        <time>2021-04-30T01:16:50.689Z</time>
      </trkpt>
      <trkpt lat="46.84304" lon="6.32857">
        <ele>901.819192</ele>
        <time>2021-04-30T01:17:15.106Z</time>
      </trkpt>
      <trkpt lat="46.84247" lon="6.328">
        <ele>905.370789</ele>
        <time>2021-04-30T01:17:46.647Z</time>
      </trkpt>
      <trkpt lat="46.84206" lon="6.32766">
        <ele>906.923229</ele>
        <time>2021-04-30T01:18:06.136Z</time>
      </trkpt>
      <trkpt lat="46.84192" lon="6.32764">
        <ele>907.218561</ele>
        <time>2021-04-30T01:18:12.868Z</time>
      </trkpt>
      <trkpt lat="46.84173" lon="6.32772">
        <ele>907.615177</ele>
        <time>2021-04-30T01:18:19.625Z</time>
      </trkpt>
      <trkpt lat="46.84148" lon="6.32793">
        <ele>908.205566</ele>
        <time>2021-04-30T01:18:30.466Z</time>
      </trkpt>
      <trkpt lat="46.84129" lon="6.32814">
        <ele>908.68573</ele>
        <time>2021-04-30T01:18:39.425Z</time>
      </trkpt>
      <trkpt lat="46.84111" lon="6.32824">
        <ele>909.069367</ele>
        <time>2021-04-30T01:18:44.985Z</time>
      </trkpt>
      <trkpt lat="46.84091" lon="6.32826">
        <ele>909.475726</ele>
        <time>2021-04-30T01:18:52.330Z</time>
      </trkpt>
      <trkpt lat="46.84075" lon="6.32818">
        <ele>909.830451</ele>
        <time>2021-04-30T01:18:57.484Z</time>
      </trkpt>
      <trkpt lat="46.84049" lon="6.3279">
        <ele>910.275181</ele>
        <time>2021-04-30T01:19:08.348Z</time>
      </trkpt>
      <trkpt lat="46.83917" lon="6.32594">
        <ele>911.386323</ele>
        <time>2021-04-30T01:20:09.779Z</time>
      </trkpt>
      <trkpt lat="46.83889" lon="6.32547">
        <ele>910.48222</ele>
        <time>2021-04-30T01:20:19.724Z</time>
      </trkpt>
      <trkpt lat="46.83822" lon="6.32386">
        <ele>907.109477</ele>
        <time>2021-04-30T01:20:44.465Z</time>
      </trkpt>
      <trkpt lat="46.83788" lon="6.32303">
        <ele>903.95476</ele>
        <time>2021-04-30T01:20:56.313Z</time>
      </trkpt>
      <trkpt lat="46.83777" lon="6.32278">
        <ele>902.961075</ele>
        <time>2021-04-30T01:20:59.971Z</time>
      </trkpt>
      <trkpt lat="46.83769" lon="6.32263">
        <ele>902.334403</ele>
        <time>2021-04-30T01:21:02.454Z</time>
      </trkpt>
      <trkpt lat="46.83764" lon="6.32248">
        <ele>901.797337</ele>
        <time>2021-04-30T01:21:04.477Z</time>
      </trkpt>
      <trkpt lat="46.83754" lon="6.3224">
        <ele>901.261048</ele>
        <time>2021-04-30T01:21:06.430Z</time>
      </trkpt>
      <trkpt lat="46.83747" lon="6.32231">
        <ele>900.832894</ele>
        <time>2021-04-30T01:21:08.125Z</time>
      </trkpt>
      <trkpt lat="46.83723" lon="6.32224">
        <ele>899.623515</ele>
        <time>2021-04-30T01:21:12.687Z</time>
      </trkpt>
      <trkpt lat="46.83712" lon="6.32214">
        <ele>899.238043</ele>
        <time>2021-04-30T01:21:14.994Z</time>
      </trkpt>
      <trkpt lat="46.83644" lon="6.32083">
        <ele>895.673721</ele>
        <time>2021-04-30T01:21:36.689Z</time>
      </trkpt>
      <trkpt lat="46.83571" lon="6.31998">
        <ele>893.50209</ele>
        <time>2021-04-30T01:21:56.971Z</time>
      </trkpt>
      <trkpt lat="46.83542" lon="6.31956">
        <ele>893.032104</ele>
        <time>2021-04-30T01:22:06.073Z</time>
      </trkpt>
      <trkpt lat="46.83532" lon="6.31942">
        <ele>892.8792</ele>
        <time>2021-04-30T01:22:09.351Z</time>
      </trkpt>
      <trkpt lat="46.83506" lon="6.31902">
        <ele>892.445368</ele>
        <time>2021-04-30T01:22:18.031Z</time>
      </trkpt>
      <trkpt lat="46.83495" lon="6.31874">
        <ele>892.192417</ele>
        <time>2021-04-30T01:22:23.078Z</time>
      </trkpt>
      <trkpt lat="46.83492" lon="6.31861">
        <ele>892.077416</ele>
        <time>2021-04-30T01:22:26.021Z</time>
      </trkpt>
      <trkpt lat="46.83487" lon="6.31852">
        <ele>891.990236</ele>
        <time>2021-04-30T01:22:28.866Z</time>
      </trkpt>
      <trkpt lat="46.83471" lon="6.31825">
        <ele>891.904219</ele>
        <time>2021-04-30T01:22:39.409Z</time>
      </trkpt>
      <trkpt lat="46.83445" lon="6.31813">
        <ele>891.945799</ele>
        <time>2021-04-30T01:22:50.820Z</time>
      </trkpt>
      <trkpt lat="46.83432" lon="6.31788">
        <ele>891.979178</ele>
        <time>2021-04-30T01:23:00.766Z</time>
      </trkpt>
      <trkpt lat="46.8343" lon="6.31782">
        <ele>891.986456</ele>
        <time>2021-04-30T01:23:02.794Z</time>
      </trkpt>
      <trkpt lat="46.83423" lon="6.31777">
        <ele>891.997839</ele>
        <time>2021-04-30T01:23:04.955Z</time>
      </trkpt>
      <trkpt lat="46.83401" lon="6.31758">
        <ele>892.037985</ele>
        <time>2021-04-30T01:23:12.106Z</time>
      </trkpt>
      <trkpt lat="46.83349" lon="6.31687">
        <ele>892.145581</ele>
        <time>2021-04-30T01:23:32.417Z</time>
      </trkpt>
      <trkpt lat="46.83326" lon="6.31665">
        <ele>892.388518</ele>
        <time>2021-04-30T01:23:40.951Z</time>
      </trkpt>
      <trkpt lat="46.8327" lon="6.31592">
        <ele>893.231274</ele>
        <time>2021-04-30T01:24:04.850Z</time>
      </trkpt>
      <trkpt lat="46.83206" lon="6.31526">
        <ele>894.118071</ele>
        <time>2021-04-30T01:24:31.016Z</time>
      </trkpt>
      <trkpt lat="46.83156" lon="6.31456">
        <ele>894.706234</ele>
        <time>2021-04-30T01:24:54.193Z</time>
      </trkpt>
      <trkpt lat="46.83132" lon="6.31432">
        <ele>894.943365</ele>
        <time>2021-04-30T01:25:03.622Z</time>
      </trkpt>
      <trkpt lat="46.83098" lon="6.31404">
        <ele>895.257025</ele>
        <time>2021-04-30T01:25:15.944Z</time>
      </trkpt>
      <trkpt lat="46.83075" lon="6.31379">
        <ele>895.496037</ele>
        <time>2021-04-30T01:25:24.047Z</time>
      </trkpt>
      <trkpt lat="46.83045" lon="6.31346">
        <ele>895.403019</ele>
        <time>2021-04-30T01:25:33.197Z</time>
      </trkpt>
      <trkpt lat="46.83012" lon="6.3131">
        <ele>894.803111</ele>
        <time>2021-04-30T01:25:43.399Z</time>
      </trkpt>
      <trkpt lat="46.82976" lon="6.31276">
        <ele>894.190118</ele>
        <time>2021-04-30T01:25:53.400Z</time>
      </trkpt>
      <trkpt lat="46.82969" lon="6.31275">
        <ele>894.099633</ele>
        <time>2021-04-30T01:25:54.799Z</time>
      </trkpt>
      <trkpt lat="46.82968" lon="6.31283">
        <ele>894.013895</ele>
        <time>2021-04-30T01:25:55.850Z</time>
      </trkpt>
      <trkpt lat="46.82956" lon="6.31316">
        <ele>893.645063</ele>
        <time>2021-04-30T01:26:01.907Z</time>
      </trkpt>
      <trkpt lat="46.82952" lon="6.31329">
        <ele>893.505485</ele>
        <time>2021-04-30T01:26:03.682Z</time>
      </trkpt>
      <trkpt lat="46.82946" lon="6.31327">
        <ele>893.418578</ele>
        <time>2021-04-30T01:26:04.928Z</time>
      </trkpt>
      <trkpt lat="46.82902" lon="6.31271">
        <ele>891.564754</ele>
        <time>2021-04-30T01:26:16.828Z</time>
      </trkpt>
      <trkpt lat="46.82858" lon="6.3122">
        <ele>889.029646</ele>
        <time>2021-04-30T01:26:27.152Z</time>
      </trkpt>
      <trkpt lat="46.82819" lon="6.31173">
        <ele>886.7509</ele>
        <time>2021-04-30T01:26:36.470Z</time>
      </trkpt>
      <trkpt lat="46.82764" lon="6.31105">
        <ele>883.063642</ele>
        <time>2021-04-30T01:26:49.174Z</time>
      </trkpt>
      <trkpt lat="46.82756" lon="6.31097">
        <ele>882.492302</ele>
        <time>2021-04-30T01:26:50.878Z</time>
      </trkpt>
      <trkpt lat="46.82747" lon="6.31107">
        <ele>881.786644</ele>
        <time>2021-04-30T01:26:52.830Z</time>
      </trkpt>
      <trkpt lat="46.82723" lon="6.31124">
        <ele>880.239513</ele>
        <time>2021-04-30T01:26:57.501Z</time>
      </trkpt>
      <trkpt lat="46.8271" lon="6.31125">
        <ele>879.45594</ele>
        <time>2021-04-30T01:26:59.674Z</time>
      </trkpt>
      <trkpt lat="46.82656" lon="6.3108">
        <ele>875.785932</ele>
        <time>2021-04-30T01:27:10.746Z</time>
      </trkpt>
      <trkpt lat="46.82649" lon="6.31076">
        <ele>875.345927</ele>
        <time>2021-04-30T01:27:11.939Z</time>
      </trkpt>
      <trkpt lat="46.82636" lon="6.31063">
        <ele>874.371675</ele>
        <time>2021-04-30T01:27:15.177Z</time>
      </trkpt>
      <trkpt lat="46.826" lon="6.31023">
        <ele>873.406804</ele>
        <time>2021-04-30T01:27:23.416Z</time>
      </trkpt>
      <trkpt lat="46.8259" lon="6.31015">
        <ele>873.16393</ele>
        <time>2021-04-30T01:27:25.498Z</time>
      </trkpt>
      <trkpt lat="46.82544" lon="6.30983">
        <ele>872.078646</ele>
        <time>2021-04-30T01:27:36.484Z</time>
      </trkpt>
      <trkpt lat="46.82466" lon="6.30928">
        <ele>870.539222</ele>
        <time>2021-04-30T01:27:58.476Z</time>
      </trkpt>
      <trkpt lat="46.82445" lon="6.30919">
        <ele>870.551514</ele>
        <time>2021-04-30T01:28:05.036Z</time>
      </trkpt>
      <trkpt lat="46.82395" lon="6.30956">
        <ele>870.583857</ele>
        <time>2021-04-30T01:28:21.629Z</time>
      </trkpt>
      <trkpt lat="46.82361" lon="6.30981">
        <ele>870.605523</ele>
        <time>2021-04-30T01:28:32.569Z</time>
      </trkpt>
      <trkpt lat="46.82294" lon="6.31056">
        <ele>869.891625</ele>
        <time>2021-04-30T01:28:54.046Z</time>
      </trkpt>
      <trkpt lat="46.82238" lon="6.31112">
        <ele>868.439765</ele>
        <time>2021-04-30T01:29:08.140Z</time>
      </trkpt>
      <trkpt lat="46.82224" lon="6.31121">
        <ele>868.110151</ele>
        <time>2021-04-30T01:29:11.123Z</time>
      </trkpt>
      <trkpt lat="46.82216" lon="6.31126">
        <ele>867.912264</ele>
        <time>2021-04-30T01:29:12.954Z</time>
      </trkpt>
      <trkpt lat="46.82186" lon="6.31144">
        <ele>867.213089</ele>
        <time>2021-04-30T01:29:19.302Z</time>
      </trkpt>
      <trkpt lat="46.82114" lon="6.31186">
        <ele>864.884548</ele>
        <time>2021-04-30T01:29:34.390Z</time>
      </trkpt>
      <trkpt lat="46.82093" lon="6.31193">
        <ele>864.198564</ele>
        <time>2021-04-30T01:29:38.349Z</time>
      </trkpt>
      <trkpt lat="46.82052" lon="6.31188">
        <ele>862.836154</ele>
        <time>2021-04-30T01:29:46.240Z</time>
      </trkpt>
      <trkpt lat="46.81953" lon="6.31155">
        <ele>859.962896</ele>
        <time>2021-04-30T01:30:06.393Z</time>
      </trkpt>
      <trkpt lat="46.81939" lon="6.31145">
        <ele>859.648127</ele>
        <time>2021-04-30T01:30:09.590Z</time>
      </trkpt>
      <trkpt lat="46.81877" lon="6.31071">
        <ele>858.010276</ele>
        <time>2021-04-30T01:30:26.633Z</time>
      </trkpt>
      <trkpt lat="46.81829" lon="6.31049">
        <ele>857.065286</ele>
        <time>2021-04-30T01:30:37.724Z</time>
      </trkpt>
      <trkpt lat="46.81793" lon="6.31013">
        <ele>856.73758</ele>
        <time>2021-04-30T01:30:47.869Z</time>
      </trkpt>
      <trkpt lat="46.81768" lon="6.3098">
        <ele>856.489328</ele>
        <time>2021-04-30T01:30:55.755Z</time>
      </trkpt>
      <trkpt lat="46.81758" lon="6.30955">
        <ele>856.342381</ele>
        <time>2021-04-30T01:31:00.524Z</time>
      </trkpt>
      <trkpt lat="46.81742" lon="6.30889">
        <ele>855.98784</ele>
        <time>2021-04-30T01:31:12.338Z</time>
      </trkpt>
      <trkpt lat="46.81721" lon="6.30846">
        <ele>855.774559</ele>
        <time>2021-04-30T01:31:21.626Z</time>
      </trkpt>
      <trkpt lat="46.81622" lon="6.3076">
        <ele>855.771424</ele>
        <time>2021-04-30T01:31:52.169Z</time>
      </trkpt>
      <trkpt lat="46.81567" lon="6.30737">
        <ele>855.769408</ele>
        <time>2021-04-30T01:32:08.457Z</time>
      </trkpt>
      <trkpt lat="46.81528" lon="6.30703">
        <ele>855.614476</ele>
        <time>2021-04-30T01:32:20.505Z</time>
      </trkpt>
      <trkpt lat="46.8146" lon="6.30614">
        <ele>855.302471</ele>
        <time>2021-04-30T01:32:43.115Z</time>
      </trkpt>
      <trkpt lat="46.81391" lon="6.30531">
        <ele>854.932049</ele>
        <time>2021-04-30T01:33:04.735Z</time>
      </trkpt>
      <trkpt lat="46.81367" lon="6.30497">
        <ele>854.771277</ele>
        <time>2021-04-30T01:33:13.058Z</time>
      </trkpt>
      <trkpt lat="46.81342" lon="6.30446">
        <ele>854.561903</ele>
        <time>2021-04-30T01:33:23.499Z</time>
      </trkpt>
      <trkpt lat="46.81333" lon="6.30407">
        <ele>854.423732</ele>
        <time>2021-04-30T01:33:30.387Z</time>
      </trkpt>
      <trkpt lat="46.81329" lon="6.30369">
        <ele>854.298523</ele>
        <time>2021-04-30T01:33:37.131Z</time>
      </trkpt>
      <trkpt lat="46.81329" lon="6.30346">
        <ele>854.289661</ele>
        <time>2021-04-30T01:33:41.131Z</time>
      </trkpt>
      <trkpt lat="46.8133" lon="6.30313">
        <ele>854.29781</ele>
        <time>2021-04-30T01:33:47.446Z</time>
      </trkpt>
      <trkpt lat="46.81326" lon="6.30292">
        <ele>854.303106</ele>
        <time>2021-04-30T01:33:51.421Z</time>
      </trkpt>
      <trkpt lat="46.8132" lon="6.30275">
        <ele>854.307889</ele>
        <time>2021-04-30T01:33:55.190Z</time>
      </trkpt>
      <trkpt lat="46.81314" lon="6.30265">
        <ele>854.311064</ele>
        <time>2021-04-30T01:33:57.589Z</time>
      </trkpt>
      <trkpt lat="46.81302" lon="6.30249">
        <ele>854.316932</ele>
        <time>2021-04-30T01:34:02.024Z</time>
      </trkpt>
      <trkpt lat="46.81297" lon="6.30242">
        <ele>854.319486</ele>
        <time>2021-04-30T01:34:04.080Z</time>
      </trkpt>
      <trkpt lat="46.81275" lon="6.30215">
        <ele>854.329618</ele>
        <time>2021-04-30T01:34:11.980Z</time>
      </trkpt>
      <trkpt lat="46.81256" lon="6.30193">
        <ele>854.33824</ele>
        <time>2021-04-30T01:34:18.860Z</time>
      </trkpt>
      <trkpt lat="46.81248" lon="6.30182">
        <ele>854.342302</ele>
        <time>2021-04-30T01:34:21.831Z</time>
      </trkpt>
      <trkpt lat="46.81208" lon="6.30145">
        <ele>854.243049</ele>
        <time>2021-04-30T01:34:34.133Z</time>
      </trkpt>
      <trkpt lat="46.81189" lon="6.30128">
        <ele>854.155919</ele>
        <time>2021-04-30T01:34:39.757Z</time>
      </trkpt>
      <trkpt lat="46.8117" lon="6.30111">
        <ele>854.069504</ele>
        <time>2021-04-30T01:34:45.373Z</time>
      </trkpt>
      <trkpt lat="46.81111" lon="6.30057">
        <ele>853.795675</ele>
        <time>2021-04-30T01:35:02.790Z</time>
      </trkpt>
      <trkpt lat="46.81097" lon="6.30044">
        <ele>853.729088</ele>
        <time>2021-04-30T01:35:06.973Z</time>
      </trkpt>
      <trkpt lat="46.81075" lon="6.30025">
        <ele>853.617718</ele>
        <time>2021-04-30T01:35:12.952Z</time>
      </trkpt>
      <trkpt lat="46.80855" lon="6.29824">
        <ele>852.001474</ele>
        <time>2021-04-30T01:36:14.264Z</time>
      </trkpt>
      <trkpt lat="46.80483" lon="6.2942">
        <ele>851.315972</ele>
        <time>2021-04-30T01:38:16.915Z</time>
      </trkpt>
      <trkpt lat="46.8046" lon="6.29383">
        <ele>851.44506</ele>
        <time>2021-04-30T01:38:26.267Z</time>
      </trkpt>
      <trkpt lat="46.80332" lon="6.29115">
        <ele>852.392391</ele>
        <time>2021-04-30T01:39:31.319Z</time>
      </trkpt>
      <trkpt lat="46.80312" lon="6.29079">
        <ele>852.546171</ele>
        <time>2021-04-30T01:39:40.968Z</time>
      </trkpt>
      <trkpt lat="46.80282" lon="6.29047">
        <ele>852.725843</ele>
        <time>2021-04-30T01:39:51.152Z</time>
      </trkpt>
      <trkpt lat="46.80175" lon="6.28973">
        <ele>853.31928</ele>
        <time>2021-04-30T01:40:25.628Z</time>
      </trkpt>
      <trkpt lat="46.80156" lon="6.28961">
        <ele>853.420642</ele>
        <time>2021-04-30T01:40:31.839Z</time>
      </trkpt>
      <trkpt lat="46.80141" lon="6.28951">
        <ele>853.506897</ele>
        <time>2021-04-30T01:40:37.007Z</time>
      </trkpt>
      <trkpt lat="46.80115" lon="6.28935">
        <ele>853.647297</ele>
        <time>2021-04-30T01:40:45.545Z</time>
      </trkpt>
      <trkpt lat="46.80091" lon="6.28919">
        <ele>853.765526</ele>
        <time>2021-04-30T01:40:53.100Z</time>
      </trkpt>
      <trkpt lat="46.80046" lon="6.28891">
        <ele>853.860424</ele>
        <time>2021-04-30T01:41:06.227Z</time>
      </trkpt>
      <trkpt lat="46.79979" lon="6.28859">
        <ele>853.996377</ele>
        <time>2021-04-30T01:41:25.584Z</time>
      </trkpt>
      <trkpt lat="46.79902" lon="6.28843">
        <ele>854.198617</ele>
        <time>2021-04-30T01:41:46.698Z</time>
      </trkpt>
      <trkpt lat="46.7975" lon="6.28795">
        <ele>854.872643</ele>
        <time>2021-04-30T01:42:31.008Z</time>
      </trkpt>
      <trkpt lat="46.79728" lon="6.28779">
        <ele>854.939275</ele>
        <time>2021-04-30T01:42:39.312Z</time>
      </trkpt>
      <trkpt lat="46.79683" lon="6.28726">
        <ele>855.09256</ele>
        <time>2021-04-30T01:42:56.804Z</time>
      </trkpt>
      <trkpt lat="46.79633" lon="6.28704">
        <ele>855.229139</ele>
        <time>2021-04-30T01:43:11.346Z</time>
      </trkpt>
      <trkpt lat="46.79607" lon="6.28704">
        <ele>855.299145</ele>
        <time>2021-04-30T01:43:18.751Z</time>
      </trkpt>
      <trkpt lat="46.7958" lon="6.28708">
        <ele>855.287357</ele>
        <time>2021-04-30T01:43:25.212Z</time>
      </trkpt>
      <trkpt lat="46.7949" lon="6.28731">
        <ele>854.184134</ele>
        <time>2021-04-30T01:43:46.291Z</time>
      </trkpt>
      <trkpt lat="46.79387" lon="6.28695">
        <ele>852.977958</ele>
        <time>2021-04-30T01:44:08.992Z</time>
      </trkpt>
      <trkpt lat="46.79302" lon="6.28641">
        <ele>852.195558</ele>
        <time>2021-04-30T01:44:30.984Z</time>
      </trkpt>
      <trkpt lat="46.79286" lon="6.2863">
        <ele>852.046455</ele>
        <time>2021-04-30T01:44:35.088Z</time>
      </trkpt>
      <trkpt lat="46.79272" lon="6.2862">
        <ele>851.921826</ele>
        <time>2021-04-30T01:44:39.015Z</time>
      </trkpt>
      <trkpt lat="46.79248" lon="6.28593">
        <ele>851.663742</ele>
        <time>2021-04-30T01:44:46.640Z</time>
      </trkpt>
      <trkpt lat="46.7924" lon="6.28582">
        <ele>851.648712</ele>
        <time>2021-04-30T01:44:49.761Z</time>
      </trkpt>
      <trkpt lat="46.79222" lon="6.28555">
        <ele>851.627771</ele>
        <time>2021-04-30T01:44:56.300Z</time>
      </trkpt>
      <trkpt lat="46.7909" lon="6.28356">
        <ele>851.545221</ele>
        <time>2021-04-30T01:45:46.872Z</time>
      </trkpt>
      <trkpt lat="46.79065" lon="6.28299">
        <ele>851.579663</ele>
        <time>2021-04-30T01:45:59.591Z</time>
      </trkpt>
      <trkpt lat="46.78972" lon="6.28043">
        <ele>851.594286</ele>
        <time>2021-04-30T01:46:53.451Z</time>
      </trkpt>
      <trkpt lat="46.78969" lon="6.28037">
        <ele>851.592172</ele>
        <time>2021-04-30T01:46:54.796Z</time>
      </trkpt>
      <trkpt lat="46.78949" lon="6.27996">
        <ele>851.576645</ele>
        <time>2021-04-30T01:47:03.751Z</time>
      </trkpt>
      <trkpt lat="46.78892" lon="6.27912">
        <ele>851.566972</ele>
        <time>2021-04-30T01:47:24.168Z</time>
      </trkpt>
      <trkpt lat="46.78822" lon="6.27812">
        <ele>851.573721</ele>
        <time>2021-04-30T01:47:49.952Z</time>
      </trkpt>
      <trkpt lat="46.78806" lon="6.27781">
        <ele>851.575508</ele>
        <time>2021-04-30T01:47:57.593Z</time>
      </trkpt>
      <trkpt lat="46.78802" lon="6.27773">
        <ele>851.611389</ele>
        <time>2021-04-30T01:47:59.480Z</time>
      </trkpt>
      <trkpt lat="46.78801" lon="6.27765">
        <ele>851.689282</ele>
        <time>2021-04-30T01:48:01.076Z</time>
      </trkpt>
      <trkpt lat="46.78808" lon="6.2775">
        <ele>851.864556</ele>
        <time>2021-04-30T01:48:05.029Z</time>
      </trkpt>
      <trkpt lat="46.78816" lon="6.27732">
        <ele>852.065722</ele>
        <time>2021-04-30T01:48:09.565Z</time>
      </trkpt>
      <trkpt lat="46.78829" lon="6.27689">
        <ele>852.501785</ele>
        <time>2021-04-30T01:48:19.598Z</time>
      </trkpt>
      <trkpt lat="46.78835" lon="6.2767">
        <ele>852.700357</ele>
        <time>2021-04-30T01:48:24.182Z</time>
      </trkpt>
      <trkpt lat="46.78845" lon="6.27638">
        <ele>853.027602</ele>
        <time>2021-04-30T01:48:32.193Z</time>
      </trkpt>
      <trkpt lat="46.78852" lon="6.27617">
        <ele>853.249797</ele>
        <time>2021-04-30T01:48:37.515Z</time>
      </trkpt>
      <trkpt lat="46.78857" lon="6.27603">
        <ele>853.396956</ele>
        <time>2021-04-30T01:48:41.458Z</time>
      </trkpt>
      <trkpt lat="46.78968" lon="6.27286">
        <ele>859.72017</ele>
        <time>2021-04-30T01:50:13.891Z</time>
      </trkpt>
      <trkpt lat="46.78972" lon="6.27277">
        <ele>860.287511</ele>
        <time>2021-04-30T01:50:17.834Z</time>
      </trkpt>
      <trkpt lat="46.78979" lon="6.27262">
        <ele>861.234161</ele>
        <time>2021-04-30T01:50:22.531Z</time>
      </trkpt>
      <trkpt lat="46.79008" lon="6.27218">
        <ele>864.41469</ele>
        <time>2021-04-30T01:50:41.631Z</time>
      </trkpt>
      <trkpt lat="46.79015" lon="6.27212">
        <ele>865.035692</ele>
        <time>2021-04-30T01:50:44.742Z</time>
      </trkpt>
      <trkpt lat="46.79009" lon="6.27193">
        <ele>866.104757</ele>
        <time>2021-04-30T01:50:56.742Z</time>
      </trkpt>
      <trkpt lat="46.79007" lon="6.2718">
        <ele>866.764674</ele>
        <time>2021-04-30T01:51:05.216Z</time>
      </trkpt>
      <trkpt lat="46.79006" lon="6.27161">
        <ele>867.77986</ele>
        <time>2021-04-30T01:51:10.953Z</time>
      </trkpt>
      <trkpt lat="46.79006" lon="6.27156">
        <ele>868.053226</ele>
        <time>2021-04-30T01:51:12.702Z</time>
      </trkpt>
      <trkpt lat="46.79005" lon="6.2715">
        <ele>868.357923</ele>
        <time>2021-04-30T01:51:14.869Z</time>
      </trkpt>
      <trkpt lat="46.79006" lon="6.27144">
        <ele>868.657397</ele>
        <time>2021-04-30T01:51:18.588Z</time>
      </trkpt>
      <trkpt lat="46.79013" lon="6.27121">
        <ele>870.009216</ele>
        <time>2021-04-30T01:51:35.421Z</time>
      </trkpt>
      <trkpt lat="46.79051" lon="6.27073">
        <ele>875.865968</ele>
        <time>2021-04-30T01:52:18.700Z</time>
      </trkpt>
      <trkpt lat="46.79053" lon="6.27069">
        <ele>876.385263</ele>
        <time>2021-04-30T01:52:21.976Z</time>
      </trkpt>
      <trkpt lat="46.79054" lon="6.27065">
        <ele>876.855332</ele>
        <time>2021-04-30T01:52:25.983Z</time>
      </trkpt>
      <trkpt lat="46.79052" lon="6.27017">
        <ele>882.423339</ele>
        <time>2021-04-30T01:52:57.884Z</time>
      </trkpt>
      <trkpt lat="46.79052" lon="6.27013">
        <ele>882.787104</ele>
        <time>2021-04-30T01:53:01.012Z</time>
      </trkpt>
      <trkpt lat="46.79051" lon="6.27009">
        <ele>883.280826</ele>
        <time>2021-04-30T01:53:05.392Z</time>
      </trkpt>
      <trkpt lat="46.7904" lon="6.26984">
        <ele>886.674537</ele>
        <time>2021-04-30T01:53:23.795Z</time>
      </trkpt>
      <trkpt lat="46.78996" lon="6.26932">
        <ele>896.169933</ele>
        <time>2021-04-30T01:54:31.341Z</time>
      </trkpt>
      <trkpt lat="46.78986" lon="6.26912">
        <ele>898.969244</ele>
        <time>2021-04-30T01:54:49.123Z</time>
      </trkpt>
      <trkpt lat="46.7898" lon="6.26894">
        <ele>901.3216</ele>
        <time>2021-04-30T01:55:08.545Z</time>
      </trkpt>
      <trkpt lat="46.78962" lon="6.26843">
        <ele>906.296263</ele>
        <time>2021-04-30T01:55:50.772Z</time>
      </trkpt>
      <trkpt lat="46.78955" lon="6.26827">
        <ele>907.955133</ele>
        <time>2021-04-30T01:56:05.445Z</time>
      </trkpt>
      <trkpt lat="46.78937" lon="6.26786">
        <ele>912.042493</ele>
        <time>2021-04-30T01:56:35.370Z</time>
      </trkpt>
      <trkpt lat="46.78896" lon="6.26701">
        <ele>920.720644</ele>
        <time>2021-04-30T01:57:33.715Z</time>
      </trkpt>
      <trkpt lat="46.78843" lon="6.2657">
        <ele>926.803146</ele>
        <time>2021-04-30T01:58:30.930Z</time>
      </trkpt>
      <trkpt lat="46.78645" lon="6.25953">
        <ele>940.876331</ele>
        <time>2021-04-30T02:01:37.704Z</time>
      </trkpt>
      <trkpt lat="46.78595" lon="6.25838">
        <ele>942.929303</ele>
        <time>2021-04-30T02:02:14.557Z</time>
      </trkpt>
      <trkpt lat="46.78565" lon="6.25793">
        <ele>943.872374</ele>
        <time>2021-04-30T02:02:30.884Z</time>
      </trkpt>
      <trkpt lat="46.78525" lon="6.25736">
        <ele>944.97323</ele>
        <time>2021-04-30T02:02:51.580Z</time>
      </trkpt>
      <trkpt lat="46.78497" lon="6.25696">
        <ele>945.490435</ele>
        <time>2021-04-30T02:03:05.338Z</time>
      </trkpt>
      <trkpt lat="46.78462" lon="6.2565">
        <ele>946.115044</ele>
        <time>2021-04-30T02:03:21.485Z</time>
      </trkpt>
      <trkpt lat="46.78431" lon="6.25595">
        <ele>946.775435</ele>
        <time>2021-04-30T02:03:38.118Z</time>
      </trkpt>
      <trkpt lat="46.78398" lon="6.25568">
        <ele>947.241333</ele>
        <time>2021-04-30T02:03:50.026Z</time>
      </trkpt>
      <trkpt lat="46.78289" lon="6.25426">
        <ele>948.470235</ele>
        <time>2021-04-30T02:04:35.452Z</time>
      </trkpt>
      <trkpt lat="46.78217" lon="6.25361">
        <ele>949.739861</ele>
        <time>2021-04-30T02:05:03.965Z</time>
      </trkpt>
      <trkpt lat="46.78052" lon="6.25281">
        <ele>953.100783</ele>
        <time>2021-04-30T02:06:09.746Z</time>
      </trkpt>
      <trkpt lat="46.78029" lon="6.25279">
        <ele>953.623619</ele>
        <time>2021-04-30T02:06:19.847Z</time>
      </trkpt>
      <trkpt lat="46.77977" lon="6.25288">
        <ele>954.810959</ele>
        <time>2021-04-30T02:06:41.008Z</time>
      </trkpt>
      <trkpt lat="46.77936" lon="6.25301">
        <ele>955.767376</ele>
        <time>2021-04-30T02:06:57.126Z</time>
      </trkpt>
      <trkpt lat="46.77923" lon="6.25308">
        <ele>955.98733</ele>
        <time>2021-04-30T02:07:02.126Z</time>
      </trkpt>
      <trkpt lat="46.77902" lon="6.25318">
        <ele>956.034601</ele>
        <time>2021-04-30T02:07:09.764Z</time>
      </trkpt>
      <trkpt lat="46.77878" lon="6.25325">
        <ele>956.088038</ele>
        <time>2021-04-30T02:07:18.014Z</time>
      </trkpt>
      <trkpt lat="46.77812" lon="6.25323">
        <ele>956.229244</ele>
        <time>2021-04-30T02:07:37.991Z</time>
      </trkpt>
      <trkpt lat="46.77774" lon="6.25302">
        <ele>956.316819</ele>
        <time>2021-04-30T02:07:48.438Z</time>
      </trkpt>
      <trkpt lat="46.77719" lon="6.25202">
        <ele>954.325026</ele>
        <time>2021-04-30T02:08:08.145Z</time>
      </trkpt>
      <trkpt lat="46.77597" lon="6.25068">
        <ele>948.294521</ele>
        <time>2021-04-30T02:08:38.525Z</time>
      </trkpt>
      <trkpt lat="46.77586" lon="6.25054">
        <ele>947.414919</ele>
        <time>2021-04-30T02:08:41.268Z</time>
      </trkpt>
      <trkpt lat="46.77568" lon="6.25023">
        <ele>945.632393</ele>
        <time>2021-04-30T02:08:46.381Z</time>
      </trkpt>
      <trkpt lat="46.7756" lon="6.25007">
        <ele>944.789747</ele>
        <time>2021-04-30T02:08:48.874Z</time>
      </trkpt>
      <trkpt lat="46.77556" lon="6.25">
        <ele>944.381055</ele>
        <time>2021-04-30T02:08:49.931Z</time>
      </trkpt>
      <trkpt lat="46.77549" lon="6.24978">
        <ele>943.330221</ele>
        <time>2021-04-30T02:08:53.055Z</time>
      </trkpt>
      <trkpt lat="46.77536" lon="6.24902">
        <ele>939.952425</ele>
        <time>2021-04-30T02:09:02.483Z</time>
      </trkpt>
      <trkpt lat="46.77496" lon="6.24762">
        <ele>932.856199</ele>
        <time>2021-04-30T02:09:20.908Z</time>
      </trkpt>
      <trkpt lat="46.77267" lon="6.24304">
        <ele>911.730073</ele>
        <time>2021-04-30T02:10:33.705Z</time>
      </trkpt>
      <trkpt lat="46.77187" lon="6.24206">
        <ele>908.703653</ele>
        <time>2021-04-30T02:10:56.318Z</time>
      </trkpt>
      <trkpt lat="46.77132" lon="6.24134">
        <ele>907.902143</ele>
        <time>2021-04-30T02:11:15.085Z</time>
      </trkpt>
      <trkpt lat="46.77112" lon="6.24124">
        <ele>907.680453</ele>
        <time>2021-04-30T02:11:20.327Z</time>
      </trkpt>
      <trkpt lat="46.77043" lon="6.24113">
        <ele>907.518009</ele>
        <time>2021-04-30T02:11:39.016Z</time>
      </trkpt>
      <trkpt lat="46.77012" lon="6.24112">
        <ele>907.743793</ele>
        <time>2021-04-30T02:11:48.148Z</time>
      </trkpt>
      <trkpt lat="46.76991" lon="6.24095">
        <ele>907.920453</ele>
        <time>2021-04-30T02:11:55.821Z</time>
      </trkpt>
      <trkpt lat="46.76984" lon="6.24078">
        <ele>908.020603</ele>
        <time>2021-04-30T02:11:59.669Z</time>
      </trkpt>
      <trkpt lat="46.76964" lon="6.24048">
        <ele>908.228252</ele>
        <time>2021-04-30T02:12:09.031Z</time>
      </trkpt>
      <trkpt lat="46.76961" lon="6.24045">
        <ele>908.254082</ele>
        <time>2021-04-30T02:12:10.070Z</time>
      </trkpt>
      <trkpt lat="46.76939" lon="6.24015">
        <ele>908.471181</ele>
        <time>2021-04-30T02:12:20.489Z</time>
      </trkpt>
      <trkpt lat="46.7693" lon="6.24005">
        <ele>908.557627</ele>
        <time>2021-04-30T02:12:24.119Z</time>
      </trkpt>
      <trkpt lat="46.76918" lon="6.23992">
        <ele>908.866146</ele>
        <time>2021-04-30T02:12:29.823Z</time>
      </trkpt>
      <trkpt lat="46.76905" lon="6.23973">
        <ele>909.389788</ele>
        <time>2021-04-30T02:12:36.719Z</time>
      </trkpt>
      <trkpt lat="46.76892" lon="6.23955">
        <ele>909.895201</ele>
        <time>2021-04-30T02:12:43.673Z</time>
      </trkpt>
      <trkpt lat="46.76874" lon="6.23968">
        <ele>910.449789</ele>
        <time>2021-04-30T02:12:51.059Z</time>
      </trkpt>
      <trkpt lat="46.76869" lon="6.23953">
        <ele>910.782408</ele>
        <time>2021-04-30T02:12:55.961Z</time>
      </trkpt>
      <trkpt lat="46.76828" lon="6.23954">
        <ele>911.932365</ele>
        <time>2021-04-30T02:13:13.128Z</time>
      </trkpt>
      <trkpt lat="46.76825" lon="6.23954">
        <ele>912.020021</ele>
        <time>2021-04-30T02:13:14.647Z</time>
      </trkpt>
      <trkpt lat="46.76805" lon="6.23951">
        <ele>912.58178</ele>
        <time>2021-04-30T02:13:22.899Z</time>
      </trkpt>
      <trkpt lat="46.76788" lon="6.23945">
        <ele>913.093844</ele>
        <time>2021-04-30T02:13:30.928Z</time>
      </trkpt>
      <trkpt lat="46.76777" lon="6.23934">
        <ele>913.464047</ele>
        <time>2021-04-30T02:13:36.312Z</time>
      </trkpt>
      <trkpt lat="46.76709" lon="6.23839">
        <ele>916.748544</ele>
        <time>2021-04-30T02:14:18.998Z</time>
      </trkpt>
      <trkpt lat="46.76685" lon="6.2381">
        <ele>917.851996</ele>
        <time>2021-04-30T02:14:32.635Z</time>
      </trkpt>
      <trkpt lat="46.76666" lon="6.23801">
        <ele>918.573042</ele>
        <time>2021-04-30T02:14:41.710Z</time>
      </trkpt>
      <trkpt lat="46.76675" lon="6.2377">
        <ele>919.380959</ele>
        <time>2021-04-30T02:14:51.994Z</time>
      </trkpt>
      <trkpt lat="46.7664" lon="6.2372">
        <ele>920.880842</ele>
        <time>2021-04-30T02:15:12.653Z</time>
      </trkpt>
      <trkpt lat="46.76409" lon="6.2326">
        <ele>929.985486</ele>
        <time>2021-04-30T02:17:50.711Z</time>
      </trkpt>
      <trkpt lat="46.7634" lon="6.23049">
        <ele>929.965224</ele>
        <time>2021-04-30T02:18:32.129Z</time>
      </trkpt>
      <trkpt lat="46.76309" lon="6.22875">
        <ele>927.851282</ele>
        <time>2021-04-30T02:18:59.207Z</time>
      </trkpt>
      <trkpt lat="46.76284" lon="6.22809">
        <ele>927.04667</ele>
        <time>2021-04-30T02:19:10.313Z</time>
      </trkpt>
      <trkpt lat="46.7623" lon="6.22634">
        <ele>925.062196</ele>
        <time>2021-04-30T02:19:40.946Z</time>
      </trkpt>
      <trkpt lat="46.7621" lon="6.22603">
        <ele>924.734434</ele>
        <time>2021-04-30T02:19:48.330Z</time>
      </trkpt>
      <trkpt lat="46.76167" lon="6.22574">
        <ele>924.331535</ele>
        <time>2021-04-30T02:20:00.569Z</time>
      </trkpt>
      <trkpt lat="46.76088" lon="6.22499">
        <ele>923.539425</ele>
        <time>2021-04-30T02:20:24.219Z</time>
      </trkpt>
      <trkpt lat="46.76048" lon="6.22485">
        <ele>922.992303</ele>
        <time>2021-04-30T02:20:34.182Z</time>
      </trkpt>
      <trkpt lat="46.76026" lon="6.22457">
        <ele>922.455227</ele>
        <time>2021-04-30T02:20:40.848Z</time>
      </trkpt>
      <trkpt lat="46.76005" lon="6.22442">
        <ele>922.02387</ele>
        <time>2021-04-30T02:20:46.038Z</time>
      </trkpt>
      <trkpt lat="46.75975" lon="6.22443">
        <ele>921.467746</ele>
        <time>2021-04-30T02:20:52.670Z</time>
      </trkpt>
      <trkpt lat="46.75917" lon="6.22403">
        <ele>920.279382</ele>
        <time>2021-04-30T02:21:06.599Z</time>
      </trkpt>
      <trkpt lat="46.75871" lon="6.22354">
        <ele>919.330462</ele>
        <time>2021-04-30T02:21:18.972Z</time>
      </trkpt>
      <trkpt lat="46.75832" lon="6.22273">
        <ele>918.233012</ele>
        <time>2021-04-30T02:21:34.381Z</time>
      </trkpt>
      <trkpt lat="46.75792" lon="6.2223">
        <ele>917.435739</ele>
        <time>2021-04-30T02:21:45.963Z</time>
      </trkpt>
      <trkpt lat="46.75745" lon="6.22164">
        <ele>917.107957</ele>
        <time>2021-04-30T02:22:02.215Z</time>
      </trkpt>
      <trkpt lat="46.75674" lon="6.22021">
        <ele>917.041875</ele>
        <time>2021-04-30T02:22:36.643Z</time>
      </trkpt>
      <trkpt lat="46.75665" lon="6.22012">
        <ele>917.035831</ele>
        <time>2021-04-30T02:22:40.146Z</time>
      </trkpt>
      <trkpt lat="46.7565" lon="6.21981">
        <ele>917.4048</ele>
        <time>2021-04-30T02:22:47.853Z</time>
      </trkpt>
      <trkpt lat="46.75649" lon="6.21978">
        <ele>917.444385</ele>
        <time>2021-04-30T02:22:48.771Z</time>
      </trkpt>
      <trkpt lat="46.75626" lon="6.21947">
        <ele>917.919983</ele>
        <time>2021-04-30T02:22:58.642Z</time>
      </trkpt>
      <trkpt lat="46.75603" lon="6.21928">
        <ele>918.322973</ele>
        <time>2021-04-30T02:23:07.555Z</time>
      </trkpt>
      <trkpt lat="46.75578" lon="6.21888">
        <ele>918.884936</ele>
        <time>2021-04-30T02:23:20.561Z</time>
      </trkpt>
      <trkpt lat="46.75553" lon="6.21821">
        <ele>919.67286</ele>
        <time>2021-04-30T02:23:39.937Z</time>
      </trkpt>
      <trkpt lat="46.75521" lon="6.21749">
        <ele>920.913736</ele>
        <time>2021-04-30T02:24:01.990Z</time>
      </trkpt>
      <trkpt lat="46.75497" lon="6.21694">
        <ele>921.887118</ele>
        <time>2021-04-30T02:24:19.035Z</time>
      </trkpt>
      <trkpt lat="46.75472" lon="6.21649">
        <ele>922.745228</ele>
        <time>2021-04-30T02:24:33.638Z</time>
      </trkpt>
      <trkpt lat="46.7546" lon="6.21627">
        <ele>923.162134</ele>
        <time>2021-04-30T02:24:40.445Z</time>
      </trkpt>
      <trkpt lat="46.75398" lon="6.21513">
        <ele>925.28031</ele>
        <time>2021-04-30T02:25:17.287Z</time>
      </trkpt>
      <trkpt lat="46.75378" lon="6.21449">
        <ele>926.302044</ele>
        <time>2021-04-30T02:25:34.611Z</time>
      </trkpt>
      <trkpt lat="46.75337" lon="6.21321">
        <ele>928.489821</ele>
        <time>2021-04-30T02:26:11.021Z</time>
      </trkpt>
      <trkpt lat="46.75296" lon="6.21188">
        <ele>930.924757</ele>
        <time>2021-04-30T02:26:49.532Z</time>
      </trkpt>
      <trkpt lat="46.75272" lon="6.21055">
        <ele>933.616758</ele>
        <time>2021-04-30T02:27:26.752Z</time>
      </trkpt>
      <trkpt lat="46.7526" lon="6.20964">
        <ele>935.636846</ele>
        <time>2021-04-30T02:27:52.983Z</time>
      </trkpt>
      <trkpt lat="46.75231" lon="6.20819">
        <ele>939.270622</ele>
        <time>2021-04-30T02:28:38.931Z</time>
      </trkpt>
      <trkpt lat="46.75188" lon="6.20713">
        <ele>942.623997</ele>
        <time>2021-04-30T02:29:18.028Z</time>
      </trkpt>
      <trkpt lat="46.75157" lon="6.20645">
        <ele>944.856776</ele>
        <time>2021-04-30T02:29:44.350Z</time>
      </trkpt>
      <trkpt lat="46.75069" lon="6.20469">
        <ele>950.732923</ele>
        <time>2021-04-30T02:30:53.603Z</time>
      </trkpt>
      <trkpt lat="46.75033" lon="6.20367">
        <ele>953.416282</ele>
        <time>2021-04-30T02:31:27.203Z</time>
      </trkpt>
      <trkpt lat="46.75009" lon="6.20304">
        <ele>954.966454</ele>
        <time>2021-04-30T02:31:47.754Z</time>
      </trkpt>
      <trkpt lat="46.74964" lon="6.20232">
        <ele>957.052039</ele>
        <time>2021-04-30T02:32:15.329Z</time>
      </trkpt>
      <trkpt lat="46.74931" lon="6.20162">
        <ele>958.827731</ele>
        <time>2021-04-30T02:32:38.671Z</time>
      </trkpt>
      <trkpt lat="46.74895" lon="6.2009">
        <ele>960.689842</ele>
        <time>2021-04-30T02:33:03.365Z</time>
      </trkpt>
      <trkpt lat="46.74882" lon="6.20054">
        <ele>961.529027</ele>
        <time>2021-04-30T02:33:14.793Z</time>
      </trkpt>
      <trkpt lat="46.74854" lon="6.19928">
        <ele>964.660473</ele>
        <time>2021-04-30T02:33:53.717Z</time>
      </trkpt>
      <trkpt lat="46.74787" lon="6.19717">
        <ele>970.984354</ele>
        <time>2021-04-30T02:35:06.431Z</time>
      </trkpt>
      <trkpt lat="46.74771" lon="6.19593">
        <ele>975.04303</ele>
        <time>2021-04-30T02:35:50.225Z</time>
      </trkpt>
      <trkpt lat="46.74738" lon="6.19499">
        <ele>978.444121</ele>
        <time>2021-04-30T02:36:26.263Z</time>
      </trkpt>
      <trkpt lat="46.74723" lon="6.19481">
        <ele>979.419439</ele>
        <time>2021-04-30T02:36:35.882Z</time>
      </trkpt>
      <trkpt lat="46.74701" lon="6.19454">
        <ele>980.930996</ele>
        <time>2021-04-30T02:36:50.850Z</time>
      </trkpt>
      <trkpt lat="46.74663" lon="6.19378">
        <ele>984.23047</ele>
        <time>2021-04-30T02:37:23.961Z</time>
      </trkpt>
      <trkpt lat="46.74613" lon="6.19337">
        <ele>987.165636</ele>
        <time>2021-04-30T02:37:54.447Z</time>
      </trkpt>
      <trkpt lat="46.7459" lon="6.19309">
        <ele>988.574932</ele>
        <time>2021-04-30T02:38:09.649Z</time>
      </trkpt>
      <trkpt lat="46.74535" lon="6.19203">
        <ele>992.832639</ele>
        <time>2021-04-30T02:38:55.722Z</time>
      </trkpt>
      <trkpt lat="46.74523" lon="6.1919">
        <ele>993.542381</ele>
        <time>2021-04-30T02:39:03.436Z</time>
      </trkpt>
      <trkpt lat="46.74464" lon="6.19182">
        <ele>996.136326</ele>
        <time>2021-04-30T02:39:32.393Z</time>
      </trkpt>
      <trkpt lat="46.74446" lon="6.19173">
        <ele>996.69768</ele>
        <time>2021-04-30T02:39:41.554Z</time>
      </trkpt>
      <trkpt lat="46.74419" lon="6.1914">
        <ele>997.687464</ele>
        <time>2021-04-30T02:39:56.967Z</time>
      </trkpt>
      <trkpt lat="46.74355" lon="6.18996">
        <ele>1000.999198</ele>
        <time>2021-04-30T02:40:42.861Z</time>
      </trkpt>
      <trkpt lat="46.74322" lon="6.18955">
        <ele>1001.841635</ele>
        <time>2021-04-30T02:40:58.255Z</time>
      </trkpt>
      <trkpt lat="46.74313" lon="6.18951">
        <ele>1002.022491</ele>
        <time>2021-04-30T02:41:01.594Z</time>
      </trkpt>
      <trkpt lat="46.74306" lon="6.18952">
        <ele>1002.146176</ele>
        <time>2021-04-30T02:41:03.787Z</time>
      </trkpt>
      <trkpt lat="46.74295" lon="6.1894">
        <ele>1002.404512</ele>
        <time>2021-04-30T02:41:08.530Z</time>
      </trkpt>
      <trkpt lat="46.74207" lon="6.18857">
        <ele>1004.436043</ele>
        <time>2021-04-30T02:41:45.927Z</time>
      </trkpt>
      <trkpt lat="46.74164" lon="6.18821">
        <ele>1006.215238</ele>
        <time>2021-04-30T02:42:04.910Z</time>
      </trkpt>
      <trkpt lat="46.74134" lon="6.18802">
        <ele>1007.40325</ele>
        <time>2021-04-30T02:42:18.362Z</time>
      </trkpt>
      <trkpt lat="46.74105" lon="6.18792">
        <ele>1008.486156</ele>
        <time>2021-04-30T02:42:31.467Z</time>
      </trkpt>
      <trkpt lat="46.74032" lon="6.18786">
        <ele>1011.249923</ele>
        <time>2021-04-30T02:43:07.254Z</time>
      </trkpt>
      <trkpt lat="46.73989" lon="6.18769">
        <ele>1014.06713</ele>
        <time>2021-04-30T02:43:31.518Z</time>
      </trkpt>
      <trkpt lat="46.73919" lon="6.1877">
        <ele>1018.442618</ele>
        <time>2021-04-30T02:44:11.628Z</time>
      </trkpt>
      <trkpt lat="46.73843" lon="6.18762">
        <ele>1023.096277</ele>
        <time>2021-04-30T02:44:57.901Z</time>
      </trkpt>
      <trkpt lat="46.73824" lon="6.18754">
        <ele>1024.191225</ele>
        <time>2021-04-30T02:45:10.475Z</time>
      </trkpt>
      <trkpt lat="46.7373" lon="6.18683">
        <ele>1030.025902</ele>
        <time>2021-04-30T02:46:09.334Z</time>
      </trkpt>
      <trkpt lat="46.73695" lon="6.18668">
        <ele>1032.024103</ele>
        <time>2021-04-30T02:46:26.296Z</time>
      </trkpt>
      <trkpt lat="46.73584" lon="6.18678">
        <ele>1033.335205</ele>
        <time>2021-04-30T02:47:05.996Z</time>
      </trkpt>
      <trkpt lat="46.73538" lon="6.1866">
        <ele>1033.861306</ele>
        <time>2021-04-30T02:47:18.390Z</time>
      </trkpt>
      <trkpt lat="46.73514" lon="6.18635">
        <ele>1033.968803</ele>
        <time>2021-04-30T02:47:25.038Z</time>
      </trkpt>
      <trkpt lat="46.73426" lon="6.18539">
        <ele>1031.319332</ele>
        <time>2021-04-30T02:47:47.941Z</time>
      </trkpt>
      <trkpt lat="46.73345" lon="6.18461">
        <ele>1029.263396</ele>
        <time>2021-04-30T02:48:06.582Z</time>
      </trkpt>
      <trkpt lat="46.73374" lon="6.18315">
        <ele>1027.61005</ele>
        <time>2021-04-30T02:48:31.216Z</time>
      </trkpt>
      <trkpt lat="46.73376" lon="6.18299">
        <ele>1027.431345</ele>
        <time>2021-04-30T02:48:34.372Z</time>
      </trkpt>
      <trkpt lat="46.73371" lon="6.18282">
        <ele>1027.236363</ele>
        <time>2021-04-30T02:48:37.051Z</time>
      </trkpt>
      <trkpt lat="46.73356" lon="6.18266">
        <ele>1026.943893</ele>
        <time>2021-04-30T02:48:42.759Z</time>
      </trkpt>
      <trkpt lat="46.73332" lon="6.18238">
        <ele>1026.723433</ele>
        <time>2021-04-30T02:48:50.671Z</time>
      </trkpt>
      <trkpt lat="46.73309" lon="6.18209">
        <ele>1026.507343</ele>
        <time>2021-04-30T02:48:58.460Z</time>
      </trkpt>
      <trkpt lat="46.73284" lon="6.18172">
        <ele>1026.249571</ele>
        <time>2021-04-30T02:49:07.781Z</time>
      </trkpt>
      <trkpt lat="46.73258" lon="6.18118">
        <ele>1025.920213</ele>
        <time>2021-04-30T02:49:20.030Z</time>
      </trkpt>
      <trkpt lat="46.73229" lon="6.1808">
        <ele>1025.579045</ele>
        <time>2021-04-30T02:49:30.004Z</time>
      </trkpt>
      <trkpt lat="46.73201" lon="6.18052">
        <ele>1024.325945</ele>
        <time>2021-04-30T02:49:37.413Z</time>
      </trkpt>
      <trkpt lat="46.73138" lon="6.1799">
        <ele>1021.481985</ele>
        <time>2021-04-30T02:49:52.347Z</time>
      </trkpt>
      <trkpt lat="46.73093" lon="6.17932">
        <ele>1019.245019</ele>
        <time>2021-04-30T02:50:03.801Z</time>
      </trkpt>
      <trkpt lat="46.73047" lon="6.17917">
        <ele>1017.198235</ele>
        <time>2021-04-30T02:50:12.793Z</time>
      </trkpt>
      <trkpt lat="46.73035" lon="6.17911">
        <ele>1016.605389</ele>
        <time>2021-04-30T02:50:15.223Z</time>
      </trkpt>
      <trkpt lat="46.72997" lon="6.1788">
        <ele>1014.683599</ele>
        <time>2021-04-30T02:50:23.492Z</time>
      </trkpt>
      <trkpt lat="46.72962" lon="6.17848">
        <ele>1012.841608</ele>
        <time>2021-04-30T02:50:31.532Z</time>
      </trkpt>
      <trkpt lat="46.72936" lon="6.17819">
        <ele>1011.346441</ele>
        <time>2021-04-30T02:50:38.091Z</time>
      </trkpt>
      <trkpt lat="46.72917" lon="6.17807">
        <ele>1010.677474</ele>
        <time>2021-04-30T02:50:42.099Z</time>
      </trkpt>
      <trkpt lat="46.72887" lon="6.17796">
        <ele>1010.05738</ele>
        <time>2021-04-30T02:50:48.451Z</time>
      </trkpt>
      <trkpt lat="46.72853" lon="6.17774">
        <ele>1009.318479</ele>
        <time>2021-04-30T02:50:56.358Z</time>
      </trkpt>
      <trkpt lat="46.72812" lon="6.17738">
        <ele>1008.357369</ele>
        <time>2021-04-30T02:51:07.106Z</time>
      </trkpt>
      <trkpt lat="46.72715" lon="6.17627">
        <ele>1007.030911</ele>
        <time>2021-04-30T02:51:39.565Z</time>
      </trkpt>
      <trkpt lat="46.72574" lon="6.17514">
        <ele>1006.460036</ele>
        <time>2021-04-30T02:52:22.295Z</time>
      </trkpt>
      <trkpt lat="46.7257" lon="6.17511">
        <ele>1006.445435</ele>
        <time>2021-04-30T02:52:23.274Z</time>
      </trkpt>
      <trkpt lat="46.72527" lon="6.17482">
        <ele>1006.290897</ele>
        <time>2021-04-30T02:52:35.262Z</time>
      </trkpt>
      <trkpt lat="46.721" lon="6.1728">
        <ele>1006.067647</ele>
        <time>2021-04-30T02:54:38.270Z</time>
      </trkpt>
      <trkpt lat="46.72071" lon="6.17263">
        <ele>1006.498209</ele>
        <time>2021-04-30T02:54:48.017Z</time>
      </trkpt>
      <trkpt lat="46.72045" lon="6.17248">
        <ele>1006.893592</ele>
        <time>2021-04-30T02:54:57.395Z</time>
      </trkpt>
      <trkpt lat="46.71976" lon="6.17188">
        <ele>1008.023978</ele>
        <time>2021-04-30T02:55:26.634Z</time>
      </trkpt>
      <trkpt lat="46.71958" lon="6.1718">
        <ele>1008.290885</ele>
        <time>2021-04-30T02:55:34.050Z</time>
      </trkpt>
      <trkpt lat="46.71954" lon="6.17168">
        <ele>1008.416173</ele>
        <time>2021-04-30T02:55:37.392Z</time>
      </trkpt>
      <trkpt lat="46.71946" lon="6.17154">
        <ele>1008.709106</ele>
        <time>2021-04-30T02:55:41.985Z</time>
      </trkpt>
      <trkpt lat="46.71918" lon="6.17117">
        <ele>1009.58672</ele>
        <time>2021-04-30T02:55:56.082Z</time>
      </trkpt>
      <trkpt lat="46.71914" lon="6.1711">
        <ele>1009.73115</ele>
        <time>2021-04-30T02:55:58.680Z</time>
      </trkpt>
      <trkpt lat="46.71885" lon="6.17063">
        <ele>1010.741748</ele>
        <time>2021-04-30T02:56:14.658Z</time>
      </trkpt>
      <trkpt lat="46.71871" lon="6.17036">
        <ele>1011.303419</ele>
        <time>2021-04-30T02:56:23.626Z</time>
      </trkpt>
      <trkpt lat="46.71853" lon="6.16992">
        <ele>1012.114171</ele>
        <time>2021-04-30T02:56:37.585Z</time>
      </trkpt>
      <trkpt lat="46.71839" lon="6.1696">
        <ele>1012.717297</ele>
        <time>2021-04-30T02:56:47.993Z</time>
      </trkpt>
      <trkpt lat="46.71811" lon="6.1691">
        <ele>1013.655805</ele>
        <time>2021-04-30T02:57:05.008Z</time>
      </trkpt>
      <trkpt lat="46.71777" lon="6.16859">
        <ele>1014.708347</ele>
        <time>2021-04-30T02:57:22.870Z</time>
      </trkpt>
      <trkpt lat="46.71764" lon="6.16831">
        <ele>1015.20003</ele>
        <time>2021-04-30T02:57:31.381Z</time>
      </trkpt>
      <trkpt lat="46.7175" lon="6.16771">
        <ele>1016.131128</ele>
        <time>2021-04-30T02:57:46.919Z</time>
      </trkpt>
      <trkpt lat="46.71746" lon="6.16696">
        <ele>1017.006823</ele>
        <time>2021-04-30T02:58:05.422Z</time>
      </trkpt>
      <trkpt lat="46.71739" lon="6.16675">
        <ele>1017.238904</ele>
        <time>2021-04-30T02:58:11.080Z</time>
      </trkpt>
      <trkpt lat="46.71661" lon="6.16551">
        <ele>1018.95802</ele>
        <time>2021-04-30T02:58:49.867Z</time>
      </trkpt>
      <trkpt lat="46.71639" lon="6.165">
        <ele>1019.339457</ele>
        <time>2021-04-30T02:59:02.942Z</time>
      </trkpt>
      <trkpt lat="46.71624" lon="6.16464">
        <ele>1019.52814</ele>
        <time>2021-04-30T02:59:11.822Z</time>
      </trkpt>
      <trkpt lat="46.7161" lon="6.16423">
        <ele>1019.735978</ele>
        <time>2021-04-30T02:59:21.428Z</time>
      </trkpt>
      <trkpt lat="46.71576" lon="6.16237">
        <ele>1020.412983</ele>
        <time>2021-04-30T02:59:59.128Z</time>
      </trkpt>
      <trkpt lat="46.71553" lon="6.16168">
        <ele>1020.518177</ele>
        <time>2021-04-30T03:00:13.580Z</time>
      </trkpt>
      <trkpt lat="46.71521" lon="6.16132">
        <ele>1020.598442</ele>
        <time>2021-04-30T03:00:24.586Z</time>
      </trkpt>
      <trkpt lat="46.71417" lon="6.16059">
        <ele>1020.734317</ele>
        <time>2021-04-30T03:00:56.431Z</time>
      </trkpt>
      <trkpt lat="46.71374" lon="6.16005">
        <ele>1020.771179</ele>
        <time>2021-04-30T03:01:11.710Z</time>
      </trkpt>
      <trkpt lat="46.71363" lon="6.15971">
        <ele>1020.788044</ele>
        <time>2021-04-30T03:01:18.484Z</time>
      </trkpt>
      <trkpt lat="46.71345" lon="6.15904">
        <ele>1020.688477</ele>
        <time>2021-04-30T03:01:31.489Z</time>
      </trkpt>
      <trkpt lat="46.71318" lon="6.15847">
        <ele>1020.420422</ele>
        <time>2021-04-30T03:01:43.659Z</time>
      </trkpt>
      <trkpt lat="46.71204" lon="6.15613">
        <ele>1018.957502</ele>
        <time>2021-04-30T03:02:30.440Z</time>
      </trkpt>
      <trkpt lat="46.71158" lon="6.15551">
        <ele>1018.346782</ele>
        <time>2021-04-30T03:02:44.767Z</time>
      </trkpt>
      <trkpt lat="46.71105" lon="6.15502">
        <ele>1017.659968</ele>
        <time>2021-04-30T03:02:59.075Z</time>
      </trkpt>
      <trkpt lat="46.70919" lon="6.15272">
        <ele>1015.325063</ele>
        <time>2021-04-30T03:03:54.197Z</time>
      </trkpt>
      <trkpt lat="46.70841" lon="6.15193">
        <ele>1015.010722</ele>
        <time>2021-04-30T03:04:19.433Z</time>
      </trkpt>
      <trkpt lat="46.70818" lon="6.15167">
        <ele>1015.515871</ele>
        <time>2021-04-30T03:04:28.052Z</time>
      </trkpt>
      <trkpt lat="46.70814" lon="6.15151">
        <ele>1015.722194</ele>
        <time>2021-04-30T03:04:31.836Z</time>
      </trkpt>
      <trkpt lat="46.70815" lon="6.15124">
        <ele>1016.040329</ele>
        <time>2021-04-30T03:04:37.841Z</time>
      </trkpt>
      <trkpt lat="46.70835" lon="6.15051">
        <ele>1016.958211</ele>
        <time>2021-04-30T03:04:56.527Z</time>
      </trkpt>
      <trkpt lat="46.70839" lon="6.15033">
        <ele>1017.185297</ele>
        <time>2021-04-30T03:05:01.888Z</time>
      </trkpt>
      <trkpt lat="46.70845" lon="6.15003">
        <ele>1017.54887</ele>
        <time>2021-04-30T03:05:10.443Z</time>
      </trkpt>
      <trkpt lat="46.7085" lon="6.1497">
        <ele>1017.958722</ele>
        <time>2021-04-30T03:05:20.345Z</time>
      </trkpt>
      <trkpt lat="46.70861" lon="6.14885">
        <ele>1019.601601</ele>
        <time>2021-04-30T03:05:46.440Z</time>
      </trkpt>
      <trkpt lat="46.70862" lon="6.14875">
        <ele>1019.790629</ele>
        <time>2021-04-30T03:05:49.520Z</time>
      </trkpt>
      <trkpt lat="46.70863" lon="6.1485">
        <ele>1020.265252</ele>
        <time>2021-04-30T03:05:56.335Z</time>
      </trkpt>
      <trkpt lat="46.70862" lon="6.1484">
        <ele>1020.455239</ele>
        <time>2021-04-30T03:05:59.376Z</time>
      </trkpt>
      <trkpt lat="46.7086" lon="6.14815">
        <ele>1020.924917</ele>
        <time>2021-04-30T03:06:06.322Z</time>
      </trkpt>
      <trkpt lat="46.70858" lon="6.1481">
        <ele>1021.040733</ele>
        <time>2021-04-30T03:06:08.048Z</time>
      </trkpt>
      <trkpt lat="46.70848" lon="6.14783">
        <ele>1021.613528</ele>
        <time>2021-04-30T03:06:16.616Z</time>
      </trkpt>
      <trkpt lat="46.70684" lon="6.14535">
        <ele>1025.661573</ele>
        <time>2021-04-30T03:07:38.741Z</time>
      </trkpt>
      <trkpt lat="46.70586" lon="6.14414">
        <ele>1025.971354</ele>
        <time>2021-04-30T03:08:13.321Z</time>
      </trkpt>
      <trkpt lat="46.70544" lon="6.14378">
        <ele>1026.052861</ele>
        <time>2021-04-30T03:08:26.032Z</time>
      </trkpt>
      <trkpt lat="46.70502" lon="6.14339">
        <ele>1025.95983</ele>
        <time>2021-04-30T03:08:38.943Z</time>
      </trkpt>
      <trkpt lat="46.70487" lon="6.14308">
        <ele>1025.910655</ele>
        <time>2021-04-30T03:08:45.578Z</time>
      </trkpt>
      <trkpt lat="46.70473" lon="6.14246">
        <ele>1025.826548</ele>
        <time>2021-04-30T03:08:57.085Z</time>
      </trkpt>
      <trkpt lat="46.70468" lon="6.14152">
        <ele>1025.712567</ele>
        <time>2021-04-30T03:09:13.508Z</time>
      </trkpt>
      <trkpt lat="46.70463" lon="6.14129">
        <ele>1025.691013</ele>
        <time>2021-04-30T03:09:17.690Z</time>
      </trkpt>
      <trkpt lat="46.70407" lon="6.14008">
        <ele>1025.561464</ele>
        <time>2021-04-30T03:09:43.458Z</time>
      </trkpt>
      <trkpt lat="46.704" lon="6.13978">
        <ele>1025.533496</ele>
        <time>2021-04-30T03:09:49.383Z</time>
      </trkpt>
      <trkpt lat="46.70401" lon="6.13945">
        <ele>1025.504106</ele>
        <time>2021-04-30T03:09:55.640Z</time>
      </trkpt>
      <trkpt lat="46.70408" lon="6.13881">
        <ele>1025.892166</ele>
        <time>2021-04-30T03:10:07.986Z</time>
      </trkpt>
      <trkpt lat="46.70412" lon="6.13838">
        <ele>1026.198547</ele>
        <time>2021-04-30T03:10:16.707Z</time>
      </trkpt>
      <trkpt lat="46.70413" lon="6.1381">
        <ele>1026.392632</ele>
        <time>2021-04-30T03:10:22.530Z</time>
      </trkpt>
      <trkpt lat="46.70411" lon="6.1378">
        <ele>1026.605587</ele>
        <time>2021-04-30T03:10:28.603Z</time>
      </trkpt>
      <trkpt lat="46.70404" lon="6.13752">
        <ele>1026.810979</ele>
        <time>2021-04-30T03:10:35.209Z</time>
      </trkpt>
      <trkpt lat="46.70394" lon="6.13725">
        <ele>1027.030935</ele>
        <time>2021-04-30T03:10:42.578Z</time>
      </trkpt>
      <trkpt lat="46.70378" lon="6.13685">
        <ele>1027.409638</ele>
        <time>2021-04-30T03:10:54.083Z</time>
      </trkpt>
      <trkpt lat="46.70374" lon="6.13677">
        <ele>1027.650885</ele>
        <time>2021-04-30T03:10:56.738Z</time>
      </trkpt>
      <trkpt lat="46.70347" lon="6.13606">
        <ele>1029.803084</ele>
        <time>2021-04-30T03:11:18.602Z</time>
      </trkpt>
      <trkpt lat="46.70342" lon="6.13581">
        <ele>1030.498841</ele>
        <time>2021-04-30T03:11:25.932Z</time>
      </trkpt>
      <trkpt lat="46.70341" lon="6.13447">
        <ele>1034.028883</ele>
        <time>2021-04-30T03:12:11.403Z</time>
      </trkpt>
      <trkpt lat="46.70334" lon="6.13413">
        <ele>1035.380103</ele>
        <time>2021-04-30T03:12:24.658Z</time>
      </trkpt>
      <trkpt lat="46.70322" lon="6.13389">
        <ele>1036.654908</ele>
        <time>2021-04-30T03:12:36.148Z</time>
      </trkpt>
      <trkpt lat="46.70306" lon="6.1337">
        <ele>1037.925392</ele>
        <time>2021-04-30T03:12:48.155Z</time>
      </trkpt>
      <trkpt lat="46.70283" lon="6.13369">
        <ele>1039.318458</ele>
        <time>2021-04-30T03:13:01.720Z</time>
      </trkpt>
      <trkpt lat="46.7019" lon="6.13372">
        <ele>1044.993682</ele>
        <time>2021-04-30T03:13:55.108Z</time>
      </trkpt>
      <trkpt lat="46.70134" lon="6.13281">
        <ele>1048.706648</ele>
        <time>2021-04-30T03:14:40.439Z</time>
      </trkpt>
      <trkpt lat="46.70109" lon="6.13255">
        <ele>1050.039729</ele>
        <time>2021-04-30T03:14:54.638Z</time>
      </trkpt>
      <trkpt lat="46.70085" lon="6.1324">
        <ele>1051.18632</ele>
        <time>2021-04-30T03:15:06.186Z</time>
      </trkpt>
      <trkpt lat="46.70051" lon="6.1323">
        <ele>1052.682776</ele>
        <time>2021-04-30T03:15:20.313Z</time>
      </trkpt>
      <trkpt lat="46.70008" lon="6.13231">
        <ele>1053.305232</ele>
        <time>2021-04-30T03:15:36.371Z</time>
      </trkpt>
      <trkpt lat="46.69974" lon="6.13248">
        <ele>1053.551574</ele>
        <time>2021-04-30T03:15:48.183Z</time>
      </trkpt>
      <trkpt lat="46.69881" lon="6.13347">
        <ele>1054.214495</ele>
        <time>2021-04-30T03:16:19.224Z</time>
      </trkpt>
      <trkpt lat="46.69847" lon="6.13431">
        <ele>1052.808422</ele>
        <time>2021-04-30T03:16:34.180Z</time>
      </trkpt>
      <trkpt lat="46.69815" lon="6.13552">
        <ele>1050.928441</ele>
        <time>2021-04-30T03:16:52.335Z</time>
      </trkpt>
      <trkpt lat="46.698" lon="6.13577">
        <ele>1050.376679</ele>
        <time>2021-04-30T03:16:56.697Z</time>
      </trkpt>
      <trkpt lat="46.69725" lon="6.13655">
        <ele>1046.522428</ele>
        <time>2021-04-30T03:17:14.037Z</time>
      </trkpt>
      <trkpt lat="46.69686" lon="6.13688">
        <ele>1044.620607</ele>
        <time>2021-04-30T03:17:22.405Z</time>
      </trkpt>
      <trkpt lat="46.69647" lon="6.13703">
        <ele>1042.959645</ele>
        <time>2021-04-30T03:17:29.670Z</time>
      </trkpt>
      <trkpt lat="46.69617" lon="6.13707">
        <ele>1041.742238</ele>
        <time>2021-04-30T03:17:35.163Z</time>
      </trkpt>
      <trkpt lat="46.69365" lon="6.13683">
        <ele>1032.372593</ele>
        <time>2021-04-30T03:18:23.147Z</time>
      </trkpt>
      <trkpt lat="46.69272" lon="6.13727">
        <ele>1029.772573</ele>
        <time>2021-04-30T03:18:43.026Z</time>
      </trkpt>
      <trkpt lat="46.69226" lon="6.13764">
        <ele>1029.258579</ele>
        <time>2021-04-30T03:18:54.650Z</time>
      </trkpt>
      <trkpt lat="46.69102" lon="6.13861">
        <ele>1028.085014</ele>
        <time>2021-04-30T03:19:30.467Z</time>
      </trkpt>
      <trkpt lat="46.69075" lon="6.13882">
        <ele>1027.95701</ele>
        <time>2021-04-30T03:19:39.014Z</time>
      </trkpt>
      <trkpt lat="46.68947" lon="6.13976">
        <ele>1026.463945</ele>
        <time>2021-04-30T03:20:14.705Z</time>
      </trkpt>
      <trkpt lat="46.68894" lon="6.13992">
        <ele>1024.672845</ele>
        <time>2021-04-30T03:20:25.444Z</time>
      </trkpt>
      <trkpt lat="46.68852" lon="6.13991">
        <ele>1023.27427</ele>
        <time>2021-04-30T03:20:33.380Z</time>
      </trkpt>
      <trkpt lat="46.68829" lon="6.13989">
        <ele>1022.50763</ele>
        <time>2021-04-30T03:20:37.613Z</time>
      </trkpt>
      <trkpt lat="46.68805" lon="6.14003">
        <ele>1021.659911</ele>
        <time>2021-04-30T03:20:42.188Z</time>
      </trkpt>
      <trkpt lat="46.6879" lon="6.14027">
        <ele>1020.453163</ele>
        <time>2021-04-30T03:20:46.281Z</time>
      </trkpt>
      <trkpt lat="46.6877" lon="6.14086">
        <ele>1017.785248</ele>
        <time>2021-04-30T03:20:54.181Z</time>
      </trkpt>
      <trkpt lat="46.68758" lon="6.14097">
        <ele>1016.971189</ele>
        <time>2021-04-30T03:20:56.586Z</time>
      </trkpt>
      <trkpt lat="46.68746" lon="6.14094">
        <ele>1016.250498</ele>
        <time>2021-04-30T03:20:58.701Z</time>
      </trkpt>
      <trkpt lat="46.68734" lon="6.14083">
        <ele>1015.409115</ele>
        <time>2021-04-30T03:21:01.110Z</time>
      </trkpt>
      <trkpt lat="46.68638" lon="6.13899">
        <ele>1006.444554</ele>
        <time>2021-04-30T03:21:29.233Z</time>
      </trkpt>
      <trkpt lat="46.68616" lon="6.1385">
        <ele>1004.247916</ele>
        <time>2021-04-30T03:21:36.668Z</time>
      </trkpt>
      <trkpt lat="46.68578" lon="6.13766">
        <ele>1000.731506</ele>
        <time>2021-04-30T03:21:48.879Z</time>
      </trkpt>
      <trkpt lat="46.6855" lon="6.1371">
        <ele>998.908396</ele>
        <time>2021-04-30T03:21:57.713Z</time>
      </trkpt>
      <trkpt lat="46.68535" lon="6.13693">
        <ele>998.199088</ele>
        <time>2021-04-30T03:22:01.157Z</time>
      </trkpt>
      <trkpt lat="46.68522" lon="6.13689">
        <ele>997.686347</ele>
        <time>2021-04-30T03:22:03.787Z</time>
      </trkpt>
      <trkpt lat="46.68514" lon="6.13688">
        <ele>997.377033</ele>
        <time>2021-04-30T03:22:05.334Z</time>
      </trkpt>
      <trkpt lat="46.68501" lon="6.13693">
        <ele>996.867141</ele>
        <time>2021-04-30T03:22:07.913Z</time>
      </trkpt>
      <trkpt lat="46.6848" lon="6.13706">
        <ele>995.98285</ele>
        <time>2021-04-30T03:22:12.507Z</time>
      </trkpt>
      <trkpt lat="46.68456" lon="6.13647">
        <ele>994.261856</ele>
        <time>2021-04-30T03:22:21.845Z</time>
      </trkpt>
      <trkpt lat="46.6839" lon="6.1355">
        <ele>993.290211</ele>
        <time>2021-04-30T03:22:41.726Z</time>
      </trkpt>
      <trkpt lat="46.68365" lon="6.13528">
        <ele>992.993479</ele>
        <time>2021-04-30T03:22:49.441Z</time>
      </trkpt>
      <trkpt lat="46.68339" lon="6.13505">
        <ele>992.676214</ele>
        <time>2021-04-30T03:22:58.171Z</time>
      </trkpt>
      <trkpt lat="46.68268" lon="6.13451">
        <ele>992.69155</ele>
        <time>2021-04-30T03:23:21.582Z</time>
      </trkpt>
      <trkpt lat="46.68214" lon="6.13444">
        <ele>992.947682</ele>
        <time>2021-04-30T03:23:37.680Z</time>
      </trkpt>
      <trkpt lat="46.68192" lon="6.13444">
        <ele>993.053364</ele>
        <time>2021-04-30T03:23:44.229Z</time>
      </trkpt>
      <trkpt lat="46.68162" lon="6.13453">
        <ele>993.195954</ele>
        <time>2021-04-30T03:23:52.647Z</time>
      </trkpt>
      <trkpt lat="46.68133" lon="6.13442">
        <ele>993.345965</ele>
        <time>2021-04-30T03:24:00.990Z</time>
      </trkpt>
      <trkpt lat="46.681" lon="6.13435">
        <ele>993.512327</ele>
        <time>2021-04-30T03:24:10.200Z</time>
      </trkpt>
      <trkpt lat="46.68097" lon="6.13434">
        <ele>993.529756</ele>
        <time>2021-04-30T03:24:11.215Z</time>
      </trkpt>
      <trkpt lat="46.68086" lon="6.13432">
        <ele>993.587597</ele>
        <time>2021-04-30T03:24:14.715Z</time>
      </trkpt>
      <trkpt lat="46.68071" lon="6.13425">
        <ele>993.668191</ele>
        <time>2021-04-30T03:24:19.329Z</time>
      </trkpt>
      <trkpt lat="46.68037" lon="6.13403">
        <ele>993.857677</ele>
        <time>2021-04-30T03:24:30.562Z</time>
      </trkpt>
      <trkpt lat="46.68001" lon="6.13365">
        <ele>994.080868</ele>
        <time>2021-04-30T03:24:43.657Z</time>
      </trkpt>
      <trkpt lat="46.68002" lon="6.13362">
        <ele>994.091561</ele>
        <time>2021-04-30T03:24:44.607Z</time>
      </trkpt>
      <trkpt lat="46.67987" lon="6.13322">
        <ele>994.244667</ele>
        <time>2021-04-30T03:24:53.386Z</time>
      </trkpt>
      <trkpt lat="46.67991" lon="6.13286">
        <ele>994.353724</ele>
        <time>2021-04-30T03:25:00.024Z</time>
      </trkpt>
      <trkpt lat="46.67991" lon="6.13279">
        <ele>994.375938</ele>
        <time>2021-04-30T03:25:01.690Z</time>
      </trkpt>
      <trkpt lat="46.67991" lon="6.13271">
        <ele>994.400134</ele>
        <time>2021-04-30T03:25:03.367Z</time>
      </trkpt>
      <trkpt lat="46.67979" lon="6.13209">
        <ele>994.597596</ele>
        <time>2021-04-30T03:25:16.417Z</time>
      </trkpt>
      <trkpt lat="46.67979" lon="6.13155">
        <ele>994.763622</ele>
        <time>2021-04-30T03:25:27.188Z</time>
      </trkpt>
      <trkpt lat="46.6798" lon="6.13149">
        <ele>994.783353</ele>
        <time>2021-04-30T03:25:28.626Z</time>
      </trkpt>
      <trkpt lat="46.67982" lon="6.13141">
        <ele>994.810297</ele>
        <time>2021-04-30T03:25:30.053Z</time>
      </trkpt>
      <trkpt lat="46.68004" lon="6.13019">
        <ele>995.126169</ele>
        <time>2021-04-30T03:25:54.332Z</time>
      </trkpt>
      <trkpt lat="46.68" lon="6.13006">
        <ele>995.154231</ele>
        <time>2021-04-30T03:25:57.337Z</time>
      </trkpt>
      <trkpt lat="46.67986" lon="6.12993">
        <ele>995.2025</ele>
        <time>2021-04-30T03:26:01.977Z</time>
      </trkpt>
      <trkpt lat="46.6798" lon="6.12992">
        <ele>995.218633</ele>
        <time>2021-04-30T03:26:03.193Z</time>
      </trkpt>
      <trkpt lat="46.67983" lon="6.12969">
        <ele>995.265621</ele>
        <time>2021-04-30T03:26:08.262Z</time>
      </trkpt>
      <trkpt lat="46.67986" lon="6.12907">
        <ele>995.389049</ele>
        <time>2021-04-30T03:26:19.999Z</time>
      </trkpt>
      <trkpt lat="46.67979" lon="6.12838">
        <ele>995.522482</ele>
        <time>2021-04-30T03:26:33.140Z</time>
      </trkpt>
      <trkpt lat="46.67975" lon="6.12809">
        <ele>995.546401</ele>
        <time>2021-04-30T03:26:39.479Z</time>
      </trkpt>
      <trkpt lat="46.6797" lon="6.12788">
        <ele>995.563978</ele>
        <time>2021-04-30T03:26:43.495Z</time>
      </trkpt>
      <trkpt lat="46.67951" lon="6.12717">
        <ele>995.624592</ele>
        <time>2021-04-30T03:26:58.509Z</time>
      </trkpt>
      <trkpt lat="46.67927" lon="6.12658">
        <ele>995.679642</ele>
        <time>2021-04-30T03:27:11.422Z</time>
      </trkpt>
      <trkpt lat="46.67903" lon="6.12609">
        <ele>995.727075</ele>
        <time>2021-04-30T03:27:22.222Z</time>
      </trkpt>
      <trkpt lat="46.67886" lon="6.12574">
        <ele>995.565214</ele>
        <time>2021-04-30T03:27:29.641Z</time>
      </trkpt>
      <trkpt lat="46.67783" lon="6.12378">
        <ele>994.694106</ele>
        <time>2021-04-30T03:28:10.222Z</time>
      </trkpt>
      <trkpt lat="46.67689" lon="6.12175">
        <ele>994.640136</ele>
        <time>2021-04-30T03:28:53.970Z</time>
      </trkpt>
      <trkpt lat="46.6767" lon="6.12145">
        <ele>995.144542</ele>
        <time>2021-04-30T03:29:02.682Z</time>
      </trkpt>
      <trkpt lat="46.67628" lon="6.12107">
        <ele>996.04261</ele>
        <time>2021-04-30T03:29:19.263Z</time>
      </trkpt>
      <trkpt lat="46.67559" lon="6.12059">
        <ele>997.402528</ele>
        <time>2021-04-30T03:29:48.392Z</time>
      </trkpt>
      <trkpt lat="46.67531" lon="6.12052">
        <ele>998.106709</ele>
        <time>2021-04-30T03:30:00.266Z</time>
      </trkpt>
      <trkpt lat="46.67464" lon="6.12055">
        <ele>1000.597641</ele>
        <time>2021-04-30T03:30:27.904Z</time>
      </trkpt>
      <trkpt lat="46.6743" lon="6.12035">
        <ele>1001.977573</ele>
        <time>2021-04-30T03:30:44.865Z</time>
      </trkpt>
      <trkpt lat="46.67424" lon="6.12028">
        <ele>1002.283028</ele>
        <time>2021-04-30T03:30:49.863Z</time>
      </trkpt>
      <trkpt lat="46.67415" lon="6.12014">
        <ele>1002.776024</ele>
        <time>2021-04-30T03:30:55.344Z</time>
      </trkpt>
      <trkpt lat="46.67408" lon="6.11998">
        <ele>1003.258338</ele>
        <time>2021-04-30T03:31:00.815Z</time>
      </trkpt>
      <trkpt lat="46.67388" lon="6.11947">
        <ele>1004.810679</ele>
        <time>2021-04-30T03:31:20.254Z</time>
      </trkpt>
      <trkpt lat="46.67365" lon="6.11885">
        <ele>1006.894009</ele>
        <time>2021-04-30T03:31:44.452Z</time>
      </trkpt>
      <trkpt lat="46.67353" lon="6.11848">
        <ele>1008.122486</ele>
        <time>2021-04-30T03:31:58.486Z</time>
      </trkpt>
      <trkpt lat="46.67345" lon="6.1179">
        <ele>1009.857019</ele>
        <time>2021-04-30T03:32:15.994Z</time>
      </trkpt>
      <trkpt lat="46.67341" lon="6.11718">
        <ele>1012.030183</ele>
        <time>2021-04-30T03:32:39.173Z</time>
      </trkpt>
      <trkpt lat="46.67337" lon="6.11669">
        <ele>1013.589778</ele>
        <time>2021-04-30T03:32:55.428Z</time>
      </trkpt>
      <trkpt lat="46.67324" lon="6.11611">
        <ele>1015.613108</ele>
        <time>2021-04-30T03:33:16.992Z</time>
      </trkpt>
      <trkpt lat="46.6731" lon="6.11584">
        <ele>1016.725872</ele>
        <time>2021-04-30T03:33:29.529Z</time>
      </trkpt>
      <trkpt lat="46.6729" lon="6.1156">
        <ele>1017.952763</ele>
        <time>2021-04-30T03:33:44.949Z</time>
      </trkpt>
      <trkpt lat="46.67255" lon="6.11518">
        <ele>1020.098834</ele>
        <time>2021-04-30T03:34:10.145Z</time>
      </trkpt>
      <trkpt lat="46.67246" lon="6.11506">
        <ele>1020.715557</ele>
        <time>2021-04-30T03:34:17.219Z</time>
      </trkpt>
      <trkpt lat="46.6723" lon="6.11471">
        <ele>1019.910905</ele>
        <time>2021-04-30T03:34:27.809Z</time>
      </trkpt>
      <trkpt lat="46.67215" lon="6.11401">
        <ele>1017.958155</ele>
        <time>2021-04-30T03:34:38.880Z</time>
      </trkpt>
      <trkpt lat="46.67209" lon="6.11349">
        <ele>1016.568372</ele>
        <time>2021-04-30T03:34:45.594Z</time>
      </trkpt>
      <trkpt lat="46.67209" lon="6.11322">
        <ele>1015.849329</ele>
        <time>2021-04-30T03:34:48.789Z</time>
      </trkpt>
      <trkpt lat="46.6721" lon="6.11306">
        <ele>1015.419371</ele>
        <time>2021-04-30T03:34:50.785Z</time>
      </trkpt>
      <trkpt lat="46.67213" lon="6.11261">
        <ele>1014.202707</ele>
        <time>2021-04-30T03:34:56.021Z</time>
      </trkpt>
      <trkpt lat="46.67215" lon="6.11235">
        <ele>1012.474262</ele>
        <time>2021-04-30T03:34:58.970Z</time>
      </trkpt>
      <trkpt lat="46.67211" lon="6.1121">
        <ele>1009.994739</ele>
        <time>2021-04-30T03:35:01.922Z</time>
      </trkpt>
      <trkpt lat="46.67158" lon="6.10912">
        <ele>980.595811</ele>
        <time>2021-04-30T03:35:36.436Z</time>
      </trkpt>
      <trkpt lat="46.67147" lon="6.10873">
        <ele>976.649861</ele>
        <time>2021-04-30T03:35:41.278Z</time>
      </trkpt>
      <trkpt lat="46.67116" lon="6.10802">
        <ele>968.942357</ele>
        <time>2021-04-30T03:35:50.760Z</time>
      </trkpt>
      <trkpt lat="46.67107" lon="6.10729">
        <ele>962.73584</ele>
        <time>2021-04-30T03:35:59.262Z</time>
      </trkpt>
      <trkpt lat="46.67077" lon="6.10643">
        <ele>956.362767</ele>
        <time>2021-04-30T03:36:10.592Z</time>
      </trkpt>
      <trkpt lat="46.67072" lon="6.10625">
        <ele>955.067933</ele>
        <time>2021-04-30T03:36:12.872Z</time>
      </trkpt>
      <trkpt lat="46.67043" lon="6.1051">
        <ele>947.062964</ele>
        <time>2021-04-30T03:36:27.784Z</time>
      </trkpt>
      <trkpt lat="46.67015" lon="6.1038">
        <ele>941.866147</ele>
        <time>2021-04-30T03:36:44.803Z</time>
      </trkpt>
      <trkpt lat="46.66973" lon="6.10237">
        <ele>936.480158</ele>
        <time>2021-04-30T03:37:05.693Z</time>
      </trkpt>
      <trkpt lat="46.66963" lon="6.10218">
        <ele>936.014682</ele>
        <time>2021-04-30T03:37:08.935Z</time>
      </trkpt>
      <trkpt lat="46.66957" lon="6.10206">
        <ele>935.723647</ele>
        <time>2021-04-30T03:37:11.071Z</time>
      </trkpt>
      <trkpt lat="46.66953" lon="6.10185">
        <ele>935.301184</ele>
        <time>2021-04-30T03:37:14.284Z</time>
      </trkpt>
      <trkpt lat="46.66952" lon="6.10126">
        <ele>934.171023</ele>
        <time>2021-04-30T03:37:22.727Z</time>
      </trkpt>
      <trkpt lat="46.66947" lon="6.10105">
        <ele>933.729342</ele>
        <time>2021-04-30T03:37:25.995Z</time>
      </trkpt>
      <trkpt lat="46.66887" lon="6.09987">
        <ele>931.192126</ele>
        <time>2021-04-30T03:37:48.640Z</time>
      </trkpt>
      <trkpt lat="46.66883" lon="6.09951">
        <ele>930.687445</ele>
        <time>2021-04-30T03:37:54.569Z</time>
      </trkpt>
      <trkpt lat="46.66851" lon="6.09807">
        <ele>928.57995</ele>
        <time>2021-04-30T03:38:17.756Z</time>
      </trkpt>
      <trkpt lat="46.66844" lon="6.09702">
        <ele>925.950289</ele>
        <time>2021-04-30T03:38:32.648Z</time>
      </trkpt>
      <trkpt lat="46.66851" lon="6.09599">
        <ele>923.165761</ele>
        <time>2021-04-30T03:38:46.566Z</time>
      </trkpt>
      <trkpt lat="46.66843" lon="6.09423">
        <ele>918.182794</ele>
        <time>2021-04-30T03:39:09.905Z</time>
      </trkpt>
      <trkpt lat="46.66836" lon="6.0937">
        <ele>916.629767</ele>
        <time>2021-04-30T03:39:17.038Z</time>
      </trkpt>
      <trkpt lat="46.66804" lon="6.09238">
        <ele>913.075182</ele>
        <time>2021-04-30T03:39:36.146Z</time>
      </trkpt>
      <trkpt lat="46.6675" lon="6.09079">
        <ele>910.231696</ele>
        <time>2021-04-30T03:40:02.544Z</time>
      </trkpt>
      <trkpt lat="46.66707" lon="6.08982">
        <ele>909.523817</ele>
        <time>2021-04-30T03:40:22.032Z</time>
      </trkpt>
      <trkpt lat="46.66712" lon="6.08959">
        <ele>909.532316</ele>
        <time>2021-04-30T03:40:26.524Z</time>
      </trkpt>
      <trkpt lat="46.66714" lon="6.08955">
        <ele>909.533812</ele>
        <time>2021-04-30T03:40:27.081Z</time>
      </trkpt>
      <trkpt lat="46.66716" lon="6.08958">
        <ele>909.534784</ele>
        <time>2021-04-30T03:40:27.703Z</time>
      </trkpt>
      <trkpt lat="46.66718" lon="6.08953">
        <ele>909.536753</ele>
        <time>2021-04-30T03:40:29.520Z</time>
      </trkpt>
      <trkpt lat="46.66722" lon="6.08924">
        <ele>909.546969</ele>
        <time>2021-04-30T03:40:35.297Z</time>
      </trkpt>
      <trkpt lat="46.66707" lon="6.08845">
        <ele>909.575047</ele>
        <time>2021-04-30T03:40:52.636Z</time>
      </trkpt>
      <trkpt lat="46.66697" lon="6.08822">
        <ele>909.584679</ele>
        <time>2021-04-30T03:40:58.805Z</time>
      </trkpt>
      <trkpt lat="46.66677" lon="6.08797">
        <ele>909.713618</ele>
        <time>2021-04-30T03:41:07.534Z</time>
      </trkpt>
      <trkpt lat="46.66654" lon="6.08746">
        <ele>910.046471</ele>
        <time>2021-04-30T03:41:21.405Z</time>
      </trkpt>
      <trkpt lat="46.66642" lon="6.08695">
        <ele>910.342265</ele>
        <time>2021-04-30T03:41:33.378Z</time>
      </trkpt>
      <trkpt lat="46.66633" lon="6.08618">
        <ele>910.772123</ele>
        <time>2021-04-30T03:41:50.224Z</time>
      </trkpt>
      <trkpt lat="46.66615" lon="6.08551">
        <ele>911.041769</ele>
        <time>2021-04-30T03:42:05.101Z</time>
      </trkpt>
      <trkpt lat="46.66596" lon="6.08514">
        <ele>911.06478</ele>
        <time>2021-04-30T03:42:14.366Z</time>
      </trkpt>
      <trkpt lat="46.6658" lon="6.08506">
        <ele>911.077693</ele>
        <time>2021-04-30T03:42:20.000Z</time>
      </trkpt>
      <trkpt lat="46.66554" lon="6.08507">
        <ele>911.096436</ele>
        <time>2021-04-30T03:42:27.426Z</time>
      </trkpt>
      <trkpt lat="46.66534" lon="6.0849">
        <ele>911.113343</ele>
        <time>2021-04-30T03:42:34.692Z</time>
      </trkpt>
      <trkpt lat="46.66512" lon="6.0845">
        <ele>911.138596</ele>
        <time>2021-04-30T03:42:43.929Z</time>
      </trkpt>
      <trkpt lat="46.66502" lon="6.084">
        <ele>911.047134</ele>
        <time>2021-04-30T03:42:53.164Z</time>
      </trkpt>
      <trkpt lat="46.66501" lon="6.08377">
        <ele>910.775164</ele>
        <time>2021-04-30T03:42:56.672Z</time>
      </trkpt>
      <trkpt lat="46.66504" lon="6.08348">
        <ele>910.432114</ele>
        <time>2021-04-30T03:43:02.329Z</time>
      </trkpt>
      <trkpt lat="46.66482" lon="6.08344">
        <ele>910.05201</ele>
        <time>2021-04-30T03:43:07.263Z</time>
      </trkpt>
      <trkpt lat="46.66442" lon="6.08236">
        <ele>908.602857</ele>
        <time>2021-04-30T03:43:26.710Z</time>
      </trkpt>
      <trkpt lat="46.66419" lon="6.08144">
        <ele>906.696901</ele>
        <time>2021-04-30T03:43:40.550Z</time>
      </trkpt>
      <trkpt lat="46.66357" lon="6.07954">
        <ele>901.180064</ele>
        <time>2021-04-30T03:44:09.295Z</time>
      </trkpt>
      <trkpt lat="46.66312" lon="6.07859">
        <ele>896.466134</ele>
        <time>2021-04-30T03:44:24.276Z</time>
      </trkpt>
      <trkpt lat="46.66304" lon="6.07846">
        <ele>895.752587</ele>
        <time>2021-04-30T03:44:26.438Z</time>
      </trkpt>
      <trkpt lat="46.66282" lon="6.07768">
        <ele>892.350377</ele>
        <time>2021-04-30T03:44:37.058Z</time>
      </trkpt>
      <trkpt lat="46.66166" lon="6.07552">
        <ele>879.135994</ele>
        <time>2021-04-30T03:45:10.598Z</time>
      </trkpt>
      <trkpt lat="46.66156" lon="6.07541">
        <ele>878.182086</ele>
        <time>2021-04-30T03:45:12.915Z</time>
      </trkpt>
      <trkpt lat="46.66133" lon="6.07537">
        <ele>876.830686</ele>
        <time>2021-04-30T03:45:17.148Z</time>
      </trkpt>
      <trkpt lat="46.6611" lon="6.0754">
        <ele>875.672103</ele>
        <time>2021-04-30T03:45:21.283Z</time>
      </trkpt>
      <trkpt lat="46.66095" lon="6.07488">
        <ele>873.699241</ele>
        <time>2021-04-30T03:45:28.587Z</time>
      </trkpt>
      <trkpt lat="46.66075" lon="6.07469">
        <ele>872.486202</ele>
        <time>2021-04-30T03:45:33.077Z</time>
      </trkpt>
      <trkpt lat="46.66049" lon="6.07491">
        <ele>870.966911</ele>
        <time>2021-04-30T03:45:38.763Z</time>
      </trkpt>
      <trkpt lat="46.66028" lon="6.07507">
        <ele>869.768591</ele>
        <time>2021-04-30T03:45:43.384Z</time>
      </trkpt>
      <trkpt lat="46.65989" lon="6.07541">
        <ele>868.307522</ele>
        <time>2021-04-30T03:45:52.403Z</time>
      </trkpt>
      <trkpt lat="46.65985" lon="6.07544">
        <ele>868.280053</ele>
        <time>2021-04-30T03:45:53.484Z</time>
      </trkpt>
      <trkpt lat="46.65983" lon="6.07538">
        <ele>868.251139</ele>
        <time>2021-04-30T03:45:54.474Z</time>
      </trkpt>
      <trkpt lat="46.65982" lon="6.07533">
        <ele>868.23047</ele>
        <time>2021-04-30T03:45:55.191Z</time>
      </trkpt>
      <trkpt lat="46.65981" lon="6.07504">
        <ele>868.110932</ele>
        <time>2021-04-30T03:45:59.740Z</time>
      </trkpt>
      <trkpt lat="46.65981" lon="6.07464">
        <ele>867.948042</ele>
        <time>2021-04-30T03:46:06.404Z</time>
      </trkpt>
      <trkpt lat="46.6598" lon="6.07456">
        <ele>867.914477</ele>
        <time>2021-04-30T03:46:07.802Z</time>
      </trkpt>
      <trkpt lat="46.65977" lon="6.07445">
        <ele>867.866487</ele>
        <time>2021-04-30T03:46:09.667Z</time>
      </trkpt>
      <trkpt lat="46.65976" lon="6.07442">
        <ele>867.85158</ele>
        <time>2021-04-30T03:46:10.511Z</time>
      </trkpt>
      <trkpt lat="46.65979" lon="6.07434">
        <ele>867.814793</ele>
        <time>2021-04-30T03:46:12.098Z</time>
      </trkpt>
      <trkpt lat="46.6598" lon="6.07383">
        <ele>867.605727</ele>
        <time>2021-04-30T03:46:22.147Z</time>
      </trkpt>
      <trkpt lat="46.65963" lon="6.07346">
        <ele>867.426288</ele>
        <time>2021-04-30T03:46:32.325Z</time>
      </trkpt>
      <trkpt lat="46.65957" lon="6.07335">
        <ele>867.368569</ele>
        <time>2021-04-30T03:46:35.223Z</time>
      </trkpt>
      <trkpt lat="46.65958" lon="6.07321">
        <ele>867.510235</ele>
        <time>2021-04-30T03:46:39.459Z</time>
      </trkpt>
      <trkpt lat="46.6593" lon="6.07269">
        <ele>868.725511</ele>
        <time>2021-04-30T03:46:56.071Z</time>
      </trkpt>
      <trkpt lat="46.65919" lon="6.07196">
        <ele>870.121202</ele>
        <time>2021-04-30T03:47:17.261Z</time>
      </trkpt>
      <trkpt lat="46.65918" lon="6.07189">
        <ele>870.25885</ele>
        <time>2021-04-30T03:47:20.374Z</time>
      </trkpt>
      <trkpt lat="46.65898" lon="6.07104">
        <ele>871.912303</ele>
        <time>2021-04-30T03:47:49.406Z</time>
      </trkpt>
      <trkpt lat="46.65888" lon="6.07037">
        <ele>872.18404</ele>
        <time>2021-04-30T03:48:07.893Z</time>
      </trkpt>
      <trkpt lat="46.65874" lon="6.06981">
        <ele>872.159971</ele>
        <time>2021-04-30T03:48:20.814Z</time>
      </trkpt>
      <trkpt lat="46.6586" lon="6.06902">
        <ele>872.126878</ele>
        <time>2021-04-30T03:48:35.446Z</time>
      </trkpt>
      <trkpt lat="46.65848" lon="6.06899">
        <ele>872.119828</ele>
        <time>2021-04-30T03:48:38.005Z</time>
      </trkpt>
      <trkpt lat="46.65833" lon="6.0689">
        <ele>872.109767</ele>
        <time>2021-04-30T03:48:41.756Z</time>
      </trkpt>
      <trkpt lat="46.65812" lon="6.06877">
        <ele>871.947688</ele>
        <time>2021-04-30T03:48:46.518Z</time>
      </trkpt>
      <trkpt lat="46.658" lon="6.06866">
        <ele>871.417368</ele>
        <time>2021-04-30T03:48:49.537Z</time>
      </trkpt>
      <trkpt lat="46.65698" lon="6.06672">
        <ele>865.317325</ele>
        <time>2021-04-30T03:49:22.405Z</time>
      </trkpt>
      <trkpt lat="46.65673" lon="6.06649">
        <ele>864.797901</ele>
        <time>2021-04-30T03:49:28.406Z</time>
      </trkpt>
      <trkpt lat="46.65653" lon="6.06651">
        <ele>864.431429</ele>
        <time>2021-04-30T03:49:33.055Z</time>
      </trkpt>
      <trkpt lat="46.65646" lon="6.06656">
        <ele>864.279517</ele>
        <time>2021-04-30T03:49:34.664Z</time>
      </trkpt>
      <trkpt lat="46.656" lon="6.06545">
        <ele>862.660503</ele>
        <time>2021-04-30T03:49:54.724Z</time>
      </trkpt>
      <trkpt lat="46.65593" lon="6.0653">
        <ele>862.429574</ele>
        <time>2021-04-30T03:49:57.772Z</time>
      </trkpt>
      <trkpt lat="46.65579" lon="6.06504">
        <ele>862.203254</ele>
        <time>2021-04-30T03:50:02.917Z</time>
      </trkpt>
      <trkpt lat="46.65549" lon="6.06456">
        <ele>862.444227</ele>
        <time>2021-04-30T03:50:14.543Z</time>
      </trkpt>
      <trkpt lat="46.65515" lon="6.0642">
        <ele>862.667905</ele>
        <time>2021-04-30T03:50:27.087Z</time>
      </trkpt>
      <trkpt lat="46.65501" lon="6.06405">
        <ele>862.759386</ele>
        <time>2021-04-30T03:50:32.107Z</time>
      </trkpt>
      <trkpt lat="46.65492" lon="6.06395">
        <ele>862.817281</ele>
        <time>2021-04-30T03:50:35.304Z</time>
      </trkpt>
      <trkpt lat="46.65486" lon="6.06389">
        <ele>862.859393</ele>
        <time>2021-04-30T03:50:37.756Z</time>
      </trkpt>
      <trkpt lat="46.65447" lon="6.0635">
        <ele>863.112476</ele>
        <time>2021-04-30T03:50:53.420Z</time>
      </trkpt>
      <trkpt lat="46.65402" lon="6.06303">
        <ele>864.711538</ele>
        <time>2021-04-30T03:51:13.168Z</time>
      </trkpt>
      <trkpt lat="46.65388" lon="6.06289">
        <ele>865.215287</ele>
        <time>2021-04-30T03:51:18.925Z</time>
      </trkpt>
      <trkpt lat="46.65378" lon="6.06279">
        <ele>865.587733</ele>
        <time>2021-04-30T03:51:23.987Z</time>
      </trkpt>
      <trkpt lat="46.65362" lon="6.06261">
        <ele>866.19672</ele>
        <time>2021-04-30T03:51:33.581Z</time>
      </trkpt>
      <trkpt lat="46.65348" lon="6.06247">
        <ele>866.696579</ele>
        <time>2021-04-30T03:51:40.957Z</time>
      </trkpt>
      <trkpt lat="46.65321" lon="6.06221">
        <ele>867.665581</ele>
        <time>2021-04-30T03:51:55.989Z</time>
      </trkpt>
      <trkpt lat="46.65246" lon="6.0618">
        <ele>870.097089</ele>
        <time>2021-04-30T03:52:32.418Z</time>
      </trkpt>
      <trkpt lat="46.65232" lon="6.06171">
        <ele>870.566277</ele>
        <time>2021-04-30T03:52:40.572Z</time>
      </trkpt>
      <trkpt lat="46.65219" lon="6.06161">
        <ele>870.989941</ele>
        <time>2021-04-30T03:52:46.455Z</time>
      </trkpt>
      <trkpt lat="46.65126" lon="6.06028">
        <ele>873.759222</ele>
        <time>2021-04-30T03:53:36.906Z</time>
      </trkpt>
      <trkpt lat="46.65057" lon="6.05992">
        <ele>873.278456</ele>
        <time>2021-04-30T03:53:54.174Z</time>
      </trkpt>
      <trkpt lat="46.65034" lon="6.05963">
        <ele>873.080079</ele>
        <time>2021-04-30T03:54:00.930Z</time>
      </trkpt>
      <trkpt lat="46.64934" lon="6.05699">
        <ele>868.103961</ele>
        <time>2021-04-30T03:54:42.943Z</time>
      </trkpt>
      <trkpt lat="46.6489" lon="6.05622">
        <ele>865.057123</ele>
        <time>2021-04-30T03:54:55.632Z</time>
      </trkpt>
      <trkpt lat="46.64874" lon="6.05597">
        <ele>863.856417</ele>
        <time>2021-04-30T03:55:00.169Z</time>
      </trkpt>
      <trkpt lat="46.64826" lon="6.05522">
        <ele>860.413934</ele>
        <time>2021-04-30T03:55:12.718Z</time>
      </trkpt>
      <trkpt lat="46.64818" lon="6.05506">
        <ele>859.730319</ele>
        <time>2021-04-30T03:55:15.079Z</time>
      </trkpt>
      <trkpt lat="46.64769" lon="6.05395">
        <ele>854.919653</ele>
        <time>2021-04-30T03:55:31.196Z</time>
      </trkpt>
      <trkpt lat="46.64708" lon="6.05322">
        <ele>850.626817</ele>
        <time>2021-04-30T03:55:45.247Z</time>
      </trkpt>
      <trkpt lat="46.64688" lon="6.05276">
        <ele>848.724409</ele>
        <time>2021-04-30T03:55:52.181Z</time>
      </trkpt>
      <trkpt lat="46.64671" lon="6.05208">
        <ele>847.010674</ele>
        <time>2021-04-30T03:56:01.456Z</time>
      </trkpt>
      <trkpt lat="46.64629" lon="6.05142">
        <ele>844.834553</ele>
        <time>2021-04-30T03:56:13.962Z</time>
      </trkpt>
      <trkpt lat="46.64622" lon="6.0513">
        <ele>844.4696</ele>
        <time>2021-04-30T03:56:15.872Z</time>
      </trkpt>
      <trkpt lat="46.64618" lon="6.05121">
        <ele>844.212376</ele>
        <time>2021-04-30T03:56:17.411Z</time>
      </trkpt>
      <trkpt lat="46.64612" lon="6.05097">
        <ele>843.610153</ele>
        <time>2021-04-30T03:56:21.189Z</time>
      </trkpt>
      <trkpt lat="46.64598" lon="6.05032">
        <ele>842.085867</ele>
        <time>2021-04-30T03:56:30.106Z</time>
      </trkpt>
      <trkpt lat="46.64587" lon="6.05008">
        <ele>841.515301</ele>
        <time>2021-04-30T03:56:34.096Z</time>
      </trkpt>
      <trkpt lat="46.64575" lon="6.0497">
        <ele>840.673761</ele>
        <time>2021-04-30T03:56:39.639Z</time>
      </trkpt>
      <trkpt lat="46.64561" lon="6.04891">
        <ele>839.036902</ele>
        <time>2021-04-30T03:56:50.947Z</time>
      </trkpt>
      <trkpt lat="46.64552" lon="6.0486">
        <ele>838.368011</ele>
        <time>2021-04-30T03:56:55.566Z</time>
      </trkpt>
      <trkpt lat="46.64546" lon="6.04836">
        <ele>837.855018</ele>
        <time>2021-04-30T03:56:59.052Z</time>
      </trkpt>
      <trkpt lat="46.6454" lon="6.04794">
        <ele>837.278442</ele>
        <time>2021-04-30T03:57:04.998Z</time>
      </trkpt>
      <trkpt lat="46.6454" lon="6.0465">
        <ele>836.204386</ele>
        <time>2021-04-30T03:57:25.983Z</time>
      </trkpt>
      <trkpt lat="46.64551" lon="6.04544">
        <ele>835.548692</ele>
        <time>2021-04-30T03:57:47.680Z</time>
      </trkpt>
      <trkpt lat="46.64547" lon="6.04487">
        <ele>835.869368</ele>
        <time>2021-04-30T03:58:00.223Z</time>
      </trkpt>
      <trkpt lat="46.64523" lon="6.04339">
        <ele>836.714177</ele>
        <time>2021-04-30T03:58:33.551Z</time>
      </trkpt>
      <trkpt lat="46.64499" lon="6.04245">
        <ele>836.590363</ele>
        <time>2021-04-30T03:58:53.643Z</time>
      </trkpt>
      <trkpt lat="46.64484" lon="6.0413">
        <ele>835.886606</ele>
        <time>2021-04-30T03:59:13.817Z</time>
      </trkpt>
      <trkpt lat="46.64461" lon="6.04045">
        <ele>835.22707</ele>
        <time>2021-04-30T03:59:27.162Z</time>
      </trkpt>
      <trkpt lat="46.64407" lon="6.03889">
        <ele>830.743425</ele>
        <time>2021-04-30T03:59:50.055Z</time>
      </trkpt>
      <trkpt lat="46.644" lon="6.03871">
        <ele>830.215416</ele>
        <time>2021-04-30T03:59:52.807Z</time>
      </trkpt>
      <trkpt lat="46.64394" lon="6.03856">
        <ele>829.778207</ele>
        <time>2021-04-30T03:59:54.813Z</time>
      </trkpt>
      <trkpt lat="46.64343" lon="6.03759">
        <ele>826.532355</ele>
        <time>2021-04-30T04:00:10.393Z</time>
      </trkpt>
      <trkpt lat="46.64295" lon="6.03708">
        <ele>824.184819</ele>
        <time>2021-04-30T04:00:21.308Z</time>
      </trkpt>
      <trkpt lat="46.64244" lon="6.03696">
        <ele>822.176883</ele>
        <time>2021-04-30T04:00:31.426Z</time>
      </trkpt>
      <trkpt lat="46.64184" lon="6.03702">
        <ele>820.122466</ele>
        <time>2021-04-30T04:00:44.146Z</time>
      </trkpt>
      <trkpt lat="46.64089" lon="6.0362">
        <ele>816.510564</ele>
        <time>2021-04-30T04:01:06.143Z</time>
      </trkpt>
      <trkpt lat="46.64084" lon="6.03619">
        <ele>816.344805</ele>
        <time>2021-04-30T04:01:07.069Z</time>
      </trkpt>
      <trkpt lat="46.64077" lon="6.03619">
        <ele>816.146165</ele>
        <time>2021-04-30T04:01:08.025Z</time>
      </trkpt>
      <trkpt lat="46.64071" lon="6.03622">
        <ele>815.93612</ele>
        <time>2021-04-30T04:01:09.503Z</time>
      </trkpt>
      <trkpt lat="46.64057" lon="6.03628">
        <ele>815.247291</ele>
        <time>2021-04-30T04:01:13.191Z</time>
      </trkpt>
      <trkpt lat="46.64054" lon="6.03629">
        <ele>815.108004</ele>
        <time>2021-04-30T04:01:13.598Z</time>
      </trkpt>
      <trkpt lat="46.64002" lon="6.03602">
        <ele>812.204434</ele>
        <time>2021-04-30T04:01:23.382Z</time>
      </trkpt>
      <trkpt lat="46.63977" lon="6.03555">
        <ele>810.045758</ele>
        <time>2021-04-30T04:01:30.835Z</time>
      </trkpt>
      <trkpt lat="46.63963" lon="6.0354">
        <ele>809.108857</ele>
        <time>2021-04-30T04:01:33.976Z</time>
      </trkpt>
      <trkpt lat="46.63961" lon="6.03538">
        <ele>808.975516</ele>
        <time>2021-04-30T04:01:34.372Z</time>
      </trkpt>
      <trkpt lat="46.63959" lon="6.03537">
        <ele>808.872231</ele>
        <time>2021-04-30T04:01:34.656Z</time>
      </trkpt>
      <trkpt lat="46.63838" lon="6.03508">
        <ele>803.556584</ele>
        <time>2021-04-30T04:01:56.775Z</time>
      </trkpt>
      <trkpt lat="46.63834" lon="6.03505">
        <ele>803.374542</ele>
        <time>2021-04-30T04:01:57.632Z</time>
      </trkpt>
      <trkpt lat="46.63829" lon="6.035">
        <ele>803.151828</ele>
        <time>2021-04-30T04:01:58.951Z</time>
      </trkpt>
      <trkpt lat="46.63825" lon="6.03494">
        <ele>802.935239</ele>
        <time>2021-04-30T04:02:00.230Z</time>
      </trkpt>
      <trkpt lat="46.63812" lon="6.03475">
        <ele>802.273763</ele>
        <time>2021-04-30T04:02:03.349Z</time>
      </trkpt>
      <trkpt lat="46.63783" lon="6.0343">
        <ele>800.692257</ele>
        <time>2021-04-30T04:02:12.057Z</time>
      </trkpt>
      <trkpt lat="46.63773" lon="6.03415">
        <ele>800.170537</ele>
        <time>2021-04-30T04:02:15.390Z</time>
      </trkpt>
      <trkpt lat="46.63759" lon="6.03392">
        <ele>799.542799</ele>
        <time>2021-04-30T04:02:20.080Z</time>
      </trkpt>
      <trkpt lat="46.63742" lon="6.0336">
        <ele>799.392977</ele>
        <time>2021-04-30T04:02:26.922Z</time>
      </trkpt>
      <trkpt lat="46.63741" lon="6.03354">
        <ele>799.368416</ele>
        <time>2021-04-30T04:02:27.877Z</time>
      </trkpt>
      <trkpt lat="46.63738" lon="6.03341">
        <ele>799.317084</ele>
        <time>2021-04-30T04:02:30.410Z</time>
      </trkpt>
      <trkpt lat="46.63722" lon="6.03264">
        <ele>799.012853</ele>
        <time>2021-04-30T04:02:45.258Z</time>
      </trkpt>
      <trkpt lat="46.63725" lon="6.03206">
        <ele>798.79576</ele>
        <time>2021-04-30T04:02:55.083Z</time>
      </trkpt>
      <trkpt lat="46.63726" lon="6.03197">
        <ele>798.762929</ele>
        <time>2021-04-30T04:02:56.635Z</time>
      </trkpt>
      <trkpt lat="46.63726" lon="6.03196">
        <ele>798.75803</ele>
        <time>2021-04-30T04:02:57.309Z</time>
      </trkpt>
      <trkpt lat="46.63722" lon="6.03161">
        <ele>798.625099</ele>
        <time>2021-04-30T04:03:02.820Z</time>
      </trkpt>
      <trkpt lat="46.6372" lon="6.03149">
        <ele>798.583473</ele>
        <time>2021-04-30T04:03:04.932Z</time>
      </trkpt>
      <trkpt lat="46.63719" lon="6.03146">
        <ele>798.580349</ele>
        <time>2021-04-30T04:03:05.874Z</time>
      </trkpt>
      <trkpt lat="46.63714" lon="6.03125">
        <ele>798.561955</ele>
        <time>2021-04-30T04:03:09.425Z</time>
      </trkpt>
      <trkpt lat="46.63711" lon="6.03116">
        <ele>798.553145</ele>
        <time>2021-04-30T04:03:11.027Z</time>
      </trkpt>
      <trkpt lat="46.6371" lon="6.03115">
        <ele>798.55202</ele>
        <time>2021-04-30T04:03:11.189Z</time>
      </trkpt>
      <trkpt lat="46.63682" lon="6.03066">
        <ele>798.498052</ele>
        <time>2021-04-30T04:03:22.501Z</time>
      </trkpt>
      <trkpt lat="46.63681" lon="6.0306">
        <ele>798.492897</ele>
        <time>2021-04-30T04:03:23.638Z</time>
      </trkpt>
      <trkpt lat="46.63681" lon="6.03053">
        <ele>798.487157</ele>
        <time>2021-04-30T04:03:25.125Z</time>
      </trkpt>
      <trkpt lat="46.63683" lon="6.03047">
        <ele>798.482012</ele>
        <time>2021-04-30T04:03:26.219Z</time>
      </trkpt>
      <trkpt lat="46.63684" lon="6.03044">
        <ele>798.478116</ele>
        <time>2021-04-30T04:03:27.173Z</time>
      </trkpt>
      <trkpt lat="46.63689" lon="6.03037">
        <ele>798.470213</ele>
        <time>2021-04-30T04:03:28.800Z</time>
      </trkpt>
      <trkpt lat="46.63693" lon="6.03034">
        <ele>798.465138</ele>
        <time>2021-04-30T04:03:29.707Z</time>
      </trkpt>
      <trkpt lat="46.63713" lon="6.03031">
        <ele>798.439449</ele>
        <time>2021-04-30T04:03:36.025Z</time>
      </trkpt>
      <trkpt lat="46.63723" lon="6.03029">
        <ele>798.427582</ele>
        <time>2021-04-30T04:03:38.131Z</time>
      </trkpt>
      <trkpt lat="46.63758" lon="6.03031">
        <ele>798.384827</ele>
        <time>2021-04-30T04:03:47.523Z</time>
      </trkpt>
      <trkpt lat="46.63775" lon="6.03029">
        <ele>798.370222</ele>
        <time>2021-04-30T04:03:51.673Z</time>
      </trkpt>
      <trkpt lat="46.63783" lon="6.03026">
        <ele>798.578832</ele>
        <time>2021-04-30T04:03:54.329Z</time>
      </trkpt>
      <trkpt lat="46.6379" lon="6.03016">
        <ele>798.852893</ele>
        <time>2021-04-30T04:03:56.949Z</time>
      </trkpt>
      <trkpt lat="46.63814" lon="6.02955">
        <ele>800.142956</ele>
        <time>2021-04-30T04:04:12.003Z</time>
      </trkpt>
      <trkpt lat="46.63821" lon="6.02938">
        <ele>800.516196</ele>
        <time>2021-04-30T04:04:18.204Z</time>
      </trkpt>
      <trkpt lat="46.63834" lon="6.02953">
        <ele>800.945459</ele>
        <time>2021-04-30T04:04:24.713Z</time>
      </trkpt>
      <trkpt lat="46.63837" lon="6.02955">
        <ele>801.032119</ele>
        <time>2021-04-30T04:04:25.664Z</time>
      </trkpt>
      <trkpt lat="46.63834" lon="6.02953">
        <ele>801.118779</ele>
        <time>2021-04-30T04:04:26.924Z</time>
      </trkpt>
      <trkpt lat="46.63821" lon="6.02938">
        <ele>801.548041</ele>
        <time>2021-04-30T04:04:34.312Z</time>
      </trkpt>
      <trkpt lat="46.63836" lon="6.02909">
        <ele>802.208481</ele>
        <time>2021-04-30T04:04:45.443Z</time>
      </trkpt>
      <trkpt lat="46.63841" lon="6.02899">
        <ele>802.431141</ele>
        <time>2021-04-30T04:04:49.717Z</time>
      </trkpt>
      <trkpt lat="46.63847" lon="6.02887">
        <ele>802.702507</ele>
        <time>2021-04-30T04:04:54.933Z</time>
      </trkpt>
      <trkpt lat="46.63869" lon="6.02853">
        <ele>803.891633</ele>
        <time>2021-04-30T04:05:10.326Z</time>
      </trkpt>
      <trkpt lat="46.63867" lon="6.02843">
        <ele>804.220217</ele>
        <time>2021-04-30T04:05:14.475Z</time>
      </trkpt>
      <trkpt lat="46.63901" lon="6.02716">
        <ele>808.83146</ele>
        <time>2021-04-30T04:06:03.192Z</time>
      </trkpt>
      <trkpt lat="46.63951" lon="6.02662">
        <ele>811.856573</ele>
        <time>2021-04-30T04:06:34.965Z</time>
      </trkpt>
      <trkpt lat="46.63955" lon="6.02637">
        <ele>812.810387</ele>
        <time>2021-04-30T04:06:42.583Z</time>
      </trkpt>
      <trkpt lat="46.63953" lon="6.02612">
        <ele>813.77759</ele>
        <time>2021-04-30T04:06:49.811Z</time>
      </trkpt>
      <trkpt lat="46.63943" lon="6.02571">
        <ele>815.425441</ele>
        <time>2021-04-30T04:07:04.049Z</time>
      </trkpt>
      <trkpt lat="46.63936" lon="6.02561">
        <ele>815.952701</ele>
        <time>2021-04-30T04:07:08.434Z</time>
      </trkpt>
      <trkpt lat="46.63925" lon="6.02552">
        <ele>816.657253</ele>
        <time>2021-04-30T04:07:15.367Z</time>
      </trkpt>
      <trkpt lat="46.6389" lon="6.02548">
        <ele>818.57598</ele>
        <time>2021-04-30T04:07:34.359Z</time>
      </trkpt>
      <trkpt lat="46.63875" lon="6.0254">
        <ele>819.501943</ele>
        <time>2021-04-30T04:07:43.822Z</time>
      </trkpt>
      <trkpt lat="46.63863" lon="6.02512">
        <ele>820.751523</ele>
        <time>2021-04-30T04:07:57.265Z</time>
      </trkpt>
      <trkpt lat="46.63861" lon="6.02482">
        <ele>821.920112</ele>
        <time>2021-04-30T04:08:09.554Z</time>
      </trkpt>
      <trkpt lat="46.63855" lon="6.02367">
        <ele>827.612917</ele>
        <time>2021-04-30T04:08:58.539Z</time>
      </trkpt>
      <trkpt lat="46.63848" lon="6.02321">
        <ele>829.97256</ele>
        <time>2021-04-30T04:09:19.156Z</time>
      </trkpt>
      <trkpt lat="46.63837" lon="6.02302">
        <ele>831.189897</ele>
        <time>2021-04-30T04:09:30.191Z</time>
      </trkpt>
      <trkpt lat="46.63784" lon="6.0225">
        <ele>835.387464</ele>
        <time>2021-04-30T04:10:11.244Z</time>
      </trkpt>
      <trkpt lat="46.63764" lon="6.02238">
        <ele>836.177245</ele>
        <time>2021-04-30T04:10:22.888Z</time>
      </trkpt>
      <trkpt lat="46.63737" lon="6.02246">
        <ele>837.232091</ele>
        <time>2021-04-30T04:10:36.883Z</time>
      </trkpt>
      <trkpt lat="46.63664" lon="6.02336">
        <ele>840.84005</ele>
        <time>2021-04-30T04:11:13.303Z</time>
      </trkpt>
      <trkpt lat="46.63637" lon="6.02362">
        <ele>842.119156</ele>
        <time>2021-04-30T04:11:25.371Z</time>
      </trkpt>
      <trkpt lat="46.63619" lon="6.02372">
        <ele>842.918416</ele>
        <time>2021-04-30T04:11:32.466Z</time>
      </trkpt>
      <trkpt lat="46.63598" lon="6.0237">
        <ele>843.754771</ele>
        <time>2021-04-30T04:11:39.731Z</time>
      </trkpt>
      <trkpt lat="46.63584" lon="6.02361">
        <ele>844.407723</ele>
        <time>2021-04-30T04:11:45.654Z</time>
      </trkpt>
      <trkpt lat="46.63567" lon="6.02331">
        <ele>845.48432</ele>
        <time>2021-04-30T04:11:59.583Z</time>
      </trkpt>
      <trkpt lat="46.63554" lon="6.02318">
        <ele>846.16011</ele>
        <time>2021-04-30T04:12:06.984Z</time>
      </trkpt>
      <trkpt lat="46.63547" lon="6.02316">
        <ele>846.439967</ele>
        <time>2021-04-30T04:12:11.003Z</time>
      </trkpt>
      <trkpt lat="46.63516" lon="6.02311">
        <ele>847.721613</ele>
        <time>2021-04-30T04:12:26.057Z</time>
      </trkpt>
      <trkpt lat="46.635" lon="6.02299">
        <ele>848.451052</ele>
        <time>2021-04-30T04:12:35.550Z</time>
      </trkpt>
      <trkpt lat="46.63471" lon="6.0225">
        <ele>850.979427</ele>
        <time>2021-04-30T04:12:58.676Z</time>
      </trkpt>
      <trkpt lat="46.63462" lon="6.02236">
        <ele>851.838686</ele>
        <time>2021-04-30T04:13:07.109Z</time>
      </trkpt>
      <trkpt lat="46.63458" lon="6.02231">
        <ele>852.190304</ele>
        <time>2021-04-30T04:13:11.665Z</time>
      </trkpt>
      <trkpt lat="46.6341" lon="6.02219">
        <ele>855.388376</ele>
        <time>2021-04-30T04:13:40.420Z</time>
      </trkpt>
      <trkpt lat="46.63345" lon="6.02251">
        <ele>859.890561</ele>
        <time>2021-04-30T04:14:22.074Z</time>
      </trkpt>
      <trkpt lat="46.63318" lon="6.02247">
        <ele>861.539531</ele>
        <time>2021-04-30T04:14:39.183Z</time>
      </trkpt>
      <trkpt lat="46.63303" lon="6.02231">
        <ele>862.59127</ele>
        <time>2021-04-30T04:14:47.904Z</time>
      </trkpt>
      <trkpt lat="46.63259" lon="6.02131">
        <ele>867.31891</ele>
        <time>2021-04-30T04:15:29.570Z</time>
      </trkpt>
      <trkpt lat="46.63218" lon="6.02072">
        <ele>870.634289</ele>
        <time>2021-04-30T04:16:01.132Z</time>
      </trkpt>
      <trkpt lat="46.63205" lon="6.02008">
        <ele>873.383189</ele>
        <time>2021-04-30T04:16:27.614Z</time>
      </trkpt>
      <trkpt lat="46.63196" lon="6.01986">
        <ele>874.489461</ele>
        <time>2021-04-30T04:16:38.529Z</time>
      </trkpt>
      <trkpt lat="46.63174" lon="6.01975">
        <ele>875.857376</ele>
        <time>2021-04-30T04:16:50.898Z</time>
      </trkpt>
      <trkpt lat="46.63143" lon="6.01987">
        <ele>877.842334</ele>
        <time>2021-04-30T04:17:09.409Z</time>
      </trkpt>
      <trkpt lat="46.6313" lon="6.01994">
        <ele>878.674362</ele>
        <time>2021-04-30T04:17:18.556Z</time>
      </trkpt>
      <trkpt lat="46.63119" lon="6.01996">
        <ele>879.312794</ele>
        <time>2021-04-30T04:17:23.362Z</time>
      </trkpt>
      <trkpt lat="46.63104" lon="6.01996">
        <ele>880.230463</ele>
        <time>2021-04-30T04:17:32.747Z</time>
      </trkpt>
      <trkpt lat="46.63008" lon="6.01972">
        <ele>884.681294</ele>
        <time>2021-04-30T04:18:22.463Z</time>
      </trkpt>
      <trkpt lat="46.62998" lon="6.01964">
        <ele>885.115334</ele>
        <time>2021-04-30T04:18:29.075Z</time>
      </trkpt>
      <trkpt lat="46.62989" lon="6.01955">
        <ele>885.536031</ele>
        <time>2021-04-30T04:18:34.462Z</time>
      </trkpt>
      <trkpt lat="46.62973" lon="6.01924">
        <ele>886.544712</ele>
        <time>2021-04-30T04:18:45.739Z</time>
      </trkpt>
      <trkpt lat="46.62931" lon="6.0181">
        <ele>889.301894</ele>
        <time>2021-04-30T04:19:18.672Z</time>
      </trkpt>
      <trkpt lat="46.62924" lon="6.01797">
        <ele>889.437209</ele>
        <time>2021-04-30T04:19:22.870Z</time>
      </trkpt>
      <trkpt lat="46.6287" lon="6.01742">
        <ele>890.186605</ele>
        <time>2021-04-30T04:19:43.899Z</time>
      </trkpt>
      <trkpt lat="46.62863" lon="6.01733">
        <ele>890.288304</ele>
        <time>2021-04-30T04:19:46.370Z</time>
      </trkpt>
      <trkpt lat="46.62853" lon="6.01719">
        <ele>890.454874</ele>
        <time>2021-04-30T04:19:50.997Z</time>
      </trkpt>
      <trkpt lat="46.62831" lon="6.01687">
        <ele>890.804648</ele>
        <time>2021-04-30T04:19:59.622Z</time>
      </trkpt>
      <trkpt lat="46.6282" lon="6.01661">
        <ele>891.048293</ele>
        <time>2021-04-30T04:20:05.371Z</time>
      </trkpt>
      <trkpt lat="46.62803" lon="6.01535">
        <ele>892.031156</ele>
        <time>2021-04-30T04:20:33.606Z</time>
      </trkpt>
      <trkpt lat="46.62789" lon="6.01454">
        <ele>892.666071</ele>
        <time>2021-04-30T04:20:52.079Z</time>
      </trkpt>
      <trkpt lat="46.62779" lon="6.01401">
        <ele>893.081062</ele>
        <time>2021-04-30T04:21:04.457Z</time>
      </trkpt>
      <trkpt lat="46.62775" lon="6.01373">
        <ele>893.422166</ele>
        <time>2021-04-30T04:21:11.272Z</time>
      </trkpt>
      <trkpt lat="46.62767" lon="6.0134">
        <ele>893.84307</ele>
        <time>2021-04-30T04:21:19.478Z</time>
      </trkpt>
      <trkpt lat="46.62715" lon="6.01119">
        <ele>896.617015</ele>
        <time>2021-04-30T04:22:16.697Z</time>
      </trkpt>
      <trkpt lat="46.62712" lon="6.01103">
        <ele>896.816531</ele>
        <time>2021-04-30T04:22:20.783Z</time>
      </trkpt>
      <trkpt lat="46.62711" lon="6.01098">
        <ele>896.874989</ele>
        <time>2021-04-30T04:22:22.081Z</time>
      </trkpt>
      <trkpt lat="46.62708" lon="6.00989">
        <ele>898.136417</ele>
        <time>2021-04-30T04:22:47.954Z</time>
      </trkpt>
      <trkpt lat="46.62717" lon="6.00957">
        <ele>898.536695</ele>
        <time>2021-04-30T04:22:56.184Z</time>
      </trkpt>
      <trkpt lat="46.62772" lon="6.00824">
        <ele>899.518947</ele>
        <time>2021-04-30T04:23:33.328Z</time>
      </trkpt>
      <trkpt lat="46.62771" lon="6.00681">
        <ele>899.934556</ele>
        <time>2021-04-30T04:24:00.927Z</time>
      </trkpt>
      <trkpt lat="46.62784" lon="6.0059">
        <ele>898.747154</ele>
        <time>2021-04-30T04:24:14.746Z</time>
      </trkpt>
      <trkpt lat="46.62785" lon="6.00581">
        <ele>898.576136</ele>
        <time>2021-04-30T04:24:15.981Z</time>
      </trkpt>
      <trkpt lat="46.62785" lon="6.00536">
        <ele>897.731119</ele>
        <time>2021-04-30T04:24:22.373Z</time>
      </trkpt>
      <trkpt lat="46.6278" lon="6.00519">
        <ele>897.386797</ele>
        <time>2021-04-30T04:24:24.889Z</time>
      </trkpt>
      <trkpt lat="46.62776" lon="6.00512">
        <ele>897.226861</ele>
        <time>2021-04-30T04:24:26.128Z</time>
      </trkpt>
      <trkpt lat="46.62771" lon="6.00504">
        <ele>897.019502</ele>
        <time>2021-04-30T04:24:27.756Z</time>
      </trkpt>
      <trkpt lat="46.62766" lon="6.00506">
        <ele>896.858798</ele>
        <time>2021-04-30T04:24:28.825Z</time>
      </trkpt>
      <trkpt lat="46.62709" lon="6.00489">
        <ele>895.29737</ele>
        <time>2021-04-30T04:24:40.408Z</time>
      </trkpt>
      <trkpt lat="46.62594" lon="6.0034">
        <ele>889.400357</ele>
        <time>2021-04-30T04:25:10.709Z</time>
      </trkpt>
      <trkpt lat="46.62578" lon="6.00318">
        <ele>888.567027</ele>
        <time>2021-04-30T04:25:15.118Z</time>
      </trkpt>
      <trkpt lat="46.62566" lon="6.00311">
        <ele>888.12322</ele>
        <time>2021-04-30T04:25:17.654Z</time>
      </trkpt>
      <trkpt lat="46.6255" lon="6.00301">
        <ele>887.77423</ele>
        <time>2021-04-30T04:25:21.085Z</time>
      </trkpt>
      <trkpt lat="46.62532" lon="6.00285">
        <ele>887.348737</ele>
        <time>2021-04-30T04:25:25.414Z</time>
      </trkpt>
      <trkpt lat="46.6253" lon="6.00282">
        <ele>887.292304</ele>
        <time>2021-04-30T04:25:25.914Z</time>
      </trkpt>
      <trkpt lat="46.62527" lon="6.00275">
        <ele>887.172759</ele>
        <time>2021-04-30T04:25:27.154Z</time>
      </trkpt>
      <trkpt lat="46.62521" lon="6.00247">
        <ele>886.782038</ele>
        <time>2021-04-30T04:25:31.218Z</time>
      </trkpt>
      <trkpt lat="46.62515" lon="6.00204">
        <ele>886.171986</ele>
        <time>2021-04-30T04:25:37.602Z</time>
      </trkpt>
      <trkpt lat="46.62513" lon="6.00188">
        <ele>885.95331</ele>
        <time>2021-04-30T04:25:39.953Z</time>
      </trkpt>
      <trkpt lat="46.62494" lon="6.00117">
        <ele>884.912085</ele>
        <time>2021-04-30T04:25:51.464Z</time>
      </trkpt>
      <trkpt lat="46.6249" lon="6.00103">
        <ele>884.706862</ele>
        <time>2021-04-30T04:25:53.935Z</time>
      </trkpt>
      <trkpt lat="46.62476" lon="6.00063">
        <ele>884.716422</ele>
        <time>2021-04-30T04:26:01.602Z</time>
      </trkpt>
      <trkpt lat="46.62424" lon="5.99892">
        <ele>885.362656</ele>
        <time>2021-04-30T04:26:38.748Z</time>
      </trkpt>
      <trkpt lat="46.62334" lon="5.99698">
        <ele>888.18162</ele>
        <time>2021-04-30T04:27:37.594Z</time>
      </trkpt>
      <trkpt lat="46.62314" lon="5.99585">
        <ele>889.455743</ele>
        <time>2021-04-30T04:28:08.460Z</time>
      </trkpt>
      <trkpt lat="46.62293" lon="5.99559">
        <ele>889.750006</ele>
        <time>2021-04-30T04:28:18.094Z</time>
      </trkpt>
      <trkpt lat="46.62265" lon="5.99546">
        <ele>890.065612</ele>
        <time>2021-04-30T04:28:27.593Z</time>
      </trkpt>
      <trkpt lat="46.62254" lon="5.99545">
        <ele>890.187387</ele>
        <time>2021-04-30T04:28:31.634Z</time>
      </trkpt>
      <trkpt lat="46.62243" lon="5.99545">
        <ele>890.30377</ele>
        <time>2021-04-30T04:28:34.571Z</time>
      </trkpt>
      <trkpt lat="46.62196" lon="5.99547">
        <ele>890.805366</ele>
        <time>2021-04-30T04:28:47.878Z</time>
      </trkpt>
      <trkpt lat="46.62164" lon="5.99541">
        <ele>890.834391</ele>
        <time>2021-04-30T04:28:56.227Z</time>
      </trkpt>
      <trkpt lat="46.62144" lon="5.99531">
        <ele>890.561788</ele>
        <time>2021-04-30T04:29:01.576Z</time>
      </trkpt>
      <trkpt lat="46.6213" lon="5.99524">
        <ele>890.369283</ele>
        <time>2021-04-30T04:29:05.009Z</time>
      </trkpt>
      <trkpt lat="46.62106" lon="5.9951">
        <ele>890.04299</ele>
        <time>2021-04-30T04:29:10.838Z</time>
      </trkpt>
      <trkpt lat="46.62049" lon="5.99477">
        <ele>889.2489</ele>
        <time>2021-04-30T04:29:24.001Z</time>
      </trkpt>
      <trkpt lat="46.62001" lon="5.99413">
        <ele>888.376132</ele>
        <time>2021-04-30T04:29:37.790Z</time>
      </trkpt>
      <trkpt lat="46.61968" lon="5.99379">
        <ele>887.802324</ele>
        <time>2021-04-30T04:29:46.576Z</time>
      </trkpt>
      <trkpt lat="46.61952" lon="5.99358">
        <ele>887.498042</ele>
        <time>2021-04-30T04:29:51.274Z</time>
      </trkpt>
      <trkpt lat="46.61944" lon="5.99336">
        <ele>887.247489</ele>
        <time>2021-04-30T04:29:55.379Z</time>
      </trkpt>
      <trkpt lat="46.61938" lon="5.99322">
        <ele>887.089929</ele>
        <time>2021-04-30T04:29:57.754Z</time>
      </trkpt>
      <trkpt lat="46.61937" lon="5.99318">
        <ele>887.041974</ele>
        <time>2021-04-30T04:29:58.569Z</time>
      </trkpt>
      <trkpt lat="46.61895" lon="5.99218">
        <ele>886.054439</ele>
        <time>2021-04-30T04:30:16.750Z</time>
      </trkpt>
      <trkpt lat="46.61877" lon="5.99162">
        <ele>885.883004</ele>
        <time>2021-04-30T04:30:26.499Z</time>
      </trkpt>
      <trkpt lat="46.61867" lon="5.9912">
        <ele>885.759671</ele>
        <time>2021-04-30T04:30:33.873Z</time>
      </trkpt>
      <trkpt lat="46.61864" lon="5.99121">
        <ele>885.746098</ele>
        <time>2021-04-30T04:30:34.605Z</time>
      </trkpt>
      <trkpt lat="46.61818" lon="5.99137">
        <ele>885.555884</ele>
        <time>2021-04-30T04:30:47.090Z</time>
      </trkpt>
      <trkpt lat="46.6179" lon="5.99132">
        <ele>885.445599</ele>
        <time>2021-04-30T04:30:55.130Z</time>
      </trkpt>
      <trkpt lat="46.61785" lon="5.99125">
        <ele>885.419206</ele>
        <time>2021-04-30T04:30:56.997Z</time>
      </trkpt>
      <trkpt lat="46.61782" lon="5.99119">
        <ele>885.397405</ele>
        <time>2021-04-30T04:30:58.689Z</time>
      </trkpt>
      <trkpt lat="46.61766" lon="5.99049">
        <ele>886.52775</ele>
        <time>2021-04-30T04:31:15.158Z</time>
      </trkpt>
      <trkpt lat="46.61762" lon="5.99043">
        <ele>886.6646</ele>
        <time>2021-04-30T04:31:17.813Z</time>
      </trkpt>
      <trkpt lat="46.61752" lon="5.99045">
        <ele>886.897747</ele>
        <time>2021-04-30T04:31:21.919Z</time>
      </trkpt>
      <trkpt lat="46.61715" lon="5.99061">
        <ele>887.768097</ele>
        <time>2021-04-30T04:31:37.330Z</time>
      </trkpt>
      <trkpt lat="46.61654" lon="5.99082">
        <ele>889.20729</ele>
        <time>2021-04-30T04:32:04.396Z</time>
      </trkpt>
      <trkpt lat="46.61628" lon="5.99097">
        <ele>889.853186</ele>
        <time>2021-04-30T04:32:15.587Z</time>
      </trkpt>
      <trkpt lat="46.61623" lon="5.99103">
        <ele>890.005532</ele>
        <time>2021-04-30T04:32:19.328Z</time>
      </trkpt>
      <trkpt lat="46.61618" lon="5.99109">
        <ele>890.177344</ele>
        <time>2021-04-30T04:32:22.792Z</time>
      </trkpt>
      <trkpt lat="46.61611" lon="5.99125">
        <ele>890.48894</ele>
        <time>2021-04-30T04:32:27.855Z</time>
      </trkpt>
      <trkpt lat="46.61602" lon="5.9915">
        <ele>890.944708</ele>
        <time>2021-04-30T04:32:37.240Z</time>
      </trkpt>
      <trkpt lat="46.61592" lon="5.99175">
        <ele>891.416939</ele>
        <time>2021-04-30T04:32:43.545Z</time>
      </trkpt>
      <trkpt lat="46.61546" lon="5.99319">
        <ele>893.738769</ele>
        <time>2021-04-30T04:33:26.673Z</time>
      </trkpt>
      <trkpt lat="46.61542" lon="5.99335">
        <ele>893.647583</ele>
        <time>2021-04-30T04:33:31.006Z</time>
      </trkpt>
      <trkpt lat="46.61552" lon="5.99337">
        <ele>893.567494</ele>
        <time>2021-04-30T04:33:33.401Z</time>
      </trkpt>
      <trkpt lat="46.61567" lon="5.9933">
        <ele>893.441205</ele>
        <time>2021-04-30T04:33:38.046Z</time>
      </trkpt>
      <trkpt lat="46.61552" lon="5.99337">
        <ele>893.314916</ele>
        <time>2021-04-30T04:33:42.269Z</time>
      </trkpt>
      <trkpt lat="46.61542" lon="5.99335">
        <ele>893.234827</ele>
        <time>2021-04-30T04:33:45.421Z</time>
      </trkpt>
      <trkpt lat="46.61546" lon="5.99319">
        <ele>893.143642</ele>
        <time>2021-04-30T04:33:47.826Z</time>
      </trkpt>
      <trkpt lat="46.61592" lon="5.99175">
        <ele>892.007519</ele>
        <time>2021-04-30T04:34:12.191Z</time>
      </trkpt>
      <trkpt lat="46.61602" lon="5.9915">
        <ele>891.482489</ele>
        <time>2021-04-30T04:34:17.021Z</time>
      </trkpt>
      <trkpt lat="46.61611" lon="5.99155">
        <ele>891.21116</ele>
        <time>2021-04-30T04:34:18.966Z</time>
      </trkpt>
      <trkpt lat="46.61625" lon="5.99194">
        <ele>890.408984</ele>
        <time>2021-04-30T04:34:25.223Z</time>
      </trkpt>
      <trkpt lat="46.61636" lon="5.99201">
        <ele>890.077925</ele>
        <time>2021-04-30T04:34:27.735Z</time>
      </trkpt>
      <trkpt lat="46.6165" lon="5.99194">
        <ele>889.691275</ele>
        <time>2021-04-30T04:34:30.767Z</time>
      </trkpt>
      <trkpt lat="46.61665" lon="5.99192">
        <ele>889.295158</ele>
        <time>2021-04-30T04:34:33.702Z</time>
      </trkpt>
      <trkpt lat="46.61682" lon="5.99188">
        <ele>888.84112</ele>
        <time>2021-04-30T04:34:39.990Z</time>
      </trkpt>
      <trkpt lat="46.61703" lon="5.99171">
        <ele>888.183242</ele>
        <time>2021-04-30T04:34:48.770Z</time>
      </trkpt>
      <trkpt lat="46.6171" lon="5.99163">
        <ele>887.947979</ele>
        <time>2021-04-30T04:34:50.628Z</time>
      </trkpt>
      <trkpt lat="46.61782" lon="5.99132">
        <ele>886.675701</ele>
        <time>2021-04-30T04:35:06.878Z</time>
      </trkpt>
      <trkpt lat="46.61785" lon="5.99125">
        <ele>886.590455</ele>
        <time>2021-04-30T04:35:08.061Z</time>
      </trkpt>
      <trkpt lat="46.6179" lon="5.99132">
        <ele>886.492378</ele>
        <time>2021-04-30T04:35:09.669Z</time>
      </trkpt>
      <trkpt lat="46.61818" lon="5.99137">
        <ele>886.082561</ele>
        <time>2021-04-30T04:35:15.769Z</time>
      </trkpt>
      <trkpt lat="46.61864" lon="5.99121">
        <ele>885.375735</ele>
        <time>2021-04-30T04:35:27.688Z</time>
      </trkpt>
      <trkpt lat="46.61867" lon="5.9912">
        <ele>885.325297</ele>
        <time>2021-04-30T04:35:28.904Z</time>
      </trkpt>
      <trkpt lat="46.61864" lon="5.99098">
        <ele>885.099071</ele>
        <time>2021-04-30T04:35:32.516Z</time>
      </trkpt>
      <trkpt lat="46.61871" lon="5.99003">
        <ele>884.630495</ele>
        <time>2021-04-30T04:35:49.359Z</time>
      </trkpt>
      <trkpt lat="46.61871" lon="5.98999">
        <ele>884.615603</ele>
        <time>2021-04-30T04:35:49.982Z</time>
      </trkpt>
      <trkpt lat="46.61878" lon="5.98945">
        <ele>884.416758</ele>
        <time>2021-04-30T04:35:59.455Z</time>
      </trkpt>
      <trkpt lat="46.61879" lon="5.98896">
        <ele>884.241029</ele>
        <time>2021-04-30T04:36:07.680Z</time>
      </trkpt>
      <trkpt lat="46.61871" lon="5.98842">
        <ele>884.042907</ele>
        <time>2021-04-30T04:36:16.622Z</time>
      </trkpt>
      <trkpt lat="46.61837" lon="5.98769">
        <ele>883.665487</ele>
        <time>2021-04-30T04:36:31.121Z</time>
      </trkpt>
      <trkpt lat="46.61834" lon="5.98762">
        <ele>883.628625</ele>
        <time>2021-04-30T04:36:32.429Z</time>
      </trkpt>
      <trkpt lat="46.61821" lon="5.98733">
        <ele>883.471977</ele>
        <time>2021-04-30T04:36:38.331Z</time>
      </trkpt>
      <trkpt lat="46.618" lon="5.98687">
        <ele>883.22441</ele>
        <time>2021-04-30T04:36:47.631Z</time>
      </trkpt>
      <trkpt lat="46.61784" lon="5.98646">
        <ele>883.008241</ele>
        <time>2021-04-30T04:36:55.730Z</time>
      </trkpt>
      <trkpt lat="46.61782" lon="5.98625">
        <ele>882.913034</ele>
        <time>2021-04-30T04:36:59.255Z</time>
      </trkpt>
      <trkpt lat="46.61786" lon="5.98602">
        <ele>882.806756</ele>
        <time>2021-04-30T04:37:03.354Z</time>
      </trkpt>
      <trkpt lat="46.61789" lon="5.98585">
        <ele>882.522675</ele>
        <time>2021-04-30T04:37:06.392Z</time>
      </trkpt>
      <trkpt lat="46.6179" lon="5.98564">
        <ele>882.071996</ele>
        <time>2021-04-30T04:37:09.911Z</time>
      </trkpt>
      <trkpt lat="46.61787" lon="5.98475">
        <ele>880.171757</ele>
        <time>2021-04-30T04:37:23.506Z</time>
      </trkpt>
      <trkpt lat="46.61787" lon="5.98467">
        <ele>880.020414</ele>
        <time>2021-04-30T04:37:24.609Z</time>
      </trkpt>
      <trkpt lat="46.61785" lon="5.98437">
        <ele>879.361424</ele>
        <time>2021-04-30T04:37:28.821Z</time>
      </trkpt>
      <trkpt lat="46.61787" lon="5.98396">
        <ele>878.490677</ele>
        <time>2021-04-30T04:37:34.320Z</time>
      </trkpt>
      <trkpt lat="46.6179" lon="5.98364">
        <ele>877.803237</ele>
        <time>2021-04-30T04:37:38.220Z</time>
      </trkpt>
      <trkpt lat="46.61792" lon="5.98345">
        <ele>877.392866</ele>
        <time>2021-04-30T04:37:40.552Z</time>
      </trkpt>
      <trkpt lat="46.61794" lon="5.98332">
        <ele>876.938618</ele>
        <time>2021-04-30T04:37:42.218Z</time>
      </trkpt>
      <trkpt lat="46.618" lon="5.98309">
        <ele>875.466209</ele>
        <time>2021-04-30T04:37:45.071Z</time>
      </trkpt>
      <trkpt lat="46.61798" lon="5.98298">
        <ele>874.79023</ele>
        <time>2021-04-30T04:37:46.402Z</time>
      </trkpt>
      <trkpt lat="46.61798" lon="5.98197">
        <ele>868.698585</ele>
        <time>2021-04-30T04:37:58.629Z</time>
      </trkpt>
      <trkpt lat="46.61794" lon="5.98171">
        <ele>867.047095</ele>
        <time>2021-04-30T04:38:01.946Z</time>
      </trkpt>
      <trkpt lat="46.61793" lon="5.98167">
        <ele>866.811461</ele>
        <time>2021-04-30T04:38:02.372Z</time>
      </trkpt>
      <trkpt lat="46.6176" lon="5.98073">
        <ele>860.515892</ele>
        <time>2021-04-30T04:38:14.768Z</time>
      </trkpt>
      <trkpt lat="46.61713" lon="5.97984">
        <ele>854.3996</ele>
        <time>2021-04-30T04:38:28.054Z</time>
      </trkpt>
      <trkpt lat="46.61694" lon="5.9796">
        <ele>852.476737</ele>
        <time>2021-04-30T04:38:32.459Z</time>
      </trkpt>
      <trkpt lat="46.61651" lon="5.97922">
        <ele>848.454141</ele>
        <time>2021-04-30T04:38:41.958Z</time>
      </trkpt>
      <trkpt lat="46.61603" lon="5.97895">
        <ele>845.874438</ele>
        <time>2021-04-30T04:38:51.550Z</time>
      </trkpt>
      <trkpt lat="46.61586" lon="5.97875">
        <ele>845.01481</ele>
        <time>2021-04-30T04:38:56.050Z</time>
      </trkpt>
      <trkpt lat="46.61567" lon="5.9785">
        <ele>844.033994</ele>
        <time>2021-04-30T04:39:01.138Z</time>
      </trkpt>
      <trkpt lat="46.61544" lon="5.97806">
        <ele>842.578206</ele>
        <time>2021-04-30T04:39:08.941Z</time>
      </trkpt>
      <trkpt lat="46.61532" lon="5.97736">
        <ele>840.691467</ele>
        <time>2021-04-30T04:39:19.322Z</time>
      </trkpt>
      <trkpt lat="46.61463" lon="5.97514">
        <ele>835.210673</ele>
        <time>2021-04-30T04:39:53.680Z</time>
      </trkpt>
      <trkpt lat="46.61461" lon="5.97495">
        <ele>834.778387</ele>
        <time>2021-04-30T04:39:56.224Z</time>
      </trkpt>
      <trkpt lat="46.61452" lon="5.97472">
        <ele>834.236674</ele>
        <time>2021-04-30T04:39:59.928Z</time>
      </trkpt>
      <trkpt lat="46.61434" lon="5.97399">
        <ele>832.790237</ele>
        <time>2021-04-30T04:40:10.229Z</time>
      </trkpt>
      <trkpt lat="46.61429" lon="5.97375">
        <ele>832.324571</ele>
        <time>2021-04-30T04:40:13.876Z</time>
      </trkpt>
      <trkpt lat="46.61428" lon="5.97372">
        <ele>832.256489</ele>
        <time>2021-04-30T04:40:14.384Z</time>
      </trkpt>
      <trkpt lat="46.61419" lon="5.9734">
        <ele>831.621392</ele>
        <time>2021-04-30T04:40:18.992Z</time>
      </trkpt>
      <trkpt lat="46.61412" lon="5.97309">
        <ele>831.001993</ele>
        <time>2021-04-30T04:40:23.582Z</time>
      </trkpt>
      <trkpt lat="46.61402" lon="5.97265">
        <ele>830.130757</ele>
        <time>2021-04-30T04:40:30.223Z</time>
      </trkpt>
      <trkpt lat="46.61372" lon="5.97139">
        <ele>828.297851</ele>
        <time>2021-04-30T04:40:49.774Z</time>
      </trkpt>
      <trkpt lat="46.61369" lon="5.97125">
        <ele>828.108173</ele>
        <time>2021-04-30T04:40:51.963Z</time>
      </trkpt>
      <trkpt lat="46.61345" lon="5.9702">
        <ele>826.728979</ele>
        <time>2021-04-30T04:41:08.442Z</time>
      </trkpt>
      <trkpt lat="46.61311" lon="5.96883">
        <ele>825.248035</ele>
        <time>2021-04-30T04:41:30.115Z</time>
      </trkpt>
      <trkpt lat="46.61284" lon="5.96839">
        <ele>824.687577</ele>
        <time>2021-04-30T04:41:39.124Z</time>
      </trkpt>
      <trkpt lat="46.61266" lon="5.96824">
        <ele>824.393505</ele>
        <time>2021-04-30T04:41:43.967Z</time>
      </trkpt>
      <trkpt lat="46.61195" lon="5.96811">
        <ele>823.601817</ele>
        <time>2021-04-30T04:42:00.542Z</time>
      </trkpt>
      <trkpt lat="46.61046" lon="5.96787">
        <ele>822.45242</ele>
        <time>2021-04-30T04:42:36.603Z</time>
      </trkpt>
      <trkpt lat="46.61026" lon="5.96783">
        <ele>822.343681</ele>
        <time>2021-04-30T04:42:41.400Z</time>
      </trkpt>
      <trkpt lat="46.6101" lon="5.96776">
        <ele>822.248317</ele>
        <time>2021-04-30T04:42:45.679Z</time>
      </trkpt>
      <trkpt lat="46.60996" lon="5.96764">
        <ele>822.16363</ele>
        <time>2021-04-30T04:42:49.400Z</time>
      </trkpt>
      <trkpt lat="46.60986" lon="5.96749">
        <ele>822.081674</ele>
        <time>2021-04-30T04:42:53.102Z</time>
      </trkpt>
      <trkpt lat="46.60975" lon="5.96735">
        <ele>822.001423</ele>
        <time>2021-04-30T04:42:56.607Z</time>
      </trkpt>
      <trkpt lat="46.60913" lon="5.96643">
        <ele>821.516775</ele>
        <time>2021-04-30T04:43:18.224Z</time>
      </trkpt>
      <trkpt lat="46.60907" lon="5.96616">
        <ele>821.496813</ele>
        <time>2021-04-30T04:43:22.847Z</time>
      </trkpt>
      <trkpt lat="46.60912" lon="5.96475">
        <ele>821.695476</ele>
        <time>2021-04-30T04:43:47.867Z</time>
      </trkpt>
      <trkpt lat="46.60906" lon="5.96433">
        <ele>821.755731</ele>
        <time>2021-04-30T04:43:56.750Z</time>
      </trkpt>
      <trkpt lat="46.60902" lon="5.96423">
        <ele>821.771858</ele>
        <time>2021-04-30T04:43:58.867Z</time>
      </trkpt>
      <trkpt lat="46.60897" lon="5.9642">
        <ele>821.782304</ele>
        <time>2021-04-30T04:44:00.293Z</time>
      </trkpt>
      <trkpt lat="46.60892" lon="5.96414">
        <ele>821.795887</ele>
        <time>2021-04-30T04:44:02.401Z</time>
      </trkpt>
      <trkpt lat="46.60864" lon="5.96393">
        <ele>821.990175</ele>
        <time>2021-04-30T04:44:12.977Z</time>
      </trkpt>
      <trkpt lat="46.60845" lon="5.96378">
        <ele>822.343519</ele>
        <time>2021-04-30T04:44:20.689Z</time>
      </trkpt>
      <trkpt lat="46.60836" lon="5.96363">
        <ele>822.567288</ele>
        <time>2021-04-30T04:44:24.951Z</time>
      </trkpt>
      <trkpt lat="46.6079" lon="5.96267">
        <ele>823.875268</ele>
        <time>2021-04-30T04:44:52.475Z</time>
      </trkpt>
      <trkpt lat="46.60776" lon="5.9624">
        <ele>824.241302</ele>
        <time>2021-04-30T04:45:00.190Z</time>
      </trkpt>
      <trkpt lat="46.6077" lon="5.9623">
        <ele>824.394258</ele>
        <time>2021-04-30T04:45:04.281Z</time>
      </trkpt>
      <trkpt lat="46.60745" lon="5.96235">
        <ele>824.800442</ele>
        <time>2021-04-30T04:45:13.471Z</time>
      </trkpt>
      <trkpt lat="46.60726" lon="5.96234">
        <ele>825.092767</ele>
        <time>2021-04-30T04:45:21.086Z</time>
      </trkpt>
      <trkpt lat="46.60668" lon="5.96233">
        <ele>825.969725</ele>
        <time>2021-04-30T04:45:41.477Z</time>
      </trkpt>
      <trkpt lat="46.60663" lon="5.96218">
        <ele>826.140372</ele>
        <time>2021-04-30T04:45:46.208Z</time>
      </trkpt>
      <trkpt lat="46.60643" lon="5.96192">
        <ele>826.551922</ele>
        <time>2021-04-30T04:45:55.743Z</time>
      </trkpt>
      <trkpt lat="46.60574" lon="5.96192">
        <ele>827.454531</ele>
        <time>2021-04-30T04:46:17.010Z</time>
      </trkpt>
      <trkpt lat="46.60523" lon="5.96181">
        <ele>827.247963</ele>
        <time>2021-04-30T04:46:33.606Z</time>
      </trkpt>
      <trkpt lat="46.6048" lon="5.96167">
        <ele>827.071124</ele>
        <time>2021-04-30T04:46:45.772Z</time>
      </trkpt>
      <trkpt lat="46.60475" lon="5.96171">
        <ele>827.0498</ele>
        <time>2021-04-30T04:46:46.879Z</time>
      </trkpt>
      <trkpt lat="46.60303" lon="5.96169">
        <ele>825.37515</ele>
        <time>2021-04-30T04:47:26.524Z</time>
      </trkpt>
      <trkpt lat="46.60299" lon="5.9618">
        <ele>825.255431</ele>
        <time>2021-04-30T04:47:28.259Z</time>
      </trkpt>
      <trkpt lat="46.6029" lon="5.96177">
        <ele>825.125128</ele>
        <time>2021-04-30T04:47:30.378Z</time>
      </trkpt>
      <trkpt lat="46.6027" lon="5.96171">
        <ele>824.842219</ele>
        <time>2021-04-30T04:47:34.912Z</time>
      </trkpt>
      <trkpt lat="46.60211" lon="5.96154">
        <ele>824.39746</ele>
        <time>2021-04-30T04:47:48.521Z</time>
      </trkpt>
      <trkpt lat="46.60145" lon="5.96127">
        <ele>824.872146</ele>
        <time>2021-04-30T04:48:06.012Z</time>
      </trkpt>
      <trkpt lat="46.60135" lon="5.96123">
        <ele>824.942723</ele>
        <time>2021-04-30T04:48:09.079Z</time>
      </trkpt>
      <trkpt lat="46.60113" lon="5.96115">
        <ele>825.098536</ele>
        <time>2021-04-30T04:48:16.455Z</time>
      </trkpt>
      <trkpt lat="46.59999" lon="5.9607">
        <ele>827.849969</ele>
        <time>2021-04-30T04:49:01.356Z</time>
      </trkpt>
      <trkpt lat="46.59822" lon="5.95988">
        <ele>836.438795</ele>
        <time>2021-04-30T04:50:34.175Z</time>
      </trkpt>
      <trkpt lat="46.59685" lon="5.95925">
        <ele>844.580752</ele>
        <time>2021-04-30T04:51:56.818Z</time>
      </trkpt>
      <trkpt lat="46.59674" lon="5.9592">
        <ele>845.152654</ele>
        <time>2021-04-30T04:52:04.362Z</time>
      </trkpt>
      <trkpt lat="46.59619" lon="5.95874">
        <ele>848.383939</ele>
        <time>2021-04-30T04:52:36.113Z</time>
      </trkpt>
      <trkpt lat="46.59579" lon="5.95831">
        <ele>850.924525</ele>
        <time>2021-04-30T04:53:01.272Z</time>
      </trkpt>
      <trkpt lat="46.59545" lon="5.95796">
        <ele>852.84696</ele>
        <time>2021-04-30T04:53:19.822Z</time>
      </trkpt>
      <trkpt lat="46.59393" lon="5.95673">
        <ele>859.651443</ele>
        <time>2021-04-30T04:54:35.167Z</time>
      </trkpt>
      <trkpt lat="46.59313" lon="5.95631">
        <ele>864.463823</ele>
        <time>2021-04-30T04:55:21.418Z</time>
      </trkpt>
      <trkpt lat="46.59262" lon="5.95605">
        <ele>867.500116</ele>
        <time>2021-04-30T04:55:52.476Z</time>
      </trkpt>
      <trkpt lat="46.59187" lon="5.95572">
        <ele>870.969823</ele>
        <time>2021-04-30T04:56:37.097Z</time>
      </trkpt>
      <trkpt lat="46.59088" lon="5.95573">
        <ele>874.470175</ele>
        <time>2021-04-30T04:57:20.185Z</time>
      </trkpt>
      <trkpt lat="46.59036" lon="5.95562">
        <ele>875.545151</ele>
        <time>2021-04-30T04:57:36.109Z</time>
      </trkpt>
      <trkpt lat="46.59002" lon="5.95564">
        <ele>875.310825</ele>
        <time>2021-04-30T04:57:44.813Z</time>
      </trkpt>
      <trkpt lat="46.58913" lon="5.95577">
        <ele>874.68467</ele>
        <time>2021-04-30T04:58:05.201Z</time>
      </trkpt>
      <trkpt lat="46.58893" lon="5.95574">
        <ele>874.542378</ele>
        <time>2021-04-30T04:58:09.509Z</time>
      </trkpt>
      <trkpt lat="46.58846" lon="5.95549">
        <ele>874.280927</ele>
        <time>2021-04-30T04:58:20.340Z</time>
      </trkpt>
      <trkpt lat="46.58816" lon="5.95521">
        <ele>874.130535</ele>
        <time>2021-04-30T04:58:28.177Z</time>
      </trkpt>
      <trkpt lat="46.58792" lon="5.95491">
        <ele>873.99658</ele>
        <time>2021-04-30T04:58:35.744Z</time>
      </trkpt>
      <trkpt lat="46.58719" lon="5.95384">
        <ele>874.041196</ele>
        <time>2021-04-30T04:59:06.315Z</time>
      </trkpt>
      <trkpt lat="46.5871" lon="5.95373">
        <ele>874.247591</ele>
        <time>2021-04-30T04:59:09.493Z</time>
      </trkpt>
      <trkpt lat="46.58703" lon="5.95364">
        <ele>874.395857</ele>
        <time>2021-04-30T04:59:13.277Z</time>
      </trkpt>
      <trkpt lat="46.58682" lon="5.95344">
        <ele>874.825662</ele>
        <time>2021-04-30T04:59:20.786Z</time>
      </trkpt>
      <trkpt lat="46.58671" lon="5.95336">
        <ele>875.034674</ele>
        <time>2021-04-30T04:59:25.975Z</time>
      </trkpt>
      <trkpt lat="46.58657" lon="5.95328">
        <ele>875.290644</ele>
        <time>2021-04-30T04:59:30.795Z</time>
      </trkpt>
      <trkpt lat="46.58616" lon="5.9532">
        <ele>875.999578</ele>
        <time>2021-04-30T04:59:45.681Z</time>
      </trkpt>
      <trkpt lat="46.58554" lon="5.95323">
        <ele>877.173502</ele>
        <time>2021-04-30T05:00:10.306Z</time>
      </trkpt>
      <trkpt lat="46.58544" lon="5.95322">
        <ele>877.425586</ele>
        <time>2021-04-30T05:00:14.649Z</time>
      </trkpt>
      <trkpt lat="46.58519" lon="5.9532">
        <ele>877.995732</ele>
        <time>2021-04-30T05:00:24.376Z</time>
      </trkpt>
      <trkpt lat="46.58504" lon="5.95318">
        <ele>878.349073</ele>
        <time>2021-04-30T05:00:30.251Z</time>
      </trkpt>
      <trkpt lat="46.5849" lon="5.95317">
        <ele>878.690478</ele>
        <time>2021-04-30T05:00:35.561Z</time>
      </trkpt>
      <trkpt lat="46.58386" lon="5.95304">
        <ele>881.159857</ele>
        <time>2021-04-30T05:01:14.090Z</time>
      </trkpt>
      <trkpt lat="46.58375" lon="5.953">
        <ele>881.444232</ele>
        <time>2021-04-30T05:01:18.210Z</time>
      </trkpt>
      <trkpt lat="46.58364" lon="5.95295">
        <ele>881.72268</ele>
        <time>2021-04-30T05:01:22.276Z</time>
      </trkpt>
      <trkpt lat="46.58355" lon="5.95291">
        <ele>881.961957</ele>
        <time>2021-04-30T05:01:25.850Z</time>
      </trkpt>
      <trkpt lat="46.58351" lon="5.95289">
        <ele>882.071612</ele>
        <time>2021-04-30T05:01:27.737Z</time>
      </trkpt>
      <trkpt lat="46.58348" lon="5.95281">
        <ele>882.217206</ele>
        <time>2021-04-30T05:01:30.054Z</time>
      </trkpt>
      <trkpt lat="46.58343" lon="5.95275">
        <ele>882.36302</ele>
        <time>2021-04-30T05:01:32.258Z</time>
      </trkpt>
      <trkpt lat="46.58346" lon="5.95269">
        <ele>882.488619</ele>
        <time>2021-04-30T05:01:33.777Z</time>
      </trkpt>
      <trkpt lat="46.58356" lon="5.95249">
        <ele>882.908495</ele>
        <time>2021-04-30T05:01:41.138Z</time>
      </trkpt>
      <trkpt lat="46.58365" lon="5.95243">
        <ele>883.147193</ele>
        <time>2021-04-30T05:01:45.221Z</time>
      </trkpt>
      <trkpt lat="46.58374" lon="5.95242">
        <ele>883.389017</ele>
        <time>2021-04-30T05:01:48.553Z</time>
      </trkpt>
      <trkpt lat="46.58374" lon="5.95238">
        <ele>883.460188</ele>
        <time>2021-04-30T05:01:50.234Z</time>
      </trkpt>
      <trkpt lat="46.58368" lon="5.95228">
        <ele>883.681772</ele>
        <time>2021-04-30T05:01:53.805Z</time>
      </trkpt>
      <trkpt lat="46.58307" lon="5.95195">
        <ele>885.314165</ele>
        <time>2021-04-30T05:02:19.969Z</time>
      </trkpt>
      <trkpt lat="46.5828" lon="5.95181">
        <ele>886.006345</ele>
        <time>2021-04-30T05:02:31.180Z</time>
      </trkpt>
      <trkpt lat="46.58223" lon="5.95139">
        <ele>887.57831</ele>
        <time>2021-04-30T05:03:08.561Z</time>
      </trkpt>
      <trkpt lat="46.58249" lon="5.95091">
        <ele>888.601502</ele>
        <time>2021-04-30T05:03:32.311Z</time>
      </trkpt>
      <trkpt lat="46.58251" lon="5.95064">
        <ele>889.056244</ele>
        <time>2021-04-30T05:03:42.295Z</time>
      </trkpt>
      <trkpt lat="46.58247" lon="5.9504">
        <ele>889.474715</ele>
        <time>2021-04-30T05:03:52.468Z</time>
      </trkpt>
      <trkpt lat="46.58244" lon="5.9503">
        <ele>889.659205</ele>
        <time>2021-04-30T05:03:56.410Z</time>
      </trkpt>
      <trkpt lat="46.58242" lon="5.95022">
        <ele>889.807452</ele>
        <time>2021-04-30T05:03:59.545Z</time>
      </trkpt>
      <trkpt lat="46.58238" lon="5.95016">
        <ele>889.870747</ele>
        <time>2021-04-30T05:04:02.337Z</time>
      </trkpt>
      <trkpt lat="46.58233" lon="5.95012">
        <ele>889.93428</ele>
        <time>2021-04-30T05:04:05.721Z</time>
      </trkpt>
      <trkpt lat="46.58219" lon="5.95014">
        <ele>890.09797</ele>
        <time>2021-04-30T05:04:13.243Z</time>
      </trkpt>
      <trkpt lat="46.58178" lon="5.95043">
        <ele>890.635676</ele>
        <time>2021-04-30T05:04:36.861Z</time>
      </trkpt>
      <trkpt lat="46.5812" lon="5.95068">
        <ele>891.330693</ele>
        <time>2021-04-30T05:05:07.014Z</time>
      </trkpt>
      <trkpt lat="46.58087" lon="5.95054">
        <ele>891.725875</ele>
        <time>2021-04-30T05:05:22.959Z</time>
      </trkpt>
      <trkpt lat="46.58043" lon="5.95047">
        <ele>891.959403</ele>
        <time>2021-04-30T05:05:43.247Z</time>
      </trkpt>
      <trkpt lat="46.57974" lon="5.94987">
        <ele>892.139222</ele>
        <time>2021-04-30T05:06:19.112Z</time>
      </trkpt>
      <trkpt lat="46.57972" lon="5.94985">
        <ele>892.144214</ele>
        <time>2021-04-30T05:06:19.577Z</time>
      </trkpt>
      <trkpt lat="46.57838" lon="5.94835">
        <ele>893.563117</ele>
        <time>2021-04-30T05:07:07.993Z</time>
      </trkpt>
      <trkpt lat="46.57817" lon="5.94796">
        <ele>893.98643</ele>
        <time>2021-04-30T05:07:20.131Z</time>
      </trkpt>
      <trkpt lat="46.57814" lon="5.94791">
        <ele>894.044325</ele>
        <time>2021-04-30T05:07:21.938Z</time>
      </trkpt>
      <trkpt lat="46.57774" lon="5.94715">
        <ele>895.342744</ele>
        <time>2021-04-30T05:07:47.356Z</time>
      </trkpt>
      <trkpt lat="46.57747" lon="5.94675">
        <ele>896.494202</ele>
        <time>2021-04-30T05:08:03.000Z</time>
      </trkpt>
      <trkpt lat="46.57713" lon="5.94622">
        <ele>897.998767</ele>
        <time>2021-04-30T05:08:24.496Z</time>
      </trkpt>
      <trkpt lat="46.57673" lon="5.94569">
        <ele>899.637016</ele>
        <time>2021-04-30T05:08:47.908Z</time>
      </trkpt>
      <trkpt lat="46.57636" lon="5.94533">
        <ele>900.569949</ele>
        <time>2021-04-30T05:09:06.992Z</time>
      </trkpt>
      <trkpt lat="46.5755" lon="5.94396">
        <ele>902.816131</ele>
        <time>2021-04-30T05:09:49.908Z</time>
      </trkpt>
      <trkpt lat="46.5754" lon="5.94383">
        <ele>903.045547</ele>
        <time>2021-04-30T05:09:54.200Z</time>
      </trkpt>
      <trkpt lat="46.57536" lon="5.94376">
        <ele>903.145444</ele>
        <time>2021-04-30T05:09:55.968Z</time>
      </trkpt>
      <trkpt lat="46.5753" lon="5.94365">
        <ele>903.216458</ele>
        <time>2021-04-30T05:09:58.970Z</time>
      </trkpt>
      <trkpt lat="46.57528" lon="5.94358">
        <ele>903.248905</ele>
        <time>2021-04-30T05:10:00.140Z</time>
      </trkpt>
      <trkpt lat="46.57529" lon="5.94353">
        <ele>903.274415</ele>
        <time>2021-04-30T05:10:01.238Z</time>
      </trkpt>
      <trkpt lat="46.57527" lon="5.94343">
        <ele>903.325281</ele>
        <time>2021-04-30T05:10:03.568Z</time>
      </trkpt>
      <trkpt lat="46.57525" lon="5.94339">
        <ele>903.350302</ele>
        <time>2021-04-30T05:10:04.647Z</time>
      </trkpt>
      <trkpt lat="46.57523" lon="5.94335">
        <ele>903.376597</ele>
        <time>2021-04-30T05:10:05.675Z</time>
      </trkpt>
      <trkpt lat="46.5752" lon="5.94333">
        <ele>903.402719</ele>
        <time>2021-04-30T05:10:06.659Z</time>
      </trkpt>
      <trkpt lat="46.57516" lon="5.94331">
        <ele>903.428711</ele>
        <time>2021-04-30T05:10:07.708Z</time>
      </trkpt>
      <trkpt lat="46.57513" lon="5.94331">
        <ele>903.449772</ele>
        <time>2021-04-30T05:10:08.587Z</time>
      </trkpt>
      <trkpt lat="46.5751" lon="5.94331">
        <ele>903.471552</ele>
        <time>2021-04-30T05:10:09.517Z</time>
      </trkpt>
      <trkpt lat="46.57507" lon="5.94329">
        <ele>903.499978</ele>
        <time>2021-04-30T05:10:10.495Z</time>
      </trkpt>
      <trkpt lat="46.57502" lon="5.94323">
        <ele>903.545186</ele>
        <time>2021-04-30T05:10:12.450Z</time>
      </trkpt>
      <trkpt lat="46.57488" lon="5.94304">
        <ele>903.682009</ele>
        <time>2021-04-30T05:10:18.083Z</time>
      </trkpt>
      <trkpt lat="46.57485" lon="5.94299">
        <ele>903.715471</ele>
        <time>2021-04-30T05:10:19.454Z</time>
      </trkpt>
      <trkpt lat="46.57482" lon="5.94295">
        <ele>903.744363</ele>
        <time>2021-04-30T05:10:20.580Z</time>
      </trkpt>
      <trkpt lat="46.57461" lon="5.94272">
        <ele>903.935992</ele>
        <time>2021-04-30T05:10:28.363Z</time>
      </trkpt>
      <trkpt lat="46.57348" lon="5.94141">
        <ele>905.168554</ele>
        <time>2021-04-30T05:11:12.183Z</time>
      </trkpt>
      <trkpt lat="46.57333" lon="5.94125">
        <ele>905.350996</ele>
        <time>2021-04-30T05:11:18.651Z</time>
      </trkpt>
      <trkpt lat="46.5733" lon="5.94122">
        <ele>905.381299</ele>
        <time>2021-04-30T05:11:19.595Z</time>
      </trkpt>
      <trkpt lat="46.57321" lon="5.94114">
        <ele>905.483729</ele>
        <time>2021-04-30T05:11:22.824Z</time>
      </trkpt>
      <trkpt lat="46.57318" lon="5.9411">
        <ele>905.526595</ele>
        <time>2021-04-30T05:11:24.359Z</time>
      </trkpt>
      <trkpt lat="46.57217" lon="5.94005">
        <ele>906.56875</ele>
        <time>2021-04-30T05:12:03.755Z</time>
      </trkpt>
      <trkpt lat="46.57201" lon="5.93984">
        <ele>906.711663</ele>
        <time>2021-04-30T05:12:09.773Z</time>
      </trkpt>
      <trkpt lat="46.57195" lon="5.93976">
        <ele>906.770099</ele>
        <time>2021-04-30T05:12:12.289Z</time>
      </trkpt>
      <trkpt lat="46.57186" lon="5.93958">
        <ele>906.875034</ele>
        <time>2021-04-30T05:12:16.664Z</time>
      </trkpt>
      <trkpt lat="46.57178" lon="5.9394">
        <ele>906.972284</ele>
        <time>2021-04-30T05:12:20.697Z</time>
      </trkpt>
      <trkpt lat="46.57166" lon="5.93896">
        <ele>907.193305</ele>
        <time>2021-04-30T05:12:30.179Z</time>
      </trkpt>
      <trkpt lat="46.57158" lon="5.93875">
        <ele>907.307056</ele>
        <time>2021-04-30T05:12:35.255Z</time>
      </trkpt>
      <trkpt lat="46.57156" lon="5.93869">
        <ele>907.338847</ele>
        <time>2021-04-30T05:12:36.662Z</time>
      </trkpt>
      <trkpt lat="46.57151" lon="5.93855">
        <ele>907.406114</ele>
        <time>2021-04-30T05:12:39.670Z</time>
      </trkpt>
      <trkpt lat="46.57132" lon="5.93826">
        <ele>907.287099</ele>
        <time>2021-04-30T05:12:47.933Z</time>
      </trkpt>
      <trkpt lat="46.57102" lon="5.93809">
        <ele>907.144827</ele>
        <time>2021-04-30T05:12:57.832Z</time>
      </trkpt>
      <trkpt lat="46.57091" lon="5.93805">
        <ele>907.0962</ele>
        <time>2021-04-30T05:13:00.798Z</time>
      </trkpt>
      <trkpt lat="46.57047" lon="5.93795">
        <ele>906.901788</ele>
        <time>2021-04-30T05:13:12.721Z</time>
      </trkpt>
      <trkpt lat="46.56956" lon="5.93772">
        <ele>905.789489</ele>
        <time>2021-04-30T05:13:32.754Z</time>
      </trkpt>
      <trkpt lat="46.56931" lon="5.93766">
        <ele>905.071393</ele>
        <time>2021-04-30T05:13:37.892Z</time>
      </trkpt>
      <trkpt lat="46.56895" lon="5.93754">
        <ele>904.019259</ele>
        <time>2021-04-30T05:13:45.253Z</time>
      </trkpt>
      <trkpt lat="46.56883" lon="5.93748">
        <ele>903.638633</ele>
        <time>2021-04-30T05:13:47.862Z</time>
      </trkpt>
      <trkpt lat="46.56859" lon="5.93727">
        <ele>902.853646</ele>
        <time>2021-04-30T05:13:53.153Z</time>
      </trkpt>
      <trkpt lat="46.56838" lon="5.93697">
        <ele>901.994089</ele>
        <time>2021-04-30T05:13:58.923Z</time>
      </trkpt>
      <trkpt lat="46.56798" lon="5.93626">
        <ele>900.494773</ele>
        <time>2021-04-30T05:14:10.866Z</time>
      </trkpt>
      <trkpt lat="46.56776" lon="5.93602">
        <ele>899.892946</ele>
        <time>2021-04-30T05:14:16.129Z</time>
      </trkpt>
      <trkpt lat="46.56758" lon="5.93588">
        <ele>899.438745</ele>
        <time>2021-04-30T05:14:20.239Z</time>
      </trkpt>
      <trkpt lat="46.56683" lon="5.9356">
        <ele>897.745431</ele>
        <time>2021-04-30T05:14:37.787Z</time>
      </trkpt>
      <trkpt lat="46.56632" lon="5.93551">
        <ele>897.652589</ele>
        <time>2021-04-30T05:14:50.906Z</time>
      </trkpt>
      <trkpt lat="46.56589" lon="5.93552">
        <ele>897.794617</ele>
        <time>2021-04-30T05:15:03.049Z</time>
      </trkpt>
      <trkpt lat="46.56497" lon="5.93577">
        <ele>898.100646</ele>
        <time>2021-04-30T05:15:31.874Z</time>
      </trkpt>
      <trkpt lat="46.56466" lon="5.93576">
        <ele>898.100224</ele>
        <time>2021-04-30T05:15:41.536Z</time>
      </trkpt>
      <trkpt lat="46.56426" lon="5.93557">
        <ele>898.088898</ele>
        <time>2021-04-30T05:15:54.092Z</time>
      </trkpt>
      <trkpt lat="46.56365" lon="5.93506">
        <ele>898.069862</ele>
        <time>2021-04-30T05:16:12.206Z</time>
      </trkpt>
      <trkpt lat="46.56342" lon="5.93483">
        <ele>898.062441</ele>
        <time>2021-04-30T05:16:18.780Z</time>
      </trkpt>
      <trkpt lat="46.56321" lon="5.93468">
        <ele>897.861175</ele>
        <time>2021-04-30T05:16:24.245Z</time>
      </trkpt>
      <trkpt lat="46.563" lon="5.93451">
        <ele>897.485274</ele>
        <time>2021-04-30T05:16:29.684Z</time>
      </trkpt>
      <trkpt lat="46.56277" lon="5.93435">
        <ele>897.074774</ele>
        <time>2021-04-30T05:16:35.363Z</time>
      </trkpt>
      <trkpt lat="46.56199" lon="5.93385">
        <ele>895.737661</ele>
        <time>2021-04-30T05:16:53.617Z</time>
      </trkpt>
      <trkpt lat="46.56176" lon="5.9337">
        <ele>895.339249</ele>
        <time>2021-04-30T05:16:58.937Z</time>
      </trkpt>
      <trkpt lat="46.56145" lon="5.93343">
        <ele>894.583455</ele>
        <time>2021-04-30T05:17:06.627Z</time>
      </trkpt>
      <trkpt lat="46.56064" lon="5.93224">
        <ele>892.040025</ele>
        <time>2021-04-30T05:17:30.702Z</time>
      </trkpt>
      <trkpt lat="46.5604" lon="5.93199">
        <ele>891.392159</ele>
        <time>2021-04-30T05:17:36.698Z</time>
      </trkpt>
      <trkpt lat="46.55963" lon="5.93124">
        <ele>888.922809</ele>
        <time>2021-04-30T05:17:55.330Z</time>
      </trkpt>
      <trkpt lat="46.55779" lon="5.92921">
        <ele>883.175112</ele>
        <time>2021-04-30T05:18:41.635Z</time>
      </trkpt>
      <trkpt lat="46.55729" lon="5.92895">
        <ele>882.137028</ele>
        <time>2021-04-30T05:18:53.435Z</time>
      </trkpt>
      <trkpt lat="46.55714" lon="5.92893">
        <ele>882.093528</ele>
        <time>2021-04-30T05:18:56.761Z</time>
      </trkpt>
      <trkpt lat="46.55695" lon="5.92891">
        <ele>882.036484</ele>
        <time>2021-04-30T05:19:01.436Z</time>
      </trkpt>
      <trkpt lat="46.55655" lon="5.92896">
        <ele>881.921385</ele>
        <time>2021-04-30T05:19:10.972Z</time>
      </trkpt>
      <trkpt lat="46.55607" lon="5.92892">
        <ele>881.782099</ele>
        <time>2021-04-30T05:19:23.585Z</time>
      </trkpt>
      <trkpt lat="46.55504" lon="5.92859">
        <ele>882.105739</ele>
        <time>2021-04-30T05:19:56.343Z</time>
      </trkpt>
      <trkpt lat="46.55372" lon="5.92818">
        <ele>882.984807</ele>
        <time>2021-04-30T05:20:38.025Z</time>
      </trkpt>
      <trkpt lat="46.55335" lon="5.92799">
        <ele>882.776322</ele>
        <time>2021-04-30T05:20:49.103Z</time>
      </trkpt>
      <trkpt lat="46.55319" lon="5.9278">
        <ele>882.66625</ele>
        <time>2021-04-30T05:20:54.621Z</time>
      </trkpt>
      <trkpt lat="46.55263" lon="5.92661">
        <ele>882.134848</ele>
        <time>2021-04-30T05:21:18.076Z</time>
      </trkpt>
      <trkpt lat="46.55245" lon="5.92629">
        <ele>881.497049</ele>
        <time>2021-04-30T05:21:23.795Z</time>
      </trkpt>
      <trkpt lat="46.55217" lon="5.92595">
        <ele>880.455567</ele>
        <time>2021-04-30T05:21:31.231Z</time>
      </trkpt>
      <trkpt lat="46.55176" lon="5.92557">
        <ele>879.062623</ele>
        <time>2021-04-30T05:21:40.975Z</time>
      </trkpt>
      <trkpt lat="46.5515" lon="5.92529">
        <ele>878.151376</ele>
        <time>2021-04-30T05:21:47.205Z</time>
      </trkpt>
      <trkpt lat="46.55073" lon="5.92427">
        <ele>874.771384</ele>
        <time>2021-04-30T05:22:07.151Z</time>
      </trkpt>
      <trkpt lat="46.55041" lon="5.92352">
        <ele>872.646156</ele>
        <time>2021-04-30T05:22:18.740Z</time>
      </trkpt>
      <trkpt lat="46.54989" lon="5.92276">
        <ele>870.091565</ele>
        <time>2021-04-30T05:22:33.162Z</time>
      </trkpt>
      <trkpt lat="46.54946" lon="5.92191">
        <ele>867.65593</ele>
        <time>2021-04-30T05:22:47.374Z</time>
      </trkpt>
      <trkpt lat="46.54929" lon="5.92157">
        <ele>866.704247</ele>
        <time>2021-04-30T05:22:52.927Z</time>
      </trkpt>
      <trkpt lat="46.54905" lon="5.9213">
        <ele>865.676187</ele>
        <time>2021-04-30T05:22:58.779Z</time>
      </trkpt>
      <trkpt lat="46.54854" lon="5.92094">
        <ele>864.354479</ele>
        <time>2021-04-30T05:23:09.779Z</time>
      </trkpt>
      <trkpt lat="46.54794" lon="5.92062">
        <ele>863.606784</ele>
        <time>2021-04-30T05:23:22.504Z</time>
      </trkpt>
      <trkpt lat="46.54767" lon="5.9204">
        <ele>863.236566</ele>
        <time>2021-04-30T05:23:29.560Z</time>
      </trkpt>
      <trkpt lat="46.54747" lon="5.92023">
        <ele>862.960729</ele>
        <time>2021-04-30T05:23:35.824Z</time>
      </trkpt>
      <trkpt lat="46.54689" lon="5.91956">
        <ele>864.232</ele>
        <time>2021-04-30T05:24:02.636Z</time>
      </trkpt>
      <trkpt lat="46.5467" lon="5.91933">
        <ele>865.306548</ele>
        <time>2021-04-30T05:24:13.650Z</time>
      </trkpt>
      <trkpt lat="46.54653" lon="5.91914">
        <ele>866.247204</ele>
        <time>2021-04-30T05:24:23.525Z</time>
      </trkpt>
      <trkpt lat="46.54634" lon="5.91896">
        <ele>867.195005</ele>
        <time>2021-04-30T05:24:34.549Z</time>
      </trkpt>
      <trkpt lat="46.54605" lon="5.91868">
        <ele>868.738504</ele>
        <time>2021-04-30T05:24:54.595Z</time>
      </trkpt>
      <trkpt lat="46.54564" lon="5.91829">
        <ele>870.944157</ele>
        <time>2021-04-30T05:25:22.511Z</time>
      </trkpt>
      <trkpt lat="46.54497" lon="5.91769">
        <ele>874.778261</ele>
        <time>2021-04-30T05:26:05.832Z</time>
      </trkpt>
      <trkpt lat="46.54485" lon="5.91774">
        <ele>875.399267</ele>
        <time>2021-04-30T05:26:13.013Z</time>
      </trkpt>
      <trkpt lat="46.5444" lon="5.91747">
        <ele>877.775023</ele>
        <time>2021-04-30T05:26:35.894Z</time>
      </trkpt>
      <trkpt lat="46.54404" lon="5.91714">
        <ele>879.327605</ele>
        <time>2021-04-30T05:26:53.818Z</time>
      </trkpt>
      <trkpt lat="46.54387" lon="5.91707">
        <ele>879.543281</ele>
        <time>2021-04-30T05:27:01.502Z</time>
      </trkpt>
      <trkpt lat="46.54371" lon="5.91706">
        <ele>879.727591</ele>
        <time>2021-04-30T05:27:07.661Z</time>
      </trkpt>
      <trkpt lat="46.54354" lon="5.91714">
        <ele>879.929256</ele>
        <time>2021-04-30T05:27:14.353Z</time>
      </trkpt>
      <trkpt lat="46.54221" lon="5.91815">
        <ele>880.922267</ele>
        <time>2021-04-30T05:27:57.971Z</time>
      </trkpt>
      <trkpt lat="46.54201" lon="5.91827">
        <ele>880.720045</ele>
        <time>2021-04-30T05:28:02.932Z</time>
      </trkpt>
      <trkpt lat="46.541" lon="5.91887">
        <ele>879.662084</ele>
        <time>2021-04-30T05:28:28.468Z</time>
      </trkpt>
      <trkpt lat="46.54009" lon="5.91943">
        <ele>878.783033</ele>
        <time>2021-04-30T05:28:51.609Z</time>
      </trkpt>
      <trkpt lat="46.53987" lon="5.91951">
        <ele>878.585043</ele>
        <time>2021-04-30T05:28:57.360Z</time>
      </trkpt>
      <trkpt lat="46.53977" lon="5.9195">
        <ele>878.500185</ele>
        <time>2021-04-30T05:28:59.608Z</time>
      </trkpt>
      <trkpt lat="46.53966" lon="5.91964">
        <ele>878.370847</ele>
        <time>2021-04-30T05:29:03.338Z</time>
      </trkpt>
      <trkpt lat="46.53931" lon="5.91989">
        <ele>878.024975</ele>
        <time>2021-04-30T05:29:13.220Z</time>
      </trkpt>
      <trkpt lat="46.53921" lon="5.91996">
        <ele>877.961917</ele>
        <time>2021-04-30T05:29:16.050Z</time>
      </trkpt>
      <trkpt lat="46.53877" lon="5.92023">
        <ele>878.071738</ele>
        <time>2021-04-30T05:29:28.575Z</time>
      </trkpt>
      <trkpt lat="46.53745" lon="5.92103">
        <ele>878.620272</ele>
        <time>2021-04-30T05:30:09.239Z</time>
      </trkpt>
      <trkpt lat="46.53684" lon="5.9214">
        <ele>879.787704</ele>
        <time>2021-04-30T05:30:30.026Z</time>
      </trkpt>
      <trkpt lat="46.5364" lon="5.92167">
        <ele>880.633505</ele>
        <time>2021-04-30T05:30:46.881Z</time>
      </trkpt>
      <trkpt lat="46.53617" lon="5.9218">
        <ele>881.081383</ele>
        <time>2021-04-30T05:30:56.775Z</time>
      </trkpt>
      <trkpt lat="46.53589" lon="5.92192">
        <ele>881.652191</ele>
        <time>2021-04-30T05:31:07.924Z</time>
      </trkpt>
      <trkpt lat="46.53584" lon="5.92194">
        <ele>881.967577</ele>
        <time>2021-04-30T05:31:10.565Z</time>
      </trkpt>
      <trkpt lat="46.53569" lon="5.92198">
        <ele>882.90049</ele>
        <time>2021-04-30T05:31:16.839Z</time>
      </trkpt>
      <trkpt lat="46.53559" lon="5.92199">
        <ele>883.479005</ele>
        <time>2021-04-30T05:31:21.382Z</time>
      </trkpt>
      <trkpt lat="46.53532" lon="5.92202">
        <ele>885.095582</ele>
        <time>2021-04-30T05:31:34.344Z</time>
      </trkpt>
      <trkpt lat="46.53509" lon="5.92195">
        <ele>886.514425</ele>
        <time>2021-04-30T05:31:47.297Z</time>
      </trkpt>
      <trkpt lat="46.5348" lon="5.92176">
        <ele>888.38717</ele>
        <time>2021-04-30T05:32:05.477Z</time>
      </trkpt>
      <trkpt lat="46.53471" lon="5.92171">
        <ele>888.977422</ele>
        <time>2021-04-30T05:32:11.200Z</time>
      </trkpt>
      <trkpt lat="46.53466" lon="5.92168">
        <ele>889.282799</ele>
        <time>2021-04-30T05:32:14.993Z</time>
      </trkpt>
      <trkpt lat="46.53436" lon="5.92149">
        <ele>891.251409</ele>
        <time>2021-04-30T05:32:37.578Z</time>
      </trkpt>
      <trkpt lat="46.53433" lon="5.92147">
        <ele>891.440647</ele>
        <time>2021-04-30T05:32:39.954Z</time>
      </trkpt>
      <trkpt lat="46.53339" lon="5.92086">
        <ele>898.091575</ele>
        <time>2021-04-30T05:33:46.211Z</time>
      </trkpt>
      <trkpt lat="46.53323" lon="5.92076">
        <ele>899.233727</ele>
        <time>2021-04-30T05:33:58.467Z</time>
      </trkpt>
      <trkpt lat="46.53281" lon="5.92035">
        <ele>902.5445</ele>
        <time>2021-04-30T05:34:25.404Z</time>
      </trkpt>
      <trkpt lat="46.53212" lon="5.91941">
        <ele>904.419532</ele>
        <time>2021-04-30T05:35:05.038Z</time>
      </trkpt>
      <trkpt lat="46.53154" lon="5.91851">
        <ele>904.836425</ele>
        <time>2021-04-30T05:35:23.395Z</time>
      </trkpt>
      <trkpt lat="46.53113" lon="5.9181">
        <ele>904.998272</ele>
        <time>2021-04-30T05:35:34.519Z</time>
      </trkpt>
      <trkpt lat="46.53094" lon="5.91792">
        <ele>905.038983</ele>
        <time>2021-04-30T05:35:39.196Z</time>
      </trkpt>
      <trkpt lat="46.53075" lon="5.91773">
        <ele>905.08248</ele>
        <time>2021-04-30T05:35:44.808Z</time>
      </trkpt>
      <trkpt lat="46.52846" lon="5.9148">
        <ele>908.16226</ele>
        <time>2021-04-30T05:37:24.936Z</time>
      </trkpt>
      <trkpt lat="46.52844" lon="5.91477">
        <ele>908.224931</ele>
        <time>2021-04-30T05:37:26.846Z</time>
      </trkpt>
      <trkpt lat="46.52806" lon="5.91426">
        <ele>909.33096</ele>
        <time>2021-04-30T05:37:45.917Z</time>
      </trkpt>
      <trkpt lat="46.52736" lon="5.91313">
        <ele>911.596477</ele>
        <time>2021-04-30T05:38:25.999Z</time>
      </trkpt>
      <trkpt lat="46.52695" lon="5.91259">
        <ele>912.496839</ele>
        <time>2021-04-30T05:38:46.248Z</time>
      </trkpt>
      <trkpt lat="46.52639" lon="5.91157">
        <ele>913.916326</ele>
        <time>2021-04-30T05:39:17.231Z</time>
      </trkpt>
      <trkpt lat="46.5262" lon="5.91135">
        <ele>914.297454</ele>
        <time>2021-04-30T05:39:24.826Z</time>
      </trkpt>
      <trkpt lat="46.52613" lon="5.91128">
        <ele>914.432441</ele>
        <time>2021-04-30T05:39:27.461Z</time>
      </trkpt>
      <trkpt lat="46.52495" lon="5.91064">
        <ele>915.257126</ele>
        <time>2021-04-30T05:40:05.239Z</time>
      </trkpt>
      <trkpt lat="46.52486" lon="5.91057">
        <ele>915.320146</ele>
        <time>2021-04-30T05:40:07.925Z</time>
      </trkpt>
      <trkpt lat="46.52475" lon="5.91049">
        <ele>915.395427</ele>
        <time>2021-04-30T05:40:11.200Z</time>
      </trkpt>
      <trkpt lat="46.52467" lon="5.91042">
        <ele>915.452219</ele>
        <time>2021-04-30T05:40:14.080Z</time>
      </trkpt>
      <trkpt lat="46.52434" lon="5.91014">
        <ele>915.877263</ele>
        <time>2021-04-30T05:40:24.323Z</time>
      </trkpt>
      <trkpt lat="46.52408" lon="5.90982">
        <ele>916.740735</ele>
        <time>2021-04-30T05:40:34.669Z</time>
      </trkpt>
      <trkpt lat="46.52388" lon="5.90938">
        <ele>917.660256</ele>
        <time>2021-04-30T05:40:46.276Z</time>
      </trkpt>
      <trkpt lat="46.52372" lon="5.9088">
        <ele>918.732244</ele>
        <time>2021-04-30T05:41:02.011Z</time>
      </trkpt>
      <trkpt lat="46.5236" lon="5.90844">
        <ele>919.426246</ele>
        <time>2021-04-30T05:41:13.667Z</time>
      </trkpt>
      <trkpt lat="46.52331" lon="5.90797">
        <ele>921.520748</ele>
        <time>2021-04-30T05:41:35.960Z</time>
      </trkpt>
      <trkpt lat="46.52307" lon="5.90762">
        <ele>924.582667</ele>
        <time>2021-04-30T05:41:58.092Z</time>
      </trkpt>
      <trkpt lat="46.52276" lon="5.90745">
        <ele>927.618198</ele>
        <time>2021-04-30T05:42:21.692Z</time>
      </trkpt>
      <trkpt lat="46.52268" lon="5.90743">
        <ele>928.304121</ele>
        <time>2021-04-30T05:42:27.763Z</time>
      </trkpt>
      <trkpt lat="46.52225" lon="5.90728">
        <ele>932.336124</ele>
        <time>2021-04-30T05:43:02.095Z</time>
      </trkpt>
      <trkpt lat="46.52204" lon="5.90724">
        <ele>934.276211</ele>
        <time>2021-04-30T05:43:17.480Z</time>
      </trkpt>
      <trkpt lat="46.52185" lon="5.90729">
        <ele>935.968519</ele>
        <time>2021-04-30T05:43:34.392Z</time>
      </trkpt>
      <trkpt lat="46.52084" lon="5.90715">
        <ele>945.445047</ele>
        <time>2021-04-30T05:44:56.440Z</time>
      </trkpt>
      <trkpt lat="46.52011" lon="5.90659">
        <ele>953.225537</ele>
        <time>2021-04-30T05:45:53.168Z</time>
      </trkpt>
      <trkpt lat="46.51974" lon="5.90638">
        <ele>954.514642</ele>
        <time>2021-04-30T05:46:13.543Z</time>
      </trkpt>
      <trkpt lat="46.51937" lon="5.90632">
        <ele>955.726922</ele>
        <time>2021-04-30T05:46:30.953Z</time>
      </trkpt>
      <trkpt lat="46.5192" lon="5.90639">
        <ele>956.287111</ele>
        <time>2021-04-30T05:46:39.404Z</time>
      </trkpt>
      <trkpt lat="46.51921" lon="5.90621">
        <ele>956.698483</ele>
        <time>2021-04-30T05:46:43.671Z</time>
      </trkpt>
      <trkpt lat="46.519" lon="5.90525">
        <ele>958.939996</ele>
        <time>2021-04-30T05:47:07.596Z</time>
      </trkpt>
      <trkpt lat="46.51877" lon="5.9048">
        <ele>959.096693</ele>
        <time>2021-04-30T05:47:18.469Z</time>
      </trkpt>
      <trkpt lat="46.51865" lon="5.90432">
        <ele>959.118699</ele>
        <time>2021-04-30T05:47:28.140Z</time>
      </trkpt>
      <trkpt lat="46.51849" lon="5.90377">
        <ele>959.143796</ele>
        <time>2021-04-30T05:47:38.022Z</time>
      </trkpt>
      <trkpt lat="46.51832" lon="5.90342">
        <ele>959.162125</ele>
        <time>2021-04-30T05:47:45.422Z</time>
      </trkpt>
      <trkpt lat="46.51813" lon="5.90319">
        <ele>959.177407</ele>
        <time>2021-04-30T05:47:51.772Z</time>
      </trkpt>
      <trkpt lat="46.51703" lon="5.90206">
        <ele>960.135377</ele>
        <time>2021-04-30T05:48:32.534Z</time>
      </trkpt>
      <trkpt lat="46.51651" lon="5.90165">
        <ele>960.603326</ele>
        <time>2021-04-30T05:48:51.927Z</time>
      </trkpt>
      <trkpt lat="46.51625" lon="5.90137">
        <ele>960.885688</ele>
        <time>2021-04-30T05:49:02.434Z</time>
      </trkpt>
      <trkpt lat="46.51596" lon="5.90097">
        <ele>961.230538</ele>
        <time>2021-04-30T05:49:15.103Z</time>
      </trkpt>
      <trkpt lat="46.51523" lon="5.90029">
        <ele>961.989659</ele>
        <time>2021-04-30T05:49:42.026Z</time>
      </trkpt>
      <trkpt lat="46.51471" lon="5.89946">
        <ele>962.434083</ele>
        <time>2021-04-30T05:50:03.564Z</time>
      </trkpt>
      <trkpt lat="46.51424" lon="5.89883">
        <ele>962.732178</ele>
        <time>2021-04-30T05:50:22.262Z</time>
      </trkpt>
      <trkpt lat="46.51391" lon="5.89766">
        <ele>963.149661</ele>
        <time>2021-04-30T05:50:47.432Z</time>
      </trkpt>
      <trkpt lat="46.51379" lon="5.89738">
        <ele>963.267381</ele>
        <time>2021-04-30T05:50:54.512Z</time>
      </trkpt>
      <trkpt lat="46.51371" lon="5.89716">
        <ele>963.355824</ele>
        <time>2021-04-30T05:50:59.346Z</time>
      </trkpt>
      <trkpt lat="46.51347" lon="5.89685">
        <ele>963.524168</ele>
        <time>2021-04-30T05:51:09.113Z</time>
      </trkpt>
      <trkpt lat="46.51209" lon="5.8956">
        <ele>963.235333</ele>
        <time>2021-04-30T05:51:55.663Z</time>
      </trkpt>
      <trkpt lat="46.51135" lon="5.895">
        <ele>962.487837</ele>
        <time>2021-04-30T05:52:14.624Z</time>
      </trkpt>
      <trkpt lat="46.51104" lon="5.89472">
        <ele>961.273044</ele>
        <time>2021-04-30T05:52:21.899Z</time>
      </trkpt>
      <trkpt lat="46.51069" lon="5.89448">
        <ele>959.468488</ele>
        <time>2021-04-30T05:52:29.158Z</time>
      </trkpt>
      <trkpt lat="46.51035" lon="5.89438">
        <ele>957.832848</ele>
        <time>2021-04-30T05:52:35.565Z</time>
      </trkpt>
      <trkpt lat="46.51012" lon="5.89441">
        <ele>956.73039</ele>
        <time>2021-04-30T05:52:39.719Z</time>
      </trkpt>
      <trkpt lat="46.50982" lon="5.89457">
        <ele>955.186681</ele>
        <time>2021-04-30T05:52:45.418Z</time>
      </trkpt>
      <trkpt lat="46.50974" lon="5.89465">
        <ele>954.730339</ele>
        <time>2021-04-30T05:52:47.030Z</time>
      </trkpt>
      <trkpt lat="46.50964" lon="5.8944">
        <ele>953.734257</ele>
        <time>2021-04-30T05:52:53.550Z</time>
      </trkpt>
      <trkpt lat="46.50972" lon="5.89375">
        <ele>950.324001</ele>
        <time>2021-04-30T05:53:07.891Z</time>
      </trkpt>
      <trkpt lat="46.50956" lon="5.8936">
        <ele>948.882891</ele>
        <time>2021-04-30T05:53:13.834Z</time>
      </trkpt>
      <trkpt lat="46.50937" lon="5.89368">
        <ele>947.408793</ele>
        <time>2021-04-30T05:53:19.844Z</time>
      </trkpt>
      <trkpt lat="46.50915" lon="5.8938">
        <ele>945.644518</ele>
        <time>2021-04-30T05:53:27.083Z</time>
      </trkpt>
      <trkpt lat="46.50875" lon="5.89431">
        <ele>941.601559</ele>
        <time>2021-04-30T05:53:43.424Z</time>
      </trkpt>
      <trkpt lat="46.50853" lon="5.89444">
        <ele>939.819715</ele>
        <time>2021-04-30T05:53:50.564Z</time>
      </trkpt>
      <trkpt lat="46.50808" lon="5.89447">
        <ele>936.482021</ele>
        <time>2021-04-30T05:54:03.989Z</time>
      </trkpt>
      <trkpt lat="46.50769" lon="5.8946">
        <ele>933.522819</ele>
        <time>2021-04-30T05:54:16.168Z</time>
      </trkpt>
      <trkpt lat="46.5069" lon="5.89494">
        <ele>927.426053</ele>
        <time>2021-04-30T05:54:41.886Z</time>
      </trkpt>
      <trkpt lat="46.50619" lon="5.89531">
        <ele>925.773952</ele>
        <time>2021-04-30T05:54:56.649Z</time>
      </trkpt>
      <trkpt lat="46.50607" lon="5.89533">
        <ele>925.569443</ele>
        <time>2021-04-30T05:54:59.150Z</time>
      </trkpt>
      <trkpt lat="46.50603" lon="5.8953">
        <ele>925.488968</ele>
        <time>2021-04-30T05:55:00.026Z</time>
      </trkpt>
      <trkpt lat="46.50599" lon="5.89535">
        <ele>925.397883</ele>
        <time>2021-04-30T05:55:01.107Z</time>
      </trkpt>
      <trkpt lat="46.50594" lon="5.8954">
        <ele>925.289656</ele>
        <time>2021-04-30T05:55:02.375Z</time>
      </trkpt>
      <trkpt lat="46.50586" lon="5.89545">
        <ele>925.139212</ele>
        <time>2021-04-30T05:55:04.698Z</time>
      </trkpt>
      <trkpt lat="46.50478" lon="5.89594">
        <ele>925.053754</ele>
        <time>2021-04-30T05:55:41.401Z</time>
      </trkpt>
      <trkpt lat="46.5038" lon="5.89637">
        <ele>928.274538</ele>
        <time>2021-04-30T05:56:26.316Z</time>
      </trkpt>
      <trkpt lat="46.50267" lon="5.89686">
        <ele>932.959416</ele>
        <time>2021-04-30T05:57:22.265Z</time>
      </trkpt>
      <trkpt lat="46.50196" lon="5.89717">
        <ele>936.203006</ele>
        <time>2021-04-30T05:57:58.394Z</time>
      </trkpt>
      <trkpt lat="46.50156" lon="5.89735">
        <ele>937.847507</ele>
        <time>2021-04-30T05:58:18.743Z</time>
      </trkpt>
      <trkpt lat="46.50145" lon="5.89741">
        <ele>938.221463</ele>
        <time>2021-04-30T05:58:24.425Z</time>
      </trkpt>
      <trkpt lat="46.50103" lon="5.89761">
        <ele>939.608154</ele>
        <time>2021-04-30T05:58:43.927Z</time>
      </trkpt>
      <trkpt lat="46.5002" lon="5.89803">
        <ele>942.419502</ele>
        <time>2021-04-30T05:59:18.913Z</time>
      </trkpt>
      <trkpt lat="46.50006" lon="5.89804">
        <ele>942.878211</ele>
        <time>2021-04-30T05:59:24.636Z</time>
      </trkpt>
      <trkpt lat="46.49997" lon="5.89815">
        <ele>943.084214</ele>
        <time>2021-04-30T05:59:28.919Z</time>
      </trkpt>
      <trkpt lat="46.49995" lon="5.89821">
        <ele>943.107191</ele>
        <time>2021-04-30T05:59:30.817Z</time>
      </trkpt>
      <trkpt lat="46.49985" lon="5.89826">
        <ele>943.154033</ele>
        <time>2021-04-30T05:59:34.336Z</time>
      </trkpt>
      <trkpt lat="46.49959" lon="5.89841">
        <ele>943.288891</ele>
        <time>2021-04-30T05:59:44.748Z</time>
      </trkpt>
      <trkpt lat="46.49944" lon="5.89851">
        <ele>943.367362</ele>
        <time>2021-04-30T05:59:49.930Z</time>
      </trkpt>
      <trkpt lat="46.49935" lon="5.89859">
        <ele>943.41999</ele>
        <time>2021-04-30T05:59:53.532Z</time>
      </trkpt>
      <trkpt lat="46.49934" lon="5.8986">
        <ele>943.424622</ele>
        <time>2021-04-30T05:59:53.780Z</time>
      </trkpt>
      <trkpt lat="46.499" lon="5.89892">
        <ele>943.617155</ele>
        <time>2021-04-30T06:00:04.650Z</time>
      </trkpt>
      <trkpt lat="46.49894" lon="5.89898">
        <ele>943.650184</ele>
        <time>2021-04-30T06:00:06.175Z</time>
      </trkpt>
      <trkpt lat="46.49889" lon="5.89903">
        <ele>943.682999</ele>
        <time>2021-04-30T06:00:07.577Z</time>
      </trkpt>
      <trkpt lat="46.49884" lon="5.89908">
        <ele>943.70833</ele>
        <time>2021-04-30T06:00:08.756Z</time>
      </trkpt>
      <trkpt lat="46.49885" lon="5.89913">
        <ele>943.727464</ele>
        <time>2021-04-30T06:00:09.933Z</time>
      </trkpt>
      <trkpt lat="46.49877" lon="5.89949">
        <ele>943.850709</ele>
        <time>2021-04-30T06:00:15.625Z</time>
      </trkpt>
      <trkpt lat="46.49864" lon="5.89971">
        <ele>943.903836</ele>
        <time>2021-04-30T06:00:20.946Z</time>
      </trkpt>
      <trkpt lat="46.49859" lon="5.89977">
        <ele>943.893548</ele>
        <time>2021-04-30T06:00:22.580Z</time>
      </trkpt>
      <trkpt lat="46.49833" lon="5.90001">
        <ele>943.845249</ele>
        <time>2021-04-30T06:00:30.567Z</time>
      </trkpt>
      <trkpt lat="46.49833" lon="5.90005">
        <ele>943.839997</ele>
        <time>2021-04-30T06:00:31.345Z</time>
      </trkpt>
      <trkpt lat="46.49826" lon="5.90013">
        <ele>943.825885</ele>
        <time>2021-04-30T06:00:33.954Z</time>
      </trkpt>
      <trkpt lat="46.49821" lon="5.90031">
        <ele>943.805187</ele>
        <time>2021-04-30T06:00:38.683Z</time>
      </trkpt>
      <trkpt lat="46.49822" lon="5.90057">
        <ele>943.776616</ele>
        <time>2021-04-30T06:00:43.885Z</time>
      </trkpt>
      <trkpt lat="46.49823" lon="5.9007">
        <ele>943.763095</ele>
        <time>2021-04-30T06:00:46.487Z</time>
      </trkpt>
      <trkpt lat="46.49829" lon="5.90097">
        <ele>943.73266</ele>
        <time>2021-04-30T06:00:52.445Z</time>
      </trkpt>
      <trkpt lat="46.49837" lon="5.90103">
        <ele>943.718387</ele>
        <time>2021-04-30T06:00:54.817Z</time>
      </trkpt>
      <trkpt lat="46.49829" lon="5.90097">
        <ele>943.704114</ele>
        <time>2021-04-30T06:00:57.496Z</time>
      </trkpt>
      <trkpt lat="46.49823" lon="5.9007">
        <ele>943.673679</ele>
        <time>2021-04-30T06:01:02.383Z</time>
      </trkpt>
      <trkpt lat="46.49822" lon="5.90057">
        <ele>943.660159</ele>
        <time>2021-04-30T06:01:04.563Z</time>
      </trkpt>
      <trkpt lat="46.49821" lon="5.90031">
        <ele>943.631588</ele>
        <time>2021-04-30T06:01:09.408Z</time>
      </trkpt>
      <trkpt lat="46.49826" lon="5.90013">
        <ele>943.520085</ele>
        <time>2021-04-30T06:01:12.387Z</time>
      </trkpt>
      <trkpt lat="46.49833" lon="5.90005">
        <ele>943.438523</ele>
        <time>2021-04-30T06:01:14.767Z</time>
      </trkpt>
      <trkpt lat="46.49833" lon="5.90001">
        <ele>943.408169</ele>
        <time>2021-04-30T06:01:15.935Z</time>
      </trkpt>
      <trkpt lat="46.49859" lon="5.89977">
        <ele>943.129012</ele>
        <time>2021-04-30T06:01:24.562Z</time>
      </trkpt>
      <trkpt lat="46.49864" lon="5.89971">
        <ele>943.069554</ele>
        <time>2021-04-30T06:01:26.352Z</time>
      </trkpt>
      <trkpt lat="46.49877" lon="5.89949">
        <ele>942.892115</ele>
        <time>2021-04-30T06:01:30.829Z</time>
      </trkpt>
      <trkpt lat="46.49885" lon="5.89913">
        <ele>942.656421</ele>
        <time>2021-04-30T06:01:38.850Z</time>
      </trkpt>
      <trkpt lat="46.49884" lon="5.89908">
        <ele>942.619827</ele>
        <time>2021-04-30T06:01:39.752Z</time>
      </trkpt>
      <trkpt lat="46.49863" lon="5.89925">
        <ele>942.398095</ele>
        <time>2021-04-30T06:01:47.229Z</time>
      </trkpt>
      <trkpt lat="46.49825" lon="5.89961">
        <ele>941.969521</ele>
        <time>2021-04-30T06:01:56.552Z</time>
      </trkpt>
      <trkpt lat="46.49808" lon="5.89984">
        <ele>941.303871</ele>
        <time>2021-04-30T06:02:00.982Z</time>
      </trkpt>
      <trkpt lat="46.49805" lon="5.89992">
        <ele>941.121435</ele>
        <time>2021-04-30T06:02:02.202Z</time>
      </trkpt>
      <trkpt lat="46.49802" lon="5.9">
        <ele>940.930356</ele>
        <time>2021-04-30T06:02:03.456Z</time>
      </trkpt>
      <trkpt lat="46.49802" lon="5.90053">
        <ele>939.874805</ele>
        <time>2021-04-30T06:02:10.414Z</time>
      </trkpt>
      <trkpt lat="46.49819" lon="5.901">
        <ele>938.812323</ele>
        <time>2021-04-30T06:02:17.494Z</time>
      </trkpt>
      <trkpt lat="46.49822" lon="5.90107">
        <ele>938.657771</ele>
        <time>2021-04-30T06:02:18.489Z</time>
      </trkpt>
      <trkpt lat="46.49827" lon="5.90119">
        <ele>938.37664</ele>
        <time>2021-04-30T06:02:20.303Z</time>
      </trkpt>
      <trkpt lat="46.49869" lon="5.9022">
        <ele>936.766713</ele>
        <time>2021-04-30T06:02:36.879Z</time>
      </trkpt>
      <trkpt lat="46.49925" lon="5.90443">
        <ele>936.888749</ele>
        <time>2021-04-30T06:03:23.552Z</time>
      </trkpt>
      <trkpt lat="46.49994" lon="5.90571">
        <ele>938.874846</ele>
        <time>2021-04-30T06:04:06.669Z</time>
      </trkpt>
      <trkpt lat="46.50019" lon="5.90614">
        <ele>939.567935</ele>
        <time>2021-04-30T06:04:20.861Z</time>
      </trkpt>
      <trkpt lat="46.50032" lon="5.90638">
        <ele>939.907302</ele>
        <time>2021-04-30T06:04:27.981Z</time>
      </trkpt>
      <trkpt lat="46.50083" lon="5.90709">
        <ele>939.590363</ele>
        <time>2021-04-30T06:04:49.219Z</time>
      </trkpt>
      <trkpt lat="46.50103" lon="5.90745">
        <ele>939.446205</ele>
        <time>2021-04-30T06:04:57.416Z</time>
      </trkpt>
      <trkpt lat="46.50133" lon="5.90879">
        <ele>938.668259</ele>
        <time>2021-04-30T06:05:18.073Z</time>
      </trkpt>
      <trkpt lat="46.50132" lon="5.90961">
        <ele>937.506911</ele>
        <time>2021-04-30T06:05:29.650Z</time>
      </trkpt>
      <trkpt lat="46.5012" lon="5.91011">
        <ele>936.763578</ele>
        <time>2021-04-30T06:05:37.065Z</time>
      </trkpt>
      <trkpt lat="46.50105" lon="5.9105">
        <ele>936.122746</ele>
        <time>2021-04-30T06:05:43.771Z</time>
      </trkpt>
      <trkpt lat="46.50095" lon="5.91072">
        <ele>935.75389</ele>
        <time>2021-04-30T06:05:47.543Z</time>
      </trkpt>
      <trkpt lat="46.50086" lon="5.91091">
        <ele>935.424564</ele>
        <time>2021-04-30T06:05:51.197Z</time>
      </trkpt>
      <trkpt lat="46.50059" lon="5.91137">
        <ele>935.071812</ele>
        <time>2021-04-30T06:06:00.433Z</time>
      </trkpt>
      <trkpt lat="46.50049" lon="5.91159">
        <ele>934.919536</ele>
        <time>2021-04-30T06:06:04.581Z</time>
      </trkpt>
      <trkpt lat="46.5004" lon="5.91182">
        <ele>934.766346</ele>
        <time>2021-04-30T06:06:08.891Z</time>
      </trkpt>
      <trkpt lat="46.50032" lon="5.91226">
        <ele>934.509848</ele>
        <time>2021-04-30T06:06:16.227Z</time>
      </trkpt>
      <trkpt lat="46.50032" lon="5.91286">
        <ele>934.162487</ele>
        <time>2021-04-30T06:06:26.243Z</time>
      </trkpt>
      <trkpt lat="46.50059" lon="5.91406">
        <ele>933.802639</ele>
        <time>2021-04-30T06:06:49.896Z</time>
      </trkpt>
      <trkpt lat="46.5008" lon="5.91509">
        <ele>933.659997</ele>
        <time>2021-04-30T06:07:09.214Z</time>
      </trkpt>
      <trkpt lat="46.50085" lon="5.91538">
        <ele>933.619401</ele>
        <time>2021-04-30T06:07:14.547Z</time>
      </trkpt>
      <trkpt lat="46.50094" lon="5.91622">
        <ele>933.2205</ele>
        <time>2021-04-30T06:07:29.018Z</time>
      </trkpt>
      <trkpt lat="46.50087" lon="5.91669">
        <ele>932.847423</ele>
        <time>2021-04-30T06:07:36.781Z</time>
      </trkpt>
      <trkpt lat="46.50065" lon="5.91712">
        <ele>932.421952</ele>
        <time>2021-04-30T06:07:45.339Z</time>
      </trkpt>
      <trkpt lat="46.49998" lon="5.91783">
        <ele>931.48372</ele>
        <time>2021-04-30T06:08:03.316Z</time>
      </trkpt>
      <trkpt lat="46.49956" lon="5.91843">
        <ele>930.710804</ele>
        <time>2021-04-30T06:08:16.254Z</time>
      </trkpt>
      <trkpt lat="46.4994" lon="5.91866">
        <ele>930.427142</ele>
        <time>2021-04-30T06:08:20.982Z</time>
      </trkpt>
      <trkpt lat="46.49866" lon="5.91929">
        <ele>929.30938</ele>
        <time>2021-04-30T06:08:41.665Z</time>
      </trkpt>
      <trkpt lat="46.49819" lon="5.91963">
        <ele>927.870458</ele>
        <time>2021-04-30T06:08:53.577Z</time>
      </trkpt>
      <trkpt lat="46.49727" lon="5.92036">
        <ele>924.697689</ele>
        <time>2021-04-30T06:09:14.712Z</time>
      </trkpt>
      <trkpt lat="46.49705" lon="5.92052">
        <ele>923.946296</ele>
        <time>2021-04-30T06:09:19.188Z</time>
      </trkpt>
      <trkpt lat="46.49675" lon="5.92091">
        <ele>920.51984</ele>
        <time>2021-04-30T06:09:26.228Z</time>
      </trkpt>
      <trkpt lat="46.49636" lon="5.92161">
        <ele>914.396853</ele>
        <time>2021-04-30T06:09:36.557Z</time>
      </trkpt>
      <trkpt lat="46.49624" lon="5.92198">
        <ele>911.615702</ele>
        <time>2021-04-30T06:09:41.110Z</time>
      </trkpt>
      <trkpt lat="46.49624" lon="5.92264">
        <ele>907.151205</ele>
        <time>2021-04-30T06:09:48.339Z</time>
      </trkpt>
      <trkpt lat="46.49633" lon="5.92352">
        <ele>901.023213</ele>
        <time>2021-04-30T06:09:57.938Z</time>
      </trkpt>
      <trkpt lat="46.49665" lon="5.9246">
        <ele>892.838791</ele>
        <time>2021-04-30T06:10:10.936Z</time>
      </trkpt>
      <trkpt lat="46.49664" lon="5.9248">
        <ele>891.44478</ele>
        <time>2021-04-30T06:10:13.181Z</time>
      </trkpt>
      <trkpt lat="46.49654" lon="5.92502">
        <ele>889.682089</ele>
        <time>2021-04-30T06:10:16.592Z</time>
      </trkpt>
      <trkpt lat="46.49648" lon="5.92514">
        <ele>888.617014</ele>
        <time>2021-04-30T06:10:18.218Z</time>
      </trkpt>
      <trkpt lat="46.49666" lon="5.92539">
        <ele>888.105319</ele>
        <time>2021-04-30T06:10:24.293Z</time>
      </trkpt>
      <trkpt lat="46.49821" lon="5.92728">
        <ele>891.793651</ele>
        <time>2021-04-30T06:11:42.750Z</time>
      </trkpt>
      <trkpt lat="46.49926" lon="5.92897">
        <ele>899.060422</ele>
        <time>2021-04-30T06:13:09.618Z</time>
      </trkpt>
      <trkpt lat="46.50003" lon="5.92972">
        <ele>901.621202</ele>
        <time>2021-04-30T06:13:49.767Z</time>
      </trkpt>
      <trkpt lat="46.50022" lon="5.92993">
        <ele>902.262865</ele>
        <time>2021-04-30T06:13:59.014Z</time>
      </trkpt>
      <trkpt lat="46.5003" lon="5.93002">
        <ele>902.529755</ele>
        <time>2021-04-30T06:14:01.656Z</time>
      </trkpt>
      <trkpt lat="46.50048" lon="5.93035">
        <ele>903.337453</ele>
        <time>2021-04-30T06:14:11.354Z</time>
      </trkpt>
      <trkpt lat="46.50164" lon="5.93303">
        <ele>900.876245</ele>
        <time>2021-04-30T06:14:59.714Z</time>
      </trkpt>
      <trkpt lat="46.50242" lon="5.93449">
        <ele>898.445384</ele>
        <time>2021-04-30T06:15:26.249Z</time>
      </trkpt>
      <trkpt lat="46.50243" lon="5.9345">
        <ele>898.425915</ele>
        <time>2021-04-30T06:15:26.472Z</time>
      </trkpt>
      <trkpt lat="46.50271" lon="5.93503">
        <ele>898.172729</ele>
        <time>2021-04-30T06:15:36.483Z</time>
      </trkpt>
      <trkpt lat="46.50314" lon="5.93582">
        <ele>898.54833</ele>
        <time>2021-04-30T06:15:52.237Z</time>
      </trkpt>
      <trkpt lat="46.50384" lon="5.93709">
        <ele>901.25853</ele>
        <time>2021-04-30T06:16:33.568Z</time>
      </trkpt>
      <trkpt lat="46.50438" lon="5.93746">
        <ele>906.289637</ele>
        <time>2021-04-30T06:17:11.156Z</time>
      </trkpt>
      <trkpt lat="46.50481" lon="5.93778">
        <ele>910.301476</ele>
        <time>2021-04-30T06:17:46.332Z</time>
      </trkpt>
      <trkpt lat="46.50489" lon="5.93765">
        <ele>911.311681</ele>
        <time>2021-04-30T06:17:56.769Z</time>
      </trkpt>
      <trkpt lat="46.50499" lon="5.93748">
        <ele>912.57679</ele>
        <time>2021-04-30T06:18:09.339Z</time>
      </trkpt>
      <trkpt lat="46.50508" lon="5.93764">
        <ele>913.796688</ele>
        <time>2021-04-30T06:18:22.061Z</time>
      </trkpt>
      <trkpt lat="46.50516" lon="5.93798">
        <ele>917.213314</ele>
        <time>2021-04-30T06:18:44.019Z</time>
      </trkpt>
      <trkpt lat="46.50531" lon="5.93826">
        <ele>920.839166</ele>
        <time>2021-04-30T06:19:07.535Z</time>
      </trkpt>
      <trkpt lat="46.50647" lon="5.93973">
        <ele>943.059588</ele>
        <time>2021-04-30T06:21:45.883Z</time>
      </trkpt>
      <trkpt lat="46.50675" lon="5.93995">
        <ele>947.127389</ele>
        <time>2021-04-30T06:22:19.842Z</time>
      </trkpt>
      <trkpt lat="46.50746" lon="5.94019">
        <ele>956.356294</ele>
        <time>2021-04-30T06:23:25.967Z</time>
      </trkpt>
      <trkpt lat="46.50763" lon="5.9403">
        <ele>958.786237</ele>
        <time>2021-04-30T06:23:38.767Z</time>
      </trkpt>
      <trkpt lat="46.50769" lon="5.94037">
        <ele>959.786735</ele>
        <time>2021-04-30T06:23:49.111Z</time>
      </trkpt>
      <trkpt lat="46.50763" lon="5.94051">
        <ele>961.181178</ele>
        <time>2021-04-30T06:23:55.545Z</time>
      </trkpt>
      <trkpt lat="46.5074" lon="5.94089">
        <ele>964.351191</ele>
        <time>2021-04-30T06:24:20.989Z</time>
      </trkpt>
      <trkpt lat="46.50738" lon="5.94115">
        <ele>965.390222</ele>
        <time>2021-04-30T06:24:30.734Z</time>
      </trkpt>
      <trkpt lat="46.50771" lon="5.94154">
        <ele>967.819667</ele>
        <time>2021-04-30T06:24:59.535Z</time>
      </trkpt>
      <trkpt lat="46.5078" lon="5.94174">
        <ele>968.748214</ele>
        <time>2021-04-30T06:25:06.125Z</time>
      </trkpt>
      <trkpt lat="46.5078" lon="5.94236">
        <ele>971.182805</ele>
        <time>2021-04-30T06:25:26.968Z</time>
      </trkpt>
      <trkpt lat="46.50791" lon="5.94309">
        <ele>974.045686</ele>
        <time>2021-04-30T06:25:47.152Z</time>
      </trkpt>
      <trkpt lat="46.50802" lon="5.94346">
        <ele>975.374712</ele>
        <time>2021-04-30T06:25:58.921Z</time>
      </trkpt>
      <trkpt lat="46.50886" lon="5.94507">
        <ele>982.129435</ele>
        <time>2021-04-30T06:27:12.937Z</time>
      </trkpt>
      <trkpt lat="46.50957" lon="5.94564">
        <ele>986.972457</ele>
        <time>2021-04-30T06:28:00.845Z</time>
      </trkpt>
      <trkpt lat="46.51094" lon="5.94782">
        <ele>998.138042</ele>
        <time>2021-04-30T06:29:55.526Z</time>
      </trkpt>
      <trkpt lat="46.51199" lon="5.94888">
        <ele>1003.450381</ele>
        <time>2021-04-30T06:30:53.293Z</time>
      </trkpt>
      <trkpt lat="46.51243" lon="5.94956">
        <ele>1005.369102</ele>
        <time>2021-04-30T06:31:19.717Z</time>
      </trkpt>
      <trkpt lat="46.51281" lon="5.94991">
        <ele>1006.721763</ele>
        <time>2021-04-30T06:31:38.101Z</time>
      </trkpt>
      <trkpt lat="46.51291" lon="5.95008">
        <ele>1007.159752</ele>
        <time>2021-04-30T06:31:43.990Z</time>
      </trkpt>
      <trkpt lat="46.51301" lon="5.95025">
        <ele>1007.583263</ele>
        <time>2021-04-30T06:31:50.557Z</time>
      </trkpt>
      <trkpt lat="46.51332" lon="5.95088">
        <ele>1008.946908</ele>
        <time>2021-04-30T06:32:12.253Z</time>
      </trkpt>
      <trkpt lat="46.51402" lon="5.95195">
        <ele>1011.51725</ele>
        <time>2021-04-30T06:32:53.238Z</time>
      </trkpt>
      <trkpt lat="46.51424" lon="5.95247">
        <ele>1012.425485</ele>
        <time>2021-04-30T06:33:09.480Z</time>
      </trkpt>
      <trkpt lat="46.5152" lon="5.95395">
        <ele>1015.117508</ele>
        <time>2021-04-30T06:34:00.096Z</time>
      </trkpt>
      <trkpt lat="46.5159" lon="5.95536">
        <ele>1016.568387</ele>
        <time>2021-04-30T06:34:44.762Z</time>
      </trkpt>
      <trkpt lat="46.51697" lon="5.95612">
        <ele>1016.418168</ele>
        <time>2021-04-30T06:35:18.333Z</time>
      </trkpt>
      <trkpt lat="46.5172" lon="5.95633">
        <ele>1015.841067</ele>
        <time>2021-04-30T06:35:25.236Z</time>
      </trkpt>
      <trkpt lat="46.51733" lon="5.95647">
        <ele>1015.514437</ele>
        <time>2021-04-30T06:35:28.372Z</time>
      </trkpt>
      <trkpt lat="46.51742" lon="5.95688">
        <ele>1014.893114</ele>
        <time>2021-04-30T06:35:34.855Z</time>
      </trkpt>
      <trkpt lat="46.51738" lon="5.95764">
        <ele>1013.781685</ele>
        <time>2021-04-30T06:35:45.649Z</time>
      </trkpt>
      <trkpt lat="46.51746" lon="5.95847">
        <ele>1010.9004</ele>
        <time>2021-04-30T06:35:56.695Z</time>
      </trkpt>
      <trkpt lat="46.51824" lon="5.96073">
        <ele>999.62155</ele>
        <time>2021-04-30T06:36:29.030Z</time>
      </trkpt>
      <trkpt lat="46.51844" lon="5.96165">
        <ele>993.31881</ele>
        <time>2021-04-30T06:36:40.583Z</time>
      </trkpt>
      <trkpt lat="46.5186" lon="5.96216">
        <ele>989.606144</ele>
        <time>2021-04-30T06:36:47.121Z</time>
      </trkpt>
      <trkpt lat="46.51863" lon="5.96223">
        <ele>989.102397</ele>
        <time>2021-04-30T06:36:47.989Z</time>
      </trkpt>
      <trkpt lat="46.51862" lon="5.96273">
        <ele>985.587123</ele>
        <time>2021-04-30T06:36:53.662Z</time>
      </trkpt>
      <trkpt lat="46.51868" lon="5.96308">
        <ele>982.335892</ele>
        <time>2021-04-30T06:36:57.909Z</time>
      </trkpt>
      <trkpt lat="46.51882" lon="5.96339">
        <ele>979.032378</ele>
        <time>2021-04-30T06:37:02.102Z</time>
      </trkpt>
      <trkpt lat="46.51896" lon="5.96369">
        <ele>975.812292</ele>
        <time>2021-04-30T06:37:06.148Z</time>
      </trkpt>
      <trkpt lat="46.51908" lon="5.96402">
        <ele>972.493452</ele>
        <time>2021-04-30T06:37:10.406Z</time>
      </trkpt>
      <trkpt lat="46.51909" lon="5.96408">
        <ele>971.949941</ele>
        <time>2021-04-30T06:37:11.076Z</time>
      </trkpt>
      <trkpt lat="46.51982" lon="5.96675">
        <ele>949.156628</ele>
        <time>2021-04-30T06:37:44.324Z</time>
      </trkpt>
      <trkpt lat="46.52024" lon="5.96804">
        <ele>940.200758</ele>
        <time>2021-04-30T06:38:01.672Z</time>
      </trkpt>
      <trkpt lat="46.52172" lon="5.9719">
        <ele>918.373654</ele>
        <time>2021-04-30T06:38:56.450Z</time>
      </trkpt>
      <trkpt lat="46.52175" lon="5.972">
        <ele>917.87441</ele>
        <time>2021-04-30T06:38:57.760Z</time>
      </trkpt>
      <trkpt lat="46.52181" lon="5.97216">
        <ele>917.174108</ele>
        <time>2021-04-30T06:39:00.047Z</time>
      </trkpt>
      <trkpt lat="46.52219" lon="5.97296">
        <ele>913.521171</ele>
        <time>2021-04-30T06:39:12.342Z</time>
      </trkpt>
      <trkpt lat="46.52328" lon="5.97573">
        <ele>902.366649</ele>
        <time>2021-04-30T06:39:54.671Z</time>
      </trkpt>
      <trkpt lat="46.52383" lon="5.97702">
        <ele>897.432706</ele>
        <time>2021-04-30T06:40:14.674Z</time>
      </trkpt>
      <trkpt lat="46.52405" lon="5.97769">
        <ele>895.066924</ele>
        <time>2021-04-30T06:40:24.381Z</time>
      </trkpt>
      <trkpt lat="46.52416" lon="5.97789">
        <ele>894.244405</ele>
        <time>2021-04-30T06:40:27.662Z</time>
      </trkpt>
      <trkpt lat="46.5246" lon="5.97841">
        <ele>891.626608</ele>
        <time>2021-04-30T06:40:38.975Z</time>
      </trkpt>
      <trkpt lat="46.52467" lon="5.97856">
        <ele>891.079055</ele>
        <time>2021-04-30T06:40:41.249Z</time>
      </trkpt>
      <trkpt lat="46.52476" lon="5.97878">
        <ele>890.383198</ele>
        <time>2021-04-30T06:40:45.408Z</time>
      </trkpt>
      <trkpt lat="46.52494" lon="5.97928">
        <ele>888.937456</ele>
        <time>2021-04-30T06:40:52.957Z</time>
      </trkpt>
      <trkpt lat="46.52515" lon="5.9798">
        <ele>887.346712</ele>
        <time>2021-04-30T06:41:00.791Z</time>
      </trkpt>
      <trkpt lat="46.52538" lon="5.98029">
        <ele>885.784205</ele>
        <time>2021-04-30T06:41:08.513Z</time>
      </trkpt>
      <trkpt lat="46.52549" lon="5.98058">
        <ele>884.922259</ele>
        <time>2021-04-30T06:41:13.232Z</time>
      </trkpt>
      <trkpt lat="46.52553" lon="5.98069">
        <ele>884.586742</ele>
        <time>2021-04-30T06:41:14.838Z</time>
      </trkpt>
      <trkpt lat="46.52573" lon="5.9814">
        <ele>882.302314</ele>
        <time>2021-04-30T06:41:25.121Z</time>
      </trkpt>
      <trkpt lat="46.52592" lon="5.98249">
        <ele>878.866626</ele>
        <time>2021-04-30T06:41:39.345Z</time>
      </trkpt>
      <trkpt lat="46.52612" lon="5.98302">
        <ele>877.007815</ele>
        <time>2021-04-30T06:41:46.867Z</time>
      </trkpt>
      <trkpt lat="46.5263" lon="5.98342">
        <ele>875.537961</ele>
        <time>2021-04-30T06:41:52.739Z</time>
      </trkpt>
      <trkpt lat="46.52642" lon="5.9837">
        <ele>874.457892</ele>
        <time>2021-04-30T06:41:57.016Z</time>
      </trkpt>
      <trkpt lat="46.52725" lon="5.98453">
        <ele>869.745474</ele>
        <time>2021-04-30T06:42:15.379Z</time>
      </trkpt>
      <trkpt lat="46.52755" lon="5.98493">
        <ele>867.86913</ele>
        <time>2021-04-30T06:42:22.835Z</time>
      </trkpt>
      <trkpt lat="46.52767" lon="5.98525">
        <ele>866.844768</ele>
        <time>2021-04-30T06:42:27.678Z</time>
      </trkpt>
      <trkpt lat="46.52776" lon="5.98561">
        <ele>865.791744</ele>
        <time>2021-04-30T06:42:32.575Z</time>
      </trkpt>
      <trkpt lat="46.52796" lon="5.98677">
        <ele>862.458127</ele>
        <time>2021-04-30T06:42:48.190Z</time>
      </trkpt>
      <trkpt lat="46.52817" lon="5.98775">
        <ele>859.610842</ele>
        <time>2021-04-30T06:43:01.505Z</time>
      </trkpt>
      <trkpt lat="46.52842" lon="5.9882">
        <ele>858.053911</ele>
        <time>2021-04-30T06:43:09.195Z</time>
      </trkpt>
      <trkpt lat="46.5291" lon="5.9888">
        <ele>854.900596</ele>
        <time>2021-04-30T06:43:24.532Z</time>
      </trkpt>
      <trkpt lat="46.52933" lon="5.98905">
        <ele>853.762234</ele>
        <time>2021-04-30T06:43:29.779Z</time>
      </trkpt>
      <trkpt lat="46.52956" lon="5.98944">
        <ele>851.747289</ele>
        <time>2021-04-30T06:43:36.209Z</time>
      </trkpt>
      <trkpt lat="46.52967" lon="5.9896">
        <ele>850.806267</ele>
        <time>2021-04-30T06:43:39.014Z</time>
      </trkpt>
      <trkpt lat="46.52975" lon="5.9897">
        <ele>850.156339</ele>
        <time>2021-04-30T06:43:40.988Z</time>
      </trkpt>
      <trkpt lat="46.52989" lon="5.98989">
        <ele>848.992651</ele>
        <time>2021-04-30T06:43:44.439Z</time>
      </trkpt>
      <trkpt lat="46.53003" lon="5.99008">
        <ele>847.887781</ele>
        <time>2021-04-30T06:43:47.727Z</time>
      </trkpt>
      <trkpt lat="46.53015" lon="5.99025">
        <ele>846.873314</ele>
        <time>2021-04-30T06:43:50.703Z</time>
      </trkpt>
      <trkpt lat="46.53034" lon="5.9905">
        <ele>845.322793</ele>
        <time>2021-04-30T06:43:55.239Z</time>
      </trkpt>
      <trkpt lat="46.53092" lon="5.99122">
        <ele>840.617592</ele>
        <time>2021-04-30T06:44:08.143Z</time>
      </trkpt>
      <trkpt lat="46.53118" lon="5.99172">
        <ele>837.851586</ele>
        <time>2021-04-30T06:44:15.589Z</time>
      </trkpt>
      <trkpt lat="46.53135" lon="5.99218">
        <ele>835.557227</ele>
        <time>2021-04-30T06:44:21.783Z</time>
      </trkpt>
      <trkpt lat="46.53139" lon="5.99235">
        <ele>834.768827</ele>
        <time>2021-04-30T06:44:23.855Z</time>
      </trkpt>
      <trkpt lat="46.53149" lon="5.99269">
        <ele>833.141403</ele>
        <time>2021-04-30T06:44:28.525Z</time>
      </trkpt>
      <trkpt lat="46.53184" lon="5.99364">
        <ele>829.622846</ele>
        <time>2021-04-30T06:44:42.001Z</time>
      </trkpt>
      <trkpt lat="46.53205" lon="5.99415">
        <ele>828.113546</ele>
        <time>2021-04-30T06:44:49.602Z</time>
      </trkpt>
      <trkpt lat="46.53216" lon="5.99446">
        <ele>827.231693</ele>
        <time>2021-04-30T06:44:54.372Z</time>
      </trkpt>
      <trkpt lat="46.53247" lon="5.9953">
        <ele>824.851837</ele>
        <time>2021-04-30T06:45:07.995Z</time>
      </trkpt>
      <trkpt lat="46.53269" lon="5.99556">
        <ele>824.141298</ele>
        <time>2021-04-30T06:45:13.869Z</time>
      </trkpt>
      <trkpt lat="46.53293" lon="5.99572">
        <ele>823.562314</ele>
        <time>2021-04-30T06:45:18.995Z</time>
      </trkpt>
      <trkpt lat="46.53294" lon="5.99569">
        <ele>823.498934</ele>
        <time>2021-04-30T06:45:19.659Z</time>
      </trkpt>
      <trkpt lat="46.53309" lon="5.99571">
        <ele>823.161754</ele>
        <time>2021-04-30T06:45:22.802Z</time>
      </trkpt>
      <trkpt lat="46.53357" lon="5.99619">
        <ele>821.85765</ele>
        <time>2021-04-30T06:45:35.338Z</time>
      </trkpt>
      <trkpt lat="46.53399" lon="5.99726">
        <ele>820.744178</ele>
        <time>2021-04-30T06:45:54.151Z</time>
      </trkpt>
      <trkpt lat="46.53401" lon="5.99748">
        <ele>820.792083</ele>
        <time>2021-04-30T06:45:57.781Z</time>
      </trkpt>
      <trkpt lat="46.53393" lon="5.99791">
        <ele>820.887651</ele>
        <time>2021-04-30T06:46:07.571Z</time>
      </trkpt>
      <trkpt lat="46.53396" lon="5.99861">
        <ele>821.037381</ele>
        <time>2021-04-30T06:46:23.829Z</time>
      </trkpt>
      <trkpt lat="46.53444" lon="5.99924">
        <ele>821.219772</ele>
        <time>2021-04-30T06:46:45.791Z</time>
      </trkpt>
      <trkpt lat="46.53457" lon="5.9994">
        <ele>821.240554</ele>
        <time>2021-04-30T06:46:53.414Z</time>
      </trkpt>
      <trkpt lat="46.53472" lon="5.99961">
        <ele>821.266361</ele>
        <time>2021-04-30T06:46:58.760Z</time>
      </trkpt>
      <trkpt lat="46.5353" lon="6.00049">
        <ele>821.370118</ele>
        <time>2021-04-30T06:47:25.494Z</time>
      </trkpt>
      <trkpt lat="46.53532" lon="6.00052">
        <ele>821.373429</ele>
        <time>2021-04-30T06:47:26.803Z</time>
      </trkpt>
      <trkpt lat="46.5353" lon="6.00056">
        <ele>821.378644</ele>
        <time>2021-04-30T06:47:27.528Z</time>
      </trkpt>
      <trkpt lat="46.53527" lon="6.00097">
        <ele>821.412874</ele>
        <time>2021-04-30T06:47:35.185Z</time>
      </trkpt>
      <trkpt lat="46.53561" lon="6.00185">
        <ele>818.933564</ele>
        <time>2021-04-30T06:47:50.036Z</time>
      </trkpt>
      <trkpt lat="46.53562" lon="6.00205">
        <ele>818.302962</ele>
        <time>2021-04-30T06:47:52.757Z</time>
      </trkpt>
      <trkpt lat="46.53561" lon="6.00216">
        <ele>817.992484</ele>
        <time>2021-04-30T06:47:54.064Z</time>
      </trkpt>
      <trkpt lat="46.53559" lon="6.00262">
        <ele>816.572955</ele>
        <time>2021-04-30T06:48:00.363Z</time>
      </trkpt>
      <trkpt lat="46.53553" lon="6.00273">
        <ele>816.124768</ele>
        <time>2021-04-30T06:48:02.371Z</time>
      </trkpt>
      <trkpt lat="46.5355" lon="6.00275">
        <ele>815.988083</ele>
        <time>2021-04-30T06:48:02.969Z</time>
      </trkpt>
      <trkpt lat="46.53547" lon="6.00277">
        <ele>815.834895</ele>
        <time>2021-04-30T06:48:03.640Z</time>
      </trkpt>
      <trkpt lat="46.5354" lon="6.003">
        <ele>815.072363</ele>
        <time>2021-04-30T06:48:06.986Z</time>
      </trkpt>
      <trkpt lat="46.5354" lon="6.00309">
        <ele>814.789496</ele>
        <time>2021-04-30T06:48:08.113Z</time>
      </trkpt>
      <trkpt lat="46.53539" lon="6.0034">
        <ele>813.845122</ele>
        <time>2021-04-30T06:48:12.251Z</time>
      </trkpt>
      <trkpt lat="46.53537" lon="6.00366">
        <ele>812.292758</ele>
        <time>2021-04-30T06:48:15.370Z</time>
      </trkpt>
      <trkpt lat="46.53535" lon="6.00393">
        <ele>809.882398</ele>
        <time>2021-04-30T06:48:18.880Z</time>
      </trkpt>
      <trkpt lat="46.53531" lon="6.00415">
        <ele>807.800147</ele>
        <time>2021-04-30T06:48:21.528Z</time>
      </trkpt>
      <trkpt lat="46.53522" lon="6.00481">
        <ele>801.765679</ele>
        <time>2021-04-30T06:48:29.270Z</time>
      </trkpt>
      <trkpt lat="46.53521" lon="6.00538">
        <ele>796.643239</ele>
        <time>2021-04-30T06:48:35.725Z</time>
      </trkpt>
      <trkpt lat="46.53521" lon="6.00554">
        <ele>795.256626</ele>
        <time>2021-04-30T06:48:37.431Z</time>
      </trkpt>
      <trkpt lat="46.5352" lon="6.00569">
        <ele>793.830144</ele>
        <time>2021-04-30T06:48:39.166Z</time>
      </trkpt>
      <trkpt lat="46.53509" lon="6.00644">
        <ele>786.10918</ele>
        <time>2021-04-30T06:48:47.682Z</time>
      </trkpt>
      <trkpt lat="46.53509" lon="6.00654">
        <ele>784.846674</ele>
        <time>2021-04-30T06:48:48.848Z</time>
      </trkpt>
      <trkpt lat="46.53498" lon="6.00645">
        <ele>782.619827</ele>
        <time>2021-04-30T06:48:52.308Z</time>
      </trkpt>
      <trkpt lat="46.53467" lon="6.0057">
        <ele>772.321094</ele>
        <time>2021-04-30T06:49:08.532Z</time>
      </trkpt>
      <trkpt lat="46.53459" lon="6.00564">
        <ele>770.660695</ele>
        <time>2021-04-30T06:49:11.108Z</time>
      </trkpt>
      <trkpt lat="46.53438" lon="6.00567">
        <ele>767.099925</ele>
        <time>2021-04-30T06:49:16.847Z</time>
      </trkpt>
      <trkpt lat="46.53429" lon="6.00575">
        <ele>765.158826</ele>
        <time>2021-04-30T06:49:19.852Z</time>
      </trkpt>
      <trkpt lat="46.5341" lon="6.00572">
        <ele>761.932026</ele>
        <time>2021-04-30T06:49:25.072Z</time>
      </trkpt>
      <trkpt lat="46.53376" lon="6.00527">
        <ele>755.726255</ele>
        <time>2021-04-30T06:49:37.958Z</time>
      </trkpt>
      <trkpt lat="46.53362" lon="6.00481">
        <ele>752.013346</ele>
        <time>2021-04-30T06:49:48.025Z</time>
      </trkpt>
      <trkpt lat="46.53358" lon="6.00439">
        <ele>748.888523</ele>
        <time>2021-04-30T06:49:56.568Z</time>
      </trkpt>
      <trkpt lat="46.53345" lon="6.00428">
        <ele>747.285104</ele>
        <time>2021-04-30T06:50:00.962Z</time>
      </trkpt>
      <trkpt lat="46.53332" lon="6.004">
        <ele>744.791047</ele>
        <time>2021-04-30T06:50:07.822Z</time>
      </trkpt>
      <trkpt lat="46.53327" lon="6.00318">
        <ele>738.715771</ele>
        <time>2021-04-30T06:50:24.927Z</time>
      </trkpt>
      <trkpt lat="46.53333" lon="6.00281">
        <ele>736.176918</ele>
        <time>2021-04-30T06:50:32.881Z</time>
      </trkpt>
      <trkpt lat="46.53358" lon="6.0022">
        <ele>731.482099</ele>
        <time>2021-04-30T06:50:47.625Z</time>
      </trkpt>
      <trkpt lat="46.53353" lon="6.002">
        <ele>730.089605</ele>
        <time>2021-04-30T06:50:51.956Z</time>
      </trkpt>
      <trkpt lat="46.53309" lon="6.00166">
        <ele>725.313742</ele>
        <time>2021-04-30T06:51:06.657Z</time>
      </trkpt>
      <trkpt lat="46.53257" lon="6.00161">
        <ele>720.451388</ele>
        <time>2021-04-30T06:51:21.478Z</time>
      </trkpt>
      <trkpt lat="46.53222" lon="6.00171">
        <ele>717.331496</ele>
        <time>2021-04-30T06:51:31.810Z</time>
      </trkpt>
      <trkpt lat="46.53201" lon="6.00163">
        <ele>715.476041</ele>
        <time>2021-04-30T06:51:38.190Z</time>
      </trkpt>
      <trkpt lat="46.53185" lon="6.0011">
        <ele>712.010461</ele>
        <time>2021-04-30T06:51:50.177Z</time>
      </trkpt>
      <trkpt lat="46.53173" lon="6.00125">
        <ele>710.668419</ele>
        <time>2021-04-30T06:51:54.646Z</time>
      </trkpt>
      <trkpt lat="46.53173" lon="6.00141">
        <ele>709.664091</ele>
        <time>2021-04-30T06:51:56.740Z</time>
      </trkpt>
      <trkpt lat="46.53179" lon="6.00199">
        <ele>706.242014</ele>
        <time>2021-04-30T06:52:03.725Z</time>
      </trkpt>
      <trkpt lat="46.53194" lon="6.00219">
        <ele>705.73258</ele>
        <time>2021-04-30T06:52:07.181Z</time>
      </trkpt>
      <trkpt lat="46.53213" lon="6.00229">
        <ele>705.22379</ele>
        <time>2021-04-30T06:52:11.256Z</time>
      </trkpt>
      <trkpt lat="46.5322" lon="6.00232">
        <ele>705.041964</ele>
        <time>2021-04-30T06:52:12.550Z</time>
      </trkpt>
      <trkpt lat="46.53226" lon="6.00234">
        <ele>704.887715</ele>
        <time>2021-04-30T06:52:13.594Z</time>
      </trkpt>
      <trkpt lat="46.53239" lon="6.00248">
        <ele>704.475259</ele>
        <time>2021-04-30T06:52:16.998Z</time>
      </trkpt>
      <trkpt lat="46.53245" lon="6.00272">
        <ele>704.033866</ele>
        <time>2021-04-30T06:52:20.332Z</time>
      </trkpt>
      <trkpt lat="46.53228" lon="6.00413">
        <ele>701.76631</ele>
        <time>2021-04-30T06:52:45.695Z</time>
      </trkpt>
      <trkpt lat="46.53234" lon="6.0046">
        <ele>701.881241</ele>
        <time>2021-04-30T06:52:54.591Z</time>
      </trkpt>
      <trkpt lat="46.5324" lon="6.00476">
        <ele>701.923729</ele>
        <time>2021-04-30T06:52:57.723Z</time>
      </trkpt>
      <trkpt lat="46.53267" lon="6.00509">
        <ele>702.044566</ele>
        <time>2021-04-30T06:53:06.908Z</time>
      </trkpt>
      <trkpt lat="46.53271" lon="6.00563">
        <ele>702.173619</ele>
        <time>2021-04-30T06:53:17.149Z</time>
      </trkpt>
      <trkpt lat="46.53283" lon="6.006">
        <ele>702.271766</ele>
        <time>2021-04-30T06:53:25.254Z</time>
      </trkpt>
      <trkpt lat="46.53312" lon="6.00626">
        <ele>702.580098</ele>
        <time>2021-04-30T06:53:35.857Z</time>
      </trkpt>
      <trkpt lat="46.53335" lon="6.00663">
        <ele>703.658996</ele>
        <time>2021-04-30T06:53:48.142Z</time>
      </trkpt>
      <trkpt lat="46.5336" lon="6.00688">
        <ele>704.602714</ele>
        <time>2021-04-30T06:53:59.980Z</time>
      </trkpt>
      <trkpt lat="46.53365" lon="6.00752">
        <ele>705.979116</ele>
        <time>2021-04-30T06:54:18.783Z</time>
      </trkpt>
      <trkpt lat="46.53403" lon="6.00869">
        <ele>708.600221</ele>
        <time>2021-04-30T06:55:02.501Z</time>
      </trkpt>
      <trkpt lat="46.53406" lon="6.00928">
        <ele>709.597939</ele>
        <time>2021-04-30T06:55:21.407Z</time>
      </trkpt>
      <trkpt lat="46.53415" lon="6.00946">
        <ele>709.976122</ele>
        <time>2021-04-30T06:55:31.726Z</time>
      </trkpt>
      <trkpt lat="46.53453" lon="6.00991">
        <ele>711.200488</ele>
        <time>2021-04-30T06:55:45.817Z</time>
      </trkpt>
      <trkpt lat="46.53462" lon="6.01008">
        <ele>711.576095</ele>
        <time>2021-04-30T06:55:50.488Z</time>
      </trkpt>
      <trkpt lat="46.53462" lon="6.01015">
        <ele>711.693802</ele>
        <time>2021-04-30T06:55:56.011Z</time>
      </trkpt>
      <trkpt lat="46.53453" lon="6.0103">
        <ele>712.033093</ele>
        <time>2021-04-30T06:55:58.706Z</time>
      </trkpt>
      <trkpt lat="46.5345" lon="6.01034">
        <ele>712.130097</ele>
        <time>2021-04-30T06:55:59.352Z</time>
      </trkpt>
      <trkpt lat="46.53402" lon="6.01036">
        <ele>711.877203</ele>
        <time>2021-04-30T06:56:12.487Z</time>
      </trkpt>
      <trkpt lat="46.53387" lon="6.01046">
        <ele>711.6218</ele>
        <time>2021-04-30T06:56:20.746Z</time>
      </trkpt>
      <trkpt lat="46.53385" lon="6.01049">
        <ele>711.569913</ele>
        <time>2021-04-30T06:56:21.253Z</time>
      </trkpt>
      <trkpt lat="46.53383" lon="6.01054">
        <ele>711.506036</ele>
        <time>2021-04-30T06:56:21.934Z</time>
      </trkpt>
      <trkpt lat="46.53293" lon="6.01421">
        <ele>706.563012</ele>
        <time>2021-04-30T06:57:17.794Z</time>
      </trkpt>
      <trkpt lat="46.53282" lon="6.01439">
        <ele>706.224696</ele>
        <time>2021-04-30T06:57:21.318Z</time>
      </trkpt>
      <trkpt lat="46.53192" lon="6.01524">
        <ele>704.208183</ele>
        <time>2021-04-30T06:57:44.569Z</time>
      </trkpt>
      <trkpt lat="46.53159" lon="6.01597">
        <ele>703.089517</ele>
        <time>2021-04-30T06:57:57.550Z</time>
      </trkpt>
      <trkpt lat="46.5309" lon="6.01698">
        <ele>701.711024</ele>
        <time>2021-04-30T06:58:17.998Z</time>
      </trkpt>
      <trkpt lat="46.53078" lon="6.01728">
        <ele>701.410369</ele>
        <time>2021-04-30T06:58:23.401Z</time>
      </trkpt>
      <trkpt lat="46.53073" lon="6.01751">
        <ele>701.206268</ele>
        <time>2021-04-30T06:58:27.052Z</time>
      </trkpt>
      <trkpt lat="46.53071" lon="6.01784">
        <ele>700.929795</ele>
        <time>2021-04-30T06:58:32.406Z</time>
      </trkpt>
      <trkpt lat="46.53067" lon="6.01839">
        <ele>700.459548</ele>
        <time>2021-04-30T06:58:42.298Z</time>
      </trkpt>
      <trkpt lat="46.53072" lon="6.01947">
        <ele>700.324244</ele>
        <time>2021-04-30T06:59:02.346Z</time>
      </trkpt>
      <trkpt lat="46.53077" lon="6.01976">
        <ele>700.316526</ele>
        <time>2021-04-30T06:59:07.709Z</time>
      </trkpt>
      <trkpt lat="46.53082" lon="6.01999">
        <ele>700.310471</ele>
        <time>2021-04-30T06:59:11.984Z</time>
      </trkpt>
      <trkpt lat="46.53087" lon="6.0202">
        <ele>700.305092</ele>
        <time>2021-04-30T06:59:16.423Z</time>
      </trkpt>
      <trkpt lat="46.53087" lon="6.01993">
        <ele>700.298359</ele>
        <time>2021-04-30T06:59:29.290Z</time>
      </trkpt>
      <trkpt lat="46.53084" lon="6.01979">
        <ele>700.29472</ele>
        <time>2021-04-30T06:59:36.242Z</time>
      </trkpt>
      <trkpt lat="46.5309" lon="6.01947">
        <ele>700.286286</ele>
        <time>2021-04-30T06:59:52.338Z</time>
      </trkpt>
      <trkpt lat="46.53084" lon="6.01979">
        <ele>700.293088</ele>
        <time>2021-04-30T07:00:08.435Z</time>
      </trkpt>
      <trkpt lat="46.53087" lon="6.01993">
        <ele>700.301573</ele>
        <time>2021-04-30T07:00:15.386Z</time>
      </trkpt>
      <trkpt lat="46.53087" lon="6.0202">
        <ele>700.317269</ele>
        <time>2021-04-30T07:00:28.253Z</time>
      </trkpt>
      <trkpt lat="46.53082" lon="6.01999">
        <ele>700.329807</ele>
        <time>2021-04-30T07:00:31.831Z</time>
      </trkpt>
      <trkpt lat="46.53077" lon="6.01976">
        <ele>700.343922</ele>
        <time>2021-04-30T07:00:36.427Z</time>
      </trkpt>
      <trkpt lat="46.53072" lon="6.01947">
        <ele>700.361914</ele>
        <time>2021-04-30T07:00:42.430Z</time>
      </trkpt>
      <trkpt lat="46.53067" lon="6.01839">
        <ele>700.425155</ele>
        <time>2021-04-30T07:01:02.145Z</time>
      </trkpt>
      <trkpt lat="46.53071" lon="6.01784">
        <ele>700.80324</ele>
        <time>2021-04-30T07:01:12.692Z</time>
      </trkpt>
      <trkpt lat="46.53073" lon="6.01751">
        <ele>701.120348</ele>
        <time>2021-04-30T07:01:19.491Z</time>
      </trkpt>
      <trkpt lat="46.53078" lon="6.01728">
        <ele>701.354448</ele>
        <time>2021-04-30T07:01:25.081Z</time>
      </trkpt>
      <trkpt lat="46.5309" lon="6.01698">
        <ele>701.699293</ele>
        <time>2021-04-30T07:01:33.293Z</time>
      </trkpt>
      <trkpt lat="46.53159" lon="6.01597">
        <ele>703.112266</ele>
        <time>2021-04-30T07:02:09.397Z</time>
      </trkpt>
      <trkpt lat="46.53192" lon="6.01524">
        <ele>704.226551</ele>
        <time>2021-04-30T07:02:31.007Z</time>
      </trkpt>
      <trkpt lat="46.53282" lon="6.01439">
        <ele>706.195767</ele>
        <time>2021-04-30T07:03:08.126Z</time>
      </trkpt>
      <trkpt lat="46.53293" lon="6.01421">
        <ele>706.525225</ele>
        <time>2021-04-30T07:03:13.719Z</time>
      </trkpt>
      <trkpt lat="46.53383" lon="6.01054">
        <ele>711.386166</ele>
        <time>2021-04-30T07:04:53.724Z</time>
      </trkpt>
      <trkpt lat="46.53385" lon="6.01049">
        <ele>711.439195</ele>
        <time>2021-04-30T07:04:56.802Z</time>
      </trkpt>
      <trkpt lat="46.53387" lon="6.01046">
        <ele>711.482272</ele>
        <time>2021-04-30T07:05:00.975Z</time>
      </trkpt>
      <trkpt lat="46.53402" lon="6.01036">
        <ele>711.694305</ele>
        <time>2021-04-30T07:05:04.013Z</time>
      </trkpt>
      <trkpt lat="46.5345" lon="6.01034">
        <ele>712.302598</ele>
        <time>2021-04-30T07:05:16.229Z</time>
      </trkpt>
      <trkpt lat="46.53453" lon="6.0103">
        <ele>712.352863</ele>
        <time>2021-04-30T07:05:19.402Z</time>
      </trkpt>
      <trkpt lat="46.53462" lon="6.01015">
        <ele>712.16735</ele>
        <time>2021-04-30T07:05:25.122Z</time>
      </trkpt>
      <trkpt lat="46.53462" lon="6.01008">
        <ele>712.024938</ele>
        <time>2021-04-30T07:05:25.855Z</time>
      </trkpt>
      <trkpt lat="46.53453" lon="6.00991">
        <ele>711.570495</ele>
        <time>2021-04-30T07:05:29.457Z</time>
      </trkpt>
      <trkpt lat="46.53415" lon="6.00946">
        <ele>710.089148</ele>
        <time>2021-04-30T07:05:41.937Z</time>
      </trkpt>
      <trkpt lat="46.53406" lon="6.00928">
        <ele>709.631589</ele>
        <time>2021-04-30T07:05:44.504Z</time>
      </trkpt>
      <trkpt lat="46.53403" lon="6.00869">
        <ele>708.424461</ele>
        <time>2021-04-30T07:05:52.071Z</time>
      </trkpt>
      <trkpt lat="46.53365" lon="6.00752">
        <ele>705.86337</ele>
        <time>2021-04-30T07:06:08.489Z</time>
      </trkpt>
      <trkpt lat="46.5336" lon="6.00688">
        <ele>704.65282</ele>
        <time>2021-04-30T07:06:17.080Z</time>
      </trkpt>
      <trkpt lat="46.53335" lon="6.00663">
        <ele>703.822816</ele>
        <time>2021-04-30T07:06:23.203Z</time>
      </trkpt>
      <trkpt lat="46.53312" lon="6.00626">
        <ele>702.873921</ele>
        <time>2021-04-30T07:06:30.592Z</time>
      </trkpt>
      <trkpt lat="46.53283" lon="6.006">
        <ele>702.088812</ele>
        <time>2021-04-30T07:06:38.293Z</time>
      </trkpt>
      <trkpt lat="46.53271" lon="6.00563">
        <ele>702.017841</ele>
        <time>2021-04-30T07:06:45.447Z</time>
      </trkpt>
      <trkpt lat="46.53267" lon="6.00509">
        <ele>701.924522</ele>
        <time>2021-04-30T07:06:55.236Z</time>
      </trkpt>
      <trkpt lat="46.5324" lon="6.00476">
        <ele>701.837143</ele>
        <time>2021-04-30T07:07:04.763Z</time>
      </trkpt>
      <trkpt lat="46.53234" lon="6.0046">
        <ele>701.80642</ele>
        <time>2021-04-30T07:07:08.217Z</time>
      </trkpt>
      <trkpt lat="46.53228" lon="6.00413">
        <ele>701.723312</ele>
        <time>2021-04-30T07:07:17.149Z</time>
      </trkpt>
      <trkpt lat="46.53245" lon="6.00272">
        <ele>701.254265</ele>
        <time>2021-04-30T07:07:42.970Z</time>
      </trkpt>
      <trkpt lat="46.53239" lon="6.00248">
        <ele>701.154183</ele>
        <time>2021-04-30T07:07:47.134Z</time>
      </trkpt>
      <trkpt lat="46.53226" lon="6.00234">
        <ele>701.060663</ele>
        <time>2021-04-30T07:07:51.323Z</time>
      </trkpt>
      <trkpt lat="46.5322" lon="6.00232">
        <ele>701.025689</ele>
        <time>2021-04-30T07:07:52.920Z</time>
      </trkpt>
      <trkpt lat="46.53213" lon="6.00229">
        <ele>700.984461</ele>
        <time>2021-04-30T07:07:54.431Z</time>
      </trkpt>
      <trkpt lat="46.53194" lon="6.00219">
        <ele>700.869098</ele>
        <time>2021-04-30T07:07:59.385Z</time>
      </trkpt>
      <trkpt lat="46.53179" lon="6.00199">
        <ele>700.753589</ele>
        <time>2021-04-30T07:08:03.984Z</time>
      </trkpt>
      <trkpt lat="46.53173" lon="6.00141">
        <ele>700.430061</ele>
        <time>2021-04-30T07:08:13.167Z</time>
      </trkpt>
      <trkpt lat="46.53173" lon="6.00125">
        <ele>700.302421</ele>
        <time>2021-04-30T07:08:15.793Z</time>
      </trkpt>
      <trkpt lat="46.53173" lon="6.00111">
        <ele>700.197714</ele>
        <time>2021-04-30T07:08:17.997Z</time>
      </trkpt>
      <trkpt lat="46.53174" lon="6.00096">
        <ele>700.086692</ele>
        <time>2021-04-30T07:08:20.069Z</time>
      </trkpt>
      <trkpt lat="46.53197" lon="5.99963">
        <ele>699.036372</ele>
        <time>2021-04-30T07:08:41.833Z</time>
      </trkpt>
      <trkpt lat="46.53202" lon="5.99909">
        <ele>698.622375</ele>
        <time>2021-04-30T07:08:50.540Z</time>
      </trkpt>
      <trkpt lat="46.53201" lon="5.99884">
        <ele>698.493966</ele>
        <time>2021-04-30T07:08:54.464Z</time>
      </trkpt>
      <trkpt lat="46.53189" lon="5.99822">
        <ele>698.158356</ele>
        <time>2021-04-30T07:09:04.888Z</time>
      </trkpt>
      <trkpt lat="46.53179" lon="5.99807">
        <ele>698.048055</ele>
        <time>2021-04-30T07:09:08.403Z</time>
      </trkpt>
      <trkpt lat="46.53154" lon="5.99799">
        <ele>697.857124</ele>
        <time>2021-04-30T07:09:14.398Z</time>
      </trkpt>
      <trkpt lat="46.53081" lon="5.99755">
        <ele>697.277683</ele>
        <time>2021-04-30T07:09:33.754Z</time>
      </trkpt>
      <trkpt lat="46.53039" lon="5.99748">
        <ele>697.324931</ele>
        <time>2021-04-30T07:09:44.180Z</time>
      </trkpt>
      <trkpt lat="46.53001" lon="5.99757">
        <ele>697.366913</ele>
        <time>2021-04-30T07:09:53.412Z</time>
      </trkpt>
      <trkpt lat="46.5299" lon="5.99747">
        <ele>697.381112</ele>
        <time>2021-04-30T07:09:56.633Z</time>
      </trkpt>
      <trkpt lat="46.52982" lon="5.99729">
        <ele>697.397322</ele>
        <time>2021-04-30T07:10:00.774Z</time>
      </trkpt>
      <trkpt lat="46.52981" lon="5.99706">
        <ele>697.414783</ele>
        <time>2021-04-30T07:10:05.173Z</time>
      </trkpt>
      <trkpt lat="46.52989" lon="5.99593">
        <ele>697.741509</ele>
        <time>2021-04-30T07:10:30.272Z</time>
      </trkpt>
      <trkpt lat="46.52988" lon="5.99551">
        <ele>698.06112</ele>
        <time>2021-04-30T07:10:40.110Z</time>
      </trkpt>
      <trkpt lat="46.5298" lon="5.99503">
        <ele>698.433894</ele>
        <time>2021-04-30T07:10:51.394Z</time>
      </trkpt>
      <trkpt lat="46.52958" lon="5.99461">
        <ele>698.831705</ele>
        <time>2021-04-30T07:11:03.022Z</time>
      </trkpt>
      <trkpt lat="46.5295" lon="5.99393">
        <ele>699.354819</ele>
        <time>2021-04-30T07:11:18.406Z</time>
      </trkpt>
      <trkpt lat="46.52939" lon="5.99382">
        <ele>699.425973</ele>
        <time>2021-04-30T07:11:22.698Z</time>
      </trkpt>
      <trkpt lat="46.52862" lon="5.99363">
        <ele>699.074104</ele>
        <time>2021-04-30T07:11:44.881Z</time>
      </trkpt>
      <trkpt lat="46.52843" lon="5.99367">
        <ele>698.986138</ele>
        <time>2021-04-30T07:11:49.596Z</time>
      </trkpt>
      <trkpt lat="46.52747" lon="5.99422">
        <ele>698.13866</ele>
        <time>2021-04-30T07:12:12.357Z</time>
      </trkpt>
      <trkpt lat="46.52735" lon="5.99422">
        <ele>697.911389</ele>
        <time>2021-04-30T07:12:14.967Z</time>
      </trkpt>
      <trkpt lat="46.52713" lon="5.99411">
        <ele>697.454924</ele>
        <time>2021-04-30T07:12:19.943Z</time>
      </trkpt>
      <trkpt lat="46.5269" lon="5.9938">
        <ele>696.84887</ele>
        <time>2021-04-30T07:12:26.557Z</time>
      </trkpt>
      <trkpt lat="46.52673" lon="5.99339">
        <ele>696.201657</ele>
        <time>2021-04-30T07:12:33.577Z</time>
      </trkpt>
      <trkpt lat="46.52659" lon="5.99273">
        <ele>695.280893</ele>
        <time>2021-04-30T07:12:43.506Z</time>
      </trkpt>
      <trkpt lat="46.52651" lon="5.99259">
        <ele>695.00086</ele>
        <time>2021-04-30T07:12:46.128Z</time>
      </trkpt>
      <trkpt lat="46.52587" lon="5.99232">
        <ele>693.196406</ele>
        <time>2021-04-30T07:12:59.804Z</time>
      </trkpt>
      <trkpt lat="46.52524" lon="5.99233">
        <ele>691.527228</ele>
        <time>2021-04-30T07:13:12.133Z</time>
      </trkpt>
      <trkpt lat="46.52484" lon="5.99246">
        <ele>690.406888</ele>
        <time>2021-04-30T07:13:20.391Z</time>
      </trkpt>
      <trkpt lat="46.52467" lon="5.99245">
        <ele>690.00795</ele>
        <time>2021-04-30T07:13:23.679Z</time>
      </trkpt>
      <trkpt lat="46.52451" lon="5.99235">
        <ele>689.585002</ele>
        <time>2021-04-30T07:13:27.253Z</time>
      </trkpt>
      <trkpt lat="46.52429" lon="5.99186">
        <ele>688.633119</ele>
        <time>2021-04-30T07:13:35.402Z</time>
      </trkpt>
      <trkpt lat="46.52404" lon="5.99072">
        <ele>686.689363</ele>
        <time>2021-04-30T07:13:52.477Z</time>
      </trkpt>
      <trkpt lat="46.52375" lon="5.98973">
        <ele>685.425511</ele>
        <time>2021-04-30T07:14:08.469Z</time>
      </trkpt>
      <trkpt lat="46.52374" lon="5.98921">
        <ele>684.937252</ele>
        <time>2021-04-30T07:14:16.616Z</time>
      </trkpt>
      <trkpt lat="46.52359" lon="5.98905">
        <ele>684.679658</ele>
        <time>2021-04-30T07:14:20.906Z</time>
      </trkpt>
      <trkpt lat="46.52332" lon="5.98907">
        <ele>684.302528</ele>
        <time>2021-04-30T07:14:27.069Z</time>
      </trkpt>
      <trkpt lat="46.52309" lon="5.98881">
        <ele>683.908757</ele>
        <time>2021-04-30T07:14:33.450Z</time>
      </trkpt>
      <trkpt lat="46.52297" lon="5.98854">
        <ele>683.604979</ele>
        <time>2021-04-30T07:14:38.480Z</time>
      </trkpt>
      <trkpt lat="46.52265" lon="5.98772">
        <ele>683.346904</ele>
        <time>2021-04-30T07:14:53.868Z</time>
      </trkpt>
      <trkpt lat="46.52218" lon="5.98678">
        <ele>683.028313</ele>
        <time>2021-04-30T07:15:14.407Z</time>
      </trkpt>
      <trkpt lat="46.52203" lon="5.98614">
        <ele>682.940647</ele>
        <time>2021-04-30T07:15:27.106Z</time>
      </trkpt>
      <trkpt lat="46.52149" lon="5.98517">
        <ele>683.313153</ele>
        <time>2021-04-30T07:15:52.039Z</time>
      </trkpt>
      <trkpt lat="46.52139" lon="5.98478">
        <ele>683.437856</ele>
        <time>2021-04-30T07:16:00.909Z</time>
      </trkpt>
      <trkpt lat="46.52134" lon="5.98441">
        <ele>683.550124</ele>
        <time>2021-04-30T07:16:09.020Z</time>
      </trkpt>
      <trkpt lat="46.52144" lon="5.98411">
        <ele>683.648703</ele>
        <time>2021-04-30T07:16:15.899Z</time>
      </trkpt>
      <trkpt lat="46.52139" lon="5.98396">
        <ele>683.63114</ele>
        <time>2021-04-30T07:16:19.073Z</time>
      </trkpt>
      <trkpt lat="46.52125" lon="5.98392">
        <ele>683.552729</ele>
        <time>2021-04-30T07:16:22.731Z</time>
      </trkpt>
      <trkpt lat="46.52111" lon="5.98404">
        <ele>683.461743</ele>
        <time>2021-04-30T07:16:27.123Z</time>
      </trkpt>
      <trkpt lat="46.52087" lon="5.98395">
        <ele>683.329526</ele>
        <time>2021-04-30T07:16:32.914Z</time>
      </trkpt>
      <trkpt lat="46.52056" lon="5.98359">
        <ele>683.106435</ele>
        <time>2021-04-30T07:16:42.759Z</time>
      </trkpt>
      <trkpt lat="46.5203" lon="5.98309">
        <ele>682.870413</ele>
        <time>2021-04-30T07:16:53.203Z</time>
      </trkpt>
      <trkpt lat="46.51981" lon="5.98293">
        <ele>682.471653</ele>
        <time>2021-04-30T07:17:04.518Z</time>
      </trkpt>
      <trkpt lat="46.51904" lon="5.98249">
        <ele>681.334565</ele>
        <time>2021-04-30T07:17:22.583Z</time>
      </trkpt>
      <trkpt lat="46.51763" lon="5.98129">
        <ele>679.964851</ele>
        <time>2021-04-30T07:17:59.180Z</time>
      </trkpt>
      <trkpt lat="46.51716" lon="5.97953">
        <ele>680.103311</ele>
        <time>2021-04-30T07:18:36.722Z</time>
      </trkpt>
      <trkpt lat="46.51717" lon="5.97889">
        <ele>680.68947</ele>
        <time>2021-04-30T07:18:52.030Z</time>
      </trkpt>
      <trkpt lat="46.51699" lon="5.97856">
        <ele>681.080096</ele>
        <time>2021-04-30T07:19:02.374Z</time>
      </trkpt>
      <trkpt lat="46.51693" lon="5.9783">
        <ele>681.335463</ele>
        <time>2021-04-30T07:19:09.282Z</time>
      </trkpt>
      <trkpt lat="46.51694" lon="5.97788">
        <ele>681.723529</ele>
        <time>2021-04-30T07:19:19.844Z</time>
      </trkpt>
      <trkpt lat="46.51729" lon="5.97549">
        <ele>682.702391</ele>
        <time>2021-04-30T07:20:12.931Z</time>
      </trkpt>
      <trkpt lat="46.51721" lon="5.97483">
        <ele>682.781384</ele>
        <time>2021-04-30T07:20:23.216Z</time>
      </trkpt>
      <trkpt lat="46.51703" lon="5.97453">
        <ele>682.410791</ele>
        <time>2021-04-30T07:20:29.139Z</time>
      </trkpt>
      <trkpt lat="46.51684" lon="5.974">
        <ele>681.851895</ele>
        <time>2021-04-30T07:20:38.137Z</time>
      </trkpt>
      <trkpt lat="46.51639" lon="5.97333">
        <ele>680.986833</ele>
        <time>2021-04-30T07:20:52.113Z</time>
      </trkpt>
      <trkpt lat="46.51601" lon="5.97301">
        <ele>680.392798</ele>
        <time>2021-04-30T07:21:01.947Z</time>
      </trkpt>
      <trkpt lat="46.51537" lon="5.97281">
        <ele>679.594056</ele>
        <time>2021-04-30T07:21:17.111Z</time>
      </trkpt>
      <trkpt lat="46.5153" lon="5.97274">
        <ele>679.501293</ele>
        <time>2021-04-30T07:21:19.051Z</time>
      </trkpt>
      <trkpt lat="46.51525" lon="5.97269">
        <ele>679.428162</ele>
        <time>2021-04-30T07:21:20.672Z</time>
      </trkpt>
      <trkpt lat="46.51489" lon="5.97189">
        <ele>678.619787</ele>
        <time>2021-04-30T07:21:38.710Z</time>
      </trkpt>
      <trkpt lat="46.51478" lon="5.97127">
        <ele>677.44864</ele>
        <time>2021-04-30T07:21:47.696Z</time>
      </trkpt>
      <trkpt lat="46.51459" lon="5.9706">
        <ele>674.513892</ele>
        <time>2021-04-30T07:21:56.959Z</time>
      </trkpt>
      <trkpt lat="46.51429" lon="5.97015">
        <ele>671.99436</ele>
        <time>2021-04-30T07:22:04.472Z</time>
      </trkpt>
      <trkpt lat="46.51424" lon="5.97006">
        <ele>671.511063</ele>
        <time>2021-04-30T07:22:05.907Z</time>
      </trkpt>
      <trkpt lat="46.51419" lon="5.97">
        <ele>671.15122</ele>
        <time>2021-04-30T07:22:07.856Z</time>
      </trkpt>
      <trkpt lat="46.51415" lon="5.96991">
        <ele>670.707049</ele>
        <time>2021-04-30T07:22:10.312Z</time>
      </trkpt>
      <trkpt lat="46.5141" lon="5.96974">
        <ele>669.937369</ele>
        <time>2021-04-30T07:22:14.220Z</time>
      </trkpt>
      <trkpt lat="46.51344" lon="5.96758">
        <ele>659.389213</ele>
        <time>2021-04-30T07:23:03.000Z</time>
      </trkpt>
      <trkpt lat="46.51319" lon="5.96719">
        <ele>656.896886</ele>
        <time>2021-04-30T07:23:14.917Z</time>
      </trkpt>
      <trkpt lat="46.51274" lon="5.96692">
        <ele>657.725231</ele>
        <time>2021-04-30T07:23:33.208Z</time>
      </trkpt>
      <trkpt lat="46.5124" lon="5.96652">
        <ele>660.851107</ele>
        <time>2021-04-30T07:24:04.644Z</time>
      </trkpt>
      <trkpt lat="46.51213" lon="5.96638">
        <ele>662.926486</ele>
        <time>2021-04-30T07:24:28.731Z</time>
      </trkpt>
      <trkpt lat="46.51169" lon="5.96628">
        <ele>666.105822</ele>
        <time>2021-04-30T07:25:10.652Z</time>
      </trkpt>
      <trkpt lat="46.51153" lon="5.96617">
        <ele>667.345829</ele>
        <time>2021-04-30T07:25:29.349Z</time>
      </trkpt>
      <trkpt lat="46.51149" lon="5.96626">
        <ele>667.878077</ele>
        <time>2021-04-30T07:25:36.828Z</time>
      </trkpt>
      <trkpt lat="46.51137" lon="5.9665">
        <ele>670.489905</ele>
        <time>2021-04-30T07:26:01.035Z</time>
      </trkpt>
      <trkpt lat="46.51141" lon="5.9667">
        <ele>673.057164</ele>
        <time>2021-04-30T07:26:24.600Z</time>
      </trkpt>
      <trkpt lat="46.51208" lon="5.96766">
        <ele>689.540086</ele>
        <time>2021-04-30T07:29:19.045Z</time>
      </trkpt>
      <trkpt lat="46.51226" lon="5.96833">
        <ele>698.195814</ele>
        <time>2021-04-30T07:30:55.264Z</time>
      </trkpt>
      <trkpt lat="46.51213" lon="5.96837">
        <ele>700.424176</ele>
        <time>2021-04-30T07:31:17.474Z</time>
      </trkpt>
      <trkpt lat="46.51171" lon="5.96804">
        <ele>708.992646</ele>
        <time>2021-04-30T07:32:42.591Z</time>
      </trkpt>
      <trkpt lat="46.51162" lon="5.96804">
        <ele>710.63239</ele>
        <time>2021-04-30T07:32:59.422Z</time>
      </trkpt>
      <trkpt lat="46.51138" lon="5.96774">
        <ele>716.323361</ele>
        <time>2021-04-30T07:33:56.908Z</time>
      </trkpt>
      <trkpt lat="46.51103" lon="5.96747">
        <ele>723.572436</ele>
        <time>2021-04-30T07:35:10.990Z</time>
      </trkpt>
      <trkpt lat="46.51073" lon="5.96712">
        <ele>730.447378</ele>
        <time>2021-04-30T07:36:20.598Z</time>
      </trkpt>
      <trkpt lat="46.50998" lon="5.96658">
        <ele>745.083221</ele>
        <time>2021-04-30T07:38:53.390Z</time>
      </trkpt>
      <trkpt lat="46.50962" lon="5.96614">
        <ele>753.214377</ele>
        <time>2021-04-30T07:40:17.412Z</time>
      </trkpt>
      <trkpt lat="46.50951" lon="5.9661">
        <ele>755.276817</ele>
        <time>2021-04-30T07:40:38.492Z</time>
      </trkpt>
      <trkpt lat="46.50917" lon="5.96572">
        <ele>762.729653</ele>
        <time>2021-04-30T07:41:54.260Z</time>
      </trkpt>
      <trkpt lat="46.50839" lon="5.96545">
        <ele>776.15441</ele>
        <time>2021-04-30T07:44:17.536Z</time>
      </trkpt>
      <trkpt lat="46.50805" lon="5.96559">
        <ele>781.972988</ele>
        <time>2021-04-30T07:45:20.248Z</time>
      </trkpt>
      <trkpt lat="46.50804" lon="5.96573">
        <ele>783.625992</ele>
        <time>2021-04-30T07:45:38.110Z</time>
      </trkpt>
      <trkpt lat="46.50816" lon="5.96634">
        <ele>790.909949</ele>
        <time>2021-04-30T07:46:55.484Z</time>
      </trkpt>
      <trkpt lat="46.50856" lon="5.96693">
        <ele>798.903947</ele>
        <time>2021-04-30T07:48:31.295Z</time>
      </trkpt>
      <trkpt lat="46.5089" lon="5.9676">
        <ele>806.41298</ele>
        <time>2021-04-30T07:50:03.773Z</time>
      </trkpt>
      <trkpt lat="46.50916" lon="5.96848">
        <ele>815.023303</ele>
        <time>2021-04-30T07:51:44.467Z</time>
      </trkpt>
      <trkpt lat="46.50945" lon="5.96961">
        <ele>823.999883</ele>
        <time>2021-04-30T07:53:46.354Z</time>
      </trkpt>
      <trkpt lat="46.50945" lon="5.9703">
        <ele>828.774771</ele>
        <time>2021-04-30T07:54:53.628Z</time>
      </trkpt>
      <trkpt lat="46.50917" lon="5.97114">
        <ele>835.293496</ele>
        <time>2021-04-30T07:56:25.617Z</time>
      </trkpt>
      <trkpt lat="46.50904" lon="5.97123">
        <ele>836.67003</ele>
        <time>2021-04-30T07:56:46.847Z</time>
      </trkpt>
      <trkpt lat="46.50877" lon="5.97008">
        <ele>844.37322</ele>
        <time>2021-04-30T07:58:46.260Z</time>
      </trkpt>
      <trkpt lat="46.50848" lon="5.96981">
        <ele>847.553946</ele>
        <time>2021-04-30T07:59:34.681Z</time>
      </trkpt>
      <trkpt lat="46.50818" lon="5.96933">
        <ele>851.634954</ele>
        <time>2021-04-30T08:00:35.740Z</time>
      </trkpt>
      <trkpt lat="46.50803" lon="5.96887">
        <ele>854.034839</ele>
        <time>2021-04-30T08:01:21.973Z</time>
      </trkpt>
      <trkpt lat="46.50777" lon="5.96848">
        <ele>856.528062</ele>
        <time>2021-04-30T08:02:11.144Z</time>
      </trkpt>
      <trkpt lat="46.50761" lon="5.96837">
        <ele>857.664985</ele>
        <time>2021-04-30T08:02:33.044Z</time>
      </trkpt>
      <trkpt lat="46.50751" lon="5.96839">
        <ele>858.331827</ele>
        <time>2021-04-30T08:02:45.726Z</time>
      </trkpt>
      <trkpt lat="46.5075" lon="5.96869">
        <ele>859.689858</ele>
        <time>2021-04-30T08:03:11.677Z</time>
      </trkpt>
      <trkpt lat="46.50757" lon="5.96901">
        <ele>861.235681</ele>
        <time>2021-04-30T08:03:40.797Z</time>
      </trkpt>
      <trkpt lat="46.50751" lon="5.96945">
        <ele>863.228753</ele>
        <time>2021-04-30T08:04:17.590Z</time>
      </trkpt>
      <trkpt lat="46.50746" lon="5.96963">
        <ele>864.061174</ele>
        <time>2021-04-30T08:04:33.663Z</time>
      </trkpt>
      <trkpt lat="46.50721" lon="5.97003">
        <ele>866.130155</ele>
        <time>2021-04-30T08:05:19.303Z</time>
      </trkpt>
      <trkpt lat="46.50719" lon="5.9708">
        <ele>869.005807</ele>
        <time>2021-04-30T08:06:22.427Z</time>
      </trkpt>
      <trkpt lat="46.50709" lon="5.97134">
        <ele>871.100021</ele>
        <time>2021-04-30T08:07:08.490Z</time>
      </trkpt>
      <trkpt lat="46.50677" lon="5.97166">
        <ele>873.220247</ele>
        <time>2021-04-30T08:07:56.226Z</time>
      </trkpt>
      <trkpt lat="46.50663" lon="5.9719">
        <ele>874.700679</ele>
        <time>2021-04-30T08:08:12.960Z</time>
      </trkpt>
      <trkpt lat="46.50626" lon="5.9724">
        <ele>878.448775</ele>
        <time>2021-04-30T08:08:51.413Z</time>
      </trkpt>
      <trkpt lat="46.50612" lon="5.9731">
        <ele>882.219566</ele>
        <time>2021-04-30T08:09:32.753Z</time>
      </trkpt>
      <trkpt lat="46.5055" lon="5.97409">
        <ele>888.832168</ele>
        <time>2021-04-30T08:10:52.198Z</time>
      </trkpt>
      <trkpt lat="46.50474" lon="5.97467">
        <ele>894.271571</ele>
        <time>2021-04-30T08:11:59.701Z</time>
      </trkpt>
      <trkpt lat="46.50438" lon="5.97478">
        <ele>896.649362</ele>
        <time>2021-04-30T08:12:25.732Z</time>
      </trkpt>
      <trkpt lat="46.50434" lon="5.97483">
        <ele>896.947031</ele>
        <time>2021-04-30T08:12:31.710Z</time>
      </trkpt>
      <trkpt lat="46.50428" lon="5.97472">
        <ele>897.579044</ele>
        <time>2021-04-30T08:12:35.815Z</time>
      </trkpt>
      <trkpt lat="46.50407" lon="5.97452">
        <ele>898.765035</ele>
        <time>2021-04-30T08:12:53.406Z</time>
      </trkpt>
      <trkpt lat="46.50378" lon="5.97442">
        <ele>899.283435</ele>
        <time>2021-04-30T08:13:08.243Z</time>
      </trkpt>
      <trkpt lat="46.50329" lon="5.9744">
        <ele>900.148129</ele>
        <time>2021-04-30T08:13:35.299Z</time>
      </trkpt>
      <trkpt lat="46.50184" lon="5.97466">
        <ele>902.997002</ele>
        <time>2021-04-30T08:14:44.528Z</time>
      </trkpt>
      <trkpt lat="46.50102" lon="5.97459">
        <ele>904.85114</ele>
        <time>2021-04-30T08:15:30.263Z</time>
      </trkpt>
      <trkpt lat="46.50083" lon="5.97464">
        <ele>905.277821</ele>
        <time>2021-04-30T08:15:41.467Z</time>
      </trkpt>
      <trkpt lat="46.50056" lon="5.9749">
        <ele>906.257859</ele>
        <time>2021-04-30T08:16:01.468Z</time>
      </trkpt>
      <trkpt lat="46.50044" lon="5.97491">
        <ele>906.912278</ele>
        <time>2021-04-30T08:16:08.979Z</time>
      </trkpt>
      <trkpt lat="46.5003" lon="5.97461">
        <ele>908.271631</ele>
        <time>2021-04-30T08:16:26.979Z</time>
      </trkpt>
      <trkpt lat="46.5001" lon="5.97432">
        <ele>909.810755</ele>
        <time>2021-04-30T08:16:46.957Z</time>
      </trkpt>
      <trkpt lat="46.49965" lon="5.97396">
        <ele>912.614006</ele>
        <time>2021-04-30T08:17:25.403Z</time>
      </trkpt>
      <trkpt lat="46.49945" lon="5.97389">
        <ele>913.733672</ele>
        <time>2021-04-30T08:17:39.327Z</time>
      </trkpt>
      <trkpt lat="46.49914" lon="5.97393">
        <ele>915.39663</ele>
        <time>2021-04-30T08:18:01.183Z</time>
      </trkpt>
      <trkpt lat="46.49908" lon="5.97384">
        <ele>915.91028</ele>
        <time>2021-04-30T08:18:08.013Z</time>
      </trkpt>
      <trkpt lat="46.49906" lon="5.97398">
        <ele>916.546084</ele>
        <time>2021-04-30T08:18:16.389Z</time>
      </trkpt>
      <trkpt lat="46.49896" lon="5.97426">
        <ele>917.931554</ele>
        <time>2021-04-30T08:18:32.359Z</time>
      </trkpt>
      <trkpt lat="46.49879" lon="5.97447">
        <ele>919.37211</ele>
        <time>2021-04-30T08:18:50.424Z</time>
      </trkpt>
      <trkpt lat="46.49863" lon="5.9748">
        <ele>921.126148</ele>
        <time>2021-04-30T08:19:12.196Z</time>
      </trkpt>
      <trkpt lat="46.49816" lon="5.97555">
        <ele>925.535428</ele>
        <time>2021-04-30T08:20:06.397Z</time>
      </trkpt>
      <trkpt lat="46.49807" lon="5.97573">
        <ele>926.543912</ele>
        <time>2021-04-30T08:20:18.615Z</time>
      </trkpt>
      <trkpt lat="46.49746" lon="5.97529">
        <ele>928.609597</ele>
        <time>2021-04-30T08:20:49.603Z</time>
      </trkpt>
      <trkpt lat="46.49685" lon="5.97482">
        <ele>930.421935</ele>
        <time>2021-04-30T08:21:16.207Z</time>
      </trkpt>
      <trkpt lat="46.49563" lon="5.97363">
        <ele>931.372331</ele>
        <time>2021-04-30T08:21:57.039Z</time>
      </trkpt>
      <trkpt lat="46.49516" lon="5.97317">
        <ele>931.149268</ele>
        <time>2021-04-30T08:22:09.850Z</time>
      </trkpt>
      <trkpt lat="46.49457" lon="5.97262">
        <ele>930.758737</ele>
        <time>2021-04-30T08:22:25.740Z</time>
      </trkpt>
      <trkpt lat="46.4941" lon="5.972">
        <ele>930.34241</ele>
        <time>2021-04-30T08:22:40.073Z</time>
      </trkpt>
      <trkpt lat="46.49325" lon="5.97045">
        <ele>931.285905</ele>
        <time>2021-04-30T08:23:17.736Z</time>
      </trkpt>
      <trkpt lat="46.49309" lon="5.97016">
        <ele>931.870722</ele>
        <time>2021-04-30T08:23:26.911Z</time>
      </trkpt>
      <trkpt lat="46.49206" lon="5.9683">
        <ele>936.136494</ele>
        <time>2021-04-30T08:24:41.414Z</time>
      </trkpt>
      <trkpt lat="46.49179" lon="5.9678">
        <ele>937.426794</ele>
        <time>2021-04-30T08:25:00.273Z</time>
      </trkpt>
      <trkpt lat="46.49097" lon="5.96628">
        <ele>939.088635</ele>
        <time>2021-04-30T08:25:46.804Z</time>
      </trkpt>
      <trkpt lat="46.48991" lon="5.96439">
        <ele>937.320528</ele>
        <time>2021-04-30T08:26:23.348Z</time>
      </trkpt>
      <trkpt lat="46.48986" lon="5.96429">
        <ele>937.120018</ele>
        <time>2021-04-30T08:26:24.949Z</time>
      </trkpt>
      <trkpt lat="46.48833" lon="5.96163">
        <ele>930.823696</ele>
        <time>2021-04-30T08:27:12.850Z</time>
      </trkpt>
      <trkpt lat="46.48721" lon="5.95998">
        <ele>925.749811</ele>
        <time>2021-04-30T08:27:44.571Z</time>
      </trkpt>
      <trkpt lat="46.4865" lon="5.95885">
        <ele>922.177116</ele>
        <time>2021-04-30T08:28:04.443Z</time>
      </trkpt>
      <trkpt lat="46.48612" lon="5.95832">
        <ele>920.360089</ele>
        <time>2021-04-30T08:28:14.433Z</time>
      </trkpt>
      <trkpt lat="46.48607" lon="5.95825">
        <ele>920.121118</ele>
        <time>2021-04-30T08:28:15.737Z</time>
      </trkpt>
      <trkpt lat="46.48572" lon="5.95774">
        <ele>918.41945</ele>
        <time>2021-04-30T08:28:25.273Z</time>
      </trkpt>
      <trkpt lat="46.48568" lon="5.95769">
        <ele>918.250517</ele>
        <time>2021-04-30T08:28:26.228Z</time>
      </trkpt>
      <trkpt lat="46.48428" lon="5.9558">
        <ele>913.567469</ele>
        <time>2021-04-30T08:29:05.607Z</time>
      </trkpt>
      <trkpt lat="46.48394" lon="5.95536">
        <ele>912.92105</ele>
        <time>2021-04-30T08:29:15.539Z</time>
      </trkpt>
      <trkpt lat="46.48386" lon="5.95526">
        <ele>912.865277</ele>
        <time>2021-04-30T08:29:17.819Z</time>
      </trkpt>
      <trkpt lat="46.48243" lon="5.9537">
        <ele>913.004894</ele>
        <time>2021-04-30T08:30:03.232Z</time>
      </trkpt>
      <trkpt lat="46.48211" lon="5.95336">
        <ele>914.157409</ele>
        <time>2021-04-30T08:30:18.600Z</time>
      </trkpt>
      <trkpt lat="46.4809" lon="5.95203">
        <ele>918.294416</ele>
        <time>2021-04-30T08:31:30.327Z</time>
      </trkpt>
      <trkpt lat="46.48076" lon="5.9517">
        <ele>918.898847</ele>
        <time>2021-04-30T08:31:43.035Z</time>
      </trkpt>
      <trkpt lat="46.48073" lon="5.95163">
        <ele>919.019566</ele>
        <time>2021-04-30T08:31:45.384Z</time>
      </trkpt>
      <trkpt lat="46.48006" lon="5.94869">
        <ele>921.484105</ele>
        <time>2021-04-30T08:32:50.182Z</time>
      </trkpt>
      <trkpt lat="46.47976" lon="5.94753">
        <ele>921.560548</ele>
        <time>2021-04-30T08:33:10.362Z</time>
      </trkpt>
      <trkpt lat="46.47954" lon="5.94707">
        <ele>921.501226</ele>
        <time>2021-04-30T08:33:19.707Z</time>
      </trkpt>
      <trkpt lat="46.47887" lon="5.94654">
        <ele>921.383934</ele>
        <time>2021-04-30T08:33:38.534Z</time>
      </trkpt>
      <trkpt lat="46.47885" lon="5.94652">
        <ele>921.381128</ele>
        <time>2021-04-30T08:33:39.060Z</time>
      </trkpt>
      <trkpt lat="46.47859" lon="5.94626">
        <ele>921.331948</ele>
        <time>2021-04-30T08:33:47.319Z</time>
      </trkpt>
      <trkpt lat="46.47775" lon="5.94504">
        <ele>923.739521</ele>
        <time>2021-04-30T08:34:28.076Z</time>
      </trkpt>
      <trkpt lat="46.4777" lon="5.94497">
        <ele>923.912175</ele>
        <time>2021-04-30T08:34:30.740Z</time>
      </trkpt>
      <trkpt lat="46.47746" lon="5.9446">
        <ele>924.737417</ele>
        <time>2021-04-30T08:34:45.541Z</time>
      </trkpt>
      <trkpt lat="46.47729" lon="5.94443">
        <ele>925.245619</ele>
        <time>2021-04-30T08:34:55.922Z</time>
      </trkpt>
      <trkpt lat="46.4771" lon="5.94436">
        <ele>925.715651</ele>
        <time>2021-04-30T08:35:03.452Z</time>
      </trkpt>
      <trkpt lat="46.47703" lon="5.94436">
        <ele>925.878751</ele>
        <time>2021-04-30T08:35:06.272Z</time>
      </trkpt>
      <trkpt lat="46.47694" lon="5.94436">
        <ele>926.096219</ele>
        <time>2021-04-30T08:35:12.085Z</time>
      </trkpt>
      <trkpt lat="46.4763" lon="5.94478">
        <ele>927.843093</ele>
        <time>2021-04-30T08:35:46.380Z</time>
      </trkpt>
      <trkpt lat="46.47548" lon="5.94588">
        <ele>929.156436</ele>
        <time>2021-04-30T08:36:21.611Z</time>
      </trkpt>
      <trkpt lat="46.47523" lon="5.94607">
        <ele>927.99538</ele>
        <time>2021-04-30T08:36:27.712Z</time>
      </trkpt>
      <trkpt lat="46.47519" lon="5.94609">
        <ele>927.844739</ele>
        <time>2021-04-30T08:36:28.432Z</time>
      </trkpt>
      <trkpt lat="46.47514" lon="5.94611">
        <ele>927.600291</ele>
        <time>2021-04-30T08:36:29.457Z</time>
      </trkpt>
      <trkpt lat="46.47497" lon="5.94614">
        <ele>926.890636</ele>
        <time>2021-04-30T08:36:33.153Z</time>
      </trkpt>
      <trkpt lat="46.47464" lon="5.94607">
        <ele>925.551135</ele>
        <time>2021-04-30T08:36:39.204Z</time>
      </trkpt>
      <trkpt lat="46.47444" lon="5.94603">
        <ele>924.709325</ele>
        <time>2021-04-30T08:36:42.774Z</time>
      </trkpt>
      <trkpt lat="46.47333" lon="5.94604">
        <ele>918.451594</ele>
        <time>2021-04-30T08:37:01.473Z</time>
      </trkpt>
      <trkpt lat="46.47271" lon="5.94589">
        <ele>914.089094</ele>
        <time>2021-04-30T08:37:12.248Z</time>
      </trkpt>
      <trkpt lat="46.47225" lon="5.94578">
        <ele>910.87502</ele>
        <time>2021-04-30T08:37:20.397Z</time>
      </trkpt>
      <trkpt lat="46.47182" lon="5.94566">
        <ele>908.781977</ele>
        <time>2021-04-30T08:37:28.216Z</time>
      </trkpt>
      <trkpt lat="46.47136" lon="5.94528">
        <ele>906.530023</ele>
        <time>2021-04-30T08:37:37.834Z</time>
      </trkpt>
      <trkpt lat="46.47105" lon="5.94462">
        <ele>904.19292</ele>
        <time>2021-04-30T08:37:48.520Z</time>
      </trkpt>
      <trkpt lat="46.47096" lon="5.94433">
        <ele>903.276065</ele>
        <time>2021-04-30T08:37:52.786Z</time>
      </trkpt>
      <trkpt lat="46.47093" lon="5.94416">
        <ele>902.748018</ele>
        <time>2021-04-30T08:37:55.479Z</time>
      </trkpt>
      <trkpt lat="46.47088" lon="5.94401">
        <ele>902.368228</ele>
        <time>2021-04-30T08:37:57.687Z</time>
      </trkpt>
      <trkpt lat="46.47029" lon="5.94305">
        <ele>899.792416</ele>
        <time>2021-04-30T08:38:15.467Z</time>
      </trkpt>
      <trkpt lat="46.47007" lon="5.94244">
        <ele>898.392561</ele>
        <time>2021-04-30T08:38:24.846Z</time>
      </trkpt>
      <trkpt lat="46.46993" lon="5.94189">
        <ele>897.295517</ele>
        <time>2021-04-30T08:38:32.581Z</time>
      </trkpt>
      <trkpt lat="46.46959" lon="5.94102">
        <ele>896.383915</ele>
        <time>2021-04-30T08:38:46.890Z</time>
      </trkpt>
      <trkpt lat="46.46943" lon="5.94071">
        <ele>896.037908</ele>
        <time>2021-04-30T08:38:53.024Z</time>
      </trkpt>
      <trkpt lat="46.46928" lon="5.94057">
        <ele>895.801909</ele>
        <time>2021-04-30T08:38:57.019Z</time>
      </trkpt>
      <trkpt lat="46.46884" lon="5.94049">
        <ele>895.225847</ele>
        <time>2021-04-30T08:39:08.107Z</time>
      </trkpt>
      <trkpt lat="46.46868" lon="5.94061">
        <ele>895.014669</ele>
        <time>2021-04-30T08:39:13.713Z</time>
      </trkpt>
      <trkpt lat="46.46849" lon="5.94075">
        <ele>895.332903</ele>
        <time>2021-04-30T08:39:19.481Z</time>
      </trkpt>
      <trkpt lat="46.46845" lon="5.94078">
        <ele>895.395759</ele>
        <time>2021-04-30T08:39:21.773Z</time>
      </trkpt>
      <trkpt lat="46.46826" lon="5.94096">
        <ele>895.724736</ele>
        <time>2021-04-30T08:39:28.120Z</time>
      </trkpt>
      <trkpt lat="46.46799" lon="5.94112">
        <ele>896.16287</ele>
        <time>2021-04-30T08:39:38.331Z</time>
      </trkpt>
      <trkpt lat="46.46774" lon="5.94115">
        <ele>896.529558</ele>
        <time>2021-04-30T08:39:47.938Z</time>
      </trkpt>
      <trkpt lat="46.46747" lon="5.94109">
        <ele>896.931152</ele>
        <time>2021-04-30T08:39:57.503Z</time>
      </trkpt>
      <trkpt lat="46.46699" lon="5.94069">
        <ele>897.714977</ele>
        <time>2021-04-30T08:40:18.946Z</time>
      </trkpt>
      <trkpt lat="46.46681" lon="5.94042">
        <ele>897.947856</ele>
        <time>2021-04-30T08:40:27.264Z</time>
      </trkpt>
      <trkpt lat="46.46616" lon="5.93865">
        <ele>899.21466</ele>
        <time>2021-04-30T08:41:08.845Z</time>
      </trkpt>
      <trkpt lat="46.46601" lon="5.93836">
        <ele>899.347784</ele>
        <time>2021-04-30T08:41:15.987Z</time>
      </trkpt>
      <trkpt lat="46.46573" lon="5.93801">
        <ele>899.458465</ele>
        <time>2021-04-30T08:41:26.618Z</time>
      </trkpt>
      <trkpt lat="46.464" lon="5.9363">
        <ele>899.460443</ele>
        <time>2021-04-30T08:42:24.210Z</time>
      </trkpt>
      <trkpt lat="46.4635" lon="5.93587">
        <ele>899.190563</ele>
        <time>2021-04-30T08:42:37.919Z</time>
      </trkpt>
      <trkpt lat="46.46285" lon="5.9353">
        <ele>898.596737</ele>
        <time>2021-04-30T08:42:55.206Z</time>
      </trkpt>
      <trkpt lat="46.46224" lon="5.93412">
        <ele>897.447395</ele>
        <time>2021-04-30T08:43:18.419Z</time>
      </trkpt>
      <trkpt lat="46.46198" lon="5.9336">
        <ele>896.930854</ele>
        <time>2021-04-30T08:43:28.750Z</time>
      </trkpt>
      <trkpt lat="46.4619" lon="5.93336">
        <ele>896.623253</ele>
        <time>2021-04-30T08:43:33.009Z</time>
      </trkpt>
      <trkpt lat="46.46185" lon="5.93326">
        <ele>896.478636</ele>
        <time>2021-04-30T08:43:35.053Z</time>
      </trkpt>
      <trkpt lat="46.46166" lon="5.93265">
        <ele>895.699164</ele>
        <time>2021-04-30T08:43:45.322Z</time>
      </trkpt>
      <trkpt lat="46.46148" lon="5.93207">
        <ele>894.959479</ele>
        <time>2021-04-30T08:43:54.718Z</time>
      </trkpt>
      <trkpt lat="46.46112" lon="5.93141">
        <ele>893.976749</ele>
        <time>2021-04-30T08:44:07.150Z</time>
      </trkpt>
      <trkpt lat="46.46104" lon="5.93119">
        <ele>893.489245</ele>
        <time>2021-04-30T08:44:10.558Z</time>
      </trkpt>
      <trkpt lat="46.46079" lon="5.93077">
        <ele>892.324047</ele>
        <time>2021-04-30T08:44:18.255Z</time>
      </trkpt>
      <trkpt lat="46.46027" lon="5.92987">
        <ele>889.851525</ele>
        <time>2021-04-30T08:44:34.187Z</time>
      </trkpt>
      <trkpt lat="46.45985" lon="5.92905">
        <ele>887.498974</ele>
        <time>2021-04-30T08:44:47.628Z</time>
      </trkpt>
      <trkpt lat="46.45968" lon="5.9288">
        <ele>886.562805</ele>
        <time>2021-04-30T08:44:52.297Z</time>
      </trkpt>
      <trkpt lat="46.45946" lon="5.92877">
        <ele>885.724756</ele>
        <time>2021-04-30T08:44:56.457Z</time>
      </trkpt>
      <trkpt lat="46.45936" lon="5.92885">
        <ele>885.274049</ele>
        <time>2021-04-30T08:44:58.696Z</time>
      </trkpt>
      <trkpt lat="46.45929" lon="5.92893">
        <ele>884.922254</ele>
        <time>2021-04-30T08:45:00.351Z</time>
      </trkpt>
      <trkpt lat="46.45915" lon="5.92923">
        <ele>883.964469</ele>
        <time>2021-04-30T08:45:05.171Z</time>
      </trkpt>
      <trkpt lat="46.45907" lon="5.92932">
        <ele>883.565008</ele>
        <time>2021-04-30T08:45:07.058Z</time>
      </trkpt>
      <trkpt lat="46.45899" lon="5.92939">
        <ele>883.21857</ele>
        <time>2021-04-30T08:45:08.767Z</time>
      </trkpt>
      <trkpt lat="46.45889" lon="5.92942">
        <ele>882.791797</ele>
        <time>2021-04-30T08:45:10.884Z</time>
      </trkpt>
      <trkpt lat="46.45877" lon="5.9294">
        <ele>882.344493</ele>
        <time>2021-04-30T08:45:13.017Z</time>
      </trkpt>
      <trkpt lat="46.45866" lon="5.92934">
        <ele>881.894705</ele>
        <time>2021-04-30T08:45:15.171Z</time>
      </trkpt>
      <trkpt lat="46.45816" lon="5.92842">
        <ele>878.003559</ele>
        <time>2021-04-30T08:45:30.041Z</time>
      </trkpt>
      <trkpt lat="46.45796" lon="5.92824">
        <ele>876.836341</ele>
        <time>2021-04-30T08:45:34.351Z</time>
      </trkpt>
      <trkpt lat="46.45707" lon="5.92803">
        <ele>872.373789</ele>
        <time>2021-04-30T08:45:50.498Z</time>
      </trkpt>
      <trkpt lat="46.45583" lon="5.92771">
        <ele>865.368687</ele>
        <time>2021-04-30T08:46:12.782Z</time>
      </trkpt>
      <trkpt lat="46.45537" lon="5.92759">
        <ele>862.780486</ele>
        <time>2021-04-30T08:46:21.085Z</time>
      </trkpt>
      <trkpt lat="46.45493" lon="5.92728">
        <ele>860.660878</ele>
        <time>2021-04-30T08:46:29.927Z</time>
      </trkpt>
      <trkpt lat="46.45476" lon="5.92703">
        <ele>859.63418</ele>
        <time>2021-04-30T08:46:34.375Z</time>
      </trkpt>
      <trkpt lat="46.45403" lon="5.92534">
        <ele>854.865609</ele>
        <time>2021-04-30T08:47:00.599Z</time>
      </trkpt>
      <trkpt lat="46.45383" lon="5.92489">
        <ele>854.702998</ele>
        <time>2021-04-30T08:47:08.723Z</time>
      </trkpt>
      <trkpt lat="46.4538" lon="5.92484">
        <ele>854.684154</ele>
        <time>2021-04-30T08:47:09.848Z</time>
      </trkpt>
      <trkpt lat="46.4534" lon="5.92407">
        <ele>854.389934</ele>
        <time>2021-04-30T08:47:27.286Z</time>
      </trkpt>
      <trkpt lat="46.45233" lon="5.92201">
        <ele>856.548105</ele>
        <time>2021-04-30T08:48:33.407Z</time>
      </trkpt>
      <trkpt lat="46.45079" lon="5.91923">
        <ele>859.473628</ele>
        <time>2021-04-30T08:49:52.125Z</time>
      </trkpt>
      <trkpt lat="46.45044" lon="5.91854">
        <ele>859.789806</ele>
        <time>2021-04-30T08:50:09.126Z</time>
      </trkpt>
      <trkpt lat="46.45041" lon="5.91849">
        <ele>859.811877</ele>
        <time>2021-04-30T08:50:10.360Z</time>
      </trkpt>
      <trkpt lat="46.4499" lon="5.91746">
        <ele>860.276657</ele>
        <time>2021-04-30T08:50:35.678Z</time>
      </trkpt>
      <trkpt lat="46.44927" lon="5.91636">
        <ele>860.10626</ele>
        <time>2021-04-30T08:51:04.236Z</time>
      </trkpt>
      <trkpt lat="46.44874" lon="5.91555">
        <ele>859.908064</ele>
        <time>2021-04-30T08:51:22.707Z</time>
      </trkpt>
      <trkpt lat="46.44871" lon="5.91553">
        <ele>859.90066</ele>
        <time>2021-04-30T08:51:23.562Z</time>
      </trkpt>
      <trkpt lat="46.44822" lon="5.91497">
        <ele>858.924341</ele>
        <time>2021-04-30T08:51:37.467Z</time>
      </trkpt>
      <trkpt lat="46.44821" lon="5.91495">
        <ele>858.879287</ele>
        <time>2021-04-30T08:51:37.864Z</time>
      </trkpt>
      <trkpt lat="46.44764" lon="5.91418">
        <ele>857.409481</ele>
        <time>2021-04-30T08:51:54.346Z</time>
      </trkpt>
      <trkpt lat="46.44738" lon="5.91382">
        <ele>856.730695</ele>
        <time>2021-04-30T08:52:01.649Z</time>
      </trkpt>
      <trkpt lat="46.4464" lon="5.91246">
        <ele>854.396399</ele>
        <time>2021-04-30T08:52:29.951Z</time>
      </trkpt>
      <trkpt lat="46.44543" lon="5.91115">
        <ele>853.58354</ele>
        <time>2021-04-30T08:53:01.323Z</time>
      </trkpt>
      <trkpt lat="46.44478" lon="5.91027">
        <ele>853.792383</ele>
        <time>2021-04-30T08:53:27.403Z</time>
      </trkpt>
      <trkpt lat="46.44385" lon="5.90886">
        <ele>856.519295</ele>
        <time>2021-04-30T08:54:17.419Z</time>
      </trkpt>
      <trkpt lat="46.44363" lon="5.90853">
        <ele>857.230584</ele>
        <time>2021-04-30T08:54:29.937Z</time>
      </trkpt>
      <trkpt lat="46.44324" lon="5.90834">
        <ele>858.238033</ele>
        <time>2021-04-30T08:54:46.588Z</time>
      </trkpt>
      <trkpt lat="46.44272" lon="5.90804">
        <ele>859.811613</ele>
        <time>2021-04-30T08:55:09.235Z</time>
      </trkpt>
      <trkpt lat="46.44244" lon="5.90747">
        <ele>861.182316</ele>
        <time>2021-04-30T08:55:29.294Z</time>
      </trkpt>
      <trkpt lat="46.4424" lon="5.90677">
        <ele>862.558959</ele>
        <time>2021-04-30T08:55:48.484Z</time>
      </trkpt>
      <trkpt lat="46.44231" lon="5.90636">
        <ele>863.380091</ele>
        <time>2021-04-30T08:56:00.320Z</time>
      </trkpt>
      <trkpt lat="46.44216" lon="5.90611">
        <ele>863.963312</ele>
        <time>2021-04-30T08:56:09.051Z</time>
      </trkpt>
      <trkpt lat="46.44195" lon="5.90601">
        <ele>864.550658</ele>
        <time>2021-04-30T08:56:17.914Z</time>
      </trkpt>
      <trkpt lat="46.44168" lon="5.90609">
        <ele>865.268756</ele>
        <time>2021-04-30T08:56:28.692Z</time>
      </trkpt>
      <trkpt lat="46.44141" lon="5.90634">
        <ele>866.090538</ele>
        <time>2021-04-30T08:56:40.902Z</time>
      </trkpt>
      <trkpt lat="46.44115" lon="5.90645">
        <ele>866.808584</ele>
        <time>2021-04-30T08:56:51.501Z</time>
      </trkpt>
      <trkpt lat="46.44086" lon="5.90642">
        <ele>867.564334</ele>
        <time>2021-04-30T08:57:02.663Z</time>
      </trkpt>
      <trkpt lat="46.43979" lon="5.90578">
        <ele>871.036092</ele>
        <time>2021-04-30T08:57:49.077Z</time>
      </trkpt>
      <trkpt lat="46.43963" lon="5.90554">
        <ele>871.724182</ele>
        <time>2021-04-30T08:57:58.600Z</time>
      </trkpt>
      <trkpt lat="46.43933" lon="5.90486">
        <ele>873.510847</ele>
        <time>2021-04-30T08:58:22.029Z</time>
      </trkpt>
      <trkpt lat="46.43868" lon="5.9039">
        <ele>877.631891</ele>
        <time>2021-04-30T08:59:06.016Z</time>
      </trkpt>
      <trkpt lat="46.43838" lon="5.90315">
        <ele>880.295803</ele>
        <time>2021-04-30T08:59:36.715Z</time>
      </trkpt>
      <trkpt lat="46.43823" lon="5.90256">
        <ele>882.101844</ele>
        <time>2021-04-30T08:59:58.864Z</time>
      </trkpt>
      <trkpt lat="46.43811" lon="5.90208">
        <ele>883.482518</ele>
        <time>2021-04-30T09:00:16.481Z</time>
      </trkpt>
      <trkpt lat="46.43779" lon="5.9015">
        <ele>885.512625</ele>
        <time>2021-04-30T09:00:41.532Z</time>
      </trkpt>
      <trkpt lat="46.43695" lon="5.90044">
        <ele>888.035512</ele>
        <time>2021-04-30T09:01:26.281Z</time>
      </trkpt>
      <trkpt lat="46.43669" lon="5.89998">
        <ele>887.864844</ele>
        <time>2021-04-30T09:01:37.429Z</time>
      </trkpt>
      <trkpt lat="46.43623" lon="5.8992">
        <ele>887.572602</ele>
        <time>2021-04-30T09:01:52.803Z</time>
      </trkpt>
      <trkpt lat="46.43611" lon="5.89876">
        <ele>887.197806</ele>
        <time>2021-04-30T09:01:59.317Z</time>
      </trkpt>
      <trkpt lat="46.4361" lon="5.89843">
        <ele>886.353467</ele>
        <time>2021-04-30T09:02:03.695Z</time>
      </trkpt>
      <trkpt lat="46.43613" lon="5.89822">
        <ele>885.815097</ele>
        <time>2021-04-30T09:02:06.494Z</time>
      </trkpt>
      <trkpt lat="46.43615" lon="5.898">
        <ele>885.245136</ele>
        <time>2021-04-30T09:02:09.326Z</time>
      </trkpt>
      <trkpt lat="46.43607" lon="5.89754">
        <ele>884.011819</ele>
        <time>2021-04-30T09:02:15.568Z</time>
      </trkpt>
      <trkpt lat="46.43593" lon="5.89726">
        <ele>883.141673</ele>
        <time>2021-04-30T09:02:20.010Z</time>
      </trkpt>
      <trkpt lat="46.43529" lon="5.89661">
        <ele>880.379787</ele>
        <time>2021-04-30T09:02:34.584Z</time>
      </trkpt>
      <trkpt lat="46.43512" lon="5.89633">
        <ele>879.665017</ele>
        <time>2021-04-30T09:02:39.549Z</time>
      </trkpt>
      <trkpt lat="46.43474" lon="5.89536">
        <ele>877.54886</ele>
        <time>2021-04-30T09:02:55.081Z</time>
      </trkpt>
      <trkpt lat="46.43459" lon="5.89444">
        <ele>875.773378</ele>
        <time>2021-04-30T09:03:09.029Z</time>
      </trkpt>
      <trkpt lat="46.43446" lon="5.89404">
        <ele>875.09443</ele>
        <time>2021-04-30T09:03:15.642Z</time>
      </trkpt>
      <trkpt lat="46.43416" lon="5.89351">
        <ele>874.055779</ele>
        <time>2021-04-30T09:03:25.745Z</time>
      </trkpt>
      <trkpt lat="46.43359" lon="5.89253">
        <ele>872.074464</ele>
        <time>2021-04-30T09:03:44.067Z</time>
      </trkpt>
      <trkpt lat="46.43353" lon="5.89244">
        <ele>871.873276</ele>
        <time>2021-04-30T09:03:45.786Z</time>
      </trkpt>
      <trkpt lat="46.43335" lon="5.89218">
        <ele>870.926488</ele>
        <time>2021-04-30T09:03:50.884Z</time>
      </trkpt>
      <trkpt lat="46.4332" lon="5.89204">
        <ele>870.240762</ele>
        <time>2021-04-30T09:03:54.324Z</time>
      </trkpt>
      <trkpt lat="46.43307" lon="5.89197">
        <ele>869.713786</ele>
        <time>2021-04-30T09:03:56.906Z</time>
      </trkpt>
      <trkpt lat="46.43249" lon="5.89174">
        <ele>867.355742</ele>
        <time>2021-04-30T09:04:08.319Z</time>
      </trkpt>
      <trkpt lat="46.43176" lon="5.89095">
        <ele>863.979813</ele>
        <time>2021-04-30T09:04:24.898Z</time>
      </trkpt>
      <trkpt lat="46.43095" lon="5.89016">
        <ele>860.772728</ele>
        <time>2021-04-30T09:04:43.990Z</time>
      </trkpt>
      <trkpt lat="46.43091" lon="5.8901">
        <ele>860.587229</ele>
        <time>2021-04-30T09:04:45.209Z</time>
      </trkpt>
      <trkpt lat="46.43085" lon="5.89">
        <ele>860.277937</ele>
        <time>2021-04-30T09:04:47.183Z</time>
      </trkpt>
      <trkpt lat="46.43051" lon="5.88964">
        <ele>858.866665</ele>
        <time>2021-04-30T09:04:55.858Z</time>
      </trkpt>
      <trkpt lat="46.43037" lon="5.88947">
        <ele>857.968111</ele>
        <time>2021-04-30T09:04:59.344Z</time>
      </trkpt>
      <trkpt lat="46.43034" lon="5.88943">
        <ele>857.779255</ele>
        <time>2021-04-30T09:05:00.459Z</time>
      </trkpt>
      <trkpt lat="46.43015" lon="5.88891">
        <ele>855.735976</ele>
        <time>2021-04-30T09:05:08.486Z</time>
      </trkpt>
      <trkpt lat="46.43012" lon="5.88883">
        <ele>855.398997</ele>
        <time>2021-04-30T09:05:09.724Z</time>
      </trkpt>
      <trkpt lat="46.42994" lon="5.88849">
        <ele>853.889838</ele>
        <time>2021-04-30T09:05:15.194Z</time>
      </trkpt>
      <trkpt lat="46.4297" lon="5.88808">
        <ele>852.030848</ele>
        <time>2021-04-30T09:05:21.790Z</time>
      </trkpt>
      <trkpt lat="46.42919" lon="5.88755">
        <ele>847.769092</ele>
        <time>2021-04-30T09:05:32.633Z</time>
      </trkpt>
      <trkpt lat="46.42916" lon="5.88752">
        <ele>847.435899</ele>
        <time>2021-04-30T09:05:33.119Z</time>
      </trkpt>
      <trkpt lat="46.42901" lon="5.88746">
        <ele>845.722648</ele>
        <time>2021-04-30T09:05:37.846Z</time>
      </trkpt>
      <trkpt lat="46.42777" lon="5.8863">
        <ele>829.98723</ele>
        <time>2021-04-30T09:06:20.166Z</time>
      </trkpt>
      <trkpt lat="46.42707" lon="5.88578">
        <ele>821.701372</ele>
        <time>2021-04-30T09:06:42.832Z</time>
      </trkpt>
      <trkpt lat="46.42682" lon="5.88545">
        <ele>818.099211</ele>
        <time>2021-04-30T09:06:52.752Z</time>
      </trkpt>
      <trkpt lat="46.42655" lon="5.88532">
        <ele>815.070396</ele>
        <time>2021-04-30T09:07:01.142Z</time>
      </trkpt>
      <trkpt lat="46.4259" lon="5.88456">
        <ele>807.671573</ele>
        <time>2021-04-30T09:07:26.107Z</time>
      </trkpt>
      <trkpt lat="46.42585" lon="5.88442">
        <ele>806.814592</ele>
        <time>2021-04-30T09:07:29.477Z</time>
      </trkpt>
      <trkpt lat="46.42584" lon="5.88397">
        <ele>804.407415</ele>
        <time>2021-04-30T09:07:39.128Z</time>
      </trkpt>
      <trkpt lat="46.42598" lon="5.88361">
        <ele>802.24721</ele>
        <time>2021-04-30T09:07:47.859Z</time>
      </trkpt>
      <trkpt lat="46.4259" lon="5.88346">
        <ele>801.18286</ele>
        <time>2021-04-30T09:07:52.143Z</time>
      </trkpt>
      <trkpt lat="46.4258" lon="5.88346">
        <ele>800.454418</ele>
        <time>2021-04-30T09:07:55.114Z</time>
      </trkpt>
      <trkpt lat="46.42572" lon="5.88366">
        <ele>799.248028</ele>
        <time>2021-04-30T09:08:00.025Z</time>
      </trkpt>
      <trkpt lat="46.42561" lon="5.88436">
        <ele>795.635971</ele>
        <time>2021-04-30T09:08:15.771Z</time>
      </trkpt>
      <trkpt lat="46.42563" lon="5.88474">
        <ele>793.854695</ele>
        <time>2021-04-30T09:08:23.967Z</time>
      </trkpt>
      <trkpt lat="46.42595" lon="5.88581">
        <ele>788.363977</ele>
        <time>2021-04-30T09:08:49.161Z</time>
      </trkpt>
      <trkpt lat="46.42595" lon="5.88598">
        <ele>787.576785</ele>
        <time>2021-04-30T09:08:52.754Z</time>
      </trkpt>
      <trkpt lat="46.42589" lon="5.8861">
        <ele>786.885977</ele>
        <time>2021-04-30T09:08:55.922Z</time>
      </trkpt>
      <trkpt lat="46.42568" lon="5.88604">
        <ele>785.428147</ele>
        <time>2021-04-30T09:09:02.561Z</time>
      </trkpt>
      <trkpt lat="46.42545" lon="5.88539">
        <ele>782.554433</ele>
        <time>2021-04-30T09:09:18.366Z</time>
      </trkpt>
      <trkpt lat="46.42503" lon="5.88499">
        <ele>779.727831</ele>
        <time>2021-04-30T09:09:34.152Z</time>
      </trkpt>
      <trkpt lat="46.42484" lon="5.885">
        <ele>778.637547</ele>
        <time>2021-04-30T09:09:40.352Z</time>
      </trkpt>
      <trkpt lat="46.42472" lon="5.88516">
        <ele>777.734754</ele>
        <time>2021-04-30T09:09:45.528Z</time>
      </trkpt>
      <trkpt lat="46.42472" lon="5.88574">
        <ele>775.475091</ele>
        <time>2021-04-30T09:09:59.021Z</time>
      </trkpt>
      <trkpt lat="46.42484" lon="5.88639">
        <ele>773.97803</ele>
        <time>2021-04-30T09:10:15.522Z</time>
      </trkpt>
      <trkpt lat="46.42517" lon="5.88719">
        <ele>772.097606</ele>
        <time>2021-04-30T09:10:39.396Z</time>
      </trkpt>
      <trkpt lat="46.42513" lon="5.88734">
        <ele>771.778306</ele>
        <time>2021-04-30T09:10:43.575Z</time>
      </trkpt>
      <trkpt lat="46.42499" lon="5.88737">
        <ele>771.371144</ele>
        <time>2021-04-30T09:10:48.700Z</time>
      </trkpt>
      <trkpt lat="46.42466" lon="5.88712">
        <ele>770.295996</ele>
        <time>2021-04-30T09:11:02.145Z</time>
      </trkpt>
      <trkpt lat="46.42441" lon="5.88676">
        <ele>768.795442</ele>
        <time>2021-04-30T09:11:15.008Z</time>
      </trkpt>
      <trkpt lat="46.42431" lon="5.88647">
        <ele>767.691614</ele>
        <time>2021-04-30T09:11:23.047Z</time>
      </trkpt>
      <trkpt lat="46.42428" lon="5.88621">
        <ele>766.813875</ele>
        <time>2021-04-30T09:11:29.245Z</time>
      </trkpt>
      <trkpt lat="46.42389" lon="5.88522">
        <ele>762.992373</ele>
        <time>2021-04-30T09:11:54.469Z</time>
      </trkpt>
      <trkpt lat="46.42367" lon="5.88431">
        <ele>759.510074</ele>
        <time>2021-04-30T09:12:15.867Z</time>
      </trkpt>
      <trkpt lat="46.42378" lon="5.88405">
        <ele>758.275039</ele>
        <time>2021-04-30T09:12:22.208Z</time>
      </trkpt>
      <trkpt lat="46.42367" lon="5.88411">
        <ele>757.589534</ele>
        <time>2021-04-30T09:12:25.031Z</time>
      </trkpt>
      <trkpt lat="46.42351" lon="5.88399">
        <ele>756.518241</ele>
        <time>2021-04-30T09:12:28.133Z</time>
      </trkpt>
      <trkpt lat="46.42343" lon="5.88358">
        <ele>754.827884</ele>
        <time>2021-04-30T09:12:33.470Z</time>
      </trkpt>
      <trkpt lat="46.42319" lon="5.88309">
        <ele>752.368999</ele>
        <time>2021-04-30T09:12:40.982Z</time>
      </trkpt>
      <trkpt lat="46.42223" lon="5.88179">
        <ele>742.885115</ele>
        <time>2021-04-30T09:13:04.107Z</time>
      </trkpt>
      <trkpt lat="46.42188" lon="5.88147">
        <ele>739.756399</ele>
        <time>2021-04-30T09:13:10.917Z</time>
      </trkpt>
      <trkpt lat="46.42167" lon="5.88119">
        <ele>737.619097</ele>
        <time>2021-04-30T09:13:15.506Z</time>
      </trkpt>
      <trkpt lat="46.42158" lon="5.88091">
        <ele>736.092494</ele>
        <time>2021-04-30T09:13:18.960Z</time>
      </trkpt>
      <trkpt lat="46.42156" lon="5.88074">
        <ele>735.266787</ele>
        <time>2021-04-30T09:13:20.898Z</time>
      </trkpt>
      <trkpt lat="46.42162" lon="5.88054">
        <ele>734.203586</ele>
        <time>2021-04-30T09:13:23.379Z</time>
      </trkpt>
      <trkpt lat="46.42197" lon="5.87955">
        <ele>728.948377</ele>
        <time>2021-04-30T09:13:35.942Z</time>
      </trkpt>
      <trkpt lat="46.42198" lon="5.87942">
        <ele>728.300205</ele>
        <time>2021-04-30T09:13:37.577Z</time>
      </trkpt>
      <trkpt lat="46.42192" lon="5.87905">
        <ele>726.494811</ele>
        <time>2021-04-30T09:13:42.301Z</time>
      </trkpt>
      <trkpt lat="46.422" lon="5.87862">
        <ele>724.787567</ele>
        <time>2021-04-30T09:13:48.635Z</time>
      </trkpt>
      <trkpt lat="46.42196" lon="5.87846">
        <ele>725.517746</ele>
        <time>2021-04-30T09:13:51.238Z</time>
      </trkpt>
      <trkpt lat="46.42189" lon="5.87839">
        <ele>726.087032</ele>
        <time>2021-04-30T09:13:53.844Z</time>
      </trkpt>
      <trkpt lat="46.42179" lon="5.87838">
        <ele>726.745399</ele>
        <time>2021-04-30T09:13:56.998Z</time>
      </trkpt>
      <trkpt lat="46.42167" lon="5.87857">
        <ele>727.911664</ele>
        <time>2021-04-30T09:14:03.531Z</time>
      </trkpt>
      <trkpt lat="46.42172" lon="5.87954">
        <ele>732.31951</ele>
        <time>2021-04-30T09:14:58.516Z</time>
      </trkpt>
      <trkpt lat="46.42137" lon="5.88052">
        <ele>736.164644</ele>
        <time>2021-04-30T09:15:54.105Z</time>
      </trkpt>
      <trkpt lat="46.4213" lon="5.88087">
        <ele>735.745692</ele>
        <time>2021-04-30T09:16:09.428Z</time>
      </trkpt>
      <trkpt lat="46.42124" lon="5.88096">
        <ele>735.612083</ele>
        <time>2021-04-30T09:16:13.723Z</time>
      </trkpt>
      <trkpt lat="46.42111" lon="5.88097">
        <ele>735.397483</ele>
        <time>2021-04-30T09:16:23.520Z</time>
      </trkpt>
      <trkpt lat="46.42101" lon="5.88094">
        <ele>735.215827</ele>
        <time>2021-04-30T09:16:25.606Z</time>
      </trkpt>
      <trkpt lat="46.42061" lon="5.87874">
        <ele>727.781305</ele>
        <time>2021-04-30T09:16:52.582Z</time>
      </trkpt>
      <trkpt lat="46.42037" lon="5.87813">
        <ele>722.197781</ele>
        <time>2021-04-30T09:16:59.997Z</time>
      </trkpt>
      <trkpt lat="46.41997" lon="5.87763">
        <ele>716.009697</ele>
        <time>2021-04-30T09:17:08.354Z</time>
      </trkpt>
      <trkpt lat="46.41976" lon="5.87755">
        <ele>713.488169</ele>
        <time>2021-04-30T09:17:11.827Z</time>
      </trkpt>
      <trkpt lat="46.41948" lon="5.87758">
        <ele>711.175547</ele>
        <time>2021-04-30T09:17:16.448Z</time>
      </trkpt>
      <trkpt lat="46.41921" lon="5.87764">
        <ele>709.405959</ele>
        <time>2021-04-30T09:17:20.867Z</time>
      </trkpt>
      <trkpt lat="46.41895" lon="5.87781">
        <ele>707.458876</ele>
        <time>2021-04-30T09:17:25.886Z</time>
      </trkpt>
      <trkpt lat="46.41858" lon="5.87777">
        <ele>705.016572</ele>
        <time>2021-04-30T09:17:32.430Z</time>
      </trkpt>
      <trkpt lat="46.41805" lon="5.87803">
        <ele>701.33436</ele>
        <time>2021-04-30T09:17:42.843Z</time>
      </trkpt>
      <trkpt lat="46.41727" lon="5.87806">
        <ele>697.43296</ele>
        <time>2021-04-30T09:17:57.512Z</time>
      </trkpt>
      <trkpt lat="46.41703" lon="5.87805">
        <ele>696.263415</ele>
        <time>2021-04-30T09:18:02.099Z</time>
      </trkpt>
      <trkpt lat="46.41684" lon="5.87797">
        <ele>695.325076</ele>
        <time>2021-04-30T09:18:05.723Z</time>
      </trkpt>
      <trkpt lat="46.41645" lon="5.87769">
        <ele>693.314564</ele>
        <time>2021-04-30T09:18:13.341Z</time>
      </trkpt>
      <trkpt lat="46.41589" lon="5.87761">
        <ele>690.542123</ele>
        <time>2021-04-30T09:18:23.483Z</time>
      </trkpt>
      <trkpt lat="46.41493" lon="5.87774">
        <ele>685.685082</ele>
        <time>2021-04-30T09:18:40.860Z</time>
      </trkpt>
      <trkpt lat="46.41464" lon="5.87785">
        <ele>684.160704</ele>
        <time>2021-04-30T09:18:46.423Z</time>
      </trkpt>
      <trkpt lat="46.41447" lon="5.8778">
        <ele>683.28121</ele>
        <time>2021-04-30T09:18:49.643Z</time>
      </trkpt>
      <trkpt lat="46.41273" lon="5.87638">
        <ele>673.80899</ele>
        <time>2021-04-30T09:19:26.290Z</time>
      </trkpt>
      <trkpt lat="46.41186" lon="5.87616">
        <ele>669.590698</ele>
        <time>2021-04-30T09:19:42.227Z</time>
      </trkpt>
      <trkpt lat="46.41123" lon="5.87583">
        <ele>666.419704</ele>
        <time>2021-04-30T09:19:54.369Z</time>
      </trkpt>
      <trkpt lat="46.41041" lon="5.87558">
        <ele>662.697977</ele>
        <time>2021-04-30T09:20:10.190Z</time>
      </trkpt>
      <trkpt lat="46.40942" lon="5.87514">
        <ele>658.119928</ele>
        <time>2021-04-30T09:20:29.755Z</time>
      </trkpt>
      <trkpt lat="46.40907" lon="5.8749">
        <ele>655.123128</ele>
        <time>2021-04-30T09:20:36.458Z</time>
      </trkpt>
      <trkpt lat="46.40874" lon="5.87452">
        <ele>651.736518</ele>
        <time>2021-04-30T09:20:43.685Z</time>
      </trkpt>
      <trkpt lat="46.40867" lon="5.87442">
        <ele>650.943093</ele>
        <time>2021-04-30T09:20:45.339Z</time>
      </trkpt>
      <trkpt lat="46.40827" lon="5.87384">
        <ele>646.390353</ele>
        <time>2021-04-30T09:20:54.691Z</time>
      </trkpt>
      <trkpt lat="46.40767" lon="5.8731">
        <ele>637.951577</ele>
        <time>2021-04-30T09:21:07.504Z</time>
      </trkpt>
      <trkpt lat="46.40725" lon="5.87293">
        <ele>632.334047</ele>
        <time>2021-04-30T09:21:14.411Z</time>
      </trkpt>
      <trkpt lat="46.40691" lon="5.87293">
        <ele>628.088581</ele>
        <time>2021-04-30T09:21:19.643Z</time>
      </trkpt>
      <trkpt lat="46.40627" lon="5.87314">
        <ele>619.450515</ele>
        <time>2021-04-30T09:21:30.055Z</time>
      </trkpt>
      <trkpt lat="46.40574" lon="5.87313">
        <ele>611.363078</ele>
        <time>2021-04-30T09:21:38.301Z</time>
      </trkpt>
      <trkpt lat="46.40463" lon="5.8736">
        <ele>593.709777</ele>
        <time>2021-04-30T09:21:56.290Z</time>
      </trkpt>
      <trkpt lat="46.40436" lon="5.87389">
        <ele>589.425507</ele>
        <time>2021-04-30T09:22:01.433Z</time>
      </trkpt>
      <trkpt lat="46.40371" lon="5.87491">
        <ele>577.350506</ele>
        <time>2021-04-30T09:22:16.553Z</time>
      </trkpt>
      <trkpt lat="46.40363" lon="5.87524">
        <ele>574.338861</ele>
        <time>2021-04-30T09:22:20.410Z</time>
      </trkpt>
      <trkpt lat="46.40371" lon="5.8755">
        <ele>571.860483</ele>
        <time>2021-04-30T09:22:23.629Z</time>
      </trkpt>
      <trkpt lat="46.40424" lon="5.87631">
        <ele>564.495199</ele>
        <time>2021-04-30T09:22:36.546Z</time>
      </trkpt>
      <trkpt lat="46.40429" lon="5.87649">
        <ele>563.256505</ele>
        <time>2021-04-30T09:22:38.726Z</time>
      </trkpt>
      <trkpt lat="46.40431" lon="5.87666">
        <ele>562.212632</ele>
        <time>2021-04-30T09:22:40.734Z</time>
      </trkpt>
      <trkpt lat="46.40417" lon="5.87779">
        <ele>555.099475</ele>
        <time>2021-04-30T09:22:53.973Z</time>
      </trkpt>
      <trkpt lat="46.40419" lon="5.87794">
        <ele>554.128721</ele>
        <time>2021-04-30T09:22:55.679Z</time>
      </trkpt>
      <trkpt lat="46.4043" lon="5.87816">
        <ele>552.525987</ele>
        <time>2021-04-30T09:22:58.843Z</time>
      </trkpt>
      <trkpt lat="46.40432" lon="5.87836">
        <ele>551.304497</ele>
        <time>2021-04-30T09:23:01.240Z</time>
      </trkpt>
      <trkpt lat="46.40429" lon="5.87843">
        <ele>550.830928</ele>
        <time>2021-04-30T09:23:02.084Z</time>
      </trkpt>
      <trkpt lat="46.40422" lon="5.87843">
        <ele>550.225061</ele>
        <time>2021-04-30T09:23:03.700Z</time>
      </trkpt>
      <trkpt lat="46.40412" lon="5.87835">
        <ele>549.206172</ele>
        <time>2021-04-30T09:23:06.985Z</time>
      </trkpt>
      <trkpt lat="46.40405" lon="5.87816">
        <ele>547.89812</ele>
        <time>2021-04-30T09:23:10.320Z</time>
      </trkpt>
      <trkpt lat="46.40401" lon="5.87796">
        <ele>546.679576</ele>
        <time>2021-04-30T09:23:13.540Z</time>
      </trkpt>
      <trkpt lat="46.40403" lon="5.87786">
        <ele>546.0475</ele>
        <time>2021-04-30T09:23:15.187Z</time>
      </trkpt>
      <trkpt lat="46.40389" lon="5.8777">
        <ele>544.502071</ele>
        <time>2021-04-30T09:23:20.238Z</time>
      </trkpt>
      <trkpt lat="46.40366" lon="5.87741">
        <ele>541.892797</ele>
        <time>2021-04-30T09:23:29.764Z</time>
      </trkpt>
      <trkpt lat="46.40355" lon="5.87698">
        <ele>539.160072</ele>
        <time>2021-04-30T09:23:39.381Z</time>
      </trkpt>
      <trkpt lat="46.40329" lon="5.87674">
        <ele>536.825255</ele>
        <time>2021-04-30T09:23:48.601Z</time>
      </trkpt>
      <trkpt lat="46.40318" lon="5.87647">
        <ele>535.183557</ele>
        <time>2021-04-30T09:23:55.147Z</time>
      </trkpt>
      <trkpt lat="46.40311" lon="5.87607">
        <ele>533.115476</ele>
        <time>2021-04-30T09:24:03.485Z</time>
      </trkpt>
      <trkpt lat="46.40309" lon="5.87545">
        <ele>529.963406</ele>
        <time>2021-04-30T09:24:16.734Z</time>
      </trkpt>
      <trkpt lat="46.4031" lon="5.87518">
        <ele>528.588385</ele>
        <time>2021-04-30T09:24:22.574Z</time>
      </trkpt>
      <trkpt lat="46.40317" lon="5.87504">
        <ele>527.670537</ele>
        <time>2021-04-30T09:24:26.696Z</time>
      </trkpt>
      <trkpt lat="46.40318" lon="5.87489">
        <ele>526.918715</ele>
        <time>2021-04-30T09:24:30.141Z</time>
      </trkpt>
      <trkpt lat="46.40311" lon="5.87487">
        <ele>526.423622</ele>
        <time>2021-04-30T09:24:32.196Z</time>
      </trkpt>
      <trkpt lat="46.40311" lon="5.87482">
        <ele>526.149538</ele>
        <time>2021-04-30T09:24:33.253Z</time>
      </trkpt>
      <trkpt lat="46.40312" lon="5.87473">
        <ele>525.706587</ele>
        <time>2021-04-30T09:24:36.078Z</time>
      </trkpt>
      <trkpt lat="46.40298" lon="5.87477">
        <ele>525.030177</ele>
        <time>2021-04-30T09:24:40.753Z</time>
      </trkpt>
      <trkpt lat="46.40288" lon="5.87475">
        <ele>524.73368</ele>
        <time>2021-04-30T09:24:44.393Z</time>
      </trkpt>
      <trkpt lat="46.40284" lon="5.8747">
        <ele>524.566178</ele>
        <time>2021-04-30T09:24:45.864Z</time>
      </trkpt>
      <trkpt lat="46.4028" lon="5.8746">
        <ele>524.314633</ele>
        <time>2021-04-30T09:24:48.276Z</time>
      </trkpt>
      <trkpt lat="46.4026" lon="5.87379">
        <ele>522.448849</ele>
        <time>2021-04-30T09:25:00.318Z</time>
      </trkpt>
      <trkpt lat="46.4026" lon="5.87354">
        <ele>521.895253</ele>
        <time>2021-04-30T09:25:03.861Z</time>
      </trkpt>
      <trkpt lat="46.40267" lon="5.87315">
        <ele>521.019544</ele>
        <time>2021-04-30T09:25:09.647Z</time>
      </trkpt>
      <trkpt lat="46.40295" lon="5.87233">
        <ele>518.923769</ele>
        <time>2021-04-30T09:25:24.181Z</time>
      </trkpt>
      <trkpt lat="46.40293" lon="5.87226">
        <ele>518.738478</ele>
        <time>2021-04-30T09:25:27.112Z</time>
      </trkpt>
      <trkpt lat="46.40284" lon="5.87229">
        <ele>518.373605</ele>
        <time>2021-04-30T09:25:29.310Z</time>
      </trkpt>
      <trkpt lat="46.40288" lon="5.87223">
        <ele>518.157956</ele>
        <time>2021-04-30T09:25:30.830Z</time>
      </trkpt>
      <trkpt lat="46.40296" lon="5.87213">
        <ele>517.773271</ele>
        <time>2021-04-30T09:25:33.771Z</time>
      </trkpt>
      <trkpt lat="46.40342" lon="5.87188">
        <ele>515.974644</ele>
        <time>2021-04-30T09:25:43.981Z</time>
      </trkpt>
      <trkpt lat="46.40416" lon="5.8709">
        <ele>511.338115</ele>
        <time>2021-04-30T09:26:02.976Z</time>
      </trkpt>
      <trkpt lat="46.40419" lon="5.87082">
        <ele>510.834696</ele>
        <time>2021-04-30T09:26:03.998Z</time>
      </trkpt>
      <trkpt lat="46.40414" lon="5.87076">
        <ele>510.302137</ele>
        <time>2021-04-30T09:26:05.059Z</time>
      </trkpt>
      <trkpt lat="46.4031" lon="5.87019">
        <ele>501.015723</ele>
        <time>2021-04-30T09:26:24.552Z</time>
      </trkpt>
      <trkpt lat="46.40238" lon="5.86958">
        <ele>493.532724</ele>
        <time>2021-04-30T09:26:38.886Z</time>
      </trkpt>
      <trkpt lat="46.40172" lon="5.86874">
        <ele>485.227695</ele>
        <time>2021-04-30T09:26:53.981Z</time>
      </trkpt>
      <trkpt lat="46.40145" lon="5.86848">
        <ele>482.171327</ele>
        <time>2021-04-30T09:26:59.552Z</time>
      </trkpt>
      <trkpt lat="46.40136" lon="5.86845">
        <ele>481.288098</ele>
        <time>2021-04-30T09:27:01.162Z</time>
      </trkpt>
      <trkpt lat="46.40114" lon="5.86867">
        <ele>478.434189</ele>
        <time>2021-04-30T09:27:05.834Z</time>
      </trkpt>
      <trkpt lat="46.40099" lon="5.8687">
        <ele>476.831527</ele>
        <time>2021-04-30T09:27:08.426Z</time>
      </trkpt>
      <trkpt lat="46.40067" lon="5.86854">
        <ele>473.211453</ele>
        <time>2021-04-30T09:27:14.133Z</time>
      </trkpt>
      <trkpt lat="46.40042" lon="5.86829">
        <ele>470.006292</ele>
        <time>2021-04-30T09:27:19.167Z</time>
      </trkpt>
      <trkpt lat="46.40033" lon="5.86828">
        <ele>468.997782</ele>
        <time>2021-04-30T09:27:20.818Z</time>
      </trkpt>
      <trkpt lat="46.39978" lon="5.86847">
        <ele>462.983879</ele>
        <time>2021-04-30T09:27:30.298Z</time>
      </trkpt>
      <trkpt lat="46.39966" lon="5.86858">
        <ele>461.464236</ele>
        <time>2021-04-30T09:27:32.705Z</time>
      </trkpt>
      <trkpt lat="46.39958" lon="5.8687">
        <ele>460.128225</ele>
        <time>2021-04-30T09:27:34.698Z</time>
      </trkpt>
      <trkpt lat="46.39957" lon="5.86872">
        <ele>459.940819</ele>
        <time>2021-04-30T09:27:34.974Z</time>
      </trkpt>
      <trkpt lat="46.39943" lon="5.8691">
        <ele>456.565677</ele>
        <time>2021-04-30T09:27:40.045Z</time>
      </trkpt>
      <trkpt lat="46.39867" lon="5.86985">
        <ele>446.362868</ele>
        <time>2021-04-30T09:27:55.290Z</time>
      </trkpt>
      <trkpt lat="46.39836" lon="5.87009">
        <ele>442.378437</ele>
        <time>2021-04-30T09:28:01.317Z</time>
      </trkpt>
      <trkpt lat="46.3983" lon="5.87009">
        <ele>441.708139</ele>
        <time>2021-04-30T09:28:02.313Z</time>
      </trkpt>
      <trkpt lat="46.39798" lon="5.86979">
        <ele>440.691313</ele>
        <time>2021-04-30T09:28:09.057Z</time>
      </trkpt>
      <trkpt lat="46.39705" lon="5.86826">
        <ele>436.998355</ele>
        <time>2021-04-30T09:28:43.945Z</time>
      </trkpt>
      <trkpt lat="46.39686" lon="5.86814">
        <ele>437.145877</ele>
        <time>2021-04-30T09:28:50.988Z</time>
      </trkpt>
      <trkpt lat="46.39672" lon="5.86815">
        <ele>437.278393</ele>
        <time>2021-04-30T09:28:57.619Z</time>
      </trkpt>
      <trkpt lat="46.39665" lon="5.86818">
        <ele>437.347611</ele>
        <time>2021-04-30T09:29:02.405Z</time>
      </trkpt>
      <trkpt lat="46.39659" lon="5.86825">
        <ele>437.425305</ele>
        <time>2021-04-30T09:29:05.010Z</time>
      </trkpt>
      <trkpt lat="46.39653" lon="5.86837">
        <ele>437.522032</ele>
        <time>2021-04-30T09:29:07.067Z</time>
      </trkpt>
      <trkpt lat="46.39647" lon="5.86845">
        <ele>437.60265</ele>
        <time>2021-04-30T09:29:11.399Z</time>
      </trkpt>
      <trkpt lat="46.39636" lon="5.8685">
        <ele>437.714175</ele>
        <time>2021-04-30T09:29:18.731Z</time>
      </trkpt>
      <trkpt lat="46.39629" lon="5.86837">
        <ele>437.822681</ele>
        <time>2021-04-30T09:29:21.003Z</time>
      </trkpt>
      <trkpt lat="46.39618" lon="5.86794">
        <ele>438.130054</ele>
        <time>2021-04-30T09:29:35.320Z</time>
      </trkpt>
      <trkpt lat="46.39616" lon="5.86783">
        <ele>438.204383</ele>
        <time>2021-04-30T09:29:36.775Z</time>
      </trkpt>
      <trkpt lat="46.39613" lon="5.86773">
        <ele>438.279044</ele>
        <time>2021-04-30T09:29:40.390Z</time>
      </trkpt>
      <trkpt lat="46.39608" lon="5.86762">
        <ele>438.362973</ele>
        <time>2021-04-30T09:29:45.165Z</time>
      </trkpt>
      <trkpt lat="46.39605" lon="5.86755">
        <ele>438.418449</ele>
        <time>2021-04-30T09:29:48.253Z</time>
      </trkpt>
      <trkpt lat="46.3956" lon="5.86695">
        <ele>436.873467</ele>
        <time>2021-04-30T09:30:02.592Z</time>
      </trkpt>
      <trkpt lat="46.3953" lon="5.86635">
        <ele>434.019345</ele>
        <time>2021-04-30T09:30:11.805Z</time>
      </trkpt>
      <trkpt lat="46.39515" lon="5.86597">
        <ele>432.37215</ele>
        <time>2021-04-30T09:30:17.013Z</time>
      </trkpt>
      <trkpt lat="46.39511" lon="5.86582">
        <ele>431.759238</ele>
        <time>2021-04-30T09:30:19.114Z</time>
      </trkpt>
      <trkpt lat="46.39508" lon="5.8657">
        <ele>431.246346</ele>
        <time>2021-04-30T09:30:20.890Z</time>
      </trkpt>
      <trkpt lat="46.39506" lon="5.86565">
        <ele>431.04191</ele>
        <time>2021-04-30T09:30:21.532Z</time>
      </trkpt>
      <trkpt lat="46.39511" lon="5.86557">
        <ele>430.609748</ele>
        <time>2021-04-30T09:30:22.860Z</time>
      </trkpt>
      <trkpt lat="46.39521" lon="5.86525">
        <ele>429.260533</ele>
        <time>2021-04-30T09:30:27.481Z</time>
      </trkpt>
      <trkpt lat="46.39514" lon="5.865">
        <ele>428.295097</ele>
        <time>2021-04-30T09:30:30.809Z</time>
      </trkpt>
      <trkpt lat="46.39506" lon="5.86469">
        <ele>427.218207</ele>
        <time>2021-04-30T09:30:35.033Z</time>
      </trkpt>
      <trkpt lat="46.3949" lon="5.8641">
        <ele>425.176752</ele>
        <time>2021-04-30T09:30:42.965Z</time>
      </trkpt>
      <trkpt lat="46.39487" lon="5.86364">
        <ele>423.678717</ele>
        <time>2021-04-30T09:30:48.985Z</time>
      </trkpt>
      <trkpt lat="46.39493" lon="5.86326">
        <ele>422.413189</ele>
        <time>2021-04-30T09:30:54.427Z</time>
      </trkpt>
      <trkpt lat="46.39491" lon="5.86321">
        <ele>422.201612</ele>
        <time>2021-04-30T09:30:55.297Z</time>
      </trkpt>
      <trkpt lat="46.39478" lon="5.86308">
        <ele>421.494466</ele>
        <time>2021-04-30T09:30:58.442Z</time>
      </trkpt>
      <trkpt lat="46.39461" lon="5.86306">
        <ele>420.676783</ele>
        <time>2021-04-30T09:31:02.025Z</time>
      </trkpt>
      <trkpt lat="46.39434" lon="5.86315">
        <ele>420.227374</ele>
        <time>2021-04-30T09:31:08.314Z</time>
      </trkpt>
      <trkpt lat="46.39365" lon="5.86315">
        <ele>420.09567</ele>
        <time>2021-04-30T09:31:25.225Z</time>
      </trkpt>
      <trkpt lat="46.39345" lon="5.86313">
        <ele>420.057498</ele>
        <time>2021-04-30T09:31:30.505Z</time>
      </trkpt>
      <trkpt lat="46.39326" lon="5.86314">
        <ele>420.02163</ele>
        <time>2021-04-30T09:31:37.549Z</time>
      </trkpt>
      <trkpt lat="46.39323" lon="5.86313">
        <ele>420.016258</ele>
        <time>2021-04-30T09:31:38.567Z</time>
      </trkpt>
      <trkpt lat="46.39313" lon="5.86304">
        <ele>419.994173</ele>
        <time>2021-04-30T09:31:41.437Z</time>
      </trkpt>
      <trkpt lat="46.39296" lon="5.86273">
        <ele>419.941893</ele>
        <time>2021-04-30T09:31:51.437Z</time>
      </trkpt>
      <trkpt lat="46.39287" lon="5.86258">
        <ele>419.970853</ele>
        <time>2021-04-30T09:31:54.894Z</time>
      </trkpt>
      <trkpt lat="46.39285" lon="5.86254">
        <ele>420.036302</ele>
        <time>2021-04-30T09:31:56.635Z</time>
      </trkpt>
      <trkpt lat="46.39234" lon="5.86173">
        <ele>421.561996</ele>
        <time>2021-04-30T09:32:26.289Z</time>
      </trkpt>
      <trkpt lat="46.392" lon="5.86133">
        <ele>422.43734</ele>
        <time>2021-04-30T09:32:42.040Z</time>
      </trkpt>
      <trkpt lat="46.39166" lon="5.86107">
        <ele>423.198324</ele>
        <time>2021-04-30T09:32:56.680Z</time>
      </trkpt>
      <trkpt lat="46.39166" lon="5.861">
        <ele>423.300603</ele>
        <time>2021-04-30T09:33:00.545Z</time>
      </trkpt>
      <trkpt lat="46.39129" lon="5.86091">
        <ele>423.643786</ele>
        <time>2021-04-30T09:33:14.148Z</time>
      </trkpt>
      <trkpt lat="46.39024" lon="5.86065">
        <ele>424.111209</ele>
        <time>2021-04-30T09:33:48.094Z</time>
      </trkpt>
      <trkpt lat="46.39005" lon="5.86069">
        <ele>424.196998</ele>
        <time>2021-04-30T09:33:52.121Z</time>
      </trkpt>
      <trkpt lat="46.39" lon="5.86069">
        <ele>424.220363</ele>
        <time>2021-04-30T09:33:53.333Z</time>
      </trkpt>
      <trkpt lat="46.3899" lon="5.86067">
        <ele>424.261516</ele>
        <time>2021-04-30T09:33:55.464Z</time>
      </trkpt>
      <trkpt lat="46.38987" lon="5.86065">
        <ele>424.279024</ele>
        <time>2021-04-30T09:33:56.290Z</time>
      </trkpt>
      <trkpt lat="46.38976" lon="5.86061">
        <ele>424.271209</ele>
        <time>2021-04-30T09:33:58.530Z</time>
      </trkpt>
      <trkpt lat="46.38894" lon="5.86014">
        <ele>422.561115</ele>
        <time>2021-04-30T09:34:16.673Z</time>
      </trkpt>
      <trkpt lat="46.38886" lon="5.86009">
        <ele>422.393559</ele>
        <time>2021-04-30T09:34:18.436Z</time>
      </trkpt>
      <trkpt lat="46.38874" lon="5.86001">
        <ele>422.146418</ele>
        <time>2021-04-30T09:34:20.776Z</time>
      </trkpt>
      <trkpt lat="46.38821" lon="5.85957">
        <ele>420.96608</ele>
        <time>2021-04-30T09:34:34.515Z</time>
      </trkpt>
      <trkpt lat="46.3881" lon="5.85943">
        <ele>420.617704</ele>
        <time>2021-04-30T09:34:37.733Z</time>
      </trkpt>
      <trkpt lat="46.38827" lon="5.86021">
        <ele>419.08103</ele>
        <time>2021-04-30T09:34:52.256Z</time>
      </trkpt>
      <trkpt lat="46.38829" lon="5.86028">
        <ele>418.945267</ele>
        <time>2021-04-30T09:34:53.201Z</time>
      </trkpt>
      <trkpt lat="46.38829" lon="5.86042">
        <ele>418.683414</ele>
        <time>2021-04-30T09:34:55.133Z</time>
      </trkpt>
      <trkpt lat="46.38829" lon="5.86049">
        <ele>418.55704</ele>
        <time>2021-04-30T09:34:56.132Z</time>
      </trkpt>
      <trkpt lat="46.3878" lon="5.86138">
        <ele>416.411397</ele>
        <time>2021-04-30T09:35:11.521Z</time>
      </trkpt>
      <trkpt lat="46.38774" lon="5.86146">
        <ele>416.200788</ele>
        <time>2021-04-30T09:35:13.150Z</time>
      </trkpt>
      <trkpt lat="46.38728" lon="5.86115">
        <ele>413.785877</ele>
        <time>2021-04-30T09:35:22.694Z</time>
      </trkpt>
      <trkpt lat="46.38691" lon="5.86094">
        <ele>411.698645</ele>
        <time>2021-04-30T09:35:30.153Z</time>
      </trkpt>
      <trkpt lat="46.38669" lon="5.8608">
        <ele>410.410417</ele>
        <time>2021-04-30T09:35:34.705Z</time>
      </trkpt>
      <trkpt lat="46.3866" lon="5.86077">
        <ele>409.952756</ele>
        <time>2021-04-30T09:35:36.293Z</time>
      </trkpt>
      <trkpt lat="46.38622" lon="5.8606">
        <ele>407.838608</ele>
        <time>2021-04-30T09:35:43.784Z</time>
      </trkpt>
      <trkpt lat="46.38613" lon="5.86065">
        <ele>407.35732</ele>
        <time>2021-04-30T09:35:45.461Z</time>
      </trkpt>
      <trkpt lat="46.38597" lon="5.86044">
        <ele>406.377916</ele>
        <time>2021-04-30T09:35:49.514Z</time>
      </trkpt>
      <trkpt lat="46.38582" lon="5.86032">
        <ele>406.003116</ele>
        <time>2021-04-30T09:35:52.732Z</time>
      </trkpt>
      <trkpt lat="46.38575" lon="5.86033">
        <ele>405.854604</ele>
        <time>2021-04-30T09:35:53.984Z</time>
      </trkpt>
      <trkpt lat="46.38561" lon="5.86045">
        <ele>405.501822</ele>
        <time>2021-04-30T09:35:57.300Z</time>
      </trkpt>
      <trkpt lat="46.38547" lon="5.86056">
        <ele>405.143669</ele>
        <time>2021-04-30T09:36:00.391Z</time>
      </trkpt>
      <trkpt lat="46.38544" lon="5.86058">
        <ele>405.067947</ele>
        <time>2021-04-30T09:36:01.150Z</time>
      </trkpt>
      <trkpt lat="46.38538" lon="5.86068">
        <ele>404.875682</ele>
        <time>2021-04-30T09:36:02.991Z</time>
      </trkpt>
      <trkpt lat="46.38537" lon="5.86071">
        <ele>404.820579</ele>
        <time>2021-04-30T09:36:03.605Z</time>
      </trkpt>
      <trkpt lat="46.38535" lon="5.86069">
        <ele>404.776856</ele>
        <time>2021-04-30T09:36:04.148Z</time>
      </trkpt>
      <trkpt lat="46.38529" lon="5.8607">
        <ele>404.646349</ele>
        <time>2021-04-30T09:36:05.495Z</time>
      </trkpt>
      <trkpt lat="46.38528" lon="5.86072">
        <ele>404.600535</ele>
        <time>2021-04-30T09:36:06.093Z</time>
      </trkpt>
      <trkpt lat="46.38525" lon="5.86071">
        <ele>404.538491</ele>
        <time>2021-04-30T09:36:06.726Z</time>
      </trkpt>
      <trkpt lat="46.38516" lon="5.86069">
        <ele>404.336278</ele>
        <time>2021-04-30T09:36:08.332Z</time>
      </trkpt>
      <trkpt lat="46.38507" lon="5.86067">
        <ele>404.139824</ele>
        <time>2021-04-30T09:36:10.541Z</time>
      </trkpt>
      <trkpt lat="46.38491" lon="5.86064">
        <ele>403.790113</ele>
        <time>2021-04-30T09:36:15.578Z</time>
      </trkpt>
      <trkpt lat="46.38473" lon="5.86058">
        <ele>403.372122</ele>
        <time>2021-04-30T09:36:19.447Z</time>
      </trkpt>
      <trkpt lat="46.38456" lon="5.8605">
        <ele>402.983763</ele>
        <time>2021-04-30T09:36:26.427Z</time>
      </trkpt>
      <trkpt lat="46.38448" lon="5.86044">
        <ele>402.78511</ele>
        <time>2021-04-30T09:36:28.154Z</time>
      </trkpt>
      <trkpt lat="46.38373" lon="5.85989">
        <ele>403.243449</ele>
        <time>2021-04-30T09:36:55.185Z</time>
      </trkpt>
      <trkpt lat="46.38337" lon="5.85971">
        <ele>403.626547</ele>
        <time>2021-04-30T09:37:05.333Z</time>
      </trkpt>
      <trkpt lat="46.3827" lon="5.85926">
        <ele>404.501172</ele>
        <time>2021-04-30T09:37:28.392Z</time>
      </trkpt>
      <trkpt lat="46.38258" lon="5.85911">
        <ele>405.217747</ele>
        <time>2021-04-30T09:37:36.775Z</time>
      </trkpt>
      <trkpt lat="46.3825" lon="5.85874">
        <ele>406.453006</ele>
        <time>2021-04-30T09:37:45.458Z</time>
      </trkpt>
      <trkpt lat="46.38251" lon="5.85865">
        <ele>406.755942</ele>
        <time>2021-04-30T09:37:50.821Z</time>
      </trkpt>
      <trkpt lat="46.38251" lon="5.85862">
        <ele>406.835743</ele>
        <time>2021-04-30T09:37:51.495Z</time>
      </trkpt>
      <trkpt lat="46.38252" lon="5.85857">
        <ele>407.020364</ele>
        <time>2021-04-30T09:37:52.785Z</time>
      </trkpt>
      <trkpt lat="46.38255" lon="5.85849">
        <ele>407.281627</ele>
        <time>2021-04-30T09:37:55.152Z</time>
      </trkpt>
      <trkpt lat="46.38257" lon="5.85846">
        <ele>407.42535</ele>
        <time>2021-04-30T09:37:56.077Z</time>
      </trkpt>
      <trkpt lat="46.38258" lon="5.85846">
        <ele>407.491624</ele>
        <time>2021-04-30T09:37:56.350Z</time>
      </trkpt>
      <trkpt lat="46.38263" lon="5.85842">
        <ele>407.74557</ele>
        <time>2021-04-30T09:37:58.626Z</time>
      </trkpt>
      <trkpt lat="46.38263" lon="5.8584">
        <ele>407.813021</ele>
        <time>2021-04-30T09:37:58.903Z</time>
      </trkpt>
      <trkpt lat="46.38264" lon="5.85838">
        <ele>407.886093</ele>
        <time>2021-04-30T09:38:00.042Z</time>
      </trkpt>
      <trkpt lat="46.38259" lon="5.85832">
        <ele>408.158418</ele>
        <time>2021-04-30T09:38:02.923Z</time>
      </trkpt>
      <trkpt lat="46.38258" lon="5.85832">
        <ele>408.23196</ele>
        <time>2021-04-30T09:38:04.423Z</time>
      </trkpt>
      <trkpt lat="46.38258" lon="5.85826">
        <ele>408.403242</ele>
        <time>2021-04-30T09:38:07.708Z</time>
      </trkpt>
      <trkpt lat="46.38266" lon="5.8573">
        <ele>411.491889</ele>
        <time>2021-04-30T09:38:41.425Z</time>
      </trkpt>
      <trkpt lat="46.38264" lon="5.85674">
        <ele>413.625872</ele>
        <time>2021-04-30T09:39:05.803Z</time>
      </trkpt>
      <trkpt lat="46.38243" lon="5.85477">
        <ele>423.264313</ele>
        <time>2021-04-30T09:40:31.550Z</time>
      </trkpt>
      <trkpt lat="46.38231" lon="5.8543">
        <ele>425.550791</ele>
        <time>2021-04-30T09:40:51.895Z</time>
      </trkpt>
      <trkpt lat="46.3822" lon="5.8541">
        <ele>426.509361</ele>
        <time>2021-04-30T09:41:02.396Z</time>
      </trkpt>
      <trkpt lat="46.38118" lon="5.85299">
        <ele>433.315183</ele>
        <time>2021-04-30T09:42:08.301Z</time>
      </trkpt>
      <trkpt lat="46.38118" lon="5.85298">
        <ele>433.369387</ele>
        <time>2021-04-30T09:42:09.449Z</time>
      </trkpt>
      <trkpt lat="46.38111" lon="5.85287">
        <ele>433.888835</ele>
        <time>2021-04-30T09:42:13.565Z</time>
      </trkpt>
      <trkpt lat="46.38106" lon="5.8528">
        <ele>434.271019</ele>
        <time>2021-04-30T09:42:16.585Z</time>
      </trkpt>
      <trkpt lat="46.38104" lon="5.85275">
        <ele>434.482557</ele>
        <time>2021-04-30T09:42:17.894Z</time>
      </trkpt>
      <trkpt lat="46.38101" lon="5.85271">
        <ele>434.692982</ele>
        <time>2021-04-30T09:42:19.552Z</time>
      </trkpt>
      <trkpt lat="46.38098" lon="5.85269">
        <ele>434.891056</ele>
        <time>2021-04-30T09:42:21.241Z</time>
      </trkpt>
      <trkpt lat="46.38094" lon="5.85268">
        <ele>435.076251</ele>
        <time>2021-04-30T09:42:23.375Z</time>
      </trkpt>
      <trkpt lat="46.3809" lon="5.85269">
        <ele>435.260912</ele>
        <time>2021-04-30T09:42:26.127Z</time>
      </trkpt>
      <trkpt lat="46.38081" lon="5.8526">
        <ele>435.778107</ele>
        <time>2021-04-30T09:42:30.671Z</time>
      </trkpt>
      <trkpt lat="46.38" lon="5.85163">
        <ele>440.657061</ele>
        <time>2021-04-30T09:43:22.185Z</time>
      </trkpt>
      <trkpt lat="46.37939" lon="5.85091">
        <ele>444.200959</ele>
        <time>2021-04-30T09:44:01.414Z</time>
      </trkpt>
      <trkpt lat="46.37913" lon="5.85053">
        <ele>445.693241</ele>
        <time>2021-04-30T09:44:19.806Z</time>
      </trkpt>
      <trkpt lat="46.3788" lon="5.84989">
        <ele>447.944489</ele>
        <time>2021-04-30T09:44:47.065Z</time>
      </trkpt>
      <trkpt lat="46.37862" lon="5.8494">
        <ele>449.481663</ele>
        <time>2021-04-30T09:45:04.647Z</time>
      </trkpt>
      <trkpt lat="46.37857" lon="5.84922">
        <ele>450.027286</ele>
        <time>2021-04-30T09:45:10.895Z</time>
      </trkpt>
      <trkpt lat="46.37825" lon="5.84819">
        <ele>450.201987</ele>
        <time>2021-04-30T09:45:37.325Z</time>
      </trkpt>
      <trkpt lat="46.3781" lon="5.84768">
        <ele>450.015751</ele>
        <time>2021-04-30T09:45:46.873Z</time>
      </trkpt>
      <trkpt lat="46.37803" lon="5.84723">
        <ele>449.86307</ele>
        <time>2021-04-30T09:45:53.962Z</time>
      </trkpt>
      <trkpt lat="46.37806" lon="5.84545">
        <ele>446.495935</ele>
        <time>2021-04-30T09:46:17.564Z</time>
      </trkpt>
      <trkpt lat="46.37816" lon="5.84505">
        <ele>445.337884</ele>
        <time>2021-04-30T09:46:22.893Z</time>
      </trkpt>
      <trkpt lat="46.37844" lon="5.84447">
        <ele>443.39813</ele>
        <time>2021-04-30T09:46:31.845Z</time>
      </trkpt>
      <trkpt lat="46.37854" lon="5.84414">
        <ele>442.455123</ele>
        <time>2021-04-30T09:46:36.566Z</time>
      </trkpt>
      <trkpt lat="46.37881" lon="5.84296">
        <ele>440.721086</ele>
        <time>2021-04-30T09:46:53.114Z</time>
      </trkpt>
      <trkpt lat="46.37888" lon="5.84243">
        <ele>439.978757</ele>
        <time>2021-04-30T09:47:00.898Z</time>
      </trkpt>
      <trkpt lat="46.37889" lon="5.84202">
        <ele>439.412728</ele>
        <time>2021-04-30T09:47:08.508Z</time>
      </trkpt>
      <trkpt lat="46.3789" lon="5.84181">
        <ele>439.11721</ele>
        <time>2021-04-30T09:47:11.867Z</time>
      </trkpt>
      <trkpt lat="46.37893" lon="5.84162">
        <ele>438.95724</ele>
        <time>2021-04-30T09:47:16.935Z</time>
      </trkpt>
      <trkpt lat="46.37901" lon="5.84121">
        <ele>440.467214</ele>
        <time>2021-04-30T09:47:24.544Z</time>
      </trkpt>
      <trkpt lat="46.37897" lon="5.84119">
        <ele>440.67933</ele>
        <time>2021-04-30T09:47:27.436Z</time>
      </trkpt>
      <trkpt lat="46.37893" lon="5.84114">
        <ele>440.965614</ele>
        <time>2021-04-30T09:47:29.439Z</time>
      </trkpt>
      <trkpt lat="46.37877" lon="5.84051">
        <ele>443.34951</ele>
        <time>2021-04-30T09:47:49.072Z</time>
      </trkpt>
      <trkpt lat="46.37874" lon="5.84005">
        <ele>444.986813</ele>
        <time>2021-04-30T09:48:08.072Z</time>
      </trkpt>
      <trkpt lat="46.37874" lon="5.83998">
        <ele>445.258516</ele>
        <time>2021-04-30T09:48:10.312Z</time>
      </trkpt>
      <trkpt lat="46.37873" lon="5.83986">
        <ele>445.691115</ele>
        <time>2021-04-30T09:48:14.977Z</time>
      </trkpt>
      <trkpt lat="46.3788" lon="5.83928">
        <ele>447.78868</ele>
        <time>2021-04-30T09:48:41.838Z</time>
      </trkpt>
      <trkpt lat="46.37881" lon="5.83888">
        <ele>450.493784</ele>
        <time>2021-04-30T09:49:03.325Z</time>
      </trkpt>
      <trkpt lat="46.37886" lon="5.838">
        <ele>457.490672</ele>
        <time>2021-04-30T09:49:53.368Z</time>
      </trkpt>
      <trkpt lat="46.37903" lon="5.83727">
        <ele>463.648526</ele>
        <time>2021-04-30T09:50:39.125Z</time>
      </trkpt>
      <trkpt lat="46.3794" lon="5.83646">
        <ele>470.902912</ele>
        <time>2021-04-30T09:51:39.312Z</time>
      </trkpt>
      <trkpt lat="46.37941" lon="5.8358">
        <ele>475.113281</ele>
        <time>2021-04-30T09:52:15.814Z</time>
      </trkpt>
      <trkpt lat="46.37935" lon="5.83469">
        <ele>482.314309</ele>
        <time>2021-04-30T09:53:09.516Z</time>
      </trkpt>
      <trkpt lat="46.37921" lon="5.834">
        <ele>486.280581</ele>
        <time>2021-04-30T09:53:39.002Z</time>
      </trkpt>
      <trkpt lat="46.37804" lon="5.82998">
        <ele>499.614334</ele>
        <time>2021-04-30T09:55:53.596Z</time>
      </trkpt>
      <trkpt lat="46.37795" lon="5.82966">
        <ele>500.689497</ele>
        <time>2021-04-30T09:56:07.617Z</time>
      </trkpt>
      <trkpt lat="46.3778" lon="5.82919">
        <ele>502.70075</ele>
        <time>2021-04-30T09:56:27.792Z</time>
      </trkpt>
      <trkpt lat="46.37768" lon="5.82896">
        <ele>504.13101</ele>
        <time>2021-04-30T09:56:37.687Z</time>
      </trkpt>
      <trkpt lat="46.37765" lon="5.8289">
        <ele>504.498625</ele>
        <time>2021-04-30T09:56:43.749Z</time>
      </trkpt>
      <trkpt lat="46.37726" lon="5.82852">
        <ele>507.833073</ele>
        <time>2021-04-30T09:57:11.192Z</time>
      </trkpt>
      <trkpt lat="46.37679" lon="5.82822">
        <ele>511.580942</ele>
        <time>2021-04-30T09:57:43.455Z</time>
      </trkpt>
      <trkpt lat="46.37674" lon="5.82803">
        <ele>512.574399</ele>
        <time>2021-04-30T09:57:54.649Z</time>
      </trkpt>
      <trkpt lat="46.37674" lon="5.8279">
        <ele>513.194396</ele>
        <time>2021-04-30T09:57:59.440Z</time>
      </trkpt>
      <trkpt lat="46.377" lon="5.82717">
        <ele>517.091783</ele>
        <time>2021-04-30T09:58:35.507Z</time>
      </trkpt>
      <trkpt lat="46.37727" lon="5.82606">
        <ele>522.52976</ele>
        <time>2021-04-30T09:59:22.013Z</time>
      </trkpt>
      <trkpt lat="46.37728" lon="5.82524">
        <ele>526.321267</ele>
        <time>2021-04-30T09:59:55.436Z</time>
      </trkpt>
      <trkpt lat="46.37712" lon="5.82449">
        <ele>529.096151</ele>
        <time>2021-04-30T10:00:24.799Z</time>
      </trkpt>
      <trkpt lat="46.37674" lon="5.82374">
        <ele>532.280465</ele>
        <time>2021-04-30T10:00:57.351Z</time>
      </trkpt>
      <trkpt lat="46.37667" lon="5.82347">
        <ele>533.257935</ele>
        <time>2021-04-30T10:01:06.637Z</time>
      </trkpt>
      <trkpt lat="46.37659" lon="5.82303">
        <ele>534.832991</ele>
        <time>2021-04-30T10:01:21.642Z</time>
      </trkpt>
      <trkpt lat="46.37666" lon="5.82221">
        <ele>537.26188</ele>
        <time>2021-04-30T10:01:47.431Z</time>
      </trkpt>
      <trkpt lat="46.37661" lon="5.82169">
        <ele>538.761019</ele>
        <time>2021-04-30T10:02:02.989Z</time>
      </trkpt>
      <trkpt lat="46.37649" lon="5.82148">
        <ele>539.525899</ele>
        <time>2021-04-30T10:02:11.693Z</time>
      </trkpt>
      <trkpt lat="46.37601" lon="5.82113">
        <ele>541.698274</ele>
        <time>2021-04-30T10:02:35.595Z</time>
      </trkpt>
      <trkpt lat="46.37578" lon="5.82087">
        <ele>542.91874</ele>
        <time>2021-04-30T10:02:50.287Z</time>
      </trkpt>
      <trkpt lat="46.37565" lon="5.82059">
        <ele>544.179618</ele>
        <time>2021-04-30T10:03:02.442Z</time>
      </trkpt>
      <trkpt lat="46.37556" lon="5.82031">
        <ele>545.301436</ele>
        <time>2021-04-30T10:03:12.452Z</time>
      </trkpt>
      <trkpt lat="46.37551" lon="5.82018">
        <ele>545.8372</ele>
        <time>2021-04-30T10:03:18.692Z</time>
      </trkpt>
      <trkpt lat="46.37533" lon="5.81917">
        <ele>549.719319</ele>
        <time>2021-04-30T10:03:57.718Z</time>
      </trkpt>
      <trkpt lat="46.37521" lon="5.81889">
        <ele>550.955949</ele>
        <time>2021-04-30T10:04:09.577Z</time>
      </trkpt>
      <trkpt lat="46.37501" lon="5.81869">
        <ele>552.246559</ele>
        <time>2021-04-30T10:04:23.437Z</time>
      </trkpt>
      <trkpt lat="46.37479" lon="5.81856">
        <ele>553.210215</ele>
        <time>2021-04-30T10:04:36.737Z</time>
      </trkpt>
      <trkpt lat="46.3742" lon="5.81843">
        <ele>555.431409</ele>
        <time>2021-04-30T10:05:04.977Z</time>
      </trkpt>
      <trkpt lat="46.37364" lon="5.81806">
        <ele>557.728252</ele>
        <time>2021-04-30T10:05:30.723Z</time>
      </trkpt>
      <trkpt lat="46.37304" lon="5.81796">
        <ele>559.530547</ele>
        <time>2021-04-30T10:05:53.843Z</time>
      </trkpt>
      <trkpt lat="46.37277" lon="5.81783">
        <ele>559.909605</ele>
        <time>2021-04-30T10:06:04.415Z</time>
      </trkpt>
      <trkpt lat="46.37222" lon="5.81758">
        <ele>560.659452</ele>
        <time>2021-04-30T10:06:26.206Z</time>
      </trkpt>
      <trkpt lat="46.37201" lon="5.8175">
        <ele>560.934669</ele>
        <time>2021-04-30T10:06:33.976Z</time>
      </trkpt>
      <trkpt lat="46.37166" lon="5.81745">
        <ele>561.396226</ele>
        <time>2021-04-30T10:06:43.350Z</time>
      </trkpt>
      <trkpt lat="46.37134" lon="5.81749">
        <ele>560.890838</ele>
        <time>2021-04-30T10:06:50.886Z</time>
      </trkpt>
      <trkpt lat="46.37122" lon="5.8176">
        <ele>560.164318</ele>
        <time>2021-04-30T10:06:54.908Z</time>
      </trkpt>
      <trkpt lat="46.37112" lon="5.81767">
        <ele>559.618996</ele>
        <time>2021-04-30T10:06:56.983Z</time>
      </trkpt>
      <trkpt lat="46.37073" lon="5.81797">
        <ele>557.36216</ele>
        <time>2021-04-30T10:07:05.412Z</time>
      </trkpt>
      <trkpt lat="46.3706" lon="5.81797">
        <ele>556.657266</ele>
        <time>2021-04-30T10:07:07.914Z</time>
      </trkpt>
      <trkpt lat="46.37053" lon="5.81797">
        <ele>556.315052</ele>
        <time>2021-04-30T10:07:09.130Z</time>
      </trkpt>
      <trkpt lat="46.37046" lon="5.81788">
        <ele>555.844877</ele>
        <time>2021-04-30T10:07:10.680Z</time>
      </trkpt>
      <trkpt lat="46.3703" lon="5.81758">
        <ele>554.484907</ele>
        <time>2021-04-30T10:07:15.462Z</time>
      </trkpt>
      <trkpt lat="46.37002" lon="5.81733">
        <ele>552.797095</ele>
        <time>2021-04-30T10:07:21.054Z</time>
      </trkpt>
      <trkpt lat="46.36991" lon="5.81713">
        <ele>551.312488</ele>
        <time>2021-04-30T10:07:23.801Z</time>
      </trkpt>
      <trkpt lat="46.36981" lon="5.81687">
        <ele>548.90907</ele>
        <time>2021-04-30T10:07:27.167Z</time>
      </trkpt>
      <trkpt lat="46.36947" lon="5.8166">
        <ele>544.507867</ele>
        <time>2021-04-30T10:07:33.286Z</time>
      </trkpt>
      <trkpt lat="46.36927" lon="5.81657">
        <ele>542.214107</ele>
        <time>2021-04-30T10:07:36.497Z</time>
      </trkpt>
      <trkpt lat="46.36892" lon="5.81664">
        <ele>538.177064</ele>
        <time>2021-04-30T10:07:42.178Z</time>
      </trkpt>
      <trkpt lat="46.36876" lon="5.81638">
        <ele>535.407821</ele>
        <time>2021-04-30T10:07:46.058Z</time>
      </trkpt>
      <trkpt lat="46.36872" lon="5.81631">
        <ele>534.722493</ele>
        <time>2021-04-30T10:07:47.013Z</time>
      </trkpt>
      <trkpt lat="46.36872" lon="5.81625">
        <ele>534.198667</ele>
        <time>2021-04-30T10:07:47.733Z</time>
      </trkpt>
      <trkpt lat="46.3687" lon="5.8161">
        <ele>533.030992</ele>
        <time>2021-04-30T10:07:49.324Z</time>
      </trkpt>
      <trkpt lat="46.3686" lon="5.81558">
        <ele>529.136995</ele>
        <time>2021-04-30T10:07:55.393Z</time>
      </trkpt>
      <trkpt lat="46.3682" lon="5.81522">
        <ele>524.435955</ele>
        <time>2021-04-30T10:08:03.062Z</time>
      </trkpt>
      <trkpt lat="46.36796" lon="5.81473">
        <ele>520.252098</ele>
        <time>2021-04-30T10:08:09.896Z</time>
      </trkpt>
      <trkpt lat="46.36792" lon="5.81469">
        <ele>519.819978</ele>
        <time>2021-04-30T10:08:10.569Z</time>
      </trkpt>
      <trkpt lat="46.3678" lon="5.81459">
        <ele>518.358943</ele>
        <time>2021-04-30T10:08:12.970Z</time>
      </trkpt>
      <trkpt lat="46.36765" lon="5.81439">
        <ele>516.37219</ele>
        <time>2021-04-30T10:08:16.332Z</time>
      </trkpt>
      <trkpt lat="46.36747" lon="5.81385">
        <ele>512.26236</ele>
        <time>2021-04-30T10:08:23.411Z</time>
      </trkpt>
      <trkpt lat="46.36742" lon="5.8137">
        <ele>511.17005</ele>
        <time>2021-04-30T10:08:25.361Z</time>
      </trkpt>
      <trkpt lat="46.36739" lon="5.81359">
        <ele>510.385122</ele>
        <time>2021-04-30T10:08:26.669Z</time>
      </trkpt>
      <trkpt lat="46.36693" lon="5.81277">
        <ele>503.326703</ele>
        <time>2021-04-30T10:08:38.585Z</time>
      </trkpt>
      <trkpt lat="46.36665" lon="5.81203">
        <ele>497.715127</ele>
        <time>2021-04-30T10:08:48.091Z</time>
      </trkpt>
      <trkpt lat="46.36653" lon="5.81147">
        <ele>493.734634</ele>
        <time>2021-04-30T10:08:54.698Z</time>
      </trkpt>
      <trkpt lat="46.3664" lon="5.81089">
        <ele>489.633762</ele>
        <time>2021-04-30T10:09:01.516Z</time>
      </trkpt>
      <trkpt lat="46.36633" lon="5.81054">
        <ele>487.141426</ele>
        <time>2021-04-30T10:09:05.687Z</time>
      </trkpt>
      <trkpt lat="46.36652" lon="5.80982">
        <ele>481.946488</ele>
        <time>2021-04-30T10:09:14.342Z</time>
      </trkpt>
      <trkpt lat="46.36653" lon="5.80942">
        <ele>479.242827</ele>
        <time>2021-04-30T10:09:18.912Z</time>
      </trkpt>
      <trkpt lat="46.36638" lon="5.80891">
        <ele>476.675802</ele>
        <time>2021-04-30T10:09:25.373Z</time>
      </trkpt>
      <trkpt lat="46.36611" lon="5.80842">
        <ele>473.912126</ele>
        <time>2021-04-30T10:09:32.897Z</time>
      </trkpt>
      <trkpt lat="46.36604" lon="5.80804">
        <ele>472.182406</ele>
        <time>2021-04-30T10:09:37.666Z</time>
      </trkpt>
      <trkpt lat="46.36607" lon="5.80776">
        <ele>470.896037</ele>
        <time>2021-04-30T10:09:41.256Z</time>
      </trkpt>
      <trkpt lat="46.36623" lon="5.80742">
        <ele>469.103489</ele>
        <time>2021-04-30T10:09:46.262Z</time>
      </trkpt>
      <trkpt lat="46.36686" lon="5.80667">
        <ele>464.570579</ele>
        <time>2021-04-30T10:10:01.245Z</time>
      </trkpt>
      <trkpt lat="46.36741" lon="5.80645">
        <ele>461.663359</ele>
        <time>2021-04-30T10:10:11.507Z</time>
      </trkpt>
      <trkpt lat="46.3675" lon="5.80633">
        <ele>461.029002</ele>
        <time>2021-04-30T10:10:13.715Z</time>
      </trkpt>
      <trkpt lat="46.36751" lon="5.80617">
        <ele>460.468896</ele>
        <time>2021-04-30T10:10:15.644Z</time>
      </trkpt>
      <trkpt lat="46.36746" lon="5.80607">
        <ele>460.042167</ele>
        <time>2021-04-30T10:10:17.114Z</time>
      </trkpt>
      <trkpt lat="46.36737" lon="5.80601">
        <ele>459.514952</ele>
        <time>2021-04-30T10:10:18.929Z</time>
      </trkpt>
      <trkpt lat="46.36668" lon="5.80599">
        <ele>457.263616</ele>
        <time>2021-04-30T10:10:31.359Z</time>
      </trkpt>
      <trkpt lat="46.36646" lon="5.80602">
        <ele>456.809575</ele>
        <time>2021-04-30T10:10:35.418Z</time>
      </trkpt>
      <trkpt lat="46.36634" lon="5.80611">
        <ele>456.524896</ele>
        <time>2021-04-30T10:10:37.981Z</time>
      </trkpt>
      <trkpt lat="46.36607" lon="5.80648">
        <ele>455.746883</ele>
        <time>2021-04-30T10:10:45.409Z</time>
      </trkpt>
      <trkpt lat="46.36577" lon="5.80705">
        <ele>454.711711</ele>
        <time>2021-04-30T10:10:57.312Z</time>
      </trkpt>
      <trkpt lat="46.36564" lon="5.80776">
        <ele>456.130746</ele>
        <time>2021-04-30T10:11:19.687Z</time>
      </trkpt>
      <trkpt lat="46.36509" lon="5.80872">
        <ele>460.351865</ele>
        <time>2021-04-30T10:12:07.899Z</time>
      </trkpt>
      <trkpt lat="46.365" lon="5.80876">
        <ele>460.822807</ele>
        <time>2021-04-30T10:12:13.978Z</time>
      </trkpt>
      <trkpt lat="46.3649" lon="5.80867">
        <ele>461.390643</ele>
        <time>2021-04-30T10:12:20.184Z</time>
      </trkpt>
      <trkpt lat="46.36486" lon="5.80858">
        <ele>461.746183</ele>
        <time>2021-04-30T10:12:25.449Z</time>
      </trkpt>
      <trkpt lat="46.3651" lon="5.80749">
        <ele>463.125431</ele>
        <time>2021-04-30T10:13:05.085Z</time>
      </trkpt>
      <trkpt lat="46.36508" lon="5.80725">
        <ele>463.107442</ele>
        <time>2021-04-30T10:13:11.921Z</time>
      </trkpt>
      <trkpt lat="46.36495" lon="5.80696">
        <ele>463.081057</ele>
        <time>2021-04-30T10:13:20.893Z</time>
      </trkpt>
      <trkpt lat="46.36488" lon="5.80584">
        <ele>462.995028</ele>
        <time>2021-04-30T10:13:36.558Z</time>
      </trkpt>
      <trkpt lat="46.36481" lon="5.80554">
        <ele>462.176718</ele>
        <time>2021-04-30T10:13:40.363Z</time>
      </trkpt>
      <trkpt lat="46.36489" lon="5.80415">
        <ele>454.459686</ele>
        <time>2021-04-30T10:13:56.369Z</time>
      </trkpt>
      <trkpt lat="46.36496" lon="5.80399">
        <ele>453.370167</ele>
        <time>2021-04-30T10:13:58.626Z</time>
      </trkpt>
      <trkpt lat="46.36498" lon="5.80381">
        <ele>452.394491</ele>
        <time>2021-04-30T10:14:00.632Z</time>
      </trkpt>
      <trkpt lat="46.36493" lon="5.80366">
        <ele>451.478749</ele>
        <time>2021-04-30T10:14:02.511Z</time>
      </trkpt>
      <trkpt lat="46.36468" lon="5.80336">
        <ele>448.832863</ele>
        <time>2021-04-30T10:14:07.954Z</time>
      </trkpt>
      <trkpt lat="46.3635" lon="5.80218">
        <ele>439.384657</ele>
        <time>2021-04-30T10:14:32.376Z</time>
      </trkpt>
      <trkpt lat="46.36288" lon="5.80142">
        <ele>435.863378</ele>
        <time>2021-04-30T10:14:47.768Z</time>
      </trkpt>
      <trkpt lat="46.36275" lon="5.8012">
        <ele>435.426859</ele>
        <time>2021-04-30T10:14:51.838Z</time>
      </trkpt>
      <trkpt lat="46.36265" lon="5.80104">
        <ele>435.12751</ele>
        <time>2021-04-30T10:14:54.840Z</time>
      </trkpt>
      <trkpt lat="46.36235" lon="5.80056">
        <ele>434.185729</ele>
        <time>2021-04-30T10:15:04.509Z</time>
      </trkpt>
      <trkpt lat="46.36203" lon="5.79978">
        <ele>432.936538</ele>
        <time>2021-04-30T10:15:19.391Z</time>
      </trkpt>
      <trkpt lat="46.36167" lon="5.79801">
        <ele>433.119766</ele>
        <time>2021-04-30T10:15:56.932Z</time>
      </trkpt>
      <trkpt lat="46.36153" lon="5.79752">
        <ele>433.171851</ele>
        <time>2021-04-30T10:16:07.311Z</time>
      </trkpt>
      <trkpt lat="46.36107" lon="5.79667">
        <ele>430.862434</ele>
        <time>2021-04-30T10:16:26.190Z</time>
      </trkpt>
      <trkpt lat="46.36034" lon="5.79491">
        <ele>423.926522</ele>
        <time>2021-04-30T10:16:51.830Z</time>
      </trkpt>
      <trkpt lat="46.36025" lon="5.79444">
        <ele>420.307295</ele>
        <time>2021-04-30T10:16:57.298Z</time>
      </trkpt>
      <trkpt lat="46.36018" lon="5.79351">
        <ele>413.425604</ele>
        <time>2021-04-30T10:17:07.778Z</time>
      </trkpt>
      <trkpt lat="46.36017" lon="5.79345">
        <ele>412.988159</ele>
        <time>2021-04-30T10:17:08.421Z</time>
      </trkpt>
      <trkpt lat="46.36006" lon="5.79302">
        <ele>409.669164</ele>
        <time>2021-04-30T10:17:13.512Z</time>
      </trkpt>
      <trkpt lat="46.36" lon="5.79272">
        <ele>407.324359</ele>
        <time>2021-04-30T10:17:16.946Z</time>
      </trkpt>
      <trkpt lat="46.35995" lon="5.79244">
        <ele>405.062516</ele>
        <time>2021-04-30T10:17:20.036Z</time>
      </trkpt>
      <trkpt lat="46.35981" lon="5.79205">
        <ele>401.552454</ele>
        <time>2021-04-30T10:17:25.008Z</time>
      </trkpt>
      <trkpt lat="46.35955" lon="5.79152">
        <ele>396.424683</ele>
        <time>2021-04-30T10:17:31.990Z</time>
      </trkpt>
      <trkpt lat="46.3591" lon="5.7907">
        <ele>388.06343</ele>
        <time>2021-04-30T10:17:43.880Z</time>
      </trkpt>
      <trkpt lat="46.35858" lon="5.79017">
        <ele>382.510163</ele>
        <time>2021-04-30T10:17:54.421Z</time>
      </trkpt>
      <trkpt lat="46.35849" lon="5.78992">
        <ele>380.977293</ele>
        <time>2021-04-30T10:17:57.658Z</time>
      </trkpt>
      <trkpt lat="46.35853" lon="5.78976">
        <ele>380.023078</ele>
        <time>2021-04-30T10:17:59.608Z</time>
      </trkpt>
      <trkpt lat="46.35856" lon="5.78958">
        <ele>378.989238</ele>
        <time>2021-04-30T10:18:01.795Z</time>
      </trkpt>
      <trkpt lat="46.35862" lon="5.78945">
        <ele>378.101689</ele>
        <time>2021-04-30T10:18:03.657Z</time>
      </trkpt>
      <trkpt lat="46.35871" lon="5.78925">
        <ele>376.79998</ele>
        <time>2021-04-30T10:18:06.332Z</time>
      </trkpt>
      <trkpt lat="46.35877" lon="5.78914">
        <ele>376.025541</ele>
        <time>2021-04-30T10:18:07.977Z</time>
      </trkpt>
      <trkpt lat="46.35885" lon="5.78896">
        <ele>374.802649</ele>
        <time>2021-04-30T10:18:10.562Z</time>
      </trkpt>
      <trkpt lat="46.35881" lon="5.78879">
        <ele>373.765032</ele>
        <time>2021-04-30T10:18:12.721Z</time>
      </trkpt>
      <trkpt lat="46.35878" lon="5.78847">
        <ele>372.005493</ele>
        <time>2021-04-30T10:18:16.554Z</time>
      </trkpt>
      <trkpt lat="46.35875" lon="5.78816">
        <ele>370.899673</ele>
        <time>2021-04-30T10:18:20.234Z</time>
      </trkpt>
      <trkpt lat="46.35875" lon="5.78806">
        <ele>370.523569</ele>
        <time>2021-04-30T10:18:21.469Z</time>
      </trkpt>
      <trkpt lat="46.35873" lon="5.78786">
        <ele>369.806593</ele>
        <time>2021-04-30T10:18:23.876Z</time>
      </trkpt>
      <trkpt lat="46.35871" lon="5.78774">
        <ele>369.375509</ele>
        <time>2021-04-30T10:18:25.318Z</time>
      </trkpt>
      <trkpt lat="46.35869" lon="5.78765">
        <ele>369.056673</ele>
        <time>2021-04-30T10:18:26.384Z</time>
      </trkpt>
      <trkpt lat="46.35868" lon="5.78761">
        <ele>368.893856</ele>
        <time>2021-04-30T10:18:26.904Z</time>
      </trkpt>
      <trkpt lat="46.35865" lon="5.78749">
        <ele>368.448715</ele>
        <time>2021-04-30T10:18:28.448Z</time>
      </trkpt>
      <trkpt lat="46.35857" lon="5.78731">
        <ele>367.702336</ele>
        <time>2021-04-30T10:18:31.077Z</time>
      </trkpt>
      <trkpt lat="46.3585" lon="5.78717">
        <ele>367.074461</ele>
        <time>2021-04-30T10:18:33.253Z</time>
      </trkpt>
      <trkpt lat="46.35812" lon="5.78641">
        <ele>363.758825</ele>
        <time>2021-04-30T10:18:45.652Z</time>
      </trkpt>
      <trkpt lat="46.35828" lon="5.78625">
        <ele>362.794512</ele>
        <time>2021-04-30T10:18:49.573Z</time>
      </trkpt>
      <trkpt lat="46.35839" lon="5.78611">
        <ele>362.519791</ele>
        <time>2021-04-30T10:18:52.839Z</time>
      </trkpt>
      <trkpt lat="46.35846" lon="5.78604">
        <ele>362.368963</ele>
        <time>2021-04-30T10:18:54.407Z</time>
      </trkpt>
      <trkpt lat="46.35843" lon="5.78599">
        <ele>362.293157</ele>
        <time>2021-04-30T10:18:55.310Z</time>
      </trkpt>
      <trkpt lat="46.35837" lon="5.78589">
        <ele>362.12253</ele>
        <time>2021-04-30T10:18:57.414Z</time>
      </trkpt>
      <trkpt lat="46.35809" lon="5.7854">
        <ele>361.310999</ele>
        <time>2021-04-30T10:19:07.216Z</time>
      </trkpt>
      <trkpt lat="46.35736" lon="5.78416">
        <ele>359.391138</ele>
        <time>2021-04-30T10:19:33.650Z</time>
      </trkpt>
      <trkpt lat="46.35733" lon="5.78412">
        <ele>359.359872</ele>
        <time>2021-04-30T10:19:34.558Z</time>
      </trkpt>
      <trkpt lat="46.35687" lon="5.78334">
        <ele>358.804909</ele>
        <time>2021-04-30T10:19:52.410Z</time>
      </trkpt>
      <trkpt lat="46.35686" lon="5.78331">
        <ele>358.790289</ele>
        <time>2021-04-30T10:19:52.815Z</time>
      </trkpt>
      <trkpt lat="46.35674" lon="5.78307">
        <ele>358.633586</ele>
        <time>2021-04-30T10:19:57.907Z</time>
      </trkpt>
      <trkpt lat="46.35663" lon="5.78266">
        <ele>358.393925</ele>
        <time>2021-04-30T10:20:05.531Z</time>
      </trkpt>
      <trkpt lat="46.35623" lon="5.7818">
        <ele>358.030703</ele>
        <time>2021-04-30T10:20:23.951Z</time>
      </trkpt>
      <trkpt lat="46.35589" lon="5.78107">
        <ele>357.903749</ele>
        <time>2021-04-30T10:20:40.524Z</time>
      </trkpt>
      <trkpt lat="46.35585" lon="5.78099">
        <ele>357.889735</ele>
        <time>2021-04-30T10:20:42.337Z</time>
      </trkpt>
      <trkpt lat="46.35579" lon="5.78091">
        <ele>357.873262</ele>
        <time>2021-04-30T10:20:44.671Z</time>
      </trkpt>
      <trkpt lat="46.35572" lon="5.7809">
        <ele>357.857545</ele>
        <time>2021-04-30T10:20:46.767Z</time>
      </trkpt>
      <trkpt lat="46.35542" lon="5.78108">
        <ele>357.791473</ele>
        <time>2021-04-30T10:20:55.708Z</time>
      </trkpt>
      <trkpt lat="46.35538" lon="5.78092">
        <ele>357.766723</ele>
        <time>2021-04-30T10:20:58.978Z</time>
      </trkpt>
      <trkpt lat="46.35533" lon="5.78048">
        <ele>357.674192</ele>
        <time>2021-04-30T10:21:07.743Z</time>
      </trkpt>
      <trkpt lat="46.35506" lon="5.77884">
        <ele>357.146208</ele>
        <time>2021-04-30T10:21:38.090Z</time>
      </trkpt>
      <trkpt lat="46.35503" lon="5.77844">
        <ele>357.020326</ele>
        <time>2021-04-30T10:21:44.413Z</time>
      </trkpt>
      <trkpt lat="46.35502" lon="5.7784">
        <ele>357.006245</ele>
        <time>2021-04-30T10:21:45.569Z</time>
      </trkpt>
      <trkpt lat="46.35497" lon="5.77833">
        <ele>356.974781</ele>
        <time>2021-04-30T10:21:47.101Z</time>
      </trkpt>
      <trkpt lat="46.35494" lon="5.7783">
        <ele>356.95874</ele>
        <time>2021-04-30T10:21:48.009Z</time>
      </trkpt>
      <trkpt lat="46.35496" lon="5.7782">
        <ele>356.924261</ele>
        <time>2021-04-30T10:21:50.450Z</time>
      </trkpt>
      <trkpt lat="46.35498" lon="5.77808">
        <ele>357.018191</ele>
        <time>2021-04-30T10:21:52.455Z</time>
      </trkpt>
      <trkpt lat="46.35501" lon="5.77796">
        <ele>357.180434</ele>
        <time>2021-04-30T10:21:54.836Z</time>
      </trkpt>
      <trkpt lat="46.35511" lon="5.77765">
        <ele>357.596322</ele>
        <time>2021-04-30T10:22:01.023Z</time>
      </trkpt>
      <trkpt lat="46.35519" lon="5.77741">
        <ele>357.928304</ele>
        <time>2021-04-30T10:22:05.605Z</time>
      </trkpt>
      <trkpt lat="46.35533" lon="5.77698">
        <ele>358.501343</ele>
        <time>2021-04-30T10:22:14.770Z</time>
      </trkpt>
      <trkpt lat="46.35538" lon="5.77679">
        <ele>358.757378</ele>
        <time>2021-04-30T10:22:18.733Z</time>
      </trkpt>
      <trkpt lat="46.35545" lon="5.77659">
        <ele>359.025043</ele>
        <time>2021-04-30T10:22:23.510Z</time>
      </trkpt>
      <trkpt lat="46.35542" lon="5.77656">
        <ele>359.093622</ele>
        <time>2021-04-30T10:22:25.207Z</time>
      </trkpt>
      <trkpt lat="46.35533" lon="5.77647">
        <ele>359.279119</ele>
        <time>2021-04-30T10:22:29.487Z</time>
      </trkpt>
      <trkpt lat="46.3553" lon="5.77642">
        <ele>359.360523</ele>
        <time>2021-04-30T10:22:32.705Z</time>
      </trkpt>
      <trkpt lat="46.35529" lon="5.77637">
        <ele>359.429257</ele>
        <time>2021-04-30T10:22:34.926Z</time>
      </trkpt>
      <trkpt lat="46.35553" lon="5.77561">
        <ele>361.743772</ele>
        <time>2021-04-30T10:23:00.820Z</time>
      </trkpt>
      <trkpt lat="46.35561" lon="5.77485">
        <ele>366.071099</ele>
        <time>2021-04-30T10:23:36.649Z</time>
      </trkpt>
      <trkpt lat="46.35556" lon="5.77455">
        <ele>367.865841</ele>
        <time>2021-04-30T10:23:50.365Z</time>
      </trkpt>
      <trkpt lat="46.35554" lon="5.77443">
        <ele>368.518954</ele>
        <time>2021-04-30T10:23:58.581Z</time>
      </trkpt>
      <trkpt lat="46.35542" lon="5.7734">
        <ele>374.47652</ele>
        <time>2021-04-30T10:24:54.155Z</time>
      </trkpt>
      <trkpt lat="46.35529" lon="5.77169">
        <ele>379.563164</ele>
        <time>2021-04-30T10:26:07.618Z</time>
      </trkpt>
      <trkpt lat="46.3554" lon="5.77132">
        <ele>380.687342</ele>
        <time>2021-04-30T10:26:13.845Z</time>
      </trkpt>
      <trkpt lat="46.35552" lon="5.77104">
        <ele>381.629916</ele>
        <time>2021-04-30T10:26:19.157Z</time>
      </trkpt>
      <trkpt lat="46.35564" lon="5.77076">
        <ele>381.993939</ele>
        <time>2021-04-30T10:26:23.826Z</time>
      </trkpt>
      <trkpt lat="46.35586" lon="5.77035">
        <ele>380.390926</ele>
        <time>2021-04-30T10:26:30.883Z</time>
      </trkpt>
      <trkpt lat="46.35594" lon="5.77024">
        <ele>379.925431</ele>
        <time>2021-04-30T10:26:32.769Z</time>
      </trkpt>
      <trkpt lat="46.35606" lon="5.7701">
        <ele>379.217831</ele>
        <time>2021-04-30T10:26:35.705Z</time>
      </trkpt>
      <trkpt lat="46.35616" lon="5.76994">
        <ele>378.571191</ele>
        <time>2021-04-30T10:26:38.405Z</time>
      </trkpt>
      <trkpt lat="46.35619" lon="5.76989">
        <ele>378.363171</ele>
        <time>2021-04-30T10:26:39.225Z</time>
      </trkpt>
      <trkpt lat="46.35625" lon="5.76968">
        <ele>377.665762</ele>
        <time>2021-04-30T10:26:42.028Z</time>
      </trkpt>
      <trkpt lat="46.35628" lon="5.76944">
        <ele>376.918419</ele>
        <time>2021-04-30T10:26:45.021Z</time>
      </trkpt>
      <trkpt lat="46.35628" lon="5.7679">
        <ele>373.403635</ele>
        <time>2021-04-30T10:27:03.860Z</time>
      </trkpt>
      <trkpt lat="46.35623" lon="5.76735">
        <ele>372.676525</ele>
        <time>2021-04-30T10:27:13.047Z</time>
      </trkpt>
      <trkpt lat="46.35606" lon="5.76676">
        <ele>371.829853</ele>
        <time>2021-04-30T10:27:24.985Z</time>
      </trkpt>
      <trkpt lat="46.35604" lon="5.76667">
        <ele>371.704774</ele>
        <time>2021-04-30T10:27:26.603Z</time>
      </trkpt>
      <trkpt lat="46.35602" lon="5.76659">
        <ele>371.597175</ele>
        <time>2021-04-30T10:27:28.021Z</time>
      </trkpt>
      <trkpt lat="46.35598" lon="5.76646">
        <ele>371.415504</ele>
        <time>2021-04-30T10:27:30.498Z</time>
      </trkpt>
      <trkpt lat="46.35593" lon="5.76627">
        <ele>371.135827</ele>
        <time>2021-04-30T10:27:34.421Z</time>
      </trkpt>
      <trkpt lat="46.35589" lon="5.76613">
        <ele>370.948178</ele>
        <time>2021-04-30T10:27:36.882Z</time>
      </trkpt>
      <trkpt lat="46.35571" lon="5.76556">
        <ele>370.546001</ele>
        <time>2021-04-30T10:27:48.251Z</time>
      </trkpt>
      <trkpt lat="46.35541" lon="5.76493">
        <ele>370.10661</ele>
        <time>2021-04-30T10:28:01.613Z</time>
      </trkpt>
      <trkpt lat="46.3554" lon="5.76483">
        <ele>370.043918</ele>
        <time>2021-04-30T10:28:03.314Z</time>
      </trkpt>
      <trkpt lat="46.35543" lon="5.76475">
        <ele>369.99568</ele>
        <time>2021-04-30T10:28:04.645Z</time>
      </trkpt>
      <trkpt lat="46.35545" lon="5.76467">
        <ele>369.947442</ele>
        <time>2021-04-30T10:28:05.983Z</time>
      </trkpt>
      <trkpt lat="46.35545" lon="5.76455">
        <ele>369.875278</ele>
        <time>2021-04-30T10:28:07.995Z</time>
      </trkpt>
      <trkpt lat="46.35526" lon="5.76408">
        <ele>369.564162</ele>
        <time>2021-04-30T10:28:16.448Z</time>
      </trkpt>
      <trkpt lat="46.35515" lon="5.76381">
        <ele>369.380112</ele>
        <time>2021-04-30T10:28:21.239Z</time>
      </trkpt>
      <trkpt lat="46.3549" lon="5.76325">
        <ele>367.874103</ele>
        <time>2021-04-30T10:28:30.950Z</time>
      </trkpt>
      <trkpt lat="46.35475" lon="5.76289">
        <ele>366.923051</ele>
        <time>2021-04-30T10:28:36.727Z</time>
      </trkpt>
      <trkpt lat="46.35439" lon="5.76239">
        <ele>365.258289</ele>
        <time>2021-04-30T10:28:46.587Z</time>
      </trkpt>
      <trkpt lat="46.35377" lon="5.76116">
        <ele>360.697039</ele>
        <time>2021-04-30T10:29:05.665Z</time>
      </trkpt>
      <trkpt lat="46.35342" lon="5.76068">
        <ele>358.036316</ele>
        <time>2021-04-30T10:29:14.087Z</time>
      </trkpt>
      <trkpt lat="46.35286" lon="5.76011">
        <ele>354.280163</ele>
        <time>2021-04-30T10:29:26.208Z</time>
      </trkpt>
      <trkpt lat="46.35281" lon="5.76003">
        <ele>353.818082</ele>
        <time>2021-04-30T10:29:27.595Z</time>
      </trkpt>
      <trkpt lat="46.35283" lon="5.75995">
        <ele>353.482642</ele>
        <time>2021-04-30T10:29:28.692Z</time>
      </trkpt>
      <trkpt lat="46.35304" lon="5.75975">
        <ele>352.702563</ele>
        <time>2021-04-30T10:29:33.320Z</time>
      </trkpt>
      <trkpt lat="46.35295" lon="5.7596">
        <ele>352.284238</ele>
        <time>2021-04-30T10:29:35.633Z</time>
      </trkpt>
      <trkpt lat="46.35264" lon="5.75902">
        <ele>350.676855</ele>
        <time>2021-04-30T10:29:45.283Z</time>
      </trkpt>
      <trkpt lat="46.35115" lon="5.75588">
        <ele>346.243779</ele>
        <time>2021-04-30T10:30:42.586Z</time>
      </trkpt>
      <trkpt lat="46.35073" lon="5.75503">
        <ele>349.491875</ele>
        <time>2021-04-30T10:31:12.550Z</time>
      </trkpt>
      <trkpt lat="46.35014" lon="5.75385">
        <ele>354.650017</ele>
        <time>2021-04-30T10:32:09.297Z</time>
      </trkpt>
      <trkpt lat="46.34972" lon="5.75273">
        <ele>361.383772</ele>
        <time>2021-04-30T10:33:14.237Z</time>
      </trkpt>
      <trkpt lat="46.3496" lon="5.75216">
        <ele>364.751552</ele>
        <time>2021-04-30T10:33:43.822Z</time>
      </trkpt>
      <trkpt lat="46.34954" lon="5.75133">
        <ele>369.439017</ele>
        <time>2021-04-30T10:34:20.544Z</time>
      </trkpt>
      <trkpt lat="46.34957" lon="5.75067">
        <ele>370.075536</ele>
        <time>2021-04-30T10:34:45.896Z</time>
      </trkpt>
      <trkpt lat="46.3497" lon="5.74993">
        <ele>370.045229</ele>
        <time>2021-04-30T10:35:04.214Z</time>
      </trkpt>
      <trkpt lat="46.35012" lon="5.74882">
        <ele>369.994488</ele>
        <time>2021-04-30T10:35:21.370Z</time>
      </trkpt>
      <trkpt lat="46.3505" lon="5.74819">
        <ele>365.864267</ele>
        <time>2021-04-30T10:35:31.155Z</time>
      </trkpt>
      <trkpt lat="46.35117" lon="5.74704">
        <ele>358.115763</ele>
        <time>2021-04-30T10:35:48.541Z</time>
      </trkpt>
      <trkpt lat="46.35166" lon="5.74595">
        <ele>352.592335</ele>
        <time>2021-04-30T10:36:03.967Z</time>
      </trkpt>
      <trkpt lat="46.35195" lon="5.74544">
        <ele>349.962158</ele>
        <time>2021-04-30T10:36:11.968Z</time>
      </trkpt>
      <trkpt lat="46.35226" lon="5.74504">
        <ele>347.567105</ele>
        <time>2021-04-30T10:36:19.623Z</time>
      </trkpt>
      <trkpt lat="46.3524" lon="5.74485">
        <ele>346.468982</ele>
        <time>2021-04-30T10:36:23.267Z</time>
      </trkpt>
      <trkpt lat="46.35255" lon="5.74462">
        <ele>345.720282</ele>
        <time>2021-04-30T10:36:27.573Z</time>
      </trkpt>
      <trkpt lat="46.35262" lon="5.74452">
        <ele>345.437257</ele>
        <time>2021-04-30T10:36:29.461Z</time>
      </trkpt>
      <trkpt lat="46.35268" lon="5.7444">
        <ele>345.140006</ele>
        <time>2021-04-30T10:36:31.506Z</time>
      </trkpt>
      <trkpt lat="46.35283" lon="5.74415">
        <ele>344.491534</ele>
        <time>2021-04-30T10:36:35.911Z</time>
      </trkpt>
      <trkpt lat="46.35296" lon="5.74392">
        <ele>343.885403</ele>
        <time>2021-04-30T10:36:40.024Z</time>
      </trkpt>
      <trkpt lat="46.35308" lon="5.74372">
        <ele>343.362937</ele>
        <time>2021-04-30T10:36:43.590Z</time>
      </trkpt>
      <trkpt lat="46.35317" lon="5.74356">
        <ele>342.95231</ele>
        <time>2021-04-30T10:36:46.486Z</time>
      </trkpt>
      <trkpt lat="46.35324" lon="5.74343">
        <ele>342.620137</ele>
        <time>2021-04-30T10:36:48.861Z</time>
      </trkpt>
      <trkpt lat="46.35341" lon="5.74313">
        <ele>341.859277</ele>
        <time>2021-04-30T10:36:54.213Z</time>
      </trkpt>
      <trkpt lat="46.3535" lon="5.74297">
        <ele>341.437017</ele>
        <time>2021-04-30T10:36:57.268Z</time>
      </trkpt>
      <trkpt lat="46.35366" lon="5.74269">
        <ele>340.911353</ele>
        <time>2021-04-30T10:37:02.448Z</time>
      </trkpt>
      <trkpt lat="46.35372" lon="5.74259">
        <ele>340.808653</ele>
        <time>2021-04-30T10:37:04.385Z</time>
      </trkpt>
      <trkpt lat="46.35377" lon="5.7425">
        <ele>340.720171</ele>
        <time>2021-04-30T10:37:05.978Z</time>
      </trkpt>
      <trkpt lat="46.35393" lon="5.74222">
        <ele>340.437494</ele>
        <time>2021-04-30T10:37:11.713Z</time>
      </trkpt>
      <trkpt lat="46.35397" lon="5.74214">
        <ele>340.356889</ele>
        <time>2021-04-30T10:37:13.374Z</time>
      </trkpt>
      <trkpt lat="46.3542" lon="5.74173">
        <ele>339.935733</ele>
        <time>2021-04-30T10:37:22.402Z</time>
      </trkpt>
      <trkpt lat="46.35437" lon="5.74145">
        <ele>339.642138</ele>
        <time>2021-04-30T10:37:28.433Z</time>
      </trkpt>
      <trkpt lat="46.35471" lon="5.74084">
        <ele>339.027034</ele>
        <time>2021-04-30T10:37:40.633Z</time>
      </trkpt>
      <trkpt lat="46.35484" lon="5.74061">
        <ele>338.999655</ele>
        <time>2021-04-30T10:37:45.737Z</time>
      </trkpt>
      <trkpt lat="46.35497" lon="5.74038">
        <ele>339.012534</ele>
        <time>2021-04-30T10:37:50.946Z</time>
      </trkpt>
      <trkpt lat="46.35509" lon="5.74014">
        <ele>339.025487</ele>
        <time>2021-04-30T10:37:56.309Z</time>
      </trkpt>
      <trkpt lat="46.35513" lon="5.74008">
        <ele>339.029255</ele>
        <time>2021-04-30T10:37:57.849Z</time>
      </trkpt>
      <trkpt lat="46.3555" lon="5.73945">
        <ele>339.065367</ele>
        <time>2021-04-30T10:38:13.463Z</time>
      </trkpt>
      <trkpt lat="46.35567" lon="5.73915">
        <ele>339.082227</ele>
        <time>2021-04-30T10:38:21.164Z</time>
      </trkpt>
      <trkpt lat="46.35613" lon="5.73829">
        <ele>339.325319</ele>
        <time>2021-04-30T10:38:43.962Z</time>
      </trkpt>
      <trkpt lat="46.35618" lon="5.73821">
        <ele>339.362262</ele>
        <time>2021-04-30T10:38:46.163Z</time>
      </trkpt>
      <trkpt lat="46.35619" lon="5.7382">
        <ele>339.370231</ele>
        <time>2021-04-30T10:38:46.789Z</time>
      </trkpt>
      <trkpt lat="46.35639" lon="5.73787">
        <ele>339.52644</ele>
        <time>2021-04-30T10:38:55.891Z</time>
      </trkpt>
      <trkpt lat="46.3567" lon="5.73738">
        <ele>339.761761</ele>
        <time>2021-04-30T10:39:09.404Z</time>
      </trkpt>
      <trkpt lat="46.35689" lon="5.73707">
        <ele>339.909945</ele>
        <time>2021-04-30T10:39:17.290Z</time>
      </trkpt>
      <trkpt lat="46.35704" lon="5.73681">
        <ele>340.032449</ele>
        <time>2021-04-30T10:39:23.780Z</time>
      </trkpt>
      <trkpt lat="46.35721" lon="5.73653">
        <ele>340.137232</ele>
        <time>2021-04-30T10:39:30.910Z</time>
      </trkpt>
      <trkpt lat="46.3574" lon="5.73618">
        <ele>340.260402</ele>
        <time>2021-04-30T10:39:38.965Z</time>
      </trkpt>
      <trkpt lat="46.35748" lon="5.73604">
        <ele>340.31121</ele>
        <time>2021-04-30T10:39:42.344Z</time>
      </trkpt>
      <trkpt lat="46.35754" lon="5.73592">
        <ele>340.353885</ele>
        <time>2021-04-30T10:39:45.109Z</time>
      </trkpt>
      <trkpt lat="46.35767" lon="5.7357">
        <ele>340.433285</ele>
        <time>2021-04-30T10:39:50.862Z</time>
      </trkpt>
      <trkpt lat="46.3579" lon="5.73531">
        <ele>340.575889</ele>
        <time>2021-04-30T10:40:00.824Z</time>
      </trkpt>
      <trkpt lat="46.35796" lon="5.73521">
        <ele>340.614571</ele>
        <time>2021-04-30T10:40:03.674Z</time>
      </trkpt>
      <trkpt lat="46.35822" lon="5.73478">
        <ele>340.793211</ele>
        <time>2021-04-30T10:40:15.532Z</time>
      </trkpt>
      <trkpt lat="46.35837" lon="5.73453">
        <ele>341.045698</ele>
        <time>2021-04-30T10:40:23.096Z</time>
      </trkpt>
      <trkpt lat="46.35843" lon="5.73445">
        <ele>341.132559</ele>
        <time>2021-04-30T10:40:25.558Z</time>
      </trkpt>
      <trkpt lat="46.35849" lon="5.73437">
        <ele>341.218906</ele>
        <time>2021-04-30T10:40:27.959Z</time>
      </trkpt>
      <trkpt lat="46.35863" lon="5.73426">
        <ele>341.395588</ele>
        <time>2021-04-30T10:40:33.094Z</time>
      </trkpt>
      <trkpt lat="46.35862" lon="5.73421">
        <ele>341.435587</ele>
        <time>2021-04-30T10:40:34.705Z</time>
      </trkpt>
      <trkpt lat="46.35862" lon="5.73412">
        <ele>341.504468</ele>
        <time>2021-04-30T10:40:36.833Z</time>
      </trkpt>
      <trkpt lat="46.35876" lon="5.73388">
        <ele>341.743817</ele>
        <time>2021-04-30T10:40:44.281Z</time>
      </trkpt>
      <trkpt lat="46.35888" lon="5.73366">
        <ele>341.954917</ele>
        <time>2021-04-30T10:40:51.170Z</time>
      </trkpt>
      <trkpt lat="46.35897" lon="5.7335">
        <ele>342.104384</ele>
        <time>2021-04-30T10:40:56.027Z</time>
      </trkpt>
      <trkpt lat="46.3596" lon="5.73312">
        <ele>342.695183</ele>
        <time>2021-04-30T10:41:19.875Z</time>
      </trkpt>
      <trkpt lat="46.361" lon="5.73075">
        <ele>341.544012</ele>
        <time>2021-04-30T10:42:16.015Z</time>
      </trkpt>
      <trkpt lat="46.36169" lon="5.73008">
        <ele>339.929125</ele>
        <time>2021-04-30T10:42:33.839Z</time>
      </trkpt>
      <trkpt lat="46.36206" lon="5.72984">
        <ele>339.141403</ele>
        <time>2021-04-30T10:42:42.472Z</time>
      </trkpt>
      <trkpt lat="46.36218" lon="5.72987">
        <ele>338.894552</ele>
        <time>2021-04-30T10:42:45.130Z</time>
      </trkpt>
      <trkpt lat="46.36222" lon="5.72991">
        <ele>338.777148</ele>
        <time>2021-04-30T10:42:46.133Z</time>
      </trkpt>
      <trkpt lat="46.36251" lon="5.72974">
        <ele>338.100534</ele>
        <time>2021-04-30T10:42:52.454Z</time>
      </trkpt>
      <trkpt lat="46.36308" lon="5.72951">
        <ele>336.811251</ele>
        <time>2021-04-30T10:43:04.216Z</time>
      </trkpt>
      <trkpt lat="46.36351" lon="5.72943">
        <ele>335.882875</ele>
        <time>2021-04-30T10:43:13.130Z</time>
      </trkpt>
      <trkpt lat="46.36373" lon="5.72941">
        <ele>335.393075</ele>
        <time>2021-04-30T10:43:17.823Z</time>
      </trkpt>
      <trkpt lat="46.36398" lon="5.72941">
        <ele>335.153077</ele>
        <time>2021-04-30T10:43:23.647Z</time>
      </trkpt>
      <trkpt lat="46.36435" lon="5.72941">
        <ele>335.542324</ele>
        <time>2021-04-30T10:43:33.655Z</time>
      </trkpt>
      <trkpt lat="46.36495" lon="5.72933">
        <ele>336.176869</ele>
        <time>2021-04-30T10:43:52.129Z</time>
      </trkpt>
      <trkpt lat="46.36544" lon="5.7291">
        <ele>336.715612</ele>
        <time>2021-04-30T10:44:11.511Z</time>
      </trkpt>
      <trkpt lat="46.36581" lon="5.72878">
        <ele>337.275073</ele>
        <time>2021-04-30T10:44:29.290Z</time>
      </trkpt>
      <trkpt lat="46.36633" lon="5.72814">
        <ele>338.352306</ele>
        <time>2021-04-30T10:44:55.601Z</time>
      </trkpt>
      <trkpt lat="46.36642" lon="5.728">
        <ele>338.562437</ele>
        <time>2021-04-30T10:45:01.541Z</time>
      </trkpt>
      <trkpt lat="46.36652" lon="5.72784">
        <ele>338.796651</ele>
        <time>2021-04-30T10:45:05.925Z</time>
      </trkpt>
      <trkpt lat="46.36683" lon="5.72724">
        <ele>339.613499</ele>
        <time>2021-04-30T10:45:22.339Z</time>
      </trkpt>
      <trkpt lat="46.36709" lon="5.72643">
        <ele>338.628416</ele>
        <time>2021-04-30T10:45:36.383Z</time>
      </trkpt>
      <trkpt lat="46.3672" lon="5.7256">
        <ele>337.331925</ele>
        <time>2021-04-30T10:45:48.115Z</time>
      </trkpt>
      <trkpt lat="46.36716" lon="5.72468">
        <ele>335.901131</ele>
        <time>2021-04-30T10:46:00.558Z</time>
      </trkpt>
      <trkpt lat="46.36714" lon="5.72444">
        <ele>335.544551</ele>
        <time>2021-04-30T10:46:03.630Z</time>
      </trkpt>
      <trkpt lat="46.36696" lon="5.7227">
        <ele>333.024034</ele>
        <time>2021-04-30T10:46:28.664Z</time>
      </trkpt>
      <trkpt lat="46.3668" lon="5.72222">
        <ele>332.253341</ele>
        <time>2021-04-30T10:46:36.933Z</time>
      </trkpt>
      <trkpt lat="46.36662" lon="5.72174">
        <ele>332.292393</ele>
        <time>2021-04-30T10:46:47.360Z</time>
      </trkpt>
      <trkpt lat="46.36617" lon="5.72053">
        <ele>333.289491</ele>
        <time>2021-04-30T10:47:16.924Z</time>
      </trkpt>
      <trkpt lat="46.36558" lon="5.71896">
        <ele>336.316459</ele>
        <time>2021-04-30T10:48:07.671Z</time>
      </trkpt>
      <trkpt lat="46.36485" lon="5.71786">
        <ele>340.256605</ele>
        <time>2021-04-30T10:48:59.549Z</time>
      </trkpt>
      <trkpt lat="46.3648" lon="5.71774">
        <ele>340.613898</ele>
        <time>2021-04-30T10:49:06.760Z</time>
      </trkpt>
      <trkpt lat="46.36474" lon="5.71758">
        <ele>340.617772</ele>
        <time>2021-04-30T10:49:11.577Z</time>
      </trkpt>
      <trkpt lat="46.36468" lon="5.71729">
        <ele>340.617456</ele>
        <time>2021-04-30T10:49:21.560Z</time>
      </trkpt>
      <trkpt lat="46.36453" lon="5.71631">
        <ele>340.616367</ele>
        <time>2021-04-30T10:49:46.399Z</time>
      </trkpt>
      <trkpt lat="46.36447" lon="5.71593">
        <ele>340.61594</ele>
        <time>2021-04-30T10:49:52.720Z</time>
      </trkpt>
      <trkpt lat="46.36439" lon="5.71538">
        <ele>340.615326</ele>
        <time>2021-04-30T10:50:00.813Z</time>
      </trkpt>
      <trkpt lat="46.36438" lon="5.71498">
        <ele>339.670198</ele>
        <time>2021-04-30T10:50:05.852Z</time>
      </trkpt>
      <trkpt lat="46.36446" lon="5.7148">
        <ele>338.76049</ele>
        <time>2021-04-30T10:50:08.597Z</time>
      </trkpt>
      <trkpt lat="46.36458" lon="5.71508">
        <ele>337.379361</ele>
        <time>2021-04-30T10:50:12.616Z</time>
      </trkpt>
      <trkpt lat="46.36464" lon="5.71486">
        <ele>336.416842</ele>
        <time>2021-04-30T10:50:15.403Z</time>
      </trkpt>
      <trkpt lat="46.3647" lon="5.71469">
        <ele>335.613713</ele>
        <time>2021-04-30T10:50:17.781Z</time>
      </trkpt>
      <trkpt lat="46.3648" lon="5.71449">
        <ele>334.598145</ele>
        <time>2021-04-30T10:50:20.693Z</time>
      </trkpt>
      <trkpt lat="46.36523" lon="5.71377">
        <ele>330.656976</ele>
        <time>2021-04-30T10:50:32.023Z</time>
      </trkpt>
      <trkpt lat="46.36557" lon="5.7132">
        <ele>328.901056</ele>
        <time>2021-04-30T10:50:41.233Z</time>
      </trkpt>
      <trkpt lat="46.36616" lon="5.71218">
        <ele>326.687119</ele>
        <time>2021-04-30T10:50:59.775Z</time>
      </trkpt>
      <trkpt lat="46.36621" lon="5.71209">
        <ele>326.498366</ele>
        <time>2021-04-30T10:51:01.901Z</time>
      </trkpt>
      <trkpt lat="46.3665" lon="5.71161">
        <ele>325.52269</ele>
        <time>2021-04-30T10:51:15.389Z</time>
      </trkpt>
      <trkpt lat="46.36656" lon="5.7115">
        <ele>325.758042</ele>
        <time>2021-04-30T10:51:19.301Z</time>
      </trkpt>
      <trkpt lat="46.36696" lon="5.71081">
        <ele>327.155341</ele>
        <time>2021-04-30T10:51:41.477Z</time>
      </trkpt>
      <trkpt lat="46.36709" lon="5.71057">
        <ele>327.623749</ele>
        <time>2021-04-30T10:51:49.622Z</time>
      </trkpt>
      <trkpt lat="46.36717" lon="5.71038">
        <ele>327.965424</ele>
        <time>2021-04-30T10:51:55.177Z</time>
      </trkpt>
      <trkpt lat="46.3672" lon="5.71024">
        <ele>328.205157</ele>
        <time>2021-04-30T10:51:59.518Z</time>
      </trkpt>
      <trkpt lat="46.36723" lon="5.70976">
        <ele>328.953443</ele>
        <time>2021-04-30T10:52:13.104Z</time>
      </trkpt>
      <trkpt lat="46.36726" lon="5.70948">
        <ele>329.388068</ele>
        <time>2021-04-30T10:52:21.617Z</time>
      </trkpt>
      <trkpt lat="46.36729" lon="5.70901">
        <ele>330.42031</ele>
        <time>2021-04-30T10:52:34.963Z</time>
      </trkpt>
      <trkpt lat="46.36729" lon="5.70851">
        <ele>331.599786</ele>
        <time>2021-04-30T10:52:50.106Z</time>
      </trkpt>
      <trkpt lat="46.36727" lon="5.70844">
        <ele>331.780427</ele>
        <time>2021-04-30T10:52:52.644Z</time>
      </trkpt>
      <trkpt lat="46.36729" lon="5.70833">
        <ele>332.051691</ele>
        <time>2021-04-30T10:52:55.538Z</time>
      </trkpt>
      <trkpt lat="46.36737" lon="5.7081">
        <ele>332.648352</ele>
        <time>2021-04-30T10:53:03.193Z</time>
      </trkpt>
      <trkpt lat="46.36742" lon="5.70796">
        <ele>333.015</ele>
        <time>2021-04-30T10:53:08.286Z</time>
      </trkpt>
      <trkpt lat="46.36775" lon="5.70754">
        <ele>334.527196</ele>
        <time>2021-04-30T10:53:27.114Z</time>
      </trkpt>
      <trkpt lat="46.36793" lon="5.70705">
        <ele>335.900276</ele>
        <time>2021-04-30T10:53:44.323Z</time>
      </trkpt>
      <trkpt lat="46.36795" lon="5.70682">
        <ele>336.636593</ele>
        <time>2021-04-30T10:53:51.762Z</time>
      </trkpt>
      <trkpt lat="46.36794" lon="5.70643">
        <ele>337.905306</ele>
        <time>2021-04-30T10:54:05.124Z</time>
      </trkpt>
      <trkpt lat="46.36793" lon="5.7062">
        <ele>338.668829</ele>
        <time>2021-04-30T10:54:13.361Z</time>
      </trkpt>
      <trkpt lat="46.36796" lon="5.7061">
        <ele>339.007519</ele>
        <time>2021-04-30T10:54:16.707Z</time>
      </trkpt>
      <trkpt lat="46.36799" lon="5.70601">
        <ele>339.341111</ele>
        <time>2021-04-30T10:54:20.307Z</time>
      </trkpt>
      <trkpt lat="46.36809" lon="5.70586">
        <ele>339.991665</ele>
        <time>2021-04-30T10:54:27.217Z</time>
      </trkpt>
      <trkpt lat="46.36826" lon="5.70559">
        <ele>341.176493</ele>
        <time>2021-04-30T10:54:39.521Z</time>
      </trkpt>
      <trkpt lat="46.3687" lon="5.70482">
        <ele>344.504376</ele>
        <time>2021-04-30T10:55:17.212Z</time>
      </trkpt>
      <trkpt lat="46.36909" lon="5.70413">
        <ele>347.893801</ele>
        <time>2021-04-30T10:55:51.587Z</time>
      </trkpt>
      <trkpt lat="46.36912" lon="5.70407">
        <ele>348.157614</ele>
        <time>2021-04-30T10:55:54.199Z</time>
      </trkpt>
      <trkpt lat="46.36916" lon="5.70396">
        <ele>348.670903</ele>
        <time>2021-04-30T10:56:00.709Z</time>
      </trkpt>
      <trkpt lat="46.36923" lon="5.70387">
        <ele>349.154764</ele>
        <time>2021-04-30T10:56:06.828Z</time>
      </trkpt>
      <trkpt lat="46.36929" lon="5.70387">
        <ele>349.50317</ele>
        <time>2021-04-30T10:56:11.156Z</time>
      </trkpt>
      <trkpt lat="46.36967" lon="5.70394">
        <ele>351.61958</ele>
        <time>2021-04-30T10:56:31.481Z</time>
      </trkpt>
      <trkpt lat="46.36989" lon="5.70404">
        <ele>352.87704</ele>
        <time>2021-04-30T10:56:42.540Z</time>
      </trkpt>
      <trkpt lat="46.37083" lon="5.70476">
        <ele>358.745921</ele>
        <time>2021-04-30T10:57:37.776Z</time>
      </trkpt>
      <trkpt lat="46.37141" lon="5.70503">
        <ele>362.045686</ele>
        <time>2021-04-30T10:58:09.896Z</time>
      </trkpt>
      <trkpt lat="46.37175" lon="5.70532">
        <ele>364.309355</ele>
        <time>2021-04-30T10:58:31.537Z</time>
      </trkpt>
      <trkpt lat="46.37189" lon="5.7055">
        <ele>365.565815</ele>
        <time>2021-04-30T10:58:42.046Z</time>
      </trkpt>
      <trkpt lat="46.37216" lon="5.70588">
        <ele>368.143788</ele>
        <time>2021-04-30T10:59:03.365Z</time>
      </trkpt>
      <trkpt lat="46.37301" lon="5.70674">
        <ele>375.258083</ele>
        <time>2021-04-30T11:00:06.683Z</time>
      </trkpt>
      <trkpt lat="46.37397" lon="5.70746">
        <ele>384.485352</ele>
        <time>2021-04-30T11:01:16.531Z</time>
      </trkpt>
      <trkpt lat="46.3748" lon="5.7084">
        <ele>393.936302</ele>
        <time>2021-04-30T11:02:34.336Z</time>
      </trkpt>
      <trkpt lat="46.37507" lon="5.70854">
        <ele>396.677341</ele>
        <time>2021-04-30T11:02:57.020Z</time>
      </trkpt>
      <trkpt lat="46.37552" lon="5.70857">
        <ele>401.061066</ele>
        <time>2021-04-30T11:03:30.957Z</time>
      </trkpt>
      <trkpt lat="46.37556" lon="5.70857">
        <ele>401.361341</ele>
        <time>2021-04-30T11:03:35.166Z</time>
      </trkpt>
      <trkpt lat="46.37592" lon="5.70856">
        <ele>404.867547</ele>
        <time>2021-04-30T11:04:02.041Z</time>
      </trkpt>
      <trkpt lat="46.3766" lon="5.70854">
        <ele>410.8289</ele>
        <time>2021-04-30T11:04:44.879Z</time>
      </trkpt>
      <trkpt lat="46.37687" lon="5.70857">
        <ele>412.530269</ele>
        <time>2021-04-30T11:05:01.509Z</time>
      </trkpt>
      <trkpt lat="46.37715" lon="5.70862">
        <ele>414.395839</ele>
        <time>2021-04-30T11:05:21.647Z</time>
      </trkpt>
      <trkpt lat="46.37729" lon="5.70868">
        <ele>415.33123</ele>
        <time>2021-04-30T11:05:29.411Z</time>
      </trkpt>
      <trkpt lat="46.3778" lon="5.70895">
        <ele>418.831666</ele>
        <time>2021-04-30T11:05:58.028Z</time>
      </trkpt>
      <trkpt lat="46.37823" lon="5.70925">
        <ele>421.890806</ele>
        <time>2021-04-30T11:06:20.897Z</time>
      </trkpt>
      <trkpt lat="46.37855" lon="5.70932">
        <ele>423.821384</ele>
        <time>2021-04-30T11:06:39.332Z</time>
      </trkpt>
      <trkpt lat="46.37886" lon="5.70948">
        <ele>425.837306</ele>
        <time>2021-04-30T11:06:56.810Z</time>
      </trkpt>
      <trkpt lat="46.37951" lon="5.71023">
        <ele>430.896328</ele>
        <time>2021-04-30T11:07:45.610Z</time>
      </trkpt>
      <trkpt lat="46.37959" lon="5.7104">
        <ele>431.733305</ele>
        <time>2021-04-30T11:07:54.934Z</time>
      </trkpt>
      <trkpt lat="46.37971" lon="5.71048">
        <ele>432.62494</ele>
        <time>2021-04-30T11:08:03.934Z</time>
      </trkpt>
      <trkpt lat="46.3801" lon="5.71071">
        <ele>435.463074</ele>
        <time>2021-04-30T11:08:28.000Z</time>
      </trkpt>
      <trkpt lat="46.38058" lon="5.7109">
        <ele>438.838902</ele>
        <time>2021-04-30T11:08:58.038Z</time>
      </trkpt>
      <trkpt lat="46.38196" lon="5.71114">
        <ele>448.280553</ele>
        <time>2021-04-30T11:10:19.576Z</time>
      </trkpt>
      <trkpt lat="46.38226" lon="5.71126">
        <ele>450.401343</ele>
        <time>2021-04-30T11:10:37.270Z</time>
      </trkpt>
      <trkpt lat="46.38339" lon="5.71191">
        <ele>459.258784</ele>
        <time>2021-04-30T11:11:49.472Z</time>
      </trkpt>
      <trkpt lat="46.38361" lon="5.71209">
        <ele>461.497478</ele>
        <time>2021-04-30T11:12:05.371Z</time>
      </trkpt>
      <trkpt lat="46.38409" lon="5.71286">
        <ele>467.85153</ele>
        <time>2021-04-30T11:12:57.033Z</time>
      </trkpt>
      <trkpt lat="46.3843" lon="5.7131">
        <ele>470.176007</ele>
        <time>2021-04-30T11:13:18.827Z</time>
      </trkpt>
      <trkpt lat="46.3851" lon="5.71361">
        <ele>477.771829</ele>
        <time>2021-04-30T11:14:22.157Z</time>
      </trkpt>
      <trkpt lat="46.38521" lon="5.71369">
        <ele>478.777314</ele>
        <time>2021-04-30T11:14:33.302Z</time>
      </trkpt>
      <trkpt lat="46.38545" lon="5.7139">
        <ele>481.195496</ele>
        <time>2021-04-30T11:14:50.187Z</time>
      </trkpt>
      <trkpt lat="46.38651" lon="5.71541">
        <ele>493.1596</ele>
        <time>2021-04-30T11:16:22.964Z</time>
      </trkpt>
      <trkpt lat="46.38665" lon="5.71554">
        <ele>494.394655</ele>
        <time>2021-04-30T11:16:30.810Z</time>
      </trkpt>
      <trkpt lat="46.38662" lon="5.71539">
        <ele>495.190426</ele>
        <time>2021-04-30T11:16:37.944Z</time>
      </trkpt>
      <trkpt lat="46.38628" lon="5.71479">
        <ele>499.211416</ele>
        <time>2021-04-30T11:17:10.792Z</time>
      </trkpt>
      <trkpt lat="46.38612" lon="5.7142">
        <ele>502.962759</ele>
        <time>2021-04-30T11:17:41.077Z</time>
      </trkpt>
      <trkpt lat="46.38608" lon="5.71361">
        <ele>507.260726</ele>
        <time>2021-04-30T11:18:13.732Z</time>
      </trkpt>
      <trkpt lat="46.38617" lon="5.71304">
        <ele>511.425423</ele>
        <time>2021-04-30T11:18:46.248Z</time>
      </trkpt>
      <trkpt lat="46.38617" lon="5.71246">
        <ele>515.538664</ele>
        <time>2021-04-30T11:19:19.032Z</time>
      </trkpt>
      <trkpt lat="46.38637" lon="5.71209">
        <ele>518.891241</ele>
        <time>2021-04-30T11:19:45.678Z</time>
      </trkpt>
      <trkpt lat="46.38659" lon="5.71144">
        <ele>523.215699</ele>
        <time>2021-04-30T11:20:24.157Z</time>
      </trkpt>
      <trkpt lat="46.38661" lon="5.71097">
        <ele>525.935716</ele>
        <time>2021-04-30T11:20:47.042Z</time>
      </trkpt>
      <trkpt lat="46.38669" lon="5.7108">
        <ele>527.096894</ele>
        <time>2021-04-30T11:20:56.204Z</time>
      </trkpt>
      <trkpt lat="46.3869" lon="5.71058">
        <ele>529.287006</ele>
        <time>2021-04-30T11:21:13.332Z</time>
      </trkpt>
      <trkpt lat="46.38716" lon="5.71047">
        <ele>531.510082</ele>
        <time>2021-04-30T11:21:29.986Z</time>
      </trkpt>
      <trkpt lat="46.38719" lon="5.71035">
        <ele>532.267049</ele>
        <time>2021-04-30T11:21:35.571Z</time>
      </trkpt>
      <trkpt lat="46.38716" lon="5.71021">
        <ele>533.136827</ele>
        <time>2021-04-30T11:21:41.772Z</time>
      </trkpt>
      <trkpt lat="46.38672" lon="5.70946">
        <ele>538.243724</ele>
        <time>2021-04-30T11:22:22.074Z</time>
      </trkpt>
      <trkpt lat="46.38617" lon="5.70832">
        <ele>545.127097</ele>
        <time>2021-04-30T11:23:19.923Z</time>
      </trkpt>
      <trkpt lat="46.38593" lon="5.70746">
        <ele>550.928894</ele>
        <time>2021-04-30T11:24:03.327Z</time>
      </trkpt>
      <trkpt lat="46.38587" lon="5.70689">
        <ele>555.490093</ele>
        <time>2021-04-30T11:24:31.472Z</time>
      </trkpt>
      <trkpt lat="46.38597" lon="5.70552">
        <ele>566.416762</ele>
        <time>2021-04-30T11:25:57.302Z</time>
      </trkpt>
      <trkpt lat="46.38609" lon="5.70454">
        <ele>575.379703</ele>
        <time>2021-04-30T11:27:02.702Z</time>
      </trkpt>
      <trkpt lat="46.38608" lon="5.70446">
        <ele>576.09432</ele>
        <time>2021-04-30T11:27:09.356Z</time>
      </trkpt>
      <trkpt lat="46.38607" lon="5.70436">
        <ele>577.083093</ele>
        <time>2021-04-30T11:27:19.293Z</time>
      </trkpt>
      <trkpt lat="46.38557" lon="5.70312">
        <ele>590.508342</ele>
        <time>2021-04-30T11:28:50.340Z</time>
      </trkpt>
      <trkpt lat="46.38512" lon="5.70234">
        <ele>596.088813</ele>
        <time>2021-04-30T11:29:50.576Z</time>
      </trkpt>
      <trkpt lat="46.38477" lon="5.70147">
        <ele>600.470724</ele>
        <time>2021-04-30T11:30:28.889Z</time>
      </trkpt>
      <trkpt lat="46.38449" lon="5.70063">
        <ele>603.863268</ele>
        <time>2021-04-30T11:30:52.858Z</time>
      </trkpt>
      <trkpt lat="46.38434" lon="5.70043">
        <ele>603.479092</ele>
        <time>2021-04-30T11:30:58.479Z</time>
      </trkpt>
      <trkpt lat="46.38408" lon="5.70032">
        <ele>602.96697</ele>
        <time>2021-04-30T11:31:05.142Z</time>
      </trkpt>
      <trkpt lat="46.3839" lon="5.70015">
        <ele>602.572809</ele>
        <time>2021-04-30T11:31:09.811Z</time>
      </trkpt>
      <trkpt lat="46.38333" lon="5.6991">
        <ele>600.858634</ele>
        <time>2021-04-30T11:31:28.498Z</time>
      </trkpt>
      <trkpt lat="46.3828" lon="5.69765">
        <ele>598.610793</ele>
        <time>2021-04-30T11:31:52.047Z</time>
      </trkpt>
      <trkpt lat="46.38254" lon="5.69591">
        <ele>597.738206</ele>
        <time>2021-04-30T11:32:22.838Z</time>
      </trkpt>
      <trkpt lat="46.38213" lon="5.6951">
        <ele>598.763906</ele>
        <time>2021-04-30T11:32:47.443Z</time>
      </trkpt>
      <trkpt lat="46.38201" lon="5.69483">
        <ele>599.088473</ele>
        <time>2021-04-30T11:32:55.195Z</time>
      </trkpt>
      <trkpt lat="46.38193" lon="5.69491">
        <ele>599.230903</ele>
        <time>2021-04-30T11:32:59.966Z</time>
      </trkpt>
      <trkpt lat="46.38169" lon="5.695">
        <ele>599.600944</ele>
        <time>2021-04-30T11:33:09.412Z</time>
      </trkpt>
      <trkpt lat="46.38094" lon="5.695">
        <ele>602.291924</ele>
        <time>2021-04-30T11:33:43.582Z</time>
      </trkpt>
      <trkpt lat="46.38079" lon="5.69505">
        <ele>602.879996</ele>
        <time>2021-04-30T11:33:51.549Z</time>
      </trkpt>
      <trkpt lat="46.38055" lon="5.69523">
        <ele>603.917417</ele>
        <time>2021-04-30T11:34:04.602Z</time>
      </trkpt>
      <trkpt lat="46.38017" lon="5.69596">
        <ele>606.353199</ele>
        <time>2021-04-30T11:34:34.071Z</time>
      </trkpt>
      <trkpt lat="46.37971" lon="5.69635">
        <ele>606.926105</ele>
        <time>2021-04-30T11:34:56.290Z</time>
      </trkpt>
      <trkpt lat="46.37955" lon="5.69645">
        <ele>607.014087</ele>
        <time>2021-04-30T11:35:03.168Z</time>
      </trkpt>
      <trkpt lat="46.37861" lon="5.69667">
        <ele>607.491175</ele>
        <time>2021-04-30T11:35:27.326Z</time>
      </trkpt>
      <trkpt lat="46.37848" lon="5.69664">
        <ele>607.557454</ele>
        <time>2021-04-30T11:35:30.206Z</time>
      </trkpt>
      <trkpt lat="46.37826" lon="5.6965">
        <ele>607.230157</ele>
        <time>2021-04-30T11:35:34.916Z</time>
      </trkpt>
      <trkpt lat="46.37762" lon="5.69626">
        <ele>605.517963</ele>
        <time>2021-04-30T11:35:47.906Z</time>
      </trkpt>
      <trkpt lat="46.3774" lon="5.69616">
        <ele>604.91933</ele>
        <time>2021-04-30T11:35:52.377Z</time>
      </trkpt>
      <trkpt lat="46.37717" lon="5.69601">
        <ele>604.276753</ele>
        <time>2021-04-30T11:35:57.220Z</time>
      </trkpt>
      <trkpt lat="46.37691" lon="5.6958">
        <ele>603.498889</ele>
        <time>2021-04-30T11:36:03.030Z</time>
      </trkpt>
      <trkpt lat="46.37667" lon="5.69563">
        <ele>602.980346</ele>
        <time>2021-04-30T11:36:08.725Z</time>
      </trkpt>
      <trkpt lat="46.37637" lon="5.69527">
        <ele>603.287391</ele>
        <time>2021-04-30T11:36:17.572Z</time>
      </trkpt>
      <trkpt lat="46.37605" lon="5.6945">
        <ele>603.773931</ele>
        <time>2021-04-30T11:36:34.401Z</time>
      </trkpt>
      <trkpt lat="46.37585" lon="5.69358">
        <ele>604.295096</ele>
        <time>2021-04-30T11:37:04.168Z</time>
      </trkpt>
      <trkpt lat="46.37568" lon="5.69227">
        <ele>605.179318</ele>
        <time>2021-04-30T11:37:37.778Z</time>
      </trkpt>
      <trkpt lat="46.37564" lon="5.69209">
        <ele>605.301884</ele>
        <time>2021-04-30T11:37:41.167Z</time>
      </trkpt>
      <trkpt lat="46.3756" lon="5.6918">
        <ele>605.503394</ele>
        <time>2021-04-30T11:37:47.698Z</time>
      </trkpt>
      <trkpt lat="46.37556" lon="5.69152">
        <ele>605.694383</ele>
        <time>2021-04-30T11:37:52.794Z</time>
      </trkpt>
      <trkpt lat="46.3756" lon="5.6918">
        <ele>605.885373</ele>
        <time>2021-04-30T11:37:58.242Z</time>
      </trkpt>
      <trkpt lat="46.37564" lon="5.69209">
        <ele>606.086883</ele>
        <time>2021-04-30T11:38:03.044Z</time>
      </trkpt>
      <trkpt lat="46.37568" lon="5.69227">
        <ele>605.890171</ele>
        <time>2021-04-30T11:38:06.419Z</time>
      </trkpt>
      <trkpt lat="46.37585" lon="5.69358">
        <ele>604.144312</ele>
        <time>2021-04-30T11:38:25.970Z</time>
      </trkpt>
      <trkpt lat="46.37605" lon="5.6945">
        <ele>602.890331</ele>
        <time>2021-04-30T11:38:38.622Z</time>
      </trkpt>
      <trkpt lat="46.37637" lon="5.69527">
        <ele>603.367592</ele>
        <time>2021-04-30T11:38:54.926Z</time>
      </trkpt>
      <trkpt lat="46.37667" lon="5.69563">
        <ele>603.868454</ele>
        <time>2021-04-30T11:39:07.716Z</time>
      </trkpt>
      <trkpt lat="46.37691" lon="5.6958">
        <ele>604.210329</ele>
        <time>2021-04-30T11:39:17.191Z</time>
      </trkpt>
      <trkpt lat="46.37717" lon="5.69601">
        <ele>604.594533</ele>
        <time>2021-04-30T11:39:30.132Z</time>
      </trkpt>
      <trkpt lat="46.3774" lon="5.69616">
        <ele>604.911916</ele>
        <time>2021-04-30T11:39:40.586Z</time>
      </trkpt>
      <trkpt lat="46.37762" lon="5.69626">
        <ele>605.304634</ele>
        <time>2021-04-30T11:39:50.372Z</time>
      </trkpt>
      <trkpt lat="46.37826" lon="5.6965">
        <ele>606.558006</ele>
        <time>2021-04-30T11:40:17.780Z</time>
      </trkpt>
      <trkpt lat="46.37848" lon="5.69664">
        <ele>607.015314</ele>
        <time>2021-04-30T11:40:27.987Z</time>
      </trkpt>
      <trkpt lat="46.37861" lon="5.69667">
        <ele>607.265491</ele>
        <time>2021-04-30T11:40:32.497Z</time>
      </trkpt>
      <trkpt lat="46.37955" lon="5.69645">
        <ele>607.490035</ele>
        <time>2021-04-30T11:40:59.034Z</time>
      </trkpt>
      <trkpt lat="46.37971" lon="5.69635">
        <ele>607.009963</ele>
        <time>2021-04-30T11:41:02.562Z</time>
      </trkpt>
      <trkpt lat="46.38017" lon="5.69596">
        <ele>605.534774</ele>
        <time>2021-04-30T11:41:13.184Z</time>
      </trkpt>
      <trkpt lat="46.38055" lon="5.69523">
        <ele>603.808699</ele>
        <time>2021-04-30T11:41:24.945Z</time>
      </trkpt>
      <trkpt lat="46.38079" lon="5.69505">
        <ele>602.997589</ele>
        <time>2021-04-30T11:41:29.881Z</time>
      </trkpt>
      <trkpt lat="46.38094" lon="5.695">
        <ele>602.503822</ele>
        <time>2021-04-30T11:41:32.600Z</time>
      </trkpt>
      <trkpt lat="46.38169" lon="5.695">
        <ele>600.064393</ele>
        <time>2021-04-30T11:41:46.751Z</time>
      </trkpt>
      <trkpt lat="46.38193" lon="5.69491">
        <ele>599.251235</ele>
        <time>2021-04-30T11:41:51.923Z</time>
      </trkpt>
      <trkpt lat="46.38201" lon="5.69483">
        <ele>598.93825</ele>
        <time>2021-04-30T11:41:53.689Z</time>
      </trkpt>
      <trkpt lat="46.38213" lon="5.6951">
        <ele>598.225019</ele>
        <time>2021-04-30T11:41:58.728Z</time>
      </trkpt>
      <trkpt lat="46.38254" lon="5.69591">
        <ele>597.774698</ele>
        <time>2021-04-30T11:42:14.602Z</time>
      </trkpt>
      <trkpt lat="46.3828" lon="5.69765">
        <ele>598.11064</ele>
        <time>2021-04-30T11:42:52.857Z</time>
      </trkpt>
      <trkpt lat="46.38333" lon="5.6991">
        <ele>601.117817</ele>
        <time>2021-04-30T11:43:41.124Z</time>
      </trkpt>
      <trkpt lat="46.3839" lon="5.70015">
        <ele>602.930102</ele>
        <time>2021-04-30T11:44:21.940Z</time>
      </trkpt>
      <trkpt lat="46.38408" lon="5.70032">
        <ele>602.701384</ele>
        <time>2021-04-30T11:44:29.896Z</time>
      </trkpt>
      <trkpt lat="46.38434" lon="5.70043">
        <ele>602.404217</ele>
        <time>2021-04-30T11:44:38.851Z</time>
      </trkpt>
      <trkpt lat="46.38449" lon="5.70063">
        <ele>602.181294</ele>
        <time>2021-04-30T11:44:44.704Z</time>
      </trkpt>
      <trkpt lat="46.38477" lon="5.70147">
        <ele>601.490386</ele>
        <time>2021-04-30T11:44:58.878Z</time>
      </trkpt>
      <trkpt lat="46.38512" lon="5.70234">
        <ele>596.607822</ele>
        <time>2021-04-30T11:45:11.971Z</time>
      </trkpt>
      <trkpt lat="46.38557" lon="5.70312">
        <ele>589.09863</ele>
        <time>2021-04-30T11:45:23.656Z</time>
      </trkpt>
      <trkpt lat="46.38607" lon="5.70436">
        <ele>577.567864</ele>
        <time>2021-04-30T11:45:40.042Z</time>
      </trkpt>
      <trkpt lat="46.38608" lon="5.70446">
        <ele>576.578284</ele>
        <time>2021-04-30T11:45:41.200Z</time>
      </trkpt>
      <trkpt lat="46.38609" lon="5.70454">
        <ele>575.863083</ele>
        <time>2021-04-30T11:45:42.051Z</time>
      </trkpt>
      <trkpt lat="46.38597" lon="5.70552">
        <ele>566.539392</ele>
        <time>2021-04-30T11:45:53.369Z</time>
      </trkpt>
      <trkpt lat="46.38587" lon="5.70689">
        <ele>554.920242</ele>
        <time>2021-04-30T11:46:09.213Z</time>
      </trkpt>
      <trkpt lat="46.38593" lon="5.70746">
        <ele>551.359888</ele>
        <time>2021-04-30T11:46:16.144Z</time>
      </trkpt>
      <trkpt lat="46.38617" lon="5.70832">
        <ele>545.619091</ele>
        <time>2021-04-30T11:46:27.430Z</time>
      </trkpt>
      <trkpt lat="46.38672" lon="5.70946">
        <ele>537.944241</ele>
        <time>2021-04-30T11:46:44.846Z</time>
      </trkpt>
      <trkpt lat="46.38716" lon="5.71021">
        <ele>533.14709</ele>
        <time>2021-04-30T11:46:57.183Z</time>
      </trkpt>
      <trkpt lat="46.38719" lon="5.71035">
        <ele>532.412312</ele>
        <time>2021-04-30T11:46:59.079Z</time>
      </trkpt>
      <trkpt lat="46.38716" lon="5.71047">
        <ele>531.772835</ele>
        <time>2021-04-30T11:47:00.711Z</time>
      </trkpt>
      <trkpt lat="46.3869" lon="5.71058">
        <ele>529.894806</ele>
        <time>2021-04-30T11:47:05.474Z</time>
      </trkpt>
      <trkpt lat="46.38669" lon="5.7108">
        <ele>527.800092</ele>
        <time>2021-04-30T11:47:10.100Z</time>
      </trkpt>
      <trkpt lat="46.38661" lon="5.71097">
        <ele>526.421297</ele>
        <time>2021-04-30T11:47:12.547Z</time>
      </trkpt>
      <trkpt lat="46.38659" lon="5.71144">
        <ele>523.19152</ele>
        <time>2021-04-30T11:47:18.225Z</time>
      </trkpt>
      <trkpt lat="46.38637" lon="5.71209">
        <ele>518.252594</ele>
        <time>2021-04-30T11:47:26.699Z</time>
      </trkpt>
      <trkpt lat="46.38617" lon="5.71246">
        <ele>515.032388</ele>
        <time>2021-04-30T11:47:32.162Z</time>
      </trkpt>
      <trkpt lat="46.38617" lon="5.71304">
        <ele>511.081552</ele>
        <time>2021-04-30T11:47:38.869Z</time>
      </trkpt>
      <trkpt lat="46.38608" lon="5.71361">
        <ele>507.412948</ele>
        <time>2021-04-30T11:47:45.676Z</time>
      </trkpt>
      <trkpt lat="46.38612" lon="5.7142">
        <ele>503.656616</ele>
        <time>2021-04-30T11:47:52.755Z</time>
      </trkpt>
      <trkpt lat="46.38628" lon="5.71479">
        <ele>499.73818</ele>
        <time>2021-04-30T11:48:00.316Z</time>
      </trkpt>
      <trkpt lat="46.38662" lon="5.71539">
        <ele>494.886235</ele>
        <time>2021-04-30T11:48:10.017Z</time>
      </trkpt>
      <trkpt lat="46.38665" lon="5.71554">
        <ele>494.024091</ele>
        <time>2021-04-30T11:48:11.878Z</time>
      </trkpt>
      <trkpt lat="46.38651" lon="5.71541">
        <ele>492.793528</ele>
        <time>2021-04-30T11:48:14.927Z</time>
      </trkpt>
      <trkpt lat="46.38545" lon="5.7139">
        <ele>481.669382</ele>
        <time>2021-04-30T11:48:40.328Z</time>
      </trkpt>
      <trkpt lat="46.38521" lon="5.71369">
        <ele>479.184903</ele>
        <time>2021-04-30T11:48:45.197Z</time>
      </trkpt>
      <trkpt lat="46.3851" lon="5.71361">
        <ele>478.087521</ele>
        <time>2021-04-30T11:48:47.042Z</time>
      </trkpt>
      <trkpt lat="46.3843" lon="5.7131">
        <ele>469.86872</ele>
        <time>2021-04-30T11:49:01.529Z</time>
      </trkpt>
      <trkpt lat="46.38409" lon="5.71286">
        <ele>467.411469</ele>
        <time>2021-04-30T11:49:05.732Z</time>
      </trkpt>
      <trkpt lat="46.38361" lon="5.71209">
        <ele>461.360269</ele>
        <time>2021-04-30T11:49:17.599Z</time>
      </trkpt>
      <trkpt lat="46.38339" lon="5.71191">
        <ele>459.436774</ele>
        <time>2021-04-30T11:49:21.905Z</time>
      </trkpt>
      <trkpt lat="46.38226" lon="5.71126">
        <ele>450.288688</ele>
        <time>2021-04-30T11:49:42.769Z</time>
      </trkpt>
      <trkpt lat="46.38196" lon="5.71114">
        <ele>448.197267</ele>
        <time>2021-04-30T11:49:48.275Z</time>
      </trkpt>
      <trkpt lat="46.38058" lon="5.7109">
        <ele>438.924094</ele>
        <time>2021-04-30T11:50:12.387Z</time>
      </trkpt>
      <trkpt lat="46.3801" lon="5.71071">
        <ele>435.583354</ele>
        <time>2021-04-30T11:50:20.908Z</time>
      </trkpt>
      <trkpt lat="46.37971" lon="5.71048">
        <ele>432.771703</ele>
        <time>2021-04-30T11:50:28.174Z</time>
      </trkpt>
      <trkpt lat="46.37959" lon="5.7104">
        <ele>431.857579</ele>
        <time>2021-04-30T11:50:30.431Z</time>
      </trkpt>
      <trkpt lat="46.37951" lon="5.71023">
        <ele>430.926521</ele>
        <time>2021-04-30T11:50:32.877Z</time>
      </trkpt>
      <trkpt lat="46.37886" lon="5.70948">
        <ele>425.488813</ele>
        <time>2021-04-30T11:50:48.150Z</time>
      </trkpt>
      <trkpt lat="46.37855" lon="5.70932">
        <ele>423.600226</ele>
        <time>2021-04-30T11:50:54.446Z</time>
      </trkpt>
      <trkpt lat="46.37823" lon="5.70925">
        <ele>421.791592</ele>
        <time>2021-04-30T11:51:00.296Z</time>
      </trkpt>
      <trkpt lat="46.3778" lon="5.70895">
        <ele>419.061959</ele>
        <time>2021-04-30T11:51:09.229Z</time>
      </trkpt>
      <trkpt lat="46.37729" lon="5.70868">
        <ele>415.866615</ele>
        <time>2021-04-30T11:51:18.905Z</time>
      </trkpt>
      <trkpt lat="46.37715" lon="5.70862">
        <ele>414.704829</ele>
        <time>2021-04-30T11:51:21.473Z</time>
      </trkpt>
      <trkpt lat="46.37687" lon="5.70857">
        <ele>412.387733</ele>
        <time>2021-04-30T11:51:26.235Z</time>
      </trkpt>
      <trkpt lat="46.3766" lon="5.70854">
        <ele>410.274577</ele>
        <time>2021-04-30T11:51:30.693Z</time>
      </trkpt>
      <trkpt lat="46.37592" lon="5.70856">
        <ele>404.758996</ele>
        <time>2021-04-30T11:51:42.369Z</time>
      </trkpt>
      <trkpt lat="46.37556" lon="5.70857">
        <ele>401.848444</ele>
        <time>2021-04-30T11:51:48.298Z</time>
      </trkpt>
      <trkpt lat="46.37552" lon="5.70857">
        <ele>401.545393</ele>
        <time>2021-04-30T11:51:48.766Z</time>
      </trkpt>
      <trkpt lat="46.37507" lon="5.70854">
        <ele>397.090443</ele>
        <time>2021-04-30T11:51:56.145Z</time>
      </trkpt>
      <trkpt lat="46.3748" lon="5.7084">
        <ele>394.304868</ele>
        <time>2021-04-30T11:52:00.703Z</time>
      </trkpt>
      <trkpt lat="46.37397" lon="5.70746">
        <ele>383.952537</ele>
        <time>2021-04-30T11:52:18.029Z</time>
      </trkpt>
      <trkpt lat="46.37301" lon="5.70674">
        <ele>375.534488</ele>
        <time>2021-04-30T11:52:36.336Z</time>
      </trkpt>
      <trkpt lat="46.37216" lon="5.70588">
        <ele>368.040135</ele>
        <time>2021-04-30T11:52:54.149Z</time>
      </trkpt>
      <trkpt lat="46.37189" lon="5.7055">
        <ele>365.736812</ele>
        <time>2021-04-30T11:53:00.731Z</time>
      </trkpt>
      <trkpt lat="46.37175" lon="5.70532">
        <ele>364.614211</ele>
        <time>2021-04-30T11:53:03.942Z</time>
      </trkpt>
      <trkpt lat="46.37141" lon="5.70503">
        <ele>362.16919</ele>
        <time>2021-04-30T11:53:11.019Z</time>
      </trkpt>
      <trkpt lat="46.37083" lon="5.70476">
        <ele>358.569851</ele>
        <time>2021-04-30T11:53:21.773Z</time>
      </trkpt>
      <trkpt lat="46.36989" lon="5.70404">
        <ele>352.859015</ele>
        <time>2021-04-30T11:53:41.032Z</time>
      </trkpt>
      <trkpt lat="46.36967" lon="5.70394">
        <ele>351.644328</ele>
        <time>2021-04-30T11:53:45.213Z</time>
      </trkpt>
      <trkpt lat="46.36929" lon="5.70387">
        <ele>349.599908</ele>
        <time>2021-04-30T11:53:52.038Z</time>
      </trkpt>
      <trkpt lat="46.36923" lon="5.70387">
        <ele>349.259611</ele>
        <time>2021-04-30T11:53:53.084Z</time>
      </trkpt>
      <trkpt lat="46.36916" lon="5.70396">
        <ele>348.786171</ele>
        <time>2021-04-30T11:53:55.960Z</time>
      </trkpt>
      <trkpt lat="46.36912" lon="5.70407">
        <ele>348.283937</ele>
        <time>2021-04-30T11:53:58.984Z</time>
      </trkpt>
      <trkpt lat="46.36909" lon="5.70413">
        <ele>348.025806</ele>
        <time>2021-04-30T11:53:59.892Z</time>
      </trkpt>
      <trkpt lat="46.3687" lon="5.70482">
        <ele>344.70938</ele>
        <time>2021-04-30T11:54:11.258Z</time>
      </trkpt>
      <trkpt lat="46.36826" lon="5.70559">
        <ele>340.940388</ele>
        <time>2021-04-30T11:54:24.338Z</time>
      </trkpt>
      <trkpt lat="46.36809" lon="5.70586">
        <ele>339.640829</ele>
        <time>2021-04-30T11:54:29.245Z</time>
      </trkpt>
      <trkpt lat="46.36799" lon="5.70601">
        <ele>339.090557</ele>
        <time>2021-04-30T11:54:31.925Z</time>
      </trkpt>
      <trkpt lat="46.36796" lon="5.7061">
        <ele>338.808387</ele>
        <time>2021-04-30T11:54:33.304Z</time>
      </trkpt>
      <trkpt lat="46.36793" lon="5.7062">
        <ele>338.521905</ele>
        <time>2021-04-30T11:54:34.719Z</time>
      </trkpt>
      <trkpt lat="46.36794" lon="5.70643">
        <ele>337.876077</ele>
        <time>2021-04-30T11:54:37.849Z</time>
      </trkpt>
      <trkpt lat="46.36795" lon="5.70682">
        <ele>336.802932</ele>
        <time>2021-04-30T11:54:43.103Z</time>
      </trkpt>
      <trkpt lat="46.36793" lon="5.70705">
        <ele>336.180116</ele>
        <time>2021-04-30T11:54:46.199Z</time>
      </trkpt>
      <trkpt lat="46.36775" lon="5.70754">
        <ele>334.652058</ele>
        <time>2021-04-30T11:54:53.978Z</time>
      </trkpt>
      <trkpt lat="46.36742" lon="5.70796">
        <ele>332.894283</ele>
        <time>2021-04-30T11:55:03.150Z</time>
      </trkpt>
      <trkpt lat="46.36737" lon="5.7081">
        <ele>332.515526</ele>
        <time>2021-04-30T11:55:05.257Z</time>
      </trkpt>
      <trkpt lat="46.36729" lon="5.70833">
        <ele>331.981977</ele>
        <time>2021-04-30T11:55:08.821Z</time>
      </trkpt>
      <trkpt lat="46.36727" lon="5.70844">
        <ele>331.739407</ele>
        <time>2021-04-30T11:55:10.614Z</time>
      </trkpt>
      <trkpt lat="46.36729" lon="5.70851">
        <ele>331.577874</ele>
        <time>2021-04-30T11:55:11.592Z</time>
      </trkpt>
      <trkpt lat="46.36729" lon="5.70901">
        <ele>330.523159</ele>
        <time>2021-04-30T11:55:18.245Z</time>
      </trkpt>
      <trkpt lat="46.36726" lon="5.70948">
        <ele>329.531446</ele>
        <time>2021-04-30T11:55:24.670Z</time>
      </trkpt>
      <trkpt lat="46.36723" lon="5.70976">
        <ele>328.942179</ele>
        <time>2021-04-30T11:55:28.382Z</time>
      </trkpt>
      <trkpt lat="46.3672" lon="5.71024">
        <ele>327.927647</ele>
        <time>2021-04-30T11:55:34.985Z</time>
      </trkpt>
      <trkpt lat="46.36717" lon="5.71038">
        <ele>327.602616</ele>
        <time>2021-04-30T11:55:37.082Z</time>
      </trkpt>
      <trkpt lat="46.36709" lon="5.71057">
        <ele>327.168637</ele>
        <time>2021-04-30T11:55:40.286Z</time>
      </trkpt>
      <trkpt lat="46.36696" lon="5.71081">
        <ele>327.048683</ele>
        <time>2021-04-30T11:55:44.506Z</time>
      </trkpt>
      <trkpt lat="46.36656" lon="5.7115">
        <ele>326.69085</ele>
        <time>2021-04-30T11:55:57.719Z</time>
      </trkpt>
      <trkpt lat="46.3665" lon="5.71161">
        <ele>326.630579</ele>
        <time>2021-04-30T11:55:59.898Z</time>
      </trkpt>
      <trkpt lat="46.36621" lon="5.71209">
        <ele>326.377</ele>
        <time>2021-04-30T11:56:10.292Z</time>
      </trkpt>
      <trkpt lat="46.36616" lon="5.71218">
        <ele>326.331889</ele>
        <time>2021-04-30T11:56:12.325Z</time>
      </trkpt>
      <trkpt lat="46.36557" lon="5.7132">
        <ele>329.225349</ele>
        <time>2021-04-30T11:56:49.901Z</time>
      </trkpt>
      <trkpt lat="46.36523" lon="5.71377">
        <ele>332.00892</ele>
        <time>2021-04-30T11:57:21.792Z</time>
      </trkpt>
      <trkpt lat="46.3648" lon="5.71449">
        <ele>335.515416</ele>
        <time>2021-04-30T11:57:59.360Z</time>
      </trkpt>
      <trkpt lat="46.36468" lon="5.71465">
        <ele>336.195161</ele>
        <time>2021-04-30T11:58:10.778Z</time>
      </trkpt>
      <trkpt lat="46.36455" lon="5.71477">
        <ele>336.735915</ele>
        <time>2021-04-30T11:58:17.062Z</time>
      </trkpt>
      <trkpt lat="46.36446" lon="5.7148">
        <ele>337.063642</ele>
        <time>2021-04-30T11:58:24.118Z</time>
      </trkpt>
      <trkpt lat="46.36438" lon="5.71498">
        <ele>337.614419</ele>
        <time>2021-04-30T11:58:33.279Z</time>
      </trkpt>
      <trkpt lat="46.36439" lon="5.71538">
        <ele>338.605078</ele>
        <time>2021-04-30T11:58:49.509Z</time>
      </trkpt>
      <trkpt lat="46.36447" lon="5.71593">
        <ele>340.027278</ele>
        <time>2021-04-30T11:59:08.565Z</time>
      </trkpt>
      <trkpt lat="46.36453" lon="5.71631">
        <ele>341.014793</ele>
        <time>2021-04-30T11:59:19.411Z</time>
      </trkpt>
      <trkpt lat="46.36468" lon="5.71729">
        <ele>341.06972</ele>
        <time>2021-04-30T11:59:35.587Z</time>
      </trkpt>
      <trkpt lat="46.36474" lon="5.71758">
        <ele>340.375895</ele>
        <time>2021-04-30T11:59:39.509Z</time>
      </trkpt>
      <trkpt lat="46.3648" lon="5.71774">
        <ele>339.942958</ele>
        <time>2021-04-30T11:59:42.278Z</time>
      </trkpt>
      <trkpt lat="46.36485" lon="5.71786">
        <ele>339.613931</ele>
        <time>2021-04-30T11:59:43.922Z</time>
      </trkpt>
      <trkpt lat="46.36558" lon="5.71896">
        <ele>336.018688</ele>
        <time>2021-04-30T12:00:04.422Z</time>
      </trkpt>
      <trkpt lat="46.36617" lon="5.72053">
        <ele>333.212682</ele>
        <time>2021-04-30T12:00:30.331Z</time>
      </trkpt>
      <trkpt lat="46.36662" lon="5.72174">
        <ele>332.410555</ele>
        <time>2021-04-30T12:00:54.273Z</time>
      </trkpt>
      <trkpt lat="46.3668" lon="5.72222">
        <ele>332.803651</ele>
        <time>2021-04-30T12:01:04.989Z</time>
      </trkpt>
      <trkpt lat="46.36696" lon="5.7227">
        <ele>333.187539</ele>
        <time>2021-04-30T12:01:18.671Z</time>
      </trkpt>
      <trkpt lat="46.36714" lon="5.72444">
        <ele>335.46292</ele>
        <time>2021-04-30T12:02:04.578Z</time>
      </trkpt>
      <trkpt lat="46.36716" lon="5.72468">
        <ele>335.93312</ele>
        <time>2021-04-30T12:02:12.685Z</time>
      </trkpt>
      <trkpt lat="46.3672" lon="5.7256">
        <ele>337.740554</ele>
        <time>2021-04-30T12:02:40.377Z</time>
      </trkpt>
      <trkpt lat="46.36709" lon="5.72643">
        <ele>338.894126</ele>
        <time>2021-04-30T12:03:03.354Z</time>
      </trkpt>
      <trkpt lat="46.36683" lon="5.72724">
        <ele>338.775989</ele>
        <time>2021-04-30T12:03:23.446Z</time>
      </trkpt>
      <trkpt lat="46.36652" lon="5.72784">
        <ele>338.676978</ele>
        <time>2021-04-30T12:03:35.414Z</time>
      </trkpt>
      <trkpt lat="46.36642" lon="5.728">
        <ele>338.648588</ele>
        <time>2021-04-30T12:03:39.032Z</time>
      </trkpt>
      <trkpt lat="46.36633" lon="5.72814">
        <ele>338.623118</ele>
        <time>2021-04-30T12:03:41.576Z</time>
      </trkpt>
      <trkpt lat="46.36581" lon="5.72878">
        <ele>337.659805</ele>
        <time>2021-04-30T12:03:55.549Z</time>
      </trkpt>
      <trkpt lat="46.36544" lon="5.7291">
        <ele>336.809639</ele>
        <time>2021-04-30T12:04:03.946Z</time>
      </trkpt>
      <trkpt lat="46.36495" lon="5.72933">
        <ele>335.784157</ele>
        <time>2021-04-30T12:04:14.584Z</time>
      </trkpt>
      <trkpt lat="46.36435" lon="5.72941">
        <ele>335.199505</ele>
        <time>2021-04-30T12:04:28.987Z</time>
      </trkpt>
      <trkpt lat="46.36398" lon="5.72941">
        <ele>335.551656</ele>
        <time>2021-04-30T12:04:38.828Z</time>
      </trkpt>
      <trkpt lat="46.36373" lon="5.72941">
        <ele>335.783581</ele>
        <time>2021-04-30T12:04:46.284Z</time>
      </trkpt>
      <trkpt lat="46.36351" lon="5.72943">
        <ele>335.996856</ele>
        <time>2021-04-30T12:04:53.648Z</time>
      </trkpt>
      <trkpt lat="46.36308" lon="5.72951">
        <ele>336.401099</ele>
        <time>2021-04-30T12:05:09.064Z</time>
      </trkpt>
      <trkpt lat="46.36251" lon="5.72974">
        <ele>337.313165</ele>
        <time>2021-04-30T12:05:31.723Z</time>
      </trkpt>
      <trkpt lat="46.36222" lon="5.72991">
        <ele>338.003382</ele>
        <time>2021-04-30T12:05:43.931Z</time>
      </trkpt>
      <trkpt lat="46.36194" lon="5.73012">
        <ele>338.714521</ele>
        <time>2021-04-30T12:05:56.190Z</time>
      </trkpt>
      <trkpt lat="46.36122" lon="5.73085">
        <ele>340.664205</ele>
        <time>2021-04-30T12:06:29.107Z</time>
      </trkpt>
      <trkpt lat="46.36087" lon="5.73131">
        <ele>341.000487</ele>
        <time>2021-04-30T12:06:45.403Z</time>
      </trkpt>
      <trkpt lat="46.36069" lon="5.73171">
        <ele>341.225389</ele>
        <time>2021-04-30T12:06:55.806Z</time>
      </trkpt>
      <trkpt lat="46.3605" lon="5.73245">
        <ele>341.59511</ele>
        <time>2021-04-30T12:07:11.177Z</time>
      </trkpt>
      <trkpt lat="46.36046" lon="5.73258">
        <ele>341.663487</ele>
        <time>2021-04-30T12:07:14.002Z</time>
      </trkpt>
      <trkpt lat="46.36042" lon="5.73267">
        <ele>341.709191</ele>
        <time>2021-04-30T12:07:15.648Z</time>
      </trkpt>
      <trkpt lat="46.35992" lon="5.73335">
        <ele>341.597293</ele>
        <time>2021-04-30T12:07:33.018Z</time>
      </trkpt>
      <trkpt lat="46.35976" lon="5.73351">
        <ele>341.441951</ele>
        <time>2021-04-30T12:07:37.495Z</time>
      </trkpt>
      <trkpt lat="46.35972" lon="5.73355">
        <ele>341.404416</ele>
        <time>2021-04-30T12:07:38.552Z</time>
      </trkpt>
      <trkpt lat="46.35927" lon="5.73384">
        <ele>341.002835</ele>
        <time>2021-04-30T12:07:49.771Z</time>
      </trkpt>
      <trkpt lat="46.35912" lon="5.73393">
        <ele>340.871362</ele>
        <time>2021-04-30T12:07:53.440Z</time>
      </trkpt>
      <trkpt lat="46.35907" lon="5.73396">
        <ele>340.831398</ele>
        <time>2021-04-30T12:07:54.554Z</time>
      </trkpt>
      <trkpt lat="46.35904" lon="5.73398">
        <ele>340.802731</ele>
        <time>2021-04-30T12:07:55.385Z</time>
      </trkpt>
      <trkpt lat="46.35882" lon="5.73413">
        <ele>340.603738</ele>
        <time>2021-04-30T12:08:01.097Z</time>
      </trkpt>
      <trkpt lat="46.35863" lon="5.73426">
        <ele>340.451923</ele>
        <time>2021-04-30T12:08:06.038Z</time>
      </trkpt>
      <trkpt lat="46.35849" lon="5.73437">
        <ele>340.418698</ele>
        <time>2021-04-30T12:08:09.969Z</time>
      </trkpt>
      <trkpt lat="46.35843" lon="5.73445">
        <ele>340.402461</ele>
        <time>2021-04-30T12:08:11.935Z</time>
      </trkpt>
      <trkpt lat="46.35837" lon="5.73453">
        <ele>340.386127</ele>
        <time>2021-04-30T12:08:13.948Z</time>
      </trkpt>
      <trkpt lat="46.35822" lon="5.73478">
        <ele>340.338647</ele>
        <time>2021-04-30T12:08:19.993Z</time>
      </trkpt>
      <trkpt lat="46.35796" lon="5.73521">
        <ele>340.258942</ele>
        <time>2021-04-30T12:08:30.567Z</time>
      </trkpt>
      <trkpt lat="46.3579" lon="5.73531">
        <ele>340.239461</ele>
        <time>2021-04-30T12:08:33.029Z</time>
      </trkpt>
      <trkpt lat="46.35767" lon="5.7357">
        <ele>340.167643</ele>
        <time>2021-04-30T12:08:42.396Z</time>
      </trkpt>
      <trkpt lat="46.35754" lon="5.73592">
        <ele>340.127656</ele>
        <time>2021-04-30T12:08:47.610Z</time>
      </trkpt>
      <trkpt lat="46.35748" lon="5.73604">
        <ele>340.106164</ele>
        <time>2021-04-30T12:08:50.460Z</time>
      </trkpt>
      <trkpt lat="46.3574" lon="5.73618">
        <ele>340.074857</ele>
        <time>2021-04-30T12:08:53.797Z</time>
      </trkpt>
      <trkpt lat="46.35721" lon="5.73653">
        <ele>339.977472</ele>
        <time>2021-04-30T12:09:02.002Z</time>
      </trkpt>
      <trkpt lat="46.35704" lon="5.73681">
        <ele>339.894625</ele>
        <time>2021-04-30T12:09:08.711Z</time>
      </trkpt>
      <trkpt lat="46.35689" lon="5.73707">
        <ele>339.818691</ele>
        <time>2021-04-30T12:09:14.901Z</time>
      </trkpt>
      <trkpt lat="46.3567" lon="5.73738">
        <ele>339.726894</ele>
        <time>2021-04-30T12:09:22.352Z</time>
      </trkpt>
      <trkpt lat="46.35639" lon="5.73787">
        <ele>339.581116</ele>
        <time>2021-04-30T12:09:33.424Z</time>
      </trkpt>
      <trkpt lat="46.35619" lon="5.7382">
        <ele>339.473252</ele>
        <time>2021-04-30T12:09:40.679Z</time>
      </trkpt>
      <trkpt lat="46.35618" lon="5.73821">
        <ele>339.466505</ele>
        <time>2021-04-30T12:09:40.970Z</time>
      </trkpt>
      <trkpt lat="46.35613" lon="5.73829">
        <ele>339.435232</ele>
        <time>2021-04-30T12:09:42.659Z</time>
      </trkpt>
      <trkpt lat="46.35567" lon="5.73915">
        <ele>339.106934</ele>
        <time>2021-04-30T12:10:00.556Z</time>
      </trkpt>
      <trkpt lat="46.3555" lon="5.73945">
        <ele>338.990252</ele>
        <time>2021-04-30T12:10:07.210Z</time>
      </trkpt>
      <trkpt lat="46.35513" lon="5.74008">
        <ele>338.740332</ele>
        <time>2021-04-30T12:10:22.132Z</time>
      </trkpt>
      <trkpt lat="46.35509" lon="5.74014">
        <ele>338.750327</ele>
        <time>2021-04-30T12:10:23.769Z</time>
      </trkpt>
      <trkpt lat="46.35497" lon="5.74038">
        <ele>338.904479</ele>
        <time>2021-04-30T12:10:29.372Z</time>
      </trkpt>
      <trkpt lat="46.35484" lon="5.74061">
        <ele>339.057759</ele>
        <time>2021-04-30T12:10:35.104Z</time>
      </trkpt>
      <trkpt lat="46.35471" lon="5.74084">
        <ele>339.213851</ele>
        <time>2021-04-30T12:10:41.132Z</time>
      </trkpt>
      <trkpt lat="46.35437" lon="5.74145">
        <ele>339.619311</ele>
        <time>2021-04-30T12:10:58.691Z</time>
      </trkpt>
      <trkpt lat="46.3542" lon="5.74173">
        <ele>339.81284</ele>
        <time>2021-04-30T12:11:06.696Z</time>
      </trkpt>
      <trkpt lat="46.35397" lon="5.74214">
        <ele>340.108934</ele>
        <time>2021-04-30T12:11:17.564Z</time>
      </trkpt>
      <trkpt lat="46.35393" lon="5.74222">
        <ele>340.266826</ele>
        <time>2021-04-30T12:11:19.756Z</time>
      </trkpt>
      <trkpt lat="46.35377" lon="5.7425">
        <ele>340.820548</ele>
        <time>2021-04-30T12:11:27.592Z</time>
      </trkpt>
      <trkpt lat="46.35372" lon="5.74259">
        <ele>340.99387</ele>
        <time>2021-04-30T12:11:30.502Z</time>
      </trkpt>
      <trkpt lat="46.35366" lon="5.74269">
        <ele>341.195044</ele>
        <time>2021-04-30T12:11:33.726Z</time>
      </trkpt>
      <trkpt lat="46.3535" lon="5.74297">
        <ele>341.757557</ele>
        <time>2021-04-30T12:11:43.297Z</time>
      </trkpt>
      <trkpt lat="46.35341" lon="5.74313">
        <ele>342.085177</ele>
        <time>2021-04-30T12:11:48.703Z</time>
      </trkpt>
      <trkpt lat="46.35324" lon="5.74343">
        <ele>342.675507</ele>
        <time>2021-04-30T12:11:59.090Z</time>
      </trkpt>
      <trkpt lat="46.35317" lon="5.74356">
        <ele>342.933231</ele>
        <time>2021-04-30T12:12:03.473Z</time>
      </trkpt>
      <trkpt lat="46.35308" lon="5.74372">
        <ele>343.251824</ele>
        <time>2021-04-30T12:12:09.036Z</time>
      </trkpt>
      <trkpt lat="46.35296" lon="5.74392">
        <ele>343.657191</ele>
        <time>2021-04-30T12:12:16.543Z</time>
      </trkpt>
      <trkpt lat="46.35283" lon="5.74415">
        <ele>344.152448</ele>
        <time>2021-04-30T12:12:25.460Z</time>
      </trkpt>
      <trkpt lat="46.35268" lon="5.7444">
        <ele>345.178526</ele>
        <time>2021-04-30T12:12:34.948Z</time>
      </trkpt>
      <trkpt lat="46.35262" lon="5.74452">
        <ele>345.648867</ele>
        <time>2021-04-30T12:12:39.197Z</time>
      </trkpt>
      <trkpt lat="46.35255" lon="5.74462">
        <ele>346.096697</ele>
        <time>2021-04-30T12:12:43.525Z</time>
      </trkpt>
      <trkpt lat="46.3524" lon="5.74485">
        <ele>347.089111</ele>
        <time>2021-04-30T12:12:52.466Z</time>
      </trkpt>
      <trkpt lat="46.35226" lon="5.74504">
        <ele>347.956359</ele>
        <time>2021-04-30T12:13:00.885Z</time>
      </trkpt>
      <trkpt lat="46.35195" lon="5.74544">
        <ele>349.847864</ele>
        <time>2021-04-30T12:13:20.964Z</time>
      </trkpt>
      <trkpt lat="46.35166" lon="5.74595">
        <ele>351.92506</ele>
        <time>2021-04-30T12:13:46.577Z</time>
      </trkpt>
      <trkpt lat="46.35117" lon="5.74704">
        <ele>358.503539</ele>
        <time>2021-04-30T12:14:41.246Z</time>
      </trkpt>
      <trkpt lat="46.3505" lon="5.74819">
        <ele>366.19332</ele>
        <time>2021-04-30T12:15:52.314Z</time>
      </trkpt>
      <trkpt lat="46.35012" lon="5.74882">
        <ele>368.22908</ele>
        <time>2021-04-30T12:16:28.258Z</time>
      </trkpt>
      <trkpt lat="46.3497" lon="5.74993">
        <ele>371.32949</ele>
        <time>2021-04-30T12:17:05.186Z</time>
      </trkpt>
      <trkpt lat="46.34957" lon="5.75067">
        <ele>370.863839</ele>
        <time>2021-04-30T12:17:16.499Z</time>
      </trkpt>
      <trkpt lat="46.34954" lon="5.75133">
        <ele>367.884016</ele>
        <time>2021-04-30T12:17:24.680Z</time>
      </trkpt>
      <trkpt lat="46.3496" lon="5.75216">
        <ele>364.174116</ele>
        <time>2021-04-30T12:17:34.431Z</time>
      </trkpt>
      <trkpt lat="46.34972" lon="5.75273">
        <ele>361.508683</ele>
        <time>2021-04-30T12:17:41.256Z</time>
      </trkpt>
      <trkpt lat="46.35014" lon="5.75385">
        <ele>355.258005</ele>
        <time>2021-04-30T12:17:55.727Z</time>
      </trkpt>
      <trkpt lat="46.35073" lon="5.75503">
        <ele>348.049811</ele>
        <time>2021-04-30T12:18:13.306Z</time>
      </trkpt>
      <trkpt lat="46.35115" lon="5.75588">
        <ele>347.427821</ele>
        <time>2021-04-30T12:18:27.646Z</time>
      </trkpt>
      <trkpt lat="46.35264" lon="5.75902">
        <ele>350.277615</ele>
        <time>2021-04-30T12:19:58.695Z</time>
      </trkpt>
      <trkpt lat="46.35295" lon="5.7596">
        <ele>352.130308</ele>
        <time>2021-04-30T12:20:22.229Z</time>
      </trkpt>
      <trkpt lat="46.35285" lon="5.75972">
        <ele>352.794874</ele>
        <time>2021-04-30T12:20:30.155Z</time>
      </trkpt>
      <trkpt lat="46.35275" lon="5.75985">
        <ele>353.52193</ele>
        <time>2021-04-30T12:20:36.595Z</time>
      </trkpt>
      <trkpt lat="46.35281" lon="5.76003">
        <ele>354.225749</ele>
        <time>2021-04-30T12:20:42.782Z</time>
      </trkpt>
      <trkpt lat="46.35286" lon="5.76011">
        <ele>354.666778</ele>
        <time>2021-04-30T12:20:48.833Z</time>
      </trkpt>
      <trkpt lat="46.35342" lon="5.76068">
        <ele>358.251796</ele>
        <time>2021-04-30T12:21:25.224Z</time>
      </trkpt>
      <trkpt lat="46.35377" lon="5.76116">
        <ele>360.717155</ele>
        <time>2021-04-30T12:21:53.013Z</time>
      </trkpt>
      <trkpt lat="46.35439" lon="5.76239">
        <ele>365.219516</ele>
        <time>2021-04-30T12:22:45.980Z</time>
      </trkpt>
      <trkpt lat="46.35475" lon="5.76289">
        <ele>367.378384</ele>
        <time>2021-04-30T12:23:07.075Z</time>
      </trkpt>
      <trkpt lat="46.3549" lon="5.76325">
        <ele>368.279935</ele>
        <time>2021-04-30T12:23:18.559Z</time>
      </trkpt>
      <trkpt lat="46.35515" lon="5.76381">
        <ele>368.938018</ele>
        <time>2021-04-30T12:23:35.321Z</time>
      </trkpt>
      <trkpt lat="46.35526" lon="5.76408">
        <ele>369.252844</ele>
        <time>2021-04-30T12:23:42.991Z</time>
      </trkpt>
      <trkpt lat="46.35545" lon="5.76455">
        <ele>369.785019</ele>
        <time>2021-04-30T12:23:55.102Z</time>
      </trkpt>
      <trkpt lat="46.35545" lon="5.76467">
        <ele>369.90846</ele>
        <time>2021-04-30T12:23:57.773Z</time>
      </trkpt>
      <trkpt lat="46.35543" lon="5.76475">
        <ele>369.990973</ele>
        <time>2021-04-30T12:23:59.604Z</time>
      </trkpt>
      <trkpt lat="46.3554" lon="5.76483">
        <ele>370.073486</ele>
        <time>2021-04-30T12:24:01.419Z</time>
      </trkpt>
      <trkpt lat="46.35541" lon="5.76493">
        <ele>370.180722</ele>
        <time>2021-04-30T12:24:03.867Z</time>
      </trkpt>
      <trkpt lat="46.35571" lon="5.76556">
        <ele>370.832371</ele>
        <time>2021-04-30T12:24:18.702Z</time>
      </trkpt>
      <trkpt lat="46.35589" lon="5.76613">
        <ele>371.200292</ele>
        <time>2021-04-30T12:24:30.559Z</time>
      </trkpt>
      <trkpt lat="46.35593" lon="5.76627">
        <ele>371.283805</ele>
        <time>2021-04-30T12:24:33.386Z</time>
      </trkpt>
      <trkpt lat="46.35598" lon="5.76646">
        <ele>371.408274</ele>
        <time>2021-04-30T12:24:37.324Z</time>
      </trkpt>
      <trkpt lat="46.35602" lon="5.76659">
        <ele>371.489126</ele>
        <time>2021-04-30T12:24:39.977Z</time>
      </trkpt>
      <trkpt lat="46.35604" lon="5.76667">
        <ele>371.537012</ele>
        <time>2021-04-30T12:24:41.556Z</time>
      </trkpt>
      <trkpt lat="46.35606" lon="5.76676">
        <ele>371.592678</ele>
        <time>2021-04-30T12:24:43.497Z</time>
      </trkpt>
      <trkpt lat="46.35623" lon="5.76735">
        <ele>371.969487</ele>
        <time>2021-04-30T12:24:55.342Z</time>
      </trkpt>
      <trkpt lat="46.35628" lon="5.7679">
        <ele>372.653513</ele>
        <time>2021-04-30T12:25:06.887Z</time>
      </trkpt>
      <trkpt lat="46.35628" lon="5.76944">
        <ele>377.529167</ele>
        <time>2021-04-30T12:26:05.070Z</time>
      </trkpt>
      <trkpt lat="46.35625" lon="5.76968">
        <ele>378.302661</ele>
        <time>2021-04-30T12:26:14.167Z</time>
      </trkpt>
      <trkpt lat="46.35619" lon="5.76989">
        <ele>379.024476</ele>
        <time>2021-04-30T12:26:22.639Z</time>
      </trkpt>
      <trkpt lat="46.35616" lon="5.76994">
        <ele>379.239775</ele>
        <time>2021-04-30T12:26:25.387Z</time>
      </trkpt>
      <trkpt lat="46.35606" lon="5.7701">
        <ele>379.909043</ele>
        <time>2021-04-30T12:26:32.447Z</time>
      </trkpt>
      <trkpt lat="46.35594" lon="5.77024">
        <ele>380.444996</ele>
        <time>2021-04-30T12:26:40.142Z</time>
      </trkpt>
      <trkpt lat="46.35586" lon="5.77035">
        <ele>380.382131</ele>
        <time>2021-04-30T12:26:45.712Z</time>
      </trkpt>
      <trkpt lat="46.35564" lon="5.77076">
        <ele>380.165646</ele>
        <time>2021-04-30T12:27:01.031Z</time>
      </trkpt>
      <trkpt lat="46.35552" lon="5.77104">
        <ele>380.031436</ele>
        <time>2021-04-30T12:27:09.426Z</time>
      </trkpt>
      <trkpt lat="46.3554" lon="5.77132">
        <ele>379.893152</ele>
        <time>2021-04-30T12:27:16.782Z</time>
      </trkpt>
      <trkpt lat="46.35529" lon="5.77169">
        <ele>379.728225</ele>
        <time>2021-04-30T12:27:25.819Z</time>
      </trkpt>
      <trkpt lat="46.35542" lon="5.7734">
        <ele>374.020124</ele>
        <time>2021-04-30T12:27:46.169Z</time>
      </trkpt>
      <trkpt lat="46.35554" lon="5.77443">
        <ele>367.814679</ele>
        <time>2021-04-30T12:27:57.932Z</time>
      </trkpt>
      <trkpt lat="46.35556" lon="5.77455">
        <ele>367.134391</ele>
        <time>2021-04-30T12:27:59.158Z</time>
      </trkpt>
      <trkpt lat="46.35561" lon="5.77485">
        <ele>365.264975</ele>
        <time>2021-04-30T12:28:02.865Z</time>
      </trkpt>
      <trkpt lat="46.35553" lon="5.77561">
        <ele>362.480083</ele>
        <time>2021-04-30T12:28:11.614Z</time>
      </trkpt>
      <trkpt lat="46.35529" lon="5.77637">
        <ele>360.2151</ele>
        <time>2021-04-30T12:28:22.613Z</time>
      </trkpt>
      <trkpt lat="46.3553" lon="5.77642">
        <ele>360.062407</ele>
        <time>2021-04-30T12:28:23.299Z</time>
      </trkpt>
      <trkpt lat="46.35533" lon="5.77647">
        <ele>359.881568</ele>
        <time>2021-04-30T12:28:24.052Z</time>
      </trkpt>
      <trkpt lat="46.35542" lon="5.77656">
        <ele>359.469485</ele>
        <time>2021-04-30T12:28:26.143Z</time>
      </trkpt>
      <trkpt lat="46.35545" lon="5.77659">
        <ele>359.317135</ele>
        <time>2021-04-30T12:28:26.882Z</time>
      </trkpt>
      <trkpt lat="46.35538" lon="5.77679">
        <ele>358.722513</ele>
        <time>2021-04-30T12:28:30.381Z</time>
      </trkpt>
      <trkpt lat="46.35533" lon="5.77698">
        <ele>358.153728</ele>
        <time>2021-04-30T12:28:34.166Z</time>
      </trkpt>
      <trkpt lat="46.35519" lon="5.77741">
        <ele>356.880716</ele>
        <time>2021-04-30T12:28:42.390Z</time>
      </trkpt>
      <trkpt lat="46.35511" lon="5.77765">
        <ele>356.935159</ele>
        <time>2021-04-30T12:28:47.957Z</time>
      </trkpt>
      <trkpt lat="46.35501" lon="5.77796">
        <ele>357.02758</ele>
        <time>2021-04-30T12:28:54.346Z</time>
      </trkpt>
      <trkpt lat="46.35498" lon="5.77808">
        <ele>357.063634</ele>
        <time>2021-04-30T12:28:56.881Z</time>
      </trkpt>
      <trkpt lat="46.35496" lon="5.7782">
        <ele>357.095595</ele>
        <time>2021-04-30T12:28:59.266Z</time>
      </trkpt>
      <trkpt lat="46.35494" lon="5.7783">
        <ele>357.125568</ele>
        <time>2021-04-30T12:29:01.003Z</time>
      </trkpt>
      <trkpt lat="46.35497" lon="5.77833">
        <ele>357.139514</ele>
        <time>2021-04-30T12:29:02.120Z</time>
      </trkpt>
      <trkpt lat="46.35502" lon="5.7784">
        <ele>357.166866</ele>
        <time>2021-04-30T12:29:04.700Z</time>
      </trkpt>
      <trkpt lat="46.35503" lon="5.77844">
        <ele>357.179107</ele>
        <time>2021-04-30T12:29:05.413Z</time>
      </trkpt>
      <trkpt lat="46.35506" lon="5.77884">
        <ele>357.28854</ele>
        <time>2021-04-30T12:29:15.427Z</time>
      </trkpt>
      <trkpt lat="46.35533" lon="5.78048">
        <ele>357.654397</ele>
        <time>2021-04-30T12:29:50.502Z</time>
      </trkpt>
      <trkpt lat="46.35538" lon="5.78092">
        <ele>357.7118</ele>
        <time>2021-04-30T12:29:58.918Z</time>
      </trkpt>
      <trkpt lat="46.35542" lon="5.78108">
        <ele>357.734089</ele>
        <time>2021-04-30T12:30:02.023Z</time>
      </trkpt>
      <trkpt lat="46.35572" lon="5.7809">
        <ele>357.793593</ele>
        <time>2021-04-30T12:30:10.774Z</time>
      </trkpt>
      <trkpt lat="46.35579" lon="5.78091">
        <ele>357.807747</ele>
        <time>2021-04-30T12:30:12.928Z</time>
      </trkpt>
      <trkpt lat="46.35585" lon="5.78099">
        <ele>357.822582</ele>
        <time>2021-04-30T12:30:15.008Z</time>
      </trkpt>
      <trkpt lat="46.35589" lon="5.78107">
        <ele>357.835203</ele>
        <time>2021-04-30T12:30:16.960Z</time>
      </trkpt>
      <trkpt lat="46.35623" lon="5.7818">
        <ele>358.040808</ele>
        <time>2021-04-30T12:30:34.522Z</time>
      </trkpt>
      <trkpt lat="46.35663" lon="5.78266">
        <ele>358.452339</ele>
        <time>2021-04-30T12:30:56.035Z</time>
      </trkpt>
      <trkpt lat="46.35674" lon="5.78307">
        <ele>358.630012</ele>
        <time>2021-04-30T12:31:05.813Z</time>
      </trkpt>
      <trkpt lat="46.35686" lon="5.78331">
        <ele>358.746184</ele>
        <time>2021-04-30T12:31:12.039Z</time>
      </trkpt>
      <trkpt lat="46.35687" lon="5.78334">
        <ele>358.757022</ele>
        <time>2021-04-30T12:31:12.844Z</time>
      </trkpt>
      <trkpt lat="46.35733" lon="5.78412">
        <ele>359.515601</ele>
        <time>2021-04-30T12:31:35.102Z</time>
      </trkpt>
      <trkpt lat="46.35736" lon="5.78416">
        <ele>359.574804</ele>
        <time>2021-04-30T12:31:36.557Z</time>
      </trkpt>
      <trkpt lat="46.35809" lon="5.7854">
        <ele>361.233766</ele>
        <time>2021-04-30T12:32:15.680Z</time>
      </trkpt>
      <trkpt lat="46.35837" lon="5.78589">
        <ele>362.335348</ele>
        <time>2021-04-30T12:32:32.609Z</time>
      </trkpt>
      <trkpt lat="46.35843" lon="5.78599">
        <ele>362.688826</ele>
        <time>2021-04-30T12:32:36.491Z</time>
      </trkpt>
      <trkpt lat="46.35846" lon="5.78604">
        <ele>362.845869</ele>
        <time>2021-04-30T12:32:38.054Z</time>
      </trkpt>
      <trkpt lat="46.35839" lon="5.78611">
        <ele>363.158332</ele>
        <time>2021-04-30T12:32:41.682Z</time>
      </trkpt>
      <trkpt lat="46.35828" lon="5.78625">
        <ele>363.727457</ele>
        <time>2021-04-30T12:32:47.290Z</time>
      </trkpt>
      <trkpt lat="46.35812" lon="5.78641">
        <ele>364.470771</ele>
        <time>2021-04-30T12:32:56.075Z</time>
      </trkpt>
      <trkpt lat="46.35807" lon="5.78647">
        <ele>364.730457</ele>
        <time>2021-04-30T12:32:58.969Z</time>
      </trkpt>
      <trkpt lat="46.35811" lon="5.78655">
        <ele>364.982005</ele>
        <time>2021-04-30T12:33:01.597Z</time>
      </trkpt>
      <trkpt lat="46.3582" lon="5.78673">
        <ele>365.569546</ele>
        <time>2021-04-30T12:33:08.149Z</time>
      </trkpt>
      <trkpt lat="46.35841" lon="5.78715">
        <ele>366.927109</ele>
        <time>2021-04-30T12:33:24.632Z</time>
      </trkpt>
      <trkpt lat="46.35844" lon="5.78722">
        <ele>367.169913</ele>
        <time>2021-04-30T12:33:28.093Z</time>
      </trkpt>
      <trkpt lat="46.35852" lon="5.78737">
        <ele>367.649115</ele>
        <time>2021-04-30T12:33:33.759Z</time>
      </trkpt>
      <trkpt lat="46.35854" lon="5.78743">
        <ele>367.844705</ele>
        <time>2021-04-30T12:33:36.340Z</time>
      </trkpt>
      <trkpt lat="46.35859" lon="5.78755">
        <ele>368.187961</ele>
        <time>2021-04-30T12:33:41.585Z</time>
      </trkpt>
      <trkpt lat="46.35871" lon="5.78799">
        <ele>370.288255</ele>
        <time>2021-04-30T12:34:01.369Z</time>
      </trkpt>
      <trkpt lat="46.35875" lon="5.78816">
        <ele>371.204864</ele>
        <time>2021-04-30T12:34:09.343Z</time>
      </trkpt>
      <trkpt lat="46.35878" lon="5.78847">
        <ele>372.746842</ele>
        <time>2021-04-30T12:34:22.259Z</time>
      </trkpt>
      <trkpt lat="46.35881" lon="5.78879">
        <ele>374.333713</ele>
        <time>2021-04-30T12:34:35.088Z</time>
      </trkpt>
      <trkpt lat="46.35885" lon="5.78896">
        <ele>375.2527</ele>
        <time>2021-04-30T12:34:43.361Z</time>
      </trkpt>
      <trkpt lat="46.35877" lon="5.78914">
        <ele>376.335779</ele>
        <time>2021-04-30T12:34:53.084Z</time>
      </trkpt>
      <trkpt lat="46.35871" lon="5.78925">
        <ele>377.021677</ele>
        <time>2021-04-30T12:34:58.080Z</time>
      </trkpt>
      <trkpt lat="46.35862" lon="5.78945">
        <ele>378.174562</ele>
        <time>2021-04-30T12:35:09.346Z</time>
      </trkpt>
      <trkpt lat="46.35856" lon="5.78958">
        <ele>378.960638</ele>
        <time>2021-04-30T12:35:16.044Z</time>
      </trkpt>
      <trkpt lat="46.35853" lon="5.78976">
        <ele>379.87628</ele>
        <time>2021-04-30T12:35:23.477Z</time>
      </trkpt>
      <trkpt lat="46.35849" lon="5.78992">
        <ele>380.7214</ele>
        <time>2021-04-30T12:35:31.923Z</time>
      </trkpt>
      <trkpt lat="46.35858" lon="5.79017">
        <ele>382.377719</ele>
        <time>2021-04-30T12:35:43.601Z</time>
      </trkpt>
      <trkpt lat="46.3591" lon="5.7907">
        <ele>388.793675</ele>
        <time>2021-04-30T12:36:27.105Z</time>
      </trkpt>
      <trkpt lat="46.35955" lon="5.79152">
        <ele>396.160456</ele>
        <time>2021-04-30T12:37:21.655Z</time>
      </trkpt>
      <trkpt lat="46.35981" lon="5.79205">
        <ele>400.888484</ele>
        <time>2021-04-30T12:38:04.615Z</time>
      </trkpt>
      <trkpt lat="46.35995" lon="5.79244">
        <ele>404.572227</ele>
        <time>2021-04-30T12:38:27.907Z</time>
      </trkpt>
      <trkpt lat="46.36" lon="5.79272">
        <ele>406.947899</ele>
        <time>2021-04-30T12:38:46.858Z</time>
      </trkpt>
      <trkpt lat="46.36006" lon="5.79302">
        <ele>409.606828</ele>
        <time>2021-04-30T12:39:09.528Z</time>
      </trkpt>
      <trkpt lat="46.36017" lon="5.79345">
        <ele>413.370456</ele>
        <time>2021-04-30T12:39:32.885Z</time>
      </trkpt>
      <trkpt lat="46.36018" lon="5.79351">
        <ele>413.866504</ele>
        <time>2021-04-30T12:39:38.671Z</time>
      </trkpt>
      <trkpt lat="46.36025" lon="5.79444">
        <ele>421.478138</ele>
        <time>2021-04-30T12:40:29.498Z</time>
      </trkpt>
      <trkpt lat="46.36034" lon="5.79491">
        <ele>423.536554</ele>
        <time>2021-04-30T12:40:57.373Z</time>
      </trkpt>
      <trkpt lat="46.36107" lon="5.79667">
        <ele>432.09865</ele>
        <time>2021-04-30T12:42:09.762Z</time>
      </trkpt>
      <trkpt lat="46.36153" lon="5.79752">
        <ele>432.492553</ele>
        <time>2021-04-30T12:42:31.039Z</time>
      </trkpt>
      <trkpt lat="46.36167" lon="5.79801">
        <ele>432.650892</ele>
        <time>2021-04-30T12:42:40.186Z</time>
      </trkpt>
      <trkpt lat="46.36203" lon="5.79978">
        <ele>433.486748</ele>
        <time>2021-04-30T12:43:11.585Z</time>
      </trkpt>
      <trkpt lat="46.36235" lon="5.80056">
        <ele>434.060329</ele>
        <time>2021-04-30T12:43:30.667Z</time>
      </trkpt>
      <trkpt lat="46.36265" lon="5.80104">
        <ele>434.470951</ele>
        <time>2021-04-30T12:43:46.355Z</time>
      </trkpt>
      <trkpt lat="46.36275" lon="5.8012">
        <ele>434.601469</ele>
        <time>2021-04-30T12:43:51.510Z</time>
      </trkpt>
      <trkpt lat="46.36288" lon="5.80142">
        <ele>435.637423</ele>
        <time>2021-04-30T12:44:00.183Z</time>
      </trkpt>
      <trkpt lat="46.3635" lon="5.80218">
        <ele>439.764733</ele>
        <time>2021-04-30T12:44:36.933Z</time>
      </trkpt>
      <trkpt lat="46.36468" lon="5.80336">
        <ele>449.125942</ele>
        <time>2021-04-30T12:46:05.002Z</time>
      </trkpt>
      <trkpt lat="46.36493" lon="5.80366">
        <ele>451.873975</ele>
        <time>2021-04-30T12:46:28.632Z</time>
      </trkpt>
      <trkpt lat="46.36498" lon="5.80381">
        <ele>452.825071</ele>
        <time>2021-04-30T12:46:36.686Z</time>
      </trkpt>
      <trkpt lat="46.36496" lon="5.80399">
        <ele>453.838415</ele>
        <time>2021-04-30T12:46:45.643Z</time>
      </trkpt>
      <trkpt lat="46.36489" lon="5.80415">
        <ele>454.969996</ele>
        <time>2021-04-30T12:46:55.134Z</time>
      </trkpt>
      <trkpt lat="46.36481" lon="5.80554">
        <ele>460.585803</ele>
        <time>2021-04-30T12:48:01.607Z</time>
      </trkpt>
      <trkpt lat="46.36488" lon="5.80584">
        <ele>461.375712</ele>
        <time>2021-04-30T12:48:14.362Z</time>
      </trkpt>
      <trkpt lat="46.36495" lon="5.80696">
        <ele>464.188208</ele>
        <time>2021-04-30T12:48:45.473Z</time>
      </trkpt>
      <trkpt lat="46.36508" lon="5.80725">
        <ele>465.05078</ele>
        <time>2021-04-30T12:48:50.422Z</time>
      </trkpt>
      <trkpt lat="46.3651" lon="5.80749">
        <ele>464.735404</ele>
        <time>2021-04-30T12:48:53.610Z</time>
      </trkpt>
      <trkpt lat="46.36486" lon="5.80858">
        <ele>460.927782</ele>
        <time>2021-04-30T12:49:08.154Z</time>
      </trkpt>
      <trkpt lat="46.3649" lon="5.80867">
        <ele>460.578975</ele>
        <time>2021-04-30T12:49:09.347Z</time>
      </trkpt>
      <trkpt lat="46.365" lon="5.80876">
        <ele>460.021892</ele>
        <time>2021-04-30T12:49:11.426Z</time>
      </trkpt>
      <trkpt lat="46.36509" lon="5.80872">
        <ele>459.559869</ele>
        <time>2021-04-30T12:49:13.054Z</time>
      </trkpt>
      <trkpt lat="46.36564" lon="5.80776">
        <ele>456.46843</ele>
        <time>2021-04-30T12:49:28.284Z</time>
      </trkpt>
      <trkpt lat="46.36577" lon="5.80705">
        <ele>456.139661</ele>
        <time>2021-04-30T12:49:37.961Z</time>
      </trkpt>
      <trkpt lat="46.36607" lon="5.80648">
        <ele>455.817707</ele>
        <time>2021-04-30T12:49:52.873Z</time>
      </trkpt>
      <trkpt lat="46.36634" lon="5.80611">
        <ele>455.575733</ele>
        <time>2021-04-30T12:50:07.815Z</time>
      </trkpt>
      <trkpt lat="46.36646" lon="5.80602">
        <ele>455.487193</ele>
        <time>2021-04-30T12:50:13.952Z</time>
      </trkpt>
      <trkpt lat="46.36668" lon="5.80599">
        <ele>456.343934</ele>
        <time>2021-04-30T12:50:24.181Z</time>
      </trkpt>
      <trkpt lat="46.36737" lon="5.80601">
        <ele>459.763512</ele>
        <time>2021-04-30T12:51:00.335Z</time>
      </trkpt>
      <trkpt lat="46.36746" lon="5.80607">
        <ele>460.270329</ele>
        <time>2021-04-30T12:51:05.982Z</time>
      </trkpt>
      <trkpt lat="46.36751" lon="5.80617">
        <ele>460.680548</ele>
        <time>2021-04-30T12:51:10.621Z</time>
      </trkpt>
      <trkpt lat="46.3675" lon="5.80633">
        <ele>461.218985</ele>
        <time>2021-04-30T12:51:16.641Z</time>
      </trkpt>
      <trkpt lat="46.36741" lon="5.80645">
        <ele>461.828799</ele>
        <time>2021-04-30T12:51:23.234Z</time>
      </trkpt>
      <trkpt lat="46.36686" lon="5.80667">
        <ele>464.65738</ele>
        <time>2021-04-30T12:51:51.911Z</time>
      </trkpt>
      <trkpt lat="46.36623" lon="5.80742">
        <ele>469.163301</ele>
        <time>2021-04-30T12:52:32.310Z</time>
      </trkpt>
      <trkpt lat="46.36607" lon="5.80776">
        <ele>470.707239</ele>
        <time>2021-04-30T12:52:47.198Z</time>
      </trkpt>
      <trkpt lat="46.36604" lon="5.80804">
        <ele>471.8152</ele>
        <time>2021-04-30T12:52:58.000Z</time>
      </trkpt>
      <trkpt lat="46.36611" lon="5.80842">
        <ele>473.305025</ele>
        <time>2021-04-30T12:53:13.109Z</time>
      </trkpt>
      <trkpt lat="46.36638" lon="5.80891">
        <ele>476.564768</ele>
        <time>2021-04-30T12:53:37.902Z</time>
      </trkpt>
      <trkpt lat="46.36653" lon="5.80942">
        <ele>479.972639</ele>
        <time>2021-04-30T12:54:02.925Z</time>
      </trkpt>
      <trkpt lat="46.36652" lon="5.80982">
        <ele>482.430421</ele>
        <time>2021-04-30T12:54:22.617Z</time>
      </trkpt>
      <trkpt lat="46.36633" lon="5.81054">
        <ele>487.152918</ele>
        <time>2021-04-30T12:55:02.723Z</time>
      </trkpt>
      <trkpt lat="46.3664" lon="5.81089">
        <ele>489.418595</ele>
        <time>2021-04-30T12:55:21.693Z</time>
      </trkpt>
      <trkpt lat="46.36653" lon="5.81147">
        <ele>493.527395</ele>
        <time>2021-04-30T12:55:53.853Z</time>
      </trkpt>
      <trkpt lat="46.36665" lon="5.81203">
        <ele>497.637734</ele>
        <time>2021-04-30T12:56:26.308Z</time>
      </trkpt>
      <trkpt lat="46.36693" lon="5.81277">
        <ele>503.479052</ele>
        <time>2021-04-30T12:57:09.118Z</time>
      </trkpt>
      <trkpt lat="46.36739" lon="5.81359">
        <ele>510.646997</ele>
        <time>2021-04-30T12:58:04.038Z</time>
      </trkpt>
      <trkpt lat="46.36742" lon="5.8137">
        <ele>511.404102</ele>
        <time>2021-04-30T12:58:10.639Z</time>
      </trkpt>
      <trkpt lat="46.36747" lon="5.81385">
        <ele>512.457694</ele>
        <time>2021-04-30T12:58:17.418Z</time>
      </trkpt>
      <trkpt lat="46.36765" lon="5.81439">
        <ele>516.343803</ele>
        <time>2021-04-30T12:58:43.651Z</time>
      </trkpt>
      <trkpt lat="46.3678" lon="5.81459">
        <ele>518.196775</ele>
        <time>2021-04-30T12:58:56.429Z</time>
      </trkpt>
      <trkpt lat="46.36792" lon="5.81469">
        <ele>519.559429</ele>
        <time>2021-04-30T12:59:06.972Z</time>
      </trkpt>
      <trkpt lat="46.36796" lon="5.81473">
        <ele>519.962451</ele>
        <time>2021-04-30T12:59:11.120Z</time>
      </trkpt>
      <trkpt lat="46.3682" lon="5.81522">
        <ele>523.864582</ele>
        <time>2021-04-30T12:59:42.637Z</time>
      </trkpt>
      <trkpt lat="46.3686" lon="5.81558">
        <ele>528.999083</ele>
        <time>2021-04-30T13:00:17.562Z</time>
      </trkpt>
      <trkpt lat="46.3687" lon="5.8161">
        <ele>533.359413</ele>
        <time>2021-04-30T13:00:47.685Z</time>
      </trkpt>
      <trkpt lat="46.36872" lon="5.81625">
        <ele>534.54821</ele>
        <time>2021-04-30T13:00:58.509Z</time>
      </trkpt>
      <trkpt lat="46.36872" lon="5.81631">
        <ele>535.081513</ele>
        <time>2021-04-30T13:01:03.073Z</time>
      </trkpt>
      <trkpt lat="46.36876" lon="5.81638">
        <ele>535.779238</ele>
        <time>2021-04-30T13:01:08.046Z</time>
      </trkpt>
      <trkpt lat="46.36892" lon="5.81664">
        <ele>538.598575</ele>
        <time>2021-04-30T13:01:28.613Z</time>
      </trkpt>
      <trkpt lat="46.36927" lon="5.81657">
        <ele>542.708647</ele>
        <time>2021-04-30T13:01:57.411Z</time>
      </trkpt>
      <trkpt lat="46.36947" lon="5.8166">
        <ele>545.0439</ele>
        <time>2021-04-30T13:02:14.365Z</time>
      </trkpt>
      <trkpt lat="46.36981" lon="5.81687">
        <ele>548.411131</ele>
        <time>2021-04-30T13:02:48.210Z</time>
      </trkpt>
      <trkpt lat="46.36991" lon="5.81713">
        <ele>550.072973</ele>
        <time>2021-04-30T13:03:06.478Z</time>
      </trkpt>
      <trkpt lat="46.37002" lon="5.81733">
        <ele>551.404777</ele>
        <time>2021-04-30T13:03:19.241Z</time>
      </trkpt>
      <trkpt lat="46.3703" lon="5.81758">
        <ele>554.01039</ele>
        <time>2021-04-30T13:03:40.570Z</time>
      </trkpt>
      <trkpt lat="46.37046" lon="5.81788">
        <ele>556.109885</ele>
        <time>2021-04-30T13:03:54.423Z</time>
      </trkpt>
      <trkpt lat="46.37053" lon="5.81797">
        <ele>556.835732</ele>
        <time>2021-04-30T13:04:00.665Z</time>
      </trkpt>
      <trkpt lat="46.3706" lon="5.81797">
        <ele>557.364036</ele>
        <time>2021-04-30T13:04:03.992Z</time>
      </trkpt>
      <trkpt lat="46.37073" lon="5.81797">
        <ele>558.452238</ele>
        <time>2021-04-30T13:04:11.058Z</time>
      </trkpt>
      <trkpt lat="46.37112" lon="5.81767">
        <ele>560.291326</ele>
        <time>2021-04-30T13:04:30.678Z</time>
      </trkpt>
      <trkpt lat="46.37122" lon="5.8176">
        <ele>560.318548</ele>
        <time>2021-04-30T13:04:35.256Z</time>
      </trkpt>
      <trkpt lat="46.37134" lon="5.81749">
        <ele>560.354816</ele>
        <time>2021-04-30T13:04:38.852Z</time>
      </trkpt>
      <trkpt lat="46.37166" lon="5.81745">
        <ele>560.436456</ele>
        <time>2021-04-30T13:04:48.729Z</time>
      </trkpt>
      <trkpt lat="46.37201" lon="5.8175">
        <ele>560.526824</ele>
        <time>2021-04-30T13:04:58.256Z</time>
      </trkpt>
      <trkpt lat="46.37222" lon="5.81758">
        <ele>560.580708</ele>
        <time>2021-04-30T13:05:02.680Z</time>
      </trkpt>
      <trkpt lat="46.37277" lon="5.81783">
        <ele>560.322051</ele>
        <time>2021-04-30T13:05:14.532Z</time>
      </trkpt>
      <trkpt lat="46.37304" lon="5.81796">
        <ele>559.472064</ele>
        <time>2021-04-30T13:05:20.677Z</time>
      </trkpt>
      <trkpt lat="46.37364" lon="5.81806">
        <ele>557.702838</ele>
        <time>2021-04-30T13:05:33.113Z</time>
      </trkpt>
      <trkpt lat="46.3742" lon="5.81843">
        <ele>555.908139</ele>
        <time>2021-04-30T13:05:45.153Z</time>
      </trkpt>
      <trkpt lat="46.37479" lon="5.81856">
        <ele>553.15866</ele>
        <time>2021-04-30T13:05:56.196Z</time>
      </trkpt>
      <trkpt lat="46.37501" lon="5.81869">
        <ele>551.938749</ele>
        <time>2021-04-30T13:06:00.245Z</time>
      </trkpt>
      <trkpt lat="46.37521" lon="5.81889">
        <ele>550.674979</ele>
        <time>2021-04-30T13:06:04.449Z</time>
      </trkpt>
      <trkpt lat="46.37533" lon="5.81917">
        <ele>549.464067</ele>
        <time>2021-04-30T13:06:08.614Z</time>
      </trkpt>
      <trkpt lat="46.37551" lon="5.82018">
        <ele>545.71213</ele>
        <time>2021-04-30T13:06:21.526Z</time>
      </trkpt>
      <trkpt lat="46.37556" lon="5.82031">
        <ele>545.26504</ele>
        <time>2021-04-30T13:06:23.223Z</time>
      </trkpt>
      <trkpt lat="46.37565" lon="5.82059">
        <ele>544.328895</ele>
        <time>2021-04-30T13:06:27.117Z</time>
      </trkpt>
      <trkpt lat="46.37578" lon="5.82087">
        <ele>543.276707</ele>
        <time>2021-04-30T13:06:31.360Z</time>
      </trkpt>
      <trkpt lat="46.37601" lon="5.82113">
        <ele>541.940682</ele>
        <time>2021-04-30T13:06:36.843Z</time>
      </trkpt>
      <trkpt lat="46.37649" lon="5.82148">
        <ele>539.561172</ele>
        <time>2021-04-30T13:06:46.937Z</time>
      </trkpt>
      <trkpt lat="46.37661" lon="5.82169">
        <ele>538.723361</ele>
        <time>2021-04-30T13:06:50.450Z</time>
      </trkpt>
      <trkpt lat="46.37666" lon="5.82221">
        <ele>537.103071</ele>
        <time>2021-04-30T13:06:57.630Z</time>
      </trkpt>
      <trkpt lat="46.37659" lon="5.82303">
        <ele>534.647087</ele>
        <time>2021-04-30T13:07:08.286Z</time>
      </trkpt>
      <trkpt lat="46.37667" lon="5.82347">
        <ele>533.260535</ele>
        <time>2021-04-30T13:07:14.215Z</time>
      </trkpt>
      <trkpt lat="46.37674" lon="5.82374">
        <ele>532.400048</ele>
        <time>2021-04-30T13:07:17.921Z</time>
      </trkpt>
      <trkpt lat="46.37712" lon="5.82449">
        <ele>529.386365</ele>
        <time>2021-04-30T13:07:29.593Z</time>
      </trkpt>
      <trkpt lat="46.37728" lon="5.82524">
        <ele>526.031709</ele>
        <time>2021-04-30T13:07:39.252Z</time>
      </trkpt>
      <trkpt lat="46.37727" lon="5.82606">
        <ele>522.537044</ele>
        <time>2021-04-30T13:07:49.050Z</time>
      </trkpt>
      <trkpt lat="46.377" lon="5.82717">
        <ele>517.243881</ele>
        <time>2021-04-30T13:08:03.218Z</time>
      </trkpt>
      <trkpt lat="46.37674" lon="5.8279">
        <ele>513.05769</ele>
        <time>2021-04-30T13:08:12.845Z</time>
      </trkpt>
      <trkpt lat="46.37674" lon="5.82803">
        <ele>512.420758</ele>
        <time>2021-04-30T13:08:14.369Z</time>
      </trkpt>
      <trkpt lat="46.37679" lon="5.82822">
        <ele>511.400164</ele>
        <time>2021-04-30T13:08:16.602Z</time>
      </trkpt>
      <trkpt lat="46.37726" lon="5.82852">
        <ele>507.549917</ele>
        <time>2021-04-30T13:08:25.496Z</time>
      </trkpt>
      <trkpt lat="46.37765" lon="5.8289">
        <ele>504.521838</ele>
        <time>2021-04-30T13:08:33.514Z</time>
      </trkpt>
      <trkpt lat="46.37768" lon="5.82896">
        <ele>504.239402</ele>
        <time>2021-04-30T13:08:34.303Z</time>
      </trkpt>
      <trkpt lat="46.3778" lon="5.82919">
        <ele>503.14054</ele>
        <time>2021-04-30T13:08:37.960Z</time>
      </trkpt>
      <trkpt lat="46.37795" lon="5.82966">
        <ele>501.161386</ele>
        <time>2021-04-30T13:08:44.258Z</time>
      </trkpt>
      <trkpt lat="46.37804" lon="5.82998">
        <ele>499.855183</ele>
        <time>2021-04-30T13:08:48.358Z</time>
      </trkpt>
      <trkpt lat="46.37921" lon="5.834">
        <ele>485.434341</ele>
        <time>2021-04-30T13:09:45.911Z</time>
      </trkpt>
      <trkpt lat="46.37935" lon="5.83469">
        <ele>481.807717</ele>
        <time>2021-04-30T13:09:54.498Z</time>
      </trkpt>
      <trkpt lat="46.37941" lon="5.8358">
        <ele>476.178326</ele>
        <time>2021-04-30T13:10:07.281Z</time>
      </trkpt>
      <trkpt lat="46.3794" lon="5.83646">
        <ele>471.124726</ele>
        <time>2021-04-30T13:10:14.534Z</time>
      </trkpt>
      <trkpt lat="46.37903" lon="5.83727">
        <ele>463.196142</ele>
        <time>2021-04-30T13:10:25.169Z</time>
      </trkpt>
      <trkpt lat="46.37886" lon="5.838">
        <ele>456.874218</ele>
        <time>2021-04-30T13:10:33.706Z</time>
      </trkpt>
      <trkpt lat="46.37881" lon="5.83888">
        <ele>451.28485</ele>
        <time>2021-04-30T13:10:43.486Z</time>
      </trkpt>
      <trkpt lat="46.3788" lon="5.83928">
        <ele>449.1168</ele>
        <time>2021-04-30T13:10:47.945Z</time>
      </trkpt>
      <trkpt lat="46.37873" lon="5.83986">
        <ele>445.907555</ele>
        <time>2021-04-30T13:10:54.784Z</time>
      </trkpt>
      <trkpt lat="46.37874" lon="5.83998">
        <ele>445.245684</ele>
        <time>2021-04-30T13:10:56.265Z</time>
      </trkpt>
      <trkpt lat="46.37874" lon="5.84005">
        <ele>444.829983</ele>
        <time>2021-04-30T13:10:57.294Z</time>
      </trkpt>
      <trkpt lat="46.37877" lon="5.84051">
        <ele>442.324931</ele>
        <time>2021-04-30T13:11:02.778Z</time>
      </trkpt>
      <trkpt lat="46.37893" lon="5.84114">
        <ele>440.297937</ele>
        <time>2021-04-30T13:11:11.810Z</time>
      </trkpt>
      <trkpt lat="46.37897" lon="5.84119">
        <ele>440.29964</ele>
        <time>2021-04-30T13:11:12.975Z</time>
      </trkpt>
      <trkpt lat="46.37901" lon="5.84121">
        <ele>440.300902</ele>
        <time>2021-04-30T13:11:13.657Z</time>
      </trkpt>
      <trkpt lat="46.37893" lon="5.84162">
        <ele>440.309885</ele>
        <time>2021-04-30T13:11:21.694Z</time>
      </trkpt>
      <trkpt lat="46.3789" lon="5.84181">
        <ele>440.313936</ele>
        <time>2021-04-30T13:11:24.408Z</time>
      </trkpt>
      <trkpt lat="46.37889" lon="5.84202">
        <ele>440.318453</ele>
        <time>2021-04-30T13:11:29.153Z</time>
      </trkpt>
      <trkpt lat="46.37888" lon="5.84243">
        <ele>440.327103</ele>
        <time>2021-04-30T13:11:36.651Z</time>
      </trkpt>
      <trkpt lat="46.37881" lon="5.84296">
        <ele>440.338447</ele>
        <time>2021-04-30T13:11:50.213Z</time>
      </trkpt>
      <trkpt lat="46.37854" lon="5.84414">
        <ele>442.664183</ele>
        <time>2021-04-30T13:12:28.550Z</time>
      </trkpt>
      <trkpt lat="46.37844" lon="5.84447">
        <ele>443.632623</ele>
        <time>2021-04-30T13:12:39.427Z</time>
      </trkpt>
      <trkpt lat="46.37816" lon="5.84505">
        <ele>445.548252</ele>
        <time>2021-04-30T13:13:03.448Z</time>
      </trkpt>
      <trkpt lat="46.37806" lon="5.84545">
        <ele>446.6919</ele>
        <time>2021-04-30T13:13:17.933Z</time>
      </trkpt>
      <trkpt lat="46.37803" lon="5.84723">
        <ele>449.749084</ele>
        <time>2021-04-30T13:14:12.245Z</time>
      </trkpt>
      <trkpt lat="46.3781" lon="5.84768">
        <ele>450.458527</ele>
        <time>2021-04-30T13:14:22.830Z</time>
      </trkpt>
      <trkpt lat="46.37825" lon="5.84819">
        <ele>451.323893</ele>
        <time>2021-04-30T13:14:34.158Z</time>
      </trkpt>
      <trkpt lat="46.37857" lon="5.84922">
        <ele>449.53653</ele>
        <time>2021-04-30T13:14:51.373Z</time>
      </trkpt>
      <trkpt lat="46.37862" lon="5.8494">
        <ele>449.186727</ele>
        <time>2021-04-30T13:14:53.936Z</time>
      </trkpt>
      <trkpt lat="46.3788" lon="5.84989">
        <ele>448.201234</ele>
        <time>2021-04-30T13:15:01.184Z</time>
      </trkpt>
      <trkpt lat="46.37913" lon="5.85053">
        <ele>446.757943</ele>
        <time>2021-04-30T13:15:11.659Z</time>
      </trkpt>
      <trkpt lat="46.37939" lon="5.85091">
        <ele>445.317318</ele>
        <time>2021-04-30T13:15:18.608Z</time>
      </trkpt>
      <trkpt lat="46.37996" lon="5.85172">
        <ele>442.18833</ele>
        <time>2021-04-30T13:15:34.085Z</time>
      </trkpt>
      <trkpt lat="46.38069" lon="5.85265">
        <ele>437.919936</ele>
        <time>2021-04-30T13:15:52.034Z</time>
      </trkpt>
      <trkpt lat="46.38082" lon="5.85281">
        <ele>437.058999</ele>
        <time>2021-04-30T13:15:55.109Z</time>
      </trkpt>
      <trkpt lat="46.38081" lon="5.85286">
        <ele>436.866027</ele>
        <time>2021-04-30T13:15:55.896Z</time>
      </trkpt>
      <trkpt lat="46.38086" lon="5.853">
        <ele>436.306631</ele>
        <time>2021-04-30T13:15:57.824Z</time>
      </trkpt>
      <trkpt lat="46.38089" lon="5.85303">
        <ele>436.111176</ele>
        <time>2021-04-30T13:15:58.759Z</time>
      </trkpt>
      <trkpt lat="46.38092" lon="5.85304">
        <ele>435.948437</ele>
        <time>2021-04-30T13:15:59.323Z</time>
      </trkpt>
      <trkpt lat="46.38095" lon="5.85304">
        <ele>435.781065</ele>
        <time>2021-04-30T13:15:59.996Z</time>
      </trkpt>
      <trkpt lat="46.38098" lon="5.85303">
        <ele>435.614174</ele>
        <time>2021-04-30T13:16:00.565Z</time>
      </trkpt>
      <trkpt lat="46.38101" lon="5.85301">
        <ele>435.434994</ele>
        <time>2021-04-30T13:16:01.187Z</time>
      </trkpt>
      <trkpt lat="46.38104" lon="5.85297">
        <ele>435.256973</ele>
        <time>2021-04-30T13:16:01.812Z</time>
      </trkpt>
      <trkpt lat="46.38111" lon="5.85296">
        <ele>434.868939</ele>
        <time>2021-04-30T13:16:03.240Z</time>
      </trkpt>
      <trkpt lat="46.38118" lon="5.85298">
        <ele>434.525312</ele>
        <time>2021-04-30T13:16:04.431Z</time>
      </trkpt>
      <trkpt lat="46.38118" lon="5.85299">
        <ele>434.472358</ele>
        <time>2021-04-30T13:16:04.581Z</time>
      </trkpt>
      <trkpt lat="46.3822" lon="5.8541">
        <ele>426.946258</ele>
        <time>2021-04-30T13:16:26.922Z</time>
      </trkpt>
      <trkpt lat="46.38231" lon="5.8543">
        <ele>425.676257</ele>
        <time>2021-04-30T13:16:29.884Z</time>
      </trkpt>
      <trkpt lat="46.38243" lon="5.85477">
        <ele>423.243421</ele>
        <time>2021-04-30T13:16:35.818Z</time>
      </trkpt>
      <trkpt lat="46.38264" lon="5.85674">
        <ele>414.07616</ele>
        <time>2021-04-30T13:16:59.287Z</time>
      </trkpt>
      <trkpt lat="46.38266" lon="5.8573">
        <ele>411.738277</ele>
        <time>2021-04-30T13:17:05.951Z</time>
      </trkpt>
      <trkpt lat="46.38258" lon="5.85826">
        <ele>407.675533</ele>
        <time>2021-04-30T13:17:18.104Z</time>
      </trkpt>
      <trkpt lat="46.38258" lon="5.85832">
        <ele>407.45023</ele>
        <time>2021-04-30T13:17:18.700Z</time>
      </trkpt>
      <trkpt lat="46.38256" lon="5.85833">
        <ele>407.354957</ele>
        <time>2021-04-30T13:17:19.169Z</time>
      </trkpt>
      <trkpt lat="46.38255" lon="5.85834">
        <ele>407.249703</ele>
        <time>2021-04-30T13:17:19.497Z</time>
      </trkpt>
      <trkpt lat="46.38254" lon="5.85836">
        <ele>407.150109</ele>
        <time>2021-04-30T13:17:19.965Z</time>
      </trkpt>
      <trkpt lat="46.38254" lon="5.85838">
        <ele>407.055218</ele>
        <time>2021-04-30T13:17:20.262Z</time>
      </trkpt>
      <trkpt lat="46.38254" lon="5.8584">
        <ele>406.963263</ele>
        <time>2021-04-30T13:17:20.565Z</time>
      </trkpt>
      <trkpt lat="46.38254" lon="5.85843">
        <ele>406.868462</ele>
        <time>2021-04-30T13:17:20.860Z</time>
      </trkpt>
      <trkpt lat="46.38255" lon="5.85844">
        <ele>406.772069</ele>
        <time>2021-04-30T13:17:21.133Z</time>
      </trkpt>
      <trkpt lat="46.38257" lon="5.85846">
        <ele>406.678889</ele>
        <time>2021-04-30T13:17:21.407Z</time>
      </trkpt>
      <trkpt lat="46.38255" lon="5.85849">
        <ele>406.60037</ele>
        <time>2021-04-30T13:17:22.197Z</time>
      </trkpt>
      <trkpt lat="46.38252" lon="5.85857">
        <ele>406.484426</ele>
        <time>2021-04-30T13:17:23.307Z</time>
      </trkpt>
      <trkpt lat="46.38251" lon="5.85862">
        <ele>406.402494</ele>
        <time>2021-04-30T13:17:24.226Z</time>
      </trkpt>
      <trkpt lat="46.38251" lon="5.85865">
        <ele>406.36708</ele>
        <time>2021-04-30T13:17:24.571Z</time>
      </trkpt>
      <trkpt lat="46.3825" lon="5.85874">
        <ele>406.232642</ele>
        <time>2021-04-30T13:17:25.678Z</time>
      </trkpt>
      <trkpt lat="46.38258" lon="5.85911">
        <ele>405.684456</ele>
        <time>2021-04-30T13:17:31.388Z</time>
      </trkpt>
      <trkpt lat="46.3827" lon="5.85926">
        <ele>405.366453</ele>
        <time>2021-04-30T13:17:34.325Z</time>
      </trkpt>
      <trkpt lat="46.38337" lon="5.85971">
        <ele>403.865244</ele>
        <time>2021-04-30T13:17:51.082Z</time>
      </trkpt>
      <trkpt lat="46.38373" lon="5.85989">
        <ele>403.080294</ele>
        <time>2021-04-30T13:18:00.555Z</time>
      </trkpt>
      <trkpt lat="46.38448" lon="5.86044">
        <ele>403.135606</ele>
        <time>2021-04-30T13:18:19.584Z</time>
      </trkpt>
      <trkpt lat="46.38456" lon="5.8605">
        <ele>403.15256</ele>
        <time>2021-04-30T13:18:22.791Z</time>
      </trkpt>
      <trkpt lat="46.38473" lon="5.86058">
        <ele>403.185704</ele>
        <time>2021-04-30T13:18:26.715Z</time>
      </trkpt>
      <trkpt lat="46.38491" lon="5.86064">
        <ele>403.221377</ele>
        <time>2021-04-30T13:18:31.851Z</time>
      </trkpt>
      <trkpt lat="46.38507" lon="5.86067">
        <ele>403.251223</ele>
        <time>2021-04-30T13:18:35.832Z</time>
      </trkpt>
      <trkpt lat="46.38516" lon="5.86069">
        <ele>403.267989</ele>
        <time>2021-04-30T13:18:38.603Z</time>
      </trkpt>
      <trkpt lat="46.38525" lon="5.86071">
        <ele>403.285246</ele>
        <time>2021-04-30T13:18:43.420Z</time>
      </trkpt>
      <trkpt lat="46.38528" lon="5.86072">
        <ele>403.290542</ele>
        <time>2021-04-30T13:18:44.233Z</time>
      </trkpt>
      <trkpt lat="46.38527" lon="5.86075">
        <ele>403.294505</ele>
        <time>2021-04-30T13:18:44.814Z</time>
      </trkpt>
      <trkpt lat="46.38528" lon="5.86084">
        <ele>403.305945</ele>
        <time>2021-04-30T13:18:46.589Z</time>
      </trkpt>
      <trkpt lat="46.38533" lon="5.86087">
        <ele>403.317502</ele>
        <time>2021-04-30T13:18:48.668Z</time>
      </trkpt>
      <trkpt lat="46.38535" lon="5.86086">
        <ele>403.321608</ele>
        <time>2021-04-30T13:18:49.461Z</time>
      </trkpt>
      <trkpt lat="46.38537" lon="5.86085">
        <ele>403.324953</ele>
        <time>2021-04-30T13:18:50.038Z</time>
      </trkpt>
      <trkpt lat="46.38538" lon="5.86083">
        <ele>403.418235</ele>
        <time>2021-04-30T13:18:50.628Z</time>
      </trkpt>
      <trkpt lat="46.38539" lon="5.8608">
        <ele>403.51273</ele>
        <time>2021-04-30T13:18:51.237Z</time>
      </trkpt>
      <trkpt lat="46.38538" lon="5.86073">
        <ele>403.791531</ele>
        <time>2021-04-30T13:18:53.982Z</time>
      </trkpt>
      <trkpt lat="46.38537" lon="5.86071">
        <ele>403.891187</ele>
        <time>2021-04-30T13:18:55.029Z</time>
      </trkpt>
      <trkpt lat="46.38538" lon="5.86068">
        <ele>404.023042</ele>
        <time>2021-04-30T13:18:56.387Z</time>
      </trkpt>
      <trkpt lat="46.38544" lon="5.86058">
        <ele>404.483112</ele>
        <time>2021-04-30T13:18:59.793Z</time>
      </trkpt>
      <trkpt lat="46.38547" lon="5.86056">
        <ele>404.664305</ele>
        <time>2021-04-30T13:19:00.928Z</time>
      </trkpt>
      <trkpt lat="46.38561" lon="5.86045">
        <ele>405.521327</ele>
        <time>2021-04-30T13:19:07.570Z</time>
      </trkpt>
      <trkpt lat="46.38575" lon="5.86033">
        <ele>406.365496</ele>
        <time>2021-04-30T13:19:15.860Z</time>
      </trkpt>
      <trkpt lat="46.38582" lon="5.86032">
        <ele>406.72087</ele>
        <time>2021-04-30T13:19:18.727Z</time>
      </trkpt>
      <trkpt lat="46.38597" lon="5.86044">
        <ele>407.617724</ele>
        <time>2021-04-30T13:19:26.771Z</time>
      </trkpt>
      <trkpt lat="46.38613" lon="5.86065">
        <ele>408.741866</ele>
        <time>2021-04-30T13:19:37.109Z</time>
      </trkpt>
      <trkpt lat="46.38632" lon="5.86083">
        <ele>409.913549</ele>
        <time>2021-04-30T13:19:49.166Z</time>
      </trkpt>
      <trkpt lat="46.38704" lon="5.86199">
        <ele>416.866749</ele>
        <time>2021-04-30T13:21:05.649Z</time>
      </trkpt>
      <trkpt lat="46.38728" lon="5.86254">
        <ele>420.300093</ele>
        <time>2021-04-30T13:21:32.183Z</time>
      </trkpt>
      <trkpt lat="46.38732" lon="5.86269">
        <ele>421.123424</ele>
        <time>2021-04-30T13:21:40.192Z</time>
      </trkpt>
      <trkpt lat="46.38726" lon="5.8628">
        <ele>421.851275</ele>
        <time>2021-04-30T13:21:44.018Z</time>
      </trkpt>
      <trkpt lat="46.38691" lon="5.86337">
        <ele>425.87638</ele>
        <time>2021-04-30T13:22:16.513Z</time>
      </trkpt>
      <trkpt lat="46.3866" lon="5.86362">
        <ele>428.405589</ele>
        <time>2021-04-30T13:22:41.429Z</time>
      </trkpt>
      <trkpt lat="46.38657" lon="5.86365">
        <ele>428.632897</ele>
        <time>2021-04-30T13:22:43.313Z</time>
      </trkpt>
      <trkpt lat="46.38654" lon="5.86379">
        <ele>429.346587</ele>
        <time>2021-04-30T13:22:53.132Z</time>
      </trkpt>
      <trkpt lat="46.38651" lon="5.86389">
        <ele>429.870049</ele>
        <time>2021-04-30T13:22:56.705Z</time>
      </trkpt>
      <trkpt lat="46.38645" lon="5.86416">
        <ele>431.199008</ele>
        <time>2021-04-30T13:23:08.575Z</time>
      </trkpt>
      <trkpt lat="46.38643" lon="5.86423">
        <ele>431.580373</ele>
        <time>2021-04-30T13:23:14.846Z</time>
      </trkpt>
      <trkpt lat="46.38642" lon="5.8643">
        <ele>431.932367</ele>
        <time>2021-04-30T13:23:17.251Z</time>
      </trkpt>
      <trkpt lat="46.38683" lon="5.86446">
        <ele>434.851003</ele>
        <time>2021-04-30T13:23:40.123Z</time>
      </trkpt>
      <trkpt lat="46.38693" lon="5.86447">
        <ele>435.601771</ele>
        <time>2021-04-30T13:23:45.023Z</time>
      </trkpt>
      <trkpt lat="46.3871" lon="5.86454">
        <ele>436.778157</ele>
        <time>2021-04-30T13:23:56.519Z</time>
      </trkpt>
      <trkpt lat="46.38723" lon="5.86461">
        <ele>437.74638</ele>
        <time>2021-04-30T13:24:03.507Z</time>
      </trkpt>
      <trkpt lat="46.38726" lon="5.86456">
        <ele>438.081511</ele>
        <time>2021-04-30T13:24:05.516Z</time>
      </trkpt>
      <trkpt lat="46.38729" lon="5.86453">
        <ele>438.297165</ele>
        <time>2021-04-30T13:24:07.624Z</time>
      </trkpt>
      <trkpt lat="46.38731" lon="5.86467">
        <ele>438.976401</ele>
        <time>2021-04-30T13:24:20.622Z</time>
      </trkpt>
      <trkpt lat="46.38735" lon="5.86486">
        <ele>439.387288</ele>
        <time>2021-04-30T13:24:28.697Z</time>
      </trkpt>
      <trkpt lat="46.38732" lon="5.86496">
        <ele>439.605301</ele>
        <time>2021-04-30T13:24:31.112Z</time>
      </trkpt>
      <trkpt lat="46.38732" lon="5.86503">
        <ele>439.762048</ele>
        <time>2021-04-30T13:24:34.267Z</time>
      </trkpt>
      <trkpt lat="46.38738" lon="5.86503">
        <ele>439.919245</ele>
        <time>2021-04-30T13:24:38.206Z</time>
      </trkpt>
      <trkpt lat="46.38763" lon="5.8652">
        <ele>440.744735</ele>
        <time>2021-04-30T13:24:53.305Z</time>
      </trkpt>
      <trkpt lat="46.38773" lon="5.86518">
        <ele>441.042217</ele>
        <time>2021-04-30T13:25:00.230Z</time>
      </trkpt>
      <trkpt lat="46.38777" lon="5.8652">
        <ele>441.180568</ele>
        <time>2021-04-30T13:25:04.090Z</time>
      </trkpt>
      <trkpt lat="46.38784" lon="5.86582">
        <ele>442.476534</ele>
        <time>2021-04-30T13:25:22.842Z</time>
      </trkpt>
      <trkpt lat="46.38785" lon="5.86585">
        <ele>442.535661</ele>
        <time>2021-04-30T13:25:23.294Z</time>
      </trkpt>
      <trkpt lat="46.38785" lon="5.86588">
        <ele>442.598755</ele>
        <time>2021-04-30T13:25:24.020Z</time>
      </trkpt>
      <trkpt lat="46.38782" lon="5.8659">
        <ele>442.692248</ele>
        <time>2021-04-30T13:25:24.560Z</time>
      </trkpt>
      <trkpt lat="46.38761" lon="5.866">
        <ele>443.362482</ele>
        <time>2021-04-30T13:25:29.987Z</time>
      </trkpt>
      <trkpt lat="46.38741" lon="5.86616">
        <ele>444.030358</ele>
        <time>2021-04-30T13:25:34.769Z</time>
      </trkpt>
      <trkpt lat="46.38738" lon="5.86621">
        <ele>444.162348</ele>
        <time>2021-04-30T13:25:35.997Z</time>
      </trkpt>
      <trkpt lat="46.38737" lon="5.86624">
        <ele>444.235117</ele>
        <time>2021-04-30T13:25:36.522Z</time>
      </trkpt>
      <trkpt lat="46.38736" lon="5.86625">
        <ele>444.263786</ele>
        <time>2021-04-30T13:25:36.784Z</time>
      </trkpt>
      <trkpt lat="46.38732" lon="5.86632">
        <ele>444.190565</ele>
        <time>2021-04-30T13:25:40.547Z</time>
      </trkpt>
      <trkpt lat="46.38687" lon="5.86707">
        <ele>443.267632</ele>
        <time>2021-04-30T13:25:54.760Z</time>
      </trkpt>
      <trkpt lat="46.38684" lon="5.8671">
        <ele>443.211517</ele>
        <time>2021-04-30T13:25:56.944Z</time>
      </trkpt>
      <trkpt lat="46.38681" lon="5.86711">
        <ele>443.176087</ele>
        <time>2021-04-30T13:25:58.057Z</time>
      </trkpt>
      <trkpt lat="46.38676" lon="5.86713">
        <ele>443.103341</ele>
        <time>2021-04-30T13:25:59.534Z</time>
      </trkpt>
      <trkpt lat="46.38671" lon="5.86712">
        <ele>443.036727</ele>
        <time>2021-04-30T13:26:00.366Z</time>
      </trkpt>
      <trkpt lat="46.38668" lon="5.86712">
        <ele>442.995872</ele>
        <time>2021-04-30T13:26:00.894Z</time>
      </trkpt>
      <trkpt lat="46.38665" lon="5.86711">
        <ele>442.955016</ele>
        <time>2021-04-30T13:26:01.435Z</time>
      </trkpt>
      <trkpt lat="46.38663" lon="5.86712">
        <ele>442.922135</ele>
        <time>2021-04-30T13:26:01.864Z</time>
      </trkpt>
      <trkpt lat="46.38657" lon="5.86713">
        <ele>442.841465</ele>
        <time>2021-04-30T13:26:02.980Z</time>
      </trkpt>
      <trkpt lat="46.38652" lon="5.86716">
        <ele>442.767796</ele>
        <time>2021-04-30T13:26:04.216Z</time>
      </trkpt>
      <trkpt lat="46.38645" lon="5.86728">
        <ele>442.624325</ele>
        <time>2021-04-30T13:26:08.286Z</time>
      </trkpt>
      <trkpt lat="46.3863" lon="5.86752">
        <ele>442.315172</ele>
        <time>2021-04-30T13:26:12.532Z</time>
      </trkpt>
      <trkpt lat="46.38624" lon="5.86763">
        <ele>442.190067</ele>
        <time>2021-04-30T13:26:17.157Z</time>
      </trkpt>
      <trkpt lat="46.38599" lon="5.86789">
        <ele>441.85665</ele>
        <time>2021-04-30T13:26:23.529Z</time>
      </trkpt>
      <trkpt lat="46.38535" lon="5.86844">
        <ele>442.1948</ele>
        <time>2021-04-30T13:26:42.914Z</time>
      </trkpt>
      <trkpt lat="46.38504" lon="5.86896">
        <ele>442.410354</ele>
        <time>2021-04-30T13:27:01.669Z</time>
      </trkpt>
      <trkpt lat="46.3847" lon="5.86934">
        <ele>442.605915</ele>
        <time>2021-04-30T13:27:15.273Z</time>
      </trkpt>
      <trkpt lat="46.38435" lon="5.86988">
        <ele>441.99628</ele>
        <time>2021-04-30T13:27:28.028Z</time>
      </trkpt>
      <trkpt lat="46.38423" lon="5.87002">
        <ele>441.742872</ele>
        <time>2021-04-30T13:27:31.532Z</time>
      </trkpt>
      <trkpt lat="46.3842" lon="5.87006">
        <ele>441.681489</ele>
        <time>2021-04-30T13:27:32.456Z</time>
      </trkpt>
      <trkpt lat="46.38414" lon="5.8701">
        <ele>441.579896</ele>
        <time>2021-04-30T13:27:34.048Z</time>
      </trkpt>
      <trkpt lat="46.38388" lon="5.87024">
        <ele>441.138227</ele>
        <time>2021-04-30T13:27:40.098Z</time>
      </trkpt>
      <trkpt lat="46.38359" lon="5.87038">
        <ele>440.634143</ele>
        <time>2021-04-30T13:27:46.264Z</time>
      </trkpt>
      <trkpt lat="46.38349" lon="5.87039">
        <ele>440.470774</ele>
        <time>2021-04-30T13:27:48.292Z</time>
      </trkpt>
      <trkpt lat="46.38339" lon="5.87037">
        <ele>440.311297</ele>
        <time>2021-04-30T13:27:50.225Z</time>
      </trkpt>
      <trkpt lat="46.38334" lon="5.87035">
        <ele>440.229189</ele>
        <time>2021-04-30T13:27:51.331Z</time>
      </trkpt>
      <trkpt lat="46.38324" lon="5.8703">
        <ele>440.060366</ele>
        <time>2021-04-30T13:27:53.477Z</time>
      </trkpt>
      <trkpt lat="46.38285" lon="5.87007">
        <ele>439.328871</ele>
        <time>2021-04-30T13:28:02.356Z</time>
      </trkpt>
      <trkpt lat="46.38273" lon="5.87007">
        <ele>439.116587</ele>
        <time>2021-04-30T13:28:04.473Z</time>
      </trkpt>
      <trkpt lat="46.38251" lon="5.87026">
        <ele>438.645934</ele>
        <time>2021-04-30T13:28:09.558Z</time>
      </trkpt>
      <trkpt lat="46.38246" lon="5.87032">
        <ele>438.519138</ele>
        <time>2021-04-30T13:28:10.721Z</time>
      </trkpt>
      <trkpt lat="46.38236" lon="5.87046">
        <ele>438.263957</ele>
        <time>2021-04-30T13:28:13.626Z</time>
      </trkpt>
      <trkpt lat="46.38211" lon="5.87089">
        <ele>437.564631</ele>
        <time>2021-04-30T13:28:20.840Z</time>
      </trkpt>
      <trkpt lat="46.38208" lon="5.87096">
        <ele>437.456758</ele>
        <time>2021-04-30T13:28:21.969Z</time>
      </trkpt>
      <trkpt lat="46.38202" lon="5.87114">
        <ele>437.200001</ele>
        <time>2021-04-30T13:28:24.658Z</time>
      </trkpt>
      <trkpt lat="46.38197" lon="5.87131">
        <ele>436.967039</ele>
        <time>2021-04-30T13:28:28.472Z</time>
      </trkpt>
      <trkpt lat="46.38136" lon="5.87255">
        <ele>439.914728</ele>
        <time>2021-04-30T13:29:12.054Z</time>
      </trkpt>
      <trkpt lat="46.38112" lon="5.87299">
        <ele>441.653339</ele>
        <time>2021-04-30T13:29:33.298Z</time>
      </trkpt>
      <trkpt lat="46.38088" lon="5.87343">
        <ele>443.362948</ele>
        <time>2021-04-30T13:29:54.942Z</time>
      </trkpt>
      <trkpt lat="46.38052" lon="5.87424">
        <ele>446.088962</ele>
        <time>2021-04-30T13:30:32.999Z</time>
      </trkpt>
      <trkpt lat="46.38027" lon="5.8746">
        <ele>447.447153</ele>
        <time>2021-04-30T13:30:52.630Z</time>
      </trkpt>
      <trkpt lat="46.38002" lon="5.87476">
        <ele>448.502566</ele>
        <time>2021-04-30T13:31:07.904Z</time>
      </trkpt>
      <trkpt lat="46.3797" lon="5.87481">
        <ele>449.744962</ele>
        <time>2021-04-30T13:31:20.518Z</time>
      </trkpt>
      <trkpt lat="46.37965" lon="5.8748">
        <ele>449.94358</ele>
        <time>2021-04-30T13:31:24.056Z</time>
      </trkpt>
      <trkpt lat="46.37959" lon="5.87479">
        <ele>450.196571</ele>
        <time>2021-04-30T13:31:25.366Z</time>
      </trkpt>
      <trkpt lat="46.37903" lon="5.87448">
        <ele>450.052774</ele>
        <time>2021-04-30T13:31:41.554Z</time>
      </trkpt>
      <trkpt lat="46.37857" lon="5.8744">
        <ele>447.662036</ele>
        <time>2021-04-30T13:31:50.797Z</time>
      </trkpt>
      <trkpt lat="46.37791" lon="5.87393">
        <ele>443.885123</ele>
        <time>2021-04-30T13:32:03.252Z</time>
      </trkpt>
      <trkpt lat="46.37784" lon="5.87387">
        <ele>443.476078</ele>
        <time>2021-04-30T13:32:04.671Z</time>
      </trkpt>
      <trkpt lat="46.37776" lon="5.87379">
        <ele>442.980666</ele>
        <time>2021-04-30T13:32:06.217Z</time>
      </trkpt>
      <trkpt lat="46.37759" lon="5.87353">
        <ele>441.729586</ele>
        <time>2021-04-30T13:32:10.439Z</time>
      </trkpt>
      <trkpt lat="46.37749" lon="5.87335">
        <ele>440.936266</ele>
        <time>2021-04-30T13:32:12.952Z</time>
      </trkpt>
      <trkpt lat="46.37724" lon="5.8728">
        <ele>438.64123</ele>
        <time>2021-04-30T13:32:20.694Z</time>
      </trkpt>
      <trkpt lat="46.37709" lon="5.87256">
        <ele>437.519925</ele>
        <time>2021-04-30T13:32:24.485Z</time>
      </trkpt>
      <trkpt lat="46.37704" lon="5.87254">
        <ele>437.246345</ele>
        <time>2021-04-30T13:32:25.332Z</time>
      </trkpt>
      <trkpt lat="46.377" lon="5.87254">
        <ele>437.014219</ele>
        <time>2021-04-30T13:32:26.200Z</time>
      </trkpt>
      <trkpt lat="46.37684" lon="5.8727">
        <ele>436.044143</ele>
        <time>2021-04-30T13:32:30.182Z</time>
      </trkpt>
      <trkpt lat="46.37682" lon="5.87274">
        <ele>435.863558</ele>
        <time>2021-04-30T13:32:30.769Z</time>
      </trkpt>
      <trkpt lat="46.37674" lon="5.87299">
        <ele>434.930659</ele>
        <time>2021-04-30T13:32:34.023Z</time>
      </trkpt>
      <trkpt lat="46.37663" lon="5.87313">
        <ele>434.198281</ele>
        <time>2021-04-30T13:32:39.060Z</time>
      </trkpt>
      <trkpt lat="46.37629" lon="5.87376">
        <ele>435.932082</ele>
        <time>2021-04-30T13:32:57.037Z</time>
      </trkpt>
      <trkpt lat="46.37623" lon="5.87431">
        <ele>439.04717</ele>
        <time>2021-04-30T13:33:20.094Z</time>
      </trkpt>
      <trkpt lat="46.37618" lon="5.87439">
        <ele>439.669972</ele>
        <time>2021-04-30T13:33:24.210Z</time>
      </trkpt>
      <trkpt lat="46.37616" lon="5.87442">
        <ele>439.878902</ele>
        <time>2021-04-30T13:33:27.751Z</time>
      </trkpt>
      <trkpt lat="46.37605" lon="5.87445">
        <ele>440.80186</ele>
        <time>2021-04-30T13:33:36.406Z</time>
      </trkpt>
      <trkpt lat="46.37573" lon="5.87431">
        <ele>443.456559</ele>
        <time>2021-04-30T13:34:02.194Z</time>
      </trkpt>
      <trkpt lat="46.37553" lon="5.8742">
        <ele>445.191221</ele>
        <time>2021-04-30T13:34:18.873Z</time>
      </trkpt>
      <trkpt lat="46.37548" lon="5.87417">
        <ele>445.642641</ele>
        <time>2021-04-30T13:34:24.442Z</time>
      </trkpt>
      <trkpt lat="46.37544" lon="5.87417">
        <ele>445.925816</ele>
        <time>2021-04-30T13:34:27.444Z</time>
      </trkpt>
      <trkpt lat="46.37529" lon="5.8742">
        <ele>447.171108</ele>
        <time>2021-04-30T13:34:42.587Z</time>
      </trkpt>
      <trkpt lat="46.37473" lon="5.87413">
        <ele>453.839635</ele>
        <time>2021-04-30T13:35:33.934Z</time>
      </trkpt>
      <trkpt lat="46.37414" lon="5.87436">
        <ele>461.360727</ele>
        <time>2021-04-30T13:36:31.751Z</time>
      </trkpt>
      <trkpt lat="46.37388" lon="5.87436">
        <ele>464.517687</ele>
        <time>2021-04-30T13:36:56.614Z</time>
      </trkpt>
      <trkpt lat="46.37369" lon="5.87427">
        <ele>466.93803</ele>
        <time>2021-04-30T13:37:10.971Z</time>
      </trkpt>
      <trkpt lat="46.37298" lon="5.87426">
        <ele>474.081049</ele>
        <time>2021-04-30T13:38:01.167Z</time>
      </trkpt>
      <trkpt lat="46.37295" lon="5.87438">
        <ele>474.856516</ele>
        <time>2021-04-30T13:38:07.887Z</time>
      </trkpt>
      <trkpt lat="46.37273" lon="5.87446">
        <ele>476.825084</ele>
        <time>2021-04-30T13:38:21.935Z</time>
      </trkpt>
      <trkpt lat="46.37264" lon="5.87449">
        <ele>477.688685</ele>
        <time>2021-04-30T13:38:29.577Z</time>
      </trkpt>
      <trkpt lat="46.37233" lon="5.87429">
        <ele>480.696269</ele>
        <time>2021-04-30T13:38:51.465Z</time>
      </trkpt>
      <trkpt lat="46.37185" lon="5.87425">
        <ele>484.942488</ele>
        <time>2021-04-30T13:39:24.878Z</time>
      </trkpt>
      <trkpt lat="46.37162" lon="5.8744">
        <ele>487.166408</ele>
        <time>2021-04-30T13:39:43.421Z</time>
      </trkpt>
      <trkpt lat="46.37155" lon="5.8746">
        <ele>488.450093</ele>
        <time>2021-04-30T13:39:51.505Z</time>
      </trkpt>
      <trkpt lat="46.37147" lon="5.87479">
        <ele>489.801593</ele>
        <time>2021-04-30T13:40:03.724Z</time>
      </trkpt>
      <trkpt lat="46.3714" lon="5.87494">
        <ele>490.898161</ele>
        <time>2021-04-30T13:40:10.726Z</time>
      </trkpt>
      <trkpt lat="46.37117" lon="5.87515">
        <ele>493.218336</ele>
        <time>2021-04-30T13:40:29.450Z</time>
      </trkpt>
      <trkpt lat="46.37098" lon="5.87523">
        <ele>494.883408</ele>
        <time>2021-04-30T13:40:41.043Z</time>
      </trkpt>
      <trkpt lat="46.37095" lon="5.87523">
        <ele>495.160137</ele>
        <time>2021-04-30T13:40:44.583Z</time>
      </trkpt>
      <trkpt lat="46.37095" lon="5.8753">
        <ele>495.548942</ele>
        <time>2021-04-30T13:40:49.192Z</time>
      </trkpt>
      <trkpt lat="46.37045" lon="5.87643">
        <ele>502.882315</ele>
        <time>2021-04-30T13:41:52.087Z</time>
      </trkpt>
      <trkpt lat="46.3704" lon="5.87653">
        <ele>503.437212</ele>
        <time>2021-04-30T13:41:58.751Z</time>
      </trkpt>
      <trkpt lat="46.37026" lon="5.87676">
        <ele>504.789279</ele>
        <time>2021-04-30T13:42:11.249Z</time>
      </trkpt>
      <trkpt lat="46.37016" lon="5.87688">
        <ele>505.542082</ele>
        <time>2021-04-30T13:42:17.882Z</time>
      </trkpt>
      <trkpt lat="46.37005" lon="5.87704">
        <ele>506.526023</ele>
        <time>2021-04-30T13:42:28.631Z</time>
      </trkpt>
      <trkpt lat="46.36974" lon="5.8775">
        <ele>509.307662</ele>
        <time>2021-04-30T13:42:47.359Z</time>
      </trkpt>
      <trkpt lat="46.36956" lon="5.87775">
        <ele>510.910296</ele>
        <time>2021-04-30T13:43:03.030Z</time>
      </trkpt>
      <trkpt lat="46.36922" lon="5.87803">
        <ele>513.326365</ele>
        <time>2021-04-30T13:43:22.687Z</time>
      </trkpt>
      <trkpt lat="46.36922" lon="5.87788">
        <ele>513.977623</ele>
        <time>2021-04-30T13:43:26.331Z</time>
      </trkpt>
      <trkpt lat="46.36918" lon="5.8776">
        <ele>515.197027</ele>
        <time>2021-04-30T13:43:39.714Z</time>
      </trkpt>
      <trkpt lat="46.36914" lon="5.87748">
        <ele>515.794117</ele>
        <time>2021-04-30T13:43:42.706Z</time>
      </trkpt>
      <trkpt lat="46.36908" lon="5.87745">
        <ele>516.162356</ele>
        <time>2021-04-30T13:43:45.494Z</time>
      </trkpt>
      <trkpt lat="46.36893" lon="5.87749">
        <ele>517.082993</ele>
        <time>2021-04-30T13:43:56.258Z</time>
      </trkpt>
      <trkpt lat="46.36888" lon="5.87776">
        <ele>518.274285</ele>
        <time>2021-04-30T13:44:04.970Z</time>
      </trkpt>
      <trkpt lat="46.36889" lon="5.8779">
        <ele>518.876329</ele>
        <time>2021-04-30T13:44:10.494Z</time>
      </trkpt>
      <trkpt lat="46.36891" lon="5.87793">
        <ele>519.073027</ele>
        <time>2021-04-30T13:44:14.471Z</time>
      </trkpt>
      <trkpt lat="46.36895" lon="5.8782">
        <ele>520.215027</ele>
        <time>2021-04-30T13:44:23.310Z</time>
      </trkpt>
      <trkpt lat="46.36896" lon="5.87875">
        <ele>522.581567</ele>
        <time>2021-04-30T13:44:45.539Z</time>
      </trkpt>
      <trkpt lat="46.36892" lon="5.8789">
        <ele>523.243374</ele>
        <time>2021-04-30T13:44:51.488Z</time>
      </trkpt>
      <trkpt lat="46.36884" lon="5.879">
        <ele>524.137657</ele>
        <time>2021-04-30T13:45:00.797Z</time>
      </trkpt>
      <trkpt lat="46.36889" lon="5.87982">
        <ele>529.722756</ele>
        <time>2021-04-30T13:45:39.112Z</time>
      </trkpt>
      <trkpt lat="46.36889" lon="5.88052">
        <ele>534.469564</ele>
        <time>2021-04-30T13:46:17.904Z</time>
      </trkpt>
      <trkpt lat="46.36869" lon="5.88117">
        <ele>539.280485</ele>
        <time>2021-04-30T13:46:58.010Z</time>
      </trkpt>
      <trkpt lat="46.36859" lon="5.88131">
        <ele>540.617773</ele>
        <time>2021-04-30T13:47:08.620Z</time>
      </trkpt>
      <trkpt lat="46.36829" lon="5.8817">
        <ele>545.771378</ele>
        <time>2021-04-30T13:47:35.888Z</time>
      </trkpt>
      <trkpt lat="46.3681" lon="5.88194">
        <ele>549.241361</ele>
        <time>2021-04-30T13:47:56.103Z</time>
      </trkpt>
      <trkpt lat="46.36786" lon="5.88223">
        <ele>553.363617</ele>
        <time>2021-04-30T13:48:25.502Z</time>
      </trkpt>
      <trkpt lat="46.36772" lon="5.8824">
        <ele>555.792194</ele>
        <time>2021-04-30T13:48:42.190Z</time>
      </trkpt>
      <trkpt lat="46.36761" lon="5.88251">
        <ele>557.573812</ele>
        <time>2021-04-30T13:48:56.586Z</time>
      </trkpt>
      <trkpt lat="46.36735" lon="5.88267">
        <ele>561.346793</ele>
        <time>2021-04-30T13:49:24.113Z</time>
      </trkpt>
      <trkpt lat="46.36714" lon="5.88288">
        <ele>564.793164</ele>
        <time>2021-04-30T13:49:52.752Z</time>
      </trkpt>
      <trkpt lat="46.3671" lon="5.88295">
        <ele>565.536449</ele>
        <time>2021-04-30T13:49:58.756Z</time>
      </trkpt>
      <trkpt lat="46.36706" lon="5.88301">
        <ele>566.196693</ele>
        <time>2021-04-30T13:50:06.014Z</time>
      </trkpt>
      <trkpt lat="46.36693" lon="5.88327">
        <ele>568.496081</ele>
        <time>2021-04-30T13:50:29.300Z</time>
      </trkpt>
      <trkpt lat="46.36684" lon="5.8834">
        <ele>569.801384</ele>
        <time>2021-04-30T13:50:40.683Z</time>
      </trkpt>
      <trkpt lat="46.36668" lon="5.88355">
        <ele>571.850249</ele>
        <time>2021-04-30T13:51:00.082Z</time>
      </trkpt>
      <trkpt lat="46.36621" lon="5.8839">
        <ele>577.391619</ele>
        <time>2021-04-30T13:51:39.816Z</time>
      </trkpt>
      <trkpt lat="46.3659" lon="5.88403">
        <ele>580.890454</ele>
        <time>2021-04-30T13:52:03.198Z</time>
      </trkpt>
      <trkpt lat="46.36568" lon="5.8841">
        <ele>583.261016</ele>
        <time>2021-04-30T13:52:19.593Z</time>
      </trkpt>
      <trkpt lat="46.36537" lon="5.88419">
        <ele>583.137665</ele>
        <time>2021-04-30T13:52:35.167Z</time>
      </trkpt>
      <trkpt lat="46.36517" lon="5.88408">
        <ele>582.02905</ele>
        <time>2021-04-30T13:52:40.136Z</time>
      </trkpt>
      <trkpt lat="46.36484" lon="5.88357">
        <ele>579.4773</ele>
        <time>2021-04-30T13:52:48.483Z</time>
      </trkpt>
      <trkpt lat="46.36471" lon="5.88302">
        <ele>577.377936</ele>
        <time>2021-04-30T13:52:54.987Z</time>
      </trkpt>
      <trkpt lat="46.36463" lon="5.8829">
        <ele>576.74444</ele>
        <time>2021-04-30T13:52:56.880Z</time>
      </trkpt>
      <trkpt lat="46.3645" lon="5.88288">
        <ele>576.026513</ele>
        <time>2021-04-30T13:52:59.131Z</time>
      </trkpt>
      <trkpt lat="46.3642" lon="5.8832">
        <ele>574.031408</ele>
        <time>2021-04-30T13:53:05.172Z</time>
      </trkpt>
      <trkpt lat="46.36402" lon="5.88343">
        <ele>572.718286</ele>
        <time>2021-04-30T13:53:09.021Z</time>
      </trkpt>
      <trkpt lat="46.36381" lon="5.88372">
        <ele>571.113567</ele>
        <time>2021-04-30T13:53:13.953Z</time>
      </trkpt>
      <trkpt lat="46.36365" lon="5.88397">
        <ele>569.813405</ele>
        <time>2021-04-30T13:53:18.142Z</time>
      </trkpt>
      <trkpt lat="46.36345" lon="5.88507">
        <ele>565.532394</ele>
        <time>2021-04-30T13:53:32.623Z</time>
      </trkpt>
      <trkpt lat="46.36328" lon="5.88569">
        <ele>566.967977</ele>
        <time>2021-04-30T13:53:48.840Z</time>
      </trkpt>
      <trkpt lat="46.36328" lon="5.8864">
        <ele>569.932856</ele>
        <time>2021-04-30T13:54:15.451Z</time>
      </trkpt>
      <trkpt lat="46.36324" lon="5.88694">
        <ele>572.184929</ele>
        <time>2021-04-30T13:54:37.551Z</time>
      </trkpt>
      <trkpt lat="46.36317" lon="5.8872">
        <ele>573.347438</ele>
        <time>2021-04-30T13:54:49.194Z</time>
      </trkpt>
      <trkpt lat="46.36309" lon="5.88746">
        <ele>574.54302</ele>
        <time>2021-04-30T13:55:04.539Z</time>
      </trkpt>
      <trkpt lat="46.36305" lon="5.88763">
        <ele>575.25665</ele>
        <time>2021-04-30T13:55:13.435Z</time>
      </trkpt>
      <trkpt lat="46.36302" lon="5.88823">
        <ele>580.652649</ele>
        <time>2021-04-30T13:55:49.860Z</time>
      </trkpt>
      <trkpt lat="46.36301" lon="5.88839">
        <ele>582.176786</ele>
        <time>2021-04-30T13:55:59.750Z</time>
      </trkpt>
      <trkpt lat="46.363" lon="5.88858">
        <ele>584.090927</ele>
        <time>2021-04-30T13:56:12.577Z</time>
      </trkpt>
      <trkpt lat="46.36315" lon="5.88911">
        <ele>589.690539</ele>
        <time>2021-04-30T13:56:48.913Z</time>
      </trkpt>
      <trkpt lat="46.36321" lon="5.88935">
        <ele>592.229288</ele>
        <time>2021-04-30T13:57:06.401Z</time>
      </trkpt>
      <trkpt lat="46.36333" lon="5.8899">
        <ele>597.980591</ele>
        <time>2021-04-30T13:57:48.196Z</time>
      </trkpt>
      <trkpt lat="46.36347" lon="5.89065">
        <ele>606.539183</ele>
        <time>2021-04-30T13:58:47.505Z</time>
      </trkpt>
      <trkpt lat="46.36346" lon="5.89123">
        <ele>613.445486</ele>
        <time>2021-04-30T13:59:33.374Z</time>
      </trkpt>
      <trkpt lat="46.3632" lon="5.89294">
        <ele>633.920964</ele>
        <time>2021-04-30T14:01:47.228Z</time>
      </trkpt>
      <trkpt lat="46.36274" lon="5.89432">
        <ele>648.426085</ele>
        <time>2021-04-30T14:03:33.705Z</time>
      </trkpt>
      <trkpt lat="46.36206" lon="5.89528">
        <ele>658.572519</ele>
        <time>2021-04-30T14:04:48.496Z</time>
      </trkpt>
      <trkpt lat="46.36119" lon="5.89609">
        <ele>663.412925</ele>
        <time>2021-04-30T14:05:38.418Z</time>
      </trkpt>
      <trkpt lat="46.36091" lon="5.89655">
        <ele>665.362897</ele>
        <time>2021-04-30T14:05:48.558Z</time>
      </trkpt>
      <trkpt lat="46.36056" lon="5.8968">
        <ele>666.987507</ele>
        <time>2021-04-30T14:05:58.909Z</time>
      </trkpt>
      <trkpt lat="46.36028" lon="5.89714">
        <ele>668.48188</ele>
        <time>2021-04-30T14:06:11.321Z</time>
      </trkpt>
      <trkpt lat="46.35994" lon="5.89732">
        <ele>669.950055</ele>
        <time>2021-04-30T14:06:26.610Z</time>
      </trkpt>
      <trkpt lat="46.35989" lon="5.89743">
        <ele>670.314757</ele>
        <time>2021-04-30T14:06:28.155Z</time>
      </trkpt>
      <trkpt lat="46.35979" lon="5.89777">
        <ele>671.341305</ele>
        <time>2021-04-30T14:06:46.737Z</time>
      </trkpt>
      <trkpt lat="46.35961" lon="5.89833">
        <ele>673.637246</ele>
        <time>2021-04-30T14:07:12.613Z</time>
      </trkpt>
      <trkpt lat="46.35957" lon="5.89913">
        <ele>681.189112</ele>
        <time>2021-04-30T14:08:00.928Z</time>
      </trkpt>
      <trkpt lat="46.35943" lon="5.89987">
        <ele>688.309236</ele>
        <time>2021-04-30T14:08:55.455Z</time>
      </trkpt>
      <trkpt lat="46.35898" lon="5.90061">
        <ele>697.502085</ele>
        <time>2021-04-30T14:10:06.673Z</time>
      </trkpt>
      <trkpt lat="46.35853" lon="5.90102">
        <ele>703.786687</ele>
        <time>2021-04-30T14:10:54.127Z</time>
      </trkpt>
      <trkpt lat="46.35805" lon="5.90134">
        <ele>709.909908</ele>
        <time>2021-04-30T14:11:33.942Z</time>
      </trkpt>
      <trkpt lat="46.35788" lon="5.90151">
        <ele>712.31942</ele>
        <time>2021-04-30T14:11:49.713Z</time>
      </trkpt>
      <trkpt lat="46.3577" lon="5.90169">
        <ele>714.868106</ele>
        <time>2021-04-30T14:12:07.123Z</time>
      </trkpt>
      <trkpt lat="46.35707" lon="5.90215">
        <ele>724.28463</ele>
        <time>2021-04-30T14:13:02.242Z</time>
      </trkpt>
      <trkpt lat="46.35693" lon="5.90232">
        <ele>726.908111</ele>
        <time>2021-04-30T14:13:16.734Z</time>
      </trkpt>
      <trkpt lat="46.35684" lon="5.90254">
        <ele>729.429624</ele>
        <time>2021-04-30T14:13:29.681Z</time>
      </trkpt>
      <trkpt lat="46.35682" lon="5.90273">
        <ele>731.280936</ele>
        <time>2021-04-30T14:13:40.522Z</time>
      </trkpt>
      <trkpt lat="46.35678" lon="5.9032">
        <ele>736.044113</ele>
        <time>2021-04-30T14:14:17.211Z</time>
      </trkpt>
      <trkpt lat="46.35663" lon="5.90404">
        <ele>744.771683</ele>
        <time>2021-04-30T14:15:26.704Z</time>
      </trkpt>
      <trkpt lat="46.35669" lon="5.90418">
        <ele>746.702487</ele>
        <time>2021-04-30T14:15:37.972Z</time>
      </trkpt>
      <trkpt lat="46.35701" lon="5.90455">
        <ele>753.736168</ele>
        <time>2021-04-30T14:16:24.663Z</time>
      </trkpt>
      <trkpt lat="46.35702" lon="5.90461">
        <ele>754.495897</ele>
        <time>2021-04-30T14:16:30.961Z</time>
      </trkpt>
      <trkpt lat="46.35703" lon="5.90472">
        <ele>755.817628</ele>
        <time>2021-04-30T14:16:38.858Z</time>
      </trkpt>
      <trkpt lat="46.35704" lon="5.9048">
        <ele>756.829497</ele>
        <time>2021-04-30T14:16:45.963Z</time>
      </trkpt>
      <trkpt lat="46.35706" lon="5.90489">
        <ele>757.982</ele>
        <time>2021-04-30T14:16:52.632Z</time>
      </trkpt>
      <trkpt lat="46.35683" lon="5.90499">
        <ele>762.017215</ele>
        <time>2021-04-30T14:17:22.820Z</time>
      </trkpt>
      <trkpt lat="46.35678" lon="5.90501">
        <ele>762.97039</ele>
        <time>2021-04-30T14:17:29.915Z</time>
      </trkpt>
      <trkpt lat="46.35671" lon="5.90498">
        <ele>764.249036</ele>
        <time>2021-04-30T14:17:37.648Z</time>
      </trkpt>
      <trkpt lat="46.35659" lon="5.90513">
        <ele>766.973866</ele>
        <time>2021-04-30T14:17:58.695Z</time>
      </trkpt>
      <trkpt lat="46.35639" lon="5.90515">
        <ele>770.453551</ele>
        <time>2021-04-30T14:18:21.397Z</time>
      </trkpt>
      <trkpt lat="46.35608" lon="5.90488">
        <ele>776.543447</ele>
        <time>2021-04-30T14:19:05.503Z</time>
      </trkpt>
      <trkpt lat="46.35592" lon="5.90488">
        <ele>778.872716</ele>
        <time>2021-04-30T14:19:26.493Z</time>
      </trkpt>
      <trkpt lat="46.35582" lon="5.90512">
        <ele>781.792658</ele>
        <time>2021-04-30T14:19:48.746Z</time>
      </trkpt>
      <trkpt lat="46.35576" lon="5.90543">
        <ele>785.044946</ele>
        <time>2021-04-30T14:20:10.163Z</time>
      </trkpt>
      <trkpt lat="46.35565" lon="5.90552">
        <ele>786.923223</ele>
        <time>2021-04-30T14:20:28.058Z</time>
      </trkpt>
      <trkpt lat="46.35554" lon="5.90552">
        <ele>788.545376</ele>
        <time>2021-04-30T14:20:38.928Z</time>
      </trkpt>
      <trkpt lat="46.35546" lon="5.90561">
        <ele>790.005363</ele>
        <time>2021-04-30T14:20:48.679Z</time>
      </trkpt>
      <trkpt lat="46.35524" lon="5.90567">
        <ele>793.305606</ele>
        <time>2021-04-30T14:21:15.893Z</time>
      </trkpt>
      <trkpt lat="46.35524" lon="5.90581">
        <ele>794.638511</ele>
        <time>2021-04-30T14:21:24.378Z</time>
      </trkpt>
      <trkpt lat="46.35548" lon="5.90604">
        <ele>798.925999</ele>
        <time>2021-04-30T14:21:58.673Z</time>
      </trkpt>
      <trkpt lat="46.35503" lon="5.90613">
        <ele>805.143729</ele>
        <time>2021-04-30T14:22:52.305Z</time>
      </trkpt>
      <trkpt lat="46.35502" lon="5.9063">
        <ele>806.687607</ele>
        <time>2021-04-30T14:23:06.443Z</time>
      </trkpt>
      <trkpt lat="46.35496" lon="5.90635">
        <ele>807.507271</ele>
        <time>2021-04-30T14:23:15.100Z</time>
      </trkpt>
      <trkpt lat="46.35466" lon="5.90666">
        <ele>812.246914</ele>
        <time>2021-04-30T14:23:50.560Z</time>
      </trkpt>
      <trkpt lat="46.35431" lon="5.90655">
        <ele>816.91239</ele>
        <time>2021-04-30T14:24:22.862Z</time>
      </trkpt>
      <trkpt lat="46.35399" lon="5.90658">
        <ele>821.073672</ele>
        <time>2021-04-30T14:24:48.194Z</time>
      </trkpt>
      <trkpt lat="46.35373" lon="5.90662">
        <ele>824.452784</ele>
        <time>2021-04-30T14:25:09.191Z</time>
      </trkpt>
      <trkpt lat="46.35368" lon="5.90663">
        <ele>825.142303</ele>
        <time>2021-04-30T14:25:12.557Z</time>
      </trkpt>
      <trkpt lat="46.3536" lon="5.90674">
        <ele>825.80959</ele>
        <time>2021-04-30T14:25:23.128Z</time>
      </trkpt>
      <trkpt lat="46.35365" lon="5.90691">
        <ele>826.605823</ele>
        <time>2021-04-30T14:25:31.173Z</time>
      </trkpt>
      <trkpt lat="46.35374" lon="5.90694">
        <ele>827.177642</ele>
        <time>2021-04-30T14:25:35.969Z</time>
      </trkpt>
      <trkpt lat="46.35424" lon="5.9068">
        <ele>830.358228</ele>
        <time>2021-04-30T14:26:02.592Z</time>
      </trkpt>
      <trkpt lat="46.35474" lon="5.90711">
        <ele>833.750139</ele>
        <time>2021-04-30T14:26:32.712Z</time>
      </trkpt>
      <trkpt lat="46.35517" lon="5.90682">
        <ele>836.674253</ele>
        <time>2021-04-30T14:26:52.650Z</time>
      </trkpt>
      <trkpt lat="46.35537" lon="5.90682">
        <ele>837.733699</ele>
        <time>2021-04-30T14:27:02.547Z</time>
      </trkpt>
      <trkpt lat="46.35601" lon="5.90742">
        <ele>841.873173</ele>
        <time>2021-04-30T14:27:44.377Z</time>
      </trkpt>
      <trkpt lat="46.35636" lon="5.90769">
        <ele>843.957564</ele>
        <time>2021-04-30T14:28:06.512Z</time>
      </trkpt>
      <trkpt lat="46.35668" lon="5.90794">
        <ele>845.93033</ele>
        <time>2021-04-30T14:28:26.650Z</time>
      </trkpt>
      <trkpt lat="46.35767" lon="5.90829">
        <ele>849.530493</ele>
        <time>2021-04-30T14:29:15.530Z</time>
      </trkpt>
      <trkpt lat="46.3579" lon="5.90827">
        <ele>850.344227</ele>
        <time>2021-04-30T14:29:24.356Z</time>
      </trkpt>
      <trkpt lat="46.35805" lon="5.90817">
        <ele>850.924415</ele>
        <time>2021-04-30T14:29:30.661Z</time>
      </trkpt>
      <trkpt lat="46.35818" lon="5.90796">
        <ele>851.59558</ele>
        <time>2021-04-30T14:29:36.719Z</time>
      </trkpt>
      <trkpt lat="46.3583" lon="5.90752">
        <ele>852.528905</ele>
        <time>2021-04-30T14:29:47.317Z</time>
      </trkpt>
      <trkpt lat="46.35838" lon="5.90743">
        <ele>852.697673</ele>
        <time>2021-04-30T14:29:51.337Z</time>
      </trkpt>
      <trkpt lat="46.35892" lon="5.90725">
        <ele>853.673786</ele>
        <time>2021-04-30T14:30:12.854Z</time>
      </trkpt>
      <trkpt lat="46.35911" lon="5.90728">
        <ele>854.000442</ele>
        <time>2021-04-30T14:30:21.055Z</time>
      </trkpt>
      <trkpt lat="46.35925" lon="5.90738">
        <ele>854.274332</ele>
        <time>2021-04-30T14:30:24.984Z</time>
      </trkpt>
      <trkpt lat="46.35956" lon="5.90784">
        <ele>855.039239</ele>
        <time>2021-04-30T14:30:39.522Z</time>
      </trkpt>
      <trkpt lat="46.3599" lon="5.90841">
        <ele>856.087545</ele>
        <time>2021-04-30T14:30:57.073Z</time>
      </trkpt>
      <trkpt lat="46.35996" lon="5.90848">
        <ele>856.258602</ele>
        <time>2021-04-30T14:30:58.566Z</time>
      </trkpt>
      <trkpt lat="46.36015" lon="5.90861">
        <ele>856.720007</ele>
        <time>2021-04-30T14:31:06.166Z</time>
      </trkpt>
      <trkpt lat="46.36051" lon="5.90865">
        <ele>857.502115</ele>
        <time>2021-04-30T14:31:20.221Z</time>
      </trkpt>
      <trkpt lat="46.36071" lon="5.90876">
        <ele>857.986903</ele>
        <time>2021-04-30T14:31:29.428Z</time>
      </trkpt>
      <trkpt lat="46.36086" lon="5.90891">
        <ele>858.375864</ele>
        <time>2021-04-30T14:31:36.637Z</time>
      </trkpt>
      <trkpt lat="46.36103" lon="5.90909">
        <ele>858.854205</ele>
        <time>2021-04-30T14:31:46.114Z</time>
      </trkpt>
      <trkpt lat="46.36142" lon="5.90953">
        <ele>860.418556</ele>
        <time>2021-04-30T14:32:02.326Z</time>
      </trkpt>
      <trkpt lat="46.36152" lon="5.90964">
        <ele>860.971211</ele>
        <time>2021-04-30T14:32:08.275Z</time>
      </trkpt>
      <trkpt lat="46.3616" lon="5.90972">
        <ele>861.366529</ele>
        <time>2021-04-30T14:32:13.156Z</time>
      </trkpt>
      <trkpt lat="46.36215" lon="5.91007">
        <ele>863.929173</ele>
        <time>2021-04-30T14:32:40.251Z</time>
      </trkpt>
      <trkpt lat="46.36329" lon="5.91147">
        <ele>870.160756</ele>
        <time>2021-04-30T14:34:00.175Z</time>
      </trkpt>
      <trkpt lat="46.36356" lon="5.91171">
        <ele>871.47526</ele>
        <time>2021-04-30T14:34:14.641Z</time>
      </trkpt>
      <trkpt lat="46.36377" lon="5.91187">
        <ele>872.431188</ele>
        <time>2021-04-30T14:34:24.919Z</time>
      </trkpt>
      <trkpt lat="46.3642" lon="5.91221">
        <ele>874.447921</ele>
        <time>2021-04-30T14:34:44.607Z</time>
      </trkpt>
      <trkpt lat="46.36428" lon="5.91229">
        <ele>874.673363</ele>
        <time>2021-04-30T14:34:48.308Z</time>
      </trkpt>
      <trkpt lat="46.36551" lon="5.91366">
        <ele>878.02639</ele>
        <time>2021-04-30T14:35:43.425Z</time>
      </trkpt>
      <trkpt lat="46.36601" lon="5.91395">
        <ele>879.712163</ele>
        <time>2021-04-30T14:36:04.194Z</time>
      </trkpt>
      <trkpt lat="46.36714" lon="5.91447">
        <ele>883.876267</ele>
        <time>2021-04-30T14:36:57.430Z</time>
      </trkpt>
      <trkpt lat="46.36786" lon="5.9148">
        <ele>886.485799</ele>
        <time>2021-04-30T14:37:33.780Z</time>
      </trkpt>
      <trkpt lat="46.36843" lon="5.91519">
        <ele>888.657176</ele>
        <time>2021-04-30T14:38:01.765Z</time>
      </trkpt>
      <trkpt lat="46.36857" lon="5.91521">
        <ele>889.153858</ele>
        <time>2021-04-30T14:38:07.471Z</time>
      </trkpt>
      <trkpt lat="46.36861" lon="5.91519">
        <ele>889.301651</ele>
        <time>2021-04-30T14:38:10.557Z</time>
      </trkpt>
      <trkpt lat="46.36863" lon="5.91524">
        <ele>889.446159</ele>
        <time>2021-04-30T14:38:11.789Z</time>
      </trkpt>
      <trkpt lat="46.36962" lon="5.91659">
        <ele>892.850006</ele>
        <time>2021-04-30T14:39:02.901Z</time>
      </trkpt>
      <trkpt lat="46.36979" lon="5.91709">
        <ele>893.661168</ele>
        <time>2021-04-30T14:39:16.644Z</time>
      </trkpt>
      <trkpt lat="46.3705" lon="5.91807">
        <ele>897.152999</ele>
        <time>2021-04-30T14:39:53.884Z</time>
      </trkpt>
      <trkpt lat="46.37084" lon="5.91874">
        <ele>899.926474</ele>
        <time>2021-04-30T14:40:24.407Z</time>
      </trkpt>
      <trkpt lat="46.37141" lon="5.91931">
        <ele>903.249316</ele>
        <time>2021-04-30T14:41:04.177Z</time>
      </trkpt>
      <trkpt lat="46.37148" lon="5.91947">
        <ele>904.221043</ele>
        <time>2021-04-30T14:41:15.282Z</time>
      </trkpt>
      <trkpt lat="46.37153" lon="5.91968">
        <ele>905.38427</ele>
        <time>2021-04-30T14:41:22.475Z</time>
      </trkpt>
      <trkpt lat="46.37153" lon="5.91984">
        <ele>906.206256</ele>
        <time>2021-04-30T14:41:28.181Z</time>
      </trkpt>
      <trkpt lat="46.37153" lon="5.91988">
        <ele>906.427683</ele>
        <time>2021-04-30T14:41:32.038Z</time>
      </trkpt>
      <trkpt lat="46.37132" lon="5.92075">
        <ele>911.261613</ele>
        <time>2021-04-30T14:42:09.941Z</time>
      </trkpt>
      <trkpt lat="46.37103" lon="5.92125">
        <ele>914.722951</ele>
        <time>2021-04-30T14:42:42.901Z</time>
      </trkpt>
      <trkpt lat="46.37101" lon="5.92136">
        <ele>915.326394</ele>
        <time>2021-04-30T14:42:49.635Z</time>
      </trkpt>
      <trkpt lat="46.37101" lon="5.92145">
        <ele>915.791633</ele>
        <time>2021-04-30T14:42:52.999Z</time>
      </trkpt>
      <trkpt lat="46.37108" lon="5.92161">
        <ele>916.784376</ele>
        <time>2021-04-30T14:43:00.928Z</time>
      </trkpt>
      <trkpt lat="46.37131" lon="5.92202">
        <ele>919.755195</ele>
        <time>2021-04-30T14:43:25.662Z</time>
      </trkpt>
      <trkpt lat="46.37139" lon="5.92218">
        <ele>920.855993</ele>
        <time>2021-04-30T14:43:34.576Z</time>
      </trkpt>
      <trkpt lat="46.37143" lon="5.92241">
        <ele>922.186186</ele>
        <time>2021-04-30T14:43:44.960Z</time>
      </trkpt>
      <trkpt lat="46.37143" lon="5.92283">
        <ele>924.517453</ele>
        <time>2021-04-30T14:44:03.258Z</time>
      </trkpt>
      <trkpt lat="46.37132" lon="5.92342">
        <ele>927.929506</ele>
        <time>2021-04-30T14:44:30.767Z</time>
      </trkpt>
      <trkpt lat="46.3713" lon="5.92387">
        <ele>930.453165</ele>
        <time>2021-04-30T14:44:51.502Z</time>
      </trkpt>
      <trkpt lat="46.37162" lon="5.92495">
        <ele>937.451455</ele>
        <time>2021-04-30T14:45:49.749Z</time>
      </trkpt>
      <trkpt lat="46.37163" lon="5.92519">
        <ele>938.9164</ele>
        <time>2021-04-30T14:46:02.568Z</time>
      </trkpt>
      <trkpt lat="46.37159" lon="5.92544">
        <ele>940.494674</ele>
        <time>2021-04-30T14:46:13.871Z</time>
      </trkpt>
      <trkpt lat="46.37155" lon="5.92555">
        <ele>941.204593</ele>
        <time>2021-04-30T14:46:21.001Z</time>
      </trkpt>
      <trkpt lat="46.37148" lon="5.92579">
        <ele>942.815506</ele>
        <time>2021-04-30T14:46:33.378Z</time>
      </trkpt>
      <trkpt lat="46.3714" lon="5.92601">
        <ele>944.32183</ele>
        <time>2021-04-30T14:46:45.513Z</time>
      </trkpt>
      <trkpt lat="46.37136" lon="5.92631">
        <ele>946.118547</ele>
        <time>2021-04-30T14:46:59.326Z</time>
      </trkpt>
      <trkpt lat="46.37137" lon="5.92662">
        <ele>947.908201</ele>
        <time>2021-04-30T14:47:14.664Z</time>
      </trkpt>
      <trkpt lat="46.37143" lon="5.92693">
        <ele>949.438827</ele>
        <time>2021-04-30T14:47:28.351Z</time>
      </trkpt>
      <trkpt lat="46.37168" lon="5.92754">
        <ele>952.846667</ele>
        <time>2021-04-30T14:48:02.273Z</time>
      </trkpt>
      <trkpt lat="46.37193" lon="5.9288">
        <ele>959.167908</ele>
        <time>2021-04-30T14:48:55.343Z</time>
      </trkpt>
      <trkpt lat="46.37204" lon="5.92921">
        <ele>960.695103</ele>
        <time>2021-04-30T14:49:11.152Z</time>
      </trkpt>
      <trkpt lat="46.37233" lon="5.92991">
        <ele>962.881012</ele>
        <time>2021-04-30T14:49:38.134Z</time>
      </trkpt>
      <trkpt lat="46.37238" lon="5.93019">
        <ele>963.639839</ele>
        <time>2021-04-30T14:49:46.972Z</time>
      </trkpt>
      <trkpt lat="46.37248" lon="5.93035">
        <ele>964.232748</ele>
        <time>2021-04-30T14:49:53.722Z</time>
      </trkpt>
      <trkpt lat="46.37264" lon="5.93046">
        <ele>964.915184</ele>
        <time>2021-04-30T14:50:01.330Z</time>
      </trkpt>
      <trkpt lat="46.37365" lon="5.93076">
        <ele>968.947517</ele>
        <time>2021-04-30T14:50:44.213Z</time>
      </trkpt>
      <trkpt lat="46.37456" lon="5.93129">
        <ele>972.840999</ele>
        <time>2021-04-30T14:51:29.576Z</time>
      </trkpt>
      <trkpt lat="46.37518" lon="5.93184">
        <ele>976.681822</ele>
        <time>2021-04-30T14:52:09.239Z</time>
      </trkpt>
      <trkpt lat="46.37535" lon="5.93191">
        <ele>977.761169</ele>
        <time>2021-04-30T14:52:19.352Z</time>
      </trkpt>
      <trkpt lat="46.37552" lon="5.93174">
        <ele>979.039935</ele>
        <time>2021-04-30T14:52:31.568Z</time>
      </trkpt>
      <trkpt lat="46.37543" lon="5.93138">
        <ele>980.685541</ele>
        <time>2021-04-30T14:52:47.467Z</time>
      </trkpt>
      <trkpt lat="46.37498" lon="5.93056">
        <ele>985.176176</ele>
        <time>2021-04-30T14:53:30.837Z</time>
      </trkpt>
      <trkpt lat="46.37451" lon="5.93021">
        <ele>987.973757</ele>
        <time>2021-04-30T14:54:01.662Z</time>
      </trkpt>
      <trkpt lat="46.37444" lon="5.93006">
        <ele>988.622262</ele>
        <time>2021-04-30T14:54:08.777Z</time>
      </trkpt>
      <trkpt lat="46.37447" lon="5.92993">
        <ele>989.118487</ele>
        <time>2021-04-30T14:54:14.135Z</time>
      </trkpt>
      <trkpt lat="46.3746" lon="5.92979">
        <ele>989.965574</ele>
        <time>2021-04-30T14:54:23.155Z</time>
      </trkpt>
      <trkpt lat="46.37473" lon="5.92979">
        <ele>990.652446</ele>
        <time>2021-04-30T14:54:30.143Z</time>
      </trkpt>
      <trkpt lat="46.37551" lon="5.93036">
        <ele>994.992391</ele>
        <time>2021-04-30T14:55:13.246Z</time>
      </trkpt>
      <trkpt lat="46.37558" lon="5.9304">
        <ele>995.196025</ele>
        <time>2021-04-30T14:55:16.667Z</time>
      </trkpt>
      <trkpt lat="46.3757" lon="5.93061">
        <ele>995.670718</ele>
        <time>2021-04-30T14:55:27.297Z</time>
      </trkpt>
      <trkpt lat="46.37622" lon="5.93122">
        <ele>997.381984</ele>
        <time>2021-04-30T14:56:04.397Z</time>
      </trkpt>
      <trkpt lat="46.37639" lon="5.93133">
        <ele>997.852899</ele>
        <time>2021-04-30T14:56:15.262Z</time>
      </trkpt>
      <trkpt lat="46.37637" lon="5.93144">
        <ele>998.050191</ele>
        <time>2021-04-30T14:56:18.525Z</time>
      </trkpt>
      <trkpt lat="46.37697" lon="5.93356">
        <ele>1002.23309</ele>
        <time>2021-04-30T14:57:44.158Z</time>
      </trkpt>
      <trkpt lat="46.37717" lon="5.93403">
        <ele>1003.276387</ele>
        <time>2021-04-30T14:58:07.244Z</time>
      </trkpt>
      <trkpt lat="46.37726" lon="5.93451">
        <ele>1004.200383</ele>
        <time>2021-04-30T14:58:28.479Z</time>
      </trkpt>
      <trkpt lat="46.37752" lon="5.93513">
        <ele>1006.82077</ele>
        <time>2021-04-30T14:59:00.585Z</time>
      </trkpt>
      <trkpt lat="46.37756" lon="5.93567">
        <ele>1008.814708</ele>
        <time>2021-04-30T14:59:27.812Z</time>
      </trkpt>
      <trkpt lat="46.37784" lon="5.93641">
        <ele>1011.840018</ele>
        <time>2021-04-30T15:00:09.316Z</time>
      </trkpt>
      <trkpt lat="46.37803" lon="5.93707">
        <ele>1014.717503</ele>
        <time>2021-04-30T15:00:46.035Z</time>
      </trkpt>
      <trkpt lat="46.37807" lon="5.9374">
        <ele>1016.382819</ele>
        <time>2021-04-30T15:01:02.622Z</time>
      </trkpt>
      <trkpt lat="46.3781" lon="5.93744">
        <ele>1016.680845</ele>
        <time>2021-04-30T15:01:06.640Z</time>
      </trkpt>
      <trkpt lat="46.3782" lon="5.9378">
        <ele>1018.619801</ele>
        <time>2021-04-30T15:01:25.798Z</time>
      </trkpt>
      <trkpt lat="46.37876" lon="5.9391">
        <ele>1026.159416</ele>
        <time>2021-04-30T15:02:49.653Z</time>
      </trkpt>
      <trkpt lat="46.37924" lon="5.93995">
        <ele>1035.873457</ele>
        <time>2021-04-30T15:04:00.859Z</time>
      </trkpt>
      <trkpt lat="46.37945" lon="5.9404">
        <ele>1040.77428</ele>
        <time>2021-04-30T15:04:40.608Z</time>
      </trkpt>
      <trkpt lat="46.37959" lon="5.94085">
        <ele>1045.211936</ele>
        <time>2021-04-30T15:05:19.753Z</time>
      </trkpt>
      <trkpt lat="46.37964" lon="5.94124">
        <ele>1048.842133</ele>
        <time>2021-04-30T15:05:54.225Z</time>
      </trkpt>
      <trkpt lat="46.37947" lon="5.94259">
        <ele>1066.804944</ele>
        <time>2021-04-30T15:08:06.371Z</time>
      </trkpt>
      <trkpt lat="46.37955" lon="5.94284">
        <ele>1070.537695</ele>
        <time>2021-04-30T15:08:34.346Z</time>
      </trkpt>
      <trkpt lat="46.37991" lon="5.9431">
        <ele>1078.387109</ele>
        <time>2021-04-30T15:09:32.612Z</time>
      </trkpt>
      <trkpt lat="46.38006" lon="5.94339">
        <ele>1083.331327</ele>
        <time>2021-04-30T15:10:09.086Z</time>
      </trkpt>
      <trkpt lat="46.37979" lon="5.94368">
        <ele>1089.157791</ele>
        <time>2021-04-30T15:10:55.680Z</time>
      </trkpt>
      <trkpt lat="46.37944" lon="5.94384">
        <ele>1095.205314</ele>
        <time>2021-04-30T15:11:44.893Z</time>
      </trkpt>
      <trkpt lat="46.37889" lon="5.94391">
        <ele>1104.303726</ele>
        <time>2021-04-30T15:12:54.002Z</time>
      </trkpt>
      <trkpt lat="46.37846" lon="5.94439">
        <ele>1113.216099</ele>
        <time>2021-04-30T15:13:56.515Z</time>
      </trkpt>
      <trkpt lat="46.37808" lon="5.94428">
        <ele>1118.114158</ele>
        <time>2021-04-30T15:14:36.902Z</time>
      </trkpt>
      <trkpt lat="46.37781" lon="5.94398">
        <ele>1121.825256</ele>
        <time>2021-04-30T15:15:10.032Z</time>
      </trkpt>
      <trkpt lat="46.37755" lon="5.94399">
        <ele>1124.669426</ele>
        <time>2021-04-30T15:15:34.794Z</time>
      </trkpt>
      <trkpt lat="46.37712" lon="5.94447">
        <ele>1130.575861</ele>
        <time>2021-04-30T15:16:25.281Z</time>
      </trkpt>
      <trkpt lat="46.37669" lon="5.94476">
        <ele>1135.57104</ele>
        <time>2021-04-30T15:17:08.130Z</time>
      </trkpt>
      <trkpt lat="46.37623" lon="5.9454">
        <ele>1140.984462</ele>
        <time>2021-04-30T15:18:08.991Z</time>
      </trkpt>
      <trkpt lat="46.37578" lon="5.94536">
        <ele>1144.77779</ele>
        <time>2021-04-30T15:18:46.493Z</time>
      </trkpt>
      <trkpt lat="46.37542" lon="5.94523">
        <ele>1147.89983</ele>
        <time>2021-04-30T15:19:15.947Z</time>
      </trkpt>
      <trkpt lat="46.37533" lon="5.94523">
        <ele>1148.645528</ele>
        <time>2021-04-30T15:19:24.039Z</time>
      </trkpt>
      <trkpt lat="46.37529" lon="5.94526">
        <ele>1149.044985</ele>
        <time>2021-04-30T15:19:27.331Z</time>
      </trkpt>
      <trkpt lat="46.37525" lon="5.94525">
        <ele>1149.430764</ele>
        <time>2021-04-30T15:19:30.575Z</time>
      </trkpt>
      <trkpt lat="46.37504" lon="5.9453">
        <ele>1150.608779</ele>
        <time>2021-04-30T15:19:40.563Z</time>
      </trkpt>
      <trkpt lat="46.37478" lon="5.94555">
        <ele>1151.964707</ele>
        <time>2021-04-30T15:19:57.506Z</time>
      </trkpt>
      <trkpt lat="46.37466" lon="5.94581">
        <ele>1152.892854</ele>
        <time>2021-04-30T15:20:10.195Z</time>
      </trkpt>
      <trkpt lat="46.37453" lon="5.94642">
        <ele>1154.747991</ele>
        <time>2021-04-30T15:20:30.223Z</time>
      </trkpt>
      <trkpt lat="46.37443" lon="5.94703">
        <ele>1156.586437</ele>
        <time>2021-04-30T15:20:48.496Z</time>
      </trkpt>
      <trkpt lat="46.37418" lon="5.94695">
        <ele>1157.652072</ele>
        <time>2021-04-30T15:20:57.603Z</time>
      </trkpt>
      <trkpt lat="46.37391" lon="5.94681">
        <ele>1158.490793</ele>
        <time>2021-04-30T15:21:07.764Z</time>
      </trkpt>
      <trkpt lat="46.37365" lon="5.94687">
        <ele>1159.272928</ele>
        <time>2021-04-30T15:21:17.512Z</time>
      </trkpt>
      <trkpt lat="46.3735" lon="5.94699">
        <ele>1159.751203</ele>
        <time>2021-04-30T15:21:23.753Z</time>
      </trkpt>
      <trkpt lat="46.37321" lon="5.94751">
        <ele>1161.078403</ele>
        <time>2021-04-30T15:21:43.685Z</time>
      </trkpt>
      <trkpt lat="46.37309" lon="5.94758">
        <ele>1161.459098</ele>
        <time>2021-04-30T15:21:50.165Z</time>
      </trkpt>
      <trkpt lat="46.37299" lon="5.94754">
        <ele>1161.757543</ele>
        <time>2021-04-30T15:21:55.255Z</time>
      </trkpt>
      <trkpt lat="46.37293" lon="5.94739">
        <ele>1162.111439</ele>
        <time>2021-04-30T15:22:00.423Z</time>
      </trkpt>
      <trkpt lat="46.37279" lon="5.9466">
        <ele>1163.388852</ele>
        <time>2021-04-30T15:22:25.563Z</time>
      </trkpt>
      <trkpt lat="46.37273" lon="5.94647">
        <ele>1163.577782</ele>
        <time>2021-04-30T15:22:29.894Z</time>
      </trkpt>
      <trkpt lat="46.37265" lon="5.94637">
        <ele>1163.758683</ele>
        <time>2021-04-30T15:22:34.585Z</time>
      </trkpt>
      <trkpt lat="46.37248" lon="5.94625">
        <ele>1164.087165</ele>
        <time>2021-04-30T15:22:42.965Z</time>
      </trkpt>
      <trkpt lat="46.37228" lon="5.94613">
        <ele>1164.460508</ele>
        <time>2021-04-30T15:22:50.556Z</time>
      </trkpt>
      <trkpt lat="46.37201" lon="5.9461">
        <ele>1164.939108</ele>
        <time>2021-04-30T15:22:59.852Z</time>
      </trkpt>
      <trkpt lat="46.37172" lon="5.94633">
        <ele>1165.521213</ele>
        <time>2021-04-30T15:23:10.184Z</time>
      </trkpt>
      <trkpt lat="46.37163" lon="5.94662">
        <ele>1165.90345</ele>
        <time>2021-04-30T15:23:16.602Z</time>
      </trkpt>
      <trkpt lat="46.37156" lon="5.94715">
        <ele>1165.577563</ele>
        <time>2021-04-30T15:23:27.077Z</time>
      </trkpt>
      <trkpt lat="46.37143" lon="5.94739">
        <ele>1165.281814</ele>
        <time>2021-04-30T15:23:32.365Z</time>
      </trkpt>
      <trkpt lat="46.37138" lon="5.94748">
        <ele>1165.170468</ele>
        <time>2021-04-30T15:23:33.875Z</time>
      </trkpt>
      <trkpt lat="46.37117" lon="5.94828">
        <ele>1164.345512</ele>
        <time>2021-04-30T15:23:47.422Z</time>
      </trkpt>
      <trkpt lat="46.37097" lon="5.94947">
        <ele>1163.267137</ele>
        <time>2021-04-30T15:24:05.606Z</time>
      </trkpt>
      <trkpt lat="46.3708" lon="5.95199">
        <ele>1161.879703</ele>
        <time>2021-04-30T15:24:49.851Z</time>
      </trkpt>
      <trkpt lat="46.37072" lon="5.95234">
        <ele>1161.999435</ele>
        <time>2021-04-30T15:24:56.601Z</time>
      </trkpt>
      <trkpt lat="46.37031" lon="5.95342">
        <ele>1162.397223</ele>
        <time>2021-04-30T15:25:21.759Z</time>
      </trkpt>
      <trkpt lat="46.37028" lon="5.95349">
        <ele>1162.421431</ele>
        <time>2021-04-30T15:25:23.323Z</time>
      </trkpt>
      <trkpt lat="46.37002" lon="5.95417">
        <ele>1162.826527</ele>
        <time>2021-04-30T15:25:41.808Z</time>
      </trkpt>
      <trkpt lat="46.37001" lon="5.95419">
        <ele>1162.859228</ele>
        <time>2021-04-30T15:25:42.384Z</time>
      </trkpt>
      <trkpt lat="46.36991" lon="5.95441">
        <ele>1163.28034</ele>
        <time>2021-04-30T15:25:49.628Z</time>
      </trkpt>
      <trkpt lat="46.36987" lon="5.9545">
        <ele>1163.451001</ele>
        <time>2021-04-30T15:25:52.110Z</time>
      </trkpt>
      <trkpt lat="46.36979" lon="5.95463">
        <ele>1163.729</ele>
        <time>2021-04-30T15:25:56.928Z</time>
      </trkpt>
      <trkpt lat="46.3697" lon="5.95473">
        <ele>1163.98898</ele>
        <time>2021-04-30T15:26:01.552Z</time>
      </trkpt>
      <trkpt lat="46.36959" lon="5.95484">
        <ele>1164.295454</ele>
        <time>2021-04-30T15:26:06.336Z</time>
      </trkpt>
      <trkpt lat="46.36943" lon="5.95496">
        <ele>1164.708859</ele>
        <time>2021-04-30T15:26:13.697Z</time>
      </trkpt>
      <trkpt lat="46.3693" lon="5.95503">
        <ele>1165.02614</ele>
        <time>2021-04-30T15:26:19.202Z</time>
      </trkpt>
      <trkpt lat="46.36891" lon="5.95509">
        <ele>1165.931614</ele>
        <time>2021-04-30T15:26:35.342Z</time>
      </trkpt>
      <trkpt lat="46.36877" lon="5.95516">
        <ele>1166.261604</ele>
        <time>2021-04-30T15:26:41.330Z</time>
      </trkpt>
      <trkpt lat="46.36879" lon="5.95535">
        <ele>1166.577687</ele>
        <time>2021-04-30T15:26:47.375Z</time>
      </trkpt>
      <trkpt lat="46.36876" lon="5.95605">
        <ele>1167.281537</ele>
        <time>2021-04-30T15:27:06.127Z</time>
      </trkpt>
      <trkpt lat="46.36881" lon="5.95639">
        <ele>1167.590633</ele>
        <time>2021-04-30T15:27:15.412Z</time>
      </trkpt>
      <trkpt lat="46.36896" lon="5.95691">
        <ele>1168.103419</ele>
        <time>2021-04-30T15:27:28.938Z</time>
      </trkpt>
      <trkpt lat="46.36902" lon="5.95717">
        <ele>1168.345962</ele>
        <time>2021-04-30T15:27:35.106Z</time>
      </trkpt>
      <trkpt lat="46.36903" lon="5.95787">
        <ele>1168.978898</ele>
        <time>2021-04-30T15:27:49.349Z</time>
      </trkpt>
      <trkpt lat="46.36883" lon="5.9588">
        <ele>1168.72676</ele>
        <time>2021-04-30T15:28:07.046Z</time>
      </trkpt>
      <trkpt lat="46.36882" lon="5.96029">
        <ele>1168.054259</ele>
        <time>2021-04-30T15:28:32.191Z</time>
      </trkpt>
      <trkpt lat="46.36819" lon="5.96204">
        <ele>1167.402591</ele>
        <time>2021-04-30T15:29:06.339Z</time>
      </trkpt>
      <trkpt lat="46.36811" lon="5.96236">
        <ele>1167.298115</ele>
        <time>2021-04-30T15:29:12.368Z</time>
      </trkpt>
      <trkpt lat="46.36804" lon="5.96321">
        <ele>1167.089077</ele>
        <time>2021-04-30T15:29:29.378Z</time>
      </trkpt>
      <trkpt lat="46.36796" lon="5.96345">
        <ele>1167.061492</ele>
        <time>2021-04-30T15:29:34.610Z</time>
      </trkpt>
      <trkpt lat="46.36791" lon="5.9635">
        <ele>1167.05205</ele>
        <time>2021-04-30T15:29:36.820Z</time>
      </trkpt>
      <trkpt lat="46.36793" lon="5.96359">
        <ele>1167.041614</ele>
        <time>2021-04-30T15:29:38.713Z</time>
      </trkpt>
      <trkpt lat="46.36797" lon="5.96396">
        <ele>1167.003199</ele>
        <time>2021-04-30T15:29:45.357Z</time>
      </trkpt>
      <trkpt lat="46.36798" lon="5.96406">
        <ele>1166.992042</ele>
        <time>2021-04-30T15:29:47.317Z</time>
      </trkpt>
      <trkpt lat="46.368" lon="5.96418">
        <ele>1166.97935</ele>
        <time>2021-04-30T15:29:49.550Z</time>
      </trkpt>
      <trkpt lat="46.36803" lon="5.96431">
        <ele>1166.965436</ele>
        <time>2021-04-30T15:29:51.952Z</time>
      </trkpt>
      <trkpt lat="46.36797" lon="5.9645">
        <ele>1166.943374</ele>
        <time>2021-04-30T15:29:58.260Z</time>
      </trkpt>
      <trkpt lat="46.3678" lon="5.96494">
        <ele>1166.891715</ele>
        <time>2021-04-30T15:30:13.091Z</time>
      </trkpt>
      <trkpt lat="46.36781" lon="5.96562">
        <ele>1166.904556</ele>
        <time>2021-04-30T15:30:33.192Z</time>
      </trkpt>
      <trkpt lat="46.36784" lon="5.96585">
        <ele>1166.956813</ele>
        <time>2021-04-30T15:30:40.240Z</time>
      </trkpt>
      <trkpt lat="46.36787" lon="5.96597">
        <ele>1166.98711</ele>
        <time>2021-04-30T15:30:43.822Z</time>
      </trkpt>
      <trkpt lat="46.36799" lon="5.96644">
        <ele>1167.098339</ele>
        <time>2021-04-30T15:30:58.729Z</time>
      </trkpt>
      <trkpt lat="46.36798" lon="5.96664">
        <ele>1167.142661</ele>
        <time>2021-04-30T15:31:04.845Z</time>
      </trkpt>
      <trkpt lat="46.36745" lon="5.96793">
        <ele>1168.015093</ele>
        <time>2021-04-30T15:31:54.036Z</time>
      </trkpt>
      <trkpt lat="46.36733" lon="5.96917">
        <ele>1171.395697</ele>
        <time>2021-04-30T15:32:46.037Z</time>
      </trkpt>
      <trkpt lat="46.36721" lon="5.96993">
        <ele>1173.509499</ele>
        <time>2021-04-30T15:33:23.354Z</time>
      </trkpt>
      <trkpt lat="46.3669" lon="5.97072">
        <ele>1176.937007</ele>
        <time>2021-04-30T15:34:10.323Z</time>
      </trkpt>
      <trkpt lat="46.36682" lon="5.97108">
        <ele>1178.66879</ele>
        <time>2021-04-30T15:34:30.797Z</time>
      </trkpt>
      <trkpt lat="46.36692" lon="5.97252">
        <ele>1185.258401</ele>
        <time>2021-04-30T15:35:49.062Z</time>
      </trkpt>
      <trkpt lat="46.36687" lon="5.97338">
        <ele>1187.520871</ele>
        <time>2021-04-30T15:36:33.461Z</time>
      </trkpt>
      <trkpt lat="46.3669" lon="5.97409">
        <ele>1188.913571</ele>
        <time>2021-04-30T15:37:06.608Z</time>
      </trkpt>
      <trkpt lat="46.36665" lon="5.97518">
        <ele>1191.169251</ele>
        <time>2021-04-30T15:37:48.112Z</time>
      </trkpt>
      <trkpt lat="46.3666" lon="5.97576">
        <ele>1187.459665</ele>
        <time>2021-04-30T15:38:03.647Z</time>
      </trkpt>
      <trkpt lat="46.36641" lon="5.97692">
        <ele>1177.50883</ele>
        <time>2021-04-30T15:38:28.375Z</time>
      </trkpt>
      <trkpt lat="46.36598" lon="5.9781">
        <ele>1161.455676</ele>
        <time>2021-04-30T15:38:53.112Z</time>
      </trkpt>
      <trkpt lat="46.36587" lon="5.9784">
        <ele>1154.530037</ele>
        <time>2021-04-30T15:38:59.335Z</time>
      </trkpt>
      <trkpt lat="46.36559" lon="5.97932">
        <ele>1133.788382</ele>
        <time>2021-04-30T15:39:18.106Z</time>
      </trkpt>
      <trkpt lat="46.36552" lon="5.9802">
        <ele>1115.413199</ele>
        <time>2021-04-30T15:39:34.956Z</time>
      </trkpt>
      <trkpt lat="46.36559" lon="5.98201">
        <ele>1078.64904</ele>
        <time>2021-04-30T15:40:09.077Z</time>
      </trkpt>
      <trkpt lat="46.36564" lon="5.98279">
        <ele>1062.943391</ele>
        <time>2021-04-30T15:40:23.459Z</time>
      </trkpt>
      <trkpt lat="46.36586" lon="5.98439">
        <ele>1044.740122</ele>
        <time>2021-04-30T15:40:54.111Z</time>
      </trkpt>
      <trkpt lat="46.36624" lon="5.98561">
        <ele>1031.424718</ele>
        <time>2021-04-30T15:41:21.024Z</time>
      </trkpt>
      <trkpt lat="46.36677" lon="5.9881">
        <ele>1014.830132</ele>
        <time>2021-04-30T15:42:14.731Z</time>
      </trkpt>
      <trkpt lat="46.36718" lon="5.98948">
        <ele>1007.092221</ele>
        <time>2021-04-30T15:42:46.767Z</time>
      </trkpt>
      <trkpt lat="46.3673" lon="5.99021">
        <ele>1003.250721</ele>
        <time>2021-04-30T15:43:03.166Z</time>
      </trkpt>
      <trkpt lat="46.36731" lon="5.9906">
        <ele>1001.885206</ele>
        <time>2021-04-30T15:43:11.707Z</time>
      </trkpt>
      <trkpt lat="46.36776" lon="5.99254">
        <ele>994.65854</ele>
        <time>2021-04-30T15:43:58.552Z</time>
      </trkpt>
      <trkpt lat="46.36786" lon="5.99289">
        <ele>993.898451</ele>
        <time>2021-04-30T15:44:07.226Z</time>
      </trkpt>
      <trkpt lat="46.3679" lon="5.99296">
        <ele>993.808693</ele>
        <time>2021-04-30T15:44:08.660Z</time>
      </trkpt>
      <trkpt lat="46.36801" lon="5.99349">
        <ele>993.271828</ele>
        <time>2021-04-30T15:44:16.452Z</time>
      </trkpt>
      <trkpt lat="46.36802" lon="5.99369">
        <ele>993.080692</ele>
        <time>2021-04-30T15:44:19.361Z</time>
      </trkpt>
      <trkpt lat="46.36805" lon="5.99388">
        <ele>992.888621</ele>
        <time>2021-04-30T15:44:22.250Z</time>
      </trkpt>
      <trkpt lat="46.36809" lon="5.994">
        <ele>992.762204</ele>
        <time>2021-04-30T15:44:24.747Z</time>
      </trkpt>
      <trkpt lat="46.36811" lon="5.99405">
        <ele>992.703237</ele>
        <time>2021-04-30T15:44:25.630Z</time>
      </trkpt>
      <trkpt lat="46.3679" lon="5.99421">
        <ele>992.377304</ele>
        <time>2021-04-30T15:44:31.191Z</time>
      </trkpt>
      <trkpt lat="46.36774" lon="5.99441">
        <ele>992.077182</ele>
        <time>2021-04-30T15:44:38.505Z</time>
      </trkpt>
      <trkpt lat="46.36765" lon="5.99466">
        <ele>991.801694</ele>
        <time>2021-04-30T15:44:44.371Z</time>
      </trkpt>
      <trkpt lat="46.36763" lon="5.99478">
        <ele>991.686281</ele>
        <time>2021-04-30T15:44:46.539Z</time>
      </trkpt>
      <trkpt lat="46.36755" lon="5.99482">
        <ele>991.643746</ele>
        <time>2021-04-30T15:44:50.988Z</time>
      </trkpt>
      <trkpt lat="46.3675" lon="5.99486">
        <ele>991.819363</ele>
        <time>2021-04-30T15:44:52.834Z</time>
      </trkpt>
      <trkpt lat="46.36743" lon="5.99492">
        <ele>992.040705</ele>
        <time>2021-04-30T15:44:55.356Z</time>
      </trkpt>
      <trkpt lat="46.3674" lon="5.99494">
        <ele>992.137565</ele>
        <time>2021-04-30T15:44:56.806Z</time>
      </trkpt>
      <trkpt lat="46.36736" lon="5.99497">
        <ele>992.281601</ele>
        <time>2021-04-30T15:44:58.844Z</time>
      </trkpt>
      <trkpt lat="46.36727" lon="5.99503">
        <ele>992.566956</ele>
        <time>2021-04-30T15:45:03.103Z</time>
      </trkpt>
      <trkpt lat="46.36721" lon="5.99508">
        <ele>992.765955</ele>
        <time>2021-04-30T15:45:05.860Z</time>
      </trkpt>
      <trkpt lat="46.36708" lon="5.99517">
        <ele>993.180454</ele>
        <time>2021-04-30T15:45:10.809Z</time>
      </trkpt>
      <trkpt lat="46.367" lon="5.99523">
        <ele>993.43702</ele>
        <time>2021-04-30T15:45:13.978Z</time>
      </trkpt>
      <trkpt lat="46.36693" lon="5.99528">
        <ele>993.687489</ele>
        <time>2021-04-30T15:45:18.264Z</time>
      </trkpt>
      <trkpt lat="46.36667" lon="5.9955">
        <ele>994.556765</ele>
        <time>2021-04-30T15:45:29.266Z</time>
      </trkpt>
      <trkpt lat="46.36666" lon="5.99552">
        <ele>994.597188</ele>
        <time>2021-04-30T15:45:30.680Z</time>
      </trkpt>
      <trkpt lat="46.36652" lon="5.99574">
        <ele>995.206931</ele>
        <time>2021-04-30T15:45:39.690Z</time>
      </trkpt>
      <trkpt lat="46.3663" lon="5.99614">
        <ele>996.238563</ele>
        <time>2021-04-30T15:45:55.314Z</time>
      </trkpt>
      <trkpt lat="46.36624" lon="5.99626">
        <ele>996.527567</ele>
        <time>2021-04-30T15:46:00.069Z</time>
      </trkpt>
      <trkpt lat="46.36613" lon="5.99603">
        <ele>997.070156</ele>
        <time>2021-04-30T15:46:09.083Z</time>
      </trkpt>
      <trkpt lat="46.36602" lon="5.99576">
        <ele>997.662608</ele>
        <time>2021-04-30T15:46:19.712Z</time>
      </trkpt>
      <trkpt lat="46.36568" lon="5.99494">
        <ele>999.444558</ele>
        <time>2021-04-30T15:46:46.814Z</time>
      </trkpt>
      <trkpt lat="46.36563" lon="5.99469">
        <ele>999.922458</ele>
        <time>2021-04-30T15:46:53.378Z</time>
      </trkpt>
      <trkpt lat="46.36562" lon="5.99464">
        <ele>1000.019566</ele>
        <time>2021-04-30T15:46:54.391Z</time>
      </trkpt>
      <trkpt lat="46.36536" lon="5.99398">
        <ele>1001.440463</ele>
        <time>2021-04-30T15:47:12.960Z</time>
      </trkpt>
      <trkpt lat="46.36534" lon="5.99394">
        <ele>1001.524942</ele>
        <time>2021-04-30T15:47:14.737Z</time>
      </trkpt>
      <trkpt lat="46.36522" lon="5.99377">
        <ele>1001.868618</ele>
        <time>2021-04-30T15:47:19.898Z</time>
      </trkpt>
      <trkpt lat="46.36453" lon="5.99221">
        <ele>1004.06323</ele>
        <time>2021-04-30T15:48:06.091Z</time>
      </trkpt>
      <trkpt lat="46.36412" lon="5.99157">
        <ele>1004.874094</ele>
        <time>2021-04-30T15:48:26.409Z</time>
      </trkpt>
      <trkpt lat="46.36404" lon="5.99146">
        <ele>1004.938585</ele>
        <time>2021-04-30T15:48:29.566Z</time>
      </trkpt>
      <trkpt lat="46.36394" lon="5.99134">
        <ele>1005.010389</ele>
        <time>2021-04-30T15:48:33.632Z</time>
      </trkpt>
      <trkpt lat="46.36365" lon="5.991">
        <ele>1005.21958</ele>
        <time>2021-04-30T15:48:44.778Z</time>
      </trkpt>
      <trkpt lat="46.3635" lon="5.99081">
        <ele>1005.331713</ele>
        <time>2021-04-30T15:48:50.475Z</time>
      </trkpt>
      <trkpt lat="46.36334" lon="5.99059">
        <ele>1005.457976</ele>
        <time>2021-04-30T15:48:57.033Z</time>
      </trkpt>
      <trkpt lat="46.36331" lon="5.99054">
        <ele>1005.483997</ele>
        <time>2021-04-30T15:48:58.594Z</time>
      </trkpt>
      <trkpt lat="46.36324" lon="5.99043">
        <ele>1005.538993</ele>
        <time>2021-04-30T15:49:00.908Z</time>
      </trkpt>
      <trkpt lat="46.36263" lon="5.98914">
        <ele>1005.511737</ele>
        <time>2021-04-30T15:49:29.786Z</time>
      </trkpt>
      <trkpt lat="46.36209" lon="5.98854">
        <ele>1005.232424</ele>
        <time>2021-04-30T15:49:46.399Z</time>
      </trkpt>
      <trkpt lat="46.36179" lon="5.98804">
        <ele>1005.045996</ele>
        <time>2021-04-30T15:49:57.402Z</time>
      </trkpt>
      <trkpt lat="46.36141" lon="5.9876">
        <ele>1004.240813</ele>
        <time>2021-04-30T15:50:09.071Z</time>
      </trkpt>
      <trkpt lat="46.36041" lon="5.98623">
        <ele>1001.776024</ele>
        <time>2021-04-30T15:50:38.682Z</time>
      </trkpt>
      <trkpt lat="46.35999" lon="5.98576">
        <ele>999.405237</ele>
        <time>2021-04-30T15:50:48.884Z</time>
      </trkpt>
      <trkpt lat="46.35973" lon="5.98538">
        <ele>997.758962</ele>
        <time>2021-04-30T15:50:55.706Z</time>
      </trkpt>
      <trkpt lat="46.35932" lon="5.98457">
        <ele>994.664392</ele>
        <time>2021-04-30T15:51:08.131Z</time>
      </trkpt>
      <trkpt lat="46.35854" lon="5.98375">
        <ele>989.068247</ele>
        <time>2021-04-30T15:51:24.920Z</time>
      </trkpt>
      <trkpt lat="46.358" lon="5.98291">
        <ele>984.229898</ele>
        <time>2021-04-30T15:51:38.846Z</time>
      </trkpt>
      <trkpt lat="46.3575" lon="5.98243">
        <ele>981.496142</ele>
        <time>2021-04-30T15:51:49.535Z</time>
      </trkpt>
      <trkpt lat="46.35664" lon="5.98201">
        <ele>977.980275</ele>
        <time>2021-04-30T15:52:06.653Z</time>
      </trkpt>
      <trkpt lat="46.35578" lon="5.98138">
        <ele>975.53368</ele>
        <time>2021-04-30T15:52:26.738Z</time>
      </trkpt>
      <trkpt lat="46.35572" lon="5.98134">
        <ele>975.447607</ele>
        <time>2021-04-30T15:52:28.392Z</time>
      </trkpt>
      <trkpt lat="46.35552" lon="5.98123">
        <ele>975.195021</ele>
        <time>2021-04-30T15:52:32.967Z</time>
      </trkpt>
      <trkpt lat="46.35533" lon="5.98112">
        <ele>974.945499</ele>
        <time>2021-04-30T15:52:37.592Z</time>
      </trkpt>
      <trkpt lat="46.35519" lon="5.98103">
        <ele>974.761894</ele>
        <time>2021-04-30T15:52:41.240Z</time>
      </trkpt>
      <trkpt lat="46.3551" lon="5.98097">
        <ele>974.643082</ele>
        <time>2021-04-30T15:52:43.672Z</time>
      </trkpt>
      <trkpt lat="46.35471" lon="5.98067">
        <ele>974.114349</ele>
        <time>2021-04-30T15:52:54.590Z</time>
      </trkpt>
      <trkpt lat="46.35418" lon="5.98025">
        <ele>973.611962</ele>
        <time>2021-04-30T15:53:10.650Z</time>
      </trkpt>
      <trkpt lat="46.35408" lon="5.98018">
        <ele>973.528194</ele>
        <time>2021-04-30T15:53:13.324Z</time>
      </trkpt>
      <trkpt lat="46.35396" lon="5.9801">
        <ele>973.431785</ele>
        <time>2021-04-30T15:53:16.975Z</time>
      </trkpt>
      <trkpt lat="46.35386" lon="5.98005">
        <ele>973.356158</ele>
        <time>2021-04-30T15:53:19.476Z</time>
      </trkpt>
      <trkpt lat="46.35366" lon="5.97996">
        <ele>973.207806</ele>
        <time>2021-04-30T15:53:24.199Z</time>
      </trkpt>
      <trkpt lat="46.3535" lon="5.97989">
        <ele>973.08332</ele>
        <time>2021-04-30T15:53:28.199Z</time>
      </trkpt>
      <trkpt lat="46.35318" lon="5.97961">
        <ele>972.818824</ele>
        <time>2021-04-30T15:53:36.706Z</time>
      </trkpt>
      <trkpt lat="46.35277" lon="5.97896">
        <ele>971.957139</ele>
        <time>2021-04-30T15:53:50.788Z</time>
      </trkpt>
      <trkpt lat="46.35268" lon="5.97886">
        <ele>971.742409</ele>
        <time>2021-04-30T15:53:53.340Z</time>
      </trkpt>
      <trkpt lat="46.35261" lon="5.97878">
        <ele>971.586901</ele>
        <time>2021-04-30T15:53:55.209Z</time>
      </trkpt>
      <trkpt lat="46.35162" lon="5.97785">
        <ele>969.399365</ele>
        <time>2021-04-30T15:54:19.850Z</time>
      </trkpt>
      <trkpt lat="46.3509" lon="5.97698">
        <ele>967.061232</ele>
        <time>2021-04-30T15:54:39.354Z</time>
      </trkpt>
      <trkpt lat="46.3508" lon="5.97687">
        <ele>966.735259</ele>
        <time>2021-04-30T15:54:41.819Z</time>
      </trkpt>
      <trkpt lat="46.3507" lon="5.97679">
        <ele>966.465422</ele>
        <time>2021-04-30T15:54:44.291Z</time>
      </trkpt>
      <trkpt lat="46.34987" lon="5.97618">
        <ele>963.836094</ele>
        <time>2021-04-30T15:55:02.864Z</time>
      </trkpt>
      <trkpt lat="46.34929" lon="5.97567">
        <ele>961.453223</ele>
        <time>2021-04-30T15:55:16.203Z</time>
      </trkpt>
      <trkpt lat="46.34875" lon="5.97519">
        <ele>959.240081</ele>
        <time>2021-04-30T15:55:28.139Z</time>
      </trkpt>
      <trkpt lat="46.34823" lon="5.97476">
        <ele>957.607674</ele>
        <time>2021-04-30T15:55:39.309Z</time>
      </trkpt>
      <trkpt lat="46.34736" lon="5.97414">
        <ele>955.400228</ele>
        <time>2021-04-30T15:55:58.502Z</time>
      </trkpt>
      <trkpt lat="46.34716" lon="5.97399">
        <ele>954.878017</ele>
        <time>2021-04-30T15:56:03.752Z</time>
      </trkpt>
      <trkpt lat="46.34623" lon="5.97316">
        <ele>956.555487</ele>
        <time>2021-04-30T15:56:38.854Z</time>
      </trkpt>
      <trkpt lat="46.34503" lon="5.97196">
        <ele>960.292869</ele>
        <time>2021-04-30T15:57:47.093Z</time>
      </trkpt>
      <trkpt lat="46.34441" lon="5.97147">
        <ele>962.198983</ele>
        <time>2021-04-30T15:58:18.875Z</time>
      </trkpt>
      <trkpt lat="46.34328" lon="5.9703">
        <ele>962.187129</ele>
        <time>2021-04-30T15:58:56.623Z</time>
      </trkpt>
      <trkpt lat="46.3423" lon="5.96871">
        <ele>958.97453</ele>
        <time>2021-04-30T15:59:24.836Z</time>
      </trkpt>
      <trkpt lat="46.34197" lon="5.96833">
        <ele>957.784168</ele>
        <time>2021-04-30T15:59:32.769Z</time>
      </trkpt>
      <trkpt lat="46.34172" lon="5.96813">
        <ele>956.966611</ele>
        <time>2021-04-30T15:59:38.386Z</time>
      </trkpt>
      <trkpt lat="46.34147" lon="5.96803">
        <ele>956.242757</ele>
        <time>2021-04-30T15:59:43.551Z</time>
      </trkpt>
      <trkpt lat="46.34026" lon="5.96761">
        <ele>955.407198</ele>
        <time>2021-04-30T16:00:13.473Z</time>
      </trkpt>
      <trkpt lat="46.33938" lon="5.96711">
        <ele>955.596843</ele>
        <time>2021-04-30T16:00:43.909Z</time>
      </trkpt>
      <trkpt lat="46.33902" lon="5.96688">
        <ele>956.079154</ele>
        <time>2021-04-30T16:00:57.279Z</time>
      </trkpt>
      <trkpt lat="46.33846" lon="5.96647">
        <ele>956.835481</ele>
        <time>2021-04-30T16:01:18.045Z</time>
      </trkpt>
      <trkpt lat="46.33831" lon="5.96634">
        <ele>957.049466</ele>
        <time>2021-04-30T16:01:24.069Z</time>
      </trkpt>
      <trkpt lat="46.33787" lon="5.96573">
        <ele>957.739335</ele>
        <time>2021-04-30T16:01:43.222Z</time>
      </trkpt>
      <trkpt lat="46.33694" lon="5.965">
        <ele>958.133513</ele>
        <time>2021-04-30T16:02:14.136Z</time>
      </trkpt>
      <trkpt lat="46.3364" lon="5.96417">
        <ele>958.397458</ele>
        <time>2021-04-30T16:02:34.968Z</time>
      </trkpt>
      <trkpt lat="46.33598" lon="5.96383">
        <ele>958.455053</ele>
        <time>2021-04-30T16:02:47.690Z</time>
      </trkpt>
      <trkpt lat="46.33554" lon="5.96323">
        <ele>958.527442</ele>
        <time>2021-04-30T16:03:03.124Z</time>
      </trkpt>
      <trkpt lat="46.33481" lon="5.9625">
        <ele>959.135285</ele>
        <time>2021-04-30T16:03:28.904Z</time>
      </trkpt>
      <trkpt lat="46.33449" lon="5.96221">
        <ele>959.8317</ele>
        <time>2021-04-30T16:03:41.423Z</time>
      </trkpt>
      <trkpt lat="46.33373" lon="5.96152">
        <ele>961.50198</ele>
        <time>2021-04-30T16:04:15.371Z</time>
      </trkpt>
      <trkpt lat="46.33314" lon="5.96104">
        <ele>962.430936</ele>
        <time>2021-04-30T16:04:44.045Z</time>
      </trkpt>
      <trkpt lat="46.33176" lon="5.96035">
        <ele>963.539693</ele>
        <time>2021-04-30T16:05:29.432Z</time>
      </trkpt>
      <trkpt lat="46.33142" lon="5.96019">
        <ele>962.217534</ele>
        <time>2021-04-30T16:05:36.632Z</time>
      </trkpt>
      <trkpt lat="46.33123" lon="5.96007">
        <ele>961.439545</ele>
        <time>2021-04-30T16:05:40.412Z</time>
      </trkpt>
      <trkpt lat="46.33095" lon="5.95983">
        <ele>960.200832</ele>
        <time>2021-04-30T16:05:46.607Z</time>
      </trkpt>
      <trkpt lat="46.33045" lon="5.95887">
        <ele>957.042282</ele>
        <time>2021-04-30T16:06:01.566Z</time>
      </trkpt>
      <trkpt lat="46.33017" lon="5.95859">
        <ele>955.370718</ele>
        <time>2021-04-30T16:06:07.480Z</time>
      </trkpt>
      <trkpt lat="46.32987" lon="5.95857">
        <ele>953.915505</ele>
        <time>2021-04-30T16:06:12.897Z</time>
      </trkpt>
      <trkpt lat="46.32944" lon="5.95891">
        <ele>951.534544</ele>
        <time>2021-04-30T16:06:21.904Z</time>
      </trkpt>
      <trkpt lat="46.32917" lon="5.95895">
        <ele>950.22017</ele>
        <time>2021-04-30T16:06:26.883Z</time>
      </trkpt>
      <trkpt lat="46.32861" lon="5.95844">
        <ele>947.060282</ele>
        <time>2021-04-30T16:06:39.173Z</time>
      </trkpt>
      <trkpt lat="46.32791" lon="5.9584">
        <ele>943.823198</ele>
        <time>2021-04-30T16:06:52.183Z</time>
      </trkpt>
      <trkpt lat="46.32781" lon="5.95835">
        <ele>943.313342</ele>
        <time>2021-04-30T16:06:54.206Z</time>
      </trkpt>
      <trkpt lat="46.32771" lon="5.95826">
        <ele>942.754223</ele>
        <time>2021-04-30T16:06:56.426Z</time>
      </trkpt>
      <trkpt lat="46.32722" lon="5.95752">
        <ele>939.388988</ele>
        <time>2021-04-30T16:07:09.159Z</time>
      </trkpt>
      <trkpt lat="46.32706" lon="5.95738">
        <ele>938.327097</ele>
        <time>2021-04-30T16:07:12.517Z</time>
      </trkpt>
      <trkpt lat="46.32642" lon="5.95726">
        <ele>934.662424</ele>
        <time>2021-04-30T16:07:24.030Z</time>
      </trkpt>
      <trkpt lat="46.3259" lon="5.95703">
        <ele>931.636559</ele>
        <time>2021-04-30T16:07:33.467Z</time>
      </trkpt>
      <trkpt lat="46.32464" lon="5.95615">
        <ele>924.398015</ele>
        <time>2021-04-30T16:07:58.488Z</time>
      </trkpt>
      <trkpt lat="46.32434" lon="5.9561">
        <ele>922.893484</ele>
        <time>2021-04-30T16:08:03.995Z</time>
      </trkpt>
      <trkpt lat="46.32362" lon="5.95625">
        <ele>919.773674</ele>
        <time>2021-04-30T16:08:17.707Z</time>
      </trkpt>
      <trkpt lat="46.3233" lon="5.95612">
        <ele>918.635917</ele>
        <time>2021-04-30T16:08:24.136Z</time>
      </trkpt>
      <trkpt lat="46.32316" lon="5.95597">
        <ele>918.055223</ele>
        <time>2021-04-30T16:08:27.438Z</time>
      </trkpt>
      <trkpt lat="46.32275" lon="5.95555">
        <ele>916.344621</ele>
        <time>2021-04-30T16:08:37.367Z</time>
      </trkpt>
      <trkpt lat="46.32253" lon="5.95537">
        <ele>915.500686</ele>
        <time>2021-04-30T16:08:42.327Z</time>
      </trkpt>
      <trkpt lat="46.32235" lon="5.95524">
        <ele>914.818477</ele>
        <time>2021-04-30T16:08:46.380Z</time>
      </trkpt>
      <trkpt lat="46.32191" lon="5.955">
        <ele>913.862843</ele>
        <time>2021-04-30T16:08:55.733Z</time>
      </trkpt>
      <trkpt lat="46.32147" lon="5.95467">
        <ele>912.872058</ele>
        <time>2021-04-30T16:09:05.889Z</time>
      </trkpt>
      <trkpt lat="46.32094" lon="5.95401">
        <ele>911.48138</ele>
        <time>2021-04-30T16:09:21.141Z</time>
      </trkpt>
      <trkpt lat="46.32055" lon="5.95366">
        <ele>911.062801</ele>
        <time>2021-04-30T16:09:32.063Z</time>
      </trkpt>
      <trkpt lat="46.31997" lon="5.95311">
        <ele>910.7961</ele>
        <time>2021-04-30T16:09:49.745Z</time>
      </trkpt>
      <trkpt lat="46.31987" lon="5.95301">
        <ele>910.748562</ele>
        <time>2021-04-30T16:09:52.975Z</time>
      </trkpt>
      <trkpt lat="46.3197" lon="5.95285">
        <ele>910.66948</ele>
        <time>2021-04-30T16:09:58.200Z</time>
      </trkpt>
      <trkpt lat="46.31938" lon="5.95257">
        <ele>910.523325</ele>
        <time>2021-04-30T16:10:07.850Z</time>
      </trkpt>
      <trkpt lat="46.31921" lon="5.9524">
        <ele>910.37055</ele>
        <time>2021-04-30T16:10:13.398Z</time>
      </trkpt>
      <trkpt lat="46.31896" lon="5.95207">
        <ele>910.022903</ele>
        <time>2021-04-30T16:10:22.357Z</time>
      </trkpt>
      <trkpt lat="46.31876" lon="5.95181">
        <ele>909.744535</ele>
        <time>2021-04-30T16:10:28.872Z</time>
      </trkpt>
      <trkpt lat="46.31848" lon="5.95149">
        <ele>909.370849</ele>
        <time>2021-04-30T16:10:36.918Z</time>
      </trkpt>
      <trkpt lat="46.31838" lon="5.9514">
        <ele>909.251733</ele>
        <time>2021-04-30T16:10:39.309Z</time>
      </trkpt>
      <trkpt lat="46.31831" lon="5.95133">
        <ele>909.164514</ele>
        <time>2021-04-30T16:10:41.189Z</time>
      </trkpt>
      <trkpt lat="46.31814" lon="5.95119">
        <ele>908.96573</ele>
        <time>2021-04-30T16:10:45.348Z</time>
      </trkpt>
      <trkpt lat="46.31789" lon="5.95103">
        <ele>908.67382</ele>
        <time>2021-04-30T16:10:51.504Z</time>
      </trkpt>
      <trkpt lat="46.31762" lon="5.95087">
        <ele>908.39909</ele>
        <time>2021-04-30T16:10:57.773Z</time>
      </trkpt>
      <trkpt lat="46.31733" lon="5.95069">
        <ele>908.108319</ele>
        <time>2021-04-30T16:11:04.727Z</time>
      </trkpt>
      <trkpt lat="46.31689" lon="5.95047">
        <ele>907.672234</ele>
        <time>2021-04-30T16:11:16.017Z</time>
      </trkpt>
      <trkpt lat="46.31667" lon="5.95037">
        <ele>907.462754</ele>
        <time>2021-04-30T16:11:21.228Z</time>
      </trkpt>
      <trkpt lat="46.3164" lon="5.95025">
        <ele>907.194283</ele>
        <time>2021-04-30T16:11:28.423Z</time>
      </trkpt>
      <trkpt lat="46.31584" lon="5.94984">
        <ele>907.088179</ele>
        <time>2021-04-30T16:11:43.609Z</time>
      </trkpt>
      <trkpt lat="46.31511" lon="5.94932">
        <ele>907.390427</ele>
        <time>2021-04-30T16:12:05.898Z</time>
      </trkpt>
      <trkpt lat="46.31427" lon="5.94872">
        <ele>908.440687</ele>
        <time>2021-04-30T16:12:35.350Z</time>
      </trkpt>
      <trkpt lat="46.31308" lon="5.94783">
        <ele>911.920976</ele>
        <time>2021-04-30T16:13:31.318Z</time>
      </trkpt>
      <trkpt lat="46.31144" lon="5.94704">
        <ele>915.485451</ele>
        <time>2021-04-30T16:14:41.691Z</time>
      </trkpt>
      <trkpt lat="46.31123" lon="5.94699">
        <ele>915.905117</ele>
        <time>2021-04-30T16:14:48.457Z</time>
      </trkpt>
      <trkpt lat="46.31121" lon="5.94698">
        <ele>915.863402</ele>
        <time>2021-04-30T16:14:48.677Z</time>
      </trkpt>
      <trkpt lat="46.31079" lon="5.94688">
        <ele>914.618151</ele>
        <time>2021-04-30T16:14:57.492Z</time>
      </trkpt>
      <trkpt lat="46.31027" lon="5.94656">
        <ele>912.964056</ele>
        <time>2021-04-30T16:15:08.998Z</time>
      </trkpt>
      <trkpt lat="46.30998" lon="5.9464">
        <ele>912.066571</ele>
        <time>2021-04-30T16:15:14.595Z</time>
      </trkpt>
      <trkpt lat="46.30978" lon="5.9463">
        <ele>911.441187</ele>
        <time>2021-04-30T16:15:18.360Z</time>
      </trkpt>
      <trkpt lat="46.30954" lon="5.94619">
        <ele>910.707095</ele>
        <time>2021-04-30T16:15:23.135Z</time>
      </trkpt>
      <trkpt lat="46.30949" lon="5.94618">
        <ele>910.577736</ele>
        <time>2021-04-30T16:15:23.976Z</time>
      </trkpt>
      <trkpt lat="46.30927" lon="5.94612">
        <ele>909.99364</ele>
        <time>2021-04-30T16:15:28.342Z</time>
      </trkpt>
      <trkpt lat="46.30903" lon="5.94601">
        <ele>909.339566</ele>
        <time>2021-04-30T16:15:33.252Z</time>
      </trkpt>
      <trkpt lat="46.30891" lon="5.94597">
        <ele>909.009119</ele>
        <time>2021-04-30T16:15:35.943Z</time>
      </trkpt>
      <trkpt lat="46.30876" lon="5.94591">
        <ele>908.622544</ele>
        <time>2021-04-30T16:15:38.841Z</time>
      </trkpt>
      <trkpt lat="46.30826" lon="5.94575">
        <ele>907.282198</ele>
        <time>2021-04-30T16:15:49.569Z</time>
      </trkpt>
      <trkpt lat="46.30795" lon="5.94565">
        <ele>906.47966</ele>
        <time>2021-04-30T16:15:56.367Z</time>
      </trkpt>
      <trkpt lat="46.30793" lon="5.94565">
        <ele>906.426864</ele>
        <time>2021-04-30T16:15:56.808Z</time>
      </trkpt>
      <trkpt lat="46.30789" lon="5.94563">
        <ele>906.307499</ele>
        <time>2021-04-30T16:15:57.787Z</time>
      </trkpt>
      <trkpt lat="46.30776" lon="5.94559">
        <ele>906.004224</ele>
        <time>2021-04-30T16:16:00.768Z</time>
      </trkpt>
      <trkpt lat="46.30738" lon="5.94547">
        <ele>905.833885</ele>
        <time>2021-04-30T16:16:09.661Z</time>
      </trkpt>
      <trkpt lat="46.3073" lon="5.94517">
        <ele>905.738485</ele>
        <time>2021-04-30T16:16:14.766Z</time>
      </trkpt>
      <trkpt lat="46.30641" lon="5.94453">
        <ele>905.305033</ele>
        <time>2021-04-30T16:16:43.579Z</time>
      </trkpt>
      <trkpt lat="46.30607" lon="5.94429">
        <ele>905.138923</ele>
        <time>2021-04-30T16:16:53.984Z</time>
      </trkpt>
      <trkpt lat="46.30596" lon="5.94427">
        <ele>905.085695</ele>
        <time>2021-04-30T16:16:57.186Z</time>
      </trkpt>
      <trkpt lat="46.30572" lon="5.94437">
        <ele>904.970221</ele>
        <time>2021-04-30T16:17:03.445Z</time>
      </trkpt>
      <trkpt lat="46.30565" lon="5.94433">
        <ele>904.939554</ele>
        <time>2021-04-30T16:17:05.667Z</time>
      </trkpt>
      <trkpt lat="46.30505" lon="5.94394">
        <ele>904.63412</ele>
        <time>2021-04-30T16:17:22.576Z</time>
      </trkpt>
      <trkpt lat="46.30493" lon="5.94383">
        <ele>904.56936</ele>
        <time>2021-04-30T16:17:26.850Z</time>
      </trkpt>
      <trkpt lat="46.30479" lon="5.94365">
        <ele>904.482865</ele>
        <time>2021-04-30T16:17:30.906Z</time>
      </trkpt>
      <trkpt lat="46.30474" lon="5.94356">
        <ele>904.446795</ele>
        <time>2021-04-30T16:17:33.211Z</time>
      </trkpt>
      <trkpt lat="46.3046" lon="5.94331">
        <ele>904.069407</ele>
        <time>2021-04-30T16:17:38.316Z</time>
      </trkpt>
      <trkpt lat="46.30457" lon="5.94327">
        <ele>903.971602</ele>
        <time>2021-04-30T16:17:38.982Z</time>
      </trkpt>
      <trkpt lat="46.30414" lon="5.9427">
        <ele>902.43754</ele>
        <time>2021-04-30T16:17:51.245Z</time>
      </trkpt>
      <trkpt lat="46.30385" lon="5.94221">
        <ele>901.275116</ele>
        <time>2021-04-30T16:17:59.871Z</time>
      </trkpt>
      <trkpt lat="46.30381" lon="5.94215">
        <ele>901.11535</ele>
        <time>2021-04-30T16:18:00.927Z</time>
      </trkpt>
      <trkpt lat="46.30332" lon="5.9413">
        <ele>899.396972</ele>
        <time>2021-04-30T16:18:15.758Z</time>
      </trkpt>
      <trkpt lat="46.30331" lon="5.94128">
        <ele>899.36836</ele>
        <time>2021-04-30T16:18:16.123Z</time>
      </trkpt>
      <trkpt lat="46.30313" lon="5.94099">
        <ele>899.002493</ele>
        <time>2021-04-30T16:18:21.912Z</time>
      </trkpt>
      <trkpt lat="46.30286" lon="5.94063">
        <ele>898.501081</ele>
        <time>2021-04-30T16:18:29.703Z</time>
      </trkpt>
      <trkpt lat="46.30279" lon="5.94057">
        <ele>898.396566</ele>
        <time>2021-04-30T16:18:31.215Z</time>
      </trkpt>
      <trkpt lat="46.30241" lon="5.94034">
        <ele>897.836847</ele>
        <time>2021-04-30T16:18:41.247Z</time>
      </trkpt>
      <trkpt lat="46.30229" lon="5.94029">
        <ele>897.664614</ele>
        <time>2021-04-30T16:18:44.477Z</time>
      </trkpt>
      <trkpt lat="46.30223" lon="5.94026">
        <ele>897.580859</ele>
        <time>2021-04-30T16:18:46.289Z</time>
      </trkpt>
      <trkpt lat="46.30201" lon="5.94019">
        <ele>897.275667</ele>
        <time>2021-04-30T16:18:51.822Z</time>
      </trkpt>
      <trkpt lat="46.30173" lon="5.93999">
        <ele>898.559087</ele>
        <time>2021-04-30T16:19:00.772Z</time>
      </trkpt>
      <trkpt lat="46.30165" lon="5.93994">
        <ele>898.946895</ele>
        <time>2021-04-30T16:19:03.884Z</time>
      </trkpt>
      <trkpt lat="46.30149" lon="5.93982">
        <ele>899.765444</ele>
        <time>2021-04-30T16:19:10.780Z</time>
      </trkpt>
      <trkpt lat="46.30115" lon="5.93953">
        <ele>901.528014</ele>
        <time>2021-04-30T16:19:30.849Z</time>
      </trkpt>
      <trkpt lat="46.30078" lon="5.93921">
        <ele>903.439221</ele>
        <time>2021-04-30T16:19:54.919Z</time>
      </trkpt>
      <trkpt lat="46.30043" lon="5.93905">
        <ele>905.107232</ele>
        <time>2021-04-30T16:20:17.729Z</time>
      </trkpt>
      <trkpt lat="46.30016" lon="5.93896">
        <ele>906.541111</ele>
        <time>2021-04-30T16:20:36.156Z</time>
      </trkpt>
      <trkpt lat="46.29984" lon="5.93887">
        <ele>908.260833</ele>
        <time>2021-04-30T16:20:56.283Z</time>
      </trkpt>
      <trkpt lat="46.29948" lon="5.93872">
        <ele>910.285198</ele>
        <time>2021-04-30T16:21:17.348Z</time>
      </trkpt>
      <trkpt lat="46.29912" lon="5.93846">
        <ele>912.445252</ele>
        <time>2021-04-30T16:21:36.727Z</time>
      </trkpt>
      <trkpt lat="46.29886" lon="5.9382">
        <ele>914.113522</ele>
        <time>2021-04-30T16:21:54.191Z</time>
      </trkpt>
      <trkpt lat="46.2988" lon="5.93815">
        <ele>914.474903</ele>
        <time>2021-04-30T16:21:55.491Z</time>
      </trkpt>
      <trkpt lat="46.29853" lon="5.9378">
        <ele>914.911466</ele>
        <time>2021-04-30T16:22:09.872Z</time>
      </trkpt>
      <trkpt lat="46.29784" lon="5.93671">
        <ele>914.985826</ele>
        <time>2021-04-30T16:22:36.657Z</time>
      </trkpt>
      <trkpt lat="46.29716" lon="5.93617">
        <ele>914.734455</ele>
        <time>2021-04-30T16:22:52.730Z</time>
      </trkpt>
      <trkpt lat="46.29697" lon="5.93603">
        <ele>914.512854</ele>
        <time>2021-04-30T16:22:57.626Z</time>
      </trkpt>
      <trkpt lat="46.29671" lon="5.93584">
        <ele>914.215859</ele>
        <time>2021-04-30T16:23:04.394Z</time>
      </trkpt>
      <trkpt lat="46.29664" lon="5.93579">
        <ele>914.144721</ele>
        <time>2021-04-30T16:23:05.844Z</time>
      </trkpt>
      <trkpt lat="46.29599" lon="5.93526">
        <ele>913.379192</ele>
        <time>2021-04-30T16:23:23.727Z</time>
      </trkpt>
      <trkpt lat="46.29581" lon="5.93497">
        <ele>913.250671</ele>
        <time>2021-04-30T16:23:31.180Z</time>
      </trkpt>
      <trkpt lat="46.2956" lon="5.93441">
        <ele>913.558168</ele>
        <time>2021-04-30T16:23:42.633Z</time>
      </trkpt>
      <trkpt lat="46.29537" lon="5.93414">
        <ele>913.772949</ele>
        <time>2021-04-30T16:23:50.863Z</time>
      </trkpt>
      <trkpt lat="46.29527" lon="5.93404">
        <ele>913.854437</ele>
        <time>2021-04-30T16:23:53.601Z</time>
      </trkpt>
      <trkpt lat="46.29509" lon="5.93385">
        <ele>914.011124</ele>
        <time>2021-04-30T16:24:00.262Z</time>
      </trkpt>
      <trkpt lat="46.29506" lon="5.93381">
        <ele>914.040439</ele>
        <time>2021-04-30T16:24:01.940Z</time>
      </trkpt>
      <trkpt lat="46.29493" lon="5.93365">
        <ele>914.16208</ele>
        <time>2021-04-30T16:24:06.453Z</time>
      </trkpt>
      <trkpt lat="46.29448" lon="5.93277">
        <ele>915.458739</ele>
        <time>2021-04-30T16:24:34.622Z</time>
      </trkpt>
      <trkpt lat="46.2942" lon="5.93238">
        <ele>916.606884</ele>
        <time>2021-04-30T16:24:51.852Z</time>
      </trkpt>
      <trkpt lat="46.29389" lon="5.93225">
        <ele>917.58023</ele>
        <time>2021-04-30T16:25:07.733Z</time>
      </trkpt>
      <trkpt lat="46.29348" lon="5.93222">
        <ele>918.796929</ele>
        <time>2021-04-30T16:25:24.785Z</time>
      </trkpt>
      <trkpt lat="46.29329" lon="5.93219">
        <ele>919.361616</ele>
        <time>2021-04-30T16:25:34.005Z</time>
      </trkpt>
      <trkpt lat="46.29325" lon="5.93218">
        <ele>919.481909</ele>
        <time>2021-04-30T16:25:36.665Z</time>
      </trkpt>
      <trkpt lat="46.29283" lon="5.93194">
        <ele>919.891751</ele>
        <time>2021-04-30T16:25:51.264Z</time>
      </trkpt>
      <trkpt lat="46.29246" lon="5.93163">
        <ele>919.96434</ele>
        <time>2021-04-30T16:26:02.478Z</time>
      </trkpt>
      <trkpt lat="46.29234" lon="5.93145">
        <ele>919.99487</ele>
        <time>2021-04-30T16:26:11.064Z</time>
      </trkpt>
      <trkpt lat="46.29225" lon="5.93124">
        <ele>920.024456</ele>
        <time>2021-04-30T16:26:14.244Z</time>
      </trkpt>
      <trkpt lat="46.29194" lon="5.93053">
        <ele>920.125188</ele>
        <time>2021-04-30T16:26:29.687Z</time>
      </trkpt>
      <trkpt lat="46.29167" lon="5.9303">
        <ele>919.759752</ele>
        <time>2021-04-30T16:26:36.255Z</time>
      </trkpt>
      <trkpt lat="46.29148" lon="5.93023">
        <ele>919.414434</ele>
        <time>2021-04-30T16:26:39.529Z</time>
      </trkpt>
      <trkpt lat="46.29127" lon="5.93016">
        <ele>918.996508</ele>
        <time>2021-04-30T16:26:45.016Z</time>
      </trkpt>
      <trkpt lat="46.29073" lon="5.92995">
        <ele>917.963578</ele>
        <time>2021-04-30T16:26:56.047Z</time>
      </trkpt>
      <trkpt lat="46.29019" lon="5.92965">
        <ele>916.898715</ele>
        <time>2021-04-30T16:27:08.891Z</time>
      </trkpt>
      <trkpt lat="46.2894" lon="5.92893">
        <ele>916.065961</ele>
        <time>2021-04-30T16:27:33.987Z</time>
      </trkpt>
      <trkpt lat="46.2891" lon="5.92884">
        <ele>915.813784</ele>
        <time>2021-04-30T16:27:40.569Z</time>
      </trkpt>
      <trkpt lat="46.28866" lon="5.92885">
        <ele>915.445193</ele>
        <time>2021-04-30T16:27:50.617Z</time>
      </trkpt>
      <trkpt lat="46.28853" lon="5.92885">
        <ele>915.33295</ele>
        <time>2021-04-30T16:27:53.364Z</time>
      </trkpt>
      <trkpt lat="46.28844" lon="5.92885">
        <ele>915.278598</ele>
        <time>2021-04-30T16:27:55.663Z</time>
      </trkpt>
      <trkpt lat="46.28831" lon="5.9288">
        <ele>915.220745</ele>
        <time>2021-04-30T16:27:59.053Z</time>
      </trkpt>
      <trkpt lat="46.28824" lon="5.92877">
        <ele>915.185822</ele>
        <time>2021-04-30T16:28:00.442Z</time>
      </trkpt>
      <trkpt lat="46.28801" lon="5.92855">
        <ele>915.055132</ele>
        <time>2021-04-30T16:28:07.893Z</time>
      </trkpt>
      <trkpt lat="46.28793" lon="5.92848">
        <ele>915.013509</ele>
        <time>2021-04-30T16:28:09.605Z</time>
      </trkpt>
      <trkpt lat="46.28786" lon="5.92843">
        <ele>914.976048</ele>
        <time>2021-04-30T16:28:11.618Z</time>
      </trkpt>
      <trkpt lat="46.28771" lon="5.92824">
        <ele>914.887772</ele>
        <time>2021-04-30T16:28:16.938Z</time>
      </trkpt>
      <trkpt lat="46.28741" lon="5.92806">
        <ele>914.736977</ele>
        <time>2021-04-30T16:28:24.793Z</time>
      </trkpt>
      <trkpt lat="46.28628" lon="5.92781">
        <ele>915.213915</ele>
        <time>2021-04-30T16:28:56.266Z</time>
      </trkpt>
      <trkpt lat="46.28477" lon="5.92729">
        <ele>916.743453</ele>
        <time>2021-04-30T16:29:53.069Z</time>
      </trkpt>
      <trkpt lat="46.28374" lon="5.92666">
        <ele>916.657189</ele>
        <time>2021-04-30T16:30:23.561Z</time>
      </trkpt>
      <trkpt lat="46.28337" lon="5.92627">
        <ele>916.155055</ele>
        <time>2021-04-30T16:30:33.039Z</time>
      </trkpt>
      <trkpt lat="46.28288" lon="5.92597">
        <ele>913.779071</ele>
        <time>2021-04-30T16:30:43.537Z</time>
      </trkpt>
      <trkpt lat="46.28228" lon="5.92569">
        <ele>911.00746</ele>
        <time>2021-04-30T16:30:54.852Z</time>
      </trkpt>
      <trkpt lat="46.2812" lon="5.92558">
        <ele>905.738039</ele>
        <time>2021-04-30T16:31:14.005Z</time>
      </trkpt>
      <trkpt lat="46.28096" lon="5.92548">
        <ele>904.454125</ele>
        <time>2021-04-30T16:31:18.315Z</time>
      </trkpt>
      <trkpt lat="46.28089" lon="5.92545">
        <ele>904.083988</ele>
        <time>2021-04-30T16:31:19.599Z</time>
      </trkpt>
      <trkpt lat="46.28066" lon="5.92541">
        <ele>902.822798</ele>
        <time>2021-04-30T16:31:23.928Z</time>
      </trkpt>
      <trkpt lat="46.2804" lon="5.92546">
        <ele>901.477644</ele>
        <time>2021-04-30T16:31:28.632Z</time>
      </trkpt>
      <trkpt lat="46.28029" lon="5.92551">
        <ele>900.841778</ele>
        <time>2021-04-30T16:31:30.801Z</time>
      </trkpt>
      <trkpt lat="46.28" lon="5.92563">
        <ele>899.285981</ele>
        <time>2021-04-30T16:31:36.302Z</time>
      </trkpt>
      <trkpt lat="46.2796" lon="5.92574">
        <ele>897.71896</ele>
        <time>2021-04-30T16:31:43.621Z</time>
      </trkpt>
      <trkpt lat="46.27875" lon="5.9257">
        <ele>894.492119</ele>
        <time>2021-04-30T16:31:59.506Z</time>
      </trkpt>
      <trkpt lat="46.27844" lon="5.92562">
        <ele>893.277036</ele>
        <time>2021-04-30T16:32:05.870Z</time>
      </trkpt>
      <trkpt lat="46.27814" lon="5.92547">
        <ele>892.255535</ele>
        <time>2021-04-30T16:32:12.365Z</time>
      </trkpt>
      <trkpt lat="46.27798" lon="5.92533">
        <ele>891.988337</ele>
        <time>2021-04-30T16:32:16.235Z</time>
      </trkpt>
      <trkpt lat="46.27785" lon="5.92517">
        <ele>891.735458</ele>
        <time>2021-04-30T16:32:19.742Z</time>
      </trkpt>
      <trkpt lat="46.27783" lon="5.92506">
        <ele>891.613659</ele>
        <time>2021-04-30T16:32:21.787Z</time>
      </trkpt>
      <trkpt lat="46.27766" lon="5.92475">
        <ele>891.216328</ele>
        <time>2021-04-30T16:32:27.344Z</time>
      </trkpt>
      <trkpt lat="46.2774" lon="5.92459">
        <ele>890.792976</ele>
        <time>2021-04-30T16:32:33.478Z</time>
      </trkpt>
      <trkpt lat="46.2773" lon="5.9246">
        <ele>890.64342</ele>
        <time>2021-04-30T16:32:35.861Z</time>
      </trkpt>
      <trkpt lat="46.27712" lon="5.92444">
        <ele>890.333997</ele>
        <time>2021-04-30T16:32:40.457Z</time>
      </trkpt>
      <trkpt lat="46.27638" lon="5.9239">
        <ele>889.531251</ele>
        <time>2021-04-30T16:33:02.756Z</time>
      </trkpt>
      <trkpt lat="46.27627" lon="5.92374">
        <ele>889.460576</ele>
        <time>2021-04-30T16:33:07.187Z</time>
      </trkpt>
      <trkpt lat="46.27608" lon="5.9232">
        <ele>889.263719</ele>
        <time>2021-04-30T16:33:19.051Z</time>
      </trkpt>
      <trkpt lat="46.27591" lon="5.92204">
        <ele>888.84763</ele>
        <time>2021-04-30T16:33:37.993Z</time>
      </trkpt>
      <trkpt lat="46.27573" lon="5.9215">
        <ele>887.904645</ele>
        <time>2021-04-30T16:33:47.153Z</time>
      </trkpt>
      <trkpt lat="46.27556" lon="5.92119">
        <ele>887.267159</ele>
        <time>2021-04-30T16:33:53.328Z</time>
      </trkpt>
      <trkpt lat="46.27443" lon="5.91989">
        <ele>883.232547</ele>
        <time>2021-04-30T16:34:22.155Z</time>
      </trkpt>
      <trkpt lat="46.27425" lon="5.91946">
        <ele>881.728937</ele>
        <time>2021-04-30T16:34:28.577Z</time>
      </trkpt>
      <trkpt lat="46.274" lon="5.91911">
        <ele>880.237405</ele>
        <time>2021-04-30T16:34:34.878Z</time>
      </trkpt>
      <trkpt lat="46.27352" lon="5.9187">
        <ele>877.803525</ele>
        <time>2021-04-30T16:34:45.153Z</time>
      </trkpt>
      <trkpt lat="46.27346" lon="5.91859">
        <ele>877.390913</ele>
        <time>2021-04-30T16:34:46.891Z</time>
      </trkpt>
      <trkpt lat="46.27339" lon="5.9179">
        <ele>875.560802</ele>
        <time>2021-04-30T16:34:55.652Z</time>
      </trkpt>
      <trkpt lat="46.27319" lon="5.91755">
        <ele>874.406614</ele>
        <time>2021-04-30T16:35:01.464Z</time>
      </trkpt>
      <trkpt lat="46.2716" lon="5.91614">
        <ele>867.918154</ele>
        <time>2021-04-30T16:35:38.312Z</time>
      </trkpt>
      <trkpt lat="46.27019" lon="5.91462">
        <ele>862.814395</ele>
        <time>2021-04-30T16:36:12.627Z</time>
      </trkpt>
      <trkpt lat="46.2699" lon="5.91435">
        <ele>861.94171</ele>
        <time>2021-04-30T16:36:19.439Z</time>
      </trkpt>
      <trkpt lat="46.26946" lon="5.91409">
        <ele>860.728001</ele>
        <time>2021-04-30T16:36:29.468Z</time>
      </trkpt>
      <trkpt lat="46.2694" lon="5.91397">
        <ele>860.474551</ele>
        <time>2021-04-30T16:36:31.613Z</time>
      </trkpt>
      <trkpt lat="46.26935" lon="5.91342">
        <ele>859.982394</ele>
        <time>2021-04-30T16:36:40.252Z</time>
      </trkpt>
      <trkpt lat="46.2692" lon="5.91284">
        <ele>859.793828</ele>
        <time>2021-04-30T16:36:50.448Z</time>
      </trkpt>
      <trkpt lat="46.26919" lon="5.91267">
        <ele>859.743581</ele>
        <time>2021-04-30T16:36:53.386Z</time>
      </trkpt>
      <trkpt lat="46.26928" lon="5.91218">
        <ele>859.586256</ele>
        <time>2021-04-30T16:37:02.678Z</time>
      </trkpt>
      <trkpt lat="46.26915" lon="5.9113">
        <ele>859.312608</ele>
        <time>2021-04-30T16:37:19.965Z</time>
      </trkpt>
      <trkpt lat="46.26889" lon="5.91044">
        <ele>858.437977</ele>
        <time>2021-04-30T16:37:38.366Z</time>
      </trkpt>
      <trkpt lat="46.26809" lon="5.90886">
        <ele>855.995377</ele>
        <time>2021-04-30T16:38:07.049Z</time>
      </trkpt>
      <trkpt lat="46.2677" lon="5.9083">
        <ele>853.446225</ele>
        <time>2021-04-30T16:38:17.184Z</time>
      </trkpt>
      <trkpt lat="46.2671" lon="5.90769">
        <ele>850.014971</ele>
        <time>2021-04-30T16:38:30.225Z</time>
      </trkpt>
      <trkpt lat="46.26584" lon="5.90575">
        <ele>841.875763</ele>
        <time>2021-04-30T16:39:03.149Z</time>
      </trkpt>
      <trkpt lat="46.26552" lon="5.90542">
        <ele>840.490839</ele>
        <time>2021-04-30T16:39:12.841Z</time>
      </trkpt>
      <trkpt lat="46.26461" lon="5.90514">
        <ele>840.755727</ele>
        <time>2021-04-30T16:39:35.395Z</time>
      </trkpt>
      <trkpt lat="46.26419" lon="5.90486">
        <ele>840.886903</ele>
        <time>2021-04-30T16:39:51.118Z</time>
      </trkpt>
      <trkpt lat="46.26371" lon="5.90449">
        <ele>841.656803</ele>
        <time>2021-04-30T16:40:10.023Z</time>
      </trkpt>
      <trkpt lat="46.26343" lon="5.90413">
        <ele>842.908049</ele>
        <time>2021-04-30T16:40:25.865Z</time>
      </trkpt>
      <trkpt lat="46.26275" lon="5.90359">
        <ele>845.478777</ele>
        <time>2021-04-30T16:41:00.561Z</time>
      </trkpt>
      <trkpt lat="46.26228" lon="5.90353">
        <ele>847.01716</ele>
        <time>2021-04-30T16:41:21.362Z</time>
      </trkpt>
      <trkpt lat="46.26187" lon="5.90322">
        <ele>848.105242</ele>
        <time>2021-04-30T16:41:43.752Z</time>
      </trkpt>
      <trkpt lat="46.26143" lon="5.90306">
        <ele>849.176828</ele>
        <time>2021-04-30T16:42:04.226Z</time>
      </trkpt>
      <trkpt lat="46.26048" lon="5.90242">
        <ele>850.759865</ele>
        <time>2021-04-30T16:42:38.325Z</time>
      </trkpt>
      <trkpt lat="46.25999" lon="5.90142">
        <ele>848.950593</ele>
        <time>2021-04-30T16:42:55.229Z</time>
      </trkpt>
      <trkpt lat="46.25967" lon="5.9009">
        <ele>847.92791</ele>
        <time>2021-04-30T16:43:04.511Z</time>
      </trkpt>
      <trkpt lat="46.25939" lon="5.90064">
        <ele>847.208374</ele>
        <time>2021-04-30T16:43:11.236Z</time>
      </trkpt>
      <trkpt lat="46.25868" lon="5.9003">
        <ele>845.692869</ele>
        <time>2021-04-30T16:43:27.197Z</time>
      </trkpt>
      <trkpt lat="46.25847" lon="5.89984">
        <ele>844.909368</ele>
        <time>2021-04-30T16:43:37.165Z</time>
      </trkpt>
      <trkpt lat="46.25733" lon="5.89839">
        <ele>837.816758</ele>
        <time>2021-04-30T16:44:07.394Z</time>
      </trkpt>
      <trkpt lat="46.25705" lon="5.89815">
        <ele>835.72453</ele>
        <time>2021-04-30T16:44:12.833Z</time>
      </trkpt>
      <trkpt lat="46.2562" lon="5.89712">
        <ele>826.266309</ele>
        <time>2021-04-30T16:44:31.613Z</time>
      </trkpt>
      <trkpt lat="46.25588" lon="5.89676">
        <ele>821.916933</ele>
        <time>2021-04-30T16:44:38.037Z</time>
      </trkpt>
      <trkpt lat="46.25486" lon="5.89561">
        <ele>810.547756</ele>
        <time>2021-04-30T16:44:59.156Z</time>
      </trkpt>
      <trkpt lat="46.25441" lon="5.89523">
        <ele>807.806978</ele>
        <time>2021-04-30T16:45:08.546Z</time>
      </trkpt>
      <trkpt lat="46.25345" lon="5.89474">
        <ele>803.994791</ele>
        <time>2021-04-30T16:45:28.383Z</time>
      </trkpt>
      <trkpt lat="46.25288" lon="5.89431">
        <ele>805.840579</ele>
        <time>2021-04-30T16:45:51.761Z</time>
      </trkpt>
      <trkpt lat="46.25246" lon="5.89406">
        <ele>807.139151</ele>
        <time>2021-04-30T16:46:12.301Z</time>
      </trkpt>
      <trkpt lat="46.2521" lon="5.89397">
        <ele>808.200174</ele>
        <time>2021-04-30T16:46:32.529Z</time>
      </trkpt>
      <trkpt lat="46.25176" lon="5.89385">
        <ele>809.79316</ele>
        <time>2021-04-30T16:46:53.132Z</time>
      </trkpt>
      <trkpt lat="46.25053" lon="5.89358">
        <ele>816.891179</ele>
        <time>2021-04-30T16:48:10.582Z</time>
      </trkpt>
      <trkpt lat="46.24957" lon="5.89315">
        <ele>814.731814</ele>
        <time>2021-04-30T16:48:46.423Z</time>
      </trkpt>
      <trkpt lat="46.24841" lon="5.8929">
        <ele>807.046091</ele>
        <time>2021-04-30T16:49:05.584Z</time>
      </trkpt>
      <trkpt lat="46.2482" lon="5.89295">
        <ele>802.558477</ele>
        <time>2021-04-30T16:49:08.872Z</time>
      </trkpt>
      <trkpt lat="46.24635" lon="5.89434">
        <ele>762.058589</ele>
        <time>2021-04-30T16:49:42.038Z</time>
      </trkpt>
      <trkpt lat="46.24614" lon="5.89459">
        <ele>758.206662</ele>
        <time>2021-04-30T16:49:46.217Z</time>
      </trkpt>
      <trkpt lat="46.24602" lon="5.89475">
        <ele>755.877378</ele>
        <time>2021-04-30T16:49:48.760Z</time>
      </trkpt>
      <trkpt lat="46.24596" lon="5.89488">
        <ele>754.274476</ele>
        <time>2021-04-30T16:49:50.539Z</time>
      </trkpt>
      <trkpt lat="46.24593" lon="5.89501">
        <ele>752.911943</ele>
        <time>2021-04-30T16:49:52.043Z</time>
      </trkpt>
      <trkpt lat="46.24592" lon="5.89511">
        <ele>751.929071</ele>
        <time>2021-04-30T16:49:53.109Z</time>
      </trkpt>
      <trkpt lat="46.24591" lon="5.89522">
        <ele>750.775436</ele>
        <time>2021-04-30T16:49:54.548Z</time>
      </trkpt>
      <trkpt lat="46.24599" lon="5.89554">
        <ele>747.439685</ele>
        <time>2021-04-30T16:49:58.360Z</time>
      </trkpt>
      <trkpt lat="46.24621" lon="5.89595">
        <ele>743.578229</ele>
        <time>2021-04-30T16:50:04.599Z</time>
      </trkpt>
      <trkpt lat="46.24625" lon="5.89605">
        <ele>743.355174</ele>
        <time>2021-04-30T16:50:06.085Z</time>
      </trkpt>
      <trkpt lat="46.24627" lon="5.89618">
        <ele>743.111957</ele>
        <time>2021-04-30T16:50:10.044Z</time>
      </trkpt>
      <trkpt lat="46.24624" lon="5.89661">
        <ele>742.336631</ele>
        <time>2021-04-30T16:50:15.896Z</time>
      </trkpt>
      <trkpt lat="46.24616" lon="5.89678">
        <ele>741.95731</ele>
        <time>2021-04-30T16:50:19.378Z</time>
      </trkpt>
      <trkpt lat="46.24598" lon="5.89698">
        <ele>741.368442</ele>
        <time>2021-04-30T16:50:25.270Z</time>
      </trkpt>
      <trkpt lat="46.24491" lon="5.89706">
        <ele>738.048263</ele>
        <time>2021-04-30T16:50:49.321Z</time>
      </trkpt>
      <trkpt lat="46.24453" lon="5.89722">
        <ele>736.106897</ele>
        <time>2021-04-30T16:50:56.346Z</time>
      </trkpt>
      <trkpt lat="46.24408" lon="5.89735">
        <ele>733.863645</ele>
        <time>2021-04-30T16:51:04.342Z</time>
      </trkpt>
      <trkpt lat="46.24384" lon="5.89735">
        <ele>732.668779</ele>
        <time>2021-04-30T16:51:08.576Z</time>
      </trkpt>
      <trkpt lat="46.24364" lon="5.89726">
        <ele>731.619069</ele>
        <time>2021-04-30T16:51:12.223Z</time>
      </trkpt>
      <trkpt lat="46.24272" lon="5.89662">
        <ele>728.982783</ele>
        <time>2021-04-30T16:51:30.916Z</time>
      </trkpt>
      <trkpt lat="46.24205" lon="5.89645">
        <ele>727.812503</ele>
        <time>2021-04-30T16:51:49.569Z</time>
      </trkpt>
      <trkpt lat="46.2419" lon="5.89645">
        <ele>727.544256</ele>
        <time>2021-04-30T16:51:54.202Z</time>
      </trkpt>
      <trkpt lat="46.24146" lon="5.89645">
        <ele>727.547926</ele>
        <time>2021-04-30T16:52:08.354Z</time>
      </trkpt>
      <trkpt lat="46.2414" lon="5.89645">
        <ele>727.655964</ele>
        <time>2021-04-30T16:52:10.363Z</time>
      </trkpt>
      <trkpt lat="46.24131" lon="5.89642">
        <ele>727.802502</ele>
        <time>2021-04-30T16:52:14.194Z</time>
      </trkpt>
      <trkpt lat="46.24104" lon="5.89617">
        <ele>728.369629</ele>
        <time>2021-04-30T16:52:25.218Z</time>
      </trkpt>
      <trkpt lat="46.24095" lon="5.89603">
        <ele>728.607061</ele>
        <time>2021-04-30T16:52:30.377Z</time>
      </trkpt>
      <trkpt lat="46.24085" lon="5.89587">
        <ele>728.852296</ele>
        <time>2021-04-30T16:52:34.967Z</time>
      </trkpt>
      <trkpt lat="46.2408" lon="5.89579">
        <ele>728.987875</ele>
        <time>2021-04-30T16:52:38.121Z</time>
      </trkpt>
      <trkpt lat="46.24073" lon="5.89571">
        <ele>729.140488</ele>
        <time>2021-04-30T16:52:41.814Z</time>
      </trkpt>
      <trkpt lat="46.2406" lon="5.89559">
        <ele>729.405647</ele>
        <time>2021-04-30T16:52:46.728Z</time>
      </trkpt>
      <trkpt lat="46.24044" lon="5.89548">
        <ele>729.723276</ele>
        <time>2021-04-30T16:52:55.018Z</time>
      </trkpt>
      <trkpt lat="46.24035" lon="5.89541">
        <ele>729.899112</ele>
        <time>2021-04-30T16:52:58.953Z</time>
      </trkpt>
      <trkpt lat="46.23973" lon="5.89486">
        <ele>731.053556</ele>
        <time>2021-04-30T16:53:22.952Z</time>
      </trkpt>
      <trkpt lat="46.23927" lon="5.89447">
        <ele>731.864119</ele>
        <time>2021-04-30T16:53:37.748Z</time>
      </trkpt>
      <trkpt lat="46.23915" lon="5.89434">
        <ele>732.089593</ele>
        <time>2021-04-30T16:53:42.867Z</time>
      </trkpt>
      <trkpt lat="46.23892" lon="5.8941">
        <ele>732.520943</ele>
        <time>2021-04-30T16:53:52.212Z</time>
      </trkpt>
      <trkpt lat="46.23808" lon="5.89343">
        <ele>734.874192</ele>
        <time>2021-04-30T16:54:30.671Z</time>
      </trkpt>
      <trkpt lat="46.23793" lon="5.89322">
        <ele>735.483513</ele>
        <time>2021-04-30T16:54:41.773Z</time>
      </trkpt>
      <trkpt lat="46.23719" lon="5.89169">
        <ele>738.746429</ele>
        <time>2021-04-30T16:55:33.476Z</time>
      </trkpt>
      <trkpt lat="46.2371" lon="5.89146">
        <ele>738.982513</ele>
        <time>2021-04-30T16:55:40.921Z</time>
      </trkpt>
      <trkpt lat="46.23703" lon="5.89119">
        <ele>739.251297</ele>
        <time>2021-04-30T16:55:46.397Z</time>
      </trkpt>
      <trkpt lat="46.23692" lon="5.89093">
        <ele>739.529749</ele>
        <time>2021-04-30T16:55:54.057Z</time>
      </trkpt>
      <trkpt lat="46.23682" lon="5.89083">
        <ele>739.691409</ele>
        <time>2021-04-30T16:55:57.128Z</time>
      </trkpt>
      <trkpt lat="46.23624" lon="5.89067">
        <ele>740.471355</ele>
        <time>2021-04-30T16:56:15.718Z</time>
      </trkpt>
      <trkpt lat="46.23597" lon="5.89042">
        <ele>740.570754</ele>
        <time>2021-04-30T16:56:25.121Z</time>
      </trkpt>
      <trkpt lat="46.23589" lon="5.89034">
        <ele>740.492322</ele>
        <time>2021-04-30T16:56:27.219Z</time>
      </trkpt>
      <trkpt lat="46.23566" lon="5.89018">
        <ele>740.290674</ele>
        <time>2021-04-30T16:56:33.836Z</time>
      </trkpt>
      <trkpt lat="46.23526" lon="5.89012">
        <ele>739.970676</ele>
        <time>2021-04-30T16:56:45.237Z</time>
      </trkpt>
      <trkpt lat="46.23499" lon="5.88996">
        <ele>739.744319</ele>
        <time>2021-04-30T16:56:53.998Z</time>
      </trkpt>
      <trkpt lat="46.23352" lon="5.88867">
        <ele>733.626058</ele>
        <time>2021-04-30T16:57:28.166Z</time>
      </trkpt>
      <trkpt lat="46.2335" lon="5.88864">
        <ele>733.47945</ele>
        <time>2021-04-30T16:57:28.757Z</time>
      </trkpt>
      <trkpt lat="46.23337" lon="5.88851">
        <ele>732.695396</ele>
        <time>2021-04-30T16:57:31.375Z</time>
      </trkpt>
      <trkpt lat="46.23329" lon="5.88839">
        <ele>732.092502</ele>
        <time>2021-04-30T16:57:33.519Z</time>
      </trkpt>
      <trkpt lat="46.2331" lon="5.888">
        <ele>730.429063</ele>
        <time>2021-04-30T16:57:39.083Z</time>
      </trkpt>
      <trkpt lat="46.23303" lon="5.88786">
        <ele>729.381448</ele>
        <time>2021-04-30T16:57:40.995Z</time>
      </trkpt>
      <trkpt lat="46.23284" lon="5.88746">
        <ele>725.785501</ele>
        <time>2021-04-30T16:57:46.452Z</time>
      </trkpt>
      <trkpt lat="46.23232" lon="5.88701">
        <ele>719.26515</ele>
        <time>2021-04-30T16:57:56.137Z</time>
      </trkpt>
      <trkpt lat="46.23188" lon="5.88652">
        <ele>713.229575</ele>
        <time>2021-04-30T16:58:05.028Z</time>
      </trkpt>
      <trkpt lat="46.23157" lon="5.88599">
        <ele>707.950914</ele>
        <time>2021-04-30T16:58:12.881Z</time>
      </trkpt>
      <trkpt lat="46.23142" lon="5.88536">
        <ele>702.702474</ele>
        <time>2021-04-30T16:58:20.444Z</time>
      </trkpt>
      <trkpt lat="46.23129" lon="5.88421">
        <ele>693.645967</ele>
        <time>2021-04-30T16:58:33.283Z</time>
      </trkpt>
      <trkpt lat="46.23123" lon="5.884">
        <ele>691.889302</ele>
        <time>2021-04-30T16:58:35.771Z</time>
      </trkpt>
      <trkpt lat="46.23106" lon="5.88371">
        <ele>689.041973</ele>
        <time>2021-04-30T16:58:40.039Z</time>
      </trkpt>
      <trkpt lat="46.23087" lon="5.88343">
        <ele>686.275258</ele>
        <time>2021-04-30T16:58:44.332Z</time>
      </trkpt>
      <trkpt lat="46.23075" lon="5.88328">
        <ele>684.555984</ele>
        <time>2021-04-30T16:58:46.995Z</time>
      </trkpt>
      <trkpt lat="46.23009" lon="5.88267">
        <ele>676.406841</ele>
        <time>2021-04-30T16:58:59.758Z</time>
      </trkpt>
      <trkpt lat="46.22955" lon="5.88163">
        <ele>668.45461</ele>
        <time>2021-04-30T16:59:14.479Z</time>
      </trkpt>
      <trkpt lat="46.22932" lon="5.88134">
        <ele>666.121271</ele>
        <time>2021-04-30T16:59:19.768Z</time>
      </trkpt>
      <trkpt lat="46.2292" lon="5.88126">
        <ele>665.099709</ele>
        <time>2021-04-30T16:59:22.092Z</time>
      </trkpt>
      <trkpt lat="46.22833" lon="5.88096">
        <ele>658.377696</ele>
        <time>2021-04-30T16:59:37.414Z</time>
      </trkpt>
      <trkpt lat="46.22796" lon="5.88069">
        <ele>655.675515</ele>
        <time>2021-04-30T16:59:44.681Z</time>
      </trkpt>
      <trkpt lat="46.22781" lon="5.88045">
        <ele>654.235524</ele>
        <time>2021-04-30T16:59:48.577Z</time>
      </trkpt>
      <trkpt lat="46.22726" lon="5.87922">
        <ele>647.735065</ele>
        <time>2021-04-30T17:00:06.322Z</time>
      </trkpt>
      <trkpt lat="46.2267" lon="5.87847">
        <ele>643.164299</ele>
        <time>2021-04-30T17:00:19.691Z</time>
      </trkpt>
      <trkpt lat="46.2263" lon="5.87744">
        <ele>638.378847</ele>
        <time>2021-04-30T17:00:34.115Z</time>
      </trkpt>
      <trkpt lat="46.22622" lon="5.87713">
        <ele>637.044574</ele>
        <time>2021-04-30T17:00:38.145Z</time>
      </trkpt>
      <trkpt lat="46.22615" lon="5.87668">
        <ele>635.406606</ele>
        <time>2021-04-30T17:00:43.874Z</time>
      </trkpt>
      <trkpt lat="46.22591" lon="5.87552">
        <ele>631.664685</ele>
        <time>2021-04-30T17:00:59.458Z</time>
      </trkpt>
      <trkpt lat="46.22571" lon="5.87499">
        <ele>629.813451</ele>
        <time>2021-04-30T17:01:07.216Z</time>
      </trkpt>
      <trkpt lat="46.22565" lon="5.87492">
        <ele>629.448285</ele>
        <time>2021-04-30T17:01:08.625Z</time>
      </trkpt>
      <trkpt lat="46.22557" lon="5.87486">
        <ele>629.043667</ele>
        <time>2021-04-30T17:01:10.446Z</time>
      </trkpt>
      <trkpt lat="46.22545" lon="5.8748">
        <ele>628.487895</ele>
        <time>2021-04-30T17:01:12.872Z</time>
      </trkpt>
      <trkpt lat="46.22531" lon="5.87475">
        <ele>627.866364</ele>
        <time>2021-04-30T17:01:15.491Z</time>
      </trkpt>
      <trkpt lat="46.22519" lon="5.87468">
        <ele>627.281483</ele>
        <time>2021-04-30T17:01:18.151Z</time>
      </trkpt>
      <trkpt lat="46.2251" lon="5.87461">
        <ele>626.828544</ele>
        <time>2021-04-30T17:01:20.162Z</time>
      </trkpt>
      <trkpt lat="46.22497" lon="5.87426">
        <ele>625.614778</ele>
        <time>2021-04-30T17:01:25.438Z</time>
      </trkpt>
      <trkpt lat="46.22467" lon="5.87205">
        <ele>617.599027</ele>
        <time>2021-04-30T17:01:54.147Z</time>
      </trkpt>
      <trkpt lat="46.22424" lon="5.87148">
        <ele>612.993353</ele>
        <time>2021-04-30T17:02:04.004Z</time>
      </trkpt>
      <trkpt lat="46.2241" lon="5.87101">
        <ele>610.180381</ele>
        <time>2021-04-30T17:02:09.905Z</time>
      </trkpt>
      <trkpt lat="46.22406" lon="5.87078">
        <ele>608.921728</ele>
        <time>2021-04-30T17:02:12.514Z</time>
      </trkpt>
      <trkpt lat="46.22405" lon="5.87047">
        <ele>607.231527</ele>
        <time>2021-04-30T17:02:16.122Z</time>
      </trkpt>
      <trkpt lat="46.22394" lon="5.8699">
        <ele>603.985089</ele>
        <time>2021-04-30T17:02:23.015Z</time>
      </trkpt>
      <trkpt lat="46.22393" lon="5.86984">
        <ele>603.702533</ele>
        <time>2021-04-30T17:02:23.575Z</time>
      </trkpt>
      <trkpt lat="46.22395" lon="5.86982">
        <ele>603.482552</ele>
        <time>2021-04-30T17:02:24.039Z</time>
      </trkpt>
      <trkpt lat="46.22397" lon="5.86978">
        <ele>603.259889</ele>
        <time>2021-04-30T17:02:24.531Z</time>
      </trkpt>
      <trkpt lat="46.22398" lon="5.86975">
        <ele>603.042397</ele>
        <time>2021-04-30T17:02:24.988Z</time>
      </trkpt>
      <trkpt lat="46.22398" lon="5.8697">
        <ele>602.814833</ele>
        <time>2021-04-30T17:02:25.472Z</time>
      </trkpt>
      <trkpt lat="46.22391" lon="5.86957">
        <ele>601.941366</ele>
        <time>2021-04-30T17:02:27.376Z</time>
      </trkpt>
      <trkpt lat="46.22389" lon="5.86957">
        <ele>601.716859</ele>
        <time>2021-04-30T17:02:27.852Z</time>
      </trkpt>
      <trkpt lat="46.22385" lon="5.86951">
        <ele>601.32401</ele>
        <time>2021-04-30T17:02:28.693Z</time>
      </trkpt>
      <trkpt lat="46.22381" lon="5.86943">
        <ele>600.77588</ele>
        <time>2021-04-30T17:02:29.806Z</time>
      </trkpt>
      <trkpt lat="46.22374" lon="5.86928">
        <ele>599.782033</ele>
        <time>2021-04-30T17:02:31.945Z</time>
      </trkpt>
      <trkpt lat="46.22368" lon="5.8691">
        <ele>598.74104</ele>
        <time>2021-04-30T17:02:34.194Z</time>
      </trkpt>
      <trkpt lat="46.22342" lon="5.86857">
        <ele>595.218288</ele>
        <time>2021-04-30T17:02:41.692Z</time>
      </trkpt>
      <trkpt lat="46.22323" lon="5.86829">
        <ele>593.038413</ele>
        <time>2021-04-30T17:02:46.733Z</time>
      </trkpt>
      <trkpt lat="46.22311" lon="5.86812">
        <ele>591.916219</ele>
        <time>2021-04-30T17:02:49.521Z</time>
      </trkpt>
      <trkpt lat="46.223" lon="5.86795">
        <ele>591.545665</ele>
        <time>2021-04-30T17:02:52.520Z</time>
      </trkpt>
      <trkpt lat="46.22276" lon="5.86759">
        <ele>590.750637</ele>
        <time>2021-04-30T17:02:59.279Z</time>
      </trkpt>
      <trkpt lat="46.22259" lon="5.86732">
        <ele>590.16949</ele>
        <time>2021-04-30T17:03:04.785Z</time>
      </trkpt>
      <trkpt lat="46.22248" lon="5.86709">
        <ele>589.727969</ele>
        <time>2021-04-30T17:03:08.902Z</time>
      </trkpt>
      <trkpt lat="46.22231" lon="5.86676">
        <ele>589.076592</ele>
        <time>2021-04-30T17:03:14.918Z</time>
      </trkpt>
      <trkpt lat="46.22188" lon="5.86603">
        <ele>587.89452</ele>
        <time>2021-04-30T17:03:31.567Z</time>
      </trkpt>
      <trkpt lat="46.22184" lon="5.86602">
        <ele>587.903747</ele>
        <time>2021-04-30T17:03:32.426Z</time>
      </trkpt>
      <trkpt lat="46.22178" lon="5.86603">
        <ele>587.916174</ele>
        <time>2021-04-30T17:03:34.507Z</time>
      </trkpt>
      <trkpt lat="46.22078" lon="5.8664">
        <ele>588.154123</ele>
        <time>2021-04-30T17:04:06.529Z</time>
      </trkpt>
      <trkpt lat="46.22049" lon="5.86647">
        <ele>588.220225</ele>
        <time>2021-04-30T17:04:14.478Z</time>
      </trkpt>
      <trkpt lat="46.22029" lon="5.86652">
        <ele>588.266665</ele>
        <time>2021-04-30T17:04:19.145Z</time>
      </trkpt>
      <trkpt lat="46.22009" lon="5.86649">
        <ele>588.003431</ele>
        <time>2021-04-30T17:04:24.511Z</time>
      </trkpt>
      <trkpt lat="46.2199" lon="5.86638">
        <ele>587.648027</ele>
        <time>2021-04-30T17:04:29.198Z</time>
      </trkpt>
      <trkpt lat="46.21984" lon="5.86633">
        <ele>587.520131</ele>
        <time>2021-04-30T17:04:31.645Z</time>
      </trkpt>
      <trkpt lat="46.21977" lon="5.86626">
        <ele>587.382138</ele>
        <time>2021-04-30T17:04:33.364Z</time>
      </trkpt>
      <trkpt lat="46.21954" lon="5.86604">
        <ele>586.905458</ele>
        <time>2021-04-30T17:04:39.761Z</time>
      </trkpt>
      <trkpt lat="46.21945" lon="5.86594">
        <ele>586.714786</ele>
        <time>2021-04-30T17:04:42.116Z</time>
      </trkpt>
      <trkpt lat="46.21935" lon="5.8658">
        <ele>586.468414</ele>
        <time>2021-04-30T17:04:45.036Z</time>
      </trkpt>
      <trkpt lat="46.21879" lon="5.86475">
        <ele>584.91335</ele>
        <time>2021-04-30T17:05:03.706Z</time>
      </trkpt>
      <trkpt lat="46.21858" lon="5.86457">
        <ele>584.526642</ele>
        <time>2021-04-30T17:05:08.415Z</time>
      </trkpt>
      <trkpt lat="46.2182" lon="5.86443">
        <ele>583.913681</ele>
        <time>2021-04-30T17:05:16.161Z</time>
      </trkpt>
      <trkpt lat="46.21752" lon="5.86424">
        <ele>582.811594</ele>
        <time>2021-04-30T17:05:32.398Z</time>
      </trkpt>
      <trkpt lat="46.21603" lon="5.864">
        <ele>581.788911</ele>
        <time>2021-04-30T17:06:11.418Z</time>
      </trkpt>
      <trkpt lat="46.2158" lon="5.86397">
        <ele>581.680521</ele>
        <time>2021-04-30T17:06:17.684Z</time>
      </trkpt>
      <trkpt lat="46.21487" lon="5.86382">
        <ele>580.67227</ele>
        <time>2021-04-30T17:06:38.606Z</time>
      </trkpt>
      <trkpt lat="46.21335" lon="5.86361">
        <ele>579.160657</ele>
        <time>2021-04-30T17:07:11.429Z</time>
      </trkpt>
      <trkpt lat="46.213" lon="5.86366">
        <ele>579.532487</ele>
        <time>2021-04-30T17:07:20.122Z</time>
      </trkpt>
      <trkpt lat="46.21171" lon="5.86413">
        <ele>581.619396</ele>
        <time>2021-04-30T17:08:09.006Z</time>
      </trkpt>
      <trkpt lat="46.21156" lon="5.86416">
        <ele>582.339967</ele>
        <time>2021-04-30T17:08:15.999Z</time>
      </trkpt>
      <trkpt lat="46.21126" lon="5.8641">
        <ele>583.812387</ele>
        <time>2021-04-30T17:08:30.689Z</time>
      </trkpt>
      <trkpt lat="46.21104" lon="5.864">
        <ele>584.972281</ele>
        <time>2021-04-30T17:08:41.857Z</time>
      </trkpt>
      <trkpt lat="46.21096" lon="5.86397">
        <ele>585.368585</ele>
        <time>2021-04-30T17:08:46.811Z</time>
      </trkpt>
      <trkpt lat="46.21049" lon="5.86382">
        <ele>587.71304</ele>
        <time>2021-04-30T17:09:11.236Z</time>
      </trkpt>
      <trkpt lat="46.20948" lon="5.86335">
        <ele>594.079217</ele>
        <time>2021-04-30T17:10:15.099Z</time>
      </trkpt>
      <trkpt lat="46.20897" lon="5.86333">
        <ele>597.437384</ele>
        <time>2021-04-30T17:10:43.823Z</time>
      </trkpt>
      <trkpt lat="46.20866" lon="5.86321">
        <ele>599.540362</ele>
        <time>2021-04-30T17:11:02.143Z</time>
      </trkpt>
      <trkpt lat="46.20843" lon="5.8631">
        <ele>601.091575</ele>
        <time>2021-04-30T17:11:15.740Z</time>
      </trkpt>
      <trkpt lat="46.20689" lon="5.8626">
        <ele>612.316573</ele>
        <time>2021-04-30T17:12:53.377Z</time>
      </trkpt>
      <trkpt lat="46.20655" lon="5.86244">
        <ele>614.812483</ele>
        <time>2021-04-30T17:13:14.700Z</time>
      </trkpt>
      <trkpt lat="46.20637" lon="5.8623">
        <ele>616.09093</ele>
        <time>2021-04-30T17:13:27.323Z</time>
      </trkpt>
      <trkpt lat="46.20609" lon="5.86204">
        <ele>618.210902</ele>
        <time>2021-04-30T17:13:47.513Z</time>
      </trkpt>
      <trkpt lat="46.20568" lon="5.86185">
        <ele>620.936269</ele>
        <time>2021-04-30T17:14:13.777Z</time>
      </trkpt>
      <trkpt lat="46.20493" lon="5.86097">
        <ele>625.82675</ele>
        <time>2021-04-30T17:15:06.291Z</time>
      </trkpt>
      <trkpt lat="46.20475" lon="5.86085">
        <ele>626.049295</ele>
        <time>2021-04-30T17:15:15.232Z</time>
      </trkpt>
      <trkpt lat="46.20429" lon="5.86069">
        <ele>626.576172</ele>
        <time>2021-04-30T17:15:30.385Z</time>
      </trkpt>
      <trkpt lat="46.20407" lon="5.86053">
        <ele>626.850524</ele>
        <time>2021-04-30T17:15:37.338Z</time>
      </trkpt>
      <trkpt lat="46.20404" lon="5.86047">
        <ele>626.906391</ele>
        <time>2021-04-30T17:15:40.630Z</time>
      </trkpt>
      <trkpt lat="46.20401" lon="5.86042">
        <ele>626.95718</ele>
        <time>2021-04-30T17:15:41.372Z</time>
      </trkpt>
      <trkpt lat="46.20388" lon="5.8601">
        <ele>627.243512</ele>
        <time>2021-04-30T17:15:47.467Z</time>
      </trkpt>
      <trkpt lat="46.20357" lon="5.85967">
        <ele>627.42154</ele>
        <time>2021-04-30T17:15:57.323Z</time>
      </trkpt>
      <trkpt lat="46.20351" lon="5.85951">
        <ele>627.289229</ele>
        <time>2021-04-30T17:15:59.491Z</time>
      </trkpt>
      <trkpt lat="46.20336" lon="5.859">
        <ele>626.885699</ele>
        <time>2021-04-30T17:16:07.366Z</time>
      </trkpt>
      <trkpt lat="46.20323" lon="5.85851">
        <ele>626.504168</ele>
        <time>2021-04-30T17:16:14.737Z</time>
      </trkpt>
      <trkpt lat="46.20291" lon="5.85764">
        <ele>625.787982</ele>
        <time>2021-04-30T17:16:30.586Z</time>
      </trkpt>
      <trkpt lat="46.20295" lon="5.8566">
        <ele>630.374332</ele>
        <time>2021-04-30T17:17:02.551Z</time>
      </trkpt>
      <trkpt lat="46.20289" lon="5.8562">
        <ele>632.542242</ele>
        <time>2021-04-30T17:17:20.153Z</time>
      </trkpt>
      <trkpt lat="46.2028" lon="5.85601">
        <ele>633.756176</ele>
        <time>2021-04-30T17:17:30.895Z</time>
      </trkpt>
      <trkpt lat="46.20225" lon="5.85518">
        <ele>640.263786</ele>
        <time>2021-04-30T17:18:34.481Z</time>
      </trkpt>
      <trkpt lat="46.20175" lon="5.85485">
        <ele>649.044853</ele>
        <time>2021-04-30T17:19:26.876Z</time>
      </trkpt>
      <trkpt lat="46.20118" lon="5.85434">
        <ele>659.725571</ele>
        <time>2021-04-30T17:20:41.139Z</time>
      </trkpt>
      <trkpt lat="46.20049" lon="5.85397">
        <ele>671.191866</ele>
        <time>2021-04-30T17:22:03.205Z</time>
      </trkpt>
      <trkpt lat="46.2004" lon="5.85391">
        <ele>672.63308</ele>
        <time>2021-04-30T17:22:16.502Z</time>
      </trkpt>
      <trkpt lat="46.2003" lon="5.85386">
        <ele>674.203849</ele>
        <time>2021-04-30T17:22:27.933Z</time>
      </trkpt>
      <trkpt lat="46.19983" lon="5.85357">
        <ele>681.77133</ele>
        <time>2021-04-30T17:23:19.626Z</time>
      </trkpt>
      <trkpt lat="46.19861" lon="5.85329">
        <ele>696.75336</ele>
        <time>2021-04-30T17:25:11.871Z</time>
      </trkpt>
      <trkpt lat="46.19795" lon="5.85289">
        <ele>700.68744</ele>
        <time>2021-04-30T17:25:51.892Z</time>
      </trkpt>
      <trkpt lat="46.1969" lon="5.85166">
        <ele>704.604343</ele>
        <time>2021-04-30T17:26:29.733Z</time>
      </trkpt>
      <trkpt lat="46.1965" lon="5.85089">
        <ele>704.578165</ele>
        <time>2021-04-30T17:26:44.828Z</time>
      </trkpt>
      <trkpt lat="46.19646" lon="5.85077">
        <ele>704.574241</ele>
        <time>2021-04-30T17:26:47.471Z</time>
      </trkpt>
      <trkpt lat="46.19655" lon="5.85009">
        <ele>704.790395</ele>
        <time>2021-04-30T17:27:00.561Z</time>
      </trkpt>
      <trkpt lat="46.19651" lon="5.84974">
        <ele>705.52917</ele>
        <time>2021-04-30T17:27:08.317Z</time>
      </trkpt>
      <trkpt lat="46.19608" lon="5.84883">
        <ele>707.833033</ele>
        <time>2021-04-30T17:27:38.904Z</time>
      </trkpt>
      <trkpt lat="46.19555" lon="5.84798">
        <ele>710.333269</ele>
        <time>2021-04-30T17:28:18.901Z</time>
      </trkpt>
      <trkpt lat="46.19547" lon="5.84766">
        <ele>711.371088</ele>
        <time>2021-04-30T17:28:30.433Z</time>
      </trkpt>
      <trkpt lat="46.1955" lon="5.84725">
        <ele>712.645163</ele>
        <time>2021-04-30T17:28:43.518Z</time>
      </trkpt>
      <trkpt lat="46.19571" lon="5.84682">
        <ele>714.236477</ele>
        <time>2021-04-30T17:28:58.955Z</time>
      </trkpt>
      <trkpt lat="46.19567" lon="5.84636">
        <ele>715.656396</ele>
        <time>2021-04-30T17:29:13.796Z</time>
      </trkpt>
      <trkpt lat="46.1956" lon="5.84614">
        <ele>716.385545</ele>
        <time>2021-04-30T17:29:22.081Z</time>
      </trkpt>
      <trkpt lat="46.19508" lon="5.84513">
        <ele>721.067225</ele>
        <time>2021-04-30T17:30:07.839Z</time>
      </trkpt>
      <trkpt lat="46.19445" lon="5.8441">
        <ele>726.790272</ele>
        <time>2021-04-30T17:31:00.912Z</time>
      </trkpt>
      <trkpt lat="46.19418" lon="5.84387">
        <ele>728.695218</ele>
        <time>2021-04-30T17:31:20.129Z</time>
      </trkpt>
      <trkpt lat="46.19388" lon="5.84377">
        <ele>730.332929</ele>
        <time>2021-04-30T17:31:39.553Z</time>
      </trkpt>
      <trkpt lat="46.19367" lon="5.84363">
        <ele>731.526515</ele>
        <time>2021-04-30T17:31:53.512Z</time>
      </trkpt>
      <trkpt lat="46.19286" lon="5.84253">
        <ele>737.356941</ele>
        <time>2021-04-30T17:32:49.090Z</time>
      </trkpt>
      <trkpt lat="46.19204" lon="5.84127">
        <ele>741.367857</ele>
        <time>2021-04-30T17:33:38.736Z</time>
      </trkpt>
      <trkpt lat="46.19173" lon="5.84022">
        <ele>743.725914</ele>
        <time>2021-04-30T17:34:09.650Z</time>
      </trkpt>
      <trkpt lat="46.19151" lon="5.83968">
        <ele>744.555848</ele>
        <time>2021-04-30T17:34:27.702Z</time>
      </trkpt>
      <trkpt lat="46.19105" lon="5.83896">
        <ele>745.838661</ele>
        <time>2021-04-30T17:34:54.825Z</time>
      </trkpt>
      <trkpt lat="46.19054" lon="5.83775">
        <ele>746.153538</ele>
        <time>2021-04-30T17:35:24.272Z</time>
      </trkpt>
      <trkpt lat="46.18993" lon="5.83702">
        <ele>743.939233</ele>
        <time>2021-04-30T17:35:40.984Z</time>
      </trkpt>
      <trkpt lat="46.1899" lon="5.83685">
        <ele>743.603094</ele>
        <time>2021-04-30T17:35:43.238Z</time>
      </trkpt>
      <trkpt lat="46.18993" lon="5.83669">
        <ele>743.294953</ele>
        <time>2021-04-30T17:35:45.282Z</time>
      </trkpt>
      <trkpt lat="46.19024" lon="5.8362">
        <ele>741.905498</ele>
        <time>2021-04-30T17:35:53.583Z</time>
      </trkpt>
      <trkpt lat="46.19042" lon="5.8357">
        <ele>739.476145</ele>
        <time>2021-04-30T17:36:00.269Z</time>
      </trkpt>
      <trkpt lat="46.1903" lon="5.83436">
        <ele>733.564764</ele>
        <time>2021-04-30T17:36:16.539Z</time>
      </trkpt>
      <trkpt lat="46.19026" lon="5.8332">
        <ele>729.134049</ele>
        <time>2021-04-30T17:36:30.585Z</time>
      </trkpt>
      <trkpt lat="46.19" lon="5.83217">
        <ele>725.684095</ele>
        <time>2021-04-30T17:36:44.510Z</time>
      </trkpt>
      <trkpt lat="46.18987" lon="5.83209">
        <ele>725.055011</ele>
        <time>2021-04-30T17:36:47.173Z</time>
      </trkpt>
      <trkpt lat="46.18973" lon="5.83212">
        <ele>724.39391</ele>
        <time>2021-04-30T17:36:49.991Z</time>
      </trkpt>
      <trkpt lat="46.18904" lon="5.83273">
        <ele>721.653689</ele>
        <time>2021-04-30T17:37:06.026Z</time>
      </trkpt>
      <trkpt lat="46.18873" lon="5.83273">
        <ele>720.944382</ele>
        <time>2021-04-30T17:37:12.244Z</time>
      </trkpt>
      <trkpt lat="46.18846" lon="5.83254">
        <ele>720.248275</ele>
        <time>2021-04-30T17:37:18.464Z</time>
      </trkpt>
      <trkpt lat="46.18796" lon="5.83242">
        <ele>719.070946</ele>
        <time>2021-04-30T17:37:29.219Z</time>
      </trkpt>
      <trkpt lat="46.18789" lon="5.83228">
        <ele>718.780662</ele>
        <time>2021-04-30T17:37:31.913Z</time>
      </trkpt>
      <trkpt lat="46.18789" lon="5.83181">
        <ele>718.134524</ele>
        <time>2021-04-30T17:37:38.824Z</time>
      </trkpt>
      <trkpt lat="46.18776" lon="5.83149">
        <ele>717.682942</ele>
        <time>2021-04-30T17:37:44.472Z</time>
      </trkpt>
      <trkpt lat="46.18727" lon="5.8311">
        <ele>716.72686</ele>
        <time>2021-04-30T17:37:56.505Z</time>
      </trkpt>
      <trkpt lat="46.18609" lon="5.83104">
        <ele>714.82541</ele>
        <time>2021-04-30T17:38:22.168Z</time>
      </trkpt>
      <trkpt lat="46.18593" lon="5.83099">
        <ele>714.610801</ele>
        <time>2021-04-30T17:38:25.641Z</time>
      </trkpt>
      <trkpt lat="46.18567" lon="5.83074">
        <ele>714.189375</ele>
        <time>2021-04-30T17:38:32.417Z</time>
      </trkpt>
      <trkpt lat="46.18521" lon="5.83064">
        <ele>713.56732</ele>
        <time>2021-04-30T17:38:42.842Z</time>
      </trkpt>
      <trkpt lat="46.18444" lon="5.83031">
        <ele>712.535824</ele>
        <time>2021-04-30T17:39:01.781Z</time>
      </trkpt>
      <trkpt lat="46.18425" lon="5.83017">
        <ele>712.27076</ele>
        <time>2021-04-30T17:39:06.991Z</time>
      </trkpt>
      <trkpt lat="46.18406" lon="5.82997">
        <ele>711.990508</ele>
        <time>2021-04-30T17:39:12.432Z</time>
      </trkpt>
      <trkpt lat="46.18357" lon="5.82926">
        <ele>711.137711</ele>
        <time>2021-04-30T17:39:28.266Z</time>
      </trkpt>
      <trkpt lat="46.18342" lon="5.82916">
        <ele>710.941742</ele>
        <time>2021-04-30T17:39:31.786Z</time>
      </trkpt>
      <trkpt lat="46.18296" lon="5.82905">
        <ele>709.676624</ele>
        <time>2021-04-30T17:39:42.020Z</time>
      </trkpt>
      <trkpt lat="46.18271" lon="5.82885">
        <ele>708.629469</ele>
        <time>2021-04-30T17:39:48.087Z</time>
      </trkpt>
      <trkpt lat="46.18188" lon="5.82716">
        <ele>703.091389</ele>
        <time>2021-04-30T17:40:14.496Z</time>
      </trkpt>
      <trkpt lat="46.18141" lon="5.82603">
        <ele>698.150396</ele>
        <time>2021-04-30T17:40:30.730Z</time>
      </trkpt>
      <trkpt lat="46.18084" lon="5.82506">
        <ele>693.813363</ele>
        <time>2021-04-30T17:40:46.494Z</time>
      </trkpt>
      <trkpt lat="46.18031" lon="5.82437">
        <ele>691.353035</ele>
        <time>2021-04-30T17:40:59.767Z</time>
      </trkpt>
      <trkpt lat="46.17994" lon="5.82421">
        <ele>690.00705</ele>
        <time>2021-04-30T17:41:07.302Z</time>
      </trkpt>
      <trkpt lat="46.17909" lon="5.82412">
        <ele>688.669891</ele>
        <time>2021-04-30T17:41:25.969Z</time>
      </trkpt>
      <trkpt lat="46.17869" lon="5.82408">
        <ele>689.061236</ele>
        <time>2021-04-30T17:41:37.828Z</time>
      </trkpt>
      <trkpt lat="46.17802" lon="5.82381">
        <ele>689.738022</ele>
        <time>2021-04-30T17:42:02.568Z</time>
      </trkpt>
      <trkpt lat="46.17758" lon="5.82356">
        <ele>690.215233</ele>
        <time>2021-04-30T17:42:21.135Z</time>
      </trkpt>
      <trkpt lat="46.17743" lon="5.82355">
        <ele>690.38945</ele>
        <time>2021-04-30T17:42:27.402Z</time>
      </trkpt>
      <trkpt lat="46.17725" lon="5.82365">
        <ele>690.608534</ele>
        <time>2021-04-30T17:42:35.258Z</time>
      </trkpt>
      <trkpt lat="46.17697" lon="5.82405">
        <ele>691.058687</ele>
        <time>2021-04-30T17:42:51.209Z</time>
      </trkpt>
      <trkpt lat="46.17672" lon="5.82403">
        <ele>691.337011</ele>
        <time>2021-04-30T17:43:00.035Z</time>
      </trkpt>
      <trkpt lat="46.17614" lon="5.8235">
        <ele>692.124104</ele>
        <time>2021-04-30T17:43:18.693Z</time>
      </trkpt>
      <trkpt lat="46.17562" lon="5.82225">
        <ele>687.942865</ele>
        <time>2021-04-30T17:43:37.899Z</time>
      </trkpt>
      <trkpt lat="46.17503" lon="5.82143">
        <ele>684.459335</ele>
        <time>2021-04-30T17:43:52.518Z</time>
      </trkpt>
      <trkpt lat="46.17467" lon="5.82113">
        <ele>681.688766</ele>
        <time>2021-04-30T17:43:59.847Z</time>
      </trkpt>
      <trkpt lat="46.17401" lon="5.82069">
        <ele>676.891381</ele>
        <time>2021-04-30T17:44:12.395Z</time>
      </trkpt>
      <trkpt lat="46.17325" lon="5.82032">
        <ele>670.860265</ele>
        <time>2021-04-30T17:44:26.335Z</time>
      </trkpt>
      <trkpt lat="46.17231" lon="5.81932">
        <ele>658.706983</ele>
        <time>2021-04-30T17:44:45.312Z</time>
      </trkpt>
      <trkpt lat="46.17156" lon="5.81883">
        <ele>649.372922</ele>
        <time>2021-04-30T17:44:58.335Z</time>
      </trkpt>
      <trkpt lat="46.1713" lon="5.81873">
        <ele>645.982774</ele>
        <time>2021-04-30T17:45:02.623Z</time>
      </trkpt>
      <trkpt lat="46.17047" lon="5.81871">
        <ele>635.595298</ele>
        <time>2021-04-30T17:45:15.779Z</time>
      </trkpt>
      <trkpt lat="46.16991" lon="5.81862">
        <ele>629.59853</ele>
        <time>2021-04-30T17:45:24.819Z</time>
      </trkpt>
      <trkpt lat="46.16938" lon="5.81898">
        <ele>624.897462</ele>
        <time>2021-04-30T17:45:34.535Z</time>
      </trkpt>
      <trkpt lat="46.16927" lon="5.81905">
        <ele>623.903047</ele>
        <time>2021-04-30T17:45:36.566Z</time>
      </trkpt>
      <trkpt lat="46.16918" lon="5.8191">
        <ele>623.126529</ele>
        <time>2021-04-30T17:45:38.218Z</time>
      </trkpt>
      <trkpt lat="46.16902" lon="5.81915">
        <ele>621.801386</ele>
        <time>2021-04-30T17:45:41.085Z</time>
      </trkpt>
      <trkpt lat="46.16858" lon="5.81898">
        <ele>618.188672</ele>
        <time>2021-04-30T17:45:48.890Z</time>
      </trkpt>
      <trkpt lat="46.16849" lon="5.81899">
        <ele>617.436931</ele>
        <time>2021-04-30T17:45:50.565Z</time>
      </trkpt>
      <trkpt lat="46.16816" lon="5.81922">
        <ele>615.722196</ele>
        <time>2021-04-30T17:45:57.160Z</time>
      </trkpt>
      <trkpt lat="46.16786" lon="5.8193">
        <ele>614.455198</ele>
        <time>2021-04-30T17:46:02.738Z</time>
      </trkpt>
      <trkpt lat="46.16732" lon="5.81897">
        <ele>611.990844</ele>
        <time>2021-04-30T17:46:14.261Z</time>
      </trkpt>
      <trkpt lat="46.16702" lon="5.81896">
        <ele>610.742255</ele>
        <time>2021-04-30T17:46:20.175Z</time>
      </trkpt>
      <trkpt lat="46.16568" lon="5.81938">
        <ele>604.333936</ele>
        <time>2021-04-30T17:46:45.871Z</time>
      </trkpt>
      <trkpt lat="46.16555" lon="5.81928">
        <ele>603.652668</ele>
        <time>2021-04-30T17:46:48.433Z</time>
      </trkpt>
      <trkpt lat="46.16548" lon="5.81909">
        <ele>602.932373</ele>
        <time>2021-04-30T17:46:51.143Z</time>
      </trkpt>
      <trkpt lat="46.1654" lon="5.8187">
        <ele>601.582937</ele>
        <time>2021-04-30T17:46:56.142Z</time>
      </trkpt>
      <trkpt lat="46.16531" lon="5.8184">
        <ele>600.305262</ele>
        <time>2021-04-30T17:47:00.078Z</time>
      </trkpt>
      <trkpt lat="46.16508" lon="5.81813">
        <ele>598.237676</ele>
        <time>2021-04-30T17:47:05.280Z</time>
      </trkpt>
      <trkpt lat="46.16388" lon="5.81747">
        <ele>589.299167</ele>
        <time>2021-04-30T17:47:26.921Z</time>
      </trkpt>
      <trkpt lat="46.16363" lon="5.81742">
        <ele>587.604714</ele>
        <time>2021-04-30T17:47:31.498Z</time>
      </trkpt>
      <trkpt lat="46.16335" lon="5.81746">
        <ele>585.942533</ele>
        <time>2021-04-30T17:47:36.443Z</time>
      </trkpt>
      <trkpt lat="46.16326" lon="5.81746">
        <ele>585.390991</ele>
        <time>2021-04-30T17:47:38.015Z</time>
      </trkpt>
      <trkpt lat="46.16322" lon="5.81745">
        <ele>585.145054</ele>
        <time>2021-04-30T17:47:38.678Z</time>
      </trkpt>
      <trkpt lat="46.16283" lon="5.81729">
        <ele>582.710401</ele>
        <time>2021-04-30T17:47:45.878Z</time>
      </trkpt>
      <trkpt lat="46.16161" lon="5.81657">
        <ele>575.1516</ele>
        <time>2021-04-30T17:48:09.302Z</time>
      </trkpt>
      <trkpt lat="46.16149" lon="5.81652">
        <ele>574.509832</ele>
        <time>2021-04-30T17:48:11.524Z</time>
      </trkpt>
      <trkpt lat="46.16097" lon="5.81628">
        <ele>571.673106</ele>
        <time>2021-04-30T17:48:21.473Z</time>
      </trkpt>
      <trkpt lat="46.15958" lon="5.8154">
        <ele>563.585594</ele>
        <time>2021-04-30T17:48:48.804Z</time>
      </trkpt>
      <trkpt lat="46.15945" lon="5.81538">
        <ele>562.870763</ele>
        <time>2021-04-30T17:48:51.093Z</time>
      </trkpt>
      <trkpt lat="46.15955" lon="5.81526">
        <ele>562.201456</ele>
        <time>2021-04-30T17:48:53.529Z</time>
      </trkpt>
      <trkpt lat="46.15973" lon="5.81513">
        <ele>561.097136</ele>
        <time>2021-04-30T17:48:57.099Z</time>
      </trkpt>
      <trkpt lat="46.16053" lon="5.81504">
        <ele>556.627125</ele>
        <time>2021-04-30T17:49:11.417Z</time>
      </trkpt>
      <trkpt lat="46.1606" lon="5.81505">
        <ele>556.19734</ele>
        <time>2021-04-30T17:49:12.788Z</time>
      </trkpt>
      <trkpt lat="46.16051" lon="5.81483">
        <ele>555.17135</ele>
        <time>2021-04-30T17:49:18.128Z</time>
      </trkpt>
      <trkpt lat="46.16036" lon="5.81455">
        <ele>553.715233</ele>
        <time>2021-04-30T17:49:26.056Z</time>
      </trkpt>
      <trkpt lat="46.15952" lon="5.81386">
        <ele>547.970582</ele>
        <time>2021-04-30T17:49:56.985Z</time>
      </trkpt>
      <trkpt lat="46.15894" lon="5.81364">
        <ele>544.57265</ele>
        <time>2021-04-30T17:50:15.951Z</time>
      </trkpt>
      <trkpt lat="46.15857" lon="5.81348">
        <ele>542.36848</ele>
        <time>2021-04-30T17:50:28.549Z</time>
      </trkpt>
      <trkpt lat="46.15809" lon="5.81344">
        <ele>539.675911</ele>
        <time>2021-04-30T17:50:44.107Z</time>
      </trkpt>
      <trkpt lat="46.15788" lon="5.8134">
        <ele>538.490656</ele>
        <time>2021-04-30T17:50:50.926Z</time>
      </trkpt>
      <trkpt lat="46.15744" lon="5.81313">
        <ele>536.159959</ele>
        <time>2021-04-30T17:51:06.997Z</time>
      </trkpt>
      <trkpt lat="46.15695" lon="5.81285">
        <ele>533.814272</ele>
        <time>2021-04-30T17:51:24.992Z</time>
      </trkpt>
      <trkpt lat="46.15632" lon="5.8125">
        <ele>530.814452</ele>
        <time>2021-04-30T17:51:47.637Z</time>
      </trkpt>
      <trkpt lat="46.15599" lon="5.81222">
        <ele>529.037232</ele>
        <time>2021-04-30T17:52:00.632Z</time>
      </trkpt>
      <trkpt lat="46.15508" lon="5.81163">
        <ele>524.064619</ele>
        <time>2021-04-30T17:52:33.618Z</time>
      </trkpt>
      <trkpt lat="46.15454" lon="5.81106">
        <ele>520.706507</ele>
        <time>2021-04-30T17:52:55.391Z</time>
      </trkpt>
      <trkpt lat="46.15428" lon="5.81067">
        <ele>518.552982</ele>
        <time>2021-04-30T17:53:07.539Z</time>
      </trkpt>
      <trkpt lat="46.15359" lon="5.80864">
        <ele>509.324874</ele>
        <time>2021-04-30T17:53:58.026Z</time>
      </trkpt>
      <trkpt lat="46.15321" lon="5.8081">
        <ele>505.383293</ele>
        <time>2021-04-30T17:54:15.426Z</time>
      </trkpt>
      <trkpt lat="46.15223" lon="5.80769">
        <ele>497.929725</ele>
        <time>2021-04-30T17:54:46.905Z</time>
      </trkpt>
      <trkpt lat="46.15183" lon="5.80722">
        <ele>490.862275</ele>
        <time>2021-04-30T17:55:01.995Z</time>
      </trkpt>
      <trkpt lat="46.15144" lon="5.80688">
        <ele>483.663576</ele>
        <time>2021-04-30T17:55:14.858Z</time>
      </trkpt>
      <trkpt lat="46.1508" lon="5.80643">
        <ele>472.457236</ele>
        <time>2021-04-30T17:55:34.337Z</time>
      </trkpt>
      <trkpt lat="46.15031" lon="5.80561">
        <ele>457.255617</ele>
        <time>2021-04-30T17:55:54.289Z</time>
      </trkpt>
      <trkpt lat="46.14999" lon="5.80529">
        <ele>448.587013</ele>
        <time>2021-04-30T17:56:04.613Z</time>
      </trkpt>
      <trkpt lat="46.14932" lon="5.8054">
        <ele>433.45966</ele>
        <time>2021-04-30T17:56:22.562Z</time>
      </trkpt>
      <trkpt lat="46.14925" lon="5.80518">
        <ele>429.687374</ele>
        <time>2021-04-30T17:56:27.037Z</time>
      </trkpt>
      <trkpt lat="46.14964" lon="5.80475">
        <ele>421.811606</ele>
        <time>2021-04-30T17:56:40.472Z</time>
      </trkpt>
      <trkpt lat="46.15001" lon="5.80459">
        <ele>416.207608</ele>
        <time>2021-04-30T17:56:50.740Z</time>
      </trkpt>
      <trkpt lat="46.15" lon="5.80448">
        <ele>415.093457</ele>
        <time>2021-04-30T17:56:52.905Z</time>
      </trkpt>
      <trkpt lat="46.14987" lon="5.80437">
        <ele>412.797165</ele>
        <time>2021-04-30T17:56:57.149Z</time>
      </trkpt>
      <trkpt lat="46.14983" lon="5.80434">
        <ele>412.133244</ele>
        <time>2021-04-30T17:56:58.333Z</time>
      </trkpt>
      <trkpt lat="46.1498" lon="5.8043">
        <ele>411.463507</ele>
        <time>2021-04-30T17:56:59.716Z</time>
      </trkpt>
      <trkpt lat="46.14982" lon="5.8042">
        <ele>410.352468</ele>
        <time>2021-04-30T17:57:01.908Z</time>
      </trkpt>
      <trkpt lat="46.15015" lon="5.80439">
        <ele>405.036936</ele>
        <time>2021-04-30T17:57:12.003Z</time>
      </trkpt>
      <trkpt lat="46.15023" lon="5.80437">
        <ele>403.753809</ele>
        <time>2021-04-30T17:57:15.731Z</time>
      </trkpt>
      <trkpt lat="46.15029" lon="5.80411">
        <ele>401.488146</ele>
        <time>2021-04-30T17:57:29.224Z</time>
      </trkpt>
      <trkpt lat="46.15029" lon="5.80403">
        <ele>401.36752</ele>
        <time>2021-04-30T17:57:33.392Z</time>
      </trkpt>
      <trkpt lat="46.14998" lon="5.80341">
        <ele>400.226686</ele>
        <time>2021-04-30T17:58:18.339Z</time>
      </trkpt>
      <trkpt lat="46.14991" lon="5.80315">
        <ele>399.8131</ele>
        <time>2021-04-30T17:58:33.198Z</time>
      </trkpt>
      <trkpt lat="46.14991" lon="5.80299">
        <ele>399.571645</ele>
        <time>2021-04-30T17:58:45.914Z</time>
      </trkpt>
      <trkpt lat="46.14995" lon="5.80287">
        <ele>399.386887</ele>
        <time>2021-04-30T17:58:52.930Z</time>
      </trkpt>
      <trkpt lat="46.15" lon="5.80139">
        <ele>399.017297</ele>
        <time>2021-04-30T17:59:23.651Z</time>
      </trkpt>
      <trkpt lat="46.1501" lon="5.79962">
        <ele>405.431942</ele>
        <time>2021-04-30T18:00:37.064Z</time>
      </trkpt>
      <trkpt lat="46.1501" lon="5.79933">
        <ele>406.485292</ele>
        <time>2021-04-30T18:00:49.201Z</time>
      </trkpt>
      <trkpt lat="46.15008" lon="5.79924">
        <ele>406.835321</ele>
        <time>2021-04-30T18:00:52.599Z</time>
      </trkpt>
      <trkpt lat="46.15002" lon="5.79919">
        <ele>407.16973</ele>
        <time>2021-04-30T18:00:56.340Z</time>
      </trkpt>
      <trkpt lat="46.14985" lon="5.79917">
        <ele>408.051852</ele>
        <time>2021-04-30T18:01:06.696Z</time>
      </trkpt>
      <trkpt lat="46.14982" lon="5.7992">
        <ele>408.256013</ele>
        <time>2021-04-30T18:01:08.739Z</time>
      </trkpt>
      <trkpt lat="46.14977" lon="5.79932">
        <ele>408.777036</ele>
        <time>2021-04-30T18:01:13.785Z</time>
      </trkpt>
      <trkpt lat="46.14972" lon="5.79946">
        <ele>409.326023</ele>
        <time>2021-04-30T18:01:19.919Z</time>
      </trkpt>
      <trkpt lat="46.14968" lon="5.79959">
        <ele>409.84595</ele>
        <time>2021-04-30T18:01:26.051Z</time>
      </trkpt>
      <trkpt lat="46.14958" lon="5.79997">
        <ele>411.273012</ele>
        <time>2021-04-30T18:01:40.762Z</time>
      </trkpt>
      <trkpt lat="46.14953" lon="5.80058">
        <ele>413.438784</ele>
        <time>2021-04-30T18:02:03.947Z</time>
      </trkpt>
      <trkpt lat="46.14936" lon="5.8009">
        <ele>414.869306</ele>
        <time>2021-04-30T18:02:18.650Z</time>
      </trkpt>
      <trkpt lat="46.14909" lon="5.80214">
        <ele>418.805281</ele>
        <time>2021-04-30T18:02:56.943Z</time>
      </trkpt>
      <trkpt lat="46.14873" lon="5.80293">
        <ele>421.434956</ele>
        <time>2021-04-30T18:03:24.926Z</time>
      </trkpt>
      <trkpt lat="46.14855" lon="5.80322">
        <ele>422.529901</ele>
        <time>2021-04-30T18:03:37.944Z</time>
      </trkpt>
      <trkpt lat="46.14838" lon="5.80334">
        <ele>423.258587</ele>
        <time>2021-04-30T18:03:47.427Z</time>
      </trkpt>
      <trkpt lat="46.14823" lon="5.8034">
        <ele>424.375324</ele>
        <time>2021-04-30T18:03:56.296Z</time>
      </trkpt>
      <trkpt lat="46.14778" lon="5.80343">
        <ele>428.733865</ele>
        <time>2021-04-30T18:04:24.504Z</time>
      </trkpt>
      <trkpt lat="46.14765" lon="5.80353">
        <ele>430.104622</ele>
        <time>2021-04-30T18:04:34.092Z</time>
      </trkpt>
      <trkpt lat="46.14752" lon="5.80385">
        <ele>432.604191</ele>
        <time>2021-04-30T18:04:52.917Z</time>
      </trkpt>
      <trkpt lat="46.14744" lon="5.80389">
        <ele>433.426277</ele>
        <time>2021-04-30T18:04:59.293Z</time>
      </trkpt>
      <trkpt lat="46.14737" lon="5.80382">
        <ele>434.227528</ele>
        <time>2021-04-30T18:05:05.848Z</time>
      </trkpt>
      <trkpt lat="46.14738" lon="5.80357">
        <ele>435.948642</ele>
        <time>2021-04-30T18:05:20.711Z</time>
      </trkpt>
      <trkpt lat="46.14812" lon="5.80292">
        <ele>446.246389</ele>
        <time>2021-04-30T18:06:38.129Z</time>
      </trkpt>
      <trkpt lat="46.14826" lon="5.80251">
        <ele>451.013828</ele>
        <time>2021-04-30T18:07:09.904Z</time>
      </trkpt>
      <trkpt lat="46.14833" lon="5.80213">
        <ele>455.097864</ele>
        <time>2021-04-30T18:07:40.475Z</time>
      </trkpt>
      <trkpt lat="46.14831" lon="5.80146">
        <ele>462.212689</ele>
        <time>2021-04-30T18:08:33.418Z</time>
      </trkpt>
      <trkpt lat="46.14822" lon="5.80109">
        <ele>466.268433</ele>
        <time>2021-04-30T18:09:01.111Z</time>
      </trkpt>
      <trkpt lat="46.14804" lon="5.80075">
        <ele>469.568787</ele>
        <time>2021-04-30T18:09:29.854Z</time>
      </trkpt>
      <trkpt lat="46.14801" lon="5.80044">
        <ele>471.315273</ele>
        <time>2021-04-30T18:09:48.302Z</time>
      </trkpt>
      <trkpt lat="46.148" lon="5.79986">
        <ele>474.65489</ele>
        <time>2021-04-30T18:10:20.690Z</time>
      </trkpt>
      <trkpt lat="46.148" lon="5.79958">
        <ele>476.221905</ele>
        <time>2021-04-30T18:10:32.729Z</time>
      </trkpt>
      <trkpt lat="46.14812" lon="5.79894">
        <ele>479.991086</ele>
        <time>2021-04-30T18:10:59.239Z</time>
      </trkpt>
      <trkpt lat="46.14839" lon="5.79801">
        <ele>482.879227</ele>
        <time>2021-04-30T18:11:27.603Z</time>
      </trkpt>
      <trkpt lat="46.14882" lon="5.79706">
        <ele>482.884016</ele>
        <time>2021-04-30T18:11:45.212Z</time>
      </trkpt>
      <trkpt lat="46.14883" lon="5.79662">
        <ele>482.885865</ele>
        <time>2021-04-30T18:11:52.627Z</time>
      </trkpt>
      <trkpt lat="46.14888" lon="5.79635">
        <ele>482.887055</ele>
        <time>2021-04-30T18:11:57.431Z</time>
      </trkpt>
      <trkpt lat="46.1495" lon="5.79499">
        <ele>484.510175</ele>
        <time>2021-04-30T18:12:32.541Z</time>
      </trkpt>
      <trkpt lat="46.14948" lon="5.7949">
        <ele>484.61009</ele>
        <time>2021-04-30T18:12:35.021Z</time>
      </trkpt>
      <trkpt lat="46.14943" lon="5.7949">
        <ele>484.70225</ele>
        <time>2021-04-30T18:12:37.266Z</time>
      </trkpt>
      <trkpt lat="46.14882" lon="5.79581">
        <ele>486.559718</ele>
        <time>2021-04-30T18:13:14.615Z</time>
      </trkpt>
      <trkpt lat="46.1487" lon="5.79586">
        <ele>487.102765</ele>
        <time>2021-04-30T18:13:20.322Z</time>
      </trkpt>
      <trkpt lat="46.14849" lon="5.79581">
        <ele>488.011841</ele>
        <time>2021-04-30T18:13:29.875Z</time>
      </trkpt>
      <trkpt lat="46.14844" lon="5.79575">
        <ele>488.287202</ele>
        <time>2021-04-30T18:13:32.660Z</time>
      </trkpt>
      <trkpt lat="46.14846" lon="5.79556">
        <ele>488.828365</ele>
        <time>2021-04-30T18:13:38.360Z</time>
      </trkpt>
      <trkpt lat="46.14887" lon="5.79533">
        <ele>490.717319</ele>
        <time>2021-04-30T18:14:00.187Z</time>
      </trkpt>
      <trkpt lat="46.14895" lon="5.79521">
        <ele>491.189493</ele>
        <time>2021-04-30T18:14:04.991Z</time>
      </trkpt>
      <trkpt lat="46.14929" lon="5.79439">
        <ele>494.168884</ele>
        <time>2021-04-30T18:14:40.525Z</time>
      </trkpt>
      <trkpt lat="46.14956" lon="5.79391">
        <ele>496.642449</ele>
        <time>2021-04-30T18:15:03.078Z</time>
      </trkpt>
      <trkpt lat="46.14957" lon="5.79385">
        <ele>496.913086</ele>
        <time>2021-04-30T18:15:06.648Z</time>
      </trkpt>
      <trkpt lat="46.14954" lon="5.7938">
        <ele>497.1384</ele>
        <time>2021-04-30T18:15:09.708Z</time>
      </trkpt>
      <trkpt lat="46.14942" lon="5.79378">
        <ele>497.851479</ele>
        <time>2021-04-30T18:15:15.599Z</time>
      </trkpt>
      <trkpt lat="46.14923" lon="5.79403">
        <ele>499.336461</ele>
        <time>2021-04-30T18:15:30.397Z</time>
      </trkpt>
      <trkpt lat="46.14848" lon="5.79471">
        <ele>504.488119</ele>
        <time>2021-04-30T18:16:18.898Z</time>
      </trkpt>
      <trkpt lat="46.14826" lon="5.7948">
        <ele>505.956509</ele>
        <time>2021-04-30T18:16:33.506Z</time>
      </trkpt>
      <trkpt lat="46.14763" lon="5.79523">
        <ele>510.385685</ele>
        <time>2021-04-30T18:17:13.843Z</time>
      </trkpt>
      <trkpt lat="46.14684" lon="5.79534">
        <ele>515.427766</ele>
        <time>2021-04-30T18:18:00.933Z</time>
      </trkpt>
      <trkpt lat="46.14656" lon="5.79535">
        <ele>517.054384</ele>
        <time>2021-04-30T18:18:16.683Z</time>
      </trkpt>
      <trkpt lat="46.14643" lon="5.79546">
        <ele>517.92878</ele>
        <time>2021-04-30T18:18:25.923Z</time>
      </trkpt>
      <trkpt lat="46.14526" lon="5.79644">
        <ele>525.90035</ele>
        <time>2021-04-30T18:19:43.178Z</time>
      </trkpt>
      <trkpt lat="46.14437" lon="5.79724">
        <ele>529.062328</ele>
        <time>2021-04-30T18:20:31.157Z</time>
      </trkpt>
      <trkpt lat="46.14395" lon="5.79757">
        <ele>530.503093</ele>
        <time>2021-04-30T18:20:49.624Z</time>
      </trkpt>
      <trkpt lat="46.14376" lon="5.79773">
        <ele>531.172783</ele>
        <time>2021-04-30T18:20:56.914Z</time>
      </trkpt>
      <trkpt lat="46.14359" lon="5.79788">
        <ele>531.240021</ele>
        <time>2021-04-30T18:21:02.896Z</time>
      </trkpt>
      <trkpt lat="46.14358" lon="5.79813">
        <ele>531.120583</ele>
        <time>2021-04-30T18:21:07.664Z</time>
      </trkpt>
      <trkpt lat="46.14359" lon="5.79825">
        <ele>531.06174</ele>
        <time>2021-04-30T18:21:09.734Z</time>
      </trkpt>
      <trkpt lat="46.1436" lon="5.7983">
        <ele>531.040511</ele>
        <time>2021-04-30T18:21:10.887Z</time>
      </trkpt>
      <trkpt lat="46.14356" lon="5.79831">
        <ele>531.014064</ele>
        <time>2021-04-30T18:21:11.743Z</time>
      </trkpt>
      <trkpt lat="46.1434" lon="5.79837">
        <ele>530.903753</ele>
        <time>2021-04-30T18:21:15.682Z</time>
      </trkpt>
      <trkpt lat="46.14337" lon="5.79838">
        <ele>530.878131</ele>
        <time>2021-04-30T18:21:16.441Z</time>
      </trkpt>
      <trkpt lat="46.1433" lon="5.79836">
        <ele>530.832832</ele>
        <time>2021-04-30T18:21:17.919Z</time>
      </trkpt>
      <trkpt lat="46.14312" lon="5.79826">
        <ele>530.697544</ele>
        <time>2021-04-30T18:21:22.345Z</time>
      </trkpt>
      <trkpt lat="46.14254" lon="5.79796">
        <ele>530.273556</ele>
        <time>2021-04-30T18:21:35.871Z</time>
      </trkpt>
      <trkpt lat="46.14187" lon="5.79761">
        <ele>530.180107</ele>
        <time>2021-04-30T18:21:51.900Z</time>
      </trkpt>
      <trkpt lat="46.1414" lon="5.79737">
        <ele>530.270247</ele>
        <time>2021-04-30T18:22:04.210Z</time>
      </trkpt>
      <trkpt lat="46.13995" lon="5.79661">
        <ele>532.257463</ele>
        <time>2021-04-30T18:22:55.868Z</time>
      </trkpt>
      <trkpt lat="46.13982" lon="5.79654">
        <ele>532.62166</ele>
        <time>2021-04-30T18:23:01.431Z</time>
      </trkpt>
      <trkpt lat="46.13893" lon="5.79606">
        <ele>535.108041</ele>
        <time>2021-04-30T18:23:42.221Z</time>
      </trkpt>
      <trkpt lat="46.13872" lon="5.79594">
        <ele>536.058184</ele>
        <time>2021-04-30T18:23:52.240Z</time>
      </trkpt>
      <trkpt lat="46.13831" lon="5.79572">
        <ele>537.893094</ele>
        <time>2021-04-30T18:24:12.455Z</time>
      </trkpt>
      <trkpt lat="46.13821" lon="5.79567">
        <ele>538.350731</ele>
        <time>2021-04-30T18:24:17.194Z</time>
      </trkpt>
      <trkpt lat="46.13809" lon="5.7956">
        <ele>538.88859</ele>
        <time>2021-04-30T18:24:22.668Z</time>
      </trkpt>
      <trkpt lat="46.13797" lon="5.79554">
        <ele>539.423478</ele>
        <time>2021-04-30T18:24:29.375Z</time>
      </trkpt>
      <trkpt lat="46.13599" lon="5.79449">
        <ele>548.602359</ele>
        <time>2021-04-30T18:26:12.918Z</time>
      </trkpt>
      <trkpt lat="46.13543" lon="5.79393">
        <ele>551.386661</ele>
        <time>2021-04-30T18:26:43.270Z</time>
      </trkpt>
      <trkpt lat="46.13536" lon="5.79385">
        <ele>551.695678</ele>
        <time>2021-04-30T18:26:47.686Z</time>
      </trkpt>
      <trkpt lat="46.1353" lon="5.79378">
        <ele>551.983377</ele>
        <time>2021-04-30T18:26:51.516Z</time>
      </trkpt>
      <trkpt lat="46.13501" lon="5.79361">
        <ele>553.062387</ele>
        <time>2021-04-30T18:27:04.644Z</time>
      </trkpt>
      <trkpt lat="46.13388" lon="5.79337">
        <ele>557.031868</ele>
        <time>2021-04-30T18:27:53.744Z</time>
      </trkpt>
      <trkpt lat="46.13329" lon="5.79306">
        <ele>558.817833</ele>
        <time>2021-04-30T18:28:18.978Z</time>
      </trkpt>
      <trkpt lat="46.13309" lon="5.79297">
        <ele>559.386728</ele>
        <time>2021-04-30T18:28:27.394Z</time>
      </trkpt>
      <trkpt lat="46.13251" lon="5.79268">
        <ele>561.135978</ele>
        <time>2021-04-30T18:28:52.664Z</time>
      </trkpt>
      <trkpt lat="46.12934" lon="5.79099">
        <ele>568.580059</ele>
        <time>2021-04-30T18:31:02.062Z</time>
      </trkpt>
      <trkpt lat="46.1292" lon="5.7909">
        <ele>568.847465</ele>
        <time>2021-04-30T18:31:07.196Z</time>
      </trkpt>
      <trkpt lat="46.12872" lon="5.79063">
        <ele>569.355449</ele>
        <time>2021-04-30T18:31:22.047Z</time>
      </trkpt>
      <trkpt lat="46.12595" lon="5.78915">
        <ele>565.258035</ele>
        <time>2021-04-30T18:32:27.595Z</time>
      </trkpt>
      <trkpt lat="46.12481" lon="5.78855">
        <ele>562.254656</ele>
        <time>2021-04-30T18:32:52.184Z</time>
      </trkpt>
      <trkpt lat="46.12379" lon="5.78803">
        <ele>559.054252</ele>
        <time>2021-04-30T18:33:13.122Z</time>
      </trkpt>
      <trkpt lat="46.12337" lon="5.78781">
        <ele>557.905059</ele>
        <time>2021-04-30T18:33:21.842Z</time>
      </trkpt>
      <trkpt lat="46.12308" lon="5.78765">
        <ele>557.110497</ele>
        <time>2021-04-30T18:33:27.981Z</time>
      </trkpt>
      <trkpt lat="46.12265" lon="5.78741">
        <ele>555.921272</ele>
        <time>2021-04-30T18:33:37.192Z</time>
      </trkpt>
      <trkpt lat="46.12086" lon="5.78648">
        <ele>553.305139</ele>
        <time>2021-04-30T18:34:18.687Z</time>
      </trkpt>
      <trkpt lat="46.12079" lon="5.78644">
        <ele>553.236774</ele>
        <time>2021-04-30T18:34:20.853Z</time>
      </trkpt>
      <trkpt lat="46.11836" lon="5.78515">
        <ele>554.578744</ele>
        <time>2021-04-30T18:35:43.353Z</time>
      </trkpt>
      <trkpt lat="46.11801" lon="5.78495">
        <ele>554.50775</ele>
        <time>2021-04-30T18:35:54.234Z</time>
      </trkpt>
      <trkpt lat="46.11796" lon="5.78493">
        <ele>554.498459</ele>
        <time>2021-04-30T18:35:55.568Z</time>
      </trkpt>
      <trkpt lat="46.11779" lon="5.78485">
        <ele>554.464616</ele>
        <time>2021-04-30T18:36:00.469Z</time>
      </trkpt>
      <trkpt lat="46.11757" lon="5.78472">
        <ele>554.42068</ele>
        <time>2021-04-30T18:36:06.048Z</time>
      </trkpt>
      <trkpt lat="46.11713" lon="5.78447">
        <ele>554.330917</ele>
        <time>2021-04-30T18:36:17.007Z</time>
      </trkpt>
      <trkpt lat="46.11698" lon="5.78439">
        <ele>554.18739</ele>
        <time>2021-04-30T18:36:20.550Z</time>
      </trkpt>
      <trkpt lat="46.11696" lon="5.78443">
        <ele>554.115555</ele>
        <time>2021-04-30T18:36:21.229Z</time>
      </trkpt>
      <trkpt lat="46.11694" lon="5.7845">
        <ele>553.989225</ele>
        <time>2021-04-30T18:36:22.668Z</time>
      </trkpt>
      <trkpt lat="46.11692" lon="5.78456">
        <ele>553.891675</ele>
        <time>2021-04-30T18:36:23.666Z</time>
      </trkpt>
      <trkpt lat="46.11684" lon="5.78484">
        <ele>553.432866</ele>
        <time>2021-04-30T18:36:28.373Z</time>
      </trkpt>
      <trkpt lat="46.11665" lon="5.785">
        <ele>552.941832</ele>
        <time>2021-04-30T18:36:33.372Z</time>
      </trkpt>
      <trkpt lat="46.1166" lon="5.78528">
        <ele>552.490411</ele>
        <time>2021-04-30T18:36:37.782Z</time>
      </trkpt>
      <trkpt lat="46.11642" lon="5.78608">
        <ele>551.206957</ele>
        <time>2021-04-30T18:36:50.502Z</time>
      </trkpt>
      <trkpt lat="46.11522" lon="5.78559">
        <ele>547.77361</ele>
        <time>2021-04-30T18:37:16.136Z</time>
      </trkpt>
      <trkpt lat="46.11515" lon="5.7856">
        <ele>547.551494</ele>
        <time>2021-04-30T18:37:17.740Z</time>
      </trkpt>
      <trkpt lat="46.11514" lon="5.78579">
        <ele>547.166975</ele>
        <time>2021-04-30T18:37:20.330Z</time>
      </trkpt>
      <trkpt lat="46.11511" lon="5.78593">
        <ele>546.839535</ele>
        <time>2021-04-30T18:37:22.558Z</time>
      </trkpt>
      <trkpt lat="46.11497" lon="5.78627">
        <ele>546.039846</ele>
        <time>2021-04-30T18:37:27.892Z</time>
      </trkpt>
      <trkpt lat="46.11495" lon="5.78637">
        <ele>545.801493</ele>
        <time>2021-04-30T18:37:29.614Z</time>
      </trkpt>
      <trkpt lat="46.11486" lon="5.78676">
        <ele>544.950963</ele>
        <time>2021-04-30T18:37:35.377Z</time>
      </trkpt>
      <trkpt lat="46.1146" lon="5.78754">
        <ele>544.582422</ele>
        <time>2021-04-30T18:37:48.210Z</time>
      </trkpt>
      <trkpt lat="46.11452" lon="5.78808">
        <ele>544.362127</ele>
        <time>2021-04-30T18:37:56.858Z</time>
      </trkpt>
      <trkpt lat="46.1145" lon="5.7881">
        <ele>544.346752</ele>
        <time>2021-04-30T18:37:57.294Z</time>
      </trkpt>
      <trkpt lat="46.11447" lon="5.78803">
        <ele>544.314927</ele>
        <time>2021-04-30T18:37:59.516Z</time>
      </trkpt>
      <trkpt lat="46.11439" lon="5.78789">
        <ele>544.240121</ele>
        <time>2021-04-30T18:38:03.254Z</time>
      </trkpt>
      <trkpt lat="46.11385" lon="5.78706">
        <ele>544.797787</ele>
        <time>2021-04-30T18:38:31.303Z</time>
      </trkpt>
      <trkpt lat="46.11357" lon="5.78659">
        <ele>547.008225</ele>
        <time>2021-04-30T18:38:50.531Z</time>
      </trkpt>
      <trkpt lat="46.11359" lon="5.78656">
        <ele>547.139314</ele>
        <time>2021-04-30T18:38:51.226Z</time>
      </trkpt>
      <trkpt lat="46.11357" lon="5.78636">
        <ele>547.863506</ele>
        <time>2021-04-30T18:38:58.840Z</time>
      </trkpt>
      <trkpt lat="46.11355" lon="5.78634">
        <ele>547.990837</ele>
        <time>2021-04-30T18:39:00.404Z</time>
      </trkpt>
      <trkpt lat="46.11362" lon="5.78613">
        <ele>548.843954</ele>
        <time>2021-04-30T18:39:09.495Z</time>
      </trkpt>
      <trkpt lat="46.11365" lon="5.78585">
        <ele>549.870536</ele>
        <time>2021-04-30T18:39:21.209Z</time>
      </trkpt>
      <trkpt lat="46.11365" lon="5.78557">
        <ele>550.885025</ele>
        <time>2021-04-30T18:39:32.556Z</time>
      </trkpt>
      <trkpt lat="46.11375" lon="5.78446">
        <ele>555.399013</ele>
        <time>2021-04-30T18:40:18.468Z</time>
      </trkpt>
      <trkpt lat="46.11375" lon="5.78434">
        <ele>555.980051</ele>
        <time>2021-04-30T18:40:24.102Z</time>
      </trkpt>
      <trkpt lat="46.11375" lon="5.78429">
        <ele>556.205866</ele>
        <time>2021-04-30T18:40:26.108Z</time>
      </trkpt>
      <trkpt lat="46.11374" lon="5.78411">
        <ele>557.045001</ele>
        <time>2021-04-30T18:40:33.178Z</time>
      </trkpt>
      <trkpt lat="46.11374" lon="5.78398">
        <ele>557.65415</ele>
        <time>2021-04-30T18:40:40.125Z</time>
      </trkpt>
      <trkpt lat="46.11386" lon="5.78311">
        <ele>561.796628</ele>
        <time>2021-04-30T18:41:14.746Z</time>
      </trkpt>
      <trkpt lat="46.11392" lon="5.78284">
        <ele>563.130441</ele>
        <time>2021-04-30T18:41:27.389Z</time>
      </trkpt>
      <trkpt lat="46.11377" lon="5.78277">
        <ele>564.156015</ele>
        <time>2021-04-30T18:41:34.082Z</time>
      </trkpt>
      <trkpt lat="46.11365" lon="5.7827">
        <ele>565.063656</ele>
        <time>2021-04-30T18:41:43.266Z</time>
      </trkpt>
      <trkpt lat="46.11343" lon="5.78258">
        <ele>566.704939</ele>
        <time>2021-04-30T18:41:56.608Z</time>
      </trkpt>
      <trkpt lat="46.11346" lon="5.78248">
        <ele>567.222399</ele>
        <time>2021-04-30T18:42:01.948Z</time>
      </trkpt>
      <trkpt lat="46.11346" lon="5.78236">
        <ele>567.851784</ele>
        <time>2021-04-30T18:42:07.630Z</time>
      </trkpt>
      <trkpt lat="46.11304" lon="5.78146">
        <ele>573.28723</ele>
        <time>2021-04-30T18:42:49.079Z</time>
      </trkpt>
      <trkpt lat="46.11304" lon="5.78121">
        <ele>574.535938</ele>
        <time>2021-04-30T18:42:58.248Z</time>
      </trkpt>
      <trkpt lat="46.11308" lon="5.78109">
        <ele>575.202922</ele>
        <time>2021-04-30T18:43:03.467Z</time>
      </trkpt>
      <trkpt lat="46.11312" lon="5.78101">
        <ele>575.687128</ele>
        <time>2021-04-30T18:43:08.098Z</time>
      </trkpt>
      <trkpt lat="46.11318" lon="5.78097">
        <ele>576.138021</ele>
        <time>2021-04-30T18:43:13.116Z</time>
      </trkpt>
      <trkpt lat="46.11406" lon="5.78084">
        <ele>584.569801</ele>
        <time>2021-04-30T18:44:16.836Z</time>
      </trkpt>
      <trkpt lat="46.11423" lon="5.78081">
        <ele>586.423118</ele>
        <time>2021-04-30T18:44:30.781Z</time>
      </trkpt>
      <trkpt lat="46.11429" lon="5.78069">
        <ele>587.540866</ele>
        <time>2021-04-30T18:44:43.239Z</time>
      </trkpt>
      <trkpt lat="46.11441" lon="5.78038">
        <ele>590.191334</ele>
        <time>2021-04-30T18:45:01.921Z</time>
      </trkpt>
      <trkpt lat="46.11443" lon="5.78035">
        <ele>590.479303</ele>
        <time>2021-04-30T18:45:05.582Z</time>
      </trkpt>
      <trkpt lat="46.11447" lon="5.78028">
        <ele>591.080362</ele>
        <time>2021-04-30T18:45:12.706Z</time>
      </trkpt>
      <trkpt lat="46.11455" lon="5.77948">
        <ele>597.109988</ele>
        <time>2021-04-30T18:45:53.974Z</time>
      </trkpt>
      <trkpt lat="46.11459" lon="5.77933">
        <ele>598.226844</ele>
        <time>2021-04-30T18:46:04.863Z</time>
      </trkpt>
      <trkpt lat="46.11453" lon="5.77901">
        <ele>600.291921</ele>
        <time>2021-04-30T18:46:22.367Z</time>
      </trkpt>
      <trkpt lat="46.11449" lon="5.77877">
        <ele>601.877652</ele>
        <time>2021-04-30T18:46:40.338Z</time>
      </trkpt>
      <trkpt lat="46.11445" lon="5.77862">
        <ele>602.919418</ele>
        <time>2021-04-30T18:46:47.744Z</time>
      </trkpt>
      <trkpt lat="46.11435" lon="5.77855">
        <ele>603.928415</ele>
        <time>2021-04-30T18:46:53.846Z</time>
      </trkpt>
      <trkpt lat="46.11404" lon="5.77849">
        <ele>606.709666</ele>
        <time>2021-04-30T18:47:18.716Z</time>
      </trkpt>
      <trkpt lat="46.11398" lon="5.77849">
        <ele>607.312103</ele>
        <time>2021-04-30T18:47:24.023Z</time>
      </trkpt>
      <trkpt lat="46.11385" lon="5.77848">
        <ele>608.50786</ele>
        <time>2021-04-30T18:47:32.421Z</time>
      </trkpt>
      <trkpt lat="46.11314" lon="5.77823">
        <ele>614.821155</ele>
        <time>2021-04-30T18:48:19.642Z</time>
      </trkpt>
      <trkpt lat="46.11296" lon="5.77813">
        <ele>616.046195</ele>
        <time>2021-04-30T18:48:31.482Z</time>
      </trkpt>
      <trkpt lat="46.11291" lon="5.77806">
        <ele>616.49754</ele>
        <time>2021-04-30T18:48:35.500Z</time>
      </trkpt>
      <trkpt lat="46.11285" lon="5.77788">
        <ele>617.374066</ele>
        <time>2021-04-30T18:48:40.104Z</time>
      </trkpt>
      <trkpt lat="46.11285" lon="5.77779">
        <ele>617.779365</ele>
        <time>2021-04-30T18:48:43.515Z</time>
      </trkpt>
      <trkpt lat="46.1129" lon="5.77772">
        <ele>618.203988</ele>
        <time>2021-04-30T18:48:48.319Z</time>
      </trkpt>
      <trkpt lat="46.1131" lon="5.77762">
        <ele>619.56409</ele>
        <time>2021-04-30T18:48:57.818Z</time>
      </trkpt>
      <trkpt lat="46.11394" lon="5.77778">
        <ele>625.031071</ele>
        <time>2021-04-30T18:49:47.360Z</time>
      </trkpt>
      <trkpt lat="46.11439" lon="5.7776">
        <ele>628.206948</ele>
        <time>2021-04-30T18:50:16.866Z</time>
      </trkpt>
      <trkpt lat="46.11453" lon="5.77761">
        <ele>629.20944</ele>
        <time>2021-04-30T18:50:24.749Z</time>
      </trkpt>
      <trkpt lat="46.11506" lon="5.77783">
        <ele>633.115957</ele>
        <time>2021-04-30T18:50:56.381Z</time>
      </trkpt>
      <trkpt lat="46.11606" lon="5.77794">
        <ele>640.517399</ele>
        <time>2021-04-30T18:51:58.620Z</time>
      </trkpt>
      <trkpt lat="46.11697" lon="5.77817">
        <ele>648.326945</ele>
        <time>2021-04-30T18:53:00.604Z</time>
      </trkpt>
      <trkpt lat="46.11714" lon="5.77815">
        <ele>649.822829</ele>
        <time>2021-04-30T18:53:12.831Z</time>
      </trkpt>
      <trkpt lat="46.11773" lon="5.77772">
        <ele>655.363717</ele>
        <time>2021-04-30T18:53:59.636Z</time>
      </trkpt>
      <trkpt lat="46.11796" lon="5.77767">
        <ele>657.34896</ele>
        <time>2021-04-30T18:54:16.076Z</time>
      </trkpt>
      <trkpt lat="46.11879" lon="5.77802">
        <ele>664.69437</ele>
        <time>2021-04-30T18:55:14.267Z</time>
      </trkpt>
      <trkpt lat="46.11952" lon="5.77802">
        <ele>670.634692</ele>
        <time>2021-04-30T18:56:01.632Z</time>
      </trkpt>
      <trkpt lat="46.12023" lon="5.77815">
        <ele>676.087717</ele>
        <time>2021-04-30T18:56:47.251Z</time>
      </trkpt>
      <trkpt lat="46.12065" lon="5.77806">
        <ele>679.294714</ele>
        <time>2021-04-30T18:57:13.414Z</time>
      </trkpt>
      <trkpt lat="46.12129" lon="5.77823">
        <ele>684.251861</ele>
        <time>2021-04-30T18:57:52.639Z</time>
      </trkpt>
      <trkpt lat="46.12203" lon="5.77831">
        <ele>690.085094</ele>
        <time>2021-04-30T18:58:42.103Z</time>
      </trkpt>
      <trkpt lat="46.12233" lon="5.77829">
        <ele>692.398673</ele>
        <time>2021-04-30T18:59:01.454Z</time>
      </trkpt>
      <trkpt lat="46.1227" lon="5.77816">
        <ele>695.387838</ele>
        <time>2021-04-30T18:59:26.158Z</time>
      </trkpt>
      <trkpt lat="46.12302" lon="5.77808">
        <ele>697.78406</ele>
        <time>2021-04-30T18:59:47.073Z</time>
      </trkpt>
      <trkpt lat="46.12322" lon="5.77803">
        <ele>699.176723</ele>
        <time>2021-04-30T19:00:00.016Z</time>
      </trkpt>
      <trkpt lat="46.12583" lon="5.77772">
        <ele>717.421305</ele>
        <time>2021-04-30T19:02:33.952Z</time>
      </trkpt>
      <trkpt lat="46.12627" lon="5.77786">
        <ele>720.592218</ele>
        <time>2021-04-30T19:03:01.669Z</time>
      </trkpt>
      <trkpt lat="46.12701" lon="5.77797">
        <ele>726.461804</ele>
        <time>2021-04-30T19:03:48.891Z</time>
      </trkpt>
      <trkpt lat="46.12796" lon="5.77797">
        <ele>734.141053</ele>
        <time>2021-04-30T19:04:52.438Z</time>
      </trkpt>
      <trkpt lat="46.12833" lon="5.77795">
        <ele>737.150713</ele>
        <time>2021-04-30T19:05:17.516Z</time>
      </trkpt>
      <trkpt lat="46.12862" lon="5.77779">
        <ele>739.740653</ele>
        <time>2021-04-30T19:05:38.195Z</time>
      </trkpt>
      <trkpt lat="46.12893" lon="5.77783">
        <ele>742.374486</ele>
        <time>2021-04-30T19:05:59.979Z</time>
      </trkpt>
      <trkpt lat="46.12907" lon="5.77767">
        <ele>743.836776</ele>
        <time>2021-04-30T19:06:10.253Z</time>
      </trkpt>
      <trkpt lat="46.12908" lon="5.77758">
        <ele>744.392238</ele>
        <time>2021-04-30T19:06:15.993Z</time>
      </trkpt>
      <trkpt lat="46.12908" lon="5.77751">
        <ele>744.776982</ele>
        <time>2021-04-30T19:06:19.913Z</time>
      </trkpt>
      <trkpt lat="46.12897" lon="5.77732">
        <ele>746.234007</ele>
        <time>2021-04-30T19:06:29.863Z</time>
      </trkpt>
      <trkpt lat="46.12883" lon="5.77721">
        <ele>747.502837</ele>
        <time>2021-04-30T19:06:40.548Z</time>
      </trkpt>
      <trkpt lat="46.12844" lon="5.77719">
        <ele>750.832997</ele>
        <time>2021-04-30T19:07:07.073Z</time>
      </trkpt>
      <trkpt lat="46.12823" lon="5.77706">
        <ele>752.812398</ele>
        <time>2021-04-30T19:07:19.771Z</time>
      </trkpt>
      <trkpt lat="46.12813" lon="5.77701">
        <ele>753.791974</ele>
        <time>2021-04-30T19:07:28.619Z</time>
      </trkpt>
      <trkpt lat="46.1279" lon="5.77693">
        <ele>756.006377</ele>
        <time>2021-04-30T19:07:43.915Z</time>
      </trkpt>
      <trkpt lat="46.12762" lon="5.77682">
        <ele>758.603514</ele>
        <time>2021-04-30T19:08:04.614Z</time>
      </trkpt>
      <trkpt lat="46.12737" lon="5.77662">
        <ele>761.24407</ele>
        <time>2021-04-30T19:08:23.929Z</time>
      </trkpt>
      <trkpt lat="46.12645" lon="5.77552">
        <ele>772.795844</ele>
        <time>2021-04-30T19:09:53.942Z</time>
      </trkpt>
      <trkpt lat="46.12606" lon="5.7748">
        <ele>779.410208</ele>
        <time>2021-04-30T19:10:43.687Z</time>
      </trkpt>
      <trkpt lat="46.12564" lon="5.77458">
        <ele>784.108455</ele>
        <time>2021-04-30T19:11:18.922Z</time>
      </trkpt>
      <trkpt lat="46.12517" lon="5.77412">
        <ele>789.350603</ele>
        <time>2021-04-30T19:12:01.622Z</time>
      </trkpt>
      <trkpt lat="46.12474" lon="5.77399">
        <ele>793.275883</ele>
        <time>2021-04-30T19:12:34.005Z</time>
      </trkpt>
      <trkpt lat="46.12425" lon="5.77406">
        <ele>797.525907</ele>
        <time>2021-04-30T19:13:06.327Z</time>
      </trkpt>
      <trkpt lat="46.12404" lon="5.77402">
        <ele>799.431828</ele>
        <time>2021-04-30T19:13:20.216Z</time>
      </trkpt>
      <trkpt lat="46.12348" lon="5.77355">
        <ele>804.383748</ele>
        <time>2021-04-30T19:14:00.161Z</time>
      </trkpt>
      <trkpt lat="46.12312" lon="5.77281">
        <ele>808.571964</ele>
        <time>2021-04-30T19:14:36.870Z</time>
      </trkpt>
      <trkpt lat="46.12301" lon="5.77268">
        <ele>809.540495</ele>
        <time>2021-04-30T19:14:45.190Z</time>
      </trkpt>
      <trkpt lat="46.12263" lon="5.7725">
        <ele>812.231611</ele>
        <time>2021-04-30T19:15:07.907Z</time>
      </trkpt>
      <trkpt lat="46.12202" lon="5.77246">
        <ele>816.349428</ele>
        <time>2021-04-30T19:15:42.399Z</time>
      </trkpt>
      <trkpt lat="46.12088" lon="5.77206">
        <ele>824.378306</ele>
        <time>2021-04-30T19:16:51.886Z</time>
      </trkpt>
      <trkpt lat="46.12054" lon="5.77185">
        <ele>827.071506</ele>
        <time>2021-04-30T19:17:13.824Z</time>
      </trkpt>
      <trkpt lat="46.11996" lon="5.77127">
        <ele>833.190739</ele>
        <time>2021-04-30T19:18:02.843Z</time>
      </trkpt>
      <trkpt lat="46.11946" lon="5.77089">
        <ele>838.170998</ele>
        <time>2021-04-30T19:18:44.283Z</time>
      </trkpt>
      <trkpt lat="46.11935" lon="5.77072">
        <ele>839.54624</ele>
        <time>2021-04-30T19:18:53.537Z</time>
      </trkpt>
      <trkpt lat="46.11934" lon="5.77053">
        <ele>840.677235</ele>
        <time>2021-04-30T19:19:01.301Z</time>
      </trkpt>
      <trkpt lat="46.11936" lon="5.77049">
        <ele>840.998593</ele>
        <time>2021-04-30T19:19:05.850Z</time>
      </trkpt>
      <trkpt lat="46.11937" lon="5.77046">
        <ele>841.206899</ele>
        <time>2021-04-30T19:19:09.044Z</time>
      </trkpt>
      <trkpt lat="46.11946" lon="5.77037">
        <ele>842.175114</ele>
        <time>2021-04-30T19:19:15.585Z</time>
      </trkpt>
      <trkpt lat="46.11959" lon="5.77035">
        <ele>843.346702</ele>
        <time>2021-04-30T19:19:23.180Z</time>
      </trkpt>
      <trkpt lat="46.12025" lon="5.77055">
        <ele>849.475697</ele>
        <time>2021-04-30T19:20:11.936Z</time>
      </trkpt>
      <trkpt lat="46.1211" lon="5.77038">
        <ele>857.308755</ele>
        <time>2021-04-30T19:21:14.582Z</time>
      </trkpt>
      <trkpt lat="46.12163" lon="5.76998">
        <ele>862.020066</ele>
        <time>2021-04-30T19:21:53.030Z</time>
      </trkpt>
      <trkpt lat="46.12198" lon="5.76954">
        <ele>865.575053</ele>
        <time>2021-04-30T19:22:23.369Z</time>
      </trkpt>
      <trkpt lat="46.12268" lon="5.76916">
        <ele>871.254338</ele>
        <time>2021-04-30T19:23:09.381Z</time>
      </trkpt>
      <trkpt lat="46.12304" lon="5.76876">
        <ele>874.169936</ele>
        <time>2021-04-30T19:23:35.363Z</time>
      </trkpt>
      <trkpt lat="46.12326" lon="5.76861">
        <ele>875.680568</ele>
        <time>2021-04-30T19:23:49.184Z</time>
      </trkpt>
      <trkpt lat="46.12385" lon="5.76864">
        <ele>879.336726</ele>
        <time>2021-04-30T19:24:21.281Z</time>
      </trkpt>
      <trkpt lat="46.12475" lon="5.76846">
        <ele>885.098411</ele>
        <time>2021-04-30T19:25:11.279Z</time>
      </trkpt>
      <trkpt lat="46.12522" lon="5.76845">
        <ele>888.371127</ele>
        <time>2021-04-30T19:25:38.467Z</time>
      </trkpt>
      <trkpt lat="46.12558" lon="5.76855">
        <ele>890.886036</ele>
        <time>2021-04-30T19:25:59.886Z</time>
      </trkpt>
      <trkpt lat="46.12842" lon="5.76875">
        <ele>912.710882</ele>
        <time>2021-04-30T19:29:03.379Z</time>
      </trkpt>
      <trkpt lat="46.12908" lon="5.76891">
        <ele>918.11574</ele>
        <time>2021-04-30T19:29:49.022Z</time>
      </trkpt>
      <trkpt lat="46.12927" lon="5.76879">
        <ele>919.770234</ele>
        <time>2021-04-30T19:30:00.309Z</time>
      </trkpt>
      <trkpt lat="46.12929" lon="5.7687">
        <ele>920.296209</ele>
        <time>2021-04-30T19:30:06.386Z</time>
      </trkpt>
      <trkpt lat="46.12928" lon="5.76859">
        <ele>920.933113</ele>
        <time>2021-04-30T19:30:12.265Z</time>
      </trkpt>
      <trkpt lat="46.12923" lon="5.7685">
        <ele>921.597978</ele>
        <time>2021-04-30T19:30:16.799Z</time>
      </trkpt>
      <trkpt lat="46.12864" lon="5.76834">
        <ele>926.157016</ele>
        <time>2021-04-30T19:30:55.678Z</time>
      </trkpt>
      <trkpt lat="46.12672" lon="5.7674">
        <ele>941.394571</ele>
        <time>2021-04-30T19:32:57.030Z</time>
      </trkpt>
      <trkpt lat="46.12551" lon="5.76651">
        <ele>953.019155</ele>
        <time>2021-04-30T19:34:32.321Z</time>
      </trkpt>
      <trkpt lat="46.12524" lon="5.76633">
        <ele>955.941886</ele>
        <time>2021-04-30T19:34:54.410Z</time>
      </trkpt>
      <trkpt lat="46.12498" lon="5.76615">
        <ele>958.714031</ele>
        <time>2021-04-30T19:35:15.831Z</time>
      </trkpt>
      <trkpt lat="46.12454" lon="5.76575">
        <ele>963.84591</ele>
        <time>2021-04-30T19:35:54.956Z</time>
      </trkpt>
      <trkpt lat="46.12411" lon="5.76523">
        <ele>969.373736</ele>
        <time>2021-04-30T19:36:38.618Z</time>
      </trkpt>
      <trkpt lat="46.1238" lon="5.76504">
        <ele>972.247381</ele>
        <time>2021-04-30T19:37:03.274Z</time>
      </trkpt>
      <trkpt lat="46.12314" lon="5.76487">
        <ele>977.598087</ele>
        <time>2021-04-30T19:37:46.564Z</time>
      </trkpt>
      <trkpt lat="46.12222" lon="5.76445">
        <ele>985.115108</ele>
        <time>2021-04-30T19:38:46.568Z</time>
      </trkpt>
      <trkpt lat="46.12177" lon="5.76431">
        <ele>987.917355</ele>
        <time>2021-04-30T19:39:13.674Z</time>
      </trkpt>
      <trkpt lat="46.12082" lon="5.76382">
        <ele>993.987948</ele>
        <time>2021-04-30T19:40:08.414Z</time>
      </trkpt>
      <trkpt lat="46.11976" lon="5.76303">
        <ele>1000.266762</ele>
        <time>2021-04-30T19:41:08.870Z</time>
      </trkpt>
      <trkpt lat="46.11861" lon="5.7623">
        <ele>1007.126753</ele>
        <time>2021-04-30T19:42:12.647Z</time>
      </trkpt>
      <trkpt lat="46.11791" lon="5.76178">
        <ele>1011.941464</ele>
        <time>2021-04-30T19:42:56.210Z</time>
      </trkpt>
      <trkpt lat="46.11654" lon="5.76031">
        <ele>1023.309544</ele>
        <time>2021-04-30T19:44:40.759Z</time>
      </trkpt>
      <trkpt lat="46.11499" lon="5.75972">
        <ele>1034.059442</ele>
        <time>2021-04-30T19:46:14.865Z</time>
      </trkpt>
      <trkpt lat="46.11424" lon="5.75919">
        <ele>1039.491539</ele>
        <time>2021-04-30T19:46:59.428Z</time>
      </trkpt>
      <trkpt lat="46.11344" lon="5.75852">
        <ele>1047.827699</ele>
        <time>2021-04-30T19:48:02.303Z</time>
      </trkpt>
      <trkpt lat="46.11328" lon="5.75831">
        <ele>1049.821117</ele>
        <time>2021-04-30T19:48:17.270Z</time>
      </trkpt>
      <trkpt lat="46.11312" lon="5.75808">
        <ele>1051.848805</ele>
        <time>2021-04-30T19:48:35.078Z</time>
      </trkpt>
      <trkpt lat="46.11298" lon="5.75785">
        <ele>1053.742902</ele>
        <time>2021-04-30T19:48:48.991Z</time>
      </trkpt>
      <trkpt lat="46.11289" lon="5.7577">
        <ele>1054.981754</ele>
        <time>2021-04-30T19:49:01.408Z</time>
      </trkpt>
      <trkpt lat="46.11238" lon="5.75678">
        <ele>1063.5238</ele>
        <time>2021-04-30T19:50:06.698Z</time>
      </trkpt>
      <trkpt lat="46.11194" lon="5.75623">
        <ele>1069.67601</ele>
        <time>2021-04-30T19:50:54.569Z</time>
      </trkpt>
      <trkpt lat="46.11188" lon="5.75599">
        <ele>1071.597291</ele>
        <time>2021-04-30T19:51:07.767Z</time>
      </trkpt>
      <trkpt lat="46.11197" lon="5.7556">
        <ele>1074.592299</ele>
        <time>2021-04-30T19:51:27.036Z</time>
      </trkpt>
      <trkpt lat="46.11213" lon="5.75544">
        <ele>1076.580202</ele>
        <time>2021-04-30T19:51:42.892Z</time>
      </trkpt>
      <trkpt lat="46.11227" lon="5.75542">
        <ele>1077.932554</ele>
        <time>2021-04-30T19:51:52.393Z</time>
      </trkpt>
      <trkpt lat="46.11256" lon="5.75546">
        <ele>1080.717101</ele>
        <time>2021-04-30T19:52:13.517Z</time>
      </trkpt>
      <trkpt lat="46.11265" lon="5.75553">
        <ele>1081.742735</ele>
        <time>2021-04-30T19:52:20.515Z</time>
      </trkpt>
      <trkpt lat="46.11291" lon="5.75593">
        <ele>1085.390201</ele>
        <time>2021-04-30T19:52:47.154Z</time>
      </trkpt>
      <trkpt lat="46.11312" lon="5.756">
        <ele>1087.452164</ele>
        <time>2021-04-30T19:53:03.133Z</time>
      </trkpt>
      <trkpt lat="46.11322" lon="5.75598">
        <ele>1088.370231</ele>
        <time>2021-04-30T19:53:09.832Z</time>
      </trkpt>
      <trkpt lat="46.11331" lon="5.75594">
        <ele>1089.318339</ele>
        <time>2021-04-30T19:53:16.734Z</time>
      </trkpt>
      <trkpt lat="46.11341" lon="5.75588">
        <ele>1090.389143</ele>
        <time>2021-04-30T19:53:26.471Z</time>
      </trkpt>
      <trkpt lat="46.11403" lon="5.75525">
        <ele>1097.788586</ele>
        <time>2021-04-30T19:54:22.503Z</time>
      </trkpt>
      <trkpt lat="46.11438" lon="5.75479">
        <ele>1102.450301</ele>
        <time>2021-04-30T19:54:59.112Z</time>
      </trkpt>
      <trkpt lat="46.11456" lon="5.75461">
        <ele>1104.561576</ele>
        <time>2021-04-30T19:55:17.357Z</time>
      </trkpt>
      <trkpt lat="46.11509" lon="5.75428">
        <ele>1110.253555</ele>
        <time>2021-04-30T19:55:56.701Z</time>
      </trkpt>
      <trkpt lat="46.11548" lon="5.754">
        <ele>1113.516205</ele>
        <time>2021-04-30T19:56:26.857Z</time>
      </trkpt>
      <trkpt lat="46.11585" lon="5.75342">
        <ele>1117.573136</ele>
        <time>2021-04-30T19:57:02.356Z</time>
      </trkpt>
      <trkpt lat="46.11631" lon="5.75224">
        <ele>1124.34641</ele>
        <time>2021-04-30T19:57:56.179Z</time>
      </trkpt>
      <trkpt lat="46.11649" lon="5.75204">
        <ele>1125.693347</ele>
        <time>2021-04-30T19:58:08.099Z</time>
      </trkpt>
      <trkpt lat="46.11659" lon="5.75195">
        <ele>1126.408234</ele>
        <time>2021-04-30T19:58:14.874Z</time>
      </trkpt>
      <trkpt lat="46.11665" lon="5.75184">
        <ele>1126.98135</ele>
        <time>2021-04-30T19:58:20.543Z</time>
      </trkpt>
      <trkpt lat="46.11667" lon="5.75162">
        <ele>1127.92734</ele>
        <time>2021-04-30T19:58:28.475Z</time>
      </trkpt>
      <trkpt lat="46.11653" lon="5.75111">
        <ele>1130.22719</ele>
        <time>2021-04-30T19:58:49.509Z</time>
      </trkpt>
      <trkpt lat="46.1165" lon="5.75066">
        <ele>1132.108938</ele>
        <time>2021-04-30T19:59:06.355Z</time>
      </trkpt>
      <trkpt lat="46.11656" lon="5.75016">
        <ele>1134.228645</ele>
        <time>2021-04-30T19:59:26.105Z</time>
      </trkpt>
      <trkpt lat="46.11656" lon="5.75007">
        <ele>1134.656226</ele>
        <time>2021-04-30T19:59:30.516Z</time>
      </trkpt>
      <trkpt lat="46.1165" lon="5.74982">
        <ele>1135.880103</ele>
        <time>2021-04-30T19:59:41.283Z</time>
      </trkpt>
      <trkpt lat="46.11618" lon="5.74917">
        <ele>1139.58183</ele>
        <time>2021-04-30T20:00:12.261Z</time>
      </trkpt>
      <trkpt lat="46.11607" lon="5.74846">
        <ele>1142.954326</ele>
        <time>2021-04-30T20:00:41.819Z</time>
      </trkpt>
      <trkpt lat="46.116" lon="5.74784">
        <ele>1145.825821</ele>
        <time>2021-04-30T20:01:07.925Z</time>
      </trkpt>
      <trkpt lat="46.11602" lon="5.74756">
        <ele>1147.326349</ele>
        <time>2021-04-30T20:01:20.067Z</time>
      </trkpt>
      <trkpt lat="46.11622" lon="5.74693">
        <ele>1151.379978</ele>
        <time>2021-04-30T20:01:50.908Z</time>
      </trkpt>
      <trkpt lat="46.11624" lon="5.74673">
        <ele>1152.598957</ele>
        <time>2021-04-30T20:02:00.578Z</time>
      </trkpt>
      <trkpt lat="46.11618" lon="5.74639">
        <ele>1154.618809</ele>
        <time>2021-04-30T20:02:16.691Z</time>
      </trkpt>
      <trkpt lat="46.11608" lon="5.74611">
        <ele>1156.498425</ele>
        <time>2021-04-30T20:02:32.009Z</time>
      </trkpt>
      <trkpt lat="46.11569" lon="5.74565">
        <ele>1160.756327</ele>
        <time>2021-04-30T20:03:07.421Z</time>
      </trkpt>
      <trkpt lat="46.11557" lon="5.74537">
        <ele>1162.756454</ele>
        <time>2021-04-30T20:03:23.813Z</time>
      </trkpt>
      <trkpt lat="46.11516" lon="5.74396">
        <ele>1172.375426</ele>
        <time>2021-04-30T20:04:41.639Z</time>
      </trkpt>
      <trkpt lat="46.11501" lon="5.74307">
        <ele>1178.175035</ele>
        <time>2021-04-30T20:05:25.579Z</time>
      </trkpt>
      <trkpt lat="46.11483" lon="5.74257">
        <ele>1180.308527</ele>
        <time>2021-04-30T20:05:50.165Z</time>
      </trkpt>
      <trkpt lat="46.11454" lon="5.74211">
        <ele>1182.679928</ele>
        <time>2021-04-30T20:06:15.688Z</time>
      </trkpt>
      <trkpt lat="46.1136" lon="5.74101">
        <ele>1188.091801</ele>
        <time>2021-04-30T20:07:11.644Z</time>
      </trkpt>
      <trkpt lat="46.11346" lon="5.74061">
        <ele>1188.264107</ele>
        <time>2021-04-30T20:07:22.198Z</time>
      </trkpt>
      <trkpt lat="46.11322" lon="5.73934">
        <ele>1188.757391</ele>
        <time>2021-04-30T20:07:45.708Z</time>
      </trkpt>
      <trkpt lat="46.11302" lon="5.73901">
        <ele>1188.925443</ele>
        <time>2021-04-30T20:07:52.732Z</time>
      </trkpt>
      <trkpt lat="46.11282" lon="5.73887">
        <ele>1188.4098</ele>
        <time>2021-04-30T20:07:57.410Z</time>
      </trkpt>
      <trkpt lat="46.11261" lon="5.73861">
        <ele>1187.632223</ele>
        <time>2021-04-30T20:08:03.285Z</time>
      </trkpt>
      <trkpt lat="46.11252" lon="5.73833">
        <ele>1187.030727</ele>
        <time>2021-04-30T20:08:07.750Z</time>
      </trkpt>
      <trkpt lat="46.1126" lon="5.73766">
        <ele>1185.703246</ele>
        <time>2021-04-30T20:08:17.115Z</time>
      </trkpt>
      <trkpt lat="46.11258" lon="5.73737">
        <ele>1185.149383</ele>
        <time>2021-04-30T20:08:20.877Z</time>
      </trkpt>
      <trkpt lat="46.11238" lon="5.73704">
        <ele>1184.300545</ele>
        <time>2021-04-30T20:08:26.564Z</time>
      </trkpt>
      <trkpt lat="46.11202" lon="5.73682">
        <ele>1183.091019</ele>
        <time>2021-04-30T20:08:34.059Z</time>
      </trkpt>
      <trkpt lat="46.11184" lon="5.73658">
        <ele>1182.291741</ele>
        <time>2021-04-30T20:08:38.797Z</time>
      </trkpt>
      <trkpt lat="46.11165" lon="5.73586">
        <ele>1180.568308</ele>
        <time>2021-04-30T20:08:49.159Z</time>
      </trkpt>
      <trkpt lat="46.11156" lon="5.73554">
        <ele>1179.806521</ele>
        <time>2021-04-30T20:08:53.722Z</time>
      </trkpt>
      <trkpt lat="46.11138" lon="5.73481">
        <ele>1178.088928</ele>
        <time>2021-04-30T20:09:04.505Z</time>
      </trkpt>
      <trkpt lat="46.11136" lon="5.73466">
        <ele>1178.033342</ele>
        <time>2021-04-30T20:09:06.535Z</time>
      </trkpt>
      <trkpt lat="46.11137" lon="5.7343">
        <ele>1177.896056</ele>
        <time>2021-04-30T20:09:11.847Z</time>
      </trkpt>
      <trkpt lat="46.11152" lon="5.7336">
        <ele>1177.619419</ele>
        <time>2021-04-30T20:09:23.475Z</time>
      </trkpt>
      <trkpt lat="46.11171" lon="5.73288">
        <ele>1177.327411</ele>
        <time>2021-04-30T20:09:38.864Z</time>
      </trkpt>
      <trkpt lat="46.11217" lon="5.73068">
        <ele>1177.985497</ele>
        <time>2021-04-30T20:10:28.789Z</time>
      </trkpt>
      <trkpt lat="46.1123" lon="5.73031">
        <ele>1178.194823</ele>
        <time>2021-04-30T20:10:37.637Z</time>
      </trkpt>
      <trkpt lat="46.11364" lon="5.72822">
        <ele>1178.564285</ele>
        <time>2021-04-30T20:11:31.062Z</time>
      </trkpt>
      <trkpt lat="46.11394" lon="5.72783">
        <ele>1178.969612</ele>
        <time>2021-04-30T20:11:41.523Z</time>
      </trkpt>
      <trkpt lat="46.11449" lon="5.72714">
        <ele>1180.038919</ele>
        <time>2021-04-30T20:12:02.079Z</time>
      </trkpt>
      <trkpt lat="46.1148" lon="5.72663">
        <ele>1180.729951</ele>
        <time>2021-04-30T20:12:18.795Z</time>
      </trkpt>
      <trkpt lat="46.11505" lon="5.72604">
        <ele>1181.924892</ele>
        <time>2021-04-30T20:12:40.521Z</time>
      </trkpt>
      <trkpt lat="46.11512" lon="5.72573">
        <ele>1182.97559</ele>
        <time>2021-04-30T20:12:52.437Z</time>
      </trkpt>
      <trkpt lat="46.11513" lon="5.7255">
        <ele>1183.744632</ele>
        <time>2021-04-30T20:12:59.223Z</time>
      </trkpt>
      <trkpt lat="46.11502" lon="5.72512">
        <ele>1185.100946</ele>
        <time>2021-04-30T20:13:14.778Z</time>
      </trkpt>
      <trkpt lat="46.11495" lon="5.72475">
        <ele>1186.359698</ele>
        <time>2021-04-30T20:13:28.932Z</time>
      </trkpt>
      <trkpt lat="46.11501" lon="5.72446">
        <ele>1187.348481</ele>
        <time>2021-04-30T20:13:38.150Z</time>
      </trkpt>
      <trkpt lat="46.11503" lon="5.72434">
        <ele>1187.743657</ele>
        <time>2021-04-30T20:13:43.312Z</time>
      </trkpt>
      <trkpt lat="46.11502" lon="5.72423">
        <ele>1188.120591</ele>
        <time>2021-04-30T20:13:48.665Z</time>
      </trkpt>
      <trkpt lat="46.11496" lon="5.72399">
        <ele>1188.948467</ele>
        <time>2021-04-30T20:13:56.237Z</time>
      </trkpt>
      <trkpt lat="46.11429" lon="5.72299">
        <ele>1191.985629</ele>
        <time>2021-04-30T20:14:44.887Z</time>
      </trkpt>
      <trkpt lat="46.11393" lon="5.72221">
        <ele>1193.787751</ele>
        <time>2021-04-30T20:15:08.138Z</time>
      </trkpt>
      <trkpt lat="46.11322" lon="5.7215">
        <ele>1194.703941</ele>
        <time>2021-04-30T20:15:31.575Z</time>
      </trkpt>
      <trkpt lat="46.11309" lon="5.72106">
        <ele>1194.665525</ele>
        <time>2021-04-30T20:15:39.881Z</time>
      </trkpt>
      <trkpt lat="46.11281" lon="5.72051">
        <ele>1194.610661</ele>
        <time>2021-04-30T20:15:51.551Z</time>
      </trkpt>
      <trkpt lat="46.11259" lon="5.71991">
        <ele>1194.556012</ele>
        <time>2021-04-30T20:16:03.526Z</time>
      </trkpt>
      <trkpt lat="46.11239" lon="5.7197">
        <ele>1194.666591</ele>
        <time>2021-04-30T20:16:09.988Z</time>
      </trkpt>
      <trkpt lat="46.11146" lon="5.71923">
        <ele>1195.115777</ele>
        <time>2021-04-30T20:16:38.277Z</time>
      </trkpt>
      <trkpt lat="46.11128" lon="5.71904">
        <ele>1195.219295</ele>
        <time>2021-04-30T20:16:45.211Z</time>
      </trkpt>
      <trkpt lat="46.11093" lon="5.71844">
        <ele>1195.554446</ele>
        <time>2021-04-30T20:17:01.928Z</time>
      </trkpt>
      <trkpt lat="46.10968" lon="5.71747">
        <ele>1196.859473</ele>
        <time>2021-04-30T20:17:46.992Z</time>
      </trkpt>
      <trkpt lat="46.10885" lon="5.7171">
        <ele>1196.618511</ele>
        <time>2021-04-30T20:18:12.628Z</time>
      </trkpt>
      <trkpt lat="46.10838" lon="5.71672">
        <ele>1196.298226</ele>
        <time>2021-04-30T20:18:25.963Z</time>
      </trkpt>
      <trkpt lat="46.10786" lon="5.7164">
        <ele>1195.963129</ele>
        <time>2021-04-30T20:18:38.496Z</time>
      </trkpt>
      <trkpt lat="46.10703" lon="5.71605">
        <ele>1193.069311</ele>
        <time>2021-04-30T20:18:55.109Z</time>
      </trkpt>
      <trkpt lat="46.1069" lon="5.71568">
        <ele>1192.097114</ele>
        <time>2021-04-30T20:19:00.515Z</time>
      </trkpt>
      <trkpt lat="46.10693" lon="5.71493">
        <ele>1190.354644</ele>
        <time>2021-04-30T20:19:10.341Z</time>
      </trkpt>
      <trkpt lat="46.10696" lon="5.7143">
        <ele>1189.449877</ele>
        <time>2021-04-30T20:19:18.842Z</time>
      </trkpt>
      <trkpt lat="46.10697" lon="5.71402">
        <ele>1189.16906</ele>
        <time>2021-04-30T20:19:22.945Z</time>
      </trkpt>
      <trkpt lat="46.10697" lon="5.71379">
        <ele>1188.937606</ele>
        <time>2021-04-30T20:19:26.123Z</time>
      </trkpt>
      <trkpt lat="46.10688" lon="5.71363">
        <ele>1188.737575</ele>
        <time>2021-04-30T20:19:29.206Z</time>
      </trkpt>
      <trkpt lat="46.10634" lon="5.7132">
        <ele>1187.849091</ele>
        <time>2021-04-30T20:19:43.042Z</time>
      </trkpt>
      <trkpt lat="46.10628" lon="5.71294">
        <ele>1187.570034</ele>
        <time>2021-04-30T20:19:48.254Z</time>
      </trkpt>
      <trkpt lat="46.1064" lon="5.71218">
        <ele>1187.652215</ele>
        <time>2021-04-30T20:20:05.673Z</time>
      </trkpt>
      <trkpt lat="46.10639" lon="5.71178">
        <ele>1187.94604</ele>
        <time>2021-04-30T20:20:14.941Z</time>
      </trkpt>
      <trkpt lat="46.10618" lon="5.71117">
        <ele>1188.447233</ele>
        <time>2021-04-30T20:20:30.365Z</time>
      </trkpt>
      <trkpt lat="46.10492" lon="5.71022">
        <ele>1189.866536</ele>
        <time>2021-04-30T20:21:16.151Z</time>
      </trkpt>
      <trkpt lat="46.10476" lon="5.71009">
        <ele>1190.040991</ele>
        <time>2021-04-30T20:21:22.088Z</time>
      </trkpt>
      <trkpt lat="46.10468" lon="5.70994">
        <ele>1190.163677</ele>
        <time>2021-04-30T20:21:26.282Z</time>
      </trkpt>
      <trkpt lat="46.10468" lon="5.70963">
        <ele>1190.364381</ele>
        <time>2021-04-30T20:21:33.301Z</time>
      </trkpt>
      <trkpt lat="46.10485" lon="5.70938">
        <ele>1190.594433</ele>
        <time>2021-04-30T20:21:42.927Z</time>
      </trkpt>
      <trkpt lat="46.1057" lon="5.70896">
        <ele>1190.22758</ele>
        <time>2021-04-30T20:22:05.280Z</time>
      </trkpt>
      <trkpt lat="46.10612" lon="5.70889">
        <ele>1189.755556</ele>
        <time>2021-04-30T20:22:15.286Z</time>
      </trkpt>
      <trkpt lat="46.10624" lon="5.70878">
        <ele>1189.594073</ele>
        <time>2021-04-30T20:22:20.440Z</time>
      </trkpt>
      <trkpt lat="46.10631" lon="5.70858">
        <ele>1189.417376</ele>
        <time>2021-04-30T20:22:23.324Z</time>
      </trkpt>
      <trkpt lat="46.10634" lon="5.70834">
        <ele>1189.231315</ele>
        <time>2021-04-30T20:22:27.966Z</time>
      </trkpt>
      <trkpt lat="46.10615" lon="5.70765">
        <ele>1188.308525</ele>
        <time>2021-04-30T20:22:38.081Z</time>
      </trkpt>
      <trkpt lat="46.10609" lon="5.70705">
        <ele>1187.065831</ele>
        <time>2021-04-30T20:22:46.248Z</time>
      </trkpt>
      <trkpt lat="46.10619" lon="5.70612">
        <ele>1185.14864</ele>
        <time>2021-04-30T20:22:58.931Z</time>
      </trkpt>
      <trkpt lat="46.10617" lon="5.70591">
        <ele>1184.731803</ele>
        <time>2021-04-30T20:23:01.763Z</time>
      </trkpt>
      <trkpt lat="46.10556" lon="5.70517">
        <ele>1182.891645</ele>
        <time>2021-04-30T20:23:18.264Z</time>
      </trkpt>
      <trkpt lat="46.10455" lon="5.7048">
        <ele>1181.141644</ele>
        <time>2021-04-30T20:23:41.112Z</time>
      </trkpt>
      <trkpt lat="46.10441" lon="5.70455">
        <ele>1180.77425</ele>
        <time>2021-04-30T20:23:46.195Z</time>
      </trkpt>
      <trkpt lat="46.10421" lon="5.70395">
        <ele>1180.17168</ele>
        <time>2021-04-30T20:23:56.801Z</time>
      </trkpt>
      <trkpt lat="46.10408" lon="5.70303">
        <ele>1179.407633</ele>
        <time>2021-04-30T20:24:11.314Z</time>
      </trkpt>
      <trkpt lat="46.10404" lon="5.70217">
        <ele>1178.710319</ele>
        <time>2021-04-30T20:24:25.127Z</time>
      </trkpt>
      <trkpt lat="46.10405" lon="5.70145">
        <ele>1178.259741</ele>
        <time>2021-04-30T20:24:36.637Z</time>
      </trkpt>
      <trkpt lat="46.10407" lon="5.70106">
        <ele>1178.071079</ele>
        <time>2021-04-30T20:24:43.210Z</time>
      </trkpt>
      <trkpt lat="46.10415" lon="5.7007">
        <ele>1177.886212</ele>
        <time>2021-04-30T20:24:49.543Z</time>
      </trkpt>
      <trkpt lat="46.10431" lon="5.70059">
        <ele>1177.757594</ele>
        <time>2021-04-30T20:24:53.763Z</time>
      </trkpt>
      <trkpt lat="46.10518" lon="5.70064">
        <ele>1177.138081</ele>
        <time>2021-04-30T20:25:15.170Z</time>
      </trkpt>
      <trkpt lat="46.10667" lon="5.70016">
        <ele>1175.794006</ele>
        <time>2021-04-30T20:25:52.038Z</time>
      </trkpt>
      <trkpt lat="46.10747" lon="5.70026">
        <ele>1173.644788</ele>
        <time>2021-04-30T20:26:09.293Z</time>
      </trkpt>
      <trkpt lat="46.10827" lon="5.70006">
        <ele>1171.002785</ele>
        <time>2021-04-30T20:26:24.789Z</time>
      </trkpt>
      <trkpt lat="46.1085" lon="5.70007">
        <ele>1170.239335</ele>
        <time>2021-04-30T20:26:29.285Z</time>
      </trkpt>
      <trkpt lat="46.10901" lon="5.70027">
        <ele>1167.822906</ele>
        <time>2021-04-30T20:26:38.513Z</time>
      </trkpt>
      <trkpt lat="46.10917" lon="5.70017">
        <ele>1166.918312</ele>
        <time>2021-04-30T20:26:41.864Z</time>
      </trkpt>
      <trkpt lat="46.1093" lon="5.69993">
        <ele>1165.816511</ele>
        <time>2021-04-30T20:26:45.562Z</time>
      </trkpt>
      <trkpt lat="46.10935" lon="5.69969">
        <ele>1164.915607</ele>
        <time>2021-04-30T20:26:48.935Z</time>
      </trkpt>
      <trkpt lat="46.10935" lon="5.69958">
        <ele>1164.51636</ele>
        <time>2021-04-30T20:26:50.181Z</time>
      </trkpt>
      <trkpt lat="46.10932" lon="5.69944">
        <ele>1163.987789</ele>
        <time>2021-04-30T20:26:52.082Z</time>
      </trkpt>
      <trkpt lat="46.10886" lon="5.69776">
        <ele>1157.811977</ele>
        <time>2021-04-30T20:27:14.698Z</time>
      </trkpt>
      <trkpt lat="46.10867" lon="5.69733">
        <ele>1156.178876</ele>
        <time>2021-04-30T20:27:20.970Z</time>
      </trkpt>
      <trkpt lat="46.10865" lon="5.69664">
        <ele>1153.969395</ele>
        <time>2021-04-30T20:27:29.982Z</time>
      </trkpt>
      <trkpt lat="46.10869" lon="5.69516">
        <ele>1150.524486</ele>
        <time>2021-04-30T20:27:49.653Z</time>
      </trkpt>
      <trkpt lat="46.10838" lon="5.69505">
        <ele>1149.724123</ele>
        <time>2021-04-30T20:27:55.968Z</time>
      </trkpt>
      <trkpt lat="46.10827" lon="5.69501">
        <ele>1149.430937</ele>
        <time>2021-04-30T20:27:58.328Z</time>
      </trkpt>
      <trkpt lat="46.10801" lon="5.69495">
        <ele>1148.761922</ele>
        <time>2021-04-30T20:28:03.759Z</time>
      </trkpt>
      <trkpt lat="46.10773" lon="5.69496">
        <ele>1148.058658</ele>
        <time>2021-04-30T20:28:09.781Z</time>
      </trkpt>
      <trkpt lat="46.10728" lon="5.69486">
        <ele>1147.472415</ele>
        <time>2021-04-30T20:28:20.310Z</time>
      </trkpt>
      <trkpt lat="46.10614" lon="5.6942">
        <ele>1147.135365</ele>
        <time>2021-04-30T20:28:53.681Z</time>
      </trkpt>
      <trkpt lat="46.10495" lon="5.69402">
        <ele>1145.80988</ele>
        <time>2021-04-30T20:29:23.918Z</time>
      </trkpt>
      <trkpt lat="46.10189" lon="5.69237">
        <ele>1137.035143</ele>
        <time>2021-04-30T20:30:30.459Z</time>
      </trkpt>
      <trkpt lat="46.10146" lon="5.69193">
        <ele>1134.220624</ele>
        <time>2021-04-30T20:30:39.852Z</time>
      </trkpt>
      <trkpt lat="46.10067" lon="5.69082">
        <ele>1128.074708</ele>
        <time>2021-04-30T20:30:58.772Z</time>
      </trkpt>
      <trkpt lat="46.10039" lon="5.6906">
        <ele>1126.169778</ele>
        <time>2021-04-30T20:31:04.233Z</time>
      </trkpt>
      <trkpt lat="46.09966" lon="5.69025">
        <ele>1121.602417</ele>
        <time>2021-04-30T20:31:17.636Z</time>
      </trkpt>
      <trkpt lat="46.09905" lon="5.68992">
        <ele>1118.812458</ele>
        <time>2021-04-30T20:31:29.763Z</time>
      </trkpt>
      <trkpt lat="46.0977" lon="5.68899">
        <ele>1115.101086</ele>
        <time>2021-04-30T20:32:01.652Z</time>
      </trkpt>
      <trkpt lat="46.09743" lon="5.68889">
        <ele>1114.60803</ele>
        <time>2021-04-30T20:32:07.943Z</time>
      </trkpt>
      <trkpt lat="46.09616" lon="5.68867">
        <ele>1112.370989</ele>
        <time>2021-04-30T20:32:35.994Z</time>
      </trkpt>
      <trkpt lat="46.09598" lon="5.68859">
        <ele>1112.044812</ele>
        <time>2021-04-30T20:32:39.894Z</time>
      </trkpt>
      <trkpt lat="46.09389" lon="5.68748">
        <ele>1106.299454</ele>
        <time>2021-04-30T20:33:25.474Z</time>
      </trkpt>
      <trkpt lat="46.09315" lon="5.6872">
        <ele>1103.667743</ele>
        <time>2021-04-30T20:33:39.968Z</time>
      </trkpt>
      <trkpt lat="46.09273" lon="5.68711">
        <ele>1102.169657</ele>
        <time>2021-04-30T20:33:47.998Z</time>
      </trkpt>
      <trkpt lat="46.09226" lon="5.68713">
        <ele>1100.65834</ele>
        <time>2021-04-30T20:33:56.810Z</time>
      </trkpt>
      <trkpt lat="46.09174" lon="5.68728">
        <ele>1099.094929</ele>
        <time>2021-04-30T20:34:06.893Z</time>
      </trkpt>
      <trkpt lat="46.09102" lon="5.68742">
        <ele>1096.945945</ele>
        <time>2021-04-30T20:34:21.455Z</time>
      </trkpt>
      <trkpt lat="46.09081" lon="5.68747">
        <ele>1096.316603</ele>
        <time>2021-04-30T20:34:26.040Z</time>
      </trkpt>
      <trkpt lat="46.09049" lon="5.68738">
        <ele>1095.707585</ele>
        <time>2021-04-30T20:34:33.252Z</time>
      </trkpt>
      <trkpt lat="46.08974" lon="5.68682">
        <ele>1094.464603</ele>
        <time>2021-04-30T20:34:52.301Z</time>
      </trkpt>
      <trkpt lat="46.08915" lon="5.68656">
        <ele>1093.555392</ele>
        <time>2021-04-30T20:35:06.475Z</time>
      </trkpt>
      <trkpt lat="46.08894" lon="5.68655">
        <ele>1093.12663</ele>
        <time>2021-04-30T20:35:10.935Z</time>
      </trkpt>
      <trkpt lat="46.0886" lon="5.68668">
        <ele>1092.257598</ele>
        <time>2021-04-30T20:35:18.367Z</time>
      </trkpt>
      <trkpt lat="46.08807" lon="5.687">
        <ele>1090.845775</ele>
        <time>2021-04-30T20:35:30.104Z</time>
      </trkpt>
      <trkpt lat="46.08789" lon="5.68703">
        <ele>1090.407334</ele>
        <time>2021-04-30T20:35:33.676Z</time>
      </trkpt>
      <trkpt lat="46.08771" lon="5.68696">
        <ele>1089.938096</ele>
        <time>2021-04-30T20:35:37.472Z</time>
      </trkpt>
      <trkpt lat="46.08712" lon="5.68655">
        <ele>1088.020015</ele>
        <time>2021-04-30T20:35:50.406Z</time>
      </trkpt>
      <trkpt lat="46.08488" lon="5.68617">
        <ele>1080.487708</ele>
        <time>2021-04-30T20:36:33.519Z</time>
      </trkpt>
      <trkpt lat="46.08446" lon="5.68609">
        <ele>1079.236823</ele>
        <time>2021-04-30T20:36:41.489Z</time>
      </trkpt>
      <trkpt lat="46.08417" lon="5.68612">
        <ele>1078.377912</ele>
        <time>2021-04-30T20:36:47.222Z</time>
      </trkpt>
      <trkpt lat="46.08375" lon="5.68625">
        <ele>1077.49985</ele>
        <time>2021-04-30T20:36:56.483Z</time>
      </trkpt>
      <trkpt lat="46.0834" lon="5.68633">
        <ele>1078.281995</ele>
        <time>2021-04-30T20:37:04.833Z</time>
      </trkpt>
      <trkpt lat="46.08323" lon="5.68638">
        <ele>1078.671867</ele>
        <time>2021-04-30T20:37:09.583Z</time>
      </trkpt>
      <trkpt lat="46.08305" lon="5.68648">
        <ele>1079.112954</ele>
        <time>2021-04-30T20:37:15.435Z</time>
      </trkpt>
      <trkpt lat="46.08129" lon="5.6882">
        <ele>1087.27464</ele>
        <time>2021-04-30T20:38:59.929Z</time>
      </trkpt>
      <trkpt lat="46.08087" lon="5.68852">
        <ele>1089.769165</ele>
        <time>2021-04-30T20:39:27.885Z</time>
      </trkpt>
      <trkpt lat="46.07989" lon="5.68885">
        <ele>1093.807021</ele>
        <time>2021-04-30T20:40:22.099Z</time>
      </trkpt>
      <trkpt lat="46.07927" lon="5.68907">
        <ele>1096.226195</ele>
        <time>2021-04-30T20:40:48.824Z</time>
      </trkpt>
      <trkpt lat="46.07917" lon="5.68907">
        <ele>1096.570993</ele>
        <time>2021-04-30T20:40:52.605Z</time>
      </trkpt>
      <trkpt lat="46.07906" lon="5.68903">
        <ele>1096.99098</ele>
        <time>2021-04-30T20:40:55.664Z</time>
      </trkpt>
      <trkpt lat="46.07861" lon="5.68886">
        <ele>1096.742152</ele>
        <time>2021-04-30T20:41:10.216Z</time>
      </trkpt>
      <trkpt lat="46.0784" lon="5.68889">
        <ele>1096.229228</ele>
        <time>2021-04-30T20:41:15.961Z</time>
      </trkpt>
      <trkpt lat="46.07782" lon="5.68918">
        <ele>1094.767099</ele>
        <time>2021-04-30T20:41:28.330Z</time>
      </trkpt>
      <trkpt lat="46.07765" lon="5.68915">
        <ele>1094.338026</ele>
        <time>2021-04-30T20:41:31.551Z</time>
      </trkpt>
      <trkpt lat="46.07703" lon="5.68831">
        <ele>1091.00506</ele>
        <time>2021-04-30T20:41:46.804Z</time>
      </trkpt>
      <trkpt lat="46.07688" lon="5.68806">
        <ele>1089.622506</ele>
        <time>2021-04-30T20:41:51.002Z</time>
      </trkpt>
      <trkpt lat="46.0768" lon="5.68778">
        <ele>1088.393735</ele>
        <time>2021-04-30T20:41:54.698Z</time>
      </trkpt>
      <trkpt lat="46.07666" lon="5.68692">
        <ele>1084.816796</ele>
        <time>2021-04-30T20:42:05.659Z</time>
      </trkpt>
      <trkpt lat="46.07653" lon="5.68656">
        <ele>1083.152126</ele>
        <time>2021-04-30T20:42:10.612Z</time>
      </trkpt>
      <trkpt lat="46.07533" lon="5.68596">
        <ele>1072.945833</ele>
        <time>2021-04-30T20:42:31.963Z</time>
      </trkpt>
      <trkpt lat="46.0752" lon="5.68588">
        <ele>1071.775174</ele>
        <time>2021-04-30T20:42:34.339Z</time>
      </trkpt>
      <trkpt lat="46.07476" lon="5.6855">
        <ele>1067.447459</ele>
        <time>2021-04-30T20:42:42.913Z</time>
      </trkpt>
      <trkpt lat="46.07382" lon="5.68473">
        <ele>1057.143099</ele>
        <time>2021-04-30T20:43:00.443Z</time>
      </trkpt>
      <trkpt lat="46.07359" lon="5.6845">
        <ele>1054.501941</ele>
        <time>2021-04-30T20:43:04.959Z</time>
      </trkpt>
      <trkpt lat="46.07343" lon="5.68419">
        <ele>1051.933929</ele>
        <time>2021-04-30T20:43:09.450Z</time>
      </trkpt>
      <trkpt lat="46.07323" lon="5.68373">
        <ele>1048.847625</ele>
        <time>2021-04-30T20:43:15.823Z</time>
      </trkpt>
      <trkpt lat="46.07309" lon="5.68318">
        <ele>1045.854022</ele>
        <time>2021-04-30T20:43:22.726Z</time>
      </trkpt>
      <trkpt lat="46.07306" lon="5.68265">
        <ele>1043.068441</ele>
        <time>2021-04-30T20:43:29.156Z</time>
      </trkpt>
      <trkpt lat="46.0727" lon="5.68105">
        <ele>1033.93306</ele>
        <time>2021-04-30T20:43:49.153Z</time>
      </trkpt>
      <trkpt lat="46.07263" lon="5.68083">
        <ele>1032.488751</ele>
        <time>2021-04-30T20:43:52.080Z</time>
      </trkpt>
      <trkpt lat="46.07255" lon="5.68059">
        <ele>1030.884007</ele>
        <time>2021-04-30T20:43:55.187Z</time>
      </trkpt>
      <trkpt lat="46.07247" lon="5.67951">
        <ele>1024.444721</ele>
        <time>2021-04-30T20:44:07.654Z</time>
      </trkpt>
      <trkpt lat="46.07258" lon="5.67775">
        <ele>1012.417144</ele>
        <time>2021-04-30T20:44:27.591Z</time>
      </trkpt>
      <trkpt lat="46.07239" lon="5.67578">
        <ele>999.171074</ele>
        <time>2021-04-30T20:44:50.135Z</time>
      </trkpt>
      <trkpt lat="46.07136" lon="5.67305">
        <ele>982.196447</ele>
        <time>2021-04-30T20:45:26.740Z</time>
      </trkpt>
      <trkpt lat="46.07085" lon="5.67204">
        <ele>976.211795</ele>
        <time>2021-04-30T20:45:41.823Z</time>
      </trkpt>
      <trkpt lat="46.07086" lon="5.67183">
        <ele>975.338777</ele>
        <time>2021-04-30T20:45:44.305Z</time>
      </trkpt>
      <trkpt lat="46.07096" lon="5.67152">
        <ele>974.130925</ele>
        <time>2021-04-30T20:45:48.699Z</time>
      </trkpt>
      <trkpt lat="46.07116" lon="5.67108">
        <ele>972.315635</ele>
        <time>2021-04-30T20:45:55.200Z</time>
      </trkpt>
      <trkpt lat="46.07119" lon="5.67093">
        <ele>971.763489</ele>
        <time>2021-04-30T20:45:57.083Z</time>
      </trkpt>
      <trkpt lat="46.07119" lon="5.67077">
        <ele>971.191135</ele>
        <time>2021-04-30T20:45:59.219Z</time>
      </trkpt>
      <trkpt lat="46.07107" lon="5.67046">
        <ele>969.941967</ele>
        <time>2021-04-30T20:46:03.676Z</time>
      </trkpt>
      <trkpt lat="46.07077" lon="5.67023">
        <ele>968.238971</ele>
        <time>2021-04-30T20:46:09.860Z</time>
      </trkpt>
      <trkpt lat="46.06969" lon="5.67022">
        <ele>964.556753</ele>
        <time>2021-04-30T20:46:30.627Z</time>
      </trkpt>
      <trkpt lat="46.06928" lon="5.67046">
        <ele>963.364408</ele>
        <time>2021-04-30T20:46:39.727Z</time>
      </trkpt>
      <trkpt lat="46.06912" lon="5.67048">
        <ele>962.943825</ele>
        <time>2021-04-30T20:46:43.057Z</time>
      </trkpt>
      <trkpt lat="46.06894" lon="5.67043">
        <ele>962.431296</ele>
        <time>2021-04-30T20:46:46.981Z</time>
      </trkpt>
      <trkpt lat="46.06859" lon="5.67015">
        <ele>961.555594</ele>
        <time>2021-04-30T20:46:55.469Z</time>
      </trkpt>
      <trkpt lat="46.06762" lon="5.6693">
        <ele>960.041031</ele>
        <time>2021-04-30T20:47:20.870Z</time>
      </trkpt>
      <trkpt lat="46.0669" lon="5.66891">
        <ele>959.332351</ele>
        <time>2021-04-30T20:47:38.349Z</time>
      </trkpt>
      <trkpt lat="46.06449" lon="5.66789">
        <ele>959.120664</ele>
        <time>2021-04-30T20:48:47.382Z</time>
      </trkpt>
      <trkpt lat="46.06396" lon="5.66755">
        <ele>959.105584</ele>
        <time>2021-04-30T20:49:02.500Z</time>
      </trkpt>
      <trkpt lat="46.06323" lon="5.66697">
        <ele>958.373558</ele>
        <time>2021-04-30T20:49:23.317Z</time>
      </trkpt>
      <trkpt lat="46.06301" lon="5.66693">
        <ele>958.08869</ele>
        <time>2021-04-30T20:49:28.323Z</time>
      </trkpt>
      <trkpt lat="46.06275" lon="5.66692">
        <ele>957.77432</ele>
        <time>2021-04-30T20:49:34.152Z</time>
      </trkpt>
      <trkpt lat="46.0621" lon="5.66703">
        <ele>956.946122</ele>
        <time>2021-04-30T20:49:48.519Z</time>
      </trkpt>
      <trkpt lat="46.06161" lon="5.66745">
        <ele>955.594996</ele>
        <time>2021-04-30T20:49:59.979Z</time>
      </trkpt>
      <trkpt lat="46.06054" lon="5.66791">
        <ele>952.754499</ele>
        <time>2021-04-30T20:50:22.608Z</time>
      </trkpt>
      <trkpt lat="46.06041" lon="5.66794">
        <ele>952.424495</ele>
        <time>2021-04-30T20:50:25.171Z</time>
      </trkpt>
      <trkpt lat="46.06028" lon="5.66796">
        <ele>952.040827</ele>
        <time>2021-04-30T20:50:27.865Z</time>
      </trkpt>
      <trkpt lat="46.05989" lon="5.668">
        <ele>950.863635</ele>
        <time>2021-04-30T20:50:35.562Z</time>
      </trkpt>
      <trkpt lat="46.05946" lon="5.66808">
        <ele>949.527637</ele>
        <time>2021-04-30T20:50:44.182Z</time>
      </trkpt>
      <trkpt lat="46.05693" lon="5.66863">
        <ele>941.838154</ele>
        <time>2021-04-30T20:51:34.418Z</time>
      </trkpt>
      <trkpt lat="46.05344" lon="5.66885">
        <ele>932.940693</ele>
        <time>2021-04-30T20:52:46.646Z</time>
      </trkpt>
      <trkpt lat="46.05297" lon="5.66905">
        <ele>930.749162</ele>
        <time>2021-04-30T20:52:55.741Z</time>
      </trkpt>
      <trkpt lat="46.05291" lon="5.66909">
        <ele>930.340436</ele>
        <time>2021-04-30T20:52:56.991Z</time>
      </trkpt>
      <trkpt lat="46.05277" lon="5.66905">
        <ele>929.490625</ele>
        <time>2021-04-30T20:52:59.396Z</time>
      </trkpt>
      <trkpt lat="46.05265" lon="5.66886">
        <ele>928.340809</ele>
        <time>2021-04-30T20:53:02.745Z</time>
      </trkpt>
      <trkpt lat="46.0526" lon="5.66869">
        <ele>927.569714</ele>
        <time>2021-04-30T20:53:04.994Z</time>
      </trkpt>
      <trkpt lat="46.05263" lon="5.66854">
        <ele>926.880783</ele>
        <time>2021-04-30T20:53:06.847Z</time>
      </trkpt>
      <trkpt lat="46.05298" lon="5.66719">
        <ele>920.665395</ele>
        <time>2021-04-30T20:53:24.028Z</time>
      </trkpt>
      <trkpt lat="46.0532" lon="5.66669">
        <ele>917.998269</ele>
        <time>2021-04-30T20:53:30.872Z</time>
      </trkpt>
      <trkpt lat="46.0535" lon="5.66626">
        <ele>915.269811</ele>
        <time>2021-04-30T20:53:38.036Z</time>
      </trkpt>
      <trkpt lat="46.0542" lon="5.66547">
        <ele>909.503856</ele>
        <time>2021-04-30T20:53:53.756Z</time>
      </trkpt>
      <trkpt lat="46.05446" lon="5.66502">
        <ele>908.753825</ele>
        <time>2021-04-30T20:54:01.455Z</time>
      </trkpt>
      <trkpt lat="46.0546" lon="5.6643">
        <ele>907.888063</ele>
        <time>2021-04-30T20:54:11.961Z</time>
      </trkpt>
      <trkpt lat="46.05455" lon="5.6632">
        <ele>906.598724</ele>
        <time>2021-04-30T20:54:33.173Z</time>
      </trkpt>
      <trkpt lat="46.0546" lon="5.66178">
        <ele>907.16282</ele>
        <time>2021-04-30T20:55:05.423Z</time>
      </trkpt>
      <trkpt lat="46.05465" lon="5.66137">
        <ele>907.413851</ele>
        <time>2021-04-30T20:55:14.607Z</time>
      </trkpt>
      <trkpt lat="46.05321" lon="5.66201">
        <ele>907.94277</ele>
        <time>2021-04-30T20:55:59.295Z</time>
      </trkpt>
      <trkpt lat="46.05247" lon="5.66205">
        <ele>907.916183</ele>
        <time>2021-04-30T20:56:17.831Z</time>
      </trkpt>
      <trkpt lat="46.05215" lon="5.66205">
        <ele>907.76267</ele>
        <time>2021-04-30T20:56:25.823Z</time>
      </trkpt>
      <trkpt lat="46.05163" lon="5.66205">
        <ele>907.172741</ele>
        <time>2021-04-30T20:56:39.422Z</time>
      </trkpt>
      <trkpt lat="46.05007" lon="5.66206">
        <ele>904.745558</ele>
        <time>2021-04-30T20:57:15.782Z</time>
      </trkpt>
      <trkpt lat="46.04643" lon="5.66207">
        <ele>892.257907</ele>
        <time>2021-04-30T20:58:30.380Z</time>
      </trkpt>
      <trkpt lat="46.04405" lon="5.66212">
        <ele>875.885418</ele>
        <time>2021-04-30T20:59:13.097Z</time>
      </trkpt>
      <trkpt lat="46.04086" lon="5.6622">
        <ele>848.038041</ele>
        <time>2021-04-30T21:00:08.784Z</time>
      </trkpt>
      <trkpt lat="46.04038" lon="5.66222">
        <ele>843.260582</ele>
        <time>2021-04-30T21:00:17.004Z</time>
      </trkpt>
      <trkpt lat="46.03852" lon="5.66231">
        <ele>823.837519</ele>
        <time>2021-04-30T21:00:48.247Z</time>
      </trkpt>
      <trkpt lat="46.03822" lon="5.66212">
        <ele>820.323107</ele>
        <time>2021-04-30T21:00:53.512Z</time>
      </trkpt>
      <trkpt lat="46.03644" lon="5.66203">
        <ele>804.545194</ele>
        <time>2021-04-30T21:01:23.031Z</time>
      </trkpt>
      <trkpt lat="46.03619" lon="5.66194">
        <ele>802.345322</ele>
        <time>2021-04-30T21:01:27.565Z</time>
      </trkpt>
      <trkpt lat="46.03607" lon="5.66169">
        <ele>800.848933</ele>
        <time>2021-04-30T21:01:31.314Z</time>
      </trkpt>
      <trkpt lat="46.03597" lon="5.6611">
        <ele>798.093087</ele>
        <time>2021-04-30T21:01:38.820Z</time>
      </trkpt>
      <trkpt lat="46.03583" lon="5.6609">
        <ele>796.820459</ele>
        <time>2021-04-30T21:01:42.199Z</time>
      </trkpt>
      <trkpt lat="46.03559" lon="5.66085">
        <ele>795.222924</ele>
        <time>2021-04-30T21:01:46.401Z</time>
      </trkpt>
      <trkpt lat="46.03506" lon="5.66087">
        <ele>791.782326</ele>
        <time>2021-04-30T21:01:55.527Z</time>
      </trkpt>
      <trkpt lat="46.03449" lon="5.66074">
        <ele>787.820797</ele>
        <time>2021-04-30T21:02:05.734Z</time>
      </trkpt>
      <trkpt lat="46.03434" lon="5.66086">
        <ele>786.630009</ele>
        <time>2021-04-30T21:02:08.593Z</time>
      </trkpt>
      <trkpt lat="46.03427" lon="5.66108">
        <ele>785.463928</ele>
        <time>2021-04-30T21:02:11.498Z</time>
      </trkpt>
      <trkpt lat="46.03429" lon="5.66128">
        <ele>784.468987</ele>
        <time>2021-04-30T21:02:13.920Z</time>
      </trkpt>
      <trkpt lat="46.03454" lon="5.66176">
        <ele>781.561605</ele>
        <time>2021-04-30T21:02:20.952Z</time>
      </trkpt>
      <trkpt lat="46.03456" lon="5.6621">
        <ele>779.845144</ele>
        <time>2021-04-30T21:02:25.124Z</time>
      </trkpt>
      <trkpt lat="46.03453" lon="5.66244">
        <ele>778.203205</ele>
        <time>2021-04-30T21:02:28.997Z</time>
      </trkpt>
      <trkpt lat="46.03329" lon="5.6625">
        <ele>770.714958</ele>
        <time>2021-04-30T21:02:51.469Z</time>
      </trkpt>
      <trkpt lat="46.03326" lon="5.6625">
        <ele>770.561342</ele>
        <time>2021-04-30T21:02:51.906Z</time>
      </trkpt>
      <trkpt lat="46.03241" lon="5.66261">
        <ele>766.882087</ele>
        <time>2021-04-30T21:03:08.706Z</time>
      </trkpt>
      <trkpt lat="46.03224" lon="5.66264">
        <ele>766.935409</ele>
        <time>2021-04-30T21:03:12.646Z</time>
      </trkpt>
      <trkpt lat="46.032" lon="5.66284">
        <ele>767.019893</ele>
        <time>2021-04-30T21:03:19.431Z</time>
      </trkpt>
      <trkpt lat="46.0319" lon="5.6629">
        <ele>767.052446</ele>
        <time>2021-04-30T21:03:22.895Z</time>
      </trkpt>
      <trkpt lat="46.0313" lon="5.66333">
        <ele>767.256818</ele>
        <time>2021-04-30T21:03:46.202Z</time>
      </trkpt>
      <trkpt lat="46.03113" lon="5.66337">
        <ele>767.306638</ele>
        <time>2021-04-30T21:03:54.056Z</time>
      </trkpt>
      <trkpt lat="46.03079" lon="5.66378">
        <ele>768.014251</ele>
        <time>2021-04-30T21:04:12.755Z</time>
      </trkpt>
      <trkpt lat="46.03004" lon="5.66498">
        <ele>770.824443</ele>
        <time>2021-04-30T21:05:01.922Z</time>
      </trkpt>
      <trkpt lat="46.0297" lon="5.66601">
        <ele>771.270879</ele>
        <time>2021-04-30T21:05:24.903Z</time>
      </trkpt>
      <trkpt lat="46.02938" lon="5.66679">
        <ele>770.33013</ele>
        <time>2021-04-30T21:05:38.473Z</time>
      </trkpt>
      <trkpt lat="46.02915" lon="5.66709">
        <ele>769.857447</ele>
        <time>2021-04-30T21:05:45.257Z</time>
      </trkpt>
      <trkpt lat="46.02886" lon="5.66736">
        <ele>769.339569</ele>
        <time>2021-04-30T21:05:52.579Z</time>
      </trkpt>
      <trkpt lat="46.02851" lon="5.66751">
        <ele>768.582628</ele>
        <time>2021-04-30T21:05:59.986Z</time>
      </trkpt>
      <trkpt lat="46.02849" lon="5.66755">
        <ele>768.484288</ele>
        <time>2021-04-30T21:06:00.723Z</time>
      </trkpt>
      <trkpt lat="46.02821" lon="5.6678">
        <ele>767.68137</ele>
        <time>2021-04-30T21:06:07.598Z</time>
      </trkpt>
      <trkpt lat="46.0278" lon="5.66786">
        <ele>766.660434</ele>
        <time>2021-04-30T21:06:15.720Z</time>
      </trkpt>
      <trkpt lat="46.02684" lon="5.66782">
        <ele>764.587143</ele>
        <time>2021-04-30T21:06:35.929Z</time>
      </trkpt>
      <trkpt lat="46.02623" lon="5.66759">
        <ele>764.106157</ele>
        <time>2021-04-30T21:06:50.974Z</time>
      </trkpt>
      <trkpt lat="46.02563" lon="5.66727">
        <ele>763.611881</ele>
        <time>2021-04-30T21:07:06.959Z</time>
      </trkpt>
      <trkpt lat="46.02398" lon="5.66617">
        <ele>763.290629</ele>
        <time>2021-04-30T21:07:53.306Z</time>
      </trkpt>
      <trkpt lat="46.022" lon="5.66505">
        <ele>764.72482</ele>
        <time>2021-04-30T21:08:56.551Z</time>
      </trkpt>
      <trkpt lat="46.02165" lon="5.66486">
        <ele>765.594856</ele>
        <time>2021-04-30T21:09:10.777Z</time>
      </trkpt>
      <trkpt lat="46.02147" lon="5.66467">
        <ele>766.123083</ele>
        <time>2021-04-30T21:09:19.511Z</time>
      </trkpt>
      <trkpt lat="46.02139" lon="5.66451">
        <ele>766.449136</ele>
        <time>2021-04-30T21:09:24.966Z</time>
      </trkpt>
      <trkpt lat="46.02135" lon="5.6641">
        <ele>767.13541</ele>
        <time>2021-04-30T21:09:36.539Z</time>
      </trkpt>
      <trkpt lat="46.02139" lon="5.66389">
        <ele>767.490742</ele>
        <time>2021-04-30T21:09:42.500Z</time>
      </trkpt>
      <trkpt lat="46.0215" lon="5.66355">
        <ele>768.101985</ele>
        <time>2021-04-30T21:09:53.037Z</time>
      </trkpt>
      <trkpt lat="46.02153" lon="5.66341">
        <ele>768.348179</ele>
        <time>2021-04-30T21:09:57.206Z</time>
      </trkpt>
      <trkpt lat="46.0215" lon="5.66324">
        <ele>768.631184</ele>
        <time>2021-04-30T21:10:02.099Z</time>
      </trkpt>
      <trkpt lat="46.0214" lon="5.6631">
        <ele>768.96984</ele>
        <time>2021-04-30T21:10:07.850Z</time>
      </trkpt>
      <trkpt lat="46.02125" lon="5.66305">
        <ele>769.095821</ele>
        <time>2021-04-30T21:10:13.850Z</time>
      </trkpt>
      <trkpt lat="46.02109" lon="5.66313">
        <ele>769.214195</ele>
        <time>2021-04-30T21:10:20.228Z</time>
      </trkpt>
      <trkpt lat="46.02061" lon="5.66374">
        <ele>769.669526</ele>
        <time>2021-04-30T21:10:43.200Z</time>
      </trkpt>
      <trkpt lat="46.02047" lon="5.6638">
        <ele>769.767088</ele>
        <time>2021-04-30T21:10:46.724Z</time>
      </trkpt>
      <trkpt lat="46.02032" lon="5.66378">
        <ele>769.877618</ele>
        <time>2021-04-30T21:10:51.294Z</time>
      </trkpt>
      <trkpt lat="46.01997" lon="5.66358">
        <ele>770.14791</ele>
        <time>2021-04-30T21:11:00.006Z</time>
      </trkpt>
      <trkpt lat="46.01976" lon="5.66356">
        <ele>770.192215</ele>
        <time>2021-04-30T21:11:04.255Z</time>
      </trkpt>
      <trkpt lat="46.01958" lon="5.66365">
        <ele>769.699612</ele>
        <time>2021-04-30T21:11:08.664Z</time>
      </trkpt>
      <trkpt lat="46.0193" lon="5.66396">
        <ele>768.783081</ele>
        <time>2021-04-30T21:11:16.135Z</time>
      </trkpt>
      <trkpt lat="46.01922" lon="5.66404">
        <ele>768.550776</ele>
        <time>2021-04-30T21:11:17.800Z</time>
      </trkpt>
      <trkpt lat="46.01903" lon="5.66421">
        <ele>767.973867</ele>
        <time>2021-04-30T21:11:22.605Z</time>
      </trkpt>
      <trkpt lat="46.01828" lon="5.66442">
        <ele>766.001925</ele>
        <time>2021-04-30T21:11:37.787Z</time>
      </trkpt>
      <trkpt lat="46.01771" lon="5.66443">
        <ele>764.464662</ele>
        <time>2021-04-30T21:11:48.745Z</time>
      </trkpt>
      <trkpt lat="46.0172" lon="5.66426">
        <ele>763.048588</ele>
        <time>2021-04-30T21:11:59.220Z</time>
      </trkpt>
      <trkpt lat="46.01689" lon="5.66402">
        <ele>762.10251</ele>
        <time>2021-04-30T21:12:06.249Z</time>
      </trkpt>
      <trkpt lat="46.01667" lon="5.66396">
        <ele>761.489809</ele>
        <time>2021-04-30T21:12:10.816Z</time>
      </trkpt>
      <trkpt lat="46.01484" lon="5.66403">
        <ele>758.187198</ele>
        <time>2021-04-30T21:12:49.667Z</time>
      </trkpt>
      <trkpt lat="46.00801" lon="5.66404">
        <ele>754.801362</ele>
        <time>2021-04-30T21:15:40.867Z</time>
      </trkpt>
      <trkpt lat="46.00766" lon="5.66408">
        <ele>754.58229</ele>
        <time>2021-04-30T21:15:49.232Z</time>
      </trkpt>
      <trkpt lat="46.00749" lon="5.6642">
        <ele>754.458226</ele>
        <time>2021-04-30T21:15:53.789Z</time>
      </trkpt>
      <trkpt lat="46.00732" lon="5.6644">
        <ele>754.099018</ele>
        <time>2021-04-30T21:15:58.673Z</time>
      </trkpt>
      <trkpt lat="46.00693" lon="5.66547">
        <ele>752.356752</ele>
        <time>2021-04-30T21:16:16.999Z</time>
      </trkpt>
      <trkpt lat="46.00648" lon="5.66597">
        <ele>751.182117</ele>
        <time>2021-04-30T21:16:28.552Z</time>
      </trkpt>
      <trkpt lat="46.0061" lon="5.66614">
        <ele>750.070089</ele>
        <time>2021-04-30T21:16:36.427Z</time>
      </trkpt>
      <trkpt lat="46.00583" lon="5.66616">
        <ele>749.044869</ele>
        <time>2021-04-30T21:16:41.613Z</time>
      </trkpt>
      <trkpt lat="46.00548" lon="5.66606">
        <ele>747.645167</ele>
        <time>2021-04-30T21:16:48.460Z</time>
      </trkpt>
      <trkpt lat="46.00503" lon="5.66564">
        <ele>745.604012</ele>
        <time>2021-04-30T21:16:58.389Z</time>
      </trkpt>
      <trkpt lat="46.00456" lon="5.66544">
        <ele>743.738018</ele>
        <time>2021-04-30T21:17:07.634Z</time>
      </trkpt>
      <trkpt lat="46.00446" lon="5.66543">
        <ele>743.35525</ele>
        <time>2021-04-30T21:17:09.387Z</time>
      </trkpt>
      <trkpt lat="46.00432" lon="5.66543">
        <ele>742.825825</ele>
        <time>2021-04-30T21:17:11.968Z</time>
      </trkpt>
      <trkpt lat="46.00365" lon="5.66546">
        <ele>740.276228</ele>
        <time>2021-04-30T21:17:24.486Z</time>
      </trkpt>
      <trkpt lat="46.00339" lon="5.66528">
        <ele>739.177461</ele>
        <time>2021-04-30T21:17:29.989Z</time>
      </trkpt>
      <trkpt lat="46.00326" lon="5.66507">
        <ele>738.44025</ele>
        <time>2021-04-30T21:17:33.878Z</time>
      </trkpt>
      <trkpt lat="46.0032" lon="5.6649">
        <ele>737.94892</ele>
        <time>2021-04-30T21:17:36.254Z</time>
      </trkpt>
      <trkpt lat="46.00313" lon="5.66469">
        <ele>737.322858</ele>
        <time>2021-04-30T21:17:39.497Z</time>
      </trkpt>
      <trkpt lat="46.00296" lon="5.66411">
        <ele>736.401668</ele>
        <time>2021-04-30T21:17:48.590Z</time>
      </trkpt>
      <trkpt lat="46.00283" lon="5.6637">
        <ele>735.845043</ele>
        <time>2021-04-30T21:17:55.361Z</time>
      </trkpt>
      <trkpt lat="46.00263" lon="5.66334">
        <ele>735.3007</ele>
        <time>2021-04-30T21:18:02.044Z</time>
      </trkpt>
      <trkpt lat="46.0025" lon="5.66325">
        <ele>735.043662</ele>
        <time>2021-04-30T21:18:05.215Z</time>
      </trkpt>
      <trkpt lat="46.00234" lon="5.66325">
        <ele>734.764303</ele>
        <time>2021-04-30T21:18:08.706Z</time>
      </trkpt>
      <trkpt lat="46.00189" lon="5.66356">
        <ele>733.886866</ele>
        <time>2021-04-30T21:18:20.432Z</time>
      </trkpt>
      <trkpt lat="46.0014" lon="5.6637">
        <ele>733.154037</ele>
        <time>2021-04-30T21:18:32.300Z</time>
      </trkpt>
      <trkpt lat="46.00096" lon="5.66402">
        <ele>732.42213</ele>
        <time>2021-04-30T21:18:43.536Z</time>
      </trkpt>
      <trkpt lat="46.00091" lon="5.66405">
        <ele>732.339198</ele>
        <time>2021-04-30T21:18:44.681Z</time>
      </trkpt>
      <trkpt lat="46.00083" lon="5.66409">
        <ele>732.209623</ele>
        <time>2021-04-30T21:18:46.572Z</time>
      </trkpt>
      <trkpt lat="46.00057" lon="5.66413">
        <ele>731.829171</ele>
        <time>2021-04-30T21:18:52.209Z</time>
      </trkpt>
      <trkpt lat="46.00028" lon="5.66413">
        <ele>731.401338</ele>
        <time>2021-04-30T21:18:58.445Z</time>
      </trkpt>
      <trkpt lat="45.99664" lon="5.66418">
        <ele>722.145653</ele>
        <time>2021-04-30T21:20:12.102Z</time>
      </trkpt>
      <trkpt lat="45.99611" lon="5.66417">
        <ele>720.698538</ele>
        <time>2021-04-30T21:20:22.573Z</time>
      </trkpt>
      <trkpt lat="45.99519" lon="5.66395">
        <ele>718.116704</ele>
        <time>2021-04-30T21:20:41.402Z</time>
      </trkpt>
      <trkpt lat="45.99492" lon="5.66392">
        <ele>717.362811</ele>
        <time>2021-04-30T21:20:46.928Z</time>
      </trkpt>
      <trkpt lat="45.99479" lon="5.6639">
        <ele>717.027448</ele>
        <time>2021-04-30T21:20:49.312Z</time>
      </trkpt>
      <trkpt lat="45.9947" lon="5.66387">
        <ele>716.711149</ele>
        <time>2021-04-30T21:20:51.265Z</time>
      </trkpt>
      <trkpt lat="45.99447" lon="5.66373">
        <ele>715.877364</ele>
        <time>2021-04-30T21:20:56.366Z</time>
      </trkpt>
      <trkpt lat="45.99436" lon="5.66368">
        <ele>715.483592</ele>
        <time>2021-04-30T21:20:58.695Z</time>
      </trkpt>
      <trkpt lat="45.99422" lon="5.66361">
        <ele>715.000833</ele>
        <time>2021-04-30T21:21:01.699Z</time>
      </trkpt>
      <trkpt lat="45.9941" lon="5.66358">
        <ele>714.598867</ele>
        <time>2021-04-30T21:21:03.969Z</time>
      </trkpt>
      <trkpt lat="45.99311" lon="5.66377">
        <ele>711.251252</ele>
        <time>2021-04-30T21:21:23.238Z</time>
      </trkpt>
      <trkpt lat="45.99263" lon="5.66361">
        <ele>709.370638</ele>
        <time>2021-04-30T21:21:32.362Z</time>
      </trkpt>
      <trkpt lat="45.9925" lon="5.66357">
        <ele>708.837507</ele>
        <time>2021-04-30T21:21:34.961Z</time>
      </trkpt>
      <trkpt lat="45.99237" lon="5.66354">
        <ele>708.355816</ele>
        <time>2021-04-30T21:21:37.285Z</time>
      </trkpt>
      <trkpt lat="45.99217" lon="5.66349">
        <ele>707.562372</ele>
        <time>2021-04-30T21:21:40.994Z</time>
      </trkpt>
      <trkpt lat="45.99201" lon="5.66341">
        <ele>706.865133</ele>
        <time>2021-04-30T21:21:44.331Z</time>
      </trkpt>
      <trkpt lat="45.99194" lon="5.66348">
        <ele>706.542328</ele>
        <time>2021-04-30T21:21:45.849Z</time>
      </trkpt>
      <trkpt lat="45.99191" lon="5.6635">
        <ele>706.391239</ele>
        <time>2021-04-30T21:21:46.636Z</time>
      </trkpt>
      <trkpt lat="45.99126" lon="5.66341">
        <ele>703.904018</ele>
        <time>2021-04-30T21:21:59.590Z</time>
      </trkpt>
      <trkpt lat="45.99101" lon="5.66337">
        <ele>703.928341</ele>
        <time>2021-04-30T21:22:04.690Z</time>
      </trkpt>
      <trkpt lat="45.99064" lon="5.66334">
        <ele>703.965271</ele>
        <time>2021-04-30T21:22:12.651Z</time>
      </trkpt>
      <trkpt lat="45.98575" lon="5.66287">
        <ele>706.121828</ele>
        <time>2021-04-30T21:24:47.594Z</time>
      </trkpt>
      <trkpt lat="45.98499" lon="5.6627">
        <ele>707.486809</ele>
        <time>2021-04-30T21:25:16.216Z</time>
      </trkpt>
      <trkpt lat="45.98463" lon="5.6627">
        <ele>708.142999</ele>
        <time>2021-04-30T21:25:29.720Z</time>
      </trkpt>
      <trkpt lat="45.98081" lon="5.66225">
        <ele>715.325258</ele>
        <time>2021-04-30T21:27:46.593Z</time>
      </trkpt>
      <trkpt lat="45.98014" lon="5.66226">
        <ele>716.576495</ele>
        <time>2021-04-30T21:28:10.718Z</time>
      </trkpt>
      <trkpt lat="45.97954" lon="5.66233">
        <ele>717.694738</ele>
        <time>2021-04-30T21:28:32.504Z</time>
      </trkpt>
      <trkpt lat="45.97912" lon="5.66251">
        <ele>718.516917</ele>
        <time>2021-04-30T21:28:48.806Z</time>
      </trkpt>
      <trkpt lat="45.97867" lon="5.66297">
        <ele>719.290263</ele>
        <time>2021-04-30T21:29:07.447Z</time>
      </trkpt>
      <trkpt lat="45.97836" lon="5.6632">
        <ele>719.423495</ele>
        <time>2021-04-30T21:29:18.703Z</time>
      </trkpt>
      <trkpt lat="45.97786" lon="5.66336">
        <ele>719.615684</ele>
        <time>2021-04-30T21:29:33.955Z</time>
      </trkpt>
      <trkpt lat="45.97751" lon="5.66341">
        <ele>719.747845</ele>
        <time>2021-04-30T21:29:43.497Z</time>
      </trkpt>
      <trkpt lat="45.97656" lon="5.66342">
        <ele>719.140438</ele>
        <time>2021-04-30T21:30:06.103Z</time>
      </trkpt>
      <trkpt lat="45.97571" lon="5.66331">
        <ele>717.912735</ele>
        <time>2021-04-30T21:30:24.417Z</time>
      </trkpt>
      <trkpt lat="45.97518" lon="5.66313">
        <ele>717.027549</ele>
        <time>2021-04-30T21:30:36.013Z</time>
      </trkpt>
      <trkpt lat="45.97444" lon="5.66282">
        <ele>715.282043</ele>
        <time>2021-04-30T21:30:52.573Z</time>
      </trkpt>
      <trkpt lat="45.97412" lon="5.66255">
        <ele>714.46222</ele>
        <time>2021-04-30T21:31:00.123Z</time>
      </trkpt>
      <trkpt lat="45.97397" lon="5.66224">
        <ele>713.878047</ele>
        <time>2021-04-30T21:31:05.439Z</time>
      </trkpt>
      <trkpt lat="45.97387" lon="5.66182">
        <ele>713.113554</ele>
        <time>2021-04-30T21:31:11.773Z</time>
      </trkpt>
      <trkpt lat="45.97359" lon="5.66147">
        <ele>711.778179</ele>
        <time>2021-04-30T21:31:19.250Z</time>
      </trkpt>
      <trkpt lat="45.97106" lon="5.6612">
        <ele>702.564843</ele>
        <time>2021-04-30T21:32:07.250Z</time>
      </trkpt>
      <trkpt lat="45.96833" lon="5.66092">
        <ele>692.683516</ele>
        <time>2021-04-30T21:32:59.890Z</time>
      </trkpt>
      <trkpt lat="45.96823" lon="5.66093">
        <ele>692.263298</ele>
        <time>2021-04-30T21:33:01.833Z</time>
      </trkpt>
      <trkpt lat="45.96812" lon="5.66096">
        <ele>691.814802</ele>
        <time>2021-04-30T21:33:04.023Z</time>
      </trkpt>
      <trkpt lat="45.96806" lon="5.66087">
        <ele>691.463129</ele>
        <time>2021-04-30T21:33:05.686Z</time>
      </trkpt>
      <trkpt lat="45.96521" lon="5.66055">
        <ele>679.762296</ele>
        <time>2021-04-30T21:34:01.703Z</time>
      </trkpt>
      <trkpt lat="45.96362" lon="5.66039">
        <ele>673.747179</ele>
        <time>2021-04-30T21:34:32.080Z</time>
      </trkpt>
      <trkpt lat="45.96302" lon="5.66033">
        <ele>671.39764</ele>
        <time>2021-04-30T21:34:43.433Z</time>
      </trkpt>
      <trkpt lat="45.9627" lon="5.66031">
        <ele>670.01918</ele>
        <time>2021-04-30T21:34:49.617Z</time>
      </trkpt>
      <trkpt lat="45.96253" lon="5.6603">
        <ele>669.312616</ele>
        <time>2021-04-30T21:34:52.778Z</time>
      </trkpt>
      <trkpt lat="45.96214" lon="5.66026">
        <ele>667.669802</ele>
        <time>2021-04-30T21:35:00.026Z</time>
      </trkpt>
      <trkpt lat="45.96197" lon="5.66022">
        <ele>666.919351</ele>
        <time>2021-04-30T21:35:03.343Z</time>
      </trkpt>
      <trkpt lat="45.96175" lon="5.66017">
        <ele>665.989679</ele>
        <time>2021-04-30T21:35:07.466Z</time>
      </trkpt>
      <trkpt lat="45.96157" lon="5.6601">
        <ele>665.207708</ele>
        <time>2021-04-30T21:35:10.854Z</time>
      </trkpt>
      <trkpt lat="45.96134" lon="5.65994">
        <ele>663.82516</ele>
        <time>2021-04-30T21:35:15.618Z</time>
      </trkpt>
      <trkpt lat="45.96127" lon="5.65988">
        <ele>663.357364</ele>
        <time>2021-04-30T21:35:16.993Z</time>
      </trkpt>
      <trkpt lat="45.96108" lon="5.65973">
        <ele>662.096138</ele>
        <time>2021-04-30T21:35:20.962Z</time>
      </trkpt>
      <trkpt lat="45.96086" lon="5.65965">
        <ele>660.777</ele>
        <time>2021-04-30T21:35:24.900Z</time>
      </trkpt>
      <trkpt lat="45.96059" lon="5.65945">
        <ele>659.008079</ele>
        <time>2021-04-30T21:35:30.222Z</time>
      </trkpt>
      <trkpt lat="45.96012" lon="5.65907">
        <ele>655.868799</ele>
        <time>2021-04-30T21:35:39.753Z</time>
      </trkpt>
      <trkpt lat="45.95995" lon="5.65907">
        <ele>654.89024</ele>
        <time>2021-04-30T21:35:42.611Z</time>
      </trkpt>
      <trkpt lat="45.95536" lon="5.66002">
        <ele>626.426575</ele>
        <time>2021-04-30T21:37:03.506Z</time>
      </trkpt>
      <trkpt lat="45.9544" lon="5.66021">
        <ele>621.41151</ele>
        <time>2021-04-30T21:37:21.204Z</time>
      </trkpt>
      <trkpt lat="45.95069" lon="5.66086">
        <ele>609.72876</ele>
        <time>2021-04-30T21:38:35.241Z</time>
      </trkpt>
      <trkpt lat="45.94938" lon="5.66116">
        <ele>605.631156</ele>
        <time>2021-04-30T21:39:00.981Z</time>
      </trkpt>
      <trkpt lat="45.94387" lon="5.66229">
        <ele>590.334109</ele>
        <time>2021-04-30T21:40:52.418Z</time>
      </trkpt>
      <trkpt lat="45.94378" lon="5.66231">
        <ele>590.166811</ele>
        <time>2021-04-30T21:40:54.352Z</time>
      </trkpt>
      <trkpt lat="45.93712" lon="5.66357">
        <ele>580.997614</ele>
        <time>2021-04-30T21:43:26.476Z</time>
      </trkpt>
      <trkpt lat="45.93701" lon="5.66355">
        <ele>580.806174</ele>
        <time>2021-04-30T21:43:28.685Z</time>
      </trkpt>
      <trkpt lat="45.93681" lon="5.66363">
        <ele>580.452003</ele>
        <time>2021-04-30T21:43:32.781Z</time>
      </trkpt>
      <trkpt lat="45.93661" lon="5.66368">
        <ele>579.966664</ele>
        <time>2021-04-30T21:43:36.776Z</time>
      </trkpt>
      <trkpt lat="45.936" lon="5.6638">
        <ele>578.111292</ele>
        <time>2021-04-30T21:43:48.737Z</time>
      </trkpt>
      <trkpt lat="45.93429" lon="5.66414">
        <ele>573.212192</ele>
        <time>2021-04-30T21:44:22.765Z</time>
      </trkpt>
      <trkpt lat="45.9325" lon="5.66448">
        <ele>568.388064</ele>
        <time>2021-04-30T21:45:00.107Z</time>
      </trkpt>
      <trkpt lat="45.93081" lon="5.66482">
        <ele>563.275961</ele>
        <time>2021-04-30T21:45:33.385Z</time>
      </trkpt>
      <trkpt lat="45.93055" lon="5.66487">
        <ele>562.423347</ele>
        <time>2021-04-30T21:45:38.448Z</time>
      </trkpt>
      <trkpt lat="45.93" lon="5.66497">
        <ele>560.627532</ele>
        <time>2021-04-30T21:45:49.214Z</time>
      </trkpt>
      <trkpt lat="45.9291" lon="5.66515">
        <ele>557.562409</ele>
        <time>2021-04-30T21:46:07.024Z</time>
      </trkpt>
      <trkpt lat="45.9282" lon="5.665">
        <ele>554.437198</ele>
        <time>2021-04-30T21:46:24.543Z</time>
      </trkpt>
      <trkpt lat="45.9281" lon="5.66495">
        <ele>554.074856</ele>
        <time>2021-04-30T21:46:26.479Z</time>
      </trkpt>
      <trkpt lat="45.92799" lon="5.66489">
        <ele>553.654019</ele>
        <time>2021-04-30T21:46:28.839Z</time>
      </trkpt>
      <trkpt lat="45.92781" lon="5.66484">
        <ele>553.010787</ele>
        <time>2021-04-30T21:46:32.433Z</time>
      </trkpt>
      <trkpt lat="45.92768" lon="5.66481">
        <ele>552.540412</ele>
        <time>2021-04-30T21:46:34.704Z</time>
      </trkpt>
      <trkpt lat="45.92758" lon="5.6648">
        <ele>552.148802</ele>
        <time>2021-04-30T21:46:36.751Z</time>
      </trkpt>
      <trkpt lat="45.92736" lon="5.66478">
        <ele>551.282222</ele>
        <time>2021-04-30T21:46:40.952Z</time>
      </trkpt>
      <trkpt lat="45.92454" lon="5.66507">
        <ele>540.2279</ele>
        <time>2021-04-30T21:47:34.320Z</time>
      </trkpt>
      <trkpt lat="45.92402" lon="5.66509">
        <ele>538.001298</ele>
        <time>2021-04-30T21:47:44.149Z</time>
      </trkpt>
      <trkpt lat="45.92349" lon="5.66512">
        <ele>535.556992</ele>
        <time>2021-04-30T21:47:53.933Z</time>
      </trkpt>
      <trkpt lat="45.92305" lon="5.6651">
        <ele>533.548003</ele>
        <time>2021-04-30T21:48:01.878Z</time>
      </trkpt>
      <trkpt lat="45.92242" lon="5.66474">
        <ele>530.424928</ele>
        <time>2021-04-30T21:48:14.192Z</time>
      </trkpt>
      <trkpt lat="45.92205" lon="5.66468">
        <ele>528.700912</ele>
        <time>2021-04-30T21:48:21.142Z</time>
      </trkpt>
      <trkpt lat="45.92024" lon="5.66531">
        <ele>520.685272</ele>
        <time>2021-04-30T21:48:55.475Z</time>
      </trkpt>
      <trkpt lat="45.91972" lon="5.6658">
        <ele>518.378448</ele>
        <time>2021-04-30T21:49:07.425Z</time>
      </trkpt>
      <trkpt lat="45.9193" lon="5.6659">
        <ele>516.781837</ele>
        <time>2021-04-30T21:49:15.750Z</time>
      </trkpt>
      <trkpt lat="45.91896" lon="5.66622">
        <ele>515.233113</ele>
        <time>2021-04-30T21:49:23.636Z</time>
      </trkpt>
      <trkpt lat="45.91862" lon="5.66628">
        <ele>513.822629</ele>
        <time>2021-04-30T21:49:30.388Z</time>
      </trkpt>
      <trkpt lat="45.91834" lon="5.66615">
        <ele>512.653006</ele>
        <time>2021-04-30T21:49:35.880Z</time>
      </trkpt>
      <trkpt lat="45.91763" lon="5.6661">
        <ele>509.751909</ele>
        <time>2021-04-30T21:49:49.145Z</time>
      </trkpt>
      <trkpt lat="45.91727" lon="5.66636">
        <ele>508.060349</ele>
        <time>2021-04-30T21:49:56.476Z</time>
      </trkpt>
      <trkpt lat="45.91716" lon="5.66639">
        <ele>507.509798</ele>
        <time>2021-04-30T21:49:58.532Z</time>
      </trkpt>
      <trkpt lat="45.91663" lon="5.66625">
        <ele>504.874879</ele>
        <time>2021-04-30T21:50:08.425Z</time>
      </trkpt>
      <trkpt lat="45.91619" lon="5.66649">
        <ele>502.567993</ele>
        <time>2021-04-30T21:50:17.067Z</time>
      </trkpt>
      <trkpt lat="45.91493" lon="5.66666">
        <ele>495.999625</ele>
        <time>2021-04-30T21:50:39.908Z</time>
      </trkpt>
      <trkpt lat="45.91454" lon="5.66694">
        <ele>493.599342</ele>
        <time>2021-04-30T21:50:47.733Z</time>
      </trkpt>
      <trkpt lat="45.91418" lon="5.66711">
        <ele>491.513354</ele>
        <time>2021-04-30T21:50:54.439Z</time>
      </trkpt>
      <trkpt lat="45.91215" lon="5.66711">
        <ele>480.539255</ele>
        <time>2021-04-30T21:51:30.022Z</time>
      </trkpt>
      <trkpt lat="45.91178" lon="5.66718">
        <ele>479.808488</ele>
        <time>2021-04-30T21:51:37.732Z</time>
      </trkpt>
      <trkpt lat="45.91161" lon="5.66734">
        <ele>479.577973</ele>
        <time>2021-04-30T21:51:42.459Z</time>
      </trkpt>
      <trkpt lat="45.9115" lon="5.66746">
        <ele>479.414503</ele>
        <time>2021-04-30T21:51:45.261Z</time>
      </trkpt>
      <trkpt lat="45.91139" lon="5.66761">
        <ele>479.235962</ele>
        <time>2021-04-30T21:51:49.383Z</time>
      </trkpt>
      <trkpt lat="45.911" lon="5.66781">
        <ele>478.768587</ele>
        <time>2021-04-30T21:51:59.464Z</time>
      </trkpt>
      <trkpt lat="45.91092" lon="5.66782">
        <ele>478.675952</ele>
        <time>2021-04-30T21:52:01.331Z</time>
      </trkpt>
      <trkpt lat="45.91081" lon="5.66781">
        <ele>478.53839</ele>
        <time>2021-04-30T21:52:04.176Z</time>
      </trkpt>
      <trkpt lat="45.91067" lon="5.66779">
        <ele>478.385186</ele>
        <time>2021-04-30T21:52:08.481Z</time>
      </trkpt>
      <trkpt lat="45.90956" lon="5.66729">
        <ele>476.988178</ele>
        <time>2021-04-30T21:52:42.464Z</time>
      </trkpt>
      <trkpt lat="45.90827" lon="5.66717">
        <ele>474.52235</ele>
        <time>2021-04-30T21:53:08.224Z</time>
      </trkpt>
      <trkpt lat="45.90747" lon="5.66688">
        <ele>471.610712</ele>
        <time>2021-04-30T21:53:23.801Z</time>
      </trkpt>
      <trkpt lat="45.90717" lon="5.66692">
        <ele>470.578975</ele>
        <time>2021-04-30T21:53:29.293Z</time>
      </trkpt>
      <trkpt lat="45.90688" lon="5.66706">
        <ele>469.593915</ele>
        <time>2021-04-30T21:53:35.149Z</time>
      </trkpt>
      <trkpt lat="45.90583" lon="5.66769">
        <ele>468.848305</ele>
        <time>2021-04-30T21:54:01.260Z</time>
      </trkpt>
      <trkpt lat="45.90569" lon="5.66786">
        <ele>468.725252</ele>
        <time>2021-04-30T21:54:06.030Z</time>
      </trkpt>
      <trkpt lat="45.90565" lon="5.66794">
        <ele>468.683149</ele>
        <time>2021-04-30T21:54:07.203Z</time>
      </trkpt>
      <trkpt lat="45.90558" lon="5.66806">
        <ele>468.611807</ele>
        <time>2021-04-30T21:54:13.134Z</time>
      </trkpt>
      <trkpt lat="45.90534" lon="5.66872">
        <ele>468.865938</ele>
        <time>2021-04-30T21:54:30.230Z</time>
      </trkpt>
      <trkpt lat="45.90453" lon="5.66939">
        <ele>470.451351</ele>
        <time>2021-04-30T21:55:05.994Z</time>
      </trkpt>
      <trkpt lat="45.9043" lon="5.66948">
        <ele>470.863501</ele>
        <time>2021-04-30T21:55:14.624Z</time>
      </trkpt>
      <trkpt lat="45.9032" lon="5.66939">
        <ele>471.965034</ele>
        <time>2021-04-30T21:55:48.316Z</time>
      </trkpt>
      <trkpt lat="45.90299" lon="5.66943">
        <ele>472.101283</ele>
        <time>2021-04-30T21:55:54.046Z</time>
      </trkpt>
      <trkpt lat="45.9019" lon="5.67009">
        <ele>472.795568</ele>
        <time>2021-04-30T21:56:28.522Z</time>
      </trkpt>
      <trkpt lat="45.90167" lon="5.67028">
        <ele>472.906537</ele>
        <time>2021-04-30T21:56:36.600Z</time>
      </trkpt>
      <trkpt lat="45.90109" lon="5.67096">
        <ele>473.226738</ele>
        <time>2021-04-30T21:56:59.066Z</time>
      </trkpt>
      <trkpt lat="45.90089" lon="5.67104">
        <ele>473.315781</ele>
        <time>2021-04-30T21:57:04.885Z</time>
      </trkpt>
      <trkpt lat="45.90046" lon="5.67107">
        <ele>473.27235</ele>
        <time>2021-04-30T21:57:16.356Z</time>
      </trkpt>
      <trkpt lat="45.90005" lon="5.67122">
        <ele>472.92337</ele>
        <time>2021-04-30T21:57:26.464Z</time>
      </trkpt>
      <trkpt lat="45.89958" lon="5.67176">
        <ele>472.420286</ele>
        <time>2021-04-30T21:57:40.349Z</time>
      </trkpt>
      <trkpt lat="45.89871" lon="5.67192">
        <ele>471.683394</ele>
        <time>2021-04-30T21:57:59.996Z</time>
      </trkpt>
      <trkpt lat="45.89859" lon="5.67199">
        <ele>471.578564</ele>
        <time>2021-04-30T21:58:02.869Z</time>
      </trkpt>
      <trkpt lat="45.89725" lon="5.67389">
        <ele>469.405518</ele>
        <time>2021-04-30T21:58:48.559Z</time>
      </trkpt>
      <trkpt lat="45.89647" lon="5.67441">
        <ele>467.617294</ele>
        <time>2021-04-30T21:59:06.801Z</time>
      </trkpt>
      <trkpt lat="45.89634" lon="5.67447">
        <ele>467.326236</ele>
        <time>2021-04-30T21:59:09.560Z</time>
      </trkpt>
      <trkpt lat="45.89566" lon="5.67439">
        <ele>464.976618</ele>
        <time>2021-04-30T21:59:22.379Z</time>
      </trkpt>
      <trkpt lat="45.89547" lon="5.67443">
        <ele>464.074147</ele>
        <time>2021-04-30T21:59:25.951Z</time>
      </trkpt>
      <trkpt lat="45.89484" lon="5.6749">
        <ele>460.767358</ele>
        <time>2021-04-30T21:59:38.712Z</time>
      </trkpt>
      <trkpt lat="45.89375" lon="5.67529">
        <ele>456.365744</ele>
        <time>2021-04-30T21:59:59.155Z</time>
      </trkpt>
      <trkpt lat="45.89352" lon="5.67542">
        <ele>455.565889</ele>
        <time>2021-04-30T22:00:03.791Z</time>
      </trkpt>
      <trkpt lat="45.89347" lon="5.67546">
        <ele>455.37946</ele>
        <time>2021-04-30T22:00:04.987Z</time>
      </trkpt>
      <trkpt lat="45.89336" lon="5.67559">
        <ele>454.925144</ele>
        <time>2021-04-30T22:00:07.802Z</time>
      </trkpt>
      <trkpt lat="45.89319" lon="5.67582">
        <ele>454.16266</ele>
        <time>2021-04-30T22:00:12.578Z</time>
      </trkpt>
      <trkpt lat="45.89301" lon="5.67608">
        <ele>453.347378</ele>
        <time>2021-04-30T22:00:17.734Z</time>
      </trkpt>
      <trkpt lat="45.89306" lon="5.67626">
        <ele>452.89397</ele>
        <time>2021-04-30T22:00:21.005Z</time>
      </trkpt>
      <trkpt lat="45.89303" lon="5.67641">
        <ele>452.552314</ele>
        <time>2021-04-30T22:00:23.256Z</time>
      </trkpt>
      <trkpt lat="45.89272" lon="5.67665">
        <ele>452.564522</ele>
        <time>2021-04-30T22:00:31.309Z</time>
      </trkpt>
      <trkpt lat="45.89241" lon="5.67717">
        <ele>452.699282</ele>
        <time>2021-04-30T22:00:44.009Z</time>
      </trkpt>
      <trkpt lat="45.89209" lon="5.6774">
        <ele>452.799383</ele>
        <time>2021-04-30T22:00:55.038Z</time>
      </trkpt>
      <trkpt lat="45.89175" lon="5.67786">
        <ele>452.930429</ele>
        <time>2021-04-30T22:01:10.673Z</time>
      </trkpt>
      <trkpt lat="45.89152" lon="5.67836">
        <ele>453.046986</ele>
        <time>2021-04-30T22:01:24.380Z</time>
      </trkpt>
      <trkpt lat="45.8913" lon="5.67881">
        <ele>453.151464</ele>
        <time>2021-04-30T22:01:36.636Z</time>
      </trkpt>
      <trkpt lat="45.89123" lon="5.67895">
        <ele>453.184193</ele>
        <time>2021-04-30T22:01:40.207Z</time>
      </trkpt>
      <trkpt lat="45.89111" lon="5.67928">
        <ele>453.256715</ele>
        <time>2021-04-30T22:01:48.671Z</time>
      </trkpt>
      <trkpt lat="45.89104" lon="5.67966">
        <ele>453.330853</ele>
        <time>2021-04-30T22:01:56.472Z</time>
      </trkpt>
      <trkpt lat="45.8911" lon="5.68106">
        <ele>451.805238</ele>
        <time>2021-04-30T22:02:18.787Z</time>
      </trkpt>
      <trkpt lat="45.89109" lon="5.68157">
        <ele>450.51593</ele>
        <time>2021-04-30T22:02:25.609Z</time>
      </trkpt>
      <trkpt lat="45.89111" lon="5.68165">
        <ele>450.304138</ele>
        <time>2021-04-30T22:02:26.698Z</time>
      </trkpt>
      <trkpt lat="45.89115" lon="5.6817">
        <ele>450.10748</ele>
        <time>2021-04-30T22:02:27.692Z</time>
      </trkpt>
      <trkpt lat="45.89101" lon="5.68181">
        <ele>449.549847</ele>
        <time>2021-04-30T22:02:30.515Z</time>
      </trkpt>
      <trkpt lat="45.89065" lon="5.68237">
        <ele>447.608552</ele>
        <time>2021-04-30T22:02:40.282Z</time>
      </trkpt>
      <trkpt lat="45.89044" lon="5.68275">
        <ele>446.056996</ele>
        <time>2021-04-30T22:02:46.236Z</time>
      </trkpt>
      <trkpt lat="45.89032" lon="5.68291">
        <ele>445.060247</ele>
        <time>2021-04-30T22:02:49.120Z</time>
      </trkpt>
      <trkpt lat="45.88818" lon="5.68463">
        <ele>428.277549</ele>
        <time>2021-04-30T22:03:32.040Z</time>
      </trkpt>
      <trkpt lat="45.8879" lon="5.68499">
        <ele>425.189764</ele>
        <time>2021-04-30T22:03:38.380Z</time>
      </trkpt>
      <trkpt lat="45.88754" lon="5.68568">
        <ele>419.674327</ele>
        <time>2021-04-30T22:03:48.143Z</time>
      </trkpt>
      <trkpt lat="45.88672" lon="5.68676">
        <ele>405.683953</ele>
        <time>2021-04-30T22:04:05.691Z</time>
      </trkpt>
      <trkpt lat="45.88607" lon="5.68719">
        <ele>396.739255</ele>
        <time>2021-04-30T22:04:16.995Z</time>
      </trkpt>
      <trkpt lat="45.88545" lon="5.6874">
        <ele>389.243164</ele>
        <time>2021-04-30T22:04:27.032Z</time>
      </trkpt>
      <trkpt lat="45.88438" lon="5.68784">
        <ele>376.574951</ele>
        <time>2021-04-30T22:04:44.988Z</time>
      </trkpt>
      <trkpt lat="45.88383" lon="5.6881">
        <ele>372.040165</ele>
        <time>2021-04-30T22:04:54.689Z</time>
      </trkpt>
      <trkpt lat="45.88328" lon="5.68836">
        <ele>367.574418</ele>
        <time>2021-04-30T22:05:04.538Z</time>
      </trkpt>
      <trkpt lat="45.88319" lon="5.68853">
        <ele>366.367918</ele>
        <time>2021-04-30T22:05:07.198Z</time>
      </trkpt>
      <trkpt lat="45.88318" lon="5.6886">
        <ele>365.995634</ele>
        <time>2021-04-30T22:05:08.051Z</time>
      </trkpt>
      <trkpt lat="45.8832" lon="5.68878">
        <ele>364.999286</ele>
        <time>2021-04-30T22:05:10.378Z</time>
      </trkpt>
      <trkpt lat="45.88324" lon="5.68902">
        <ele>363.651821</ele>
        <time>2021-04-30T22:05:13.339Z</time>
      </trkpt>
      <trkpt lat="45.88325" lon="5.68917">
        <ele>362.875467</ele>
        <time>2021-04-30T22:05:15.207Z</time>
      </trkpt>
      <trkpt lat="45.88322" lon="5.68929">
        <ele>362.266361</ele>
        <time>2021-04-30T22:05:16.817Z</time>
      </trkpt>
      <trkpt lat="45.88316" lon="5.68941">
        <ele>361.572664</ele>
        <time>2021-04-30T22:05:18.469Z</time>
      </trkpt>
      <trkpt lat="45.88307" lon="5.68951">
        <ele>360.730735</ele>
        <time>2021-04-30T22:05:20.496Z</time>
      </trkpt>
      <trkpt lat="45.88251" lon="5.6897">
        <ele>356.657609</ele>
        <time>2021-04-30T22:05:30.577Z</time>
      </trkpt>
      <trkpt lat="45.88214" lon="5.68973">
        <ele>353.985637</ele>
        <time>2021-04-30T22:05:36.976Z</time>
      </trkpt>
      <trkpt lat="45.88198" lon="5.68973">
        <ele>352.849671</ele>
        <time>2021-04-30T22:05:39.686Z</time>
      </trkpt>
      <trkpt lat="45.88191" lon="5.68978">
        <ele>352.29472</ele>
        <time>2021-04-30T22:05:41.040Z</time>
      </trkpt>
      <trkpt lat="45.88182" lon="5.68983">
        <ele>351.668</ele>
        <time>2021-04-30T22:05:42.498Z</time>
      </trkpt>
      <trkpt lat="45.88166" lon="5.68986">
        <ele>350.380518</ele>
        <time>2021-04-30T22:05:45.295Z</time>
      </trkpt>
      <trkpt lat="45.88132" lon="5.68982">
        <ele>347.164872</ele>
        <time>2021-04-30T22:05:50.955Z</time>
      </trkpt>
      <trkpt lat="45.88098" lon="5.68981">
        <ele>343.932363</ele>
        <time>2021-04-30T22:05:56.606Z</time>
      </trkpt>
      <trkpt lat="45.88075" lon="5.6898">
        <ele>341.761568</ele>
        <time>2021-04-30T22:06:00.355Z</time>
      </trkpt>
      <trkpt lat="45.88037" lon="5.68964">
        <ele>338.008925</ele>
        <time>2021-04-30T22:06:06.866Z</time>
      </trkpt>
      <trkpt lat="45.88007" lon="5.68966">
        <ele>335.209881</ele>
        <time>2021-04-30T22:06:11.757Z</time>
      </trkpt>
      <trkpt lat="45.8794" lon="5.68987">
        <ele>326.948231</ele>
        <time>2021-04-30T22:06:22.811Z</time>
      </trkpt>
      <trkpt lat="45.87919" lon="5.69002">
        <ele>324.039579</ele>
        <time>2021-04-30T22:06:26.400Z</time>
      </trkpt>
      <trkpt lat="45.87895" lon="5.69086">
        <ele>315.944411</ele>
        <time>2021-04-30T22:06:36.521Z</time>
      </trkpt>
      <trkpt lat="45.87892" lon="5.69089">
        <ele>315.479115</ele>
        <time>2021-04-30T22:06:37.075Z</time>
      </trkpt>
      <trkpt lat="45.87888" lon="5.69093">
        <ele>314.900141</ele>
        <time>2021-04-30T22:06:37.776Z</time>
      </trkpt>
      <trkpt lat="45.87872" lon="5.69098">
        <ele>312.780362</ele>
        <time>2021-04-30T22:06:40.419Z</time>
      </trkpt>
      <trkpt lat="45.87867" lon="5.69097">
        <ele>312.14907</ele>
        <time>2021-04-30T22:06:41.206Z</time>
      </trkpt>
      <trkpt lat="45.87862" lon="5.69096">
        <ele>311.555477</ele>
        <time>2021-04-30T22:06:41.950Z</time>
      </trkpt>
      <trkpt lat="45.87856" lon="5.69092">
        <ele>310.71324</ele>
        <time>2021-04-30T22:06:42.958Z</time>
      </trkpt>
      <trkpt lat="45.87843" lon="5.69071">
        <ele>308.043691</ele>
        <time>2021-04-30T22:06:46.115Z</time>
      </trkpt>
      <trkpt lat="45.87824" lon="5.69017">
        <ele>302.418359</ele>
        <time>2021-04-30T22:06:52.654Z</time>
      </trkpt>
      <trkpt lat="45.8782" lon="5.68948">
        <ele>296.039662</ele>
        <time>2021-04-30T22:07:00.121Z</time>
      </trkpt>
      <trkpt lat="45.87809" lon="5.68916">
        <ele>292.763949</ele>
        <time>2021-04-30T22:07:03.944Z</time>
      </trkpt>
      <trkpt lat="45.87799" lon="5.68901">
        <ele>290.782039</ele>
        <time>2021-04-30T22:07:06.374Z</time>
      </trkpt>
      <trkpt lat="45.87781" lon="5.68893">
        <ele>288.265169</ele>
        <time>2021-04-30T22:07:09.334Z</time>
      </trkpt>
      <trkpt lat="45.87753" lon="5.68901">
        <ele>285.704745</ele>
        <time>2021-04-30T22:07:14.237Z</time>
      </trkpt>
      <trkpt lat="45.87752" lon="5.68913">
        <ele>285.155092</ele>
        <time>2021-04-30T22:07:15.610Z</time>
      </trkpt>
      <trkpt lat="45.87747" lon="5.68924">
        <ele>284.597338</ele>
        <time>2021-04-30T22:07:17.257Z</time>
      </trkpt>
      <trkpt lat="45.87737" lon="5.68979">
        <ele>282.103519</ele>
        <time>2021-04-30T22:07:24.204Z</time>
      </trkpt>
      <trkpt lat="45.87742" lon="5.69064">
        <ele>278.400732</ele>
        <time>2021-04-30T22:07:34.741Z</time>
      </trkpt>
      <trkpt lat="45.87737" lon="5.69093">
        <ele>277.108256</ele>
        <time>2021-04-30T22:07:39.234Z</time>
      </trkpt>
      <trkpt lat="45.87692" lon="5.69179">
        <ele>273.039115</ele>
        <time>2021-04-30T22:07:53.334Z</time>
      </trkpt>
      <trkpt lat="45.8767" lon="5.69247">
        <ele>270.47502</ele>
        <time>2021-04-30T22:08:02.877Z</time>
      </trkpt>
      <trkpt lat="45.8766" lon="5.69262">
        <ele>269.768504</ele>
        <time>2021-04-30T22:08:05.640Z</time>
      </trkpt>
      <trkpt lat="45.87654" lon="5.69269">
        <ele>269.365239</ele>
        <time>2021-04-30T22:08:07.054Z</time>
      </trkpt>
      <trkpt lat="45.87648" lon="5.6927">
        <ele>269.051933</ele>
        <time>2021-04-30T22:08:08.090Z</time>
      </trkpt>
      <trkpt lat="45.87643" lon="5.6927">
        <ele>268.807511</ele>
        <time>2021-04-30T22:08:09.023Z</time>
      </trkpt>
      <trkpt lat="45.87551" lon="5.69239">
        <ele>264.074654</ele>
        <time>2021-04-30T22:08:25.565Z</time>
      </trkpt>
      <trkpt lat="45.8751" lon="5.69226">
        <ele>261.967052</ele>
        <time>2021-04-30T22:08:32.686Z</time>
      </trkpt>
      <trkpt lat="45.87506" lon="5.69225">
        <ele>261.769988</ele>
        <time>2021-04-30T22:08:33.330Z</time>
      </trkpt>
      <trkpt lat="45.87455" lon="5.69208">
        <ele>259.112501</ele>
        <time>2021-04-30T22:08:43.173Z</time>
      </trkpt>
      <trkpt lat="45.87435" lon="5.69201">
        <ele>258.082995</ele>
        <time>2021-04-30T22:08:47.130Z</time>
      </trkpt>
      <trkpt lat="45.87428" lon="5.69221">
        <ele>257.446546</ele>
        <time>2021-04-30T22:08:50.358Z</time>
      </trkpt>
      <trkpt lat="45.8742" lon="5.69243">
        <ele>257.305215</ele>
        <time>2021-04-30T22:08:53.732Z</time>
      </trkpt>
      <trkpt lat="45.87409" lon="5.69279">
        <ele>257.068409</ele>
        <time>2021-04-30T22:08:59.731Z</time>
      </trkpt>
      <trkpt lat="45.87404" lon="5.69293">
        <ele>256.978311</ele>
        <time>2021-04-30T22:09:01.988Z</time>
      </trkpt>
      <trkpt lat="45.87403" lon="5.69298">
        <ele>256.947432</ele>
        <time>2021-04-30T22:09:02.841Z</time>
      </trkpt>
      <trkpt lat="45.87393" lon="5.69338">
        <ele>256.694915</ele>
        <time>2021-04-30T22:09:09.808Z</time>
      </trkpt>
      <trkpt lat="45.87384" lon="5.69364">
        <ele>256.523497</ele>
        <time>2021-04-30T22:09:15.186Z</time>
      </trkpt>
      <trkpt lat="45.8738" lon="5.69373">
        <ele>256.464745</ele>
        <time>2021-04-30T22:09:16.987Z</time>
      </trkpt>
      <trkpt lat="45.87368" lon="5.69394">
        <ele>256.30269</ele>
        <time>2021-04-30T22:09:22.408Z</time>
      </trkpt>
      <trkpt lat="45.87359" lon="5.69404">
        <ele>256.206017</ele>
        <time>2021-04-30T22:09:26.002Z</time>
      </trkpt>
      <trkpt lat="45.87356" lon="5.69406">
        <ele>256.17626</ele>
        <time>2021-04-30T22:09:27.021Z</time>
      </trkpt>
      <trkpt lat="45.87341" lon="5.69413">
        <ele>256.045818</ele>
        <time>2021-04-30T22:09:31.637Z</time>
      </trkpt>
      <trkpt lat="45.8734" lon="5.69433">
        <ele>255.958236</ele>
        <time>2021-04-30T22:09:36.231Z</time>
      </trkpt>
      <trkpt lat="45.87337" lon="5.69445">
        <ele>255.958916</ele>
        <time>2021-04-30T22:09:38.759Z</time>
      </trkpt>
      <trkpt lat="45.87335" lon="5.69463">
        <ele>255.959969</ele>
        <time>2021-04-30T22:09:42.639Z</time>
      </trkpt>
      <trkpt lat="45.87325" lon="5.69546">
        <ele>255.964761</ele>
        <time>2021-04-30T22:09:59.765Z</time>
      </trkpt>
      <trkpt lat="45.87324" lon="5.69552">
        <ele>255.965094</ele>
        <time>2021-04-30T22:10:00.872Z</time>
      </trkpt>
      <trkpt lat="45.87323" lon="5.69572">
        <ele>255.966256</ele>
        <time>2021-04-30T22:10:04.576Z</time>
      </trkpt>
      <trkpt lat="45.87321" lon="5.69585">
        <ele>255.966977</ele>
        <time>2021-04-30T22:10:06.883Z</time>
      </trkpt>
      <trkpt lat="45.8732" lon="5.69593">
        <ele>255.967423</ele>
        <time>2021-04-30T22:10:08.133Z</time>
      </trkpt>
      <trkpt lat="45.87316" lon="5.69648">
        <ele>255.970545</ele>
        <time>2021-04-30T22:10:17.580Z</time>
      </trkpt>
      <trkpt lat="45.87311" lon="5.6971">
        <ele>255.89272</ele>
        <time>2021-04-30T22:10:28.230Z</time>
      </trkpt>
      <trkpt lat="45.87312" lon="5.69739">
        <ele>255.806943</ele>
        <time>2021-04-30T22:10:33.228Z</time>
      </trkpt>
      <trkpt lat="45.87313" lon="5.69746">
        <ele>255.786173</ele>
        <time>2021-04-30T22:10:34.337Z</time>
      </trkpt>
      <trkpt lat="45.87319" lon="5.69805">
        <ele>255.608526</ele>
        <time>2021-04-30T22:10:44.754Z</time>
      </trkpt>
      <trkpt lat="45.87327" lon="5.69866">
        <ele>255.426386</ele>
        <time>2021-04-30T22:10:55.336Z</time>
      </trkpt>
      <trkpt lat="45.8733" lon="5.6988">
        <ele>255.382202</ele>
        <time>2021-04-30T22:10:57.937Z</time>
      </trkpt>
      <trkpt lat="45.87333" lon="5.69889">
        <ele>255.35211</ele>
        <time>2021-04-30T22:10:59.703Z</time>
      </trkpt>
      <trkpt lat="45.8734" lon="5.69928">
        <ele>255.233476</ele>
        <time>2021-04-30T22:11:06.801Z</time>
      </trkpt>
      <trkpt lat="45.87342" lon="5.69942">
        <ele>255.21409</ele>
        <time>2021-04-30T22:11:09.245Z</time>
      </trkpt>
      <trkpt lat="45.87345" lon="5.69984">
        <ele>255.242725</ele>
        <time>2021-04-30T22:11:17.154Z</time>
      </trkpt>
      <trkpt lat="45.87344" lon="5.70008">
        <ele>255.259407</ele>
        <time>2021-04-30T22:11:21.914Z</time>
      </trkpt>
      <trkpt lat="45.8734" lon="5.70032">
        <ele>255.275811</ele>
        <time>2021-04-30T22:11:26.593Z</time>
      </trkpt>
      <trkpt lat="45.87331" lon="5.70073">
        <ele>255.304982</ele>
        <time>2021-04-30T22:11:35.078Z</time>
      </trkpt>
      <trkpt lat="45.87297" lon="5.70211">
        <ele>255.155818</ele>
        <time>2021-04-30T22:12:03.417Z</time>
      </trkpt>
      <trkpt lat="45.87286" lon="5.70297">
        <ele>254.434426</ele>
        <time>2021-04-30T22:12:18.718Z</time>
      </trkpt>
      <trkpt lat="45.87289" lon="5.70328">
        <ele>254.183117</ele>
        <time>2021-04-30T22:12:23.408Z</time>
      </trkpt>
      <trkpt lat="45.87297" lon="5.70394">
        <ele>253.633271</ele>
        <time>2021-04-30T22:12:33.377Z</time>
      </trkpt>
      <trkpt lat="45.87306" lon="5.70448">
        <ele>253.111015</ele>
        <time>2021-04-30T22:12:41.462Z</time>
      </trkpt>
      <trkpt lat="45.87308" lon="5.70502">
        <ele>252.324906</ele>
        <time>2021-04-30T22:12:49.204Z</time>
      </trkpt>
      <trkpt lat="45.87307" lon="5.70507">
        <ele>252.256426</ele>
        <time>2021-04-30T22:12:49.792Z</time>
      </trkpt>
      <trkpt lat="45.87292" lon="5.70551">
        <ele>251.539021</ele>
        <time>2021-04-30T22:12:56.846Z</time>
      </trkpt>
      <trkpt lat="45.87274" lon="5.70595">
        <ele>250.803251</ele>
        <time>2021-04-30T22:13:04.244Z</time>
      </trkpt>
      <trkpt lat="45.87254" lon="5.70643">
        <ele>250.00096</ele>
        <time>2021-04-30T22:13:12.554Z</time>
      </trkpt>
      <trkpt lat="45.87251" lon="5.70651">
        <ele>249.873075</ele>
        <time>2021-04-30T22:13:14.059Z</time>
      </trkpt>
      <trkpt lat="45.87217" lon="5.7072">
        <ele>249.065337</ele>
        <time>2021-04-30T22:13:27.105Z</time>
      </trkpt>
      <trkpt lat="45.87212" lon="5.70732">
        <ele>248.955499</ele>
        <time>2021-04-30T22:13:29.748Z</time>
      </trkpt>
      <trkpt lat="45.87176" lon="5.70806">
        <ele>248.272371</ele>
        <time>2021-04-30T22:13:44.335Z</time>
      </trkpt>
      <trkpt lat="45.87157" lon="5.70846">
        <ele>247.909911</ele>
        <time>2021-04-30T22:13:52.259Z</time>
      </trkpt>
      <trkpt lat="45.87154" lon="5.70854">
        <ele>247.835906</ele>
        <time>2021-04-30T22:13:54.031Z</time>
      </trkpt>
      <trkpt lat="45.87151" lon="5.70859">
        <ele>247.792397</ele>
        <time>2021-04-30T22:13:55.137Z</time>
      </trkpt>
      <trkpt lat="45.87146" lon="5.70869">
        <ele>247.696053</ele>
        <time>2021-04-30T22:13:57.201Z</time>
      </trkpt>
      <trkpt lat="45.87126" lon="5.70917">
        <ele>247.096588</ele>
        <time>2021-04-30T22:14:06.199Z</time>
      </trkpt>
      <trkpt lat="45.87093" lon="5.71021">
        <ele>245.748802</ele>
        <time>2021-04-30T22:14:23.198Z</time>
      </trkpt>
      <trkpt lat="45.8708" lon="5.71099">
        <ele>244.793468</ele>
        <time>2021-04-30T22:14:34.865Z</time>
      </trkpt>
      <trkpt lat="45.87079" lon="5.71112">
        <ele>244.638703</ele>
        <time>2021-04-30T22:14:36.640Z</time>
      </trkpt>
      <trkpt lat="45.87078" lon="5.71127">
        <ele>244.478568</ele>
        <time>2021-04-30T22:14:39.088Z</time>
      </trkpt>
      <trkpt lat="45.87076" lon="5.71157">
        <ele>244.289199</ele>
        <time>2021-04-30T22:14:43.610Z</time>
      </trkpt>
      <trkpt lat="45.87077" lon="5.71305">
        <ele>243.350937</ele>
        <time>2021-04-30T22:15:07.132Z</time>
      </trkpt>
      <trkpt lat="45.87076" lon="5.7135">
        <ele>243.07036</ele>
        <time>2021-04-30T22:15:14.405Z</time>
      </trkpt>
      <trkpt lat="45.87074" lon="5.71378">
        <ele>242.888093</ele>
        <time>2021-04-30T22:15:20.198Z</time>
      </trkpt>
      <trkpt lat="45.87067" lon="5.71413">
        <ele>243.115288</ele>
        <time>2021-04-30T22:15:27.910Z</time>
      </trkpt>
      <trkpt lat="45.87057" lon="5.7145">
        <ele>243.412956</ele>
        <time>2021-04-30T22:15:36.990Z</time>
      </trkpt>
      <trkpt lat="45.87046" lon="5.71486">
        <ele>243.709958</ele>
        <time>2021-04-30T22:15:46.307Z</time>
      </trkpt>
      <trkpt lat="45.87028" lon="5.71543">
        <ele>244.173841</ele>
        <time>2021-04-30T22:16:00.534Z</time>
      </trkpt>
      <trkpt lat="45.87013" lon="5.71592">
        <ele>244.571742</ele>
        <time>2021-04-30T22:16:12.533Z</time>
      </trkpt>
      <trkpt lat="45.87002" lon="5.71625">
        <ele>244.836884</ele>
        <time>2021-04-30T22:16:21.096Z</time>
      </trkpt>
      <trkpt lat="45.86999" lon="5.71635">
        <ele>244.914846</ele>
        <time>2021-04-30T22:16:23.549Z</time>
      </trkpt>
      <trkpt lat="45.86985" lon="5.71679">
        <ele>245.249454</ele>
        <time>2021-04-30T22:16:35.031Z</time>
      </trkpt>
      <trkpt lat="45.86966" lon="5.71733">
        <ele>245.657325</ele>
        <time>2021-04-30T22:16:49.377Z</time>
      </trkpt>
      <trkpt lat="45.86941" lon="5.71788">
        <ele>246.111995</ele>
        <time>2021-04-30T22:17:04.976Z</time>
      </trkpt>
      <trkpt lat="45.86942" lon="5.71808">
        <ele>246.252061</ele>
        <time>2021-04-30T22:17:09.568Z</time>
      </trkpt>
      <trkpt lat="45.86926" lon="5.7185">
        <ele>246.540785</ele>
        <time>2021-04-30T22:17:18.194Z</time>
      </trkpt>
      <trkpt lat="45.8691" lon="5.71863">
        <ele>246.249506</ele>
        <time>2021-04-30T22:17:22.503Z</time>
      </trkpt>
      <trkpt lat="45.86915" lon="5.71884">
        <ele>246.020463</ele>
        <time>2021-04-30T22:17:26.608Z</time>
      </trkpt>
      <trkpt lat="45.86914" lon="5.71899">
        <ele>245.857438</ele>
        <time>2021-04-30T22:17:28.790Z</time>
      </trkpt>
      <trkpt lat="45.86902" lon="5.71934">
        <ele>245.428496</ele>
        <time>2021-04-30T22:17:34.988Z</time>
      </trkpt>
      <trkpt lat="45.86883" lon="5.71969">
        <ele>244.957863</ele>
        <time>2021-04-30T22:17:41.495Z</time>
      </trkpt>
      <trkpt lat="45.86881" lon="5.71976">
        <ele>244.874432</ele>
        <time>2021-04-30T22:17:42.779Z</time>
      </trkpt>
      <trkpt lat="45.86868" lon="5.71986">
        <ele>244.644073</ele>
        <time>2021-04-30T22:17:45.909Z</time>
      </trkpt>
      <trkpt lat="45.86824" lon="5.72031">
        <ele>243.819206</ele>
        <time>2021-04-30T22:17:57.767Z</time>
      </trkpt>
      <trkpt lat="45.86811" lon="5.72039">
        <ele>243.560443</ele>
        <time>2021-04-30T22:18:00.662Z</time>
      </trkpt>
      <trkpt lat="45.86795" lon="5.72051">
        <ele>243.212828</ele>
        <time>2021-04-30T22:18:04.513Z</time>
      </trkpt>
      <trkpt lat="45.86771" lon="5.7208">
        <ele>242.614742</ele>
        <time>2021-04-30T22:18:11.045Z</time>
      </trkpt>
      <trkpt lat="45.86721" lon="5.72108">
        <ele>241.581188</ele>
        <time>2021-04-30T22:18:22.669Z</time>
      </trkpt>
      <trkpt lat="45.86638" lon="5.72174">
        <ele>240.285857</ele>
        <time>2021-04-30T22:18:45.500Z</time>
      </trkpt>
      <trkpt lat="45.86627" lon="5.7218">
        <ele>240.262423</ele>
        <time>2021-04-30T22:18:48.775Z</time>
      </trkpt>
      <trkpt lat="45.86623" lon="5.72199">
        <ele>240.234459</ele>
        <time>2021-04-30T22:18:52.736Z</time>
      </trkpt>
      <trkpt lat="45.86624" lon="5.72262">
        <ele>240.146811</ele>
        <time>2021-04-30T22:19:04.766Z</time>
      </trkpt>
      <trkpt lat="45.86623" lon="5.72274">
        <ele>240.129099</ele>
        <time>2021-04-30T22:19:07.421Z</time>
      </trkpt>
      <trkpt lat="45.86601" lon="5.72297">
        <ele>240.073214</ele>
        <time>2021-04-30T22:19:14.902Z</time>
      </trkpt>
      <trkpt lat="45.86562" lon="5.72358">
        <ele>239.909042</ele>
        <time>2021-04-30T22:19:32.056Z</time>
      </trkpt>
      <trkpt lat="45.86554" lon="5.72388">
        <ele>239.780079</ele>
        <time>2021-04-30T22:19:38.796Z</time>
      </trkpt>
      <trkpt lat="45.86548" lon="5.72415">
        <ele>239.666324</ele>
        <time>2021-04-30T22:19:43.684Z</time>
      </trkpt>
      <trkpt lat="45.86542" lon="5.72441">
        <ele>239.558951</ele>
        <time>2021-04-30T22:19:48.449Z</time>
      </trkpt>
      <trkpt lat="45.86529" lon="5.7247">
        <ele>239.4246</ele>
        <time>2021-04-30T22:19:54.243Z</time>
      </trkpt>
      <trkpt lat="45.86521" lon="5.72487">
        <ele>239.341726</ele>
        <time>2021-04-30T22:19:57.800Z</time>
      </trkpt>
      <trkpt lat="45.86515" lon="5.725">
        <ele>239.279036</ele>
        <time>2021-04-30T22:20:00.441Z</time>
      </trkpt>
      <trkpt lat="45.86512" lon="5.72508">
        <ele>239.244021</ele>
        <time>2021-04-30T22:20:02.111Z</time>
      </trkpt>
      <trkpt lat="45.86496" lon="5.72545">
        <ele>239.069998</ele>
        <time>2021-04-30T22:20:09.615Z</time>
      </trkpt>
      <trkpt lat="45.86484" lon="5.72567">
        <ele>238.960232</ele>
        <time>2021-04-30T22:20:14.434Z</time>
      </trkpt>
      <trkpt lat="45.86471" lon="5.72583">
        <ele>238.806766</ele>
        <time>2021-04-30T22:20:18.657Z</time>
      </trkpt>
      <trkpt lat="45.86459" lon="5.72605">
        <ele>238.639595</ele>
        <time>2021-04-30T22:20:23.347Z</time>
      </trkpt>
      <trkpt lat="45.8642" lon="5.72672">
        <ele>238.110295</ele>
        <time>2021-04-30T22:20:37.983Z</time>
      </trkpt>
      <trkpt lat="45.86413" lon="5.72687">
        <ele>238.000375</ele>
        <time>2021-04-30T22:20:40.944Z</time>
      </trkpt>
      <trkpt lat="45.8639" lon="5.7277">
        <ele>237.458145</ele>
        <time>2021-04-30T22:20:55.840Z</time>
      </trkpt>
      <trkpt lat="45.86379" lon="5.72812">
        <ele>237.61697</ele>
        <time>2021-04-30T22:21:04.510Z</time>
      </trkpt>
      <trkpt lat="45.86369" lon="5.72845">
        <ele>237.862274</ele>
        <time>2021-04-30T22:21:12.353Z</time>
      </trkpt>
      <trkpt lat="45.86358" lon="5.72851">
        <ele>237.971429</ele>
        <time>2021-04-30T22:21:15.553Z</time>
      </trkpt>
      <trkpt lat="45.86348" lon="5.72857">
        <ele>238.079845</ele>
        <time>2021-04-30T22:21:19.008Z</time>
      </trkpt>
      <trkpt lat="45.8635" lon="5.72901">
        <ele>238.376937</ele>
        <time>2021-04-30T22:21:27.742Z</time>
      </trkpt>
      <trkpt lat="45.86352" lon="5.72943">
        <ele>238.658782</ele>
        <time>2021-04-30T22:21:37.132Z</time>
      </trkpt>
      <trkpt lat="45.86358" lon="5.7303">
        <ele>239.478872</ele>
        <time>2021-04-30T22:22:00.586Z</time>
      </trkpt>
      <trkpt lat="45.86356" lon="5.73117">
        <ele>241.151383</ele>
        <time>2021-04-30T22:22:25.296Z</time>
      </trkpt>
      <trkpt lat="45.86351" lon="5.73154">
        <ele>241.893957</ele>
        <time>2021-04-30T22:22:36.540Z</time>
      </trkpt>
      <trkpt lat="45.86345" lon="5.73175">
        <ele>242.319035</ele>
        <time>2021-04-30T22:22:43.633Z</time>
      </trkpt>
      <trkpt lat="45.86312" lon="5.73277">
        <ele>244.257572</ele>
        <time>2021-04-30T22:23:15.867Z</time>
      </trkpt>
      <trkpt lat="45.86262" lon="5.73398">
        <ele>245.20596</ele>
        <time>2021-04-30T22:23:46.524Z</time>
      </trkpt>
      <trkpt lat="45.86254" lon="5.73419">
        <ele>245.370426</ele>
        <time>2021-04-30T22:23:51.471Z</time>
      </trkpt>
      <trkpt lat="45.86207" lon="5.73542">
        <ele>245.921287</ele>
        <time>2021-04-30T22:24:17.447Z</time>
      </trkpt>
      <trkpt lat="45.86196" lon="5.73584">
        <ele>245.955346</ele>
        <time>2021-04-30T22:24:25.879Z</time>
      </trkpt>
      <trkpt lat="45.86158" lon="5.73716">
        <ele>246.063842</ele>
        <time>2021-04-30T22:24:51.932Z</time>
      </trkpt>
      <trkpt lat="45.86138" lon="5.73789">
        <ele>246.34698</ele>
        <time>2021-04-30T22:25:09.810Z</time>
      </trkpt>
      <trkpt lat="45.86134" lon="5.73803">
        <ele>246.403671</ele>
        <time>2021-04-30T22:25:12.829Z</time>
      </trkpt>
      <trkpt lat="45.86132" lon="5.7381">
        <ele>246.430938</ele>
        <time>2021-04-30T22:25:14.238Z</time>
      </trkpt>
      <trkpt lat="45.86099" lon="5.73918">
        <ele>246.878521</ele>
        <time>2021-04-30T22:25:38.774Z</time>
      </trkpt>
      <trkpt lat="45.86031" lon="5.74058">
        <ele>248.278212</ele>
        <time>2021-04-30T22:26:12.126Z</time>
      </trkpt>
      <trkpt lat="45.85983" lon="5.7411">
        <ele>249.111072</ele>
        <time>2021-04-30T22:26:33.854Z</time>
      </trkpt>
      <trkpt lat="45.85933" lon="5.74145">
        <ele>250.322948</ele>
        <time>2021-04-30T22:26:55.818Z</time>
      </trkpt>
      <trkpt lat="45.8593" lon="5.74148">
        <ele>250.446616</ele>
        <time>2021-04-30T22:26:57.458Z</time>
      </trkpt>
      <trkpt lat="45.85924" lon="5.74162">
        <ele>250.821545</ele>
        <time>2021-04-30T22:27:03.317Z</time>
      </trkpt>
      <trkpt lat="45.859" lon="5.74207">
        <ele>252.091359</ele>
        <time>2021-04-30T22:27:20.789Z</time>
      </trkpt>
      <trkpt lat="45.85884" lon="5.74235">
        <ele>252.890826</ele>
        <time>2021-04-30T22:27:31.800Z</time>
      </trkpt>
      <trkpt lat="45.85862" lon="5.74281">
        <ele>254.145782</ele>
        <time>2021-04-30T22:27:49.315Z</time>
      </trkpt>
      <trkpt lat="45.85835" lon="5.74325">
        <ele>255.389365</ele>
        <time>2021-04-30T22:28:07.681Z</time>
      </trkpt>
      <trkpt lat="45.85821" lon="5.74336">
        <ele>255.616173</ele>
        <time>2021-04-30T22:28:13.994Z</time>
      </trkpt>
      <trkpt lat="45.85812" lon="5.74352">
        <ele>255.822063</ele>
        <time>2021-04-30T22:28:19.726Z</time>
      </trkpt>
      <trkpt lat="45.85788" lon="5.744">
        <ele>256.431101</ele>
        <time>2021-04-30T22:28:35.396Z</time>
      </trkpt>
      <trkpt lat="45.85786" lon="5.74403">
        <ele>256.461129</ele>
        <time>2021-04-30T22:28:36.026Z</time>
      </trkpt>
      <trkpt lat="45.8577" lon="5.74446">
        <ele>256.96828</ele>
        <time>2021-04-30T22:28:47.398Z</time>
      </trkpt>
      <trkpt lat="45.85762" lon="5.74469">
        <ele>257.222102</ele>
        <time>2021-04-30T22:28:52.765Z</time>
      </trkpt>
      <trkpt lat="45.85758" lon="5.74486">
        <ele>257.405914</ele>
        <time>2021-04-30T22:28:56.699Z</time>
      </trkpt>
      <trkpt lat="45.85755" lon="5.74511">
        <ele>257.666265</ele>
        <time>2021-04-30T22:29:01.902Z</time>
      </trkpt>
      <trkpt lat="45.85754" lon="5.74522">
        <ele>257.781226</ele>
        <time>2021-04-30T22:29:04.113Z</time>
      </trkpt>
      <trkpt lat="45.85741" lon="5.74577">
        <ele>258.214441</ele>
        <time>2021-04-30T22:29:15.487Z</time>
      </trkpt>
      <trkpt lat="45.85735" lon="5.74602">
        <ele>258.385436</ele>
        <time>2021-04-30T22:29:20.834Z</time>
      </trkpt>
      <trkpt lat="45.85699" lon="5.7469">
        <ele>259.035235</ele>
        <time>2021-04-30T22:29:43.375Z</time>
      </trkpt>
      <trkpt lat="45.85692" lon="5.74702">
        <ele>259.137847</ele>
        <time>2021-04-30T22:29:47.135Z</time>
      </trkpt>
      <trkpt lat="45.8567" lon="5.74726">
        <ele>259.391977</ele>
        <time>2021-04-30T22:29:56.783Z</time>
      </trkpt>
      <trkpt lat="45.85636" lon="5.74741">
        <ele>259.668413</ele>
        <time>2021-04-30T22:30:09.895Z</time>
      </trkpt>
      <trkpt lat="45.85627" lon="5.74739">
        <ele>259.714676</ele>
        <time>2021-04-30T22:30:13.235Z</time>
      </trkpt>
      <trkpt lat="45.85617" lon="5.74755">
        <ele>259.793437</ele>
        <time>2021-04-30T22:30:18.804Z</time>
      </trkpt>
      <trkpt lat="45.85604" lon="5.74768">
        <ele>259.873578</ele>
        <time>2021-04-30T22:30:23.892Z</time>
      </trkpt>
      <trkpt lat="45.85581" lon="5.74793">
        <ele>260.025614</ele>
        <time>2021-04-30T22:30:33.502Z</time>
      </trkpt>
      <trkpt lat="45.85552" lon="5.7484">
        <ele>260.252326</ele>
        <time>2021-04-30T22:30:46.394Z</time>
      </trkpt>
      <trkpt lat="45.85545" lon="5.74856">
        <ele>260.322842</ele>
        <time>2021-04-30T22:30:50.916Z</time>
      </trkpt>
      <trkpt lat="45.85516" lon="5.74911">
        <ele>260.317744</ele>
        <time>2021-04-30T22:31:02.096Z</time>
      </trkpt>
      <trkpt lat="45.85507" lon="5.7493">
        <ele>259.735999</ele>
        <time>2021-04-30T22:31:05.235Z</time>
      </trkpt>
      <trkpt lat="45.85502" lon="5.74942">
        <ele>259.355493</ele>
        <time>2021-04-30T22:31:07.818Z</time>
      </trkpt>
      <trkpt lat="45.85498" lon="5.74954">
        <ele>259.034402</ele>
        <time>2021-04-30T22:31:09.767Z</time>
      </trkpt>
      <trkpt lat="45.85495" lon="5.74959">
        <ele>258.866344</ele>
        <time>2021-04-30T22:31:10.568Z</time>
      </trkpt>
      <trkpt lat="45.85481" lon="5.74978">
        <ele>258.159469</ele>
        <time>2021-04-30T22:31:14.558Z</time>
      </trkpt>
      <trkpt lat="45.85445" lon="5.75034">
        <ele>256.205646</ele>
        <time>2021-04-30T22:31:24.460Z</time>
      </trkpt>
      <trkpt lat="45.85442" lon="5.75039">
        <ele>256.033059</ele>
        <time>2021-04-30T22:31:25.243Z</time>
      </trkpt>
      <trkpt lat="45.85401" lon="5.75095">
        <ele>253.956648</ele>
        <time>2021-04-30T22:31:35.599Z</time>
      </trkpt>
      <trkpt lat="45.85378" lon="5.75128">
        <ele>252.35315</ele>
        <time>2021-04-30T22:31:41.308Z</time>
      </trkpt>
      <trkpt lat="45.85359" lon="5.75158">
        <ele>250.937716</ele>
        <time>2021-04-30T22:31:46.326Z</time>
      </trkpt>
      <trkpt lat="45.85335" lon="5.75202">
        <ele>248.981611</ele>
        <time>2021-04-30T22:31:53.420Z</time>
      </trkpt>
      <trkpt lat="45.85316" lon="5.75248">
        <ele>247.12999</ele>
        <time>2021-04-30T22:32:00.260Z</time>
      </trkpt>
      <trkpt lat="45.85291" lon="5.75331">
        <ele>244.325606</ele>
        <time>2021-04-30T22:32:11.822Z</time>
      </trkpt>
      <trkpt lat="45.85277" lon="5.75398">
        <ele>242.727573</ele>
        <time>2021-04-30T22:32:21.145Z</time>
      </trkpt>
      <trkpt lat="45.85264" lon="5.75453">
        <ele>241.392477</ele>
        <time>2021-04-30T22:32:29.080Z</time>
      </trkpt>
      <trkpt lat="45.85251" lon="5.7553">
        <ele>239.570343</ele>
        <time>2021-04-30T22:32:40.171Z</time>
      </trkpt>
      <trkpt lat="45.85241" lon="5.7561">
        <ele>238.341713</ele>
        <time>2021-04-30T22:32:51.824Z</time>
      </trkpt>
      <trkpt lat="45.85217" lon="5.75824">
        <ele>235.93345</ele>
        <time>2021-04-30T22:33:24.988Z</time>
      </trkpt>
      <trkpt lat="45.85208" lon="5.75881">
        <ele>236.004636</ele>
        <time>2021-04-30T22:33:34.780Z</time>
      </trkpt>
      <trkpt lat="45.85193" lon="5.75936">
        <ele>236.077829</ele>
        <time>2021-04-30T22:33:45.861Z</time>
      </trkpt>
      <trkpt lat="45.8518" lon="5.75967">
        <ele>236.122173</ele>
        <time>2021-04-30T22:33:53.124Z</time>
      </trkpt>
      <trkpt lat="45.85176" lon="5.75978">
        <ele>236.137139</ele>
        <time>2021-04-30T22:33:55.868Z</time>
      </trkpt>
      <trkpt lat="45.85136" lon="5.7605">
        <ele>236.367244</ele>
        <time>2021-04-30T22:34:16.719Z</time>
      </trkpt>
      <trkpt lat="45.85092" lon="5.7613">
        <ele>237.217</ele>
        <time>2021-04-30T22:34:41.252Z</time>
      </trkpt>
      <trkpt lat="45.85055" lon="5.76205">
        <ele>237.983741</ele>
        <time>2021-04-30T22:35:03.715Z</time>
      </trkpt>
      <trkpt lat="45.84916" lon="5.76516">
        <ele>237.700887</ele>
        <time>2021-04-30T22:36:11.430Z</time>
      </trkpt>
      <trkpt lat="45.84812" lon="5.76747">
        <ele>235.887562</ele>
        <time>2021-04-30T22:36:52.785Z</time>
      </trkpt>
      <trkpt lat="45.84796" lon="5.76796">
        <ele>235.816033</ele>
        <time>2021-04-30T22:37:02.007Z</time>
      </trkpt>
      <trkpt lat="45.84783" lon="5.76843">
        <ele>235.750848</ele>
        <time>2021-04-30T22:37:11.348Z</time>
      </trkpt>
      <trkpt lat="45.84778" lon="5.76841">
        <ele>235.740478</ele>
        <time>2021-04-30T22:37:12.973Z</time>
      </trkpt>
      <trkpt lat="45.84767" lon="5.76845">
        <ele>235.720002</ele>
        <time>2021-04-30T22:37:16.249Z</time>
      </trkpt>
      <trkpt lat="45.84763" lon="5.76851">
        <ele>235.709672</ele>
        <time>2021-04-30T22:37:17.806Z</time>
      </trkpt>
      <trkpt lat="45.84761" lon="5.76857">
        <ele>235.700457</ele>
        <time>2021-04-30T22:37:19.211Z</time>
      </trkpt>
      <trkpt lat="45.84762" lon="5.76877">
        <ele>235.673825</ele>
        <time>2021-04-30T22:37:23.564Z</time>
      </trkpt>
      <trkpt lat="45.84765" lon="5.76883">
        <ele>235.664633</ele>
        <time>2021-04-30T22:37:25.431Z</time>
      </trkpt>
      <trkpt lat="45.8477" lon="5.76887">
        <ele>235.6995</ele>
        <time>2021-04-30T22:37:27.415Z</time>
      </trkpt>
      <trkpt lat="45.84781" lon="5.76888">
        <ele>236.272087</ele>
        <time>2021-04-30T22:37:31.233Z</time>
      </trkpt>
      <trkpt lat="45.84786" lon="5.76885">
        <ele>236.558817</ele>
        <time>2021-04-30T22:37:33.095Z</time>
      </trkpt>
      <trkpt lat="45.848" lon="5.76927">
        <ele>238.245719</ele>
        <time>2021-04-30T22:37:46.557Z</time>
      </trkpt>
      <trkpt lat="45.84806" lon="5.76965">
        <ele>239.675697</ele>
        <time>2021-04-30T22:37:59.511Z</time>
      </trkpt>
      <trkpt lat="45.84809" lon="5.76987">
        <ele>240.503878</ele>
        <time>2021-04-30T22:38:07.151Z</time>
      </trkpt>
      <trkpt lat="45.84817" lon="5.7704">
        <ele>242.482406</ele>
        <time>2021-04-30T22:38:28.633Z</time>
      </trkpt>
      <trkpt lat="45.84874" lon="5.77422">
        <ele>261.656459</ele>
        <time>2021-04-30T22:41:33.725Z</time>
      </trkpt>
      <trkpt lat="45.84883" lon="5.77483">
        <ele>263.181944</ele>
        <time>2021-04-30T22:41:54.214Z</time>
      </trkpt>
      <trkpt lat="45.84885" lon="5.77513">
        <ele>263.932329</ele>
        <time>2021-04-30T22:42:02.384Z</time>
      </trkpt>
      <trkpt lat="45.84882" lon="5.77541">
        <ele>264.626783</ele>
        <time>2021-04-30T22:42:09.889Z</time>
      </trkpt>
      <trkpt lat="45.84876" lon="5.77589">
        <ele>265.805601</ele>
        <time>2021-04-30T22:42:19.714Z</time>
      </trkpt>
      <trkpt lat="45.84868" lon="5.77643">
        <ele>265.801913</ele>
        <time>2021-04-30T22:42:29.116Z</time>
      </trkpt>
      <trkpt lat="45.84866" lon="5.77664">
        <ele>265.260796</ele>
        <time>2021-04-30T22:42:32.177Z</time>
      </trkpt>
      <trkpt lat="45.84863" lon="5.77686">
        <ele>264.708036</ele>
        <time>2021-04-30T22:42:35.514Z</time>
      </trkpt>
      <trkpt lat="45.84861" lon="5.77705">
        <ele>264.231522</ele>
        <time>2021-04-30T22:42:38.238Z</time>
      </trkpt>
      <trkpt lat="45.84851" lon="5.77782">
        <ele>262.279963</ele>
        <time>2021-04-30T22:42:48.514Z</time>
      </trkpt>
      <trkpt lat="45.84831" lon="5.77948">
        <ele>256.952689</ele>
        <time>2021-04-30T22:43:09.354Z</time>
      </trkpt>
      <trkpt lat="45.84828" lon="5.77971">
        <ele>256.02838</ele>
        <time>2021-04-30T22:43:12.240Z</time>
      </trkpt>
      <trkpt lat="45.84827" lon="5.7798">
        <ele>255.6826</ele>
        <time>2021-04-30T22:43:13.375Z</time>
      </trkpt>
      <trkpt lat="45.84825" lon="5.77998">
        <ele>254.967775</ele>
        <time>2021-04-30T22:43:15.653Z</time>
      </trkpt>
      <trkpt lat="45.84824" lon="5.78005">
        <ele>254.673198</ele>
        <time>2021-04-30T22:43:16.615Z</time>
      </trkpt>
      <trkpt lat="45.8482" lon="5.78026">
        <ele>253.826448</ele>
        <time>2021-04-30T22:43:19.250Z</time>
      </trkpt>
      <trkpt lat="45.84816" lon="5.78043">
        <ele>253.118573</ele>
        <time>2021-04-30T22:43:21.513Z</time>
      </trkpt>
      <trkpt lat="45.84808" lon="5.78072">
        <ele>251.902703</ele>
        <time>2021-04-30T22:43:25.359Z</time>
      </trkpt>
      <trkpt lat="45.84807" lon="5.78079">
        <ele>251.585627</ele>
        <time>2021-04-30T22:43:26.422Z</time>
      </trkpt>
      <trkpt lat="45.84806" lon="5.78087">
        <ele>251.272575</ele>
        <time>2021-04-30T22:43:27.389Z</time>
      </trkpt>
      <trkpt lat="45.84813" lon="5.78107">
        <ele>250.401843</ele>
        <time>2021-04-30T22:43:30.228Z</time>
      </trkpt>
      <trkpt lat="45.84813" lon="5.78114">
        <ele>250.142476</ele>
        <time>2021-04-30T22:43:31.004Z</time>
      </trkpt>
      <trkpt lat="45.84808" lon="5.78159">
        <ele>248.742561</ele>
        <time>2021-04-30T22:43:36.768Z</time>
      </trkpt>
      <trkpt lat="45.84808" lon="5.78166">
        <ele>248.550043</ele>
        <time>2021-04-30T22:43:37.529Z</time>
      </trkpt>
      <trkpt lat="45.84807" lon="5.7817">
        <ele>248.417258</ele>
        <time>2021-04-30T22:43:38.076Z</time>
      </trkpt>
      <trkpt lat="45.84799" lon="5.78241">
        <ele>246.300488</ele>
        <time>2021-04-30T22:43:47.175Z</time>
      </trkpt>
      <trkpt lat="45.84792" lon="5.78311">
        <ele>244.253727</ele>
        <time>2021-04-30T22:43:56.663Z</time>
      </trkpt>
      <trkpt lat="45.8479" lon="5.78328">
        <ele>243.733638</ele>
        <time>2021-04-30T22:43:58.975Z</time>
      </trkpt>
      <trkpt lat="45.84787" lon="5.78361">
        <ele>242.753166</ele>
        <time>2021-04-30T22:44:03.897Z</time>
      </trkpt>
      <trkpt lat="45.84779" lon="5.78435">
        <ele>241.465156</ele>
        <time>2021-04-30T22:44:14.257Z</time>
      </trkpt>
      <trkpt lat="45.84771" lon="5.78513">
        <ele>240.307117</ele>
        <time>2021-04-30T22:44:25.708Z</time>
      </trkpt>
      <trkpt lat="45.84773" lon="5.78587">
        <ele>239.229115</ele>
        <time>2021-04-30T22:44:36.718Z</time>
      </trkpt>
      <trkpt lat="45.84778" lon="5.78618">
        <ele>238.764023</ele>
        <time>2021-04-30T22:44:41.373Z</time>
      </trkpt>
      <trkpt lat="45.84781" lon="5.78639">
        <ele>238.540403</ele>
        <time>2021-04-30T22:44:44.876Z</time>
      </trkpt>
      <trkpt lat="45.8479" lon="5.78689">
        <ele>238.349109</ele>
        <time>2021-04-30T22:44:53.198Z</time>
      </trkpt>
      <trkpt lat="45.84798" lon="5.78733">
        <ele>238.178311</ele>
        <time>2021-04-30T22:45:00.753Z</time>
      </trkpt>
      <trkpt lat="45.84801" lon="5.78754">
        <ele>238.099907</ele>
        <time>2021-04-30T22:45:04.210Z</time>
      </trkpt>
      <trkpt lat="45.84805" lon="5.78774">
        <ele>238.022582</ele>
        <time>2021-04-30T22:45:07.758Z</time>
      </trkpt>
      <trkpt lat="45.84814" lon="5.7883">
        <ele>237.808237</ele>
        <time>2021-04-30T22:45:18.291Z</time>
      </trkpt>
      <trkpt lat="45.84838" lon="5.78962">
        <ele>237.877197</ele>
        <time>2021-04-30T22:45:45.334Z</time>
      </trkpt>
      <trkpt lat="45.84843" lon="5.78986">
        <ele>237.954941</ele>
        <time>2021-04-30T22:45:50.354Z</time>
      </trkpt>
      <trkpt lat="45.84862" lon="5.79096">
        <ele>238.312725</ele>
        <time>2021-04-30T22:46:13.688Z</time>
      </trkpt>
      <trkpt lat="45.84873" lon="5.79159">
        <ele>238.407031</ele>
        <time>2021-04-30T22:46:27.251Z</time>
      </trkpt>
      <trkpt lat="45.84879" lon="5.79195">
        <ele>238.379125</ele>
        <time>2021-04-30T22:46:34.753Z</time>
      </trkpt>
      <trkpt lat="45.84891" lon="5.79224">
        <ele>238.354864</ele>
        <time>2021-04-30T22:46:41.016Z</time>
      </trkpt>
      <trkpt lat="45.84894" lon="5.79228">
        <ele>238.350812</ele>
        <time>2021-04-30T22:46:42.013Z</time>
      </trkpt>
      <trkpt lat="45.84907" lon="5.79247">
        <ele>238.330731</ele>
        <time>2021-04-30T22:46:47.030Z</time>
      </trkpt>
      <trkpt lat="45.84927" lon="5.79268">
        <ele>238.304803</ele>
        <time>2021-04-30T22:46:53.319Z</time>
      </trkpt>
      <trkpt lat="45.84954" lon="5.79287">
        <ele>238.272767</ele>
        <time>2021-04-30T22:47:00.826Z</time>
      </trkpt>
      <trkpt lat="45.85003" lon="5.7932">
        <ele>238.083135</ele>
        <time>2021-04-30T22:47:13.892Z</time>
      </trkpt>
      <trkpt lat="45.85075" lon="5.7938">
        <ele>237.481971</ele>
        <time>2021-04-30T22:47:33.597Z</time>
      </trkpt>
      <trkpt lat="45.8511" lon="5.79421">
        <ele>237.153773</ele>
        <time>2021-04-30T22:47:43.989Z</time>
      </trkpt>
      <trkpt lat="45.85108" lon="5.79428">
        <ele>237.113929</ele>
        <time>2021-04-30T22:47:45.270Z</time>
      </trkpt>
      <trkpt lat="45.85107" lon="5.79436">
        <ele>237.07416</ele>
        <time>2021-04-30T22:47:46.599Z</time>
      </trkpt>
      <trkpt lat="45.85111" lon="5.7945">
        <ele>236.996067</ele>
        <time>2021-04-30T22:47:49.155Z</time>
      </trkpt>
      <trkpt lat="45.85115" lon="5.79455">
        <ele>236.95781</ele>
        <time>2021-04-30T22:47:50.474Z</time>
      </trkpt>
      <trkpt lat="45.85071" lon="5.79553">
        <ele>236.909339</ele>
        <time>2021-04-30T22:48:10.862Z</time>
      </trkpt>
      <trkpt lat="45.85058" lon="5.79581">
        <ele>236.903427</ele>
        <time>2021-04-30T22:48:17.031Z</time>
      </trkpt>
      <trkpt lat="45.84991" lon="5.79736">
        <ele>237.111762</ele>
        <time>2021-04-30T22:48:53.690Z</time>
      </trkpt>
      <trkpt lat="45.84974" lon="5.79767">
        <ele>237.239581</ele>
        <time>2021-04-30T22:49:01.892Z</time>
      </trkpt>
      <trkpt lat="45.84969" lon="5.79775">
        <ele>237.27507</ele>
        <time>2021-04-30T22:49:04.042Z</time>
      </trkpt>
      <trkpt lat="45.84958" lon="5.79792">
        <ele>237.353929</ele>
        <time>2021-04-30T22:49:08.858Z</time>
      </trkpt>
      <trkpt lat="45.84956" lon="5.79795">
        <ele>237.366003</ele>
        <time>2021-04-30T22:49:09.701Z</time>
      </trkpt>
      <trkpt lat="45.84953" lon="5.79799">
        <ele>237.385981</ele>
        <time>2021-04-30T22:49:11.005Z</time>
      </trkpt>
      <trkpt lat="45.84949" lon="5.79794">
        <ele>237.407866</ele>
        <time>2021-04-30T22:49:12.438Z</time>
      </trkpt>
      <trkpt lat="45.84941" lon="5.79789">
        <ele>237.451039</ele>
        <time>2021-04-30T22:49:14.975Z</time>
      </trkpt>
      <trkpt lat="45.84932" lon="5.79793">
        <ele>237.494042</ele>
        <time>2021-04-30T22:49:17.461Z</time>
      </trkpt>
      <trkpt lat="45.84929" lon="5.79798">
        <ele>237.515793</ele>
        <time>2021-04-30T22:49:18.864Z</time>
      </trkpt>
      <trkpt lat="45.84927" lon="5.79803">
        <ele>237.536742</ele>
        <time>2021-04-30T22:49:20.251Z</time>
      </trkpt>
      <trkpt lat="45.84926" lon="5.79816">
        <ele>237.577958</ele>
        <time>2021-04-30T22:49:22.893Z</time>
      </trkpt>
      <trkpt lat="45.84928" lon="5.79822">
        <ele>237.598685</ele>
        <time>2021-04-30T22:49:24.155Z</time>
      </trkpt>
      <trkpt lat="45.84931" lon="5.79826">
        <ele>237.617943</ele>
        <time>2021-04-30T22:49:25.232Z</time>
      </trkpt>
      <trkpt lat="45.84934" lon="5.7983">
        <ele>237.63735</ele>
        <time>2021-04-30T22:49:26.290Z</time>
      </trkpt>
      <trkpt lat="45.8494" lon="5.79847">
        <ele>237.702281</ele>
        <time>2021-04-30T22:49:30.337Z</time>
      </trkpt>
      <trkpt lat="45.84945" lon="5.79861">
        <ele>237.741556</ele>
        <time>2021-04-30T22:49:33.524Z</time>
      </trkpt>
      <trkpt lat="45.84945" lon="5.79878">
        <ele>237.765739</ele>
        <time>2021-04-30T22:49:36.747Z</time>
      </trkpt>
      <trkpt lat="45.84944" lon="5.79908">
        <ele>237.807043</ele>
        <time>2021-04-30T22:49:42.926Z</time>
      </trkpt>
      <trkpt lat="45.84929" lon="5.80031">
        <ele>237.980677</ele>
        <time>2021-04-30T22:50:07.080Z</time>
      </trkpt>
      <trkpt lat="45.84904" lon="5.80249">
        <ele>238.174553</ele>
        <time>2021-04-30T22:50:48.168Z</time>
      </trkpt>
      <trkpt lat="45.84887" lon="5.80401">
        <ele>238.267055</ele>
        <time>2021-04-30T22:51:18.152Z</time>
      </trkpt>
      <trkpt lat="45.84855" lon="5.80684">
        <ele>238.337168</ele>
        <time>2021-04-30T22:52:12.161Z</time>
      </trkpt>
      <trkpt lat="45.84853" lon="5.80703">
        <ele>238.314573</ele>
        <time>2021-04-30T22:52:15.383Z</time>
      </trkpt>
      <trkpt lat="45.8485" lon="5.80718">
        <ele>238.296706</ele>
        <time>2021-04-30T22:52:18.057Z</time>
      </trkpt>
      <trkpt lat="45.84845" lon="5.80717">
        <ele>238.288333</ele>
        <time>2021-04-30T22:52:19.281Z</time>
      </trkpt>
      <trkpt lat="45.84837" lon="5.80724">
        <ele>238.271703</ele>
        <time>2021-04-30T22:52:21.775Z</time>
      </trkpt>
      <trkpt lat="45.84835" lon="5.8073">
        <ele>238.263305</ele>
        <time>2021-04-30T22:52:23.001Z</time>
      </trkpt>
      <trkpt lat="45.8482" lon="5.80731">
        <ele>238.238649</ele>
        <time>2021-04-30T22:52:26.657Z</time>
      </trkpt>
      <trkpt lat="45.84788" lon="5.8074">
        <ele>238.183984</ele>
        <time>2021-04-30T22:52:34.842Z</time>
      </trkpt>
      <trkpt lat="45.8472" lon="5.80764">
        <ele>238.193735</ele>
        <time>2021-04-30T22:52:53.354Z</time>
      </trkpt>
      <trkpt lat="45.84599" lon="5.80806">
        <ele>238.581997</ele>
        <time>2021-04-30T22:53:28.772Z</time>
      </trkpt>
      <trkpt lat="45.84548" lon="5.80826">
        <ele>238.709751</ele>
        <time>2021-04-30T22:53:44.347Z</time>
      </trkpt>
      <trkpt lat="45.84521" lon="5.80838">
        <ele>238.756086</ele>
        <time>2021-04-30T22:53:53.045Z</time>
      </trkpt>
      <trkpt lat="45.84507" lon="5.80845">
        <ele>238.781404</ele>
        <time>2021-04-30T22:53:57.071Z</time>
      </trkpt>
      <trkpt lat="45.844" lon="5.80926">
        <ele>238.922096</ele>
        <time>2021-04-30T22:54:29.537Z</time>
      </trkpt>
      <trkpt lat="45.84322" lon="5.8096">
        <ele>238.527765</ele>
        <time>2021-04-30T22:54:49.193Z</time>
      </trkpt>
      <trkpt lat="45.84265" lon="5.80969">
        <ele>238.248217</ele>
        <time>2021-04-30T22:55:03.269Z</time>
      </trkpt>
      <trkpt lat="45.84023" lon="5.80955">
        <ele>236.846267</ele>
        <time>2021-04-30T22:56:02.074Z</time>
      </trkpt>
      <trkpt lat="45.83925" lon="5.80978">
        <ele>236.386297</ele>
        <time>2021-04-30T22:56:26.331Z</time>
      </trkpt>
      <trkpt lat="45.8379" lon="5.81039">
        <ele>236.349929</ele>
        <time>2021-04-30T22:57:03.049Z</time>
      </trkpt>
      <trkpt lat="45.83775" lon="5.81043">
        <ele>236.386153</ele>
        <time>2021-04-30T22:57:07.551Z</time>
      </trkpt>
      <trkpt lat="45.83772" lon="5.81086">
        <ele>236.45296</ele>
        <time>2021-04-30T22:57:16.154Z</time>
      </trkpt>
      <trkpt lat="45.83764" lon="5.81336">
        <ele>237.495137</ele>
        <time>2021-04-30T22:58:12.435Z</time>
      </trkpt>
      <trkpt lat="45.83765" lon="5.81341">
        <ele>237.517806</ele>
        <time>2021-04-30T22:58:14.068Z</time>
      </trkpt>
      <trkpt lat="45.83766" lon="5.81391">
        <ele>237.774072</ele>
        <time>2021-04-30T22:58:24.488Z</time>
      </trkpt>
      <trkpt lat="45.83768" lon="5.81466">
        <ele>237.709255</ele>
        <time>2021-04-30T22:58:39.191Z</time>
      </trkpt>
      <trkpt lat="45.83771" lon="5.81537">
        <ele>237.542408</ele>
        <time>2021-04-30T22:59:00.345Z</time>
      </trkpt>
      <trkpt lat="45.83773" lon="5.81597">
        <ele>237.400657</ele>
        <time>2021-04-30T22:59:18.287Z</time>
      </trkpt>
      <trkpt lat="45.83761" lon="5.81651">
        <ele>237.268323</ele>
        <time>2021-04-30T22:59:34.231Z</time>
      </trkpt>
      <trkpt lat="45.83757" lon="5.81793">
        <ele>236.949382</ele>
        <time>2021-04-30T23:00:15.880Z</time>
      </trkpt>
      <trkpt lat="45.83757" lon="5.81954">
        <ele>236.662938</ele>
        <time>2021-04-30T23:01:06.292Z</time>
      </trkpt>
      <trkpt lat="45.83753" lon="5.82132">
        <ele>236.637394</ele>
        <time>2021-04-30T23:02:01.629Z</time>
      </trkpt>
      <trkpt lat="45.83753" lon="5.82214">
        <ele>236.5999</ele>
        <time>2021-04-30T23:02:26.787Z</time>
      </trkpt>
      <trkpt lat="45.83753" lon="5.82225">
        <ele>236.590483</ele>
        <time>2021-04-30T23:02:30.167Z</time>
      </trkpt>
      <trkpt lat="45.8375" lon="5.82374">
        <ele>236.464294</ele>
        <time>2021-04-30T23:03:15.310Z</time>
      </trkpt>
      <trkpt lat="45.83748" lon="5.82565">
        <ele>236.487078</ele>
        <time>2021-04-30T23:04:14.793Z</time>
      </trkpt>
      <trkpt lat="45.83747" lon="5.82626">
        <ele>236.522604</ele>
        <time>2021-04-30T23:04:33.781Z</time>
      </trkpt>
      <trkpt lat="45.83747" lon="5.82636">
        <ele>236.528079</ele>
        <time>2021-04-30T23:04:36.785Z</time>
      </trkpt>
      <trkpt lat="45.83744" lon="5.82807">
        <ele>237.147279</ele>
        <time>2021-04-30T23:05:32.115Z</time>
      </trkpt>
      <trkpt lat="45.83744" lon="5.82818">
        <ele>237.203795</ele>
        <time>2021-04-30T23:05:35.614Z</time>
      </trkpt>
      <trkpt lat="45.83744" lon="5.82859">
        <ele>237.415325</ele>
        <time>2021-04-30T23:05:49.204Z</time>
      </trkpt>
      <trkpt lat="45.83755" lon="5.8298">
        <ele>238.238859</ele>
        <time>2021-04-30T23:06:32.067Z</time>
      </trkpt>
      <trkpt lat="45.83771" lon="5.83068">
        <ele>239.331562</ele>
        <time>2021-04-30T23:07:05.314Z</time>
      </trkpt>
      <trkpt lat="45.83772" lon="5.83081">
        <ele>239.494427</ele>
        <time>2021-04-30T23:07:10.403Z</time>
      </trkpt>
      <trkpt lat="45.83775" lon="5.83104">
        <ele>239.771137</ele>
        <time>2021-04-30T23:07:18.935Z</time>
      </trkpt>
      <trkpt lat="45.83798" lon="5.83365">
        <ele>243.154034</ele>
        <time>2021-04-30T23:08:58.057Z</time>
      </trkpt>
      <trkpt lat="45.83802" lon="5.83613">
        <ele>246.412541</ele>
        <time>2021-04-30T23:10:30.382Z</time>
      </trkpt>
      <trkpt lat="45.838" lon="5.8379">
        <ele>248.127658</ele>
        <time>2021-04-30T23:11:37.348Z</time>
      </trkpt>
      <trkpt lat="45.83798" lon="5.83877">
        <ele>248.52415</ele>
        <time>2021-04-30T23:12:06.855Z</time>
      </trkpt>
      <trkpt lat="45.838" lon="5.83921">
        <ele>248.723336</ele>
        <time>2021-04-30T23:12:15.285Z</time>
      </trkpt>
      <trkpt lat="45.83795" lon="5.83921">
        <ele>248.755374</ele>
        <time>2021-04-30T23:12:16.633Z</time>
      </trkpt>
      <trkpt lat="45.83783" lon="5.83922">
        <ele>248.832588</ele>
        <time>2021-04-30T23:12:19.740Z</time>
      </trkpt>
      <trkpt lat="45.83744" lon="5.83927">
        <ele>248.739682</ele>
        <time>2021-04-30T23:12:29.075Z</time>
      </trkpt>
      <trkpt lat="45.83713" lon="5.83932">
        <ele>248.26401</ele>
        <time>2021-04-30T23:12:36.412Z</time>
      </trkpt>
      <trkpt lat="45.83706" lon="5.83935">
        <ele>248.152714</ele>
        <time>2021-04-30T23:12:37.861Z</time>
      </trkpt>
      <trkpt lat="45.83692" lon="5.83942">
        <ele>247.923662</ele>
        <time>2021-04-30T23:12:41.246Z</time>
      </trkpt>
      <trkpt lat="45.8348" lon="5.84048">
        <ele>245.218773</ele>
        <time>2021-04-30T23:13:28.983Z</time>
      </trkpt>
      <trkpt lat="45.83442" lon="5.84069">
        <ele>244.857768</ele>
        <time>2021-04-30T23:13:39.987Z</time>
      </trkpt>
      <trkpt lat="45.83325" lon="5.84177">
        <ele>246.456884</ele>
        <time>2021-04-30T23:14:26.983Z</time>
      </trkpt>
      <trkpt lat="45.83296" lon="5.84198">
        <ele>246.979552</ele>
        <time>2021-04-30T23:14:39.374Z</time>
      </trkpt>
      <trkpt lat="45.83054" lon="5.84283">
        <ele>251.581546</ele>
        <time>2021-04-30T23:16:08.943Z</time>
      </trkpt>
      <trkpt lat="45.83022" lon="5.84284">
        <ele>252.106609</ele>
        <time>2021-04-30T23:16:19.644Z</time>
      </trkpt>
      <trkpt lat="45.83006" lon="5.8428">
        <ele>252.384982</ele>
        <time>2021-04-30T23:16:25.375Z</time>
      </trkpt>
      <trkpt lat="45.83001" lon="5.8428">
        <ele>252.467434</ele>
        <time>2021-04-30T23:16:27.017Z</time>
      </trkpt>
      <trkpt lat="45.8299" lon="5.84278">
        <ele>252.643972</ele>
        <time>2021-04-30T23:16:30.523Z</time>
      </trkpt>
      <trkpt lat="45.82943" lon="5.84271">
        <ele>253.442548</ele>
        <time>2021-04-30T23:16:46.233Z</time>
      </trkpt>
      <trkpt lat="45.8294" lon="5.84271">
        <ele>253.484346</ele>
        <time>2021-04-30T23:16:47.188Z</time>
      </trkpt>
      <trkpt lat="45.82909" lon="5.84271">
        <ele>254.035331</ele>
        <time>2021-04-30T23:16:57.493Z</time>
      </trkpt>
      <trkpt lat="45.82824" lon="5.8427">
        <ele>256.530605</ele>
        <time>2021-04-30T23:17:30.524Z</time>
      </trkpt>
      <trkpt lat="45.82773" lon="5.84295">
        <ele>258.122867</ele>
        <time>2021-04-30T23:17:53.111Z</time>
      </trkpt>
      <trkpt lat="45.82758" lon="5.84307">
        <ele>258.614922</ele>
        <time>2021-04-30T23:18:00.554Z</time>
      </trkpt>
      <trkpt lat="45.82734" lon="5.84325">
        <ele>259.51537</ele>
        <time>2021-04-30T23:18:13.252Z</time>
      </trkpt>
      <trkpt lat="45.82682" lon="5.84353">
        <ele>262.131472</ele>
        <time>2021-04-30T23:18:39.443Z</time>
      </trkpt>
      <trkpt lat="45.82507" lon="5.84422">
        <ele>270.791967</ele>
        <time>2021-04-30T23:20:12.527Z</time>
      </trkpt>
      <trkpt lat="45.82407" lon="5.8453">
        <ele>276.719229</ele>
        <time>2021-04-30T23:21:14.869Z</time>
      </trkpt>
      <trkpt lat="45.8235" lon="5.84606">
        <ele>279.298159</ele>
        <time>2021-04-30T23:21:50.071Z</time>
      </trkpt>
      <trkpt lat="45.82336" lon="5.84622">
        <ele>279.899351</ele>
        <time>2021-04-30T23:21:58.166Z</time>
      </trkpt>
      <trkpt lat="45.82303" lon="5.84654">
        <ele>281.202711</ele>
        <time>2021-04-30T23:22:14.499Z</time>
      </trkpt>
      <trkpt lat="45.82246" lon="5.84697">
        <ele>282.384899</ele>
        <time>2021-04-30T23:22:38.432Z</time>
      </trkpt>
      <trkpt lat="45.82209" lon="5.84714">
        <ele>282.302387</ele>
        <time>2021-04-30T23:22:50.034Z</time>
      </trkpt>
      <trkpt lat="45.82179" lon="5.84726">
        <ele>282.238476</ele>
        <time>2021-04-30T23:22:57.633Z</time>
      </trkpt>
      <trkpt lat="45.8215" lon="5.84737">
        <ele>282.175837</ele>
        <time>2021-04-30T23:23:04.595Z</time>
      </trkpt>
      <trkpt lat="45.82143" lon="5.84738">
        <ele>282.160366</ele>
        <time>2021-04-30T23:23:06.511Z</time>
      </trkpt>
      <trkpt lat="45.82138" lon="5.84739">
        <ele>282.150174</ele>
        <time>2021-04-30T23:23:07.659Z</time>
      </trkpt>
      <trkpt lat="45.82095" lon="5.84744">
        <ele>281.977756</ele>
        <time>2021-04-30T23:23:17.184Z</time>
      </trkpt>
      <trkpt lat="45.82087" lon="5.84745">
        <ele>281.700517</ele>
        <time>2021-04-30T23:23:18.748Z</time>
      </trkpt>
      <trkpt lat="45.8208" lon="5.84747">
        <ele>281.439737</ele>
        <time>2021-04-30T23:23:20.234Z</time>
      </trkpt>
      <trkpt lat="45.81966" lon="5.8479">
        <ele>277.35981</ele>
        <time>2021-04-30T23:23:43.072Z</time>
      </trkpt>
      <trkpt lat="45.81955" lon="5.84792">
        <ele>276.96809</ele>
        <time>2021-04-30T23:23:45.208Z</time>
      </trkpt>
      <trkpt lat="45.81953" lon="5.84786">
        <ele>276.826716</ele>
        <time>2021-04-30T23:23:45.924Z</time>
      </trkpt>
      <trkpt lat="45.8195" lon="5.84782">
        <ele>276.688374</ele>
        <time>2021-04-30T23:23:46.633Z</time>
      </trkpt>
      <trkpt lat="45.81946" lon="5.84781">
        <ele>276.546036</ele>
        <time>2021-04-30T23:23:47.323Z</time>
      </trkpt>
      <trkpt lat="45.81942" lon="5.84782">
        <ele>276.404249</ele>
        <time>2021-04-30T23:23:48.083Z</time>
      </trkpt>
      <trkpt lat="45.81939" lon="5.84786">
        <ele>276.263296</ele>
        <time>2021-04-30T23:23:48.925Z</time>
      </trkpt>
      <trkpt lat="45.81937" lon="5.84791">
        <ele>276.124136</ele>
        <time>2021-04-30T23:23:49.770Z</time>
      </trkpt>
      <trkpt lat="45.81937" lon="5.84794">
        <ele>276.071019</ele>
        <time>2021-04-30T23:23:50.074Z</time>
      </trkpt>
      <trkpt lat="45.81937" lon="5.84796">
        <ele>276.020305</ele>
        <time>2021-04-30T23:23:50.374Z</time>
      </trkpt>
      <trkpt lat="45.81926" lon="5.84809">
        <ele>275.323146</ele>
        <time>2021-04-30T23:23:53.018Z</time>
      </trkpt>
      <trkpt lat="45.81918" lon="5.84813">
        <ele>274.902561</ele>
        <time>2021-04-30T23:23:54.466Z</time>
      </trkpt>
      <trkpt lat="45.81905" lon="5.84818">
        <ele>274.177131</ele>
        <time>2021-04-30T23:23:57.267Z</time>
      </trkpt>
      <trkpt lat="45.81855" lon="5.84839">
        <ele>271.480612</ele>
        <time>2021-04-30T23:24:06.525Z</time>
      </trkpt>
      <trkpt lat="45.8185" lon="5.84842">
        <ele>271.188622</ele>
        <time>2021-04-30T23:24:07.500Z</time>
      </trkpt>
      <trkpt lat="45.81832" lon="5.84854">
        <ele>270.13881</ele>
        <time>2021-04-30T23:24:11.296Z</time>
      </trkpt>
      <trkpt lat="45.81821" lon="5.84863">
        <ele>269.492323</ele>
        <time>2021-04-30T23:24:13.352Z</time>
      </trkpt>
      <trkpt lat="45.81801" lon="5.84885">
        <ele>268.176797</ele>
        <time>2021-04-30T23:24:17.958Z</time>
      </trkpt>
      <trkpt lat="45.81798" lon="5.84889">
        <ele>267.946843</ele>
        <time>2021-04-30T23:24:18.683Z</time>
      </trkpt>
      <trkpt lat="45.81775" lon="5.84906">
        <ele>266.594052</ele>
        <time>2021-04-30T23:24:23.310Z</time>
      </trkpt>
      <trkpt lat="45.8173" lon="5.84922">
        <ele>264.057483</ele>
        <time>2021-04-30T23:24:31.467Z</time>
      </trkpt>
      <trkpt lat="45.81691" lon="5.84933">
        <ele>261.838073</ele>
        <time>2021-04-30T23:24:38.535Z</time>
      </trkpt>
      <trkpt lat="45.81682" lon="5.84935">
        <ele>261.350669</ele>
        <time>2021-04-30T23:24:40.020Z</time>
      </trkpt>
      <trkpt lat="45.81625" lon="5.84953">
        <ele>258.059915</ele>
        <time>2021-04-30T23:24:50.681Z</time>
      </trkpt>
      <trkpt lat="45.8159" lon="5.84956">
        <ele>256.237562</ele>
        <time>2021-04-30T23:24:56.853Z</time>
      </trkpt>
      <trkpt lat="45.8156" lon="5.84951">
        <ele>255.04625</ele>
        <time>2021-04-30T23:25:02.197Z</time>
      </trkpt>
      <trkpt lat="45.8148" lon="5.84935">
        <ele>251.874465</ele>
        <time>2021-04-30T23:25:17.347Z</time>
      </trkpt>
      <trkpt lat="45.81443" lon="5.84935">
        <ele>250.427811</ele>
        <time>2021-04-30T23:25:24.620Z</time>
      </trkpt>
      <trkpt lat="45.81417" lon="5.84939">
        <ele>249.416477</ele>
        <time>2021-04-30T23:25:29.748Z</time>
      </trkpt>
      <trkpt lat="45.81395" lon="5.84944">
        <ele>249.186795</ele>
        <time>2021-04-30T23:25:34.664Z</time>
      </trkpt>
      <trkpt lat="45.81368" lon="5.8495">
        <ele>248.902415</ele>
        <time>2021-04-30T23:25:40.929Z</time>
      </trkpt>
      <trkpt lat="45.81324" lon="5.8496">
        <ele>248.456622</ele>
        <time>2021-04-30T23:25:50.966Z</time>
      </trkpt>
      <trkpt lat="45.81244" lon="5.84978">
        <ele>247.626125</ele>
        <time>2021-04-30T23:26:11.134Z</time>
      </trkpt>
      <trkpt lat="45.81213" lon="5.84984">
        <ele>247.500658</ele>
        <time>2021-04-30T23:26:19.251Z</time>
      </trkpt>
      <trkpt lat="45.81207" lon="5.84986">
        <ele>247.48163</ele>
        <time>2021-04-30T23:26:21.005Z</time>
      </trkpt>
      <trkpt lat="45.81182" lon="5.84992">
        <ele>247.412433</ele>
        <time>2021-04-30T23:26:27.353Z</time>
      </trkpt>
      <trkpt lat="45.81152" lon="5.85003">
        <ele>247.324661</ele>
        <time>2021-04-30T23:26:35.965Z</time>
      </trkpt>
      <trkpt lat="45.8109" lon="5.85052">
        <ele>247.127763</ele>
        <time>2021-04-30T23:26:54.082Z</time>
      </trkpt>
      <trkpt lat="45.81088" lon="5.85053">
        <ele>247.12111</ele>
        <time>2021-04-30T23:26:54.606Z</time>
      </trkpt>
      <trkpt lat="45.8108" lon="5.85053">
        <ele>247.099576</ele>
        <time>2021-04-30T23:26:56.564Z</time>
      </trkpt>
      <trkpt lat="45.81073" lon="5.85051">
        <ele>247.080114</ele>
        <time>2021-04-30T23:26:58.237Z</time>
      </trkpt>
      <trkpt lat="45.81067" lon="5.85048">
        <ele>247.05173</ele>
        <time>2021-04-30T23:26:59.876Z</time>
      </trkpt>
      <trkpt lat="45.8106" lon="5.85048">
        <ele>247.015522</ele>
        <time>2021-04-30T23:27:01.545Z</time>
      </trkpt>
      <trkpt lat="45.81054" lon="5.85053">
        <ele>246.979248</ele>
        <time>2021-04-30T23:27:03.128Z</time>
      </trkpt>
      <trkpt lat="45.8105" lon="5.85062">
        <ele>246.942923</ele>
        <time>2021-04-30T23:27:04.887Z</time>
      </trkpt>
      <trkpt lat="45.81049" lon="5.8507">
        <ele>246.912963</ele>
        <time>2021-04-30T23:27:06.306Z</time>
      </trkpt>
      <trkpt lat="45.8105" lon="5.85078">
        <ele>246.882697</ele>
        <time>2021-04-30T23:27:07.723Z</time>
      </trkpt>
      <trkpt lat="45.81048" lon="5.85087">
        <ele>246.849545</ele>
        <time>2021-04-30T23:27:09.328Z</time>
      </trkpt>
      <trkpt lat="45.81045" lon="5.85091">
        <ele>246.828716</ele>
        <time>2021-04-30T23:27:10.268Z</time>
      </trkpt>
      <trkpt lat="45.81036" lon="5.85105">
        <ele>246.759891</ele>
        <time>2021-04-30T23:27:13.480Z</time>
      </trkpt>
      <trkpt lat="45.8103" lon="5.8511">
        <ele>246.725642</ele>
        <time>2021-04-30T23:27:15.046Z</time>
      </trkpt>
      <trkpt lat="45.80988" lon="5.85148">
        <ele>246.469745</ele>
        <time>2021-04-30T23:27:26.692Z</time>
      </trkpt>
      <trkpt lat="45.80965" lon="5.85169">
        <ele>246.325833</ele>
        <time>2021-04-30T23:27:33.701Z</time>
      </trkpt>
      <trkpt lat="45.80863" lon="5.85263">
        <ele>246.105392</ele>
        <time>2021-04-30T23:28:05.732Z</time>
      </trkpt>
      <trkpt lat="45.80819" lon="5.85303">
        <ele>246.083492</ele>
        <time>2021-04-30T23:28:19.370Z</time>
      </trkpt>
      <trkpt lat="45.80796" lon="5.85324">
        <ele>246.071671</ele>
        <time>2021-04-30T23:28:26.742Z</time>
      </trkpt>
      <trkpt lat="45.80625" lon="5.85363">
        <ele>246.30783</ele>
        <time>2021-04-30T23:29:14.192Z</time>
      </trkpt>
      <trkpt lat="45.80561" lon="5.85425">
        <ele>246.94284</ele>
        <time>2021-04-30T23:29:35.193Z</time>
      </trkpt>
      <trkpt lat="45.80534" lon="5.85445">
        <ele>247.283274</ele>
        <time>2021-04-30T23:29:44.417Z</time>
      </trkpt>
      <trkpt lat="45.80371" lon="5.85518">
        <ele>250.441262</ele>
        <time>2021-04-30T23:30:44.741Z</time>
      </trkpt>
      <trkpt lat="45.80235" lon="5.85678">
        <ele>256.269426</ele>
        <time>2021-04-30T23:32:00.845Z</time>
      </trkpt>
      <trkpt lat="45.80203" lon="5.85687">
        <ele>257.6297</ele>
        <time>2021-04-30T23:32:16.483Z</time>
      </trkpt>
      <trkpt lat="45.80146" lon="5.85702">
        <ele>260.026928</ele>
        <time>2021-04-30T23:32:44.666Z</time>
      </trkpt>
      <trkpt lat="45.80107" lon="5.85726">
        <ele>262.051539</ele>
        <time>2021-04-30T23:33:06.092Z</time>
      </trkpt>
      <trkpt lat="45.79968" lon="5.8581">
        <ele>269.813683</ele>
        <time>2021-04-30T23:34:23.084Z</time>
      </trkpt>
      <trkpt lat="45.79919" lon="5.85839">
        <ele>272.917747</ele>
        <time>2021-04-30T23:34:52.937Z</time>
      </trkpt>
      <trkpt lat="45.79892" lon="5.85856">
        <ele>274.637765</ele>
        <time>2021-04-30T23:35:09.033Z</time>
      </trkpt>
      <trkpt lat="45.7984" lon="5.85887">
        <ele>277.940121</ele>
        <time>2021-04-30T23:35:40.185Z</time>
      </trkpt>
      <trkpt lat="45.79813" lon="5.85903">
        <ele>279.64777</ele>
        <time>2021-04-30T23:35:56.453Z</time>
      </trkpt>
      <trkpt lat="45.79721" lon="5.8592">
        <ele>284.618846</ele>
        <time>2021-04-30T23:36:47.172Z</time>
      </trkpt>
      <trkpt lat="45.79643" lon="5.85938">
        <ele>288.714612</ele>
        <time>2021-04-30T23:37:28.051Z</time>
      </trkpt>
      <trkpt lat="45.7952" lon="5.85979">
        <ele>293.045746</ele>
        <time>2021-04-30T23:38:25.342Z</time>
      </trkpt>
      <trkpt lat="45.79442" lon="5.85992">
        <ele>295.352016</ele>
        <time>2021-04-30T23:38:53.782Z</time>
      </trkpt>
      <trkpt lat="45.79388" lon="5.86">
        <ele>295.235994</ele>
        <time>2021-04-30T23:39:10.568Z</time>
      </trkpt>
      <trkpt lat="45.79368" lon="5.86004">
        <ele>295.192516</ele>
        <time>2021-04-30T23:39:16.363Z</time>
      </trkpt>
      <trkpt lat="45.79197" lon="5.86034">
        <ele>293.193933</ele>
        <time>2021-04-30T23:39:55.478Z</time>
      </trkpt>
      <trkpt lat="45.79055" lon="5.86055">
        <ele>288.581407</ele>
        <time>2021-04-30T23:40:23.164Z</time>
      </trkpt>
      <trkpt lat="45.78956" lon="5.8607">
        <ele>283.096713</ele>
        <time>2021-04-30T23:40:40.894Z</time>
      </trkpt>
      <trkpt lat="45.78796" lon="5.86093">
        <ele>272.935776</ele>
        <time>2021-04-30T23:41:08.519Z</time>
      </trkpt>
      <trkpt lat="45.78688" lon="5.86109">
        <ele>266.617385</ele>
        <time>2021-04-30T23:41:27.384Z</time>
      </trkpt>
      <trkpt lat="45.7865" lon="5.86123">
        <ele>264.838028</ele>
        <time>2021-04-30T23:41:34.526Z</time>
      </trkpt>
      <trkpt lat="45.78436" lon="5.8625">
        <ele>256.894272</ele>
        <time>2021-04-30T23:42:19.376Z</time>
      </trkpt>
      <trkpt lat="45.7832" lon="5.86347">
        <ele>255.63247</ele>
        <time>2021-04-30T23:42:50.633Z</time>
      </trkpt>
      <trkpt lat="45.78235" lon="5.86366">
        <ele>255.658963</ele>
        <time>2021-04-30T23:43:17.286Z</time>
      </trkpt>
      <trkpt lat="45.78197" lon="5.86381">
        <ele>255.893942</ele>
        <time>2021-04-30T23:43:31.153Z</time>
      </trkpt>
      <trkpt lat="45.78144" lon="5.86407">
        <ele>256.304601</ele>
        <time>2021-04-30T23:43:49.688Z</time>
      </trkpt>
      <trkpt lat="45.7812" lon="5.86422">
        <ele>256.494793</ele>
        <time>2021-04-30T23:43:58.360Z</time>
      </trkpt>
      <trkpt lat="45.78071" lon="5.86448">
        <ele>256.876228</ele>
        <time>2021-04-30T23:44:13.362Z</time>
      </trkpt>
      <trkpt lat="45.77944" lon="5.8648">
        <ele>255.198936</ele>
        <time>2021-04-30T23:44:42.403Z</time>
      </trkpt>
      <trkpt lat="45.77926" lon="5.86478">
        <ele>254.911837</ele>
        <time>2021-04-30T23:44:46.084Z</time>
      </trkpt>
      <trkpt lat="45.77896" lon="5.86461">
        <ele>254.411576</ele>
        <time>2021-04-30T23:44:52.405Z</time>
      </trkpt>
      <trkpt lat="45.77813" lon="5.8649">
        <ele>254.670853</ele>
        <time>2021-04-30T23:45:10.440Z</time>
      </trkpt>
      <trkpt lat="45.77731" lon="5.86527">
        <ele>255.245357</ele>
        <time>2021-04-30T23:45:36.551Z</time>
      </trkpt>
      <trkpt lat="45.77497" lon="5.8665">
        <ele>268.609752</ele>
        <time>2021-04-30T23:47:57.239Z</time>
      </trkpt>
      <trkpt lat="45.77349" lon="5.86739">
        <ele>276.068745</ele>
        <time>2021-04-30T23:49:28.786Z</time>
      </trkpt>
      <trkpt lat="45.77319" lon="5.8675">
        <ele>275.515104</ele>
        <time>2021-04-30T23:49:38.961Z</time>
      </trkpt>
      <trkpt lat="45.77289" lon="5.86761">
        <ele>274.966335</ele>
        <time>2021-04-30T23:49:46.218Z</time>
      </trkpt>
      <trkpt lat="45.77243" lon="5.86778">
        <ele>274.12653</ele>
        <time>2021-04-30T23:49:55.253Z</time>
      </trkpt>
      <trkpt lat="45.7718" lon="5.86806">
        <ele>271.634614</ele>
        <time>2021-04-30T23:50:06.415Z</time>
      </trkpt>
      <trkpt lat="45.77099" lon="5.86852">
        <ele>264.876926</ele>
        <time>2021-04-30T23:50:20.721Z</time>
      </trkpt>
      <trkpt lat="45.77075" lon="5.86869">
        <ele>262.840427</ele>
        <time>2021-04-30T23:50:25.145Z</time>
      </trkpt>
      <trkpt lat="45.77066" lon="5.86876">
        <ele>262.049987</ele>
        <time>2021-04-30T23:50:27.013Z</time>
      </trkpt>
      <trkpt lat="45.77036" lon="5.86894">
        <ele>259.507843</ele>
        <time>2021-04-30T23:50:32.793Z</time>
      </trkpt>
      <trkpt lat="45.77002" lon="5.86909">
        <ele>258.557412</ele>
        <time>2021-04-30T23:50:39.338Z</time>
      </trkpt>
      <trkpt lat="45.76835" lon="5.86988">
        <ele>254.249637</ele>
        <time>2021-04-30T23:51:17.848Z</time>
      </trkpt>
      <trkpt lat="45.76734" lon="5.87026">
        <ele>252.213193</ele>
        <time>2021-04-30T23:51:40.398Z</time>
      </trkpt>
      <trkpt lat="45.76666" lon="5.8704">
        <ele>250.813758</ele>
        <time>2021-04-30T23:51:54.367Z</time>
      </trkpt>
      <trkpt lat="45.76597" lon="5.87044">
        <ele>249.355253</ele>
        <time>2021-04-30T23:52:07.996Z</time>
      </trkpt>
      <trkpt lat="45.76376" lon="5.87033">
        <ele>247.301225</ele>
        <time>2021-04-30T23:52:56.996Z</time>
      </trkpt>
      <trkpt lat="45.76369" lon="5.87033">
        <ele>247.288118</ele>
        <time>2021-04-30T23:52:59.260Z</time>
      </trkpt>
      <trkpt lat="45.76356" lon="5.87033">
        <ele>247.267213</ele>
        <time>2021-04-30T23:53:04.271Z</time>
      </trkpt>
      <trkpt lat="45.76292" lon="5.87039">
        <ele>248.787342</ele>
        <time>2021-04-30T23:53:30.194Z</time>
      </trkpt>
      <trkpt lat="45.76162" lon="5.87058">
        <ele>254.037562</ele>
        <time>2021-04-30T23:54:37.230Z</time>
      </trkpt>
      <trkpt lat="45.76149" lon="5.8706">
        <ele>254.422749</ele>
        <time>2021-04-30T23:54:42.365Z</time>
      </trkpt>
      <trkpt lat="45.76137" lon="5.87063">
        <ele>254.330599</ele>
        <time>2021-04-30T23:54:49.040Z</time>
      </trkpt>
      <trkpt lat="45.76073" lon="5.87076">
        <ele>253.814915</ele>
        <time>2021-04-30T23:55:11.301Z</time>
      </trkpt>
      <trkpt lat="45.75978" lon="5.87075">
        <ele>253.066742</ele>
        <time>2021-04-30T23:55:30.629Z</time>
      </trkpt>
      <trkpt lat="45.75951" lon="5.8706">
        <ele>251.617986</ele>
        <time>2021-04-30T23:55:35.481Z</time>
      </trkpt>
      <trkpt lat="45.75933" lon="5.87064">
        <ele>250.480678</ele>
        <time>2021-04-30T23:55:38.666Z</time>
      </trkpt>
      <trkpt lat="45.75877" lon="5.87123">
        <ele>246.216433</ele>
        <time>2021-04-30T23:55:50.578Z</time>
      </trkpt>
      <trkpt lat="45.7582" lon="5.87173">
        <ele>242.132485</ele>
        <time>2021-04-30T23:56:02.237Z</time>
      </trkpt>
      <trkpt lat="45.75799" lon="5.87211">
        <ele>241.069779</ele>
        <time>2021-04-30T23:56:08.264Z</time>
      </trkpt>
      <trkpt lat="45.75787" lon="5.87268">
        <ele>239.799623</ele>
        <time>2021-04-30T23:56:16.286Z</time>
      </trkpt>
      <trkpt lat="45.75781" lon="5.87303">
        <ele>239.035638</ele>
        <time>2021-04-30T23:56:21.198Z</time>
      </trkpt>
      <trkpt lat="45.75773" lon="5.87345">
        <ele>238.116351</ele>
        <time>2021-04-30T23:56:27.642Z</time>
      </trkpt>
      <trkpt lat="45.75771" lon="5.87353">
        <ele>237.951847</ele>
        <time>2021-04-30T23:56:28.736Z</time>
      </trkpt>
      <trkpt lat="45.75767" lon="5.87371">
        <ele>237.539145</ele>
        <time>2021-04-30T23:56:32.224Z</time>
      </trkpt>
      <trkpt lat="45.75761" lon="5.87388">
        <ele>237.156832</ele>
        <time>2021-04-30T23:56:34.792Z</time>
      </trkpt>
      <trkpt lat="45.75712" lon="5.87479">
        <ele>236.424572</ele>
        <time>2021-04-30T23:56:54.352Z</time>
      </trkpt>
      <trkpt lat="45.75667" lon="5.87529">
        <ele>236.283064</ele>
        <time>2021-04-30T23:57:11.254Z</time>
      </trkpt>
      <trkpt lat="45.75655" lon="5.87542">
        <ele>236.24604</ele>
        <time>2021-04-30T23:57:14.444Z</time>
      </trkpt>
      <trkpt lat="45.75638" lon="5.87561">
        <ele>236.190871</ele>
        <time>2021-04-30T23:57:20.567Z</time>
      </trkpt>
      <trkpt lat="45.75598" lon="5.87623">
        <ele>236.573801</ele>
        <time>2021-04-30T23:57:35.241Z</time>
      </trkpt>
      <trkpt lat="45.75584" lon="5.87652">
        <ele>236.891011</ele>
        <time>2021-04-30T23:57:41.897Z</time>
      </trkpt>
      <trkpt lat="45.75547" lon="5.87731">
        <ele>237.75863</ele>
        <time>2021-04-30T23:58:06.357Z</time>
      </trkpt>
      <trkpt lat="45.75529" lon="5.87785">
        <ele>238.306236</ele>
        <time>2021-04-30T23:58:21.957Z</time>
      </trkpt>
      <trkpt lat="45.75523" lon="5.87809">
        <ele>238.568158</ele>
        <time>2021-04-30T23:58:27.512Z</time>
      </trkpt>
      <trkpt lat="45.75513" lon="5.87852">
        <ele>239.202265</ele>
        <time>2021-04-30T23:58:39.691Z</time>
      </trkpt>
      <trkpt lat="45.75511" lon="5.87862">
        <ele>239.341716</ele>
        <time>2021-04-30T23:58:41.879Z</time>
      </trkpt>
      <trkpt lat="45.75507" lon="5.87875">
        <ele>239.538607</ele>
        <time>2021-04-30T23:58:46.929Z</time>
      </trkpt>
      <trkpt lat="45.75487" lon="5.87915">
        <ele>240.227619</ele>
        <time>2021-04-30T23:58:59.689Z</time>
      </trkpt>
      <trkpt lat="45.75438" lon="5.87969">
        <ele>241.460762</ele>
        <time>2021-04-30T23:59:21.787Z</time>
      </trkpt>
      <trkpt lat="45.75345" lon="5.88009">
        <ele>242.527669</ele>
        <time>2021-04-30T23:59:54.352Z</time>
      </trkpt>
      <trkpt lat="45.75296" lon="5.8802">
        <ele>242.875628</ele>
        <time>2021-05-01T00:00:07.273Z</time>
      </trkpt>
      <trkpt lat="45.75087" lon="5.88148">
        <ele>245.693174</ele>
        <time>2021-05-01T00:01:13.488Z</time>
      </trkpt>
      <trkpt lat="45.74927" lon="5.88264">
        <ele>255.902458</ele>
        <time>2021-05-01T00:02:53.459Z</time>
      </trkpt>
      <trkpt lat="45.74777" lon="5.88388">
        <ele>269.037463</ele>
        <time>2021-05-01T00:04:54.282Z</time>
      </trkpt>
      <trkpt lat="45.74734" lon="5.88416">
        <ele>270.800204</ele>
        <time>2021-05-01T00:05:18.830Z</time>
      </trkpt>
      <trkpt lat="45.74708" lon="5.88425">
        <ele>270.742045</ele>
        <time>2021-05-01T00:05:29.818Z</time>
      </trkpt>
      <trkpt lat="45.74648" lon="5.88489">
        <ele>270.579152</ele>
        <time>2021-05-01T00:05:48.393Z</time>
      </trkpt>
      <trkpt lat="45.74605" lon="5.88506">
        <ele>270.482502</ele>
        <time>2021-05-01T00:05:56.607Z</time>
      </trkpt>
      <trkpt lat="45.74581" lon="5.8853">
        <ele>269.436915</ele>
        <time>2021-05-01T00:06:01.866Z</time>
      </trkpt>
      <trkpt lat="45.74564" lon="5.88538">
        <ele>268.504292</ele>
        <time>2021-05-01T00:06:04.947Z</time>
      </trkpt>
      <trkpt lat="45.74532" lon="5.88566">
        <ele>266.510278</ele>
        <time>2021-05-01T00:06:11.584Z</time>
      </trkpt>
      <trkpt lat="45.74482" lon="5.88625">
        <ele>263.104628</ele>
        <time>2021-05-01T00:06:23.064Z</time>
      </trkpt>
      <trkpt lat="45.74465" lon="5.88656">
        <ele>261.67182</ele>
        <time>2021-05-01T00:06:28.056Z</time>
      </trkpt>
      <trkpt lat="45.74444" lon="5.88675">
        <ele>260.802076</ele>
        <time>2021-05-01T00:06:32.677Z</time>
      </trkpt>
      <trkpt lat="45.74423" lon="5.88711">
        <ele>260.206096</ele>
        <time>2021-05-01T00:06:39.132Z</time>
      </trkpt>
      <trkpt lat="45.74375" lon="5.88751">
        <ele>259.201016</ele>
        <time>2021-05-01T00:06:50.801Z</time>
      </trkpt>
      <trkpt lat="45.74327" lon="5.88838">
        <ele>257.807802</ele>
        <time>2021-05-01T00:07:10.583Z</time>
      </trkpt>
      <trkpt lat="45.74288" lon="5.88872">
        <ele>257.842883</ele>
        <time>2021-05-01T00:07:22.842Z</time>
      </trkpt>
      <trkpt lat="45.74233" lon="5.88905">
        <ele>257.939904</ele>
        <time>2021-05-01T00:07:39.266Z</time>
      </trkpt>
      <trkpt lat="45.74187" lon="5.88949">
        <ele>258.029106</ele>
        <time>2021-05-01T00:07:53.518Z</time>
      </trkpt>
      <trkpt lat="45.74124" lon="5.88997">
        <ele>258.857949</ele>
        <time>2021-05-01T00:08:15.247Z</time>
      </trkpt>
      <trkpt lat="45.74098" lon="5.89026">
        <ele>259.387269</ele>
        <time>2021-05-01T00:08:26.259Z</time>
      </trkpt>
      <trkpt lat="45.7406" lon="5.89066">
        <ele>260.138653</ele>
        <time>2021-05-01T00:08:42.354Z</time>
      </trkpt>
      <trkpt lat="45.74024" lon="5.89105">
        <ele>260.855617</ele>
        <time>2021-05-01T00:08:59.931Z</time>
      </trkpt>
      <trkpt lat="45.73964" lon="5.89149">
        <ele>262.767552</ele>
        <time>2021-05-01T00:09:27.616Z</time>
      </trkpt>
      <trkpt lat="45.73923" lon="5.89193">
        <ele>264.272449</ele>
        <time>2021-05-01T00:09:50.980Z</time>
      </trkpt>
      <trkpt lat="45.73779" lon="5.8926">
        <ele>264.571783</ele>
        <time>2021-05-01T00:10:48.395Z</time>
      </trkpt>
      <trkpt lat="45.73762" lon="5.89268">
        <ele>264.219361</ele>
        <time>2021-05-01T00:10:52.728Z</time>
      </trkpt>
      <trkpt lat="45.73749" lon="5.89272">
        <ele>263.979566</ele>
        <time>2021-05-01T00:10:54.829Z</time>
      </trkpt>
      <trkpt lat="45.73672" lon="5.89297">
        <ele>261.473456</ele>
        <time>2021-05-01T00:11:08.726Z</time>
      </trkpt>
      <trkpt lat="45.73628" lon="5.89298">
        <ele>257.936892</ele>
        <time>2021-05-01T00:11:16.245Z</time>
      </trkpt>
      <trkpt lat="45.73617" lon="5.89296">
        <ele>257.036031</ele>
        <time>2021-05-01T00:11:18.065Z</time>
      </trkpt>
      <trkpt lat="45.73602" lon="5.89291">
        <ele>255.842613</ele>
        <time>2021-05-01T00:11:20.399Z</time>
      </trkpt>
      <trkpt lat="45.7356" lon="5.89261">
        <ele>252.03539</ele>
        <time>2021-05-01T00:11:28.246Z</time>
      </trkpt>
      <trkpt lat="45.7347" lon="5.89139">
        <ele>245.99458</ele>
        <time>2021-05-01T00:11:49.265Z</time>
      </trkpt>
      <trkpt lat="45.73417" lon="5.89086">
        <ele>244.100868</ele>
        <time>2021-05-01T00:12:04.895Z</time>
      </trkpt>
      <trkpt lat="45.7335" lon="5.89022">
        <ele>244.892238</ele>
        <time>2021-05-01T00:12:35.003Z</time>
      </trkpt>
      <trkpt lat="45.73326" lon="5.88999">
        <ele>246.184363</ele>
        <time>2021-05-01T00:12:48.711Z</time>
      </trkpt>
      <trkpt lat="45.73309" lon="5.88976">
        <ele>247.20958</ele>
        <time>2021-05-01T00:12:59.990Z</time>
      </trkpt>
      <trkpt lat="45.73293" lon="5.8895">
        <ele>248.286206</ele>
        <time>2021-05-01T00:13:12.416Z</time>
      </trkpt>
      <trkpt lat="45.73284" lon="5.8893">
        <ele>249.033451</ele>
        <time>2021-05-01T00:13:22.649Z</time>
      </trkpt>
      <trkpt lat="45.73274" lon="5.88927">
        <ele>249.505636</ele>
        <time>2021-05-01T00:13:28.765Z</time>
      </trkpt>
      <trkpt lat="45.73267" lon="5.88928">
        <ele>249.829451</ele>
        <time>2021-05-01T00:13:32.401Z</time>
      </trkpt>
      <trkpt lat="45.73252" lon="5.8893">
        <ele>250.478885</ele>
        <time>2021-05-01T00:13:41.413Z</time>
      </trkpt>
      <trkpt lat="45.73245" lon="5.88932">
        <ele>250.788639</ele>
        <time>2021-05-01T00:13:44.908Z</time>
      </trkpt>
      <trkpt lat="45.7324" lon="5.88931">
        <ele>251.040039</ele>
        <time>2021-05-01T00:13:48.400Z</time>
      </trkpt>
      <trkpt lat="45.73223" lon="5.8893">
        <ele>251.976792</ele>
        <time>2021-05-01T00:13:57.556Z</time>
      </trkpt>
      <trkpt lat="45.7319" lon="5.88931">
        <ele>253.792654</ele>
        <time>2021-05-01T00:14:15.367Z</time>
      </trkpt>
      <trkpt lat="45.73158" lon="5.88931">
        <ele>255.509971</ele>
        <time>2021-05-01T00:14:32.313Z</time>
      </trkpt>
      <trkpt lat="45.7315" lon="5.88929">
        <ele>255.970288</ele>
        <time>2021-05-01T00:14:36.734Z</time>
      </trkpt>
      <trkpt lat="45.73148" lon="5.88928">
        <ele>256.047708</ele>
        <time>2021-05-01T00:14:38.179Z</time>
      </trkpt>
      <trkpt lat="45.73142" lon="5.88925">
        <ele>256.430501</ele>
        <time>2021-05-01T00:14:42.613Z</time>
      </trkpt>
      <trkpt lat="45.73129" lon="5.88914">
        <ele>257.234826</ele>
        <time>2021-05-01T00:14:50.422Z</time>
      </trkpt>
      <trkpt lat="45.73103" lon="5.88931">
        <ele>258.835932</ele>
        <time>2021-05-01T00:15:06.138Z</time>
      </trkpt>
      <trkpt lat="45.73052" lon="5.88964">
        <ele>261.545801</ele>
        <time>2021-05-01T00:15:32.344Z</time>
      </trkpt>
      <trkpt lat="45.73047" lon="5.88964">
        <ele>261.713469</ele>
        <time>2021-05-01T00:15:35.255Z</time>
      </trkpt>
      <trkpt lat="45.73041" lon="5.88954">
        <ele>262.056812</ele>
        <time>2021-05-01T00:15:40.210Z</time>
      </trkpt>
      <trkpt lat="45.73028" lon="5.88928">
        <ele>262.886402</ele>
        <time>2021-05-01T00:15:49.529Z</time>
      </trkpt>
      <trkpt lat="45.73022" lon="5.8892">
        <ele>263.187346</ele>
        <time>2021-05-01T00:15:54.312Z</time>
      </trkpt>
      <trkpt lat="45.73007" lon="5.88931">
        <ele>263.823862</ele>
        <time>2021-05-01T00:16:01.578Z</time>
      </trkpt>
      <trkpt lat="45.72953" lon="5.88974">
        <ele>266.119756</ele>
        <time>2021-05-01T00:16:28.795Z</time>
      </trkpt>
      <trkpt lat="45.72941" lon="5.88984">
        <ele>266.641483</ele>
        <time>2021-05-01T00:16:34.478Z</time>
      </trkpt>
      <trkpt lat="45.72914" lon="5.89003">
        <ele>267.741998</ele>
        <time>2021-05-01T00:16:48.739Z</time>
      </trkpt>
      <trkpt lat="45.7289" lon="5.89018">
        <ele>268.560035</ele>
        <time>2021-05-01T00:16:59.647Z</time>
      </trkpt>
      <trkpt lat="45.72861" lon="5.89037">
        <ele>269.566559</ele>
        <time>2021-05-01T00:17:12.591Z</time>
      </trkpt>
      <trkpt lat="45.72848" lon="5.89046">
        <ele>270.034866</ele>
        <time>2021-05-01T00:17:18.989Z</time>
      </trkpt>
      <trkpt lat="45.72734" lon="5.89118">
        <ele>274.120797</ele>
        <time>2021-05-01T00:18:12.566Z</time>
      </trkpt>
      <trkpt lat="45.72727" lon="5.89125">
        <ele>274.431716</ele>
        <time>2021-05-01T00:18:16.195Z</time>
      </trkpt>
      <trkpt lat="45.72715" lon="5.89129">
        <ele>274.905006</ele>
        <time>2021-05-01T00:18:22.154Z</time>
      </trkpt>
      <trkpt lat="45.72688" lon="5.89136">
        <ele>275.91925</ele>
        <time>2021-05-01T00:18:33.764Z</time>
      </trkpt>
      <trkpt lat="45.72646" lon="5.89148">
        <ele>277.494605</ele>
        <time>2021-05-01T00:18:52.330Z</time>
      </trkpt>
      <trkpt lat="45.72506" lon="5.89185">
        <ele>283.851621</ele>
        <time>2021-05-01T00:20:02.223Z</time>
      </trkpt>
      <trkpt lat="45.7246" lon="5.89204">
        <ele>286.319817</ele>
        <time>2021-05-01T00:20:28.049Z</time>
      </trkpt>
      <trkpt lat="45.72416" lon="5.89189">
        <ele>288.622342</ele>
        <time>2021-05-01T00:20:52.832Z</time>
      </trkpt>
      <trkpt lat="45.72395" lon="5.89188">
        <ele>289.707767</ele>
        <time>2021-05-01T00:21:05.533Z</time>
      </trkpt>
      <trkpt lat="45.7232" lon="5.89212">
        <ele>293.753183</ele>
        <time>2021-05-01T00:21:48.097Z</time>
      </trkpt>
      <trkpt lat="45.72296" lon="5.89199">
        <ele>295.111243</ele>
        <time>2021-05-01T00:22:01.789Z</time>
      </trkpt>
      <trkpt lat="45.72289" lon="5.89178">
        <ele>295.983348</ele>
        <time>2021-05-01T00:22:09.673Z</time>
      </trkpt>
      <trkpt lat="45.72281" lon="5.89148">
        <ele>297.156803</ele>
        <time>2021-05-01T00:22:21.908Z</time>
      </trkpt>
      <trkpt lat="45.72223" lon="5.89191">
        <ele>299.692409</ele>
        <time>2021-05-01T00:22:53.229Z</time>
      </trkpt>
      <trkpt lat="45.72179" lon="5.89225">
        <ele>301.130107</ele>
        <time>2021-05-01T00:23:16.464Z</time>
      </trkpt>
      <trkpt lat="45.72166" lon="5.89233">
        <ele>301.539645</ele>
        <time>2021-05-01T00:23:22.624Z</time>
      </trkpt>
      <trkpt lat="45.7216" lon="5.89238">
        <ele>301.744436</ele>
        <time>2021-05-01T00:23:26.432Z</time>
      </trkpt>
      <trkpt lat="45.72122" lon="5.8926">
        <ele>302.919211</ele>
        <time>2021-05-01T00:23:42.350Z</time>
      </trkpt>
      <trkpt lat="45.7211" lon="5.89266">
        <ele>303.291136</ele>
        <time>2021-05-01T00:23:46.715Z</time>
      </trkpt>
      <trkpt lat="45.72107" lon="5.89267">
        <ele>303.374703</ele>
        <time>2021-05-01T00:23:47.382Z</time>
      </trkpt>
      <trkpt lat="45.72073" lon="5.89288">
        <ele>303.230968</ele>
        <time>2021-05-01T00:23:57.737Z</time>
      </trkpt>
      <trkpt lat="45.72055" lon="5.89307">
        <ele>302.678304</ele>
        <time>2021-05-01T00:24:03.934Z</time>
      </trkpt>
      <trkpt lat="45.72045" lon="5.89317">
        <ele>302.374255</ele>
        <time>2021-05-01T00:24:06.587Z</time>
      </trkpt>
      <trkpt lat="45.72033" lon="5.89341">
        <ele>301.843907</ele>
        <time>2021-05-01T00:24:11.546Z</time>
      </trkpt>
      <trkpt lat="45.72034" lon="5.89348">
        <ele>301.723726</ele>
        <time>2021-05-01T00:24:13.559Z</time>
      </trkpt>
      <trkpt lat="45.71999" lon="5.89334">
        <ele>300.827776</ele>
        <time>2021-05-01T00:24:20.782Z</time>
      </trkpt>
      <trkpt lat="45.71981" lon="5.89325">
        <ele>300.33057</ele>
        <time>2021-05-01T00:24:24.354Z</time>
      </trkpt>
      <trkpt lat="45.71967" lon="5.89304">
        <ele>299.821</ele>
        <time>2021-05-01T00:24:29.170Z</time>
      </trkpt>
      <trkpt lat="45.71957" lon="5.89286">
        <ele>299.423233</ele>
        <time>2021-05-01T00:24:31.938Z</time>
      </trkpt>
      <trkpt lat="45.71918" lon="5.89301">
        <ele>297.479886</ele>
        <time>2021-05-01T00:24:39.572Z</time>
      </trkpt>
      <trkpt lat="45.71913" lon="5.893">
        <ele>297.213532</ele>
        <time>2021-05-01T00:24:40.616Z</time>
      </trkpt>
      <trkpt lat="45.71896" lon="5.89308">
        <ele>296.29933</ele>
        <time>2021-05-01T00:24:43.933Z</time>
      </trkpt>
      <trkpt lat="45.71889" lon="5.89305">
        <ele>295.892003</ele>
        <time>2021-05-01T00:24:45.243Z</time>
      </trkpt>
      <trkpt lat="45.71878" lon="5.89289">
        <ele>295.059401</ele>
        <time>2021-05-01T00:24:48.382Z</time>
      </trkpt>
      <trkpt lat="45.7186" lon="5.8923">
        <ele>292.743821</ele>
        <time>2021-05-01T00:24:56.654Z</time>
      </trkpt>
      <trkpt lat="45.71841" lon="5.89218">
        <ele>291.662831</ele>
        <time>2021-05-01T00:25:00.471Z</time>
      </trkpt>
      <trkpt lat="45.71838" lon="5.89204">
        <ele>291.130643</ele>
        <time>2021-05-01T00:25:02.629Z</time>
      </trkpt>
      <trkpt lat="45.71837" lon="5.89164">
        <ele>289.851762</ele>
        <time>2021-05-01T00:25:08.010Z</time>
      </trkpt>
      <trkpt lat="45.71818" lon="5.89161">
        <ele>289.515648</ele>
        <time>2021-05-01T00:25:11.714Z</time>
      </trkpt>
      <trkpt lat="45.71801" lon="5.89164">
        <ele>289.210653</ele>
        <time>2021-05-01T00:25:14.944Z</time>
      </trkpt>
      <trkpt lat="45.71771" lon="5.8918">
        <ele>288.633059</ele>
        <time>2021-05-01T00:25:21.873Z</time>
      </trkpt>
      <trkpt lat="45.71665" lon="5.89211">
        <ele>286.741245</ele>
        <time>2021-05-01T00:25:46.755Z</time>
      </trkpt>
      <trkpt lat="45.71657" lon="5.89213">
        <ele>286.850512</ele>
        <time>2021-05-01T00:25:48.849Z</time>
      </trkpt>
      <trkpt lat="45.71665" lon="5.89211">
        <ele>286.959778</ele>
        <time>2021-05-01T00:25:50.886Z</time>
      </trkpt>
      <trkpt lat="45.71771" lon="5.8918">
        <ele>288.496736</ele>
        <time>2021-05-01T00:26:25.616Z</time>
      </trkpt>
      <trkpt lat="45.71801" lon="5.89164">
        <ele>288.954372</ele>
        <time>2021-05-01T00:26:37.117Z</time>
      </trkpt>
      <trkpt lat="45.71818" lon="5.89161">
        <ele>289.196024</ele>
        <time>2021-05-01T00:26:44.861Z</time>
      </trkpt>
      <trkpt lat="45.71837" lon="5.89164">
        <ele>289.969471</ele>
        <time>2021-05-01T00:26:52.606Z</time>
      </trkpt>
      <trkpt lat="45.71838" lon="5.89204">
        <ele>291.350266</ele>
        <time>2021-05-01T00:27:05.964Z</time>
      </trkpt>
      <trkpt lat="45.71841" lon="5.89218">
        <ele>291.864731</ele>
        <time>2021-05-01T00:27:10.176Z</time>
      </trkpt>
      <trkpt lat="45.7186" lon="5.8923">
        <ele>292.90972</ele>
        <time>2021-05-01T00:27:22.244Z</time>
      </trkpt>
      <trkpt lat="45.71878" lon="5.89289">
        <ele>295.148185</ele>
        <time>2021-05-01T00:27:47.465Z</time>
      </trkpt>
      <trkpt lat="45.71889" lon="5.89305">
        <ele>295.953058</ele>
        <time>2021-05-01T00:27:55.172Z</time>
      </trkpt>
      <trkpt lat="45.71896" lon="5.89308">
        <ele>296.34682</ele>
        <time>2021-05-01T00:28:02.160Z</time>
      </trkpt>
      <trkpt lat="45.71913" lon="5.893">
        <ele>297.230576</ele>
        <time>2021-05-01T00:28:11.399Z</time>
      </trkpt>
      <trkpt lat="45.71918" lon="5.89301">
        <ele>297.488059</ele>
        <time>2021-05-01T00:28:13.729Z</time>
      </trkpt>
      <trkpt lat="45.71957" lon="5.89286">
        <ele>299.051966</ele>
        <time>2021-05-01T00:28:35.379Z</time>
      </trkpt>
      <trkpt lat="45.71967" lon="5.89304">
        <ele>299.540665</ele>
        <time>2021-05-01T00:28:46.176Z</time>
      </trkpt>
      <trkpt lat="45.71981" lon="5.89325">
        <ele>300.166728</ele>
        <time>2021-05-01T00:28:52.995Z</time>
      </trkpt>
      <trkpt lat="45.71999" lon="5.89334">
        <ele>300.777599</ele>
        <time>2021-05-01T00:29:04.787Z</time>
      </trkpt>
      <trkpt lat="45.72034" lon="5.89348">
        <ele>301.878372</ele>
        <time>2021-05-01T00:29:20.574Z</time>
      </trkpt>
      <trkpt lat="45.72033" lon="5.89341">
        <ele>302.026027</ele>
        <time>2021-05-01T00:29:21.578Z</time>
      </trkpt>
      <trkpt lat="45.72045" lon="5.89317">
        <ele>302.677618</ele>
        <time>2021-05-01T00:29:28.771Z</time>
      </trkpt>
      <trkpt lat="45.72055" lon="5.89307">
        <ele>303.051176</ele>
        <time>2021-05-01T00:29:33.343Z</time>
      </trkpt>
      <trkpt lat="45.72073" lon="5.89288">
        <ele>303.730183</ele>
        <time>2021-05-01T00:29:39.378Z</time>
      </trkpt>
      <trkpt lat="45.72107" lon="5.89267">
        <ele>303.037309</ele>
        <time>2021-05-01T00:29:49.662Z</time>
      </trkpt>
      <trkpt lat="45.7211" lon="5.89266">
        <ele>302.965702</ele>
        <time>2021-05-01T00:29:50.661Z</time>
      </trkpt>
      <trkpt lat="45.72122" lon="5.8926">
        <ele>302.647006</ele>
        <time>2021-05-01T00:29:53.715Z</time>
      </trkpt>
      <trkpt lat="45.7216" lon="5.89238">
        <ele>301.640362</ele>
        <time>2021-05-01T00:30:02.537Z</time>
      </trkpt>
      <trkpt lat="45.72166" lon="5.89233">
        <ele>301.464881</ele>
        <time>2021-05-01T00:30:03.866Z</time>
      </trkpt>
      <trkpt lat="45.72179" lon="5.89225">
        <ele>301.113954</ele>
        <time>2021-05-01T00:30:06.778Z</time>
      </trkpt>
      <trkpt lat="45.72223" lon="5.89191">
        <ele>299.882016</ele>
        <time>2021-05-01T00:30:16.696Z</time>
      </trkpt>
      <trkpt lat="45.72281" lon="5.89148">
        <ele>297.051555</ele>
        <time>2021-05-01T00:30:29.426Z</time>
      </trkpt>
      <trkpt lat="45.72289" lon="5.89178">
        <ele>295.910889</ele>
        <time>2021-05-01T00:30:33.581Z</time>
      </trkpt>
      <trkpt lat="45.72296" lon="5.89199">
        <ele>295.063153</ele>
        <time>2021-05-01T00:30:36.866Z</time>
      </trkpt>
      <trkpt lat="45.7232" lon="5.89212">
        <ele>293.74304</ele>
        <time>2021-05-01T00:30:41.727Z</time>
      </trkpt>
      <trkpt lat="45.72395" lon="5.89188">
        <ele>289.800222</ele>
        <time>2021-05-01T00:30:55.991Z</time>
      </trkpt>
      <trkpt lat="45.72416" lon="5.89189">
        <ele>288.702505</ele>
        <time>2021-05-01T00:30:59.771Z</time>
      </trkpt>
      <trkpt lat="45.7246" lon="5.89204">
        <ele>286.339731</ele>
        <time>2021-05-01T00:31:08.160Z</time>
      </trkpt>
      <trkpt lat="45.72506" lon="5.89185">
        <ele>283.80695</ele>
        <time>2021-05-01T00:31:17.216Z</time>
      </trkpt>
      <trkpt lat="45.72646" lon="5.89148">
        <ele>277.527408</ele>
        <time>2021-05-01T00:31:44.860Z</time>
      </trkpt>
      <trkpt lat="45.72688" lon="5.89136">
        <ele>275.899472</ele>
        <time>2021-05-01T00:31:53.510Z</time>
      </trkpt>
      <trkpt lat="45.72715" lon="5.89129">
        <ele>274.851376</ele>
        <time>2021-05-01T00:31:59.162Z</time>
      </trkpt>
      <trkpt lat="45.72727" lon="5.89125">
        <ele>274.362289</ele>
        <time>2021-05-01T00:32:01.698Z</time>
      </trkpt>
      <trkpt lat="45.72734" lon="5.89118">
        <ele>274.040992</ele>
        <time>2021-05-01T00:32:03.390Z</time>
      </trkpt>
      <trkpt lat="45.72848" lon="5.89046">
        <ele>270.045276</ele>
        <time>2021-05-01T00:32:29.004Z</time>
      </trkpt>
      <trkpt lat="45.72861" lon="5.89037">
        <ele>269.576775</ele>
        <time>2021-05-01T00:32:32.008Z</time>
      </trkpt>
      <trkpt lat="45.7289" lon="5.89018">
        <ele>268.569835</ele>
        <time>2021-05-01T00:32:38.685Z</time>
      </trkpt>
      <trkpt lat="45.72914" lon="5.89003">
        <ele>267.698996</ele>
        <time>2021-05-01T00:32:43.999Z</time>
      </trkpt>
      <trkpt lat="45.72941" lon="5.88984">
        <ele>266.601576</ele>
        <time>2021-05-01T00:32:49.996Z</time>
      </trkpt>
      <trkpt lat="45.72953" lon="5.88974">
        <ele>266.096386</ele>
        <time>2021-05-01T00:32:52.971Z</time>
      </trkpt>
      <trkpt lat="45.73007" lon="5.88931">
        <ele>263.873259</ele>
        <time>2021-05-01T00:33:05.475Z</time>
      </trkpt>
      <trkpt lat="45.73022" lon="5.8892">
        <ele>263.256917</ele>
        <time>2021-05-01T00:33:09.009Z</time>
      </trkpt>
      <trkpt lat="45.73028" lon="5.88928">
        <ele>262.965511</ele>
        <time>2021-05-01T00:33:10.487Z</time>
      </trkpt>
      <trkpt lat="45.73041" lon="5.88954">
        <ele>262.162214</ele>
        <time>2021-05-01T00:33:15.141Z</time>
      </trkpt>
      <trkpt lat="45.73047" lon="5.88964">
        <ele>261.829754</ele>
        <time>2021-05-01T00:33:16.868Z</time>
      </trkpt>
      <trkpt lat="45.73052" lon="5.88964">
        <ele>261.667399</ele>
        <time>2021-05-01T00:33:17.660Z</time>
      </trkpt>
      <trkpt lat="45.73103" lon="5.88931">
        <ele>258.6689</ele>
        <time>2021-05-01T00:33:28.633Z</time>
      </trkpt>
      <trkpt lat="45.73129" lon="5.88914">
        <ele>257.085215</ele>
        <time>2021-05-01T00:33:34.125Z</time>
      </trkpt>
      <trkpt lat="45.73142" lon="5.88925">
        <ele>256.289643</ele>
        <time>2021-05-01T00:33:36.636Z</time>
      </trkpt>
      <trkpt lat="45.73148" lon="5.88928">
        <ele>255.911015</ele>
        <time>2021-05-01T00:33:37.850Z</time>
      </trkpt>
      <trkpt lat="45.7315" lon="5.88929">
        <ele>255.834437</ele>
        <time>2021-05-01T00:33:38.075Z</time>
      </trkpt>
      <trkpt lat="45.73158" lon="5.88931">
        <ele>255.379129</ele>
        <time>2021-05-01T00:33:39.664Z</time>
      </trkpt>
      <trkpt lat="45.7319" lon="5.88931">
        <ele>253.680499</ele>
        <time>2021-05-01T00:33:45.176Z</time>
      </trkpt>
      <trkpt lat="45.73223" lon="5.8893">
        <ele>251.88913</ele>
        <time>2021-05-01T00:33:51.023Z</time>
      </trkpt>
      <trkpt lat="45.7324" lon="5.88931">
        <ele>251.063271</ele>
        <time>2021-05-01T00:33:54.147Z</time>
      </trkpt>
      <trkpt lat="45.73245" lon="5.88932">
        <ele>250.797309</ele>
        <time>2021-05-01T00:33:55.038Z</time>
      </trkpt>
      <trkpt lat="45.73255" lon="5.88939">
        <ele>250.25922</ele>
        <time>2021-05-01T00:33:57.042Z</time>
      </trkpt>
      <trkpt lat="45.73271" lon="5.88944">
        <ele>249.474421</ele>
        <time>2021-05-01T00:33:59.935Z</time>
      </trkpt>
      <trkpt lat="45.73275" lon="5.88942">
        <ele>249.258797</ele>
        <time>2021-05-01T00:34:00.701Z</time>
      </trkpt>
      <trkpt lat="45.73277" lon="5.88948">
        <ele>249.035905</ele>
        <time>2021-05-01T00:34:01.452Z</time>
      </trkpt>
      <trkpt lat="45.73307" lon="5.88984">
        <ele>247.169339</ele>
        <time>2021-05-01T00:34:08.259Z</time>
      </trkpt>
      <trkpt lat="45.73326" lon="5.88999">
        <ele>246.139242</ele>
        <time>2021-05-01T00:34:12.275Z</time>
      </trkpt>
      <trkpt lat="45.7335" lon="5.89022">
        <ele>244.74299</ele>
        <time>2021-05-01T00:34:17.601Z</time>
      </trkpt>
      <trkpt lat="45.73417" lon="5.89086">
        <ele>244.406085</ele>
        <time>2021-05-01T00:34:34.429Z</time>
      </trkpt>
      <trkpt lat="45.7347" lon="5.89139">
        <ele>245.895473</ele>
        <time>2021-05-01T00:34:53.730Z</time>
      </trkpt>
      <trkpt lat="45.7356" lon="5.89261">
        <ele>252.135702</ele>
        <time>2021-05-01T00:36:12.548Z</time>
      </trkpt>
      <trkpt lat="45.73602" lon="5.89291">
        <ele>255.939954</ele>
        <time>2021-05-01T00:36:45.190Z</time>
      </trkpt>
      <trkpt lat="45.73617" lon="5.89296">
        <ele>257.132441</ele>
        <time>2021-05-01T00:36:58.091Z</time>
      </trkpt>
      <trkpt lat="45.73628" lon="5.89298">
        <ele>258.032599</ele>
        <time>2021-05-01T00:37:06.352Z</time>
      </trkpt>
      <trkpt lat="45.73672" lon="5.89297">
        <ele>261.566403</ele>
        <time>2021-05-01T00:37:32.849Z</time>
      </trkpt>
      <trkpt lat="45.73749" lon="5.89272">
        <ele>263.817463</ele>
        <time>2021-05-01T00:38:18.015Z</time>
      </trkpt>
      <trkpt lat="45.73762" lon="5.89268">
        <ele>264.137143</ele>
        <time>2021-05-01T00:38:26.772Z</time>
      </trkpt>
      <trkpt lat="45.73779" lon="5.8926">
        <ele>264.606973</ele>
        <time>2021-05-01T00:38:32.482Z</time>
      </trkpt>
      <trkpt lat="45.73923" lon="5.89193">
        <ele>264.225085</ele>
        <time>2021-05-01T00:39:03.521Z</time>
      </trkpt>
      <trkpt lat="45.73964" lon="5.89149">
        <ele>262.737404</ele>
        <time>2021-05-01T00:39:13.242Z</time>
      </trkpt>
      <trkpt lat="45.74024" lon="5.89105">
        <ele>260.977625</ele>
        <time>2021-05-01T00:39:26.551Z</time>
      </trkpt>
      <trkpt lat="45.7406" lon="5.89066">
        <ele>260.195493</ele>
        <time>2021-05-01T00:39:35.710Z</time>
      </trkpt>
      <trkpt lat="45.74098" lon="5.89026">
        <ele>259.375812</ele>
        <time>2021-05-01T00:39:46.073Z</time>
      </trkpt>
      <trkpt lat="45.74124" lon="5.88997">
        <ele>258.79838</ele>
        <time>2021-05-01T00:39:53.496Z</time>
      </trkpt>
      <trkpt lat="45.74187" lon="5.88949">
        <ele>258.067774</ele>
        <time>2021-05-01T00:40:10.520Z</time>
      </trkpt>
      <trkpt lat="45.74233" lon="5.88905">
        <ele>257.951365</ele>
        <time>2021-05-01T00:40:25.621Z</time>
      </trkpt>
      <trkpt lat="45.74288" lon="5.88872">
        <ele>257.824752</ele>
        <time>2021-05-01T00:40:41.104Z</time>
      </trkpt>
      <trkpt lat="45.74327" lon="5.88838">
        <ele>257.973234</ele>
        <time>2021-05-01T00:40:53.171Z</time>
      </trkpt>
      <trkpt lat="45.74375" lon="5.88751">
        <ele>259.173076</ele>
        <time>2021-05-01T00:41:14.652Z</time>
      </trkpt>
      <trkpt lat="45.74423" lon="5.88711">
        <ele>260.038656</ele>
        <time>2021-05-01T00:41:35.056Z</time>
      </trkpt>
      <trkpt lat="45.74444" lon="5.88675">
        <ele>260.551916</ele>
        <time>2021-05-01T00:41:48.958Z</time>
      </trkpt>
      <trkpt lat="45.74465" lon="5.88656">
        <ele>261.816211</ele>
        <time>2021-05-01T00:42:00.420Z</time>
      </trkpt>
      <trkpt lat="45.74482" lon="5.88625">
        <ele>263.234586</ele>
        <time>2021-05-01T00:42:13.926Z</time>
      </trkpt>
      <trkpt lat="45.74532" lon="5.88566">
        <ele>266.605932</ele>
        <time>2021-05-01T00:42:49.634Z</time>
      </trkpt>
      <trkpt lat="45.74564" lon="5.88538">
        <ele>268.579861</ele>
        <time>2021-05-01T00:43:11.227Z</time>
      </trkpt>
      <trkpt lat="45.74581" lon="5.8853">
        <ele>269.503089</ele>
        <time>2021-05-01T00:43:21.830Z</time>
      </trkpt>
      <trkpt lat="45.74605" lon="5.88506">
        <ele>270.084029</ele>
        <time>2021-05-01T00:43:37.748Z</time>
      </trkpt>
      <trkpt lat="45.74648" lon="5.88489">
        <ele>270.456547</ele>
        <time>2021-05-01T00:43:58.785Z</time>
      </trkpt>
      <trkpt lat="45.74708" lon="5.88425">
        <ele>271.084388</ele>
        <time>2021-05-01T00:44:20.268Z</time>
      </trkpt>
      <trkpt lat="45.74734" lon="5.88416">
        <ele>271.308548</ele>
        <time>2021-05-01T00:44:25.513Z</time>
      </trkpt>
      <trkpt lat="45.74777" lon="5.88388">
        <ele>268.751356</ele>
        <time>2021-05-01T00:44:34.130Z</time>
      </trkpt>
      <trkpt lat="45.74927" lon="5.88264">
        <ele>256.038368</ele>
        <time>2021-05-01T00:45:02.826Z</time>
      </trkpt>
      <trkpt lat="45.75087" lon="5.88148">
        <ele>245.926616</ele>
        <time>2021-05-01T00:45:34.326Z</time>
      </trkpt>
      <trkpt lat="45.75296" lon="5.8802">
        <ele>242.886609</ele>
        <time>2021-05-01T00:46:30.344Z</time>
      </trkpt>
      <trkpt lat="45.75345" lon="5.88009">
        <ele>242.568907</ele>
        <time>2021-05-01T00:46:43.935Z</time>
      </trkpt>
      <trkpt lat="45.75438" lon="5.87969">
        <ele>241.405682</ele>
        <time>2021-05-01T00:47:05.308Z</time>
      </trkpt>
      <trkpt lat="45.75487" lon="5.87915">
        <ele>240.208353</ele>
        <time>2021-05-01T00:47:18.475Z</time>
      </trkpt>
      <trkpt lat="45.75507" lon="5.87875">
        <ele>239.539352</ele>
        <time>2021-05-01T00:47:25.696Z</time>
      </trkpt>
      <trkpt lat="45.75511" lon="5.87862">
        <ele>239.348178</ele>
        <time>2021-05-01T00:47:27.476Z</time>
      </trkpt>
      <trkpt lat="45.75513" lon="5.87852">
        <ele>239.212778</ele>
        <time>2021-05-01T00:47:29.106Z</time>
      </trkpt>
      <trkpt lat="45.75523" lon="5.87809">
        <ele>238.632378</ele>
        <time>2021-05-01T00:47:35.643Z</time>
      </trkpt>
      <trkpt lat="45.75529" lon="5.87785">
        <ele>238.382094</ele>
        <time>2021-05-01T00:47:39.694Z</time>
      </trkpt>
      <trkpt lat="45.75547" lon="5.87731">
        <ele>237.780017</ele>
        <time>2021-05-01T00:47:48.501Z</time>
      </trkpt>
      <trkpt lat="45.75584" lon="5.87652">
        <ele>236.826096</ele>
        <time>2021-05-01T00:48:02.500Z</time>
      </trkpt>
      <trkpt lat="45.75598" lon="5.87623">
        <ele>236.477332</ele>
        <time>2021-05-01T00:48:08.916Z</time>
      </trkpt>
      <trkpt lat="45.75638" lon="5.87561">
        <ele>236.224207</ele>
        <time>2021-05-01T00:48:25.833Z</time>
      </trkpt>
      <trkpt lat="45.75655" lon="5.87542">
        <ele>236.263926</ele>
        <time>2021-05-01T00:48:31.526Z</time>
      </trkpt>
      <trkpt lat="45.75667" lon="5.87529">
        <ele>236.290581</ele>
        <time>2021-05-01T00:48:36.667Z</time>
      </trkpt>
      <trkpt lat="45.75712" lon="5.87479">
        <ele>236.39246</ele>
        <time>2021-05-01T00:48:50.334Z</time>
      </trkpt>
      <trkpt lat="45.75761" lon="5.87388">
        <ele>237.330154</ele>
        <time>2021-05-01T00:49:14.484Z</time>
      </trkpt>
      <trkpt lat="45.75767" lon="5.87371">
        <ele>237.67603</ele>
        <time>2021-05-01T00:49:19.403Z</time>
      </trkpt>
      <trkpt lat="45.75771" lon="5.87353">
        <ele>238.049398</ele>
        <time>2021-05-01T00:49:23.255Z</time>
      </trkpt>
      <trkpt lat="45.75773" lon="5.87345">
        <ele>238.198224</ele>
        <time>2021-05-01T00:49:25.425Z</time>
      </trkpt>
      <trkpt lat="45.75781" lon="5.87303">
        <ele>239.029897</ele>
        <time>2021-05-01T00:49:36.435Z</time>
      </trkpt>
      <trkpt lat="45.75787" lon="5.87268">
        <ele>239.721069</ele>
        <time>2021-05-01T00:49:47.190Z</time>
      </trkpt>
      <trkpt lat="45.75799" lon="5.87211">
        <ele>240.870171</ele>
        <time>2021-05-01T00:50:05.950Z</time>
      </trkpt>
      <trkpt lat="45.7582" lon="5.87173">
        <ele>242.243798</ele>
        <time>2021-05-01T00:50:22.996Z</time>
      </trkpt>
      <trkpt lat="45.75877" lon="5.87123">
        <ele>246.329216</ele>
        <time>2021-05-01T00:51:00.953Z</time>
      </trkpt>
      <trkpt lat="45.75933" lon="5.87064">
        <ele>250.594995</ele>
        <time>2021-05-01T00:51:44.059Z</time>
      </trkpt>
      <trkpt lat="45.75951" lon="5.8706">
        <ele>251.732712</ele>
        <time>2021-05-01T00:51:55.414Z</time>
      </trkpt>
      <trkpt lat="45.75978" lon="5.87075">
        <ele>252.64056</ele>
        <time>2021-05-01T00:52:12.136Z</time>
      </trkpt>
      <trkpt lat="45.76073" lon="5.87076">
        <ele>253.902828</ele>
        <time>2021-05-01T00:52:48.927Z</time>
      </trkpt>
      <trkpt lat="45.76137" lon="5.87063">
        <ele>254.772855</ele>
        <time>2021-05-01T00:53:03.308Z</time>
      </trkpt>
      <trkpt lat="45.76149" lon="5.8706">
        <ele>254.428007</ele>
        <time>2021-05-01T00:53:05.338Z</time>
      </trkpt>
      <trkpt lat="45.76162" lon="5.87058">
        <ele>253.915493</ele>
        <time>2021-05-01T00:53:07.866Z</time>
      </trkpt>
      <trkpt lat="45.76292" lon="5.87039">
        <ele>248.623047</ele>
        <time>2021-05-01T00:53:31.503Z</time>
      </trkpt>
      <trkpt lat="45.76356" lon="5.87033">
        <ele>247.493974</ele>
        <time>2021-05-01T00:53:44.326Z</time>
      </trkpt>
      <trkpt lat="45.76369" lon="5.87033">
        <ele>247.482249</ele>
        <time>2021-05-01T00:53:46.870Z</time>
      </trkpt>
      <trkpt lat="45.76376" lon="5.87033">
        <ele>247.474897</ele>
        <time>2021-05-01T00:53:48.806Z</time>
      </trkpt>
      <trkpt lat="45.76597" lon="5.87044">
        <ele>249.367057</ele>
        <time>2021-05-01T00:55:02.369Z</time>
      </trkpt>
      <trkpt lat="45.76666" lon="5.8704">
        <ele>250.771276</ele>
        <time>2021-05-01T00:55:30.537Z</time>
      </trkpt>
      <trkpt lat="45.76734" lon="5.87026">
        <ele>252.177794</ele>
        <time>2021-05-01T00:55:58.047Z</time>
      </trkpt>
      <trkpt lat="45.76835" lon="5.86988">
        <ele>254.279464</ele>
        <time>2021-05-01T00:56:34.027Z</time>
      </trkpt>
      <trkpt lat="45.77002" lon="5.86909">
        <ele>258.337448</ele>
        <time>2021-05-01T00:57:33.796Z</time>
      </trkpt>
      <trkpt lat="45.77036" lon="5.86894">
        <ele>259.827015</ele>
        <time>2021-05-01T00:57:51.775Z</time>
      </trkpt>
      <trkpt lat="45.77066" lon="5.86876">
        <ele>262.306357</ele>
        <time>2021-05-01T00:58:10.426Z</time>
      </trkpt>
      <trkpt lat="45.77075" lon="5.86869">
        <ele>263.07727</ele>
        <time>2021-05-01T00:58:15.510Z</time>
      </trkpt>
      <trkpt lat="45.77099" lon="5.86852">
        <ele>265.063458</ele>
        <time>2021-05-01T00:58:33.004Z</time>
      </trkpt>
      <trkpt lat="45.7718" lon="5.86806">
        <ele>271.654202</ele>
        <time>2021-05-01T00:59:37.870Z</time>
      </trkpt>
      <trkpt lat="45.77243" lon="5.86778">
        <ele>273.845681</ele>
        <time>2021-05-01T01:00:20.078Z</time>
      </trkpt>
      <trkpt lat="45.77289" lon="5.86761">
        <ele>275.045836</ele>
        <time>2021-05-01T01:00:40.941Z</time>
      </trkpt>
      <trkpt lat="45.77319" lon="5.8675">
        <ele>275.830075</ele>
        <time>2021-05-01T01:00:50.427Z</time>
      </trkpt>
      <trkpt lat="45.77349" lon="5.86739">
        <ele>276.621277</ele>
        <time>2021-05-01T01:00:57.451Z</time>
      </trkpt>
      <trkpt lat="45.77497" lon="5.8665">
        <ele>268.587543</ele>
        <time>2021-05-01T01:01:25.428Z</time>
      </trkpt>
      <trkpt lat="45.77731" lon="5.86527">
        <ele>255.539122</ele>
        <time>2021-05-01T01:02:09.177Z</time>
      </trkpt>
      <trkpt lat="45.77813" lon="5.8649">
        <ele>254.614412</ele>
        <time>2021-05-01T01:02:29.378Z</time>
      </trkpt>
      <trkpt lat="45.77896" lon="5.86461">
        <ele>254.399699</ele>
        <time>2021-05-01T01:03:00.126Z</time>
      </trkpt>
      <trkpt lat="45.77926" lon="5.86478">
        <ele>254.929003</ele>
        <time>2021-05-01T01:03:13.659Z</time>
      </trkpt>
      <trkpt lat="45.77944" lon="5.8648">
        <ele>255.23277</ele>
        <time>2021-05-01T01:03:21.249Z</time>
      </trkpt>
      <trkpt lat="45.78071" lon="5.86448">
        <ele>256.761799</ele>
        <time>2021-05-01T01:04:03.207Z</time>
      </trkpt>
      <trkpt lat="45.7812" lon="5.86422">
        <ele>256.441113</ele>
        <time>2021-05-01T01:04:16.199Z</time>
      </trkpt>
      <trkpt lat="45.78144" lon="5.86407">
        <ele>256.281211</ele>
        <time>2021-05-01T01:04:21.985Z</time>
      </trkpt>
      <trkpt lat="45.78197" lon="5.86381">
        <ele>255.935957</ele>
        <time>2021-05-01T01:04:34.529Z</time>
      </trkpt>
      <trkpt lat="45.78235" lon="5.86366">
        <ele>255.773052</ele>
        <time>2021-05-01T01:04:43.017Z</time>
      </trkpt>
      <trkpt lat="45.7832" lon="5.86347">
        <ele>255.595522</ele>
        <time>2021-05-01T01:05:03.091Z</time>
      </trkpt>
      <trkpt lat="45.78436" lon="5.8625">
        <ele>256.966873</ele>
        <time>2021-05-01T01:05:45.650Z</time>
      </trkpt>
      <trkpt lat="45.7865" lon="5.86123">
        <ele>264.786098</ele>
        <time>2021-05-01T01:07:24.380Z</time>
      </trkpt>
      <trkpt lat="45.78688" lon="5.86109">
        <ele>266.498707</ele>
        <time>2021-05-01T01:07:45.208Z</time>
      </trkpt>
      <trkpt lat="45.78796" lon="5.86093">
        <ele>272.983461</ele>
        <time>2021-05-01T01:08:46.638Z</time>
      </trkpt>
      <trkpt lat="45.78956" lon="5.8607">
        <ele>283.054797</ele>
        <time>2021-05-01T01:10:23.937Z</time>
      </trkpt>
      <trkpt lat="45.79055" lon="5.86055">
        <ele>288.711578</ele>
        <time>2021-05-01T01:11:17.080Z</time>
      </trkpt>
      <trkpt lat="45.79197" lon="5.86034">
        <ele>293.225905</ele>
        <time>2021-05-01T01:12:18.018Z</time>
      </trkpt>
      <trkpt lat="45.79368" lon="5.86004">
        <ele>295.245744</ele>
        <time>2021-05-01T01:13:13.462Z</time>
      </trkpt>
      <trkpt lat="45.79388" lon="5.86">
        <ele>295.32525</ele>
        <time>2021-05-01T01:13:18.587Z</time>
      </trkpt>
      <trkpt lat="45.79442" lon="5.85992">
        <ele>295.220782</ele>
        <time>2021-05-01T01:13:31.308Z</time>
      </trkpt>
      <trkpt lat="45.7952" lon="5.85979">
        <ele>293.013623</ele>
        <time>2021-05-01T01:13:47.917Z</time>
      </trkpt>
      <trkpt lat="45.79643" lon="5.85938">
        <ele>288.642402</ele>
        <time>2021-05-01T01:14:11.896Z</time>
      </trkpt>
      <trkpt lat="45.79721" lon="5.8592">
        <ele>284.623159</ele>
        <time>2021-05-01T01:14:25.949Z</time>
      </trkpt>
      <trkpt lat="45.79813" lon="5.85903">
        <ele>279.639062</ele>
        <time>2021-05-01T01:14:42.461Z</time>
      </trkpt>
      <trkpt lat="45.7984" lon="5.85887">
        <ele>277.927587</ele>
        <time>2021-05-01T01:14:47.580Z</time>
      </trkpt>
      <trkpt lat="45.79892" lon="5.85856">
        <ele>274.617832</ele>
        <time>2021-05-01T01:14:57.530Z</time>
      </trkpt>
      <trkpt lat="45.79919" lon="5.85839">
        <ele>272.89396</ele>
        <time>2021-05-01T01:15:02.718Z</time>
      </trkpt>
      <trkpt lat="45.79968" lon="5.8581">
        <ele>269.85847</ele>
        <time>2021-05-01T01:15:12.115Z</time>
      </trkpt>
      <trkpt lat="45.80107" lon="5.85726">
        <ele>262.018272</ele>
        <time>2021-05-01T01:15:39.267Z</time>
      </trkpt>
      <trkpt lat="45.80146" lon="5.85702">
        <ele>260.086588</ele>
        <time>2021-05-01T01:15:47.022Z</time>
      </trkpt>
      <trkpt lat="45.80203" lon="5.85687">
        <ele>257.641759</ele>
        <time>2021-05-01T01:15:57.715Z</time>
      </trkpt>
      <trkpt lat="45.80235" lon="5.85678">
        <ele>256.254475</ele>
        <time>2021-05-01T01:16:03.835Z</time>
      </trkpt>
      <trkpt lat="45.80371" lon="5.85518">
        <ele>250.41711</ele>
        <time>2021-05-01T01:16:37.635Z</time>
      </trkpt>
      <trkpt lat="45.80534" lon="5.85445">
        <ele>247.27332</ele>
        <time>2021-05-01T01:17:14.240Z</time>
      </trkpt>
      <trkpt lat="45.80561" lon="5.85425">
        <ele>246.898746</ele>
        <time>2021-05-01T01:17:21.762Z</time>
      </trkpt>
      <trkpt lat="45.80625" lon="5.85363">
        <ele>246.322651</ele>
        <time>2021-05-01T01:17:41.567Z</time>
      </trkpt>
      <trkpt lat="45.80796" lon="5.85324">
        <ele>246.105584</ele>
        <time>2021-05-01T01:18:26.872Z</time>
      </trkpt>
      <trkpt lat="45.80819" lon="5.85303">
        <ele>246.139201</ele>
        <time>2021-05-01T01:18:34.261Z</time>
      </trkpt>
      <trkpt lat="45.80863" lon="5.85263">
        <ele>246.201483</ele>
        <time>2021-05-01T01:18:48.035Z</time>
      </trkpt>
      <trkpt lat="45.80965" lon="5.85169">
        <ele>246.559545</ele>
        <time>2021-05-01T01:19:21.819Z</time>
      </trkpt>
      <trkpt lat="45.80988" lon="5.85148">
        <ele>246.717125</ele>
        <time>2021-05-01T01:19:29.972Z</time>
      </trkpt>
      <trkpt lat="45.8103" lon="5.8511">
        <ele>246.997325</ele>
        <time>2021-05-01T01:19:45.178Z</time>
      </trkpt>
      <trkpt lat="45.81036" lon="5.85105">
        <ele>247.034826</ele>
        <time>2021-05-01T01:19:47.432Z</time>
      </trkpt>
      <trkpt lat="45.81058" lon="5.85089">
        <ele>247.173051</ele>
        <time>2021-05-01T01:19:54.483Z</time>
      </trkpt>
      <trkpt lat="45.81063" lon="5.85091">
        <ele>247.202842</ele>
        <time>2021-05-01T01:19:56.104Z</time>
      </trkpt>
      <trkpt lat="45.81068" lon="5.85091">
        <ele>247.232336</ele>
        <time>2021-05-01T01:19:57.993Z</time>
      </trkpt>
      <trkpt lat="45.81073" lon="5.85087">
        <ele>247.262261</ele>
        <time>2021-05-01T01:19:59.534Z</time>
      </trkpt>
      <trkpt lat="45.81078" lon="5.85077">
        <ele>247.310625</ele>
        <time>2021-05-01T01:20:02.671Z</time>
      </trkpt>
      <trkpt lat="45.81079" lon="5.85071">
        <ele>247.319213</ele>
        <time>2021-05-01T01:20:03.792Z</time>
      </trkpt>
      <trkpt lat="45.81082" lon="5.85062">
        <ele>247.332759</ele>
        <time>2021-05-01T01:20:05.636Z</time>
      </trkpt>
      <trkpt lat="45.81088" lon="5.85053">
        <ele>247.350079</ele>
        <time>2021-05-01T01:20:08.244Z</time>
      </trkpt>
      <trkpt lat="45.8109" lon="5.85052">
        <ele>247.354932</ele>
        <time>2021-05-01T01:20:09.205Z</time>
      </trkpt>
      <trkpt lat="45.81152" lon="5.85003">
        <ele>247.498556</ele>
        <time>2021-05-01T01:20:28.940Z</time>
      </trkpt>
      <trkpt lat="45.81182" lon="5.84992">
        <ele>247.56258</ele>
        <time>2021-05-01T01:20:36.958Z</time>
      </trkpt>
      <trkpt lat="45.81207" lon="5.84986">
        <ele>247.613055</ele>
        <time>2021-05-01T01:20:43.247Z</time>
      </trkpt>
      <trkpt lat="45.81213" lon="5.84984">
        <ele>247.626934</ele>
        <time>2021-05-01T01:20:44.826Z</time>
      </trkpt>
      <trkpt lat="45.81244" lon="5.84978">
        <ele>247.747075</ele>
        <time>2021-05-01T01:20:52.986Z</time>
      </trkpt>
      <trkpt lat="45.81324" lon="5.8496">
        <ele>248.505274</ele>
        <time>2021-05-01T01:21:16.418Z</time>
      </trkpt>
      <trkpt lat="45.81368" lon="5.8495">
        <ele>248.91226</ele>
        <time>2021-05-01T01:21:30.276Z</time>
      </trkpt>
      <trkpt lat="45.81395" lon="5.84944">
        <ele>249.171884</ele>
        <time>2021-05-01T01:21:39.407Z</time>
      </trkpt>
      <trkpt lat="45.81417" lon="5.84939">
        <ele>249.458516</ele>
        <time>2021-05-01T01:21:46.767Z</time>
      </trkpt>
      <trkpt lat="45.81443" lon="5.84935">
        <ele>250.459232</ele>
        <time>2021-05-01T01:21:57.385Z</time>
      </trkpt>
      <trkpt lat="45.8148" lon="5.84935">
        <ele>251.890697</ele>
        <time>2021-05-01T01:22:12.741Z</time>
      </trkpt>
      <trkpt lat="45.8156" lon="5.84951">
        <ele>255.029182</ele>
        <time>2021-05-01T01:22:50.750Z</time>
      </trkpt>
      <trkpt lat="45.8159" lon="5.84956">
        <ele>256.207986</ele>
        <time>2021-05-01T01:23:07.723Z</time>
      </trkpt>
      <trkpt lat="45.81625" lon="5.84953">
        <ele>258.075774</ele>
        <time>2021-05-01T01:23:25.563Z</time>
      </trkpt>
      <trkpt lat="45.81682" lon="5.84935">
        <ele>261.373361</ele>
        <time>2021-05-01T01:23:56.406Z</time>
      </trkpt>
      <trkpt lat="45.81691" lon="5.84933">
        <ele>261.861776</ele>
        <time>2021-05-01T01:24:01.735Z</time>
      </trkpt>
      <trkpt lat="45.8173" lon="5.84922">
        <ele>264.085794</ele>
        <time>2021-05-01T01:24:23.541Z</time>
      </trkpt>
      <trkpt lat="45.81775" lon="5.84906">
        <ele>266.622878</ele>
        <time>2021-05-01T01:24:48.179Z</time>
      </trkpt>
      <trkpt lat="45.81798" lon="5.84889">
        <ele>267.995067</ele>
        <time>2021-05-01T01:25:01.817Z</time>
      </trkpt>
      <trkpt lat="45.81801" lon="5.84885">
        <ele>268.228319</ele>
        <time>2021-05-01T01:25:05.287Z</time>
      </trkpt>
      <trkpt lat="45.81821" lon="5.84863">
        <ele>269.562709</ele>
        <time>2021-05-01T01:25:18.104Z</time>
      </trkpt>
      <trkpt lat="45.81832" lon="5.84854">
        <ele>270.218466</ele>
        <time>2021-05-01T01:25:26.514Z</time>
      </trkpt>
      <trkpt lat="45.8185" lon="5.84842">
        <ele>271.283332</ele>
        <time>2021-05-01T01:25:35.875Z</time>
      </trkpt>
      <trkpt lat="45.81855" lon="5.84839">
        <ele>271.579509</ele>
        <time>2021-05-01T01:25:38.869Z</time>
      </trkpt>
      <trkpt lat="45.81905" lon="5.84818">
        <ele>274.314695</ele>
        <time>2021-05-01T01:26:05.602Z</time>
      </trkpt>
      <trkpt lat="45.81918" lon="5.84813">
        <ele>275.050527</ele>
        <time>2021-05-01T01:26:11.388Z</time>
      </trkpt>
      <trkpt lat="45.81926" lon="5.84809">
        <ele>275.477144</ele>
        <time>2021-05-01T01:26:15.221Z</time>
      </trkpt>
      <trkpt lat="45.81941" lon="5.84804">
        <ele>276.170882</ele>
        <time>2021-05-01T01:26:23.999Z</time>
      </trkpt>
      <trkpt lat="45.81945" lon="5.84806">
        <ele>276.31918</ele>
        <time>2021-05-01T01:26:25.766Z</time>
      </trkpt>
      <trkpt lat="45.81949" lon="5.84805">
        <ele>276.46439</ele>
        <time>2021-05-01T01:26:27.785Z</time>
      </trkpt>
      <trkpt lat="45.81952" lon="5.84802">
        <ele>276.602353</ele>
        <time>2021-05-01T01:26:29.640Z</time>
      </trkpt>
      <trkpt lat="45.81954" lon="5.84797">
        <ele>276.739167</ele>
        <time>2021-05-01T01:26:31.729Z</time>
      </trkpt>
      <trkpt lat="45.81955" lon="5.84792">
        <ele>276.873544</ele>
        <time>2021-05-01T01:26:33.866Z</time>
      </trkpt>
      <trkpt lat="45.81966" lon="5.8479">
        <ele>277.270237</ele>
        <time>2021-05-01T01:26:39.547Z</time>
      </trkpt>
      <trkpt lat="45.8208" lon="5.84747">
        <ele>281.401943</ele>
        <time>2021-05-01T01:27:31.254Z</time>
      </trkpt>
      <trkpt lat="45.82087" lon="5.84745">
        <ele>281.666033</ele>
        <time>2021-05-01T01:27:34.255Z</time>
      </trkpt>
      <trkpt lat="45.82095" lon="5.84744">
        <ele>281.946791</ele>
        <time>2021-05-01T01:27:37.174Z</time>
      </trkpt>
      <trkpt lat="45.82138" lon="5.84739">
        <ele>282.209546</ele>
        <time>2021-05-01T01:27:51.377Z</time>
      </trkpt>
      <trkpt lat="45.82143" lon="5.84738">
        <ele>282.21509</ele>
        <time>2021-05-01T01:27:52.880Z</time>
      </trkpt>
      <trkpt lat="45.8215" lon="5.84737">
        <ele>282.223505</ele>
        <time>2021-05-01T01:27:54.901Z</time>
      </trkpt>
      <trkpt lat="45.82179" lon="5.84726">
        <ele>282.257577</ele>
        <time>2021-05-01T01:28:04.344Z</time>
      </trkpt>
      <trkpt lat="45.82209" lon="5.84714">
        <ele>282.29234</ele>
        <time>2021-05-01T01:28:13.115Z</time>
      </trkpt>
      <trkpt lat="45.82246" lon="5.84697">
        <ele>282.337222</ele>
        <time>2021-05-01T01:28:22.750Z</time>
      </trkpt>
      <trkpt lat="45.82303" lon="5.84654">
        <ele>281.240566</ele>
        <time>2021-05-01T01:28:36.284Z</time>
      </trkpt>
      <trkpt lat="45.82336" lon="5.84622">
        <ele>279.916489</ele>
        <time>2021-05-01T01:28:43.990Z</time>
      </trkpt>
      <trkpt lat="45.8235" lon="5.84606">
        <ele>279.305742</ele>
        <time>2021-05-01T01:28:47.445Z</time>
      </trkpt>
      <trkpt lat="45.82407" lon="5.8453">
        <ele>276.685821</ele>
        <time>2021-05-01T01:29:02.174Z</time>
      </trkpt>
      <trkpt lat="45.82507" lon="5.84422">
        <ele>270.791434</ele>
        <time>2021-05-01T01:29:25.178Z</time>
      </trkpt>
      <trkpt lat="45.82682" lon="5.84353">
        <ele>262.145813</ele>
        <time>2021-05-01T01:29:57.906Z</time>
      </trkpt>
      <trkpt lat="45.82734" lon="5.84325">
        <ele>259.542128</ele>
        <time>2021-05-01T01:30:08.103Z</time>
      </trkpt>
      <trkpt lat="45.82758" lon="5.84307">
        <ele>258.583136</ele>
        <time>2021-05-01T01:30:13.269Z</time>
      </trkpt>
      <trkpt lat="45.82773" lon="5.84295">
        <ele>258.098387</ele>
        <time>2021-05-01T01:30:16.466Z</time>
      </trkpt>
      <trkpt lat="45.82824" lon="5.8427">
        <ele>256.529769</ele>
        <time>2021-05-01T01:30:27.078Z</time>
      </trkpt>
      <trkpt lat="45.82909" lon="5.84271">
        <ele>254.071547</ele>
        <time>2021-05-01T01:30:44.327Z</time>
      </trkpt>
      <trkpt lat="45.8294" lon="5.84271">
        <ele>253.475765</ele>
        <time>2021-05-01T01:30:51.478Z</time>
      </trkpt>
      <trkpt lat="45.82943" lon="5.84271">
        <ele>253.434017</ele>
        <time>2021-05-01T01:30:51.977Z</time>
      </trkpt>
      <trkpt lat="45.8299" lon="5.84278">
        <ele>252.636394</ele>
        <time>2021-05-01T01:31:02.696Z</time>
      </trkpt>
      <trkpt lat="45.83001" lon="5.8428">
        <ele>252.460067</ele>
        <time>2021-05-01T01:31:05.037Z</time>
      </trkpt>
      <trkpt lat="45.83006" lon="5.8428">
        <ele>252.377713</ele>
        <time>2021-05-01T01:31:06.164Z</time>
      </trkpt>
      <trkpt lat="45.83022" lon="5.84284">
        <ele>252.099672</ele>
        <time>2021-05-01T01:31:09.770Z</time>
      </trkpt>
      <trkpt lat="45.83054" lon="5.84283">
        <ele>251.575235</ele>
        <time>2021-05-01T01:31:16.649Z</time>
      </trkpt>
      <trkpt lat="45.83296" lon="5.84198">
        <ele>246.973957</ele>
        <time>2021-05-01T01:32:09.433Z</time>
      </trkpt>
      <trkpt lat="45.83325" lon="5.84177">
        <ele>246.460073</ele>
        <time>2021-05-01T01:32:16.204Z</time>
      </trkpt>
      <trkpt lat="45.83442" lon="5.84069">
        <ele>244.810521</ele>
        <time>2021-05-01T01:32:46.964Z</time>
      </trkpt>
      <trkpt lat="45.8348" lon="5.84048">
        <ele>245.193786</ele>
        <time>2021-05-01T01:32:57.537Z</time>
      </trkpt>
      <trkpt lat="45.83692" lon="5.83942">
        <ele>247.910538</ele>
        <time>2021-05-01T01:34:18.214Z</time>
      </trkpt>
      <trkpt lat="45.83706" lon="5.83935">
        <ele>248.135447</ele>
        <time>2021-05-01T01:34:23.171Z</time>
      </trkpt>
      <trkpt lat="45.83713" lon="5.83932">
        <ele>248.244729</ele>
        <time>2021-05-01T01:34:26.106Z</time>
      </trkpt>
      <trkpt lat="45.83744" lon="5.83927">
        <ele>248.711798</ele>
        <time>2021-05-01T01:34:35.728Z</time>
      </trkpt>
      <trkpt lat="45.83783" lon="5.83922">
        <ele>248.87163</ele>
        <time>2021-05-01T01:34:47.730Z</time>
      </trkpt>
      <trkpt lat="45.83795" lon="5.83921">
        <ele>248.788557</ele>
        <time>2021-05-01T01:34:50.905Z</time>
      </trkpt>
      <trkpt lat="45.838" lon="5.83921">
        <ele>248.754089</ele>
        <time>2021-05-01T01:34:52.184Z</time>
      </trkpt>
      <trkpt lat="45.83798" lon="5.83877">
        <ele>248.539789</ele>
        <time>2021-05-01T01:35:00.748Z</time>
      </trkpt>
      <trkpt lat="45.838" lon="5.8379">
        <ele>248.113211</ele>
        <time>2021-05-01T01:35:25.780Z</time>
      </trkpt>
      <trkpt lat="45.83802" lon="5.83613">
        <ele>246.415745</ele>
        <time>2021-05-01T01:36:12.533Z</time>
      </trkpt>
      <trkpt lat="45.83798" lon="5.83365">
        <ele>243.154785</ele>
        <time>2021-05-01T01:37:18.582Z</time>
      </trkpt>
      <trkpt lat="45.83775" lon="5.83104">
        <ele>239.771903</ele>
        <time>2021-05-01T01:38:28.356Z</time>
      </trkpt>
      <trkpt lat="45.83772" lon="5.83081">
        <ele>239.497478</ele>
        <time>2021-05-01T01:38:34.509Z</time>
      </trkpt>
      <trkpt lat="45.83771" lon="5.83068">
        <ele>239.335958</ele>
        <time>2021-05-01T01:38:38.099Z</time>
      </trkpt>
      <trkpt lat="45.83755" lon="5.8298">
        <ele>238.252275</ele>
        <time>2021-05-01T01:39:02.737Z</time>
      </trkpt>
      <trkpt lat="45.83744" lon="5.82859">
        <ele>237.408034</ele>
        <time>2021-05-01T01:39:36.612Z</time>
      </trkpt>
      <trkpt lat="45.83744" lon="5.82818">
        <ele>237.202438</ele>
        <time>2021-05-01T01:39:48.532Z</time>
      </trkpt>
      <trkpt lat="45.83744" lon="5.82807">
        <ele>237.147508</ele>
        <time>2021-05-01T01:39:51.813Z</time>
      </trkpt>
      <trkpt lat="45.83747" lon="5.82636">
        <ele>236.523201</ele>
        <time>2021-05-01T01:40:43.065Z</time>
      </trkpt>
      <trkpt lat="45.83747" lon="5.82626">
        <ele>236.518184</ele>
        <time>2021-05-01T01:40:45.923Z</time>
      </trkpt>
      <trkpt lat="45.83748" lon="5.82565">
        <ele>236.48563</ele>
        <time>2021-05-01T01:41:04.839Z</time>
      </trkpt>
      <trkpt lat="45.8375" lon="5.82374">
        <ele>236.462188</ele>
        <time>2021-05-01T01:42:04.263Z</time>
      </trkpt>
      <trkpt lat="45.83753" lon="5.82225">
        <ele>236.589731</ele>
        <time>2021-05-01T01:42:51.649Z</time>
      </trkpt>
      <trkpt lat="45.83753" lon="5.82214">
        <ele>236.599249</ele>
        <time>2021-05-01T01:42:55.112Z</time>
      </trkpt>
      <trkpt lat="45.83753" lon="5.82132">
        <ele>236.640006</ele>
        <time>2021-05-01T01:43:21.296Z</time>
      </trkpt>
      <trkpt lat="45.83757" lon="5.81954">
        <ele>236.661504</ele>
        <time>2021-05-01T01:44:16.311Z</time>
      </trkpt>
      <trkpt lat="45.83757" lon="5.81793">
        <ele>236.948201</ele>
        <time>2021-05-01T01:45:05.997Z</time>
      </trkpt>
      <trkpt lat="45.83761" lon="5.81651">
        <ele>237.279634</ele>
        <time>2021-05-01T01:45:53.521Z</time>
      </trkpt>
      <trkpt lat="45.83773" lon="5.81597">
        <ele>237.404273</ele>
        <time>2021-05-01T01:46:12.746Z</time>
      </trkpt>
      <trkpt lat="45.83771" lon="5.81537">
        <ele>237.537781</ele>
        <time>2021-05-01T01:46:32.281Z</time>
      </trkpt>
      <trkpt lat="45.83768" lon="5.81466">
        <ele>237.694926</ele>
        <time>2021-05-01T01:46:55.205Z</time>
      </trkpt>
      <trkpt lat="45.83766" lon="5.81391">
        <ele>237.790105</ele>
        <time>2021-05-01T01:47:09.585Z</time>
      </trkpt>
      <trkpt lat="45.83765" lon="5.81341">
        <ele>237.530512</ele>
        <time>2021-05-01T01:47:19.016Z</time>
      </trkpt>
      <trkpt lat="45.83764" lon="5.81336">
        <ele>237.507548</ele>
        <time>2021-05-01T01:47:19.623Z</time>
      </trkpt>
      <trkpt lat="45.83772" lon="5.81086">
        <ele>236.442287</ele>
        <time>2021-05-01T01:48:02.552Z</time>
      </trkpt>
      <trkpt lat="45.83775" lon="5.81043">
        <ele>236.38151</ele>
        <time>2021-05-01T01:48:10.488Z</time>
      </trkpt>
      <trkpt lat="45.8379" lon="5.81039">
        <ele>236.348556</ele>
        <time>2021-05-01T01:48:14.563Z</time>
      </trkpt>
      <trkpt lat="45.83925" lon="5.80978">
        <ele>236.381695</ele>
        <time>2021-05-01T01:48:53.534Z</time>
      </trkpt>
      <trkpt lat="45.84023" lon="5.80955">
        <ele>236.849298</ele>
        <time>2021-05-01T01:49:22.316Z</time>
      </trkpt>
      <trkpt lat="45.84265" lon="5.80969">
        <ele>238.248588</ele>
        <time>2021-05-01T01:50:34.268Z</time>
      </trkpt>
      <trkpt lat="45.84322" lon="5.8096">
        <ele>238.521538</ele>
        <time>2021-05-01T01:50:50.995Z</time>
      </trkpt>
      <trkpt lat="45.844" lon="5.80926">
        <ele>238.906559</ele>
        <time>2021-05-01T01:51:14.791Z</time>
      </trkpt>
      <trkpt lat="45.84507" lon="5.80845">
        <ele>239.000099</ele>
        <time>2021-05-01T01:51:47.818Z</time>
      </trkpt>
      <trkpt lat="45.84521" lon="5.80838">
        <ele>239.005089</ele>
        <time>2021-05-01T01:51:52.304Z</time>
      </trkpt>
      <trkpt lat="45.84524" lon="5.80842">
        <ele>239.006364</ele>
        <time>2021-05-01T01:51:53.150Z</time>
      </trkpt>
      <trkpt lat="45.84539" lon="5.80839">
        <ele>239.011261</ele>
        <time>2021-05-01T01:51:57.075Z</time>
      </trkpt>
      <trkpt lat="45.84584" lon="5.80821">
        <ele>239.001908</ele>
        <time>2021-05-01T01:52:09.180Z</time>
      </trkpt>
      <trkpt lat="45.84723" lon="5.80773">
        <ele>238.714213</ele>
        <time>2021-05-01T01:52:45.351Z</time>
      </trkpt>
      <trkpt lat="45.84758" lon="5.80766">
        <ele>238.664122</ele>
        <time>2021-05-01T01:52:54.854Z</time>
      </trkpt>
      <trkpt lat="45.84812" lon="5.80743">
        <ele>238.685065</ele>
        <time>2021-05-01T01:53:10.177Z</time>
      </trkpt>
      <trkpt lat="45.84825" lon="5.80743">
        <ele>238.689998</ele>
        <time>2021-05-01T01:53:13.915Z</time>
      </trkpt>
      <trkpt lat="45.84841" lon="5.80765">
        <ele>238.698017</ele>
        <time>2021-05-01T01:53:19.612Z</time>
      </trkpt>
      <trkpt lat="45.84846" lon="5.80767">
        <ele>238.699978</ele>
        <time>2021-05-01T01:53:21.542Z</time>
      </trkpt>
      <trkpt lat="45.84848" lon="5.80749">
        <ele>238.704536</ele>
        <time>2021-05-01T01:53:24.619Z</time>
      </trkpt>
      <trkpt lat="45.84851" lon="5.80748">
        <ele>238.705691</ele>
        <time>2021-05-01T01:53:25.439Z</time>
      </trkpt>
      <trkpt lat="45.84857" lon="5.80739">
        <ele>238.709009</ele>
        <time>2021-05-01T01:53:27.844Z</time>
      </trkpt>
      <trkpt lat="45.84857" lon="5.80734">
        <ele>238.71015</ele>
        <time>2021-05-01T01:53:28.703Z</time>
      </trkpt>
      <trkpt lat="45.84857" lon="5.8073">
        <ele>238.711289</ele>
        <time>2021-05-01T01:53:29.455Z</time>
      </trkpt>
      <trkpt lat="45.84853" lon="5.80721">
        <ele>238.714051</ele>
        <time>2021-05-01T01:53:31.949Z</time>
      </trkpt>
      <trkpt lat="45.8485" lon="5.80718">
        <ele>238.715441</ele>
        <time>2021-05-01T01:53:32.860Z</time>
      </trkpt>
      <trkpt lat="45.84853" lon="5.80703">
        <ele>238.719366</ele>
        <time>2021-05-01T01:53:35.550Z</time>
      </trkpt>
      <trkpt lat="45.84855" lon="5.80684">
        <ele>238.724329</ele>
        <time>2021-05-01T01:53:39.088Z</time>
      </trkpt>
      <trkpt lat="45.84887" lon="5.80401">
        <ele>238.323905</ele>
        <time>2021-05-01T01:54:30.414Z</time>
      </trkpt>
      <trkpt lat="45.84904" lon="5.80249">
        <ele>238.184582</ele>
        <time>2021-05-01T01:54:57.982Z</time>
      </trkpt>
      <trkpt lat="45.84929" lon="5.80031">
        <ele>237.93349</ele>
        <time>2021-05-01T01:55:39.286Z</time>
      </trkpt>
      <trkpt lat="45.84944" lon="5.79908">
        <ele>237.77242</ele>
        <time>2021-05-01T01:56:01.356Z</time>
      </trkpt>
      <trkpt lat="45.84945" lon="5.79878">
        <ele>237.679015</ele>
        <time>2021-05-01T01:56:06.400Z</time>
      </trkpt>
      <trkpt lat="45.84945" lon="5.79861">
        <ele>237.623265</ele>
        <time>2021-05-01T01:56:09.557Z</time>
      </trkpt>
      <trkpt lat="45.84948" lon="5.7983">
        <ele>237.525422</ele>
        <time>2021-05-01T01:56:14.708Z</time>
      </trkpt>
      <trkpt lat="45.8495" lon="5.79827">
        <ele>237.510557</ele>
        <time>2021-05-01T01:56:15.526Z</time>
      </trkpt>
      <trkpt lat="45.84953" lon="5.79822">
        <ele>237.490685</ele>
        <time>2021-05-01T01:56:16.669Z</time>
      </trkpt>
      <trkpt lat="45.84955" lon="5.79817">
        <ele>237.470639</ele>
        <time>2021-05-01T01:56:17.752Z</time>
      </trkpt>
      <trkpt lat="45.84955" lon="5.79804">
        <ele>237.431238</ele>
        <time>2021-05-01T01:56:19.947Z</time>
      </trkpt>
      <trkpt lat="45.84953" lon="5.79799">
        <ele>237.411287</ele>
        <time>2021-05-01T01:56:20.955Z</time>
      </trkpt>
      <trkpt lat="45.84956" lon="5.79795">
        <ele>237.391859</ele>
        <time>2021-05-01T01:56:21.964Z</time>
      </trkpt>
      <trkpt lat="45.84958" lon="5.79792">
        <ele>237.380118</ele>
        <time>2021-05-01T01:56:22.565Z</time>
      </trkpt>
      <trkpt lat="45.84969" lon="5.79775">
        <ele>237.303433</ele>
        <time>2021-05-01T01:56:26.756Z</time>
      </trkpt>
      <trkpt lat="45.84974" lon="5.79767">
        <ele>237.268922</ele>
        <time>2021-05-01T01:56:28.635Z</time>
      </trkpt>
      <trkpt lat="45.84991" lon="5.79736">
        <ele>237.144625</ele>
        <time>2021-05-01T01:56:35.192Z</time>
      </trkpt>
      <trkpt lat="45.85058" lon="5.79581">
        <ele>236.839224</ele>
        <time>2021-05-01T01:57:06.982Z</time>
      </trkpt>
      <trkpt lat="45.85071" lon="5.79553">
        <ele>236.810008</ele>
        <time>2021-05-01T01:57:13.106Z</time>
      </trkpt>
      <trkpt lat="45.85115" lon="5.79455">
        <ele>236.774189</ele>
        <time>2021-05-01T01:57:35.567Z</time>
      </trkpt>
      <trkpt lat="45.8512" lon="5.79458">
        <ele>236.806954</ele>
        <time>2021-05-01T01:57:37.025Z</time>
      </trkpt>
      <trkpt lat="45.85125" lon="5.79458">
        <ele>236.840405</ele>
        <time>2021-05-01T01:57:38.487Z</time>
      </trkpt>
      <trkpt lat="45.8513" lon="5.79457">
        <ele>236.873747</ele>
        <time>2021-05-01T01:57:40.038Z</time>
      </trkpt>
      <trkpt lat="45.85134" lon="5.79453">
        <ele>236.906741</ele>
        <time>2021-05-01T01:57:41.528Z</time>
      </trkpt>
      <trkpt lat="45.8514" lon="5.79441">
        <ele>236.972267</ele>
        <time>2021-05-01T01:57:44.543Z</time>
      </trkpt>
      <trkpt lat="45.85141" lon="5.79434">
        <ele>237.005582</ele>
        <time>2021-05-01T01:57:46.036Z</time>
      </trkpt>
      <trkpt lat="45.8514" lon="5.79426">
        <ele>237.038654</ele>
        <time>2021-05-01T01:57:47.536Z</time>
      </trkpt>
      <trkpt lat="45.85138" lon="5.7942">
        <ele>237.071976</ele>
        <time>2021-05-01T01:57:49.046Z</time>
      </trkpt>
      <trkpt lat="45.85134" lon="5.79414">
        <ele>237.10699</ele>
        <time>2021-05-01T01:57:50.709Z</time>
      </trkpt>
      <trkpt lat="45.85124" lon="5.7941">
        <ele>237.175465</ele>
        <time>2021-05-01T01:57:53.924Z</time>
      </trkpt>
      <trkpt lat="45.85113" lon="5.79415">
        <ele>237.24479</ele>
        <time>2021-05-01T01:57:57.248Z</time>
      </trkpt>
      <trkpt lat="45.8511" lon="5.79421">
        <ele>237.279549</ele>
        <time>2021-05-01T01:57:58.858Z</time>
      </trkpt>
      <trkpt lat="45.85075" lon="5.7938">
        <ele>237.568461</ele>
        <time>2021-05-01T01:58:13.082Z</time>
      </trkpt>
      <trkpt lat="45.85003" lon="5.7932">
        <ele>238.013378</ele>
        <time>2021-05-01T01:58:37.790Z</time>
      </trkpt>
      <trkpt lat="45.84954" lon="5.79287">
        <ele>238.232567</ele>
        <time>2021-05-01T01:58:54.211Z</time>
      </trkpt>
      <trkpt lat="45.84927" lon="5.79268">
        <ele>238.354459</ele>
        <time>2021-05-01T01:59:02.946Z</time>
      </trkpt>
      <trkpt lat="45.84907" lon="5.79247">
        <ele>238.453111</ele>
        <time>2021-05-01T01:59:09.755Z</time>
      </trkpt>
      <trkpt lat="45.84894" lon="5.79228">
        <ele>238.529516</ele>
        <time>2021-05-01T01:59:14.894Z</time>
      </trkpt>
      <trkpt lat="45.84891" lon="5.79224">
        <ele>238.544933</ele>
        <time>2021-05-01T01:59:15.938Z</time>
      </trkpt>
      <trkpt lat="45.84879" lon="5.79195">
        <ele>238.549236</ele>
        <time>2021-05-01T01:59:21.974Z</time>
      </trkpt>
      <trkpt lat="45.84873" lon="5.79159">
        <ele>238.435232</ele>
        <time>2021-05-01T01:59:28.625Z</time>
      </trkpt>
      <trkpt lat="45.84862" lon="5.79096">
        <ele>238.23999</ele>
        <time>2021-05-01T01:59:39.549Z</time>
      </trkpt>
      <trkpt lat="45.84843" lon="5.78986">
        <ele>237.89848</ele>
        <time>2021-05-01T01:59:58.848Z</time>
      </trkpt>
      <trkpt lat="45.84838" lon="5.78962">
        <ele>237.824273</ele>
        <time>2021-05-01T02:00:03.099Z</time>
      </trkpt>
      <trkpt lat="45.84814" lon="5.7883">
        <ele>237.87768</ele>
        <time>2021-05-01T02:00:27.000Z</time>
      </trkpt>
      <trkpt lat="45.84805" lon="5.78774">
        <ele>237.903703</ele>
        <time>2021-05-01T02:00:37.999Z</time>
      </trkpt>
      <trkpt lat="45.84801" lon="5.78754">
        <ele>237.913091</ele>
        <time>2021-05-01T02:00:42.321Z</time>
      </trkpt>
      <trkpt lat="45.84798" lon="5.78733">
        <ele>237.922609</ele>
        <time>2021-05-01T02:00:46.888Z</time>
      </trkpt>
      <trkpt lat="45.8479" lon="5.78689">
        <ele>238.180271</ele>
        <time>2021-05-01T02:00:56.805Z</time>
      </trkpt>
      <trkpt lat="45.84781" lon="5.78639">
        <ele>238.772408</ele>
        <time>2021-05-01T02:01:08.239Z</time>
      </trkpt>
      <trkpt lat="45.84778" lon="5.78618">
        <ele>239.018496</ele>
        <time>2021-05-01T02:01:12.853Z</time>
      </trkpt>
      <trkpt lat="45.84773" lon="5.78587">
        <ele>239.382801</ele>
        <time>2021-05-01T02:01:20.951Z</time>
      </trkpt>
      <trkpt lat="45.84771" lon="5.78513">
        <ele>240.227195</ele>
        <time>2021-05-01T02:01:39.190Z</time>
      </trkpt>
      <trkpt lat="45.84779" lon="5.78435">
        <ele>241.273844</ele>
        <time>2021-05-01T02:01:59.833Z</time>
      </trkpt>
      <trkpt lat="45.84787" lon="5.78361">
        <ele>242.630901</ele>
        <time>2021-05-01T02:02:20.712Z</time>
      </trkpt>
      <trkpt lat="45.8479" lon="5.78328">
        <ele>243.242441</ele>
        <time>2021-05-01T02:02:29.248Z</time>
      </trkpt>
      <trkpt lat="45.84792" lon="5.78311">
        <ele>243.56683</ele>
        <time>2021-05-01T02:02:35.162Z</time>
      </trkpt>
      <trkpt lat="45.84799" lon="5.78241">
        <ele>244.843435</ele>
        <time>2021-05-01T02:02:55.071Z</time>
      </trkpt>
      <trkpt lat="45.84807" lon="5.7817">
        <ele>245.960893</ele>
        <time>2021-05-01T02:03:14.400Z</time>
      </trkpt>
      <trkpt lat="45.84808" lon="5.78166">
        <ele>246.013267</ele>
        <time>2021-05-01T02:03:15.644Z</time>
      </trkpt>
      <trkpt lat="45.84808" lon="5.78159">
        <ele>246.089201</ele>
        <time>2021-05-01T02:03:17.855Z</time>
      </trkpt>
      <trkpt lat="45.84813" lon="5.78114">
        <ele>246.61846</ele>
        <time>2021-05-01T02:03:28.856Z</time>
      </trkpt>
      <trkpt lat="45.84813" lon="5.78107">
        <ele>246.694819</ele>
        <time>2021-05-01T02:03:31.029Z</time>
      </trkpt>
      <trkpt lat="45.84823" lon="5.7811">
        <ele>246.863013</ele>
        <time>2021-05-01T02:03:34.147Z</time>
      </trkpt>
      <trkpt lat="45.84838" lon="5.78113">
        <ele>247.116863</ele>
        <time>2021-05-01T02:03:39.416Z</time>
      </trkpt>
      <trkpt lat="45.84865" lon="5.78118">
        <ele>247.576013</ele>
        <time>2021-05-01T02:03:48.724Z</time>
      </trkpt>
      <trkpt lat="45.84867" lon="5.78144">
        <ele>247.883984</ele>
        <time>2021-05-01T02:03:55.617Z</time>
      </trkpt>
      <trkpt lat="45.84867" lon="5.78152">
        <ele>247.972287</ele>
        <time>2021-05-01T02:03:57.023Z</time>
      </trkpt>
      <trkpt lat="45.8487" lon="5.78152">
        <ele>248.012332</ele>
        <time>2021-05-01T02:03:57.941Z</time>
      </trkpt>
      <trkpt lat="45.84879" lon="5.78155">
        <ele>248.161776</ele>
        <time>2021-05-01T02:04:01.422Z</time>
      </trkpt>
      <trkpt lat="45.84888" lon="5.78162">
        <ele>248.34069</ele>
        <time>2021-05-01T02:04:05.706Z</time>
      </trkpt>
      <trkpt lat="45.84881" lon="5.78178">
        <ele>248.564496</ele>
        <time>2021-05-01T02:04:11.956Z</time>
      </trkpt>
      <trkpt lat="45.84877" lon="5.78183">
        <ele>248.561458</ele>
        <time>2021-05-01T02:04:13.881Z</time>
      </trkpt>
      <trkpt lat="45.8488" lon="5.78188">
        <ele>248.515025</ele>
        <time>2021-05-01T02:04:16.097Z</time>
      </trkpt>
      <trkpt lat="45.84911" lon="5.78212">
        <ele>248.207102</ele>
        <time>2021-05-01T02:04:29.454Z</time>
      </trkpt>
      <trkpt lat="45.8488" lon="5.78188">
        <ele>247.89918</ele>
        <time>2021-05-01T02:04:40.996Z</time>
      </trkpt>
      <trkpt lat="45.84877" lon="5.78183">
        <ele>247.852747</ele>
        <time>2021-05-01T02:04:42.522Z</time>
      </trkpt>
      <trkpt lat="45.84881" lon="5.78178">
        <ele>247.805999</ele>
        <time>2021-05-01T02:04:44.240Z</time>
      </trkpt>
      <trkpt lat="45.84888" lon="5.78162">
        <ele>247.688277</ele>
        <time>2021-05-01T02:04:48.474Z</time>
      </trkpt>
      <trkpt lat="45.84879" lon="5.78155">
        <ele>247.594168</ele>
        <time>2021-05-01T02:04:51.702Z</time>
      </trkpt>
      <trkpt lat="45.8487" lon="5.78152">
        <ele>247.51556</ele>
        <time>2021-05-01T02:04:54.375Z</time>
      </trkpt>
      <trkpt lat="45.84867" lon="5.78152">
        <ele>247.494496</ele>
        <time>2021-05-01T02:04:55.175Z</time>
      </trkpt>
      <trkpt lat="45.84867" lon="5.78144">
        <ele>247.448049</ele>
        <time>2021-05-01T02:04:56.596Z</time>
      </trkpt>
      <trkpt lat="45.84865" lon="5.78118">
        <ele>247.286056</ele>
        <time>2021-05-01T02:05:00.514Z</time>
      </trkpt>
      <trkpt lat="45.84838" lon="5.78113">
        <ele>247.044543</ele>
        <time>2021-05-01T02:05:06.153Z</time>
      </trkpt>
      <trkpt lat="45.84823" lon="5.7811">
        <ele>246.60157</ele>
        <time>2021-05-01T02:05:09.286Z</time>
      </trkpt>
      <trkpt lat="45.84813" lon="5.78107">
        <ele>246.273055</ele>
        <time>2021-05-01T02:05:11.589Z</time>
      </trkpt>
      <trkpt lat="45.84795" lon="5.78108">
        <ele>245.686579</ele>
        <time>2021-05-01T02:05:15.056Z</time>
      </trkpt>
      <trkpt lat="45.8479" lon="5.78113">
        <ele>245.490387</ele>
        <time>2021-05-01T02:05:16.221Z</time>
      </trkpt>
      <trkpt lat="45.84786" lon="5.78116">
        <ele>245.344228</ele>
        <time>2021-05-01T02:05:17.148Z</time>
      </trkpt>
      <trkpt lat="45.84758" lon="5.78141">
        <ele>244.281797</ele>
        <time>2021-05-01T02:05:23.701Z</time>
      </trkpt>
      <trkpt lat="45.84745" lon="5.78153">
        <ele>243.789599</ele>
        <time>2021-05-01T02:05:26.683Z</time>
      </trkpt>
      <trkpt lat="45.84741" lon="5.78155">
        <ele>243.644532</ele>
        <time>2021-05-01T02:05:27.406Z</time>
      </trkpt>
      <trkpt lat="45.84726" lon="5.78161">
        <ele>243.141632</ele>
        <time>2021-05-01T02:05:30.553Z</time>
      </trkpt>
      <trkpt lat="45.84711" lon="5.78155">
        <ele>242.630645</ele>
        <time>2021-05-01T02:05:33.600Z</time>
      </trkpt>
      <trkpt lat="45.84708" lon="5.78153">
        <ele>242.539145</ele>
        <time>2021-05-01T02:05:34.058Z</time>
      </trkpt>
      <trkpt lat="45.84619" lon="5.78124">
        <ele>240.032074</ele>
        <time>2021-05-01T02:05:51.669Z</time>
      </trkpt>
      <trkpt lat="45.84598" lon="5.78097">
        <ele>239.369396</ele>
        <time>2021-05-01T02:05:57.179Z</time>
      </trkpt>
      <trkpt lat="45.84581" lon="5.78074">
        <ele>238.822545</ele>
        <time>2021-05-01T02:06:01.977Z</time>
      </trkpt>
      <trkpt lat="45.84569" lon="5.78059">
        <ele>238.458702</ele>
        <time>2021-05-01T02:06:05.223Z</time>
      </trkpt>
      <trkpt lat="45.84562" lon="5.78051">
        <ele>238.238788</ele>
        <time>2021-05-01T02:06:07.354Z</time>
      </trkpt>
      <trkpt lat="45.84557" lon="5.78059">
        <ele>238.058815</ele>
        <time>2021-05-01T02:06:08.988Z</time>
      </trkpt>
      <trkpt lat="45.84536" lon="5.78122">
        <ele>236.979679</ele>
        <time>2021-05-01T02:06:19.891Z</time>
      </trkpt>
      <trkpt lat="45.84518" lon="5.78249">
        <ele>236.774429</ele>
        <time>2021-05-01T02:06:43.313Z</time>
      </trkpt>
      <trkpt lat="45.84512" lon="5.78287">
        <ele>236.713295</ele>
        <time>2021-05-01T02:06:50.827Z</time>
      </trkpt>
      <trkpt lat="45.84503" lon="5.78354">
        <ele>236.606237</ele>
        <time>2021-05-01T02:07:03.830Z</time>
      </trkpt>
      <trkpt lat="45.84503" lon="5.78368">
        <ele>236.58355</ele>
        <time>2021-05-01T02:07:06.385Z</time>
      </trkpt>
      <trkpt lat="45.84504" lon="5.78392">
        <ele>236.561016</ele>
        <time>2021-05-01T02:07:10.871Z</time>
      </trkpt>
      <trkpt lat="45.84506" lon="5.7842">
        <ele>236.537273</ele>
        <time>2021-05-01T02:07:15.888Z</time>
      </trkpt>
      <trkpt lat="45.84505" lon="5.78457">
        <ele>236.505508</ele>
        <time>2021-05-01T02:07:22.810Z</time>
      </trkpt>
      <trkpt lat="45.84499" lon="5.7848">
        <ele>236.484654</ele>
        <time>2021-05-01T02:07:27.190Z</time>
      </trkpt>
      <trkpt lat="45.84461" lon="5.78544">
        <ele>236.413321</ele>
        <time>2021-05-01T02:07:42.542Z</time>
      </trkpt>
      <trkpt lat="45.84444" lon="5.78577">
        <ele>236.378493</ele>
        <time>2021-05-01T02:07:50.032Z</time>
      </trkpt>
      <trkpt lat="45.84436" lon="5.78608">
        <ele>236.355344</ele>
        <time>2021-05-01T02:07:55.829Z</time>
      </trkpt>
      <trkpt lat="45.84424" lon="5.78717">
        <ele>236.313413</ele>
        <time>2021-05-01T02:08:15.404Z</time>
      </trkpt>
      <trkpt lat="45.84407" lon="5.78757">
        <ele>236.29588</ele>
        <time>2021-05-01T02:08:23.952Z</time>
      </trkpt>
      <trkpt lat="45.84383" lon="5.78796">
        <ele>236.276032</ele>
        <time>2021-05-01T02:08:34.063Z</time>
      </trkpt>
      <trkpt lat="45.84294" lon="5.78938">
        <ele>236.46296</ele>
        <time>2021-05-01T02:09:11.070Z</time>
      </trkpt>
      <trkpt lat="45.84281" lon="5.7896">
        <ele>236.502078</ele>
        <time>2021-05-01T02:09:16.856Z</time>
      </trkpt>
      <trkpt lat="45.84272" lon="5.78974">
        <ele>236.526395</ele>
        <time>2021-05-01T02:09:20.301Z</time>
      </trkpt>
      <trkpt lat="45.84119" lon="5.79228">
        <ele>236.674089</ele>
        <time>2021-05-01T02:10:23.630Z</time>
      </trkpt>
      <trkpt lat="45.84078" lon="5.793">
        <ele>236.614417</ele>
        <time>2021-05-01T02:10:40.957Z</time>
      </trkpt>
      <trkpt lat="45.84031" lon="5.79383">
        <ele>236.546241</ele>
        <time>2021-05-01T02:11:00.175Z</time>
      </trkpt>
      <trkpt lat="45.84022" lon="5.794">
        <ele>236.532846</ele>
        <time>2021-05-01T02:11:04.132Z</time>
      </trkpt>
      <trkpt lat="45.83985" lon="5.79392">
        <ele>236.528299</ele>
        <time>2021-05-01T02:11:13.768Z</time>
      </trkpt>
      <trkpt lat="45.8394" lon="5.79381">
        <ele>236.540447</ele>
        <time>2021-05-01T02:11:25.771Z</time>
      </trkpt>
      <trkpt lat="45.83553" lon="5.79231">
        <ele>236.761194</ele>
        <time>2021-05-01T02:13:13.755Z</time>
      </trkpt>
      <trkpt lat="45.83465" lon="5.79195">
        <ele>236.86587</ele>
        <time>2021-05-01T02:13:39.542Z</time>
      </trkpt>
      <trkpt lat="45.83375" lon="5.79159">
        <ele>236.929553</ele>
        <time>2021-05-01T02:14:05.321Z</time>
      </trkpt>
      <trkpt lat="45.8327" lon="5.79114">
        <ele>236.836616</ele>
        <time>2021-05-01T02:14:33.632Z</time>
      </trkpt>
      <trkpt lat="45.83236" lon="5.79095">
        <ele>236.732446</ele>
        <time>2021-05-01T02:14:42.855Z</time>
      </trkpt>
      <trkpt lat="45.83217" lon="5.79079">
        <ele>236.667984</ele>
        <time>2021-05-01T02:14:48.536Z</time>
      </trkpt>
      <trkpt lat="45.83193" lon="5.79051">
        <ele>236.57984</ele>
        <time>2021-05-01T02:14:56.358Z</time>
      </trkpt>
      <trkpt lat="45.83156" lon="5.79003">
        <ele>236.424767</ele>
        <time>2021-05-01T02:15:09.099Z</time>
      </trkpt>
      <trkpt lat="45.83101" lon="5.78935">
        <ele>236.115959</ele>
        <time>2021-05-01T02:15:26.942Z</time>
      </trkpt>
      <trkpt lat="45.82972" lon="5.78773">
        <ele>235.457537</ele>
        <time>2021-05-01T02:16:09.699Z</time>
      </trkpt>
      <trkpt lat="45.82964" lon="5.78764">
        <ele>235.42613</ele>
        <time>2021-05-01T02:16:12.107Z</time>
      </trkpt>
      <trkpt lat="45.82846" lon="5.78621">
        <ele>235.018541</ele>
        <time>2021-05-01T02:16:51.884Z</time>
      </trkpt>
      <trkpt lat="45.82802" lon="5.78582">
        <ele>234.936245</ele>
        <time>2021-05-01T02:17:05.431Z</time>
      </trkpt>
      <trkpt lat="45.8276" lon="5.78555">
        <ele>234.861944</ele>
        <time>2021-05-01T02:17:17.511Z</time>
      </trkpt>
      <trkpt lat="45.82709" lon="5.78536">
        <ele>234.739533</ele>
        <time>2021-05-01T02:17:31.174Z</time>
      </trkpt>
      <trkpt lat="45.82672" lon="5.78526">
        <ele>234.626639</ele>
        <time>2021-05-01T02:17:40.649Z</time>
      </trkpt>
      <trkpt lat="45.82404" lon="5.78453">
        <ele>233.797853</ele>
        <time>2021-05-01T02:18:49.038Z</time>
      </trkpt>
      <trkpt lat="45.82037" lon="5.78351">
        <ele>233.513808</ele>
        <time>2021-05-01T02:20:27.991Z</time>
      </trkpt>
      <trkpt lat="45.81982" lon="5.78328">
        <ele>233.519869</ele>
        <time>2021-05-01T02:20:43.381Z</time>
      </trkpt>
      <trkpt lat="45.81946" lon="5.78307">
        <ele>233.527938</ele>
        <time>2021-05-01T02:20:53.565Z</time>
      </trkpt>
      <trkpt lat="45.8192" lon="5.78289">
        <ele>233.533998</ele>
        <time>2021-05-01T02:21:01.497Z</time>
      </trkpt>
      <trkpt lat="45.81912" lon="5.78283">
        <ele>233.535849</ele>
        <time>2021-05-01T02:21:03.636Z</time>
      </trkpt>
      <trkpt lat="45.81793" lon="5.7819">
        <ele>233.86792</ele>
        <time>2021-05-01T02:21:40.938Z</time>
      </trkpt>
      <trkpt lat="45.81697" lon="5.78138">
        <ele>234.294829</ele>
        <time>2021-05-01T02:22:11.006Z</time>
      </trkpt>
      <trkpt lat="45.81661" lon="5.78125">
        <ele>234.618797</ele>
        <time>2021-05-01T02:22:22.261Z</time>
      </trkpt>
      <trkpt lat="45.81496" lon="5.78074">
        <ele>235.973291</ele>
        <time>2021-05-01T02:23:15.440Z</time>
      </trkpt>
      <trkpt lat="45.8138" lon="5.78005">
        <ele>236.489917</ele>
        <time>2021-05-01T02:23:51.874Z</time>
      </trkpt>
      <trkpt lat="45.80962" lon="5.7763">
        <ele>234.68988</ele>
        <time>2021-05-01T02:25:55.178Z</time>
      </trkpt>
      <trkpt lat="45.80928" lon="5.77602">
        <ele>234.493562</ele>
        <time>2021-05-01T02:26:04.507Z</time>
      </trkpt>
      <trkpt lat="45.80825" lon="5.77508">
        <ele>234.082969</ele>
        <time>2021-05-01T02:26:34.350Z</time>
      </trkpt>
      <trkpt lat="45.80782" lon="5.77479">
        <ele>233.953938</ele>
        <time>2021-05-01T02:26:46.630Z</time>
      </trkpt>
      <trkpt lat="45.8072" lon="5.77446">
        <ele>233.966869</ele>
        <time>2021-05-01T02:27:04.513Z</time>
      </trkpt>
      <trkpt lat="45.80713" lon="5.77442">
        <ele>234.008045</ele>
        <time>2021-05-01T02:27:06.747Z</time>
      </trkpt>
      <trkpt lat="45.80368" lon="5.7724">
        <ele>236.301538</ele>
        <time>2021-05-01T02:28:58.647Z</time>
      </trkpt>
      <trkpt lat="45.80282" lon="5.77207">
        <ele>236.723992</ele>
        <time>2021-05-01T02:29:24.816Z</time>
      </trkpt>
      <trkpt lat="45.8021" lon="5.77193">
        <ele>236.827724</ele>
        <time>2021-05-01T02:29:44.844Z</time>
      </trkpt>
      <trkpt lat="45.80175" lon="5.77187">
        <ele>236.664267</ele>
        <time>2021-05-01T02:29:53.966Z</time>
      </trkpt>
      <trkpt lat="45.79856" lon="5.77134">
        <ele>234.803552</ele>
        <time>2021-05-01T02:31:10.560Z</time>
      </trkpt>
      <trkpt lat="45.79741" lon="5.77115">
        <ele>234.610123</ele>
        <time>2021-05-01T02:31:40.414Z</time>
      </trkpt>
      <trkpt lat="45.79734" lon="5.77114">
        <ele>234.597938</ele>
        <time>2021-05-01T02:31:42.436Z</time>
      </trkpt>
      <trkpt lat="45.79433" lon="5.77061">
        <ele>234.913562</ele>
        <time>2021-05-01T02:33:07.575Z</time>
      </trkpt>
      <trkpt lat="45.79221" lon="5.77029">
        <ele>233.946663</ele>
        <time>2021-05-01T02:33:59.862Z</time>
      </trkpt>
      <trkpt lat="45.79145" lon="5.77016">
        <ele>233.411981</ele>
        <time>2021-05-01T02:34:17.613Z</time>
      </trkpt>
      <trkpt lat="45.79014" lon="5.76994">
        <ele>232.420968</ele>
        <time>2021-05-01T02:34:48.109Z</time>
      </trkpt>
      <trkpt lat="45.78935" lon="5.76981">
        <ele>232.300541</ele>
        <time>2021-05-01T02:35:09.282Z</time>
      </trkpt>
      <trkpt lat="45.78923" lon="5.76979">
        <ele>232.324109</ele>
        <time>2021-05-01T02:35:12.341Z</time>
      </trkpt>
      <trkpt lat="45.78917" lon="5.76951">
        <ele>232.365541</ele>
        <time>2021-05-01T02:35:18.438Z</time>
      </trkpt>
      <trkpt lat="45.78915" lon="5.76945">
        <ele>232.374352</ele>
        <time>2021-05-01T02:35:19.619Z</time>
      </trkpt>
      <trkpt lat="45.78913" lon="5.7694">
        <ele>232.382121</ele>
        <time>2021-05-01T02:35:20.631Z</time>
      </trkpt>
      <trkpt lat="45.78889" lon="5.76874">
        <ele>232.484636</ele>
        <time>2021-05-01T02:35:35.314Z</time>
      </trkpt>
      <trkpt lat="45.78882" lon="5.7686">
        <ele>232.509884</ele>
        <time>2021-05-01T02:35:39.222Z</time>
      </trkpt>
      <trkpt lat="45.78857" lon="5.76856">
        <ele>232.570419</ele>
        <time>2021-05-01T02:35:46.355Z</time>
      </trkpt>
      <trkpt lat="45.78847" lon="5.76857">
        <ele>232.687627</ele>
        <time>2021-05-01T02:35:49.463Z</time>
      </trkpt>
      <trkpt lat="45.78826" lon="5.7686">
        <ele>232.935604</ele>
        <time>2021-05-01T02:35:55.404Z</time>
      </trkpt>
      <trkpt lat="45.78797" lon="5.76863">
        <ele>233.277987</ele>
        <time>2021-05-01T02:36:04.257Z</time>
      </trkpt>
      <trkpt lat="45.78768" lon="5.76858">
        <ele>233.615682</ele>
        <time>2021-05-01T02:36:13.845Z</time>
      </trkpt>
      <trkpt lat="45.78758" lon="5.76855">
        <ele>233.745566</ele>
        <time>2021-05-01T02:36:17.324Z</time>
      </trkpt>
      <trkpt lat="45.78748" lon="5.76848">
        <ele>233.872658</ele>
        <time>2021-05-01T02:36:20.833Z</time>
      </trkpt>
      <trkpt lat="45.78719" lon="5.76823">
        <ele>234.271161</ele>
        <time>2021-05-01T02:36:32.145Z</time>
      </trkpt>
      <trkpt lat="45.78683" lon="5.76792">
        <ele>234.896723</ele>
        <time>2021-05-01T02:36:46.348Z</time>
      </trkpt>
      <trkpt lat="45.78657" lon="5.76771">
        <ele>235.761785</ele>
        <time>2021-05-01T02:36:56.759Z</time>
      </trkpt>
      <trkpt lat="45.78643" lon="5.76748">
        <ele>236.38439</ele>
        <time>2021-05-01T02:37:05.017Z</time>
      </trkpt>
      <trkpt lat="45.78563" lon="5.76692">
        <ele>238.96893</ele>
        <time>2021-05-01T02:37:40.916Z</time>
      </trkpt>
      <trkpt lat="45.78475" lon="5.76567">
        <ele>244.700202</ele>
        <time>2021-05-01T02:38:42.267Z</time>
      </trkpt>
      <trkpt lat="45.78464" lon="5.76535">
        <ele>246.008657</ele>
        <time>2021-05-01T02:38:55.468Z</time>
      </trkpt>
      <trkpt lat="45.78449" lon="5.76498">
        <ele>247.546318</ele>
        <time>2021-05-01T02:39:11.320Z</time>
      </trkpt>
      <trkpt lat="45.78426" lon="5.76471">
        <ele>249.09174</ele>
        <time>2021-05-01T02:39:27.720Z</time>
      </trkpt>
      <trkpt lat="45.78352" lon="5.76437">
        <ele>254.348457</ele>
        <time>2021-05-01T02:40:13.667Z</time>
      </trkpt>
      <trkpt lat="45.78199" lon="5.76445">
        <ele>263.976389</ele>
        <time>2021-05-01T02:41:46.211Z</time>
      </trkpt>
      <trkpt lat="45.78175" lon="5.76441">
        <ele>265.231948</ele>
        <time>2021-05-01T02:42:00.189Z</time>
      </trkpt>
      <trkpt lat="45.78144" lon="5.76412">
        <ele>267.197461</ele>
        <time>2021-05-01T02:42:20.650Z</time>
      </trkpt>
      <trkpt lat="45.78127" lon="5.76388">
        <ele>268.414047</ele>
        <time>2021-05-01T02:42:32.022Z</time>
      </trkpt>
      <trkpt lat="45.78101" lon="5.76359">
        <ele>270.118295</ele>
        <time>2021-05-01T02:42:46.700Z</time>
      </trkpt>
      <trkpt lat="45.78075" lon="5.76346">
        <ele>270.991036</ele>
        <time>2021-05-01T02:42:57.649Z</time>
      </trkpt>
      <trkpt lat="45.78049" lon="5.76343">
        <ele>271.190643</ele>
        <time>2021-05-01T02:43:06.596Z</time>
      </trkpt>
      <trkpt lat="45.78011" lon="5.76356">
        <ele>271.499931</ele>
        <time>2021-05-01T02:43:19.394Z</time>
      </trkpt>
      <trkpt lat="45.77997" lon="5.76359">
        <ele>271.613251</ele>
        <time>2021-05-01T02:43:23.724Z</time>
      </trkpt>
      <trkpt lat="45.77951" lon="5.76341">
        <ele>271.992396</ele>
        <time>2021-05-01T02:43:36.326Z</time>
      </trkpt>
      <trkpt lat="45.77916" lon="5.76327">
        <ele>272.281143</ele>
        <time>2021-05-01T02:43:44.948Z</time>
      </trkpt>
      <trkpt lat="45.77902" lon="5.76311">
        <ele>272.036608</ele>
        <time>2021-05-01T02:43:49.385Z</time>
      </trkpt>
      <trkpt lat="45.77891" lon="5.76308">
        <ele>271.83449</ele>
        <time>2021-05-01T02:43:51.895Z</time>
      </trkpt>
      <trkpt lat="45.77856" lon="5.76277">
        <ele>271.057116</ele>
        <time>2021-05-01T02:44:01.996Z</time>
      </trkpt>
      <trkpt lat="45.77843" lon="5.76264">
        <ele>270.758237</ele>
        <time>2021-05-01T02:44:05.909Z</time>
      </trkpt>
      <trkpt lat="45.77819" lon="5.76241">
        <ele>270.237177</ele>
        <time>2021-05-01T02:44:11.820Z</time>
      </trkpt>
      <trkpt lat="45.77808" lon="5.7622">
        <ele>269.889952</ele>
        <time>2021-05-01T02:44:15.519Z</time>
      </trkpt>
      <trkpt lat="45.77795" lon="5.76193">
        <ele>269.459794</ele>
        <time>2021-05-01T02:44:19.937Z</time>
      </trkpt>
      <trkpt lat="45.77779" lon="5.76176">
        <ele>269.095043</ele>
        <time>2021-05-01T02:44:24.123Z</time>
      </trkpt>
      <trkpt lat="45.77756" lon="5.76166">
        <ele>268.10203</ele>
        <time>2021-05-01T02:44:28.592Z</time>
      </trkpt>
      <trkpt lat="45.7775" lon="5.76164">
        <ele>267.77833</ele>
        <time>2021-05-01T02:44:29.938Z</time>
      </trkpt>
      <trkpt lat="45.77721" lon="5.76163">
        <ele>266.237829</ele>
        <time>2021-05-01T02:44:35.408Z</time>
      </trkpt>
      <trkpt lat="45.77701" lon="5.76165">
        <ele>265.232689</ele>
        <time>2021-05-01T02:44:39.239Z</time>
      </trkpt>
      <trkpt lat="45.77692" lon="5.76173">
        <ele>264.679247</ele>
        <time>2021-05-01T02:44:41.007Z</time>
      </trkpt>
      <trkpt lat="45.77661" lon="5.76202">
        <ele>262.741105</ele>
        <time>2021-05-01T02:44:47.681Z</time>
      </trkpt>
      <trkpt lat="45.77644" lon="5.76209">
        <ele>261.81073</ele>
        <time>2021-05-01T02:44:50.963Z</time>
      </trkpt>
      <trkpt lat="45.77625" lon="5.76207">
        <ele>260.838669</ele>
        <time>2021-05-01T02:44:54.082Z</time>
      </trkpt>
      <trkpt lat="45.7761" lon="5.76201">
        <ele>260.002477</ele>
        <time>2021-05-01T02:44:56.957Z</time>
      </trkpt>
      <trkpt lat="45.77558" lon="5.7616">
        <ele>256.195199</ele>
        <time>2021-05-01T02:45:06.904Z</time>
      </trkpt>
      <trkpt lat="45.77535" lon="5.76145">
        <ele>254.496878</ele>
        <time>2021-05-01T02:45:11.367Z</time>
      </trkpt>
      <trkpt lat="45.77425" lon="5.76066">
        <ele>246.582843</ele>
        <time>2021-05-01T02:45:32.814Z</time>
      </trkpt>
      <trkpt lat="45.77349" lon="5.76008">
        <ele>242.092597</ele>
        <time>2021-05-01T02:45:47.971Z</time>
      </trkpt>
      <trkpt lat="45.77241" lon="5.75859">
        <ele>236.41965</ele>
        <time>2021-05-01T02:46:16.360Z</time>
      </trkpt>
      <trkpt lat="45.77181" lon="5.75795">
        <ele>234.662811</ele>
        <time>2021-05-01T02:46:32.805Z</time>
      </trkpt>
      <trkpt lat="45.77165" lon="5.75799">
        <ele>234.28292</ele>
        <time>2021-05-01T02:46:36.389Z</time>
      </trkpt>
      <trkpt lat="45.77135" lon="5.75768">
        <ele>233.961046</ele>
        <time>2021-05-01T02:46:45.416Z</time>
      </trkpt>
      <trkpt lat="45.77092" lon="5.75734">
        <ele>233.935703</ele>
        <time>2021-05-01T02:46:58.433Z</time>
      </trkpt>
      <trkpt lat="45.76851" lon="5.75574">
        <ele>234.395968</ele>
        <time>2021-05-01T02:48:12.608Z</time>
      </trkpt>
      <trkpt lat="45.76777" lon="5.75502">
        <ele>234.86028</ele>
        <time>2021-05-01T02:48:39.100Z</time>
      </trkpt>
      <trkpt lat="45.76707" lon="5.75444">
        <ele>235.332127</ele>
        <time>2021-05-01T02:49:05.126Z</time>
      </trkpt>
      <trkpt lat="45.76617" lon="5.75409">
        <ele>235.461828</ele>
        <time>2021-05-01T02:49:29.032Z</time>
      </trkpt>
      <trkpt lat="45.76568" lon="5.75385">
        <ele>235.422766</ele>
        <time>2021-05-01T02:49:42.768Z</time>
      </trkpt>
      <trkpt lat="45.76565" lon="5.75392">
        <ele>235.4187</ele>
        <time>2021-05-01T02:49:43.824Z</time>
      </trkpt>
      <trkpt lat="45.76553" lon="5.75433">
        <ele>235.395415</ele>
        <time>2021-05-01T02:49:52.508Z</time>
      </trkpt>
      <trkpt lat="45.76561" lon="5.75421">
        <ele>235.386511</ele>
        <time>2021-05-01T02:49:55.399Z</time>
      </trkpt>
      <trkpt lat="45.76572" lon="5.75408">
        <ele>235.376215</ele>
        <time>2021-05-01T02:49:59.236Z</time>
      </trkpt>
      <trkpt lat="45.76579" lon="5.75407">
        <ele>235.425881</ele>
        <time>2021-05-01T02:50:01.498Z</time>
      </trkpt>
      <trkpt lat="45.76658" lon="5.75437">
        <ele>236.311061</ele>
        <time>2021-05-01T02:50:23.102Z</time>
      </trkpt>
      <trkpt lat="45.76617" lon="5.75441">
        <ele>236.763784</ele>
        <time>2021-05-01T02:50:36.822Z</time>
      </trkpt>
      <trkpt lat="45.76553" lon="5.75473">
        <ele>237.863595</ele>
        <time>2021-05-01T02:51:02.545Z</time>
      </trkpt>
      <trkpt lat="45.76547" lon="5.75473">
        <ele>238.062234</ele>
        <time>2021-05-01T02:51:04.966Z</time>
      </trkpt>
      <trkpt lat="45.76536" lon="5.7546">
        <ele>238.560634</ele>
        <time>2021-05-01T02:51:10.954Z</time>
      </trkpt>
      <trkpt lat="45.76531" lon="5.75447">
        <ele>238.917667</ele>
        <time>2021-05-01T02:51:15.713Z</time>
      </trkpt>
      <trkpt lat="45.76534" lon="5.75406">
        <ele>239.911125</ele>
        <time>2021-05-01T02:51:28.604Z</time>
      </trkpt>
      <trkpt lat="45.76531" lon="5.75396">
        <ele>240.164066</ele>
        <time>2021-05-01T02:51:32.200Z</time>
      </trkpt>
      <trkpt lat="45.76494" lon="5.75349">
        <ele>241.853958</ele>
        <time>2021-05-01T02:51:54.462Z</time>
      </trkpt>
      <trkpt lat="45.76486" lon="5.75328">
        <ele>242.436474</ele>
        <time>2021-05-01T02:52:02.075Z</time>
      </trkpt>
      <trkpt lat="45.76479" lon="5.7527">
        <ele>243.663955</ele>
        <time>2021-05-01T02:52:20.519Z</time>
      </trkpt>
      <trkpt lat="45.76463" lon="5.75227">
        <ele>244.277836</ele>
        <time>2021-05-01T02:52:35.058Z</time>
      </trkpt>
      <trkpt lat="45.76424" lon="5.75071">
        <ele>246.390356</ele>
        <time>2021-05-01T02:53:17.309Z</time>
      </trkpt>
      <trkpt lat="45.76403" lon="5.74968">
        <ele>245.706824</ele>
        <time>2021-05-01T02:53:33.971Z</time>
      </trkpt>
      <trkpt lat="45.76405" lon="5.74945">
        <ele>245.394847</ele>
        <time>2021-05-01T02:53:37.335Z</time>
      </trkpt>
      <trkpt lat="45.76418" lon="5.74924">
        <ele>245.02046</ele>
        <time>2021-05-01T02:53:41.544Z</time>
      </trkpt>
      <trkpt lat="45.7642" lon="5.74906">
        <ele>244.785761</ele>
        <time>2021-05-01T02:53:44.034Z</time>
      </trkpt>
      <trkpt lat="45.76422" lon="5.74808">
        <ele>243.492069</ele>
        <time>2021-05-01T02:53:57.859Z</time>
      </trkpt>
      <trkpt lat="45.76422" lon="5.74797">
        <ele>243.339953</ele>
        <time>2021-05-01T02:53:59.445Z</time>
      </trkpt>
      <trkpt lat="45.764" lon="5.74724">
        <ele>242.333332</ele>
        <time>2021-05-01T02:54:10.785Z</time>
      </trkpt>
      <trkpt lat="45.76354" lon="5.74625">
        <ele>240.840205</ele>
        <time>2021-05-01T02:54:28.298Z</time>
      </trkpt>
      <trkpt lat="45.76325" lon="5.74577">
        <ele>240.086742</ele>
        <time>2021-05-01T02:54:38.972Z</time>
      </trkpt>
      <trkpt lat="45.76271" lon="5.74517">
        <ele>239.975354</ele>
        <time>2021-05-01T02:54:56.181Z</time>
      </trkpt>
      <trkpt lat="45.76212" lon="5.74469">
        <ele>239.865558</ele>
        <time>2021-05-01T02:55:13.936Z</time>
      </trkpt>
      <trkpt lat="45.76152" lon="5.74387">
        <ele>239.994638</ele>
        <time>2021-05-01T02:55:37.606Z</time>
      </trkpt>
      <trkpt lat="45.76101" lon="5.74332">
        <ele>240.290979</ele>
        <time>2021-05-01T02:55:56.443Z</time>
      </trkpt>
      <trkpt lat="45.76088" lon="5.7431">
        <ele>240.381614</ele>
        <time>2021-05-01T02:56:02.301Z</time>
      </trkpt>
      <trkpt lat="45.76076" lon="5.74285">
        <ele>240.482651</ele>
        <time>2021-05-01T02:56:08.729Z</time>
      </trkpt>
      <trkpt lat="45.76059" lon="5.74215">
        <ele>240.558913</ele>
        <time>2021-05-01T02:56:24.100Z</time>
      </trkpt>
      <trkpt lat="45.7604" lon="5.74107">
        <ele>240.251214</ele>
        <time>2021-05-01T02:56:44.001Z</time>
      </trkpt>
      <trkpt lat="45.75998" lon="5.73982">
        <ele>239.788837</ele>
        <time>2021-05-01T02:57:06.995Z</time>
      </trkpt>
      <trkpt lat="45.75993" lon="5.73968">
        <ele>239.691741</ele>
        <time>2021-05-01T02:57:09.174Z</time>
      </trkpt>
      <trkpt lat="45.75987" lon="5.73947">
        <ele>239.539444</ele>
        <time>2021-05-01T02:57:12.899Z</time>
      </trkpt>
      <trkpt lat="45.75975" lon="5.73866">
        <ele>238.993493</ele>
        <time>2021-05-01T02:57:26.131Z</time>
      </trkpt>
      <trkpt lat="45.75961" lon="5.7376">
        <ele>238.28447</ele>
        <time>2021-05-01T02:57:43.514Z</time>
      </trkpt>
      <trkpt lat="45.75959" lon="5.73704">
        <ele>238.289655</ele>
        <time>2021-05-01T02:57:53.519Z</time>
      </trkpt>
      <trkpt lat="45.75965" lon="5.73624">
        <ele>238.407386</ele>
        <time>2021-05-01T02:58:09.204Z</time>
      </trkpt>
      <trkpt lat="45.75977" lon="5.73536">
        <ele>238.538184</ele>
        <time>2021-05-01T02:58:27.336Z</time>
      </trkpt>
      <trkpt lat="45.75999" lon="5.73445">
        <ele>238.867354</ele>
        <time>2021-05-01T02:58:47.524Z</time>
      </trkpt>
      <trkpt lat="45.76056" lon="5.7329">
        <ele>239.713397</ele>
        <time>2021-05-01T02:59:25.123Z</time>
      </trkpt>
      <trkpt lat="45.76103" lon="5.73126">
        <ele>239.99247</ele>
        <time>2021-05-01T03:00:01.115Z</time>
      </trkpt>
      <trkpt lat="45.7611" lon="5.7309">
        <ele>240.028608</ele>
        <time>2021-05-01T03:00:07.942Z</time>
      </trkpt>
      <trkpt lat="45.76114" lon="5.73006">
        <ele>240.006678</ele>
        <time>2021-05-01T03:00:22.744Z</time>
      </trkpt>
      <trkpt lat="45.76152" lon="5.72856">
        <ele>238.91164</ele>
        <time>2021-05-01T03:00:48.800Z</time>
      </trkpt>
      <trkpt lat="45.76176" lon="5.72729">
        <ele>237.997491</ele>
        <time>2021-05-01T03:01:09.430Z</time>
      </trkpt>
      <trkpt lat="45.76189" lon="5.72698">
        <ele>237.738293</ele>
        <time>2021-05-01T03:01:15.054Z</time>
      </trkpt>
      <trkpt lat="45.762" lon="5.72672">
        <ele>237.51443</ele>
        <time>2021-05-01T03:01:20.023Z</time>
      </trkpt>
      <trkpt lat="45.76205" lon="5.7264">
        <ele>237.279582</ele>
        <time>2021-05-01T03:01:25.203Z</time>
      </trkpt>
      <trkpt lat="45.7621" lon="5.72458">
        <ele>235.940541</ele>
        <time>2021-05-01T03:01:55.090Z</time>
      </trkpt>
      <trkpt lat="45.76208" lon="5.72457">
        <ele>235.914874</ele>
        <time>2021-05-01T03:01:55.612Z</time>
      </trkpt>
      <trkpt lat="45.76205" lon="5.72455">
        <ele>235.88448</ele>
        <time>2021-05-01T03:01:56.272Z</time>
      </trkpt>
      <trkpt lat="45.76195" lon="5.72364">
        <ele>235.20026</ele>
        <time>2021-05-01T03:02:11.914Z</time>
      </trkpt>
      <trkpt lat="45.76184" lon="5.72302">
        <ele>234.732287</ele>
        <time>2021-05-01T03:02:21.580Z</time>
      </trkpt>
      <trkpt lat="45.76189" lon="5.72269">
        <ele>234.464748</ele>
        <time>2021-05-01T03:02:26.843Z</time>
      </trkpt>
      <trkpt lat="45.76204" lon="5.7223">
        <ele>234.074396</ele>
        <time>2021-05-01T03:02:33.628Z</time>
      </trkpt>
      <trkpt lat="45.76219" lon="5.72167">
        <ele>233.483854</ele>
        <time>2021-05-01T03:02:44.104Z</time>
      </trkpt>
      <trkpt lat="45.7622" lon="5.72153">
        <ele>233.358034</ele>
        <time>2021-05-01T03:02:46.241Z</time>
      </trkpt>
      <trkpt lat="45.76216" lon="5.72141">
        <ele>233.23906</ele>
        <time>2021-05-01T03:02:48.326Z</time>
      </trkpt>
      <trkpt lat="45.76215" lon="5.72138">
        <ele>233.203605</ele>
        <time>2021-05-01T03:02:49.017Z</time>
      </trkpt>
      <trkpt lat="45.76216" lon="5.72125">
        <ele>233.093338</ele>
        <time>2021-05-01T03:02:50.935Z</time>
      </trkpt>
      <trkpt lat="45.76204" lon="5.72086">
        <ele>232.710556</ele>
        <time>2021-05-01T03:02:57.814Z</time>
      </trkpt>
      <trkpt lat="45.76154" lon="5.71932">
        <ele>231.817723</ele>
        <time>2021-05-01T03:03:25.314Z</time>
      </trkpt>
      <trkpt lat="45.76131" lon="5.71878">
        <ele>231.579709</ele>
        <time>2021-05-01T03:03:36.794Z</time>
      </trkpt>
      <trkpt lat="45.76009" lon="5.71624">
        <ele>230.981896</ele>
        <time>2021-05-01T03:04:32.579Z</time>
      </trkpt>
      <trkpt lat="45.75991" lon="5.71603">
        <ele>230.950016</ele>
        <time>2021-05-01T03:04:38.306Z</time>
      </trkpt>
      <trkpt lat="45.75916" lon="5.71566">
        <ele>230.943536</ele>
        <time>2021-05-01T03:04:59.013Z</time>
      </trkpt>
      <trkpt lat="45.75896" lon="5.71548">
        <ele>230.941615</ele>
        <time>2021-05-01T03:05:05.214Z</time>
      </trkpt>
      <trkpt lat="45.75716" lon="5.71177">
        <ele>231.514381</ele>
        <time>2021-05-01T03:06:32.788Z</time>
      </trkpt>
      <trkpt lat="45.75705" lon="5.71161">
        <ele>231.56907</ele>
        <time>2021-05-01T03:06:37.213Z</time>
      </trkpt>
      <trkpt lat="45.75675" lon="5.71142">
        <ele>231.686649</ele>
        <time>2021-05-01T03:06:46.732Z</time>
      </trkpt>
      <trkpt lat="45.75665" lon="5.7113">
        <ele>231.731507</ele>
        <time>2021-05-01T03:06:50.379Z</time>
      </trkpt>
      <trkpt lat="45.75533" lon="5.7085">
        <ele>232.506794</ele>
        <time>2021-05-01T03:07:58.130Z</time>
      </trkpt>
      <trkpt lat="45.75506" lon="5.70794">
        <ele>232.296007</ele>
        <time>2021-05-01T03:08:10.292Z</time>
      </trkpt>
      <trkpt lat="45.75491" lon="5.70774">
        <ele>232.206697</ele>
        <time>2021-05-01T03:08:15.495Z</time>
      </trkpt>
      <trkpt lat="45.75481" lon="5.70753">
        <ele>232.129302</ele>
        <time>2021-05-01T03:08:19.658Z</time>
      </trkpt>
      <trkpt lat="45.7548" lon="5.70744">
        <ele>232.100951</ele>
        <time>2021-05-01T03:08:21.264Z</time>
      </trkpt>
      <trkpt lat="45.75482" lon="5.70737">
        <ele>232.079761</ele>
        <time>2021-05-01T03:08:22.491Z</time>
      </trkpt>
      <trkpt lat="45.75508" lon="5.70713">
        <ele>231.941429</ele>
        <time>2021-05-01T03:08:30.062Z</time>
      </trkpt>
      <trkpt lat="45.7551" lon="5.70698">
        <ele>231.896155</ele>
        <time>2021-05-01T03:08:32.693Z</time>
      </trkpt>
      <trkpt lat="45.75508" lon="5.70693">
        <ele>231.878007</ele>
        <time>2021-05-01T03:08:33.681Z</time>
      </trkpt>
      <trkpt lat="45.75507" lon="5.70691">
        <ele>231.870134</ele>
        <time>2021-05-01T03:08:34.080Z</time>
      </trkpt>
      <trkpt lat="45.75502" lon="5.70682">
        <ele>231.835892</ele>
        <time>2021-05-01T03:08:35.996Z</time>
      </trkpt>
      <trkpt lat="45.75494" lon="5.70672">
        <ele>231.791125</ele>
        <time>2021-05-01T03:08:38.296Z</time>
      </trkpt>
      <trkpt lat="45.75431" lon="5.7058">
        <ele>231.337136</ele>
        <time>2021-05-01T03:09:00.069Z</time>
      </trkpt>
      <trkpt lat="45.7535" lon="5.70481">
        <ele>230.818848</ele>
        <time>2021-05-01T03:09:26.296Z</time>
      </trkpt>
      <trkpt lat="45.75316" lon="5.70448">
        <ele>230.978825</ele>
        <time>2021-05-01T03:09:37.676Z</time>
      </trkpt>
      <trkpt lat="45.75256" lon="5.70406">
        <ele>231.239339</ele>
        <time>2021-05-01T03:09:57.154Z</time>
      </trkpt>
      <trkpt lat="45.75196" lon="5.70376">
        <ele>231.489466</ele>
        <time>2021-05-01T03:10:16.151Z</time>
      </trkpt>
      <trkpt lat="45.75124" lon="5.70354">
        <ele>231.781395</ele>
        <time>2021-05-01T03:10:37.751Z</time>
      </trkpt>
      <trkpt lat="45.74961" lon="5.70332">
        <ele>232.160465</ele>
        <time>2021-05-01T03:11:23.870Z</time>
      </trkpt>
      <trkpt lat="45.74945" lon="5.70319">
        <ele>232.136942</ele>
        <time>2021-05-01T03:11:28.740Z</time>
      </trkpt>
      <trkpt lat="45.74887" lon="5.70211">
        <ele>232.015782</ele>
        <time>2021-05-01T03:11:53.088Z</time>
      </trkpt>
      <trkpt lat="45.74858" lon="5.7018">
        <ele>231.818775</ele>
        <time>2021-05-01T03:12:01.835Z</time>
      </trkpt>
      <trkpt lat="45.74829" lon="5.70164">
        <ele>231.566702</ele>
        <time>2021-05-01T03:12:09.109Z</time>
      </trkpt>
      <trkpt lat="45.74782" lon="5.70161">
        <ele>231.175319</ele>
        <time>2021-05-01T03:12:20.403Z</time>
      </trkpt>
      <trkpt lat="45.74744" lon="5.70189">
        <ele>230.82656</ele>
        <time>2021-05-01T03:12:30.288Z</time>
      </trkpt>
      <trkpt lat="45.74741" lon="5.70187">
        <ele>230.801184</ele>
        <time>2021-05-01T03:12:30.973Z</time>
      </trkpt>
      <trkpt lat="45.74739" lon="5.70186">
        <ele>230.776959</ele>
        <time>2021-05-01T03:12:31.544Z</time>
      </trkpt>
      <trkpt lat="45.74713" lon="5.70216">
        <ele>230.507225</ele>
        <time>2021-05-01T03:12:39.337Z</time>
      </trkpt>
      <trkpt lat="45.7467" lon="5.70251">
        <ele>230.191389</ele>
        <time>2021-05-01T03:12:50.767Z</time>
      </trkpt>
      <trkpt lat="45.74608" lon="5.70283">
        <ele>229.772176</ele>
        <time>2021-05-01T03:13:06.359Z</time>
      </trkpt>
      <trkpt lat="45.74568" lon="5.70285">
        <ele>229.515005</ele>
        <time>2021-05-01T03:13:16.448Z</time>
      </trkpt>
      <trkpt lat="45.74227" lon="5.70243">
        <ele>229.519229</ele>
        <time>2021-05-01T03:14:47.877Z</time>
      </trkpt>
      <trkpt lat="45.74143" lon="5.70255">
        <ele>229.84209</ele>
        <time>2021-05-01T03:15:12.294Z</time>
      </trkpt>
      <trkpt lat="45.74097" lon="5.70275">
        <ele>230.130391</ele>
        <time>2021-05-01T03:15:26.725Z</time>
      </trkpt>
      <trkpt lat="45.74043" lon="5.70309">
        <ele>230.482346</ele>
        <time>2021-05-01T03:15:44.681Z</time>
      </trkpt>
      <trkpt lat="45.73941" lon="5.70406">
        <ele>230.906905</ele>
        <time>2021-05-01T03:16:20.654Z</time>
      </trkpt>
      <trkpt lat="45.739" lon="5.7042">
        <ele>231.020889</ele>
        <time>2021-05-01T03:16:31.055Z</time>
      </trkpt>
      <trkpt lat="45.73884" lon="5.70419">
        <ele>231.064496</ele>
        <time>2021-05-01T03:16:35.143Z</time>
      </trkpt>
      <trkpt lat="45.73869" lon="5.70411">
        <ele>231.108316</ele>
        <time>2021-05-01T03:16:39.316Z</time>
      </trkpt>
      <trkpt lat="45.7384" lon="5.70387">
        <ele>231.229409</ele>
        <time>2021-05-01T03:16:49.050Z</time>
      </trkpt>
      <trkpt lat="45.73832" lon="5.70384">
        <ele>231.263919</ele>
        <time>2021-05-01T03:16:52.776Z</time>
      </trkpt>
      <trkpt lat="45.73824" lon="5.70387">
        <ele>231.297792</ele>
        <time>2021-05-01T03:16:54.719Z</time>
      </trkpt>
      <trkpt lat="45.73792" lon="5.70444">
        <ele>231.514374</ele>
        <time>2021-05-01T03:17:10.515Z</time>
      </trkpt>
      <trkpt lat="45.73788" lon="5.70448">
        <ele>231.53582</ele>
        <time>2021-05-01T03:17:11.499Z</time>
      </trkpt>
      <trkpt lat="45.73782" lon="5.70446">
        <ele>231.55906</ele>
        <time>2021-05-01T03:17:13.921Z</time>
      </trkpt>
      <trkpt lat="45.73759" lon="5.70428">
        <ele>231.669791</ele>
        <time>2021-05-01T03:17:20.970Z</time>
      </trkpt>
      <trkpt lat="45.73757" lon="5.70419">
        <ele>231.697237</ele>
        <time>2021-05-01T03:17:22.428Z</time>
      </trkpt>
      <trkpt lat="45.7376" lon="5.7041">
        <ele>231.726587</ele>
        <time>2021-05-01T03:17:24.621Z</time>
      </trkpt>
      <trkpt lat="45.73801" lon="5.70339">
        <ele>232.752643</ele>
        <time>2021-05-01T03:17:40.806Z</time>
      </trkpt>
      <trkpt lat="45.73808" lon="5.70333">
        <ele>233.041241</ele>
        <time>2021-05-01T03:17:44.441Z</time>
      </trkpt>
      <trkpt lat="45.73814" lon="5.70329">
        <ele>233.298459</ele>
        <time>2021-05-01T03:17:47.726Z</time>
      </trkpt>
      <trkpt lat="45.7382" lon="5.70328">
        <ele>233.513707</ele>
        <time>2021-05-01T03:17:49.862Z</time>
      </trkpt>
      <trkpt lat="45.73825" lon="5.70332">
        <ele>233.710545</ele>
        <time>2021-05-01T03:17:51.874Z</time>
      </trkpt>
      <trkpt lat="45.73827" lon="5.70336">
        <ele>233.822216</ele>
        <time>2021-05-01T03:17:52.746Z</time>
      </trkpt>
      <trkpt lat="45.73812" lon="5.70355">
        <ele>234.533453</ele>
        <time>2021-05-01T03:18:01.964Z</time>
      </trkpt>
      <trkpt lat="45.73797" lon="5.70377">
        <ele>235.304557</ele>
        <time>2021-05-01T03:18:11.677Z</time>
      </trkpt>
      <trkpt lat="45.73776" lon="5.70425">
        <ele>236.719032</ele>
        <time>2021-05-01T03:18:30.827Z</time>
      </trkpt>
      <trkpt lat="45.73726" lon="5.70566">
        <ele>242.373004</ele>
        <time>2021-05-01T03:19:31.027Z</time>
      </trkpt>
      <trkpt lat="45.73698" lon="5.70643">
        <ele>246.130629</ele>
        <time>2021-05-01T03:20:09.256Z</time>
      </trkpt>
      <trkpt lat="45.73687" lon="5.70664">
        <ele>247.277487</ele>
        <time>2021-05-01T03:20:19.777Z</time>
      </trkpt>
      <trkpt lat="45.73673" lon="5.70683">
        <ele>248.466715</ele>
        <time>2021-05-01T03:20:31.542Z</time>
      </trkpt>
      <trkpt lat="45.7367" lon="5.70674">
        <ele>248.878892</ele>
        <time>2021-05-01T03:20:35.084Z</time>
      </trkpt>
      <trkpt lat="45.7367" lon="5.70639">
        <ele>249.731306</ele>
        <time>2021-05-01T03:20:47.575Z</time>
      </trkpt>
      <trkpt lat="45.73645" lon="5.70592">
        <ele>250.424091</ele>
        <time>2021-05-01T03:21:06.312Z</time>
      </trkpt>
      <trkpt lat="45.73627" lon="5.7057">
        <ele>250.823135</ele>
        <time>2021-05-01T03:21:15.073Z</time>
      </trkpt>
      <trkpt lat="45.73553" lon="5.70496">
        <ele>252.346094</ele>
        <time>2021-05-01T03:21:40.765Z</time>
      </trkpt>
      <trkpt lat="45.735" lon="5.70471">
        <ele>251.122537</ele>
        <time>2021-05-01T03:21:52.577Z</time>
      </trkpt>
      <trkpt lat="45.73416" lon="5.70458">
        <ele>248.539873</ele>
        <time>2021-05-01T03:22:08.983Z</time>
      </trkpt>
      <trkpt lat="45.7334" lon="5.70433">
        <ele>245.486865</ele>
        <time>2021-05-01T03:22:23.541Z</time>
      </trkpt>
      <trkpt lat="45.73321" lon="5.70432">
        <ele>244.43098</ele>
        <time>2021-05-01T03:22:27.070Z</time>
      </trkpt>
      <trkpt lat="45.73222" lon="5.70442">
        <ele>239.096787</ele>
        <time>2021-05-01T03:22:44.380Z</time>
      </trkpt>
      <trkpt lat="45.7318" lon="5.7046">
        <ele>236.800523</ele>
        <time>2021-05-01T03:22:52.401Z</time>
      </trkpt>
      <trkpt lat="45.73176" lon="5.70461">
        <ele>236.642887</ele>
        <time>2021-05-01T03:22:52.962Z</time>
      </trkpt>
      <trkpt lat="45.73168" lon="5.70456">
        <ele>236.260402</ele>
        <time>2021-05-01T03:22:54.503Z</time>
      </trkpt>
      <trkpt lat="45.73143" lon="5.7043">
        <ele>234.912575</ele>
        <time>2021-05-01T03:23:00.103Z</time>
      </trkpt>
      <trkpt lat="45.73135" lon="5.70429">
        <ele>234.556714</ele>
        <time>2021-05-01T03:23:01.515Z</time>
      </trkpt>
      <trkpt lat="45.73015" lon="5.70372">
        <ele>229.26155</ele>
        <time>2021-05-01T03:23:25.404Z</time>
      </trkpt>
      <trkpt lat="45.72998" lon="5.70357">
        <ele>228.948451</ele>
        <time>2021-05-01T03:23:29.386Z</time>
      </trkpt>
      <trkpt lat="45.72974" lon="5.70332">
        <ele>228.486379</ele>
        <time>2021-05-01T03:23:35.957Z</time>
      </trkpt>
      <trkpt lat="45.72913" lon="5.70264">
        <ele>227.267588</ele>
        <time>2021-05-01T03:23:53.583Z</time>
      </trkpt>
      <trkpt lat="45.72852" lon="5.70214">
        <ele>226.512616</ele>
        <time>2021-05-01T03:24:10.593Z</time>
      </trkpt>
      <trkpt lat="45.72829" lon="5.70207">
        <ele>226.455611</ele>
        <time>2021-05-01T03:24:16.495Z</time>
      </trkpt>
      <trkpt lat="45.72806" lon="5.70211">
        <ele>226.399244</ele>
        <time>2021-05-01T03:24:22.314Z</time>
      </trkpt>
      <trkpt lat="45.72652" lon="5.70284">
        <ele>226.045309</ele>
        <time>2021-05-01T03:25:05.307Z</time>
      </trkpt>
      <trkpt lat="45.72625" lon="5.70304">
        <ele>225.995493</ele>
        <time>2021-05-01T03:25:13.329Z</time>
      </trkpt>
      <trkpt lat="45.72621" lon="5.70308">
        <ele>225.987948</ele>
        <time>2021-05-01T03:25:14.557Z</time>
      </trkpt>
      <trkpt lat="45.72617" lon="5.70313">
        <ele>225.978671</ele>
        <time>2021-05-01T03:25:16.129Z</time>
      </trkpt>
      <trkpt lat="45.72604" lon="5.70323">
        <ele>225.954906</ele>
        <time>2021-05-01T03:25:19.865Z</time>
      </trkpt>
      <trkpt lat="45.72589" lon="5.70333">
        <ele>225.926749</ele>
        <time>2021-05-01T03:25:24.397Z</time>
      </trkpt>
      <trkpt lat="45.72557" lon="5.70341">
        <ele>225.874501</ele>
        <time>2021-05-01T03:25:32.720Z</time>
      </trkpt>
      <trkpt lat="45.72548" lon="5.70341">
        <ele>225.859712</ele>
        <time>2021-05-01T03:25:34.963Z</time>
      </trkpt>
      <trkpt lat="45.7254" lon="5.7034">
        <ele>225.846044</ele>
        <time>2021-05-01T03:25:36.899Z</time>
      </trkpt>
      <trkpt lat="45.72416" lon="5.70275">
        <ele>224.938455</ele>
        <time>2021-05-01T03:26:08.857Z</time>
      </trkpt>
      <trkpt lat="45.72413" lon="5.70272">
        <ele>224.908536</ele>
        <time>2021-05-01T03:26:09.704Z</time>
      </trkpt>
      <trkpt lat="45.7241" lon="5.70268">
        <ele>224.880878</ele>
        <time>2021-05-01T03:26:10.553Z</time>
      </trkpt>
      <trkpt lat="45.72391" lon="5.70241">
        <ele>224.695514</ele>
        <time>2021-05-01T03:26:17.075Z</time>
      </trkpt>
      <trkpt lat="45.72389" lon="5.70237">
        <ele>224.674866</ele>
        <time>2021-05-01T03:26:17.678Z</time>
      </trkpt>
      <trkpt lat="45.72388" lon="5.70234">
        <ele>224.658603</ele>
        <time>2021-05-01T03:26:18.134Z</time>
      </trkpt>
      <trkpt lat="45.72374" lon="5.70206">
        <ele>224.499189</ele>
        <time>2021-05-01T03:26:24.067Z</time>
      </trkpt>
      <trkpt lat="45.72346" lon="5.70187">
        <ele>224.307702</ele>
        <time>2021-05-01T03:26:31.305Z</time>
      </trkpt>
      <trkpt lat="45.7232" lon="5.70176">
        <ele>224.138161</ele>
        <time>2021-05-01T03:26:37.641Z</time>
      </trkpt>
      <trkpt lat="45.72286" lon="5.70178">
        <ele>223.930585</ele>
        <time>2021-05-01T03:26:45.571Z</time>
      </trkpt>
      <trkpt lat="45.72075" lon="5.70074">
        <ele>223.021978</ele>
        <time>2021-05-01T03:27:42.086Z</time>
      </trkpt>
      <trkpt lat="45.72051" lon="5.70074">
        <ele>222.948731</ele>
        <time>2021-05-01T03:27:48.374Z</time>
      </trkpt>
      <trkpt lat="45.72028" lon="5.70074">
        <ele>222.904716</ele>
        <time>2021-05-01T03:27:54.349Z</time>
      </trkpt>
      <trkpt lat="45.72003" lon="5.70073">
        <ele>222.869901</ele>
        <time>2021-05-01T03:28:00.746Z</time>
      </trkpt>
      <trkpt lat="45.71574" lon="5.70077">
        <ele>222.402784</ele>
        <time>2021-05-01T03:29:52.564Z</time>
      </trkpt>
      <trkpt lat="45.71478" lon="5.70065">
        <ele>222.381618</ele>
        <time>2021-05-01T03:30:19.073Z</time>
      </trkpt>
      <trkpt lat="45.71471" lon="5.70072">
        <ele>222.380006</ele>
        <time>2021-05-01T03:30:21.596Z</time>
      </trkpt>
      <trkpt lat="45.71469" lon="5.70078">
        <ele>222.379158</ele>
        <time>2021-05-01T03:30:22.744Z</time>
      </trkpt>
      <trkpt lat="45.71467" lon="5.70101">
        <ele>222.376095</ele>
        <time>2021-05-01T03:30:27.510Z</time>
      </trkpt>
      <trkpt lat="45.7147" lon="5.70236">
        <ele>222.358438</ele>
        <time>2021-05-01T03:30:53.958Z</time>
      </trkpt>
      <trkpt lat="45.71475" lon="5.70245">
        <ele>222.356912</ele>
        <time>2021-05-01T03:30:56.147Z</time>
      </trkpt>
      <trkpt lat="45.71489" lon="5.70252">
        <ele>222.354129</ele>
        <time>2021-05-01T03:31:00.108Z</time>
      </trkpt>
      <trkpt lat="45.71493" lon="5.70251">
        <ele>222.353468</ele>
        <time>2021-05-01T03:31:01.208Z</time>
      </trkpt>
      <trkpt lat="45.71491" lon="5.70219">
        <ele>222.241425</ele>
        <time>2021-05-01T03:31:06.862Z</time>
      </trkpt>
      <trkpt lat="45.71489" lon="5.7018">
        <ele>222.082999</ele>
        <time>2021-05-01T03:31:13.662Z</time>
      </trkpt>
      <trkpt lat="45.71487" lon="5.70085">
        <ele>221.704718</ele>
        <time>2021-05-01T03:31:29.415Z</time>
      </trkpt>
      <trkpt lat="45.71484" lon="5.69915">
        <ele>221.252593</ele>
        <time>2021-05-01T03:31:58.243Z</time>
      </trkpt>
      <trkpt lat="45.71484" lon="5.69862">
        <ele>221.202837</ele>
        <time>2021-05-01T03:32:08.035Z</time>
      </trkpt>
      <trkpt lat="45.71474" lon="5.69812">
        <ele>221.15495</ele>
        <time>2021-05-01T03:32:17.582Z</time>
      </trkpt>
      <trkpt lat="45.71456" lon="5.69781">
        <ele>221.117512</ele>
        <time>2021-05-01T03:32:25.238Z</time>
      </trkpt>
      <trkpt lat="45.71448" lon="5.69769">
        <ele>221.101463</ele>
        <time>2021-05-01T03:32:28.700Z</time>
      </trkpt>
      <trkpt lat="45.71434" lon="5.69759">
        <ele>221.085433</ele>
        <time>2021-05-01T03:32:33.183Z</time>
      </trkpt>
      <trkpt lat="45.71422" lon="5.69756">
        <ele>221.115112</ele>
        <time>2021-05-01T03:32:36.215Z</time>
      </trkpt>
      <trkpt lat="45.71402" lon="5.69755">
        <ele>221.167385</ele>
        <time>2021-05-01T03:32:42.279Z</time>
      </trkpt>
      <trkpt lat="45.71337" lon="5.69756">
        <ele>221.332557</ele>
        <time>2021-05-01T03:33:00.529Z</time>
      </trkpt>
      <trkpt lat="45.71303" lon="5.69765">
        <ele>221.422036</ele>
        <time>2021-05-01T03:33:10.355Z</time>
      </trkpt>
      <trkpt lat="45.71286" lon="5.69771">
        <ele>221.465746</ele>
        <time>2021-05-01T03:33:15.132Z</time>
      </trkpt>
      <trkpt lat="45.71254" lon="5.69782">
        <ele>221.542676</ele>
        <time>2021-05-01T03:33:24.247Z</time>
      </trkpt>
      <trkpt lat="45.71181" lon="5.69816">
        <ele>221.542696</ele>
        <time>2021-05-01T03:33:44.584Z</time>
      </trkpt>
      <trkpt lat="45.7116" lon="5.69826">
        <ele>221.542702</ele>
        <time>2021-05-01T03:33:50.702Z</time>
      </trkpt>
      <trkpt lat="45.71143" lon="5.69833">
        <ele>221.542707</ele>
        <time>2021-05-01T03:33:55.412Z</time>
      </trkpt>
      <trkpt lat="45.71087" lon="5.69856">
        <ele>221.542722</ele>
        <time>2021-05-01T03:34:10.676Z</time>
      </trkpt>
      <trkpt lat="45.71061" lon="5.69858">
        <ele>221.439379</ele>
        <time>2021-05-01T03:34:17.537Z</time>
      </trkpt>
      <trkpt lat="45.71055" lon="5.69857">
        <ele>221.413178</ele>
        <time>2021-05-01T03:34:19.131Z</time>
      </trkpt>
      <trkpt lat="45.71024" lon="5.69856">
        <ele>221.278853</ele>
        <time>2021-05-01T03:34:27.202Z</time>
      </trkpt>
      <trkpt lat="45.70906" lon="5.69851">
        <ele>220.773989</ele>
        <time>2021-05-01T03:34:56.038Z</time>
      </trkpt>
      <trkpt lat="45.70876" lon="5.69849">
        <ele>220.596526</ele>
        <time>2021-05-01T03:35:03.111Z</time>
      </trkpt>
      <trkpt lat="45.70858" lon="5.69847">
        <ele>220.485345</ele>
        <time>2021-05-01T03:35:07.473Z</time>
      </trkpt>
      <trkpt lat="45.70853" lon="5.69846">
        <ele>220.454754</ele>
        <time>2021-05-01T03:35:08.735Z</time>
      </trkpt>
      <trkpt lat="45.70846" lon="5.69846">
        <ele>220.415824</ele>
        <time>2021-05-01T03:35:10.289Z</time>
      </trkpt>
      <trkpt lat="45.70834" lon="5.69847">
        <ele>220.344523</ele>
        <time>2021-05-01T03:35:13.095Z</time>
      </trkpt>
      <trkpt lat="45.70657" lon="5.69847">
        <ele>219.484696</ele>
        <time>2021-05-01T03:35:56.809Z</time>
      </trkpt>
      <trkpt lat="45.7053" lon="5.69875">
        <ele>219.150694</ele>
        <time>2021-05-01T03:36:29.779Z</time>
      </trkpt>
      <trkpt lat="45.70445" lon="5.69911">
        <ele>219.15463</ele>
        <time>2021-05-01T03:36:53.243Z</time>
      </trkpt>
      <trkpt lat="45.70386" lon="5.69925">
        <ele>219.157302</ele>
        <time>2021-05-01T03:37:09.484Z</time>
      </trkpt>
      <trkpt lat="45.70178" lon="5.69935">
        <ele>219.488182</ele>
        <time>2021-05-01T03:38:06.894Z</time>
      </trkpt>
      <trkpt lat="45.70114" lon="5.69915">
        <ele>219.588951</ele>
        <time>2021-05-01T03:38:25.127Z</time>
      </trkpt>
      <trkpt lat="45.70028" lon="5.69872">
        <ele>219.728681</ele>
        <time>2021-05-01T03:38:50.063Z</time>
      </trkpt>
      <trkpt lat="45.69975" lon="5.69852">
        <ele>219.694669</ele>
        <time>2021-05-01T03:39:04.540Z</time>
      </trkpt>
      <trkpt lat="45.69914" lon="5.69843">
        <ele>219.631377</ele>
        <time>2021-05-01T03:39:20.348Z</time>
      </trkpt>
      <trkpt lat="45.69764" lon="5.69819">
        <ele>219.781854</ele>
        <time>2021-05-01T03:39:59.938Z</time>
      </trkpt>
      <trkpt lat="45.69692" lon="5.69806">
        <ele>219.993294</ele>
        <time>2021-05-01T03:40:20.820Z</time>
      </trkpt>
      <trkpt lat="45.69642" lon="5.69798">
        <ele>220.225762</ele>
        <time>2021-05-01T03:40:36.138Z</time>
      </trkpt>
      <trkpt lat="45.69574" lon="5.6977">
        <ele>220.73121</ele>
        <time>2021-05-01T03:40:58.006Z</time>
      </trkpt>
      <trkpt lat="45.69537" lon="5.69744">
        <ele>221.016557</ele>
        <time>2021-05-01T03:41:10.427Z</time>
      </trkpt>
      <trkpt lat="45.69399" lon="5.69621">
        <ele>221.982263</ele>
        <time>2021-05-01T03:41:58.339Z</time>
      </trkpt>
      <trkpt lat="45.6925" lon="5.6949">
        <ele>222.947428</ele>
        <time>2021-05-01T03:42:49.126Z</time>
      </trkpt>
      <trkpt lat="45.69226" lon="5.69476">
        <ele>223.095121</ele>
        <time>2021-05-01T03:42:56.995Z</time>
      </trkpt>
      <trkpt lat="45.69203" lon="5.6947">
        <ele>223.223449</ele>
        <time>2021-05-01T03:43:03.806Z</time>
      </trkpt>
      <trkpt lat="45.69128" lon="5.6948">
        <ele>223.667603</ele>
        <time>2021-05-01T03:43:26.094Z</time>
      </trkpt>
      <trkpt lat="45.69073" lon="5.69474">
        <ele>223.995349</ele>
        <time>2021-05-01T03:43:42.079Z</time>
      </trkpt>
      <trkpt lat="45.6903" lon="5.69446">
        <ele>224.272533</ele>
        <time>2021-05-01T03:43:56.051Z</time>
      </trkpt>
      <trkpt lat="45.69011" lon="5.69422">
        <ele>224.428532</ele>
        <time>2021-05-01T03:44:03.515Z</time>
      </trkpt>
      <trkpt lat="45.68963" lon="5.69343">
        <ele>225.039976</ele>
        <time>2021-05-01T03:44:25.931Z</time>
      </trkpt>
      <trkpt lat="45.68935" lon="5.69298">
        <ele>225.388241</ele>
        <time>2021-05-01T03:44:39.070Z</time>
      </trkpt>
      <trkpt lat="45.68897" lon="5.6926">
        <ele>225.774717</ele>
        <time>2021-05-01T03:44:53.656Z</time>
      </trkpt>
      <trkpt lat="45.68794" lon="5.6918">
        <ele>226.268345</ele>
        <time>2021-05-01T03:45:29.030Z</time>
      </trkpt>
      <trkpt lat="45.68514" lon="5.68961">
        <ele>226.139681</ele>
        <time>2021-05-01T03:46:51.515Z</time>
      </trkpt>
      <trkpt lat="45.68489" lon="5.68939">
        <ele>226.105347</ele>
        <time>2021-05-01T03:46:59.034Z</time>
      </trkpt>
      <trkpt lat="45.68452" lon="5.68876">
        <ele>226.036821</ele>
        <time>2021-05-01T03:47:14.336Z</time>
      </trkpt>
      <trkpt lat="45.68389" lon="5.68703">
        <ele>225.952494</ele>
        <time>2021-05-01T03:47:50.866Z</time>
      </trkpt>
      <trkpt lat="45.68363" lon="5.68652">
        <ele>225.932484</ele>
        <time>2021-05-01T03:48:02.762Z</time>
      </trkpt>
      <trkpt lat="45.68341" lon="5.68627">
        <ele>225.919639</ele>
        <time>2021-05-01T03:48:10.245Z</time>
      </trkpt>
      <trkpt lat="45.68285" lon="5.68584">
        <ele>225.531525</ele>
        <time>2021-05-01T03:48:26.369Z</time>
      </trkpt>
      <trkpt lat="45.68259" lon="5.68554">
        <ele>225.322778</ele>
        <time>2021-05-01T03:48:34.190Z</time>
      </trkpt>
      <trkpt lat="45.68247" lon="5.68512">
        <ele>225.119695</ele>
        <time>2021-05-01T03:48:41.742Z</time>
      </trkpt>
      <trkpt lat="45.68235" lon="5.6843">
        <ele>224.729378</ele>
        <time>2021-05-01T03:48:55.440Z</time>
      </trkpt>
      <trkpt lat="45.68229" lon="5.6841">
        <ele>224.558187</ele>
        <time>2021-05-01T03:48:58.977Z</time>
      </trkpt>
      <trkpt lat="45.68221" lon="5.68396">
        <ele>224.421307</ele>
        <time>2021-05-01T03:49:02.018Z</time>
      </trkpt>
      <trkpt lat="45.68202" lon="5.68378">
        <ele>224.181695</ele>
        <time>2021-05-01T03:49:06.930Z</time>
      </trkpt>
      <trkpt lat="45.68053" lon="5.68266">
        <ele>222.596388</ele>
        <time>2021-05-01T03:49:45.500Z</time>
      </trkpt>
      <trkpt lat="45.68005" lon="5.68238">
        <ele>222.325555</ele>
        <time>2021-05-01T03:49:57.986Z</time>
      </trkpt>
      <trkpt lat="45.67965" lon="5.68207">
        <ele>222.089463</ele>
        <time>2021-05-01T03:50:09.071Z</time>
      </trkpt>
      <trkpt lat="45.67878" lon="5.68117">
        <ele>222.559302</ele>
        <time>2021-05-01T03:50:39.025Z</time>
      </trkpt>
      <trkpt lat="45.67855" lon="5.68083">
        <ele>222.889704</ele>
        <time>2021-05-01T03:50:49.550Z</time>
      </trkpt>
      <trkpt lat="45.67848" lon="5.6806">
        <ele>223.059537</ele>
        <time>2021-05-01T03:50:55.059Z</time>
      </trkpt>
      <trkpt lat="45.67841" lon="5.68031">
        <ele>223.271479</ele>
        <time>2021-05-01T03:51:02.020Z</time>
      </trkpt>
      <trkpt lat="45.67813" lon="5.67986">
        <ele>223.751586</ele>
        <time>2021-05-01T03:51:16.781Z</time>
      </trkpt>
      <trkpt lat="45.67801" lon="5.67974">
        <ele>224.206029</ele>
        <time>2021-05-01T03:51:22.615Z</time>
      </trkpt>
      <trkpt lat="45.67771" lon="5.67944">
        <ele>225.330885</ele>
        <time>2021-05-01T03:51:37.026Z</time>
      </trkpt>
      <trkpt lat="45.67722" lon="5.67908">
        <ele>227.025714</ele>
        <time>2021-05-01T03:52:01.994Z</time>
      </trkpt>
      <trkpt lat="45.6771" lon="5.67888">
        <ele>227.578395</ele>
        <time>2021-05-01T03:52:09.669Z</time>
      </trkpt>
      <trkpt lat="45.67678" lon="5.67791">
        <ele>229.648256</ele>
        <time>2021-05-01T03:52:41.750Z</time>
      </trkpt>
      <trkpt lat="45.67671" lon="5.67778">
        <ele>229.890454</ele>
        <time>2021-05-01T03:52:47.135Z</time>
      </trkpt>
      <trkpt lat="45.67664" lon="5.67773">
        <ele>230.056643</ele>
        <time>2021-05-01T03:52:50.357Z</time>
      </trkpt>
      <trkpt lat="45.67648" lon="5.67767">
        <ele>230.391021</ele>
        <time>2021-05-01T03:52:55.720Z</time>
      </trkpt>
      <trkpt lat="45.67611" lon="5.67773">
        <ele>231.168333</ele>
        <time>2021-05-01T03:53:10.081Z</time>
      </trkpt>
      <trkpt lat="45.67598" lon="5.67772">
        <ele>231.430114</ele>
        <time>2021-05-01T03:53:15.602Z</time>
      </trkpt>
      <trkpt lat="45.67571" lon="5.67791">
        <ele>232.065555</ele>
        <time>2021-05-01T03:53:26.204Z</time>
      </trkpt>
      <trkpt lat="45.67528" lon="5.67814">
        <ele>232.882112</ele>
        <time>2021-05-01T03:53:41.216Z</time>
      </trkpt>
      <trkpt lat="45.67528" lon="5.67814">
        <ele>232.874461</ele>
        <time>2021-05-01T03:53:41.510Z</time>
      </trkpt>
      <trkpt lat="45.675" lon="5.67825">
        <ele>232.645582</ele>
        <time>2021-05-01T03:53:48.517Z</time>
      </trkpt>
      <trkpt lat="45.67428" lon="5.67854">
        <ele>232.056165</ele>
        <time>2021-05-01T03:54:05.388Z</time>
      </trkpt>
      <trkpt lat="45.67404" lon="5.67866">
        <ele>231.856551</ele>
        <time>2021-05-01T03:54:11.061Z</time>
      </trkpt>
      <trkpt lat="45.67381" lon="5.67891">
        <ele>231.624203</ele>
        <time>2021-05-01T03:54:17.577Z</time>
      </trkpt>
      <trkpt lat="45.67353" lon="5.67915">
        <ele>231.279802</ele>
        <time>2021-05-01T03:54:24.940Z</time>
      </trkpt>
      <trkpt lat="45.67297" lon="5.67951">
        <ele>230.462194</ele>
        <time>2021-05-01T03:54:38.721Z</time>
      </trkpt>
      <trkpt lat="45.67266" lon="5.67962">
        <ele>230.029506</ele>
        <time>2021-05-01T03:54:45.846Z</time>
      </trkpt>
      <trkpt lat="45.67128" lon="5.67978">
        <ele>228.21395</ele>
        <time>2021-05-01T03:55:16.751Z</time>
      </trkpt>
      <trkpt lat="45.67039" lon="5.67986">
        <ele>227.070547</ele>
        <time>2021-05-01T03:55:36.835Z</time>
      </trkpt>
      <trkpt lat="45.67025" lon="5.67989">
        <ele>226.894199</ele>
        <time>2021-05-01T03:55:39.815Z</time>
      </trkpt>
      <trkpt lat="45.66992" lon="5.67998">
        <ele>226.512015</ele>
        <time>2021-05-01T03:55:47.555Z</time>
      </trkpt>
      <trkpt lat="45.66939" lon="5.68035">
        <ele>225.892419</ele>
        <time>2021-05-01T03:56:01.155Z</time>
      </trkpt>
      <trkpt lat="45.66891" lon="5.68075">
        <ele>225.310028</ele>
        <time>2021-05-01T03:56:14.010Z</time>
      </trkpt>
      <trkpt lat="45.66845" lon="5.68132">
        <ele>224.562436</ele>
        <time>2021-05-01T03:56:28.213Z</time>
      </trkpt>
      <trkpt lat="45.6683" lon="5.68143">
        <ele>224.277739</ele>
        <time>2021-05-01T03:56:32.216Z</time>
      </trkpt>
      <trkpt lat="45.66803" lon="5.68158">
        <ele>223.817344</ele>
        <time>2021-05-01T03:56:38.539Z</time>
      </trkpt>
      <trkpt lat="45.6679" lon="5.68164">
        <ele>223.593386</ele>
        <time>2021-05-01T03:56:41.638Z</time>
      </trkpt>
      <trkpt lat="45.66742" lon="5.68179">
        <ele>222.785851</ele>
        <time>2021-05-01T03:56:52.377Z</time>
      </trkpt>
      <trkpt lat="45.66616" lon="5.68228">
        <ele>220.306267</ele>
        <time>2021-05-01T03:57:19.273Z</time>
      </trkpt>
      <trkpt lat="45.6647" lon="5.68264">
        <ele>217.889188</ele>
        <time>2021-05-01T03:57:50.488Z</time>
      </trkpt>
      <trkpt lat="45.66242" lon="5.68239">
        <ele>217.084461</ele>
        <time>2021-05-01T03:58:49.838Z</time>
      </trkpt>
      <trkpt lat="45.65751" lon="5.6837">
        <ele>218.462089</ele>
        <time>2021-05-01T04:01:14.395Z</time>
      </trkpt>
      <trkpt lat="45.65611" lon="5.68437">
        <ele>217.502551</ele>
        <time>2021-05-01T04:01:48.270Z</time>
      </trkpt>
      <trkpt lat="45.6556" lon="5.68463">
        <ele>216.971163</ele>
        <time>2021-05-01T04:02:00.382Z</time>
      </trkpt>
      <trkpt lat="45.65473" lon="5.68494">
        <ele>216.10293</ele>
        <time>2021-05-01T04:02:20.869Z</time>
      </trkpt>
      <trkpt lat="45.65308" lon="5.68534">
        <ele>215.566718</ele>
        <time>2021-05-01T04:03:03.346Z</time>
      </trkpt>
      <trkpt lat="45.65288" lon="5.68539">
        <ele>215.511998</ele>
        <time>2021-05-01T04:03:08.857Z</time>
      </trkpt>
      <trkpt lat="45.65212" lon="5.68558">
        <ele>215.668968</ele>
        <time>2021-05-01T04:03:30.457Z</time>
      </trkpt>
      <trkpt lat="45.65178" lon="5.68564">
        <ele>215.748742</ele>
        <time>2021-05-01T04:03:40.302Z</time>
      </trkpt>
      <trkpt lat="45.65144" lon="5.6857">
        <ele>215.828688</ele>
        <time>2021-05-01T04:03:49.965Z</time>
      </trkpt>
      <trkpt lat="45.65086" lon="5.68573">
        <ele>215.959631</ele>
        <time>2021-05-01T04:04:06.360Z</time>
      </trkpt>
      <trkpt lat="45.6504" lon="5.68578">
        <ele>216.055005</ele>
        <time>2021-05-01T04:04:19.228Z</time>
      </trkpt>
      <trkpt lat="45.64993" lon="5.68586">
        <ele>216.152314</ele>
        <time>2021-05-01T04:04:32.145Z</time>
      </trkpt>
      <trkpt lat="45.64778" lon="5.68647">
        <ele>216.415978</ele>
        <time>2021-05-01T04:05:31.892Z</time>
      </trkpt>
      <trkpt lat="45.64693" lon="5.68653">
        <ele>216.303253</ele>
        <time>2021-05-01T04:05:54.423Z</time>
      </trkpt>
      <trkpt lat="45.64682" lon="5.68651">
        <ele>216.276207</ele>
        <time>2021-05-01T04:05:57.362Z</time>
      </trkpt>
      <trkpt lat="45.64654" lon="5.68647">
        <ele>216.211322</ele>
        <time>2021-05-01T04:06:04.406Z</time>
      </trkpt>
      <trkpt lat="45.64613" lon="5.68641">
        <ele>216.112658</ele>
        <time>2021-05-01T04:06:14.976Z</time>
      </trkpt>
      <trkpt lat="45.64607" lon="5.6864">
        <ele>216.099371</ele>
        <time>2021-05-01T04:06:16.384Z</time>
      </trkpt>
      <trkpt lat="45.64568" lon="5.68633">
        <ele>216.005501</ele>
        <time>2021-05-01T04:06:26.201Z</time>
      </trkpt>
      <trkpt lat="45.64493" lon="5.68615">
        <ele>215.80179</ele>
        <time>2021-05-01T04:06:44.937Z</time>
      </trkpt>
      <trkpt lat="45.64443" lon="5.68591">
        <ele>215.65916</ele>
        <time>2021-05-01T04:06:58.185Z</time>
      </trkpt>
      <trkpt lat="45.64417" lon="5.68579">
        <ele>215.585345</ele>
        <time>2021-05-01T04:07:05.119Z</time>
      </trkpt>
      <trkpt lat="45.64385" lon="5.68558">
        <ele>215.694955</ele>
        <time>2021-05-01T04:07:14.923Z</time>
      </trkpt>
      <trkpt lat="45.64342" lon="5.6852">
        <ele>216.243758</ele>
        <time>2021-05-01T04:07:29.993Z</time>
      </trkpt>
      <trkpt lat="45.64315" lon="5.68492">
        <ele>216.611513</ele>
        <time>2021-05-01T04:07:40.219Z</time>
      </trkpt>
      <trkpt lat="45.64291" lon="5.68461">
        <ele>216.962114</ele>
        <time>2021-05-01T04:07:50.245Z</time>
      </trkpt>
      <trkpt lat="45.64295" lon="5.68454">
        <ele>217.035762</ele>
        <time>2021-05-01T04:07:53.322Z</time>
      </trkpt>
      <trkpt lat="45.64323" lon="5.68376">
        <ele>217.896132</ele>
        <time>2021-05-01T04:08:16.502Z</time>
      </trkpt>
      <trkpt lat="45.64383" lon="5.68314">
        <ele>219.440261</ele>
        <time>2021-05-01T04:08:45.728Z</time>
      </trkpt>
      <trkpt lat="45.644" lon="5.68287">
        <ele>219.965122</ele>
        <time>2021-05-01T04:08:56.074Z</time>
      </trkpt>
      <trkpt lat="45.64394" lon="5.6827">
        <ele>220.248727</ele>
        <time>2021-05-01T04:09:01.095Z</time>
      </trkpt>
      <trkpt lat="45.64379" lon="5.68202">
        <ele>221.243441</ele>
        <time>2021-05-01T04:09:18.684Z</time>
      </trkpt>
      <trkpt lat="45.64361" lon="5.68065">
        <ele>221.557578</ele>
        <time>2021-05-01T04:09:49.033Z</time>
      </trkpt>
      <trkpt lat="45.6433" lon="5.67904">
        <ele>221.531844</ele>
        <time>2021-05-01T04:10:17.290Z</time>
      </trkpt>
      <trkpt lat="45.64326" lon="5.67887">
        <ele>221.435726</ele>
        <time>2021-05-01T04:10:20.173Z</time>
      </trkpt>
      <trkpt lat="45.64322" lon="5.67872">
        <ele>221.354825</ele>
        <time>2021-05-01T04:10:22.596Z</time>
      </trkpt>
      <trkpt lat="45.64254" lon="5.67702">
        <ele>220.408697</ele>
        <time>2021-05-01T04:10:55.234Z</time>
      </trkpt>
      <trkpt lat="45.64228" lon="5.67624">
        <ele>220.320128</ele>
        <time>2021-05-01T04:11:10.738Z</time>
      </trkpt>
      <trkpt lat="45.6421" lon="5.67395">
        <ele>220.282961</ele>
        <time>2021-05-01T04:11:54.454Z</time>
      </trkpt>
      <trkpt lat="45.64202" lon="5.67354">
        <ele>220.339084</ele>
        <time>2021-05-01T04:12:02.599Z</time>
      </trkpt>
      <trkpt lat="45.64186" lon="5.67291">
        <ele>220.427823</ele>
        <time>2021-05-01T04:12:15.597Z</time>
      </trkpt>
      <trkpt lat="45.6415" lon="5.67167">
        <ele>220.867059</ele>
        <time>2021-05-01T04:12:41.990Z</time>
      </trkpt>
      <trkpt lat="45.64134" lon="5.67099">
        <ele>221.227575</ele>
        <time>2021-05-01T04:12:56.823Z</time>
      </trkpt>
      <trkpt lat="45.6412" lon="5.66983">
        <ele>221.839611</ele>
        <time>2021-05-01T04:13:22.730Z</time>
      </trkpt>
      <trkpt lat="45.6412" lon="5.6695">
        <ele>222.270745</ele>
        <time>2021-05-01T04:13:30.511Z</time>
      </trkpt>
      <trkpt lat="45.64127" lon="5.66919">
        <ele>222.693531</ele>
        <time>2021-05-01T04:13:38.146Z</time>
      </trkpt>
      <trkpt lat="45.64129" lon="5.66892">
        <ele>223.034886</ele>
        <time>2021-05-01T04:13:44.758Z</time>
      </trkpt>
      <trkpt lat="45.64126" lon="5.6686">
        <ele>223.457275</ele>
        <time>2021-05-01T04:13:52.495Z</time>
      </trkpt>
      <trkpt lat="45.64118" lon="5.66828">
        <ele>223.881838</ele>
        <time>2021-05-01T04:14:00.725Z</time>
      </trkpt>
      <trkpt lat="45.6409" lon="5.66618">
        <ele>228.107625</ele>
        <time>2021-05-01T04:14:58.420Z</time>
      </trkpt>
      <trkpt lat="45.64089" lon="5.66587">
        <ele>228.888868</ele>
        <time>2021-05-01T04:15:08.007Z</time>
      </trkpt>
      <trkpt lat="45.64102" lon="5.66437">
        <ele>233.294518</ele>
        <time>2021-05-01T04:15:59.771Z</time>
      </trkpt>
      <trkpt lat="45.64103" lon="5.66426">
        <ele>233.742436</ele>
        <time>2021-05-01T04:16:04.258Z</time>
      </trkpt>
      <trkpt lat="45.64109" lon="5.66381">
        <ele>235.526154</ele>
        <time>2021-05-01T04:16:23.579Z</time>
      </trkpt>
      <trkpt lat="45.6413" lon="5.66304">
        <ele>238.736099</ele>
        <time>2021-05-01T04:16:57.534Z</time>
      </trkpt>
      <trkpt lat="45.64142" lon="5.66277">
        <ele>240.007683</ele>
        <time>2021-05-01T04:17:09.751Z</time>
      </trkpt>
      <trkpt lat="45.64157" lon="5.66251">
        <ele>241.328535</ele>
        <time>2021-05-01T04:17:21.807Z</time>
      </trkpt>
      <trkpt lat="45.64186" lon="5.66173">
        <ele>242.17804</ele>
        <time>2021-05-01T04:17:48.852Z</time>
      </trkpt>
      <trkpt lat="45.64189" lon="5.66165">
        <ele>242.2407</ele>
        <time>2021-05-01T04:17:51.303Z</time>
      </trkpt>
      <trkpt lat="45.642" lon="5.66132">
        <ele>242.488955</ele>
        <time>2021-05-01T04:18:00.424Z</time>
      </trkpt>
      <trkpt lat="45.64222" lon="5.66063">
        <ele>243.009422</ele>
        <time>2021-05-01T04:18:16.008Z</time>
      </trkpt>
      <trkpt lat="45.64256" lon="5.65958">
        <ele>241.70242</ele>
        <time>2021-05-01T04:18:31.862Z</time>
      </trkpt>
      <trkpt lat="45.6429" lon="5.65882">
        <ele>239.195069</ele>
        <time>2021-05-01T04:18:43.399Z</time>
      </trkpt>
      <trkpt lat="45.64295" lon="5.65825">
        <ele>237.594238</ele>
        <time>2021-05-01T04:18:50.873Z</time>
      </trkpt>
      <trkpt lat="45.64208" lon="5.65437">
        <ele>226.66421</ele>
        <time>2021-05-01T04:19:44.562Z</time>
      </trkpt>
      <trkpt lat="45.64199" lon="5.65389">
        <ele>225.620032</ele>
        <time>2021-05-01T04:19:51.401Z</time>
      </trkpt>
      <trkpt lat="45.64196" lon="5.65363">
        <ele>225.058371</ele>
        <time>2021-05-01T04:19:55.131Z</time>
      </trkpt>
      <trkpt lat="45.64174" lon="5.65287">
        <ele>223.345272</ele>
        <time>2021-05-01T04:20:07.013Z</time>
      </trkpt>
      <trkpt lat="45.64096" lon="5.65054">
        <ele>221.432223</ele>
        <time>2021-05-01T04:20:48.785Z</time>
      </trkpt>
      <trkpt lat="45.64088" lon="5.65032">
        <ele>221.492799</ele>
        <time>2021-05-01T04:20:53.184Z</time>
      </trkpt>
      <trkpt lat="45.64076" lon="5.64996">
        <ele>221.589917</ele>
        <time>2021-05-01T04:21:00.639Z</time>
      </trkpt>
      <trkpt lat="45.64068" lon="5.64939">
        <ele>221.732515</ele>
        <time>2021-05-01T04:21:11.233Z</time>
      </trkpt>
      <trkpt lat="45.64062" lon="5.64927">
        <ele>221.768627</ele>
        <time>2021-05-01T04:21:14.285Z</time>
      </trkpt>
      <trkpt lat="45.64061" lon="5.64914">
        <ele>221.802519</ele>
        <time>2021-05-01T04:21:17.194Z</time>
      </trkpt>
      <trkpt lat="45.64014" lon="5.64792">
        <ele>222.264731</ele>
        <time>2021-05-01T04:21:49.736Z</time>
      </trkpt>
      <trkpt lat="45.64011" lon="5.64789">
        <ele>222.297781</ele>
        <time>2021-05-01T04:21:51.716Z</time>
      </trkpt>
      <trkpt lat="45.64008" lon="5.6479">
        <ele>222.316092</ele>
        <time>2021-05-01T04:21:52.558Z</time>
      </trkpt>
      <trkpt lat="45.64002" lon="5.64792">
        <ele>222.371631</ele>
        <time>2021-05-01T04:21:55.972Z</time>
      </trkpt>
      <trkpt lat="45.6399" lon="5.64799">
        <ele>222.480315</ele>
        <time>2021-05-01T04:22:02.164Z</time>
      </trkpt>
      <trkpt lat="45.63982" lon="5.64768">
        <ele>222.670657</ele>
        <time>2021-05-01T04:22:14.330Z</time>
      </trkpt>
      <trkpt lat="45.63985" lon="5.64624">
        <ele>223.500141</ele>
        <time>2021-05-01T04:22:52.855Z</time>
      </trkpt>
      <trkpt lat="45.63987" lon="5.64588">
        <ele>223.406653</ele>
        <time>2021-05-01T04:22:59.486Z</time>
      </trkpt>
      <trkpt lat="45.63995" lon="5.64523">
        <ele>223.098507</ele>
        <time>2021-05-01T04:23:12.097Z</time>
      </trkpt>
      <trkpt lat="45.64025" lon="5.64379">
        <ele>222.403246</ele>
        <time>2021-05-01T04:23:35.929Z</time>
      </trkpt>
      <trkpt lat="45.64024" lon="5.64354">
        <ele>222.281405</ele>
        <time>2021-05-01T04:23:40.002Z</time>
      </trkpt>
      <trkpt lat="45.64018" lon="5.64341">
        <ele>222.201758</ele>
        <time>2021-05-01T04:23:42.557Z</time>
      </trkpt>
      <trkpt lat="45.64013" lon="5.64337">
        <ele>222.160055</ele>
        <time>2021-05-01T04:23:43.656Z</time>
      </trkpt>
      <trkpt lat="45.63993" lon="5.64324">
        <ele>222.000655</ele>
        <time>2021-05-01T04:23:48.843Z</time>
      </trkpt>
      <trkpt lat="45.63986" lon="5.64314">
        <ele>221.92669</ele>
        <time>2021-05-01T04:23:51.150Z</time>
      </trkpt>
      <trkpt lat="45.63985" lon="5.64299">
        <ele>221.847357</ele>
        <time>2021-05-01T04:23:53.535Z</time>
      </trkpt>
      <trkpt lat="45.63995" lon="5.64273">
        <ele>221.691736</ele>
        <time>2021-05-01T04:23:58.796Z</time>
      </trkpt>
      <trkpt lat="45.64007" lon="5.64271">
        <ele>221.603047</ele>
        <time>2021-05-01T04:24:01.450Z</time>
      </trkpt>
      <trkpt lat="45.64031" lon="5.64288">
        <ele>221.408262</ele>
        <time>2021-05-01T04:24:08.226Z</time>
      </trkpt>
      <trkpt lat="45.64046" lon="5.6428">
        <ele>221.294435</ele>
        <time>2021-05-01T04:24:11.861Z</time>
      </trkpt>
      <trkpt lat="45.64056" lon="5.64241">
        <ele>221.080565</ele>
        <time>2021-05-01T04:24:19.069Z</time>
      </trkpt>
      <trkpt lat="45.6405" lon="5.642">
        <ele>221.041212</ele>
        <time>2021-05-01T04:24:26.924Z</time>
      </trkpt>
      <trkpt lat="45.6407" lon="5.64168">
        <ele>221.051024</ele>
        <time>2021-05-01T04:24:35.323Z</time>
      </trkpt>
      <trkpt lat="45.64081" lon="5.64099">
        <ele>221.067144</ele>
        <time>2021-05-01T04:24:49.056Z</time>
      </trkpt>
      <trkpt lat="45.64084" lon="5.63899">
        <ele>220.968351</ele>
        <time>2021-05-01T04:25:26.690Z</time>
      </trkpt>
      <trkpt lat="45.64071" lon="5.63707">
        <ele>220.721576</ele>
        <time>2021-05-01T04:26:01.170Z</time>
      </trkpt>
      <trkpt lat="45.64078" lon="5.63608">
        <ele>220.686821</ele>
        <time>2021-05-01T04:26:18.475Z</time>
      </trkpt>
      <trkpt lat="45.64055" lon="5.63502">
        <ele>220.647784</ele>
        <time>2021-05-01T04:26:39.101Z</time>
      </trkpt>
      <trkpt lat="45.64047" lon="5.63429">
        <ele>221.180946</ele>
        <time>2021-05-01T04:26:54.780Z</time>
      </trkpt>
      <trkpt lat="45.64047" lon="5.63417">
        <ele>221.306498</ele>
        <time>2021-05-01T04:26:56.854Z</time>
      </trkpt>
      <trkpt lat="45.64046" lon="5.63402">
        <ele>221.460131</ele>
        <time>2021-05-01T04:27:01.343Z</time>
      </trkpt>
      <trkpt lat="45.64046" lon="5.63368">
        <ele>221.81964</ele>
        <time>2021-05-01T04:27:10.950Z</time>
      </trkpt>
      <trkpt lat="45.64051" lon="5.63336">
        <ele>222.160272</ele>
        <time>2021-05-01T04:27:21.461Z</time>
      </trkpt>
      <trkpt lat="45.64058" lon="5.63309">
        <ele>222.458912</ele>
        <time>2021-05-01T04:27:29.424Z</time>
      </trkpt>
      <trkpt lat="45.64059" lon="5.63305">
        <ele>222.503443</ele>
        <time>2021-05-01T04:27:31.185Z</time>
      </trkpt>
      <trkpt lat="45.64064" lon="5.63294">
        <ele>222.638111</ele>
        <time>2021-05-01T04:27:34.695Z</time>
      </trkpt>
      <trkpt lat="45.64066" lon="5.63291">
        <ele>222.679945</ele>
        <time>2021-05-01T04:27:35.909Z</time>
      </trkpt>
      <trkpt lat="45.64068" lon="5.63271">
        <ele>222.893597</ele>
        <time>2021-05-01T04:27:40.527Z</time>
      </trkpt>
      <trkpt lat="45.64069" lon="5.63239">
        <ele>223.231633</ele>
        <time>2021-05-01T04:27:49.874Z</time>
      </trkpt>
      <trkpt lat="45.64071" lon="5.63193">
        <ele>224.196487</ele>
        <time>2021-05-01T04:28:02.371Z</time>
      </trkpt>
      <trkpt lat="45.64072" lon="5.63179">
        <ele>224.509417</ele>
        <time>2021-05-01T04:28:05.948Z</time>
      </trkpt>
      <trkpt lat="45.64072" lon="5.63149">
        <ele>225.21726</ele>
        <time>2021-05-01T04:28:15.349Z</time>
      </trkpt>
      <trkpt lat="45.6408" lon="5.631">
        <ele>226.398668</ele>
        <time>2021-05-01T04:28:30.791Z</time>
      </trkpt>
      <trkpt lat="45.64106" lon="5.63012">
        <ele>228.652187</ele>
        <time>2021-05-01T04:29:00.106Z</time>
      </trkpt>
      <trkpt lat="45.64109" lon="5.62983">
        <ele>229.345472</ele>
        <time>2021-05-01T04:29:10.036Z</time>
      </trkpt>
      <trkpt lat="45.64111" lon="5.62931">
        <ele>230.583086</ele>
        <time>2021-05-01T04:29:29.906Z</time>
      </trkpt>
      <trkpt lat="45.64115" lon="5.62846">
        <ele>232.592677</ele>
        <time>2021-05-01T04:29:59.227Z</time>
      </trkpt>
      <trkpt lat="45.64118" lon="5.62823">
        <ele>233.153655</ele>
        <time>2021-05-01T04:30:07.818Z</time>
      </trkpt>
      <trkpt lat="45.64125" lon="5.62787">
        <ele>234.034732</ele>
        <time>2021-05-01T04:30:18.015Z</time>
      </trkpt>
      <trkpt lat="45.64126" lon="5.62786">
        <ele>234.070652</ele>
        <time>2021-05-01T04:30:18.844Z</time>
      </trkpt>
      <trkpt lat="45.64134" lon="5.62756">
        <ele>234.840098</ele>
        <time>2021-05-01T04:30:25.928Z</time>
      </trkpt>
      <trkpt lat="45.64136" lon="5.62748">
        <ele>235.032562</ele>
        <time>2021-05-01T04:30:28.399Z</time>
      </trkpt>
      <trkpt lat="45.64142" lon="5.62743">
        <ele>235.252428</ele>
        <time>2021-05-01T04:30:31.239Z</time>
      </trkpt>
      <trkpt lat="45.64149" lon="5.62702">
        <ele>234.971842</ele>
        <time>2021-05-01T04:30:38.228Z</time>
      </trkpt>
      <trkpt lat="45.64152" lon="5.62682">
        <ele>234.659328</ele>
        <time>2021-05-01T04:30:43.115Z</time>
      </trkpt>
      <trkpt lat="45.64152" lon="5.62673">
        <ele>234.50506</ele>
        <time>2021-05-01T04:30:44.742Z</time>
      </trkpt>
      <trkpt lat="45.64153" lon="5.62664">
        <ele>234.371505</ele>
        <time>2021-05-01T04:30:45.749Z</time>
      </trkpt>
      <trkpt lat="45.64151" lon="5.62633">
        <ele>233.874484</ele>
        <time>2021-05-01T04:30:52.089Z</time>
      </trkpt>
      <trkpt lat="45.64142" lon="5.62586">
        <ele>233.09659</ele>
        <time>2021-05-01T04:30:59.309Z</time>
      </trkpt>
      <trkpt lat="45.64132" lon="5.62565">
        <ele>232.695104</ele>
        <time>2021-05-01T04:31:02.516Z</time>
      </trkpt>
      <trkpt lat="45.64117" lon="5.62548">
        <ele>232.272752</ele>
        <time>2021-05-01T04:31:06.479Z</time>
      </trkpt>
      <trkpt lat="45.64107" lon="5.62537">
        <ele>231.983977</ele>
        <time>2021-05-01T04:31:08.718Z</time>
      </trkpt>
      <trkpt lat="45.64097" lon="5.62525">
        <ele>231.676854</ele>
        <time>2021-05-01T04:31:11.094Z</time>
      </trkpt>
      <trkpt lat="45.64048" lon="5.62455">
        <ele>229.742796</ele>
        <time>2021-05-01T04:31:23.478Z</time>
      </trkpt>
      <trkpt lat="45.64024" lon="5.62406">
        <ele>228.537223</ele>
        <time>2021-05-01T04:31:31.300Z</time>
      </trkpt>
      <trkpt lat="45.64017" lon="5.62393">
        <ele>228.190139</ele>
        <time>2021-05-01T04:31:33.880Z</time>
      </trkpt>
      <trkpt lat="45.63991" lon="5.6236">
        <ele>227.195482</ele>
        <time>2021-05-01T04:31:41.106Z</time>
      </trkpt>
      <trkpt lat="45.63987" lon="5.62356">
        <ele>227.052534</ele>
        <time>2021-05-01T04:31:42.534Z</time>
      </trkpt>
      <trkpt lat="45.63982" lon="5.62352">
        <ele>226.891932</ele>
        <time>2021-05-01T04:31:43.851Z</time>
      </trkpt>
      <trkpt lat="45.63958" lon="5.62335">
        <ele>226.245273</ele>
        <time>2021-05-01T04:31:51.334Z</time>
      </trkpt>
      <trkpt lat="45.63925" lon="5.62323">
        <ele>226.809539</ele>
        <time>2021-05-01T04:32:01.697Z</time>
      </trkpt>
      <trkpt lat="45.63778" lon="5.6228">
        <ele>229.172036</ele>
        <time>2021-05-01T04:32:58.936Z</time>
      </trkpt>
      <trkpt lat="45.63703" lon="5.62255">
        <ele>228.961283</ele>
        <time>2021-05-01T04:33:23.754Z</time>
      </trkpt>
      <trkpt lat="45.63685" lon="5.6225">
        <ele>228.911711</ele>
        <time>2021-05-01T04:33:27.936Z</time>
      </trkpt>
      <trkpt lat="45.63683" lon="5.62249">
        <ele>228.905518</ele>
        <time>2021-05-01T04:33:29.035Z</time>
      </trkpt>
      <trkpt lat="45.63686" lon="5.62235">
        <ele>228.87737</ele>
        <time>2021-05-01T04:33:31.360Z</time>
      </trkpt>
      <trkpt lat="45.6369" lon="5.62224">
        <ele>228.852025</ele>
        <time>2021-05-01T04:33:33.250Z</time>
      </trkpt>
      <trkpt lat="45.63696" lon="5.62209">
        <ele>228.819632</ele>
        <time>2021-05-01T04:33:35.888Z</time>
      </trkpt>
      <trkpt lat="45.63725" lon="5.6221">
        <ele>228.741048</ele>
        <time>2021-05-01T04:33:46.686Z</time>
      </trkpt>
      <trkpt lat="45.63747" lon="5.62205">
        <ele>228.437167</ele>
        <time>2021-05-01T04:33:55.266Z</time>
      </trkpt>
      <trkpt lat="45.63757" lon="5.62199">
        <ele>228.063568</ele>
        <time>2021-05-01T04:33:57.246Z</time>
      </trkpt>
      <trkpt lat="45.63766" lon="5.62187">
        <ele>227.641909</ele>
        <time>2021-05-01T04:33:59.773Z</time>
      </trkpt>
      <trkpt lat="45.63776" lon="5.62163">
        <ele>226.95908</ele>
        <time>2021-05-01T04:34:03.650Z</time>
      </trkpt>
      <trkpt lat="45.63776" lon="5.62156">
        <ele>226.782554</ele>
        <time>2021-05-01T04:34:04.527Z</time>
      </trkpt>
      <trkpt lat="45.6377" lon="5.62046">
        <ele>224.096983</ele>
        <time>2021-05-01T04:34:19.155Z</time>
      </trkpt>
      <trkpt lat="45.63771" lon="5.61946">
        <ele>221.621083</ele>
        <time>2021-05-01T04:34:32.408Z</time>
      </trkpt>
      <trkpt lat="45.6378" lon="5.6184">
        <ele>218.937622</ele>
        <time>2021-05-01T04:34:46.731Z</time>
      </trkpt>
      <trkpt lat="45.63792" lon="5.61755">
        <ele>216.754137</ele>
        <time>2021-05-01T04:34:58.548Z</time>
      </trkpt>
      <trkpt lat="45.63795" lon="5.6174">
        <ele>216.3515</ele>
        <time>2021-05-01T04:35:00.560Z</time>
      </trkpt>
      <trkpt lat="45.63808" lon="5.61681">
        <ele>215.046488</ele>
        <time>2021-05-01T04:35:08.939Z</time>
      </trkpt>
      <trkpt lat="45.63846" lon="5.61563">
        <ele>212.492665</ele>
        <time>2021-05-01T04:35:26.810Z</time>
      </trkpt>
      <trkpt lat="45.63897" lon="5.61445">
        <ele>210.477019</ele>
        <time>2021-05-01T04:35:47.410Z</time>
      </trkpt>
      <trkpt lat="45.63941" lon="5.61363">
        <ele>209.739954</ele>
        <time>2021-05-01T04:36:04.166Z</time>
      </trkpt>
      <trkpt lat="45.63993" lon="5.61286">
        <ele>209.038739</ele>
        <time>2021-05-01T04:36:22.735Z</time>
      </trkpt>
      <trkpt lat="45.64062" lon="5.61204">
        <ele>208.963519</ele>
        <time>2021-05-01T04:36:46.469Z</time>
      </trkpt>
      <trkpt lat="45.64118" lon="5.61147">
        <ele>208.905842</ele>
        <time>2021-05-01T04:37:04.911Z</time>
      </trkpt>
      <trkpt lat="45.65045" lon="5.60561">
        <ele>208.645748</ele>
        <time>2021-05-01T04:41:34.285Z</time>
      </trkpt>
      <trkpt lat="45.65096" lon="5.60492">
        <ele>208.59355</ele>
        <time>2021-05-01T04:41:52.689Z</time>
      </trkpt>
      <trkpt lat="45.65223" lon="5.60398">
        <ele>208.367709</ele>
        <time>2021-05-01T04:42:29.753Z</time>
      </trkpt>
      <trkpt lat="45.65334" lon="5.60291">
        <ele>208.03436</ele>
        <time>2021-05-01T04:43:04.293Z</time>
      </trkpt>
      <trkpt lat="45.65364" lon="5.60271">
        <ele>207.936882</ele>
        <time>2021-05-01T04:43:12.727Z</time>
      </trkpt>
      <trkpt lat="45.6537" lon="5.60275">
        <ele>207.918183</ele>
        <time>2021-05-01T04:43:14.351Z</time>
      </trkpt>
      <trkpt lat="45.65373" lon="5.60279">
        <ele>207.904953</ele>
        <time>2021-05-01T04:43:15.444Z</time>
      </trkpt>
      <trkpt lat="45.65389" lon="5.60327">
        <ele>207.79442</ele>
        <time>2021-05-01T04:43:28.125Z</time>
      </trkpt>
      <trkpt lat="45.65434" lon="5.60475">
        <ele>207.443145</ele>
        <time>2021-05-01T04:44:05.890Z</time>
      </trkpt>
      <trkpt lat="45.65444" lon="5.60506">
        <ele>207.368275</ele>
        <time>2021-05-01T04:44:13.970Z</time>
      </trkpt>
      <trkpt lat="45.65466" lon="5.60579">
        <ele>207.194857</ele>
        <time>2021-05-01T04:44:32.751Z</time>
      </trkpt>
      <trkpt lat="45.65488" lon="5.60571">
        <ele>207.170598</ele>
        <time>2021-05-01T04:44:38.713Z</time>
      </trkpt>
      <trkpt lat="45.65596" lon="5.60493">
        <ele>207.044359</ele>
        <time>2021-05-01T04:45:10.240Z</time>
      </trkpt>
      <trkpt lat="45.65618" lon="5.60468">
        <ele>207.014372</ele>
        <time>2021-05-01T04:45:17.888Z</time>
      </trkpt>
      <trkpt lat="45.65626" lon="5.60441">
        <ele>207.006234</ele>
        <time>2021-05-01T04:45:23.364Z</time>
      </trkpt>
      <trkpt lat="45.65631" lon="5.60438">
        <ele>207.006052</ele>
        <time>2021-05-01T04:45:24.662Z</time>
      </trkpt>
      <trkpt lat="45.65638" lon="5.60438">
        <ele>207.005786</ele>
        <time>2021-05-01T04:45:26.560Z</time>
      </trkpt>
      <trkpt lat="45.65643" lon="5.60436">
        <ele>207.00559</ele>
        <time>2021-05-01T04:45:27.948Z</time>
      </trkpt>
      <trkpt lat="45.65679" lon="5.60349">
        <ele>207.002957</ele>
        <time>2021-05-01T04:45:46.758Z</time>
      </trkpt>
      <trkpt lat="45.65802" lon="5.60199">
        <ele>206.999994</ele>
        <time>2021-05-01T04:46:30.049Z</time>
      </trkpt>
      <trkpt lat="45.65872" lon="5.60097">
        <ele>206.999994</ele>
        <time>2021-05-01T04:46:56.595Z</time>
      </trkpt>
      <trkpt lat="45.65929" lon="5.59992">
        <ele>206.999994</ele>
        <time>2021-05-01T04:47:21.419Z</time>
      </trkpt>
      <trkpt lat="45.6595" lon="5.59938">
        <ele>206.999994</ele>
        <time>2021-05-01T04:47:33.014Z</time>
      </trkpt>
      <trkpt lat="45.65996" lon="5.59792">
        <ele>206.999994</ele>
        <time>2021-05-01T04:48:03.044Z</time>
      </trkpt>
      <trkpt lat="45.6601" lon="5.59737">
        <ele>206.999994</ele>
        <time>2021-05-01T04:48:13.831Z</time>
      </trkpt>
      <trkpt lat="45.66035" lon="5.59572">
        <ele>206.999994</ele>
        <time>2021-05-01T04:48:45.420Z</time>
      </trkpt>
      <trkpt lat="45.66053" lon="5.59491">
        <ele>206.999994</ele>
        <time>2021-05-01T04:49:01.425Z</time>
      </trkpt>
      <trkpt lat="45.66105" lon="5.59344">
        <ele>206.999994</ele>
        <time>2021-05-01T04:49:32.228Z</time>
      </trkpt>
      <trkpt lat="45.66146" lon="5.59262">
        <ele>206.999994</ele>
        <time>2021-05-01T04:49:51.079Z</time>
      </trkpt>
      <trkpt lat="45.662" lon="5.59181">
        <ele>206.999994</ele>
        <time>2021-05-01T04:50:11.985Z</time>
      </trkpt>
      <trkpt lat="45.66254" lon="5.59119">
        <ele>206.999994</ele>
        <time>2021-05-01T04:50:30.491Z</time>
      </trkpt>
      <trkpt lat="45.66349" lon="5.5904">
        <ele>206.999994</ele>
        <time>2021-05-01T04:50:59.791Z</time>
      </trkpt>
      <trkpt lat="45.66511" lon="5.58937">
        <ele>206.992714</ele>
        <time>2021-05-01T04:51:47.141Z</time>
      </trkpt>
      <trkpt lat="45.66591" lon="5.58866">
        <ele>206.926953</ele>
        <time>2021-05-01T04:52:12.126Z</time>
      </trkpt>
      <trkpt lat="45.6665" lon="5.588">
        <ele>206.874815</ele>
        <time>2021-05-01T04:52:31.676Z</time>
      </trkpt>
      <trkpt lat="45.66741" lon="5.58678">
        <ele>206.64561</ele>
        <time>2021-05-01T04:53:03.902Z</time>
      </trkpt>
      <trkpt lat="45.66777" lon="5.58609">
        <ele>206.541837</ele>
        <time>2021-05-01T04:53:19.374Z</time>
      </trkpt>
      <trkpt lat="45.66822" lon="5.58493">
        <ele>206.500916</ele>
        <time>2021-05-01T04:53:44.383Z</time>
      </trkpt>
      <trkpt lat="45.66854" lon="5.58374">
        <ele>206.449575</ele>
        <time>2021-05-01T04:54:08.047Z</time>
      </trkpt>
      <trkpt lat="45.66864" lon="5.58342">
        <ele>206.39094</ele>
        <time>2021-05-01T04:54:14.433Z</time>
      </trkpt>
      <trkpt lat="45.66876" lon="5.5831">
        <ele>206.330614</ele>
        <time>2021-05-01T04:54:20.937Z</time>
      </trkpt>
      <trkpt lat="45.66894" lon="5.58273">
        <ele>206.255108</ele>
        <time>2021-05-01T04:54:28.956Z</time>
      </trkpt>
      <trkpt lat="45.66907" lon="5.58252">
        <ele>206.210263</ele>
        <time>2021-05-01T04:54:33.940Z</time>
      </trkpt>
      <trkpt lat="45.66904" lon="5.58221">
        <ele>206.158522</ele>
        <time>2021-05-01T04:54:39.501Z</time>
      </trkpt>
      <trkpt lat="45.66908" lon="5.58199">
        <ele>206.120527</ele>
        <time>2021-05-01T04:54:43.679Z</time>
      </trkpt>
      <trkpt lat="45.66913" lon="5.58185">
        <ele>206.094793</ele>
        <time>2021-05-01T04:54:46.336Z</time>
      </trkpt>
      <trkpt lat="45.66913" lon="5.58177">
        <ele>206.081051</ele>
        <time>2021-05-01T04:54:47.864Z</time>
      </trkpt>
      <trkpt lat="45.66927" lon="5.58074">
        <ele>206.076159</ele>
        <time>2021-05-01T04:55:06.228Z</time>
      </trkpt>
      <trkpt lat="45.66965" lon="5.57895">
        <ele>206.210031</ele>
        <time>2021-05-01T04:55:42.298Z</time>
      </trkpt>
      <trkpt lat="45.67005" lon="5.5777">
        <ele>206.989312</ele>
        <time>2021-05-01T04:56:11.291Z</time>
      </trkpt>
      <trkpt lat="45.67082" lon="5.57566">
        <ele>209.522943</ele>
        <time>2021-05-01T04:57:03.614Z</time>
      </trkpt>
      <trkpt lat="45.67091" lon="5.57498">
        <ele>210.630423</ele>
        <time>2021-05-01T04:57:23.403Z</time>
      </trkpt>
      <trkpt lat="45.67104" lon="5.57472">
        <ele>211.123924</ele>
        <time>2021-05-01T04:57:31.884Z</time>
      </trkpt>
      <trkpt lat="45.67114" lon="5.57476">
        <ele>211.362737</ele>
        <time>2021-05-01T04:57:36.195Z</time>
      </trkpt>
      <trkpt lat="45.67114" lon="5.57479">
        <ele>211.416792</ele>
        <time>2021-05-01T04:57:38.188Z</time>
      </trkpt>
      <trkpt lat="45.6712" lon="5.57511">
        <ele>212.105457</ele>
        <time>2021-05-01T04:57:47.885Z</time>
      </trkpt>
      <trkpt lat="45.67129" lon="5.57516">
        <ele>212.484798</ele>
        <time>2021-05-01T04:57:51.942Z</time>
      </trkpt>
      <trkpt lat="45.67142" lon="5.57513">
        <ele>213.020279</ele>
        <time>2021-05-01T04:57:58.252Z</time>
      </trkpt>
      <trkpt lat="45.67155" lon="5.57511">
        <ele>213.54281</ele>
        <time>2021-05-01T04:58:04.063Z</time>
      </trkpt>
      <trkpt lat="45.6716" lon="5.57514">
        <ele>213.757903</ele>
        <time>2021-05-01T04:58:06.857Z</time>
      </trkpt>
      <trkpt lat="45.67179" lon="5.57533">
        <ele>214.69791</ele>
        <time>2021-05-01T04:58:17.354Z</time>
      </trkpt>
      <trkpt lat="45.67173" lon="5.57563">
        <ele>215.56613</ele>
        <time>2021-05-01T04:58:27.543Z</time>
      </trkpt>
      <trkpt lat="45.67205" lon="5.57586">
        <ele>216.984508</ele>
        <time>2021-05-01T04:58:44.936Z</time>
      </trkpt>
      <trkpt lat="45.67215" lon="5.57576">
        <ele>217.497683</ele>
        <time>2021-05-01T04:58:51.045Z</time>
      </trkpt>
      <trkpt lat="45.67226" lon="5.57567">
        <ele>218.008817</ele>
        <time>2021-05-01T04:58:57.400Z</time>
      </trkpt>
      <trkpt lat="45.67234" lon="5.57568">
        <ele>218.33109</ele>
        <time>2021-05-01T04:59:01.398Z</time>
      </trkpt>
      <trkpt lat="45.67278" lon="5.57596">
        <ele>219.782191</ele>
        <time>2021-05-01T04:59:23.777Z</time>
      </trkpt>
      <trkpt lat="45.67306" lon="5.5763">
        <ele>220.742236</ele>
        <time>2021-05-01T04:59:39.479Z</time>
      </trkpt>
      <trkpt lat="45.6731" lon="5.57637">
        <ele>220.892237</ele>
        <time>2021-05-01T04:59:42.222Z</time>
      </trkpt>
      <trkpt lat="45.67319" lon="5.57633">
        <ele>221.148039</ele>
        <time>2021-05-01T04:59:45.580Z</time>
      </trkpt>
      <trkpt lat="45.6732" lon="5.57627">
        <ele>221.26268</ele>
        <time>2021-05-01T04:59:47.923Z</time>
      </trkpt>
      <trkpt lat="45.67342" lon="5.57598">
        <ele>222.02946</ele>
        <time>2021-05-01T04:59:59.443Z</time>
      </trkpt>
      <trkpt lat="45.67392" lon="5.57425">
        <ele>223.499509</ele>
        <time>2021-05-01T05:00:44.615Z</time>
      </trkpt>
      <trkpt lat="45.67394" lon="5.57387">
        <ele>223.471258</ele>
        <time>2021-05-01T05:00:51.678Z</time>
      </trkpt>
      <trkpt lat="45.67386" lon="5.57347">
        <ele>223.440297</ele>
        <time>2021-05-01T05:00:58.942Z</time>
      </trkpt>
      <trkpt lat="45.67383" lon="5.5733">
        <ele>223.427259</ele>
        <time>2021-05-01T05:01:02.006Z</time>
      </trkpt>
      <trkpt lat="45.67383" lon="5.57316">
        <ele>223.417288</ele>
        <time>2021-05-01T05:01:04.126Z</time>
      </trkpt>
      <trkpt lat="45.67396" lon="5.57281">
        <ele>223.387513</ele>
        <time>2021-05-01T05:01:10.718Z</time>
      </trkpt>
      <trkpt lat="45.67434" lon="5.57217">
        <ele>221.83202</ele>
        <time>2021-05-01T05:01:23.500Z</time>
      </trkpt>
      <trkpt lat="45.67449" lon="5.57193">
        <ele>221.190604</ele>
        <time>2021-05-01T05:01:28.288Z</time>
      </trkpt>
      <trkpt lat="45.67527" lon="5.57119">
        <ele>218.58253</ele>
        <time>2021-05-01T05:01:47.288Z</time>
      </trkpt>
      <trkpt lat="45.67587" lon="5.57048">
        <ele>216.695976</ele>
        <time>2021-05-01T05:02:03.172Z</time>
      </trkpt>
      <trkpt lat="45.67619" lon="5.56999">
        <ele>215.590605</ele>
        <time>2021-05-01T05:02:13.115Z</time>
      </trkpt>
      <trkpt lat="45.67656" lon="5.56963">
        <ele>214.533117</ele>
        <time>2021-05-01T05:02:23.246Z</time>
      </trkpt>
      <trkpt lat="45.6768" lon="5.56941">
        <ele>214.087404</ele>
        <time>2021-05-01T05:02:30.115Z</time>
      </trkpt>
      <trkpt lat="45.67731" lon="5.56959">
        <ele>214.106513</ele>
        <time>2021-05-01T05:02:43.902Z</time>
      </trkpt>
      <trkpt lat="45.67874" lon="5.57021">
        <ele>214.042507</ele>
        <time>2021-05-01T05:03:29.468Z</time>
      </trkpt>
      <trkpt lat="45.679" lon="5.57022">
        <ele>213.958937</ele>
        <time>2021-05-01T05:03:36.936Z</time>
      </trkpt>
      <trkpt lat="45.67936" lon="5.57014">
        <ele>213.838518</ele>
        <time>2021-05-01T05:03:47.207Z</time>
      </trkpt>
      <trkpt lat="45.68093" lon="5.5695">
        <ele>212.509378</ele>
        <time>2021-05-01T05:04:26.583Z</time>
      </trkpt>
      <trkpt lat="45.68114" lon="5.56936">
        <ele>212.188078</ele>
        <time>2021-05-01T05:04:31.960Z</time>
      </trkpt>
      <trkpt lat="45.68169" lon="5.5685">
        <ele>211.096042</ele>
        <time>2021-05-01T05:04:50.392Z</time>
      </trkpt>
      <trkpt lat="45.68201" lon="5.56819">
        <ele>210.677052</ele>
        <time>2021-05-01T05:04:59.210Z</time>
      </trkpt>
      <trkpt lat="45.68349" lon="5.5672">
        <ele>209.081492</ele>
        <time>2021-05-01T05:05:39.250Z</time>
      </trkpt>
      <trkpt lat="45.68352" lon="5.5672">
        <ele>209.072247</ele>
        <time>2021-05-01T05:05:39.749Z</time>
      </trkpt>
      <trkpt lat="45.68351" lon="5.5668">
        <ele>208.95544</ele>
        <time>2021-05-01T05:05:47.270Z</time>
      </trkpt>
      <trkpt lat="45.68352" lon="5.56644">
        <ele>208.851436</ele>
        <time>2021-05-01T05:05:53.440Z</time>
      </trkpt>
      <trkpt lat="45.68352" lon="5.56628">
        <ele>208.804479</ele>
        <time>2021-05-01T05:05:56.811Z</time>
      </trkpt>
      <trkpt lat="45.68353" lon="5.56613">
        <ele>208.760842</ele>
        <time>2021-05-01T05:05:59.422Z</time>
      </trkpt>
      <trkpt lat="45.68354" lon="5.56607">
        <ele>208.742375</ele>
        <time>2021-05-01T05:06:00.449Z</time>
      </trkpt>
      <trkpt lat="45.6839" lon="5.56482">
        <ele>208.337832</ele>
        <time>2021-05-01T05:06:26.552Z</time>
      </trkpt>
      <trkpt lat="45.68401" lon="5.56423">
        <ele>208.130971</ele>
        <time>2021-05-01T05:06:37.786Z</time>
      </trkpt>
      <trkpt lat="45.68404" lon="5.56404">
        <ele>208.065699</ele>
        <time>2021-05-01T05:06:41.232Z</time>
      </trkpt>
      <trkpt lat="45.68428" lon="5.56319">
        <ele>207.755257</ele>
        <time>2021-05-01T05:06:57.454Z</time>
      </trkpt>
      <trkpt lat="45.68429" lon="5.56305">
        <ele>207.708837</ele>
        <time>2021-05-01T05:07:00.096Z</time>
      </trkpt>
      <trkpt lat="45.68438" lon="5.56298">
        <ele>207.657991</ele>
        <time>2021-05-01T05:07:02.597Z</time>
      </trkpt>
      <trkpt lat="45.68491" lon="5.56237">
        <ele>207.250571</ele>
        <time>2021-05-01T05:07:20.088Z</time>
      </trkpt>
      <trkpt lat="45.68527" lon="5.5618">
        <ele>206.90832</ele>
        <time>2021-05-01T05:07:33.622Z</time>
      </trkpt>
      <trkpt lat="45.68615" lon="5.56108">
        <ele>206.250377</ele>
        <time>2021-05-01T05:07:59.029Z</time>
      </trkpt>
      <trkpt lat="45.68655" lon="5.5607">
        <ele>205.949593</ele>
        <time>2021-05-01T05:08:10.938Z</time>
      </trkpt>
      <trkpt lat="45.68668" lon="5.56044">
        <ele>205.809062</ele>
        <time>2021-05-01T05:08:16.499Z</time>
      </trkpt>
      <trkpt lat="45.6868" lon="5.5603">
        <ele>205.708717</ele>
        <time>2021-05-01T05:08:20.557Z</time>
      </trkpt>
      <trkpt lat="45.6868" lon="5.56024">
        <ele>205.684616</ele>
        <time>2021-05-01T05:08:21.370Z</time>
      </trkpt>
      <trkpt lat="45.68708" lon="5.55993">
        <ele>205.460629</ele>
        <time>2021-05-01T05:08:29.998Z</time>
      </trkpt>
      <trkpt lat="45.68728" lon="5.55984">
        <ele>205.328778</ele>
        <time>2021-05-01T05:08:35.200Z</time>
      </trkpt>
      <trkpt lat="45.68766" lon="5.5598">
        <ele>205.206783</ele>
        <time>2021-05-01T05:08:44.784Z</time>
      </trkpt>
      <trkpt lat="45.68816" lon="5.55945">
        <ele>205.094762</ele>
        <time>2021-05-01T05:08:58.569Z</time>
      </trkpt>
      <trkpt lat="45.68906" lon="5.5591">
        <ele>204.905087</ele>
        <time>2021-05-01T05:09:23.544Z</time>
      </trkpt>
      <trkpt lat="45.6899" lon="5.55865">
        <ele>204.893013</ele>
        <time>2021-05-01T05:09:47.560Z</time>
      </trkpt>
      <trkpt lat="45.69095" lon="5.55852">
        <ele>204.88332</ele>
        <time>2021-05-01T05:10:15.556Z</time>
      </trkpt>
      <trkpt lat="45.6921" lon="5.55859">
        <ele>204.863042</ele>
        <time>2021-05-01T05:10:45.858Z</time>
      </trkpt>
      <trkpt lat="45.69313" lon="5.55852">
        <ele>204.926544</ele>
        <time>2021-05-01T05:11:13.780Z</time>
      </trkpt>
      <trkpt lat="45.69352" lon="5.55829">
        <ele>204.986056</ele>
        <time>2021-05-01T05:11:25.243Z</time>
      </trkpt>
      <trkpt lat="45.69414" lon="5.55739">
        <ele>205.114483</ele>
        <time>2021-05-01T05:11:49.860Z</time>
      </trkpt>
      <trkpt lat="45.69537" lon="5.55648">
        <ele>205.481596</ele>
        <time>2021-05-01T05:12:28.628Z</time>
      </trkpt>
      <trkpt lat="45.69565" lon="5.55651">
        <ele>205.555244</ele>
        <time>2021-05-01T05:12:36.328Z</time>
      </trkpt>
      <trkpt lat="45.69612" lon="5.55674">
        <ele>205.583907</ele>
        <time>2021-05-01T05:12:49.968Z</time>
      </trkpt>
      <trkpt lat="45.69636" lon="5.55672">
        <ele>205.582019</ele>
        <time>2021-05-01T05:12:56.444Z</time>
      </trkpt>
      <trkpt lat="45.69649" lon="5.55664">
        <ele>205.580872</ele>
        <time>2021-05-01T05:13:00.374Z</time>
      </trkpt>
      <trkpt lat="45.69713" lon="5.55624">
        <ele>205.575379</ele>
        <time>2021-05-01T05:13:18.799Z</time>
      </trkpt>
      <trkpt lat="45.69721" lon="5.5561">
        <ele>205.574365</ele>
        <time>2021-05-01T05:13:22.134Z</time>
      </trkpt>
      <trkpt lat="45.69768" lon="5.55464">
        <ele>205.53351</ele>
        <time>2021-05-01T05:13:50.924Z</time>
      </trkpt>
      <trkpt lat="45.69797" lon="5.55401">
        <ele>205.510767</ele>
        <time>2021-05-01T05:14:05.206Z</time>
      </trkpt>
      <trkpt lat="45.69826" lon="5.55347">
        <ele>205.504249</ele>
        <time>2021-05-01T05:14:18.305Z</time>
      </trkpt>
      <trkpt lat="45.69832" lon="5.55344">
        <ele>205.510366</ele>
        <time>2021-05-01T05:14:20.190Z</time>
      </trkpt>
      <trkpt lat="45.69839" lon="5.55339">
        <ele>205.517158</ele>
        <time>2021-05-01T05:14:22.091Z</time>
      </trkpt>
      <trkpt lat="45.69849" lon="5.5534">
        <ele>205.526124</ele>
        <time>2021-05-01T05:14:25.349Z</time>
      </trkpt>
      <trkpt lat="45.70046" lon="5.55405">
        <ele>205.478191</ele>
        <time>2021-05-01T05:15:19.607Z</time>
      </trkpt>
      <trkpt lat="45.70059" lon="5.55409">
        <ele>205.43624</ele>
        <time>2021-05-01T05:15:22.982Z</time>
      </trkpt>
      <trkpt lat="45.70079" lon="5.55414">
        <ele>205.373955</ele>
        <time>2021-05-01T05:15:28.154Z</time>
      </trkpt>
      <trkpt lat="45.70091" lon="5.5542">
        <ele>205.334212</ele>
        <time>2021-05-01T05:15:31.468Z</time>
      </trkpt>
      <trkpt lat="45.70136" lon="5.55433">
        <ele>205.191298</ele>
        <time>2021-05-01T05:15:43.235Z</time>
      </trkpt>
      <trkpt lat="45.7015" lon="5.55437">
        <ele>205.148694</ele>
        <time>2021-05-01T05:15:46.718Z</time>
      </trkpt>
      <trkpt lat="45.70237" lon="5.55473">
        <ele>205.073053</ele>
        <time>2021-05-01T05:16:08.957Z</time>
      </trkpt>
      <trkpt lat="45.70372" lon="5.55551">
        <ele>205.03705</ele>
        <time>2021-05-01T05:16:50.014Z</time>
      </trkpt>
      <trkpt lat="45.70436" lon="5.55564">
        <ele>205.033248</ele>
        <time>2021-05-01T05:17:07.384Z</time>
      </trkpt>
      <trkpt lat="45.70498" lon="5.55589">
        <ele>205.0295</ele>
        <time>2021-05-01T05:17:23.885Z</time>
      </trkpt>
      <trkpt lat="45.70532" lon="5.55589">
        <ele>204.974202</ele>
        <time>2021-05-01T05:17:32.549Z</time>
      </trkpt>
      <trkpt lat="45.70603" lon="5.55558">
        <ele>204.796014</ele>
        <time>2021-05-01T05:17:51.285Z</time>
      </trkpt>
      <trkpt lat="45.70764" lon="5.55537">
        <ele>204.622142</ele>
        <time>2021-05-01T05:18:33.426Z</time>
      </trkpt>
      <trkpt lat="45.70803" lon="5.55541">
        <ele>204.633878</ele>
        <time>2021-05-01T05:18:44.184Z</time>
      </trkpt>
      <trkpt lat="45.70848" lon="5.55501">
        <ele>204.649423</ele>
        <time>2021-05-01T05:18:58.637Z</time>
      </trkpt>
      <trkpt lat="45.70907" lon="5.55462">
        <ele>204.770928</ele>
        <time>2021-05-01T05:19:16.940Z</time>
      </trkpt>
      <trkpt lat="45.70933" lon="5.55434">
        <ele>204.837545</ele>
        <time>2021-05-01T05:19:25.898Z</time>
      </trkpt>
      <trkpt lat="45.70942" lon="5.55407">
        <ele>204.88136</ele>
        <time>2021-05-01T05:19:31.870Z</time>
      </trkpt>
      <trkpt lat="45.70984" lon="5.5537">
        <ele>204.985125</ele>
        <time>2021-05-01T05:19:45.471Z</time>
      </trkpt>
      <trkpt lat="45.70991" lon="5.55363">
        <ele>205.002708</ele>
        <time>2021-05-01T05:19:47.779Z</time>
      </trkpt>
      <trkpt lat="45.71003" lon="5.55348">
        <ele>205.036767</ele>
        <time>2021-05-01T05:19:52.290Z</time>
      </trkpt>
      <trkpt lat="45.71035" lon="5.55306">
        <ele>205.142358</ele>
        <time>2021-05-01T05:20:04.678Z</time>
      </trkpt>
      <trkpt lat="45.71055" lon="5.55298">
        <ele>205.19075</ele>
        <time>2021-05-01T05:20:10.342Z</time>
      </trkpt>
      <trkpt lat="45.71058" lon="5.55297">
        <ele>205.197582</ele>
        <time>2021-05-01T05:20:11.265Z</time>
      </trkpt>
      <trkpt lat="45.71065" lon="5.55278">
        <ele>205.234599</ele>
        <time>2021-05-01T05:20:15.514Z</time>
      </trkpt>
      <trkpt lat="45.71076" lon="5.55262">
        <ele>205.271891</ele>
        <time>2021-05-01T05:20:19.903Z</time>
      </trkpt>
      <trkpt lat="45.71085" lon="5.55252">
        <ele>205.300636</ele>
        <time>2021-05-01T05:20:23.328Z</time>
      </trkpt>
      <trkpt lat="45.71109" lon="5.55226">
        <ele>205.371988</ele>
        <time>2021-05-01T05:20:31.787Z</time>
      </trkpt>
      <trkpt lat="45.71115" lon="5.5522">
        <ele>205.390437</ele>
        <time>2021-05-01T05:20:33.902Z</time>
      </trkpt>
      <trkpt lat="45.71183" lon="5.55151">
        <ele>205.979221</ele>
        <time>2021-05-01T05:20:59.245Z</time>
      </trkpt>
      <trkpt lat="45.71203" lon="5.55106">
        <ele>206.336624</ele>
        <time>2021-05-01T05:21:12.154Z</time>
      </trkpt>
      <trkpt lat="45.71246" lon="5.55057">
        <ele>206.863832</ele>
        <time>2021-05-01T05:21:31.280Z</time>
      </trkpt>
      <trkpt lat="45.71249" lon="5.55052">
        <ele>206.901706</ele>
        <time>2021-05-01T05:21:33.002Z</time>
      </trkpt>
      <trkpt lat="45.71252" lon="5.55044">
        <ele>206.961639</ele>
        <time>2021-05-01T05:21:35.921Z</time>
      </trkpt>
      <trkpt lat="45.71274" lon="5.54967">
        <ele>207.130425</ele>
        <time>2021-05-01T05:21:52.332Z</time>
      </trkpt>
      <trkpt lat="45.71277" lon="5.54956">
        <ele>207.118451</ele>
        <time>2021-05-01T05:21:55.014Z</time>
      </trkpt>
      <trkpt lat="45.71283" lon="5.5496">
        <ele>207.107659</ele>
        <time>2021-05-01T05:21:57.579Z</time>
      </trkpt>
      <trkpt lat="45.71316" lon="5.54979">
        <ele>207.053358</ele>
        <time>2021-05-01T05:22:07.114Z</time>
      </trkpt>
      <trkpt lat="45.71321" lon="5.54958">
        <ele>207.02963</ele>
        <time>2021-05-01T05:22:10.721Z</time>
      </trkpt>
      <trkpt lat="45.7133" lon="5.54926">
        <ele>206.992174</ele>
        <time>2021-05-01T05:22:17.730Z</time>
      </trkpt>
      <trkpt lat="45.71301" lon="5.54906">
        <ele>206.942793</ele>
        <time>2021-05-01T05:22:25.398Z</time>
      </trkpt>
      <trkpt lat="45.71229" lon="5.5485">
        <ele>206.207588</ele>
        <time>2021-05-01T05:22:43.826Z</time>
      </trkpt>
      <trkpt lat="45.71134" lon="5.54777">
        <ele>204.952796</ele>
        <time>2021-05-01T05:23:07.776Z</time>
      </trkpt>
      <trkpt lat="45.71105" lon="5.54755">
        <ele>204.762501</ele>
        <time>2021-05-01T05:23:15.881Z</time>
      </trkpt>
      <trkpt lat="45.71093" lon="5.54747">
        <ele>204.729787</ele>
        <time>2021-05-01T05:23:19.231Z</time>
      </trkpt>
      <trkpt lat="45.71067" lon="5.54727">
        <ele>204.655986</ele>
        <time>2021-05-01T05:23:26.474Z</time>
      </trkpt>
      <trkpt lat="45.71051" lon="5.54712">
        <ele>204.608268</ele>
        <time>2021-05-01T05:23:31.472Z</time>
      </trkpt>
      <trkpt lat="45.71048" lon="5.54707">
        <ele>204.595026</ele>
        <time>2021-05-01T05:23:32.664Z</time>
      </trkpt>
      <trkpt lat="45.7104" lon="5.54694">
        <ele>204.565022</ele>
        <time>2021-05-01T05:23:35.744Z</time>
      </trkpt>
      <trkpt lat="45.71028" lon="5.54666">
        <ele>204.507702</ele>
        <time>2021-05-01T05:23:41.712Z</time>
      </trkpt>
      <trkpt lat="45.70912" lon="5.54285">
        <ele>204.834098</ele>
        <time>2021-05-01T05:25:01.175Z</time>
      </trkpt>
      <trkpt lat="45.70868" lon="5.54139">
        <ele>205.390957</ele>
        <time>2021-05-01T05:25:34.639Z</time>
      </trkpt>
      <trkpt lat="45.70854" lon="5.54096">
        <ele>205.529443</ele>
        <time>2021-05-01T05:25:44.411Z</time>
      </trkpt>
      <trkpt lat="45.70825" lon="5.54034">
        <ele>205.70798</ele>
        <time>2021-05-01T05:25:59.821Z</time>
      </trkpt>
      <trkpt lat="45.70865" lon="5.53965">
        <ele>205.921391</ele>
        <time>2021-05-01T05:26:18.012Z</time>
      </trkpt>
      <trkpt lat="45.7096" lon="5.53805">
        <ele>206.212718</ele>
        <time>2021-05-01T05:26:59.201Z</time>
      </trkpt>
      <trkpt lat="45.70975" lon="5.53752">
        <ele>206.264078</ele>
        <time>2021-05-01T05:27:10.561Z</time>
      </trkpt>
      <trkpt lat="45.70956" lon="5.53686">
        <ele>206.347545</ele>
        <time>2021-05-01T05:27:24.993Z</time>
      </trkpt>
      <trkpt lat="45.70955" lon="5.53642">
        <ele>206.45434</ele>
        <time>2021-05-01T05:27:34.099Z</time>
      </trkpt>
      <trkpt lat="45.7096" lon="5.53588">
        <ele>206.585484</ele>
        <time>2021-05-01T05:27:45.458Z</time>
      </trkpt>
      <trkpt lat="45.70965" lon="5.53543">
        <ele>206.697456</ele>
        <time>2021-05-01T05:27:55.207Z</time>
      </trkpt>
      <trkpt lat="45.70972" lon="5.53516">
        <ele>206.767848</ele>
        <time>2021-05-01T05:28:01.418Z</time>
      </trkpt>
      <trkpt lat="45.70979" lon="5.53502">
        <ele>206.807602</ele>
        <time>2021-05-01T05:28:04.830Z</time>
      </trkpt>
      <trkpt lat="45.7099" lon="5.53472">
        <ele>206.89016</ele>
        <time>2021-05-01T05:28:11.976Z</time>
      </trkpt>
      <trkpt lat="45.71041" lon="5.53292">
        <ele>206.732712</ele>
        <time>2021-05-01T05:28:49.594Z</time>
      </trkpt>
      <trkpt lat="45.71053" lon="5.53259">
        <ele>206.688273</ele>
        <time>2021-05-01T05:28:56.236Z</time>
      </trkpt>
      <trkpt lat="45.71098" lon="5.5316">
        <ele>206.377459</ele>
        <time>2021-05-01T05:29:17.400Z</time>
      </trkpt>
      <trkpt lat="45.71153" lon="5.53065">
        <ele>205.940296</ele>
        <time>2021-05-01T05:29:38.939Z</time>
      </trkpt>
      <trkpt lat="45.71161" lon="5.53039">
        <ele>205.839422</ele>
        <time>2021-05-01T05:29:44.168Z</time>
      </trkpt>
      <trkpt lat="45.71188" lon="5.52884">
        <ele>206.353372</ele>
        <time>2021-05-01T05:30:15.091Z</time>
      </trkpt>
      <trkpt lat="45.71186" lon="5.52867">
        <ele>206.440436</ele>
        <time>2021-05-01T05:30:18.544Z</time>
      </trkpt>
      <trkpt lat="45.71178" lon="5.52858">
        <ele>206.513747</ele>
        <time>2021-05-01T05:30:21.650Z</time>
      </trkpt>
      <trkpt lat="45.71055" lon="5.52759">
        <ele>208.479394</ele>
        <time>2021-05-01T05:31:13.191Z</time>
      </trkpt>
      <trkpt lat="45.7105" lon="5.52749">
        <ele>208.644308</ele>
        <time>2021-05-01T05:31:16.326Z</time>
      </trkpt>
      <trkpt lat="45.7105" lon="5.5274">
        <ele>208.783513</ele>
        <time>2021-05-01T05:31:19.821Z</time>
      </trkpt>
      <trkpt lat="45.71073" lon="5.52658">
        <ele>210.049228</ele>
        <time>2021-05-01T05:31:42.743Z</time>
      </trkpt>
      <trkpt lat="45.71072" lon="5.52626">
        <ele>210.503284</ele>
        <time>2021-05-01T05:31:51.215Z</time>
      </trkpt>
      <trkpt lat="45.71066" lon="5.52591">
        <ele>210.930619</ele>
        <time>2021-05-01T05:32:01.167Z</time>
      </trkpt>
      <trkpt lat="45.71048" lon="5.52542">
        <ele>211.493822</ele>
        <time>2021-05-01T05:32:15.771Z</time>
      </trkpt>
      <trkpt lat="45.71012" lon="5.52479">
        <ele>212.310316</ele>
        <time>2021-05-01T05:32:34.731Z</time>
      </trkpt>
      <trkpt lat="45.70998" lon="5.52463">
        <ele>212.568242</ele>
        <time>2021-05-01T05:32:40.233Z</time>
      </trkpt>
      <trkpt lat="45.71002" lon="5.52432">
        <ele>212.890214</ele>
        <time>2021-05-01T05:32:47.824Z</time>
      </trkpt>
      <trkpt lat="45.71039" lon="5.52282">
        <ele>214.372337</ele>
        <time>2021-05-01T05:33:24.786Z</time>
      </trkpt>
      <trkpt lat="45.71056" lon="5.52199">
        <ele>215.161571</ele>
        <time>2021-05-01T05:33:45.788Z</time>
      </trkpt>
      <trkpt lat="45.71058" lon="5.52189">
        <ele>215.256308</ele>
        <time>2021-05-01T05:33:48.302Z</time>
      </trkpt>
      <trkpt lat="45.71067" lon="5.52142">
        <ele>215.709743</ele>
        <time>2021-05-01T05:34:00.207Z</time>
      </trkpt>
      <trkpt lat="45.7108" lon="5.52089">
        <ele>216.324149</ele>
        <time>2021-05-01T05:34:13.934Z</time>
      </trkpt>
      <trkpt lat="45.7111" lon="5.51901">
        <ele>218.478043</ele>
        <time>2021-05-01T05:35:00.439Z</time>
      </trkpt>
      <trkpt lat="45.7111" lon="5.51889">
        <ele>218.689473</ele>
        <time>2021-05-01T05:35:03.390Z</time>
      </trkpt>
      <trkpt lat="45.71105" lon="5.51878">
        <ele>218.969327</ele>
        <time>2021-05-01T05:35:07.503Z</time>
      </trkpt>
      <trkpt lat="45.7101" lon="5.51787">
        <ele>222.53066</ele>
        <time>2021-05-01T05:35:55.551Z</time>
      </trkpt>
      <trkpt lat="45.70995" lon="5.51765">
        <ele>223.187315</ele>
        <time>2021-05-01T05:36:04.735Z</time>
      </trkpt>
      <trkpt lat="45.71007" lon="5.51762">
        <ele>223.577606</ele>
        <time>2021-05-01T05:36:11.870Z</time>
      </trkpt>
      <trkpt lat="45.71028" lon="5.51752">
        <ele>224.335469</ele>
        <time>2021-05-01T05:36:21.398Z</time>
      </trkpt>
      <trkpt lat="45.7105" lon="5.51728">
        <ele>225.520674</ele>
        <time>2021-05-01T05:36:35.047Z</time>
      </trkpt>
      <trkpt lat="45.71068" lon="5.51707">
        <ele>226.514634</ele>
        <time>2021-05-01T05:36:46.997Z</time>
      </trkpt>
      <trkpt lat="45.71106" lon="5.51694">
        <ele>228.169916</ele>
        <time>2021-05-01T05:37:05.617Z</time>
      </trkpt>
      <trkpt lat="45.71105" lon="5.51689">
        <ele>228.315808</ele>
        <time>2021-05-01T05:37:07.811Z</time>
      </trkpt>
      <trkpt lat="45.71104" lon="5.51648">
        <ele>229.537761</ele>
        <time>2021-05-01T05:37:22.406Z</time>
      </trkpt>
      <trkpt lat="45.71113" lon="5.51574">
        <ele>231.798367</ele>
        <time>2021-05-01T05:37:47.508Z</time>
      </trkpt>
      <trkpt lat="45.71104" lon="5.51457">
        <ele>233.777769</ele>
        <time>2021-05-01T05:38:23.172Z</time>
      </trkpt>
      <trkpt lat="45.71106" lon="5.5141">
        <ele>234.552134</ele>
        <time>2021-05-01T05:38:35.464Z</time>
      </trkpt>
      <trkpt lat="45.71116" lon="5.51345">
        <ele>235.672804</ele>
        <time>2021-05-01T05:38:52.407Z</time>
      </trkpt>
      <trkpt lat="45.71133" lon="5.51284">
        <ele>236.08161</ele>
        <time>2021-05-01T05:39:07.071Z</time>
      </trkpt>
      <trkpt lat="45.71141" lon="5.51177">
        <ele>235.939236</ele>
        <time>2021-05-01T05:39:27.761Z</time>
      </trkpt>
      <trkpt lat="45.71149" lon="5.51135">
        <ele>235.882322</ele>
        <time>2021-05-01T05:39:35.368Z</time>
      </trkpt>
      <trkpt lat="45.71172" lon="5.5107">
        <ele>235.77612</ele>
        <time>2021-05-01T05:39:47.669Z</time>
      </trkpt>
      <trkpt lat="45.71201" lon="5.50944">
        <ele>235.303525</ele>
        <time>2021-05-01T05:40:10.030Z</time>
      </trkpt>
      <trkpt lat="45.71216" lon="5.50849">
        <ele>234.955961</ele>
        <time>2021-05-01T05:40:28.057Z</time>
      </trkpt>
      <trkpt lat="45.7123" lon="5.50771">
        <ele>235.331455</ele>
        <time>2021-05-01T05:40:45.446Z</time>
      </trkpt>
      <trkpt lat="45.71233" lon="5.50761">
        <ele>235.410651</ele>
        <time>2021-05-01T05:40:47.755Z</time>
      </trkpt>
      <trkpt lat="45.71306" lon="5.50451">
        <ele>237.952345</ele>
        <time>2021-05-01T05:42:07.536Z</time>
      </trkpt>
      <trkpt lat="45.71335" lon="5.50384">
        <ele>238.550587</ele>
        <time>2021-05-01T05:42:25.585Z</time>
      </trkpt>
      <trkpt lat="45.71473" lon="5.50139">
        <ele>239.635591</ele>
        <time>2021-05-01T05:43:28.944Z</time>
      </trkpt>
      <trkpt lat="45.7152" lon="5.5001">
        <ele>240.989658</ele>
        <time>2021-05-01T05:44:04.005Z</time>
      </trkpt>
      <trkpt lat="45.71537" lon="5.49977">
        <ele>241.373368</ele>
        <time>2021-05-01T05:44:14.058Z</time>
      </trkpt>
      <trkpt lat="45.71556" lon="5.49944">
        <ele>241.767668</ele>
        <time>2021-05-01T05:44:24.812Z</time>
      </trkpt>
      <trkpt lat="45.71568" lon="5.49927">
        <ele>241.98558</ele>
        <time>2021-05-01T05:44:31.283Z</time>
      </trkpt>
      <trkpt lat="45.71662" lon="5.49791">
        <ele>243.63622</ele>
        <time>2021-05-01T05:45:18.483Z</time>
      </trkpt>
      <trkpt lat="45.71687" lon="5.49765">
        <ele>244.025777</ele>
        <time>2021-05-01T05:45:27.805Z</time>
      </trkpt>
      <trkpt lat="45.71743" lon="5.49735">
        <ele>244.131617</ele>
        <time>2021-05-01T05:45:44.257Z</time>
      </trkpt>
      <trkpt lat="45.71778" lon="5.49709">
        <ele>244.149694</ele>
        <time>2021-05-01T05:45:54.830Z</time>
      </trkpt>
      <trkpt lat="45.71812" lon="5.49668">
        <ele>244.170108</ele>
        <time>2021-05-01T05:46:06.571Z</time>
      </trkpt>
      <trkpt lat="45.71935" lon="5.49478">
        <ele>245.171593</ele>
        <time>2021-05-01T05:46:59.636Z</time>
      </trkpt>
      <trkpt lat="45.72048" lon="5.4929">
        <ele>248.137356</ele>
        <time>2021-05-01T05:48:03.179Z</time>
      </trkpt>
      <trkpt lat="45.72122" lon="5.4916">
        <ele>250.977783</ele>
        <time>2021-05-01T05:48:50.848Z</time>
      </trkpt>
      <trkpt lat="45.72178" lon="5.49035">
        <ele>253.767786</ele>
        <time>2021-05-01T05:49:33.921Z</time>
      </trkpt>
      <trkpt lat="45.72202" lon="5.49">
        <ele>254.463596</ele>
        <time>2021-05-01T05:49:47.550Z</time>
      </trkpt>
      <trkpt lat="45.72259" lon="5.48956">
        <ele>255.66413</ele>
        <time>2021-05-01T05:50:12.429Z</time>
      </trkpt>
      <trkpt lat="45.72264" lon="5.48954">
        <ele>255.758051</ele>
        <time>2021-05-01T05:50:14.390Z</time>
      </trkpt>
      <trkpt lat="45.72322" lon="5.48909">
        <ele>257.000796</ele>
        <time>2021-05-01T05:50:37.853Z</time>
      </trkpt>
      <trkpt lat="45.72361" lon="5.4889">
        <ele>257.401976</ele>
        <time>2021-05-01T05:50:51.072Z</time>
      </trkpt>
      <trkpt lat="45.72407" lon="5.4888">
        <ele>257.568049</ele>
        <time>2021-05-01T05:51:04.921Z</time>
      </trkpt>
      <trkpt lat="45.72454" lon="5.48847">
        <ele>257.752766</ele>
        <time>2021-05-01T05:51:19.561Z</time>
      </trkpt>
      <trkpt lat="45.7254" lon="5.48775">
        <ele>257.989504</ele>
        <time>2021-05-01T05:51:47.807Z</time>
      </trkpt>
      <trkpt lat="45.72575" lon="5.4874">
        <ele>258.024178</ele>
        <time>2021-05-01T05:51:59.252Z</time>
      </trkpt>
      <trkpt lat="45.72585" lon="5.48732">
        <ele>258.033755</ele>
        <time>2021-05-01T05:52:02.700Z</time>
      </trkpt>
      <trkpt lat="45.72588" lon="5.48729">
        <ele>258.0372</ele>
        <time>2021-05-01T05:52:03.842Z</time>
      </trkpt>
      <trkpt lat="45.7259" lon="5.48726">
        <ele>258.039561</ele>
        <time>2021-05-01T05:52:04.576Z</time>
      </trkpt>
      <trkpt lat="45.72658" lon="5.48738">
        <ele>258.096265</ele>
        <time>2021-05-01T05:52:23.000Z</time>
      </trkpt>
      <trkpt lat="45.7273" lon="5.48733">
        <ele>258.117024</ele>
        <time>2021-05-01T05:52:43.830Z</time>
      </trkpt>
      <trkpt lat="45.72739" lon="5.48734">
        <ele>258.118985</ele>
        <time>2021-05-01T05:52:46.195Z</time>
      </trkpt>
      <trkpt lat="45.72747" lon="5.48746">
        <ele>258.121441</ele>
        <time>2021-05-01T05:52:49.270Z</time>
      </trkpt>
      <trkpt lat="45.72755" lon="5.48764">
        <ele>258.124552</ele>
        <time>2021-05-01T05:52:53.081Z</time>
      </trkpt>
      <trkpt lat="45.72758" lon="5.48776">
        <ele>258.126537</ele>
        <time>2021-05-01T05:52:55.454Z</time>
      </trkpt>
      <trkpt lat="45.72777" lon="5.48805">
        <ele>258.132564</ele>
        <time>2021-05-01T05:53:02.589Z</time>
      </trkpt>
      <trkpt lat="45.72818" lon="5.48831">
        <ele>258.156919</ele>
        <time>2021-05-01T05:53:13.564Z</time>
      </trkpt>
      <trkpt lat="45.72832" lon="5.48843">
        <ele>258.338609</ele>
        <time>2021-05-01T05:53:17.892Z</time>
      </trkpt>
      <trkpt lat="45.72844" lon="5.48841">
        <ele>258.475541</ele>
        <time>2021-05-01T05:53:21.049Z</time>
      </trkpt>
      <trkpt lat="45.7289" lon="5.48838">
        <ele>258.990537</ele>
        <time>2021-05-01T05:53:34.630Z</time>
      </trkpt>
      <trkpt lat="45.72937" lon="5.4883">
        <ele>259.517671</ele>
        <time>2021-05-01T05:53:49.512Z</time>
      </trkpt>
      <trkpt lat="45.72955" lon="5.48827">
        <ele>259.722013</ele>
        <time>2021-05-01T05:53:55.588Z</time>
      </trkpt>
      <trkpt lat="45.72998" lon="5.488">
        <ele>260.581909</ele>
        <time>2021-05-01T05:54:12.388Z</time>
      </trkpt>
      <trkpt lat="45.73015" lon="5.48789">
        <ele>261.634903</ele>
        <time>2021-05-01T05:54:20.179Z</time>
      </trkpt>
      <trkpt lat="45.73072" lon="5.48768">
        <ele>264.894222</ele>
        <time>2021-05-01T05:54:48.430Z</time>
      </trkpt>
      <trkpt lat="45.73113" lon="5.48753">
        <ele>267.183627</ele>
        <time>2021-05-01T05:55:12.342Z</time>
      </trkpt>
      <trkpt lat="45.73159" lon="5.48737">
        <ele>269.803144</ele>
        <time>2021-05-01T05:55:43.213Z</time>
      </trkpt>
      <trkpt lat="45.73195" lon="5.48723">
        <ele>272.534437</ele>
        <time>2021-05-01T05:56:08.395Z</time>
      </trkpt>
      <trkpt lat="45.73258" lon="5.48672">
        <ele>277.936951</ele>
        <time>2021-05-01T05:56:56.567Z</time>
      </trkpt>
      <trkpt lat="45.73284" lon="5.48634">
        <ele>280.75198</ele>
        <time>2021-05-01T05:57:20.581Z</time>
      </trkpt>
      <trkpt lat="45.73315" lon="5.48587">
        <ele>283.786356</ele>
        <time>2021-05-01T05:57:46.986Z</time>
      </trkpt>
      <trkpt lat="45.73348" lon="5.48568">
        <ele>284.703942</ele>
        <time>2021-05-01T05:58:05.219Z</time>
      </trkpt>
      <trkpt lat="45.73398" lon="5.48499">
        <ele>286.469001</ele>
        <time>2021-05-01T05:58:33.736Z</time>
      </trkpt>
      <trkpt lat="45.73415" lon="5.48467">
        <ele>287.186733</ele>
        <time>2021-05-01T05:58:42.019Z</time>
      </trkpt>
      <trkpt lat="45.73476" lon="5.48424">
        <ele>287.921921</ele>
        <time>2021-05-01T05:58:58.557Z</time>
      </trkpt>
      <trkpt lat="45.73539" lon="5.48344">
        <ele>287.131439</ele>
        <time>2021-05-01T05:59:17.450Z</time>
      </trkpt>
      <trkpt lat="45.73636" lon="5.48294">
        <ele>286.671908</ele>
        <time>2021-05-01T05:59:41.164Z</time>
      </trkpt>
      <trkpt lat="45.73722" lon="5.48279">
        <ele>287.084585</ele>
        <time>2021-05-01T06:00:05.719Z</time>
      </trkpt>
      <trkpt lat="45.73764" lon="5.48257">
        <ele>287.294902</ele>
        <time>2021-05-01T06:00:20.424Z</time>
      </trkpt>
      <trkpt lat="45.73876" lon="5.48173">
        <ele>289.507167</ele>
        <time>2021-05-01T06:01:07.556Z</time>
      </trkpt>
      <trkpt lat="45.73984" lon="5.48121">
        <ele>291.090631</ele>
        <time>2021-05-01T06:01:47.100Z</time>
      </trkpt>
      <trkpt lat="45.73994" lon="5.48112">
        <ele>291.174598</ele>
        <time>2021-05-01T06:01:51.527Z</time>
      </trkpt>
      <trkpt lat="45.73995" lon="5.4811">
        <ele>291.18611</ele>
        <time>2021-05-01T06:01:52.054Z</time>
      </trkpt>
      <trkpt lat="45.73987" lon="5.48091">
        <ele>291.291805</ele>
        <time>2021-05-01T06:01:56.037Z</time>
      </trkpt>
      <trkpt lat="45.73928" lon="5.47991">
        <ele>291.924824</ele>
        <time>2021-05-01T06:02:22.231Z</time>
      </trkpt>
      <trkpt lat="45.73917" lon="5.47934">
        <ele>291.893873</ele>
        <time>2021-05-01T06:02:32.796Z</time>
      </trkpt>
      <trkpt lat="45.73915" lon="5.47905">
        <ele>291.81475</ele>
        <time>2021-05-01T06:02:37.681Z</time>
      </trkpt>
      <trkpt lat="45.73918" lon="5.47768">
        <ele>291.45118</ele>
        <time>2021-05-01T06:03:01.533Z</time>
      </trkpt>
      <trkpt lat="45.73907" lon="5.47654">
        <ele>291.11195</ele>
        <time>2021-05-01T06:03:21.372Z</time>
      </trkpt>
      <trkpt lat="45.73892" lon="5.47551">
        <ele>290.779434</ele>
        <time>2021-05-01T06:03:39.522Z</time>
      </trkpt>
      <trkpt lat="45.73885" lon="5.47491">
        <ele>290.589016</ele>
        <time>2021-05-01T06:03:49.853Z</time>
      </trkpt>
      <trkpt lat="45.73862" lon="5.47376">
        <ele>290.472388</ele>
        <time>2021-05-01T06:04:11.535Z</time>
      </trkpt>
      <trkpt lat="45.73856" lon="5.47294">
        <ele>290.441379</ele>
        <time>2021-05-01T06:04:28.539Z</time>
      </trkpt>
      <trkpt lat="45.73842" lon="5.47229">
        <ele>290.41584</ele>
        <time>2021-05-01T06:04:41.093Z</time>
      </trkpt>
      <trkpt lat="45.73854" lon="5.47166">
        <ele>289.537749</ele>
        <time>2021-05-01T06:04:52.335Z</time>
      </trkpt>
      <trkpt lat="45.73853" lon="5.47104">
        <ele>288.497483</ele>
        <time>2021-05-01T06:05:01.863Z</time>
      </trkpt>
      <trkpt lat="45.7385" lon="5.47022">
        <ele>287.115887</ele>
        <time>2021-05-01T06:05:13.532Z</time>
      </trkpt>
      <trkpt lat="45.73875" lon="5.46937">
        <ele>284.898851</ele>
        <time>2021-05-01T06:05:25.438Z</time>
      </trkpt>
      <trkpt lat="45.73879" lon="5.46898">
        <ele>283.384375</ele>
        <time>2021-05-01T06:05:30.261Z</time>
      </trkpt>
      <trkpt lat="45.73877" lon="5.46851">
        <ele>281.547539</ele>
        <time>2021-05-01T06:05:36.077Z</time>
      </trkpt>
      <trkpt lat="45.73873" lon="5.46827">
        <ele>280.566598</ele>
        <time>2021-05-01T06:05:39.175Z</time>
      </trkpt>
      <trkpt lat="45.73869" lon="5.46801">
        <ele>279.544678</ele>
        <time>2021-05-01T06:05:42.409Z</time>
      </trkpt>
      <trkpt lat="45.73863" lon="5.46671">
        <ele>274.643858</ele>
        <time>2021-05-01T06:05:58.453Z</time>
      </trkpt>
      <trkpt lat="45.73852" lon="5.46634">
        <ele>273.232121</ele>
        <time>2021-05-01T06:06:03.519Z</time>
      </trkpt>
      <trkpt lat="45.73825" lon="5.4662">
        <ele>271.810062</ele>
        <time>2021-05-01T06:06:08.602Z</time>
      </trkpt>
      <trkpt lat="45.73753" lon="5.46612">
        <ele>268.238009</ele>
        <time>2021-05-01T06:06:21.924Z</time>
      </trkpt>
      <trkpt lat="45.73737" lon="5.46606">
        <ele>267.390851</ele>
        <time>2021-05-01T06:06:25.076Z</time>
      </trkpt>
      <trkpt lat="45.73725" lon="5.46593">
        <ele>266.774923</ele>
        <time>2021-05-01T06:06:28.105Z</time>
      </trkpt>
      <trkpt lat="45.7372" lon="5.4658">
        <ele>266.402916</ele>
        <time>2021-05-01T06:06:29.949Z</time>
      </trkpt>
      <trkpt lat="45.73716" lon="5.46541">
        <ele>265.404854</ele>
        <time>2021-05-01T06:06:35.597Z</time>
      </trkpt>
      <trkpt lat="45.73716" lon="5.46525">
        <ele>265.01071</ele>
        <time>2021-05-01T06:06:37.542Z</time>
      </trkpt>
      <trkpt lat="45.73713" lon="5.46495">
        <ele>264.238291</ele>
        <time>2021-05-01T06:06:42.171Z</time>
      </trkpt>
      <trkpt lat="45.73696" lon="5.46463">
        <ele>263.233025</ele>
        <time>2021-05-01T06:06:47.545Z</time>
      </trkpt>
      <trkpt lat="45.73624" lon="5.46399">
        <ele>259.678519</ele>
        <time>2021-05-01T06:07:03.935Z</time>
      </trkpt>
      <trkpt lat="45.73609" lon="5.46361">
        <ele>257.442832</ele>
        <time>2021-05-01T06:07:09.567Z</time>
      </trkpt>
      <trkpt lat="45.736" lon="5.46285">
        <ele>253.461587</ele>
        <time>2021-05-01T06:07:18.709Z</time>
      </trkpt>
      <trkpt lat="45.73572" lon="5.46185">
        <ele>247.919298</ele>
        <time>2021-05-01T06:07:31.050Z</time>
      </trkpt>
      <trkpt lat="45.73577" lon="5.46162">
        <ele>246.594385</ele>
        <time>2021-05-01T06:07:34.029Z</time>
      </trkpt>
      <trkpt lat="45.73599" lon="5.46108">
        <ele>243.001456</ele>
        <time>2021-05-01T06:07:41.237Z</time>
      </trkpt>
      <trkpt lat="45.73601" lon="5.46104">
        <ele>242.713545</ele>
        <time>2021-05-01T06:07:41.789Z</time>
      </trkpt>
      <trkpt lat="45.73603" lon="5.461">
        <ele>242.440447</ele>
        <time>2021-05-01T06:07:42.294Z</time>
      </trkpt>
      <trkpt lat="45.73635" lon="5.46031">
        <ele>237.632413</ele>
        <time>2021-05-01T06:07:52.242Z</time>
      </trkpt>
      <trkpt lat="45.73661" lon="5.46002">
        <ele>234.991803</ele>
        <time>2021-05-01T06:07:57.601Z</time>
      </trkpt>
      <trkpt lat="45.73695" lon="5.46001">
        <ele>232.416848</ele>
        <time>2021-05-01T06:08:03.393Z</time>
      </trkpt>
      <trkpt lat="45.73767" lon="5.4602">
        <ele>230.559462</ele>
        <time>2021-05-01T06:08:17.294Z</time>
      </trkpt>
      <trkpt lat="45.73811" lon="5.46017">
        <ele>229.442119</ele>
        <time>2021-05-01T06:08:27.350Z</time>
      </trkpt>
      <trkpt lat="45.73853" lon="5.45995">
        <ele>228.294281</ele>
        <time>2021-05-01T06:08:38.376Z</time>
      </trkpt>
      <trkpt lat="45.7389" lon="5.45951">
        <ele>228.131301</ele>
        <time>2021-05-01T06:08:51.096Z</time>
      </trkpt>
      <trkpt lat="45.73911" lon="5.45915">
        <ele>228.296948</ele>
        <time>2021-05-01T06:09:00.442Z</time>
      </trkpt>
      <trkpt lat="45.74029" lon="5.45668">
        <ele>229.686591</ele>
        <time>2021-05-01T06:10:04.702Z</time>
      </trkpt>
      <trkpt lat="45.74097" lon="5.45561">
        <ele>230.48332</ele>
        <time>2021-05-01T06:10:35.854Z</time>
      </trkpt>
      <trkpt lat="45.74188" lon="5.45477">
        <ele>231.026312</ele>
        <time>2021-05-01T06:11:07.747Z</time>
      </trkpt>
      <trkpt lat="45.74236" lon="5.45394">
        <ele>231.303393</ele>
        <time>2021-05-01T06:11:28.944Z</time>
      </trkpt>
      <trkpt lat="45.74298" lon="5.45253">
        <ele>231.328833</ele>
        <time>2021-05-01T06:11:59.918Z</time>
      </trkpt>
      <trkpt lat="45.74328" lon="5.45033">
        <ele>231.436747</ele>
        <time>2021-05-01T06:12:40.830Z</time>
      </trkpt>
      <trkpt lat="45.74334" lon="5.45013">
        <ele>231.450071</ele>
        <time>2021-05-01T06:12:45.000Z</time>
      </trkpt>
      <trkpt lat="45.74336" lon="5.45008">
        <ele>231.453333</ele>
        <time>2021-05-01T06:12:46.142Z</time>
      </trkpt>
      <trkpt lat="45.7437" lon="5.44959">
        <ele>231.515894</ele>
        <time>2021-05-01T06:12:59.991Z</time>
      </trkpt>
      <trkpt lat="45.744" lon="5.44939">
        <ele>231.893596</ele>
        <time>2021-05-01T06:13:09.836Z</time>
      </trkpt>
      <trkpt lat="45.74477" lon="5.44928">
        <ele>232.771922</ele>
        <time>2021-05-01T06:13:34.095Z</time>
      </trkpt>
      <trkpt lat="45.74575" lon="5.449">
        <ele>234.688824</ele>
        <time>2021-05-01T06:14:07.549Z</time>
      </trkpt>
      <trkpt lat="45.7465" lon="5.44889">
        <ele>237.399931</ele>
        <time>2021-05-01T06:14:40.018Z</time>
      </trkpt>
      <trkpt lat="45.74712" lon="5.44842">
        <ele>239.893237</ele>
        <time>2021-05-01T06:15:14.593Z</time>
      </trkpt>
      <trkpt lat="45.74714" lon="5.44836">
        <ele>240.082014</ele>
        <time>2021-05-01T06:15:17.671Z</time>
      </trkpt>
      <trkpt lat="45.74715" lon="5.44834">
        <ele>240.168641</ele>
        <time>2021-05-01T06:15:20.001Z</time>
      </trkpt>
      <trkpt lat="45.74729" lon="5.44794">
        <ele>241.566081</ele>
        <time>2021-05-01T06:15:34.162Z</time>
      </trkpt>
      <trkpt lat="45.74737" lon="5.44781">
        <ele>242.103986</ele>
        <time>2021-05-01T06:15:42.119Z</time>
      </trkpt>
      <trkpt lat="45.74755" lon="5.44758">
        <ele>243.161155</ele>
        <time>2021-05-01T06:15:52.388Z</time>
      </trkpt>
      <trkpt lat="45.7477" lon="5.44743">
        <ele>243.999832</ele>
        <time>2021-05-01T06:16:02.985Z</time>
      </trkpt>
      <trkpt lat="45.74789" lon="5.44728">
        <ele>244.967102</ele>
        <time>2021-05-01T06:16:14.271Z</time>
      </trkpt>
      <trkpt lat="45.74877" lon="5.44685">
        <ele>248.31682</ele>
        <time>2021-05-01T06:16:55.448Z</time>
      </trkpt>
      <trkpt lat="45.74922" lon="5.44666">
        <ele>248.925809</ele>
        <time>2021-05-01T06:17:11.787Z</time>
      </trkpt>
      <trkpt lat="45.74994" lon="5.4463">
        <ele>249.921492</ele>
        <time>2021-05-01T06:17:33.826Z</time>
      </trkpt>
      <trkpt lat="45.75078" lon="5.44534">
        <ele>250.918422</ele>
        <time>2021-05-01T06:18:03.241Z</time>
      </trkpt>
      <trkpt lat="45.75158" lon="5.44427">
        <ele>251.785379</ele>
        <time>2021-05-01T06:18:37.995Z</time>
      </trkpt>
      <trkpt lat="45.75169" lon="5.44418">
        <ele>251.962678</ele>
        <time>2021-05-01T06:18:42.227Z</time>
      </trkpt>
      <trkpt lat="45.75179" lon="5.44413">
        <ele>252.115624</ele>
        <time>2021-05-01T06:18:46.252Z</time>
      </trkpt>
      <trkpt lat="45.75293" lon="5.44377">
        <ele>253.800982</ele>
        <time>2021-05-01T06:19:26.149Z</time>
      </trkpt>
      <trkpt lat="45.75304" lon="5.44372">
        <ele>253.976617</ele>
        <time>2021-05-01T06:19:30.602Z</time>
      </trkpt>
      <trkpt lat="45.75335" lon="5.44367">
        <ele>254.354345</ele>
        <time>2021-05-01T06:19:41.097Z</time>
      </trkpt>
      <trkpt lat="45.75446" lon="5.44371">
        <ele>254.978897</ele>
        <time>2021-05-01T06:20:14.563Z</time>
      </trkpt>
      <trkpt lat="45.75513" lon="5.44367">
        <ele>255.346267</ele>
        <time>2021-05-01T06:20:32.175Z</time>
      </trkpt>
      <trkpt lat="45.75529" lon="5.44362">
        <ele>255.418714</ele>
        <time>2021-05-01T06:20:36.581Z</time>
      </trkpt>
      <trkpt lat="45.75584" lon="5.44325">
        <ele>255.684083</ele>
        <time>2021-05-01T06:20:52.636Z</time>
      </trkpt>
      <trkpt lat="45.75659" lon="5.44301">
        <ele>256.026303</ele>
        <time>2021-05-01T06:21:15.324Z</time>
      </trkpt>
      <trkpt lat="45.7572" lon="5.44254">
        <ele>256.724294</ele>
        <time>2021-05-01T06:21:37.431Z</time>
      </trkpt>
      <trkpt lat="45.75776" lon="5.44244">
        <ele>257.432996</ele>
        <time>2021-05-01T06:21:56.359Z</time>
      </trkpt>
      <trkpt lat="45.75783" lon="5.44245">
        <ele>257.523143</ele>
        <time>2021-05-01T06:21:58.974Z</time>
      </trkpt>
      <trkpt lat="45.75854" lon="5.44246">
        <ele>258.361735</ele>
        <time>2021-05-01T06:22:23.387Z</time>
      </trkpt>
      <trkpt lat="45.75983" lon="5.44269">
        <ele>258.24149</ele>
        <time>2021-05-01T06:23:01.940Z</time>
      </trkpt>
      <trkpt lat="45.76035" lon="5.44278">
        <ele>257.96321</ele>
        <time>2021-05-01T06:23:13.378Z</time>
      </trkpt>
      <trkpt lat="45.76045" lon="5.44279">
        <ele>257.575096</ele>
        <time>2021-05-01T06:23:15.356Z</time>
      </trkpt>
      <trkpt lat="45.76083" lon="5.44285">
        <ele>256.154584</ele>
        <time>2021-05-01T06:23:22.668Z</time>
      </trkpt>
      <trkpt lat="45.76125" lon="5.4427">
        <ele>254.549809</ele>
        <time>2021-05-01T06:23:30.618Z</time>
      </trkpt>
      <trkpt lat="45.76171" lon="5.44239">
        <ele>252.628394</ele>
        <time>2021-05-01T06:23:39.921Z</time>
      </trkpt>
      <trkpt lat="45.76193" lon="5.44227">
        <ele>251.744664</ele>
        <time>2021-05-01T06:23:44.225Z</time>
      </trkpt>
      <trkpt lat="45.76169" lon="5.44178">
        <ele>251.038093</ele>
        <time>2021-05-01T06:23:52.615Z</time>
      </trkpt>
      <trkpt lat="45.7615" lon="5.44085">
        <ele>250.211816</ele>
        <time>2021-05-01T06:24:07.058Z</time>
      </trkpt>
      <trkpt lat="45.76129" lon="5.44034">
        <ele>249.708752</ele>
        <time>2021-05-01T06:24:17.686Z</time>
      </trkpt>
      <trkpt lat="45.76072" lon="5.43874">
        <ele>251.912814</ele>
        <time>2021-05-01T06:25:09.758Z</time>
      </trkpt>
      <trkpt lat="45.75978" lon="5.43721">
        <ele>255.061995</ele>
        <time>2021-05-01T06:26:13.752Z</time>
      </trkpt>
      <trkpt lat="45.75973" lon="5.43707">
        <ele>255.142659</ele>
        <time>2021-05-01T06:26:17.976Z</time>
      </trkpt>
      <trkpt lat="45.75946" lon="5.43643">
        <ele>255.524784</ele>
        <time>2021-05-01T06:26:34.289Z</time>
      </trkpt>
      <trkpt lat="45.75912" lon="5.43547">
        <ele>255.725129</ele>
        <time>2021-05-01T06:26:52.241Z</time>
      </trkpt>
      <trkpt lat="45.75875" lon="5.43428">
        <ele>252.817463</ele>
        <time>2021-05-01T06:27:10.943Z</time>
      </trkpt>
      <trkpt lat="45.75869" lon="5.43378">
        <ele>251.680914</ele>
        <time>2021-05-01T06:27:18.040Z</time>
      </trkpt>
      <trkpt lat="45.75829" lon="5.43175">
        <ele>246.510931</ele>
        <time>2021-05-01T06:27:47.097Z</time>
      </trkpt>
      <trkpt lat="45.75827" lon="5.43165">
        <ele>246.234588</ele>
        <time>2021-05-01T06:27:48.527Z</time>
      </trkpt>
      <trkpt lat="45.75777" lon="5.42961">
        <ele>241.971314</ele>
        <time>2021-05-01T06:28:19.872Z</time>
      </trkpt>
      <trkpt lat="45.75756" lon="5.42911">
        <ele>241.109349</ele>
        <time>2021-05-01T06:28:29.136Z</time>
      </trkpt>
      <trkpt lat="45.75704" lon="5.42862">
        <ele>239.790521</ele>
        <time>2021-05-01T06:28:44.194Z</time>
      </trkpt>
      <trkpt lat="45.75643" lon="5.42778">
        <ele>237.991708</ele>
        <time>2021-05-01T06:29:03.174Z</time>
      </trkpt>
      <trkpt lat="45.75617" lon="5.42724">
        <ele>237.027289</ele>
        <time>2021-05-01T06:29:13.337Z</time>
      </trkpt>
      <trkpt lat="45.75627" lon="5.42694">
        <ele>236.543686</ele>
        <time>2021-05-01T06:29:17.990Z</time>
      </trkpt>
      <trkpt lat="45.75641" lon="5.42676">
        <ele>236.148162</ele>
        <time>2021-05-01T06:29:22.125Z</time>
      </trkpt>
      <trkpt lat="45.75661" lon="5.42669">
        <ele>235.563622</ele>
        <time>2021-05-01T06:29:26.435Z</time>
      </trkpt>
      <trkpt lat="45.75748" lon="5.42651">
        <ele>232.998653</ele>
        <time>2021-05-01T06:29:44.208Z</time>
      </trkpt>
      <trkpt lat="45.75858" lon="5.42643">
        <ele>230.494941</ele>
        <time>2021-05-01T06:30:07.289Z</time>
      </trkpt>
      <trkpt lat="45.76005" lon="5.42618">
        <ele>229.2927</ele>
        <time>2021-05-01T06:30:45.948Z</time>
      </trkpt>
      <trkpt lat="45.76028" lon="5.42602">
        <ele>229.286802</ele>
        <time>2021-05-01T06:30:54.416Z</time>
      </trkpt>
      <trkpt lat="45.76055" lon="5.42553">
        <ele>229.276702</ele>
        <time>2021-05-01T06:31:07.883Z</time>
      </trkpt>
      <trkpt lat="45.76064" lon="5.42536">
        <ele>229.273112</ele>
        <time>2021-05-01T06:31:12.783Z</time>
      </trkpt>
      <trkpt lat="45.761" lon="5.42486">
        <ele>229.261472</ele>
        <time>2021-05-01T06:31:25.418Z</time>
      </trkpt>
      <trkpt lat="45.76124" lon="5.42466">
        <ele>229.255071</ele>
        <time>2021-05-01T06:31:32.537Z</time>
      </trkpt>
      <trkpt lat="45.76142" lon="5.4245">
        <ele>229.273759</ele>
        <time>2021-05-01T06:31:37.955Z</time>
      </trkpt>
      <trkpt lat="45.76144" lon="5.42448">
        <ele>229.283302</ele>
        <time>2021-05-01T06:31:38.704Z</time>
      </trkpt>
      <trkpt lat="45.76191" lon="5.42408">
        <ele>229.486264</ele>
        <time>2021-05-01T06:31:53.190Z</time>
      </trkpt>
      <trkpt lat="45.76201" lon="5.42399">
        <ele>229.531273</ele>
        <time>2021-05-01T06:31:56.434Z</time>
      </trkpt>
      <trkpt lat="45.76212" lon="5.42385">
        <ele>229.585194</ele>
        <time>2021-05-01T06:32:00.689Z</time>
      </trkpt>
      <trkpt lat="45.76217" lon="5.42377">
        <ele>229.612703</ele>
        <time>2021-05-01T06:32:02.401Z</time>
      </trkpt>
      <trkpt lat="45.76229" lon="5.42353">
        <ele>229.688842</ele>
        <time>2021-05-01T06:32:08.434Z</time>
      </trkpt>
      <trkpt lat="45.76232" lon="5.42346">
        <ele>229.71023</ele>
        <time>2021-05-01T06:32:10.146Z</time>
      </trkpt>
      <trkpt lat="45.76233" lon="5.42339">
        <ele>229.72836</ele>
        <time>2021-05-01T06:32:11.436Z</time>
      </trkpt>
      <trkpt lat="45.76233" lon="5.42318">
        <ele>229.783358</ele>
        <time>2021-05-01T06:32:15.420Z</time>
      </trkpt>
      <trkpt lat="45.76217" lon="5.42102">
        <ele>233.451186</ele>
        <time>2021-05-01T06:33:13.746Z</time>
      </trkpt>
      <trkpt lat="45.76204" lon="5.42026">
        <ele>235.127355</ele>
        <time>2021-05-01T06:33:40.279Z</time>
      </trkpt>
      <trkpt lat="45.76181" lon="5.41964">
        <ele>237.495352</ele>
        <time>2021-05-01T06:34:06.405Z</time>
      </trkpt>
      <trkpt lat="45.76176" lon="5.41938">
        <ele>238.468598</ele>
        <time>2021-05-01T06:34:17.020Z</time>
      </trkpt>
      <trkpt lat="45.76174" lon="5.4186">
        <ele>241.337104</ele>
        <time>2021-05-01T06:34:45.800Z</time>
      </trkpt>
      <trkpt lat="45.76177" lon="5.41809">
        <ele>243.236854</ele>
        <time>2021-05-01T06:35:04.848Z</time>
      </trkpt>
      <trkpt lat="45.76181" lon="5.41801">
        <ele>243.571352</ele>
        <time>2021-05-01T06:35:08.724Z</time>
      </trkpt>
      <trkpt lat="45.76196" lon="5.41789">
        <ele>244.500906</ele>
        <time>2021-05-01T06:35:18.253Z</time>
      </trkpt>
      <trkpt lat="45.76246" lon="5.41744">
        <ele>247.37416</ele>
        <time>2021-05-01T06:35:50.795Z</time>
      </trkpt>
      <trkpt lat="45.76319" lon="5.4169">
        <ele>251.263804</ele>
        <time>2021-05-01T06:36:32.686Z</time>
      </trkpt>
      <trkpt lat="45.76329" lon="5.41678">
        <ele>251.894062</ele>
        <time>2021-05-01T06:36:39.490Z</time>
      </trkpt>
      <trkpt lat="45.76316" lon="5.41668">
        <ele>252.595483</ele>
        <time>2021-05-01T06:36:45.570Z</time>
      </trkpt>
      <trkpt lat="45.76298" lon="5.41643">
        <ele>253.709958</ele>
        <time>2021-05-01T06:36:56.647Z</time>
      </trkpt>
      <trkpt lat="45.76259" lon="5.41566">
        <ele>255.931986</ele>
        <time>2021-05-01T06:37:25.731Z</time>
      </trkpt>
      <trkpt lat="45.762" lon="5.41505">
        <ele>258.402253</ele>
        <time>2021-05-01T06:37:57.108Z</time>
      </trkpt>
      <trkpt lat="45.76162" lon="5.41472">
        <ele>259.856244</ele>
        <time>2021-05-01T06:38:14.970Z</time>
      </trkpt>
      <trkpt lat="45.76066" lon="5.41409">
        <ele>262.957349</ele>
        <time>2021-05-01T06:38:57.787Z</time>
      </trkpt>
      <trkpt lat="45.76036" lon="5.41374">
        <ele>264.088973</ele>
        <time>2021-05-01T06:39:13.245Z</time>
      </trkpt>
      <trkpt lat="45.75981" lon="5.41277">
        <ele>267.087762</ele>
        <time>2021-05-01T06:39:49.243Z</time>
      </trkpt>
      <trkpt lat="45.75952" lon="5.41169">
        <ele>270.055705</ele>
        <time>2021-05-01T06:40:26.029Z</time>
      </trkpt>
      <trkpt lat="45.75943" lon="5.41151">
        <ele>270.623799</ele>
        <time>2021-05-01T06:40:32.413Z</time>
      </trkpt>
      <trkpt lat="45.75962" lon="5.41139">
        <ele>271.386801</ele>
        <time>2021-05-01T06:40:43.059Z</time>
      </trkpt>
      <trkpt lat="45.76009" lon="5.41111">
        <ele>273.521493</ele>
        <time>2021-05-01T06:41:07.226Z</time>
      </trkpt>
      <trkpt lat="45.76012" lon="5.41109">
        <ele>273.649964</ele>
        <time>2021-05-01T06:41:10.104Z</time>
      </trkpt>
      <trkpt lat="45.76027" lon="5.41094">
        <ele>274.427616</ele>
        <time>2021-05-01T06:41:19.256Z</time>
      </trkpt>
      <trkpt lat="45.76047" lon="5.41058">
        <ele>275.771557</ele>
        <time>2021-05-01T06:41:35.344Z</time>
      </trkpt>
      <trkpt lat="45.76056" lon="5.41037">
        <ele>276.519636</ele>
        <time>2021-05-01T06:41:42.782Z</time>
      </trkpt>
      <trkpt lat="45.7606" lon="5.41028">
        <ele>276.823697</ele>
        <time>2021-05-01T06:41:47.938Z</time>
      </trkpt>
      <trkpt lat="45.7607" lon="5.40998">
        <ele>277.7844</ele>
        <time>2021-05-01T06:41:58.347Z</time>
      </trkpt>
      <trkpt lat="45.76079" lon="5.40979">
        <ele>278.481552</ele>
        <time>2021-05-01T06:42:06.780Z</time>
      </trkpt>
      <trkpt lat="45.76086" lon="5.40972">
        <ele>278.827578</ele>
        <time>2021-05-01T06:42:10.736Z</time>
      </trkpt>
      <trkpt lat="45.76101" lon="5.40954">
        <ele>279.274817</ele>
        <time>2021-05-01T06:42:18.505Z</time>
      </trkpt>
      <trkpt lat="45.76147" lon="5.40871">
        <ele>280.526423</ele>
        <time>2021-05-01T06:42:47.518Z</time>
      </trkpt>
      <trkpt lat="45.76152" lon="5.40859">
        <ele>280.698669</ele>
        <time>2021-05-01T06:42:52.119Z</time>
      </trkpt>
      <trkpt lat="45.76159" lon="5.40834">
        <ele>281.010959</ele>
        <time>2021-05-01T06:42:57.868Z</time>
      </trkpt>
      <trkpt lat="45.76173" lon="5.40802">
        <ele>281.462455</ele>
        <time>2021-05-01T06:43:07.612Z</time>
      </trkpt>
      <trkpt lat="45.76195" lon="5.4077">
        <ele>281.996019</ele>
        <time>2021-05-01T06:43:16.526Z</time>
      </trkpt>
      <trkpt lat="45.7622" lon="5.40753">
        <ele>281.658575</ele>
        <time>2021-05-01T06:43:23.091Z</time>
      </trkpt>
      <trkpt lat="45.76242" lon="5.4074">
        <ele>281.217794</ele>
        <time>2021-05-01T06:43:28.552Z</time>
      </trkpt>
      <trkpt lat="45.7631" lon="5.40728">
        <ele>279.977798</ele>
        <time>2021-05-01T06:43:43.459Z</time>
      </trkpt>
      <trkpt lat="45.76316" lon="5.40726">
        <ele>279.852842</ele>
        <time>2021-05-01T06:43:44.914Z</time>
      </trkpt>
      <trkpt lat="45.76323" lon="5.40724">
        <ele>279.727609</ele>
        <time>2021-05-01T06:43:46.401Z</time>
      </trkpt>
      <trkpt lat="45.7633" lon="5.40719">
        <ele>279.583465</ele>
        <time>2021-05-01T06:43:48.116Z</time>
      </trkpt>
      <trkpt lat="45.76337" lon="5.40698">
        <ele>279.282625</ele>
        <time>2021-05-01T06:43:51.470Z</time>
      </trkpt>
      <trkpt lat="45.76343" lon="5.40617">
        <ele>278.311674</ele>
        <time>2021-05-01T06:44:03.897Z</time>
      </trkpt>
      <trkpt lat="45.76338" lon="5.40519">
        <ele>277.215626</ele>
        <time>2021-05-01T06:44:19.115Z</time>
      </trkpt>
      <trkpt lat="45.76334" lon="5.40475">
        <ele>276.718333</ele>
        <time>2021-05-01T06:44:26.202Z</time>
      </trkpt>
      <trkpt lat="45.76332" lon="5.40449">
        <ele>276.436028</ele>
        <time>2021-05-01T06:44:30.612Z</time>
      </trkpt>
      <trkpt lat="45.76337" lon="5.40435">
        <ele>276.26397</ele>
        <time>2021-05-01T06:44:33.340Z</time>
      </trkpt>
      <trkpt lat="45.76346" lon="5.40427">
        <ele>276.087005</ele>
        <time>2021-05-01T06:44:35.950Z</time>
      </trkpt>
      <trkpt lat="45.76381" lon="5.40415">
        <ele>275.878178</ele>
        <time>2021-05-01T06:44:45.085Z</time>
      </trkpt>
      <trkpt lat="45.76385" lon="5.40407">
        <ele>275.867084</ele>
        <time>2021-05-01T06:44:46.828Z</time>
      </trkpt>
      <trkpt lat="45.76384" lon="5.404">
        <ele>275.858647</ele>
        <time>2021-05-01T06:44:48.733Z</time>
      </trkpt>
      <trkpt lat="45.7637" lon="5.40405">
        <ele>275.835205</ele>
        <time>2021-05-01T06:44:52.496Z</time>
      </trkpt>
      <trkpt lat="45.7632" lon="5.40406">
        <ele>275.755176</ele>
        <time>2021-05-01T06:45:06.410Z</time>
      </trkpt>
      <trkpt lat="45.76309" lon="5.40404">
        <ele>275.73603</ele>
        <time>2021-05-01T06:45:09.890Z</time>
      </trkpt>
      <trkpt lat="45.76187" lon="5.40377">
        <ele>275.515793</ele>
        <time>2021-05-01T06:45:41.326Z</time>
      </trkpt>
      <trkpt lat="45.76159" lon="5.40371">
        <ele>275.459228</ele>
        <time>2021-05-01T06:45:48.228Z</time>
      </trkpt>
      <trkpt lat="45.75946" lon="5.40322">
        <ele>275.215542</ele>
        <time>2021-05-01T06:46:44.439Z</time>
      </trkpt>
      <trkpt lat="45.76159" lon="5.40371">
        <ele>275.578069</ele>
        <time>2021-05-01T06:47:43.410Z</time>
      </trkpt>
      <trkpt lat="45.76187" lon="5.40377">
        <ele>275.688467</ele>
        <time>2021-05-01T06:47:51.649Z</time>
      </trkpt>
      <trkpt lat="45.76309" lon="5.40404">
        <ele>277.10738</ele>
        <time>2021-05-01T06:48:30.114Z</time>
      </trkpt>
      <trkpt lat="45.7632" lon="5.40406">
        <ele>277.244824</ele>
        <time>2021-05-01T06:48:34.666Z</time>
      </trkpt>
      <trkpt lat="45.7637" lon="5.40405">
        <ele>277.862814</ele>
        <time>2021-05-01T06:48:51.633Z</time>
      </trkpt>
      <trkpt lat="45.76384" lon="5.404">
        <ele>278.10181</ele>
        <time>2021-05-01T06:48:57.274Z</time>
      </trkpt>
      <trkpt lat="45.76392" lon="5.40396">
        <ele>278.239731</ele>
        <time>2021-05-01T06:49:00.230Z</time>
      </trkpt>
      <trkpt lat="45.76404" lon="5.40388">
        <ele>278.457519</ele>
        <time>2021-05-01T06:49:04.344Z</time>
      </trkpt>
      <trkpt lat="45.76419" lon="5.40376">
        <ele>278.732102</ele>
        <time>2021-05-01T06:49:10.856Z</time>
      </trkpt>
      <trkpt lat="45.76439" lon="5.40357">
        <ele>279.136535</ele>
        <time>2021-05-01T06:49:19.044Z</time>
      </trkpt>
      <trkpt lat="45.76477" lon="5.40321">
        <ele>279.882051</ele>
        <time>2021-05-01T06:49:35.450Z</time>
      </trkpt>
      <trkpt lat="45.76521" lon="5.40277">
        <ele>280.714606</ele>
        <time>2021-05-01T06:49:53.462Z</time>
      </trkpt>
      <trkpt lat="45.76554" lon="5.40248">
        <ele>281.015392</ele>
        <time>2021-05-01T06:50:06.078Z</time>
      </trkpt>
      <trkpt lat="45.76583" lon="5.40233">
        <ele>281.251183</ele>
        <time>2021-05-01T06:50:15.468Z</time>
      </trkpt>
      <trkpt lat="45.76663" lon="5.40215">
        <ele>281.885752</ele>
        <time>2021-05-01T06:50:39.046Z</time>
      </trkpt>
      <trkpt lat="45.76745" lon="5.40204">
        <ele>282.344311</ele>
        <time>2021-05-01T06:51:02.725Z</time>
      </trkpt>
      <trkpt lat="45.76904" lon="5.40183">
        <ele>283.647377</ele>
        <time>2021-05-01T06:51:48.633Z</time>
      </trkpt>
      <trkpt lat="45.76912" lon="5.40182">
        <ele>283.811302</ele>
        <time>2021-05-01T06:51:51.300Z</time>
      </trkpt>
      <trkpt lat="45.76925" lon="5.40181">
        <ele>284.049515</ele>
        <time>2021-05-01T06:51:55.161Z</time>
      </trkpt>
      <trkpt lat="45.76969" lon="5.40174">
        <ele>284.908866</ele>
        <time>2021-05-01T06:52:10.069Z</time>
      </trkpt>
      <trkpt lat="45.77004" lon="5.40169">
        <ele>285.594495</ele>
        <time>2021-05-01T06:52:23.349Z</time>
      </trkpt>
      <trkpt lat="45.77108" lon="5.40154">
        <ele>288.888549</ele>
        <time>2021-05-01T06:53:10.386Z</time>
      </trkpt>
      <trkpt lat="45.77156" lon="5.40149">
        <ele>290.789495</ele>
        <time>2021-05-01T06:53:34.075Z</time>
      </trkpt>
      <trkpt lat="45.77169" lon="5.40147">
        <ele>291.293358</ele>
        <time>2021-05-01T06:53:40.506Z</time>
      </trkpt>
      <trkpt lat="45.77204" lon="5.40143">
        <ele>292.651332</ele>
        <time>2021-05-01T06:53:57.403Z</time>
      </trkpt>
      <trkpt lat="45.77443" lon="5.40115">
        <ele>298.577984</ele>
        <time>2021-05-01T06:55:34.586Z</time>
      </trkpt>
      <trkpt lat="45.77498" lon="5.40113">
        <ele>298.464903</ele>
        <time>2021-05-01T06:55:49.094Z</time>
      </trkpt>
      <trkpt lat="45.77542" lon="5.40112">
        <ele>298.373766</ele>
        <time>2021-05-01T06:55:59.062Z</time>
      </trkpt>
      <trkpt lat="45.7763" lon="5.40107">
        <ele>297.252481</ele>
        <time>2021-05-01T06:56:16.857Z</time>
      </trkpt>
      <trkpt lat="45.77717" lon="5.40102">
        <ele>295.300248</ele>
        <time>2021-05-01T06:56:34.525Z</time>
      </trkpt>
      <trkpt lat="45.77735" lon="5.40101">
        <ele>294.915451</ele>
        <time>2021-05-01T06:56:38.184Z</time>
      </trkpt>
      <trkpt lat="45.77742" lon="5.40117">
        <ele>294.625229</ele>
        <time>2021-05-01T06:56:41.012Z</time>
      </trkpt>
      <trkpt lat="45.7789" lon="5.40242">
        <ele>292.882526</ele>
        <time>2021-05-01T06:57:23.086Z</time>
      </trkpt>
      <trkpt lat="45.78014" lon="5.4044">
        <ele>292.336942</ele>
        <time>2021-05-01T06:58:13.953Z</time>
      </trkpt>
      <trkpt lat="45.78031" lon="5.4045">
        <ele>292.299768</ele>
        <time>2021-05-01T06:58:18.492Z</time>
      </trkpt>
      <trkpt lat="45.78051" lon="5.40454">
        <ele>292.26194</ele>
        <time>2021-05-01T06:58:23.896Z</time>
      </trkpt>
      <trkpt lat="45.78146" lon="5.40529">
        <ele>292.059127</ele>
        <time>2021-05-01T06:58:52.382Z</time>
      </trkpt>
      <trkpt lat="45.78187" lon="5.40573">
        <ele>291.983904</ele>
        <time>2021-05-01T06:59:06.237Z</time>
      </trkpt>
      <trkpt lat="45.7822" lon="5.40602">
        <ele>292.608881</ele>
        <time>2021-05-01T06:59:17.669Z</time>
      </trkpt>
      <trkpt lat="45.78306" lon="5.40661">
        <ele>294.129196</ele>
        <time>2021-05-01T06:59:51.142Z</time>
      </trkpt>
      <trkpt lat="45.78335" lon="5.40704">
        <ele>294.791003</ele>
        <time>2021-05-01T07:00:07.903Z</time>
      </trkpt>
      <trkpt lat="45.78362" lon="5.40757">
        <ele>296.259297</ele>
        <time>2021-05-01T07:00:28.415Z</time>
      </trkpt>
      <trkpt lat="45.78372" lon="5.40762">
        <ele>296.600395</ele>
        <time>2021-05-01T07:00:34.228Z</time>
      </trkpt>
      <trkpt lat="45.78411" lon="5.40763">
        <ele>297.879028</ele>
        <time>2021-05-01T07:00:52.108Z</time>
      </trkpt>
      <trkpt lat="45.78461" lon="5.40723">
        <ele>299.746413</ele>
        <time>2021-05-01T07:01:16.576Z</time>
      </trkpt>
      <trkpt lat="45.78464" lon="5.40719">
        <ele>299.884639</ele>
        <time>2021-05-01T07:01:19.578Z</time>
      </trkpt>
      <trkpt lat="45.7849" lon="5.40681">
        <ele>300.699172</ele>
        <time>2021-05-01T07:01:35.298Z</time>
      </trkpt>
      <trkpt lat="45.78497" lon="5.40671">
        <ele>300.673896</ele>
        <time>2021-05-01T07:01:39.342Z</time>
      </trkpt>
      <trkpt lat="45.78502" lon="5.40666">
        <ele>300.659502</ele>
        <time>2021-05-01T07:01:41.195Z</time>
      </trkpt>
      <trkpt lat="45.78516" lon="5.40651">
        <ele>300.614338</ele>
        <time>2021-05-01T07:01:47.571Z</time>
      </trkpt>
      <trkpt lat="45.78518" lon="5.40648">
        <ele>300.605311</ele>
        <time>2021-05-01T07:01:49.185Z</time>
      </trkpt>
      <trkpt lat="45.78542" lon="5.40611">
        <ele>300.515889</ele>
        <time>2021-05-01T07:02:00.010Z</time>
      </trkpt>
      <trkpt lat="45.7855" lon="5.40607">
        <ele>300.492831</ele>
        <time>2021-05-01T07:02:02.300Z</time>
      </trkpt>
      <trkpt lat="45.78572" lon="5.40597">
        <ele>300.433941</ele>
        <time>2021-05-01T07:02:07.772Z</time>
      </trkpt>
      <trkpt lat="45.78596" lon="5.406">
        <ele>300.371939</ele>
        <time>2021-05-01T07:02:13.686Z</time>
      </trkpt>
      <trkpt lat="45.78675" lon="5.40674">
        <ele>297.666369</ele>
        <time>2021-05-01T07:02:33.051Z</time>
      </trkpt>
      <trkpt lat="45.78768" lon="5.40725">
        <ele>292.858741</ele>
        <time>2021-05-01T07:02:51.553Z</time>
      </trkpt>
      <trkpt lat="45.78845" lon="5.40729">
        <ele>288.553068</ele>
        <time>2021-05-01T07:03:05.763Z</time>
      </trkpt>
      <trkpt lat="45.78907" lon="5.40747">
        <ele>284.81797</ele>
        <time>2021-05-01T07:03:17.332Z</time>
      </trkpt>
      <trkpt lat="45.78959" lon="5.40732">
        <ele>281.654506</ele>
        <time>2021-05-01T07:03:27.172Z</time>
      </trkpt>
      <trkpt lat="45.78983" lon="5.40724">
        <ele>280.221114</ele>
        <time>2021-05-01T07:03:31.824Z</time>
      </trkpt>
      <trkpt lat="45.79024" lon="5.40724">
        <ele>277.927228</ele>
        <time>2021-05-01T07:03:39.471Z</time>
      </trkpt>
      <trkpt lat="45.7916" lon="5.40762">
        <ele>270.183313</ele>
        <time>2021-05-01T07:04:05.373Z</time>
      </trkpt>
      <trkpt lat="45.79233" lon="5.408">
        <ele>266.232983</ele>
        <time>2021-05-01T07:04:19.845Z</time>
      </trkpt>
      <trkpt lat="45.79251" lon="5.40819">
        <ele>265.091524</ele>
        <time>2021-05-01T07:04:24.071Z</time>
      </trkpt>
      <trkpt lat="45.79265" lon="5.40834">
        <ele>264.189234</ele>
        <time>2021-05-01T07:04:27.500Z</time>
      </trkpt>
      <trkpt lat="45.79281" lon="5.40859">
        <ele>262.996939</ele>
        <time>2021-05-01T07:04:32.054Z</time>
      </trkpt>
      <trkpt lat="45.7931" lon="5.40909">
        <ele>260.863376</ele>
        <time>2021-05-01T07:04:40.849Z</time>
      </trkpt>
      <trkpt lat="45.79319" lon="5.40918">
        <ele>260.428704</ele>
        <time>2021-05-01T07:04:42.969Z</time>
      </trkpt>
      <trkpt lat="45.79361" lon="5.40961">
        <ele>258.423247</ele>
        <time>2021-05-01T07:04:52.822Z</time>
      </trkpt>
      <trkpt lat="45.79381" lon="5.40981">
        <ele>257.466573</ele>
        <time>2021-05-01T07:04:57.664Z</time>
      </trkpt>
      <trkpt lat="45.79386" lon="5.40988">
        <ele>257.188176</ele>
        <time>2021-05-01T07:04:59.141Z</time>
      </trkpt>
      <trkpt lat="45.7939" lon="5.40993">
        <ele>256.977375</ele>
        <time>2021-05-01T07:05:00.231Z</time>
      </trkpt>
      <trkpt lat="45.79391" lon="5.40994">
        <ele>256.926632</ele>
        <time>2021-05-01T07:05:00.516Z</time>
      </trkpt>
      <trkpt lat="45.7939" lon="5.41005">
        <ele>256.606369</ele>
        <time>2021-05-01T07:05:02.095Z</time>
      </trkpt>
      <trkpt lat="45.79388" lon="5.41021">
        <ele>256.16373</ele>
        <time>2021-05-01T07:05:04.395Z</time>
      </trkpt>
      <trkpt lat="45.79388" lon="5.41024">
        <ele>256.103126</ele>
        <time>2021-05-01T07:05:04.638Z</time>
      </trkpt>
      <trkpt lat="45.79369" lon="5.411">
        <ele>253.98003</ele>
        <time>2021-05-01T07:05:15.867Z</time>
      </trkpt>
      <trkpt lat="45.7936" lon="5.41133">
        <ele>253.139675</ele>
        <time>2021-05-01T07:05:20.748Z</time>
      </trkpt>
      <trkpt lat="45.79351" lon="5.41177">
        <ele>252.071624</ele>
        <time>2021-05-01T07:05:26.921Z</time>
      </trkpt>
      <trkpt lat="45.79351" lon="5.41186">
        <ele>251.857388</ele>
        <time>2021-05-01T07:05:28.114Z</time>
      </trkpt>
      <trkpt lat="45.7935" lon="5.41198">
        <ele>251.57259</ele>
        <time>2021-05-01T07:05:29.777Z</time>
      </trkpt>
      <trkpt lat="45.79351" lon="5.41207">
        <ele>251.360699</ele>
        <time>2021-05-01T07:05:31.004Z</time>
      </trkpt>
      <trkpt lat="45.79356" lon="5.41226">
        <ele>250.86797</ele>
        <time>2021-05-01T07:05:33.766Z</time>
      </trkpt>
      <trkpt lat="45.79359" lon="5.41233">
        <ele>250.690655</ele>
        <time>2021-05-01T07:05:34.734Z</time>
      </trkpt>
      <trkpt lat="45.79366" lon="5.41242">
        <ele>250.348757</ele>
        <time>2021-05-01T07:05:36.725Z</time>
      </trkpt>
      <trkpt lat="45.79368" lon="5.41245">
        <ele>250.257795</ele>
        <time>2021-05-01T07:05:37.279Z</time>
      </trkpt>
      <trkpt lat="45.79371" lon="5.41249">
        <ele>250.125426</ele>
        <time>2021-05-01T07:05:38.063Z</time>
      </trkpt>
      <trkpt lat="45.79478" lon="5.41359">
        <ele>245.511531</ele>
        <time>2021-05-01T07:06:03.619Z</time>
      </trkpt>
      <trkpt lat="45.79503" lon="5.41387">
        <ele>244.369775</ele>
        <time>2021-05-01T07:06:09.837Z</time>
      </trkpt>
      <trkpt lat="45.79514" lon="5.41419">
        <ele>243.479188</ele>
        <time>2021-05-01T07:06:14.468Z</time>
      </trkpt>
      <trkpt lat="45.7954" lon="5.41496">
        <ele>241.267564</ele>
        <time>2021-05-01T07:06:25.746Z</time>
      </trkpt>
      <trkpt lat="45.79544" lon="5.41509">
        <ele>240.845727</ele>
        <time>2021-05-01T07:06:27.571Z</time>
      </trkpt>
      <trkpt lat="45.7955" lon="5.41504">
        <ele>240.565635</ele>
        <time>2021-05-01T07:06:29.032Z</time>
      </trkpt>
      <trkpt lat="45.7959" lon="5.41472">
        <ele>238.654099</ele>
        <time>2021-05-01T07:06:38.272Z</time>
      </trkpt>
      <trkpt lat="45.7964" lon="5.41486">
        <ele>236.532962</ele>
        <time>2021-05-01T07:06:48.258Z</time>
      </trkpt>
      <trkpt lat="45.79661" lon="5.41475">
        <ele>235.629256</ele>
        <time>2021-05-01T07:06:52.527Z</time>
      </trkpt>
      <trkpt lat="45.79709" lon="5.41483">
        <ele>233.459935</ele>
        <time>2021-05-01T07:07:01.916Z</time>
      </trkpt>
      <trkpt lat="45.79763" lon="5.41434">
        <ele>230.426729</ele>
        <time>2021-05-01T07:07:13.851Z</time>
      </trkpt>
      <trkpt lat="45.79779" lon="5.41425">
        <ele>229.592674</ele>
        <time>2021-05-01T07:07:17.130Z</time>
      </trkpt>
      <trkpt lat="45.79793" lon="5.41414">
        <ele>228.797434</ele>
        <time>2021-05-01T07:07:20.277Z</time>
      </trkpt>
      <trkpt lat="45.79814" lon="5.41387">
        <ele>227.450062</ele>
        <time>2021-05-01T07:07:25.673Z</time>
      </trkpt>
      <trkpt lat="45.79837" lon="5.4137">
        <ele>226.215548</ele>
        <time>2021-05-01T07:07:30.692Z</time>
      </trkpt>
      <trkpt lat="45.79883" lon="5.4139">
        <ele>224.751613</ele>
        <time>2021-05-01T07:07:40.090Z</time>
      </trkpt>
      <trkpt lat="45.79908" lon="5.41399">
        <ele>224.059123</ele>
        <time>2021-05-01T07:07:45.112Z</time>
      </trkpt>
      <trkpt lat="45.79914" lon="5.41404">
        <ele>223.860893</ele>
        <time>2021-05-01T07:07:46.544Z</time>
      </trkpt>
      <trkpt lat="45.79927" lon="5.41413">
        <ele>223.455309</ele>
        <time>2021-05-01T07:07:49.559Z</time>
      </trkpt>
      <trkpt lat="45.80005" lon="5.41546">
        <ele>220.751584</ele>
        <time>2021-05-01T07:08:17.021Z</time>
      </trkpt>
      <trkpt lat="45.80022" lon="5.41561">
        <ele>220.627262</ele>
        <time>2021-05-01T07:08:21.963Z</time>
      </trkpt>
      <trkpt lat="45.80038" lon="5.41564">
        <ele>220.522283</ele>
        <time>2021-05-01T07:08:26.339Z</time>
      </trkpt>
      <trkpt lat="45.80059" lon="5.41564">
        <ele>220.395306</ele>
        <time>2021-05-01T07:08:31.584Z</time>
      </trkpt>
      <trkpt lat="45.8009" lon="5.41563">
        <ele>220.197989</ele>
        <time>2021-05-01T07:08:39.647Z</time>
      </trkpt>
      <trkpt lat="45.80125" lon="5.41563">
        <ele>219.983862</ele>
        <time>2021-05-01T07:08:48.495Z</time>
      </trkpt>
      <trkpt lat="45.80143" lon="5.41572">
        <ele>219.860681</ele>
        <time>2021-05-01T07:08:53.727Z</time>
      </trkpt>
      <trkpt lat="45.80164" lon="5.41593">
        <ele>219.808422</ele>
        <time>2021-05-01T07:09:00.215Z</time>
      </trkpt>
      <trkpt lat="45.80213" lon="5.41689">
        <ele>219.777534</ele>
        <time>2021-05-01T07:09:22.294Z</time>
      </trkpt>
      <trkpt lat="45.80255" lon="5.4164">
        <ele>219.757367</ele>
        <time>2021-05-01T07:09:37.432Z</time>
      </trkpt>
      <trkpt lat="45.80258" lon="5.41644">
        <ele>219.755945</ele>
        <time>2021-05-01T07:09:38.499Z</time>
      </trkpt>
      <trkpt lat="45.80269" lon="5.41647">
        <ele>219.751775</ele>
        <time>2021-05-01T07:09:41.619Z</time>
      </trkpt>
      <trkpt lat="45.80272" lon="5.41644">
        <ele>219.750332</ele>
        <time>2021-05-01T07:09:42.729Z</time>
      </trkpt>
      <trkpt lat="45.80275" lon="5.4164">
        <ele>219.748892</ele>
        <time>2021-05-01T07:09:43.875Z</time>
      </trkpt>
      <trkpt lat="45.80276" lon="5.41624">
        <ele>219.747816</ele>
        <time>2021-05-01T07:09:47.081Z</time>
      </trkpt>
      <trkpt lat="45.80274" lon="5.41619">
        <ele>219.747639</ele>
        <time>2021-05-01T07:09:48.155Z</time>
      </trkpt>
      <trkpt lat="45.80306" lon="5.41583">
        <ele>219.745791</ele>
        <time>2021-05-01T07:09:59.563Z</time>
      </trkpt>
      <trkpt lat="45.8031" lon="5.41578">
        <ele>219.745544</ele>
        <time>2021-05-01T07:10:01.971Z</time>
      </trkpt>
      <trkpt lat="45.80338" lon="5.41551">
        <ele>219.744025</ele>
        <time>2021-05-01T07:10:16.892Z</time>
      </trkpt>
      <trkpt lat="45.80362" lon="5.41541">
        <ele>219.742918</ele>
        <time>2021-05-01T07:10:27.932Z</time>
      </trkpt>
      <trkpt lat="45.80373" lon="5.41553">
        <ele>219.742294</ele>
        <time>2021-05-01T07:10:33.923Z</time>
      </trkpt>
      <trkpt lat="45.80379" lon="5.4156">
        <ele>219.741918</ele>
        <time>2021-05-01T07:10:37.643Z</time>
      </trkpt>
      <trkpt lat="45.80383" lon="5.41563">
        <ele>219.74173</ele>
        <time>2021-05-01T07:10:39.675Z</time>
      </trkpt>
      <trkpt lat="45.80414" lon="5.41502">
        <ele>219.642437</ele>
        <time>2021-05-01T07:11:03.210Z</time>
      </trkpt>
      <trkpt lat="45.80461" lon="5.41478">
        <ele>219.358207</ele>
        <time>2021-05-01T07:11:24.633Z</time>
      </trkpt>
      <trkpt lat="45.80463" lon="5.41472">
        <ele>219.329628</ele>
        <time>2021-05-01T07:11:27.012Z</time>
      </trkpt>
      <trkpt lat="45.80551" lon="5.4143">
        <ele>218.800547</ele>
        <time>2021-05-01T07:11:50.000Z</time>
      </trkpt>
      <trkpt lat="45.80567" lon="5.41427">
        <ele>218.705033</ele>
        <time>2021-05-01T07:11:53.994Z</time>
      </trkpt>
      <trkpt lat="45.80592" lon="5.41433">
        <ele>218.454226</ele>
        <time>2021-05-01T07:11:59.954Z</time>
      </trkpt>
      <trkpt lat="45.80614" lon="5.41433">
        <ele>218.233127</ele>
        <time>2021-05-01T07:12:05.400Z</time>
      </trkpt>
      <trkpt lat="45.80635" lon="5.41424">
        <ele>218.021315</ele>
        <time>2021-05-01T07:12:10.535Z</time>
      </trkpt>
      <trkpt lat="45.80659" lon="5.41406">
        <ele>217.748402</ele>
        <time>2021-05-01T07:12:17.012Z</time>
      </trkpt>
      <trkpt lat="45.80694" lon="5.41373">
        <ele>217.335247</ele>
        <time>2021-05-01T07:12:27.050Z</time>
      </trkpt>
      <trkpt lat="45.80782" lon="5.41288">
        <ele>216.639016</ele>
        <time>2021-05-01T07:12:53.451Z</time>
      </trkpt>
      <trkpt lat="45.80871" lon="5.41231">
        <ele>216.19939</ele>
        <time>2021-05-01T07:13:19.547Z</time>
      </trkpt>
      <trkpt lat="45.80993" lon="5.41107">
        <ele>215.796918</ele>
        <time>2021-05-01T07:13:59.098Z</time>
      </trkpt>
      <trkpt lat="45.81025" lon="5.41079">
        <ele>215.70284</ele>
        <time>2021-05-01T07:14:09.389Z</time>
      </trkpt>
      <trkpt lat="45.81045" lon="5.41059">
        <ele>215.708631</ele>
        <time>2021-05-01T07:14:15.922Z</time>
      </trkpt>
      <trkpt lat="45.81126" lon="5.40953">
        <ele>215.922648</ele>
        <time>2021-05-01T07:14:47.289Z</time>
      </trkpt>
      <trkpt lat="45.81243" lon="5.4082">
        <ele>216.021565</ele>
        <time>2021-05-01T07:15:31.569Z</time>
      </trkpt>
      <trkpt lat="45.81285" lon="5.40794">
        <ele>216.016763</ele>
        <time>2021-05-01T07:15:44.215Z</time>
      </trkpt>
      <trkpt lat="45.81289" lon="5.40791">
        <ele>216.016239</ele>
        <time>2021-05-01T07:15:45.567Z</time>
      </trkpt>
      <trkpt lat="45.81297" lon="5.4078">
        <ele>216.015072</ele>
        <time>2021-05-01T07:15:48.649Z</time>
      </trkpt>
      <trkpt lat="45.813" lon="5.40786">
        <ele>216.014531</ele>
        <time>2021-05-01T07:15:50.225Z</time>
      </trkpt>
      <trkpt lat="45.81308" lon="5.40797">
        <ele>216.013337</ele>
        <time>2021-05-01T07:15:53.871Z</time>
      </trkpt>
      <trkpt lat="45.81327" lon="5.40803">
        <ele>215.839533</ele>
        <time>2021-05-01T07:16:00.158Z</time>
      </trkpt>
      <trkpt lat="45.81336" lon="5.40801">
        <ele>215.688708</ele>
        <time>2021-05-01T07:16:03.041Z</time>
      </trkpt>
      <trkpt lat="45.81338" lon="5.40803">
        <ele>215.659554</ele>
        <time>2021-05-01T07:16:03.416Z</time>
      </trkpt>
      <trkpt lat="45.8135" lon="5.4082">
        <ele>215.391519</ele>
        <time>2021-05-01T07:16:07.653Z</time>
      </trkpt>
      <trkpt lat="45.81368" lon="5.40871">
        <ele>214.760024</ele>
        <time>2021-05-01T07:16:17.110Z</time>
      </trkpt>
      <trkpt lat="45.81383" lon="5.40934">
        <ele>214.033111</ele>
        <time>2021-05-01T07:16:27.449Z</time>
      </trkpt>
      <trkpt lat="45.81396" lon="5.40984">
        <ele>213.452493</ele>
        <time>2021-05-01T07:16:35.718Z</time>
      </trkpt>
      <trkpt lat="45.8141" lon="5.41031">
        <ele>212.75115</ele>
        <time>2021-05-01T07:16:43.462Z</time>
      </trkpt>
      <trkpt lat="45.81418" lon="5.41082">
        <ele>211.916296</ele>
        <time>2021-05-01T07:16:51.368Z</time>
      </trkpt>
      <trkpt lat="45.8142" lon="5.41091">
        <ele>211.779481</ele>
        <time>2021-05-01T07:16:52.612Z</time>
      </trkpt>
      <trkpt lat="45.81425" lon="5.41094">
        <ele>211.658521</ele>
        <time>2021-05-01T07:16:53.697Z</time>
      </trkpt>
      <trkpt lat="45.81438" lon="5.41122">
        <ele>211.117692</ele>
        <time>2021-05-01T07:16:58.637Z</time>
      </trkpt>
      <trkpt lat="45.81461" lon="5.41155">
        <ele>210.367673</ele>
        <time>2021-05-01T07:17:05.398Z</time>
      </trkpt>
      <trkpt lat="45.81476" lon="5.41156">
        <ele>210.020404</ele>
        <time>2021-05-01T07:17:08.499Z</time>
      </trkpt>
      <trkpt lat="45.81489" lon="5.41156">
        <ele>209.72341</ele>
        <time>2021-05-01T07:17:11.370Z</time>
      </trkpt>
      <trkpt lat="45.81503" lon="5.41156">
        <ele>209.424152</ele>
        <time>2021-05-01T07:17:14.056Z</time>
      </trkpt>
      <trkpt lat="45.8158" lon="5.41173">
        <ele>207.82149</ele>
        <time>2021-05-01T07:17:30.276Z</time>
      </trkpt>
      <trkpt lat="45.81635" lon="5.41202">
        <ele>206.660311</ele>
        <time>2021-05-01T07:17:42.512Z</time>
      </trkpt>
      <trkpt lat="45.81641" lon="5.41209">
        <ele>206.499678</ele>
        <time>2021-05-01T07:17:44.162Z</time>
      </trkpt>
      <trkpt lat="45.81643" lon="5.41211">
        <ele>206.444002</ele>
        <time>2021-05-01T07:17:44.704Z</time>
      </trkpt>
      <trkpt lat="45.8169" lon="5.41402">
        <ele>204.249132</ele>
        <time>2021-05-01T07:18:15.762Z</time>
      </trkpt>
      <trkpt lat="45.81708" lon="5.41475">
        <ele>203.520998</ele>
        <time>2021-05-01T07:18:28.212Z</time>
      </trkpt>
      <trkpt lat="45.81711" lon="5.41498">
        <ele>203.301118</ele>
        <time>2021-05-01T07:18:31.979Z</time>
      </trkpt>
      <trkpt lat="45.81714" lon="5.41531">
        <ele>203.023816</ele>
        <time>2021-05-01T07:18:37.288Z</time>
      </trkpt>
      <trkpt lat="45.81719" lon="5.41573">
        <ele>202.747158</ele>
        <time>2021-05-01T07:18:44.156Z</time>
      </trkpt>
      <trkpt lat="45.81724" lon="5.41584">
        <ele>202.661267</ele>
        <time>2021-05-01T07:18:46.265Z</time>
      </trkpt>
      <trkpt lat="45.81737" lon="5.41602">
        <ele>202.493343</ele>
        <time>2021-05-01T07:18:50.472Z</time>
      </trkpt>
      <trkpt lat="45.81769" lon="5.41639">
        <ele>202.109513</ele>
        <time>2021-05-01T07:19:00.338Z</time>
      </trkpt>
      <trkpt lat="45.81775" lon="5.41689">
        <ele>201.781322</ele>
        <time>2021-05-01T07:19:08.615Z</time>
      </trkpt>
      <trkpt lat="45.81779" lon="5.41695">
        <ele>201.729116</ele>
        <time>2021-05-01T07:19:09.883Z</time>
      </trkpt>
      <trkpt lat="45.81785" lon="5.41704">
        <ele>201.651128</ele>
        <time>2021-05-01T07:19:11.817Z</time>
      </trkpt>
      <trkpt lat="45.81793" lon="5.41708">
        <ele>201.571295</ele>
        <time>2021-05-01T07:19:13.730Z</time>
      </trkpt>
      <trkpt lat="45.81797" lon="5.41708">
        <ele>201.52947</ele>
        <time>2021-05-01T07:19:14.863Z</time>
      </trkpt>
      <trkpt lat="45.81803" lon="5.41708">
        <ele>201.479276</ele>
        <time>2021-05-01T07:19:16.222Z</time>
      </trkpt>
      <trkpt lat="45.81808" lon="5.41711">
        <ele>201.428287</ele>
        <time>2021-05-01T07:19:17.514Z</time>
      </trkpt>
      <trkpt lat="45.81812" lon="5.4172">
        <ele>201.372917</ele>
        <time>2021-05-01T07:19:19.225Z</time>
      </trkpt>
      <trkpt lat="45.81843" lon="5.41792">
        <ele>200.956484</ele>
        <time>2021-05-01T07:19:33.196Z</time>
      </trkpt>
      <trkpt lat="45.81849" lon="5.41802">
        <ele>200.888766</ele>
        <time>2021-05-01T07:19:35.422Z</time>
      </trkpt>
      <trkpt lat="45.81852" lon="5.418">
        <ele>200.867175</ele>
        <time>2021-05-01T07:19:36.140Z</time>
      </trkpt>
      <trkpt lat="45.81855" lon="5.41809">
        <ele>200.820425</ele>
        <time>2021-05-01T07:19:37.743Z</time>
      </trkpt>
      <trkpt lat="45.81856" lon="5.41812">
        <ele>200.801614</ele>
        <time>2021-05-01T07:19:38.385Z</time>
      </trkpt>
      <trkpt lat="45.81863" lon="5.41835">
        <ele>200.678198</ele>
        <time>2021-05-01T07:19:42.943Z</time>
      </trkpt>
      <trkpt lat="45.81869" lon="5.41854">
        <ele>200.579375</ele>
        <time>2021-05-01T07:19:46.308Z</time>
      </trkpt>
      <trkpt lat="45.81874" lon="5.41865">
        <ele>200.515371</ele>
        <time>2021-05-01T07:19:48.546Z</time>
      </trkpt>
      <trkpt lat="45.81904" lon="5.41885">
        <ele>200.283669</ele>
        <time>2021-05-01T07:19:57.251Z</time>
      </trkpt>
      <trkpt lat="45.82045" lon="5.41926">
        <ele>199.891816</ele>
        <time>2021-05-01T07:20:35.350Z</time>
      </trkpt>
      <trkpt lat="45.82075" lon="5.41941">
        <ele>199.827536</ele>
        <time>2021-05-01T07:20:44.070Z</time>
      </trkpt>
      <trkpt lat="45.82087" lon="5.41954">
        <ele>199.796609</ele>
        <time>2021-05-01T07:20:50.880Z</time>
      </trkpt>
      <trkpt lat="45.82093" lon="5.41961">
        <ele>199.780852</ele>
        <time>2021-05-01T07:20:54.454Z</time>
      </trkpt>
      <trkpt lat="45.82103" lon="5.41971">
        <ele>199.792726</ele>
        <time>2021-05-01T07:20:59.868Z</time>
      </trkpt>
      <trkpt lat="45.82112" lon="5.41973">
        <ele>199.801259</ele>
        <time>2021-05-01T07:21:02.491Z</time>
      </trkpt>
      <trkpt lat="45.8215" lon="5.41981">
        <ele>199.838714</ele>
        <time>2021-05-01T07:21:13.027Z</time>
      </trkpt>
      <trkpt lat="45.822" lon="5.41939">
        <ele>199.895579</ele>
        <time>2021-05-01T07:21:28.722Z</time>
      </trkpt>
      <trkpt lat="45.82204" lon="5.41939">
        <ele>199.89948</ele>
        <time>2021-05-01T07:21:29.999Z</time>
      </trkpt>
      <trkpt lat="45.82208" lon="5.41943">
        <ele>199.904149</ele>
        <time>2021-05-01T07:21:31.469Z</time>
      </trkpt>
      <trkpt lat="45.82249" lon="5.41987">
        <ele>199.953735</ele>
        <time>2021-05-01T07:21:44.486Z</time>
      </trkpt>
      <trkpt lat="45.82259" lon="5.42016">
        <ele>200.011797</ele>
        <time>2021-05-01T07:21:51.201Z</time>
      </trkpt>
      <trkpt lat="45.82269" lon="5.42026">
        <ele>200.047115</ele>
        <time>2021-05-01T07:21:54.207Z</time>
      </trkpt>
      <trkpt lat="45.8229" lon="5.42015">
        <ele>200.109714</ele>
        <time>2021-05-01T07:22:01.237Z</time>
      </trkpt>
      <trkpt lat="45.82304" lon="5.42014">
        <ele>200.146465</ele>
        <time>2021-05-01T07:22:04.402Z</time>
      </trkpt>
      <trkpt lat="45.82328" lon="5.42023">
        <ele>200.217223</ele>
        <time>2021-05-01T07:22:12.255Z</time>
      </trkpt>
      <trkpt lat="45.82362" lon="5.42045">
        <ele>200.320902</ele>
        <time>2021-05-01T07:22:22.577Z</time>
      </trkpt>
      <trkpt lat="45.82374" lon="5.42056">
        <ele>200.36031</ele>
        <time>2021-05-01T07:22:26.068Z</time>
      </trkpt>
      <trkpt lat="45.82384" lon="5.42064">
        <ele>200.393123</ele>
        <time>2021-05-01T07:22:29.843Z</time>
      </trkpt>
      <trkpt lat="45.82401" lon="5.42085">
        <ele>200.455457</ele>
        <time>2021-05-01T07:22:35.618Z</time>
      </trkpt>
      <trkpt lat="45.82409" lon="5.42095">
        <ele>200.513734</ele>
        <time>2021-05-01T07:22:38.892Z</time>
      </trkpt>
      <trkpt lat="45.82429" lon="5.42139">
        <ele>200.730115</ele>
        <time>2021-05-01T07:22:49.126Z</time>
      </trkpt>
      <trkpt lat="45.82437" lon="5.42144">
        <ele>200.779416</ele>
        <time>2021-05-01T07:22:51.625Z</time>
      </trkpt>
      <trkpt lat="45.82505" lon="5.421">
        <ele>201.222611</ele>
        <time>2021-05-01T07:23:14.271Z</time>
      </trkpt>
      <trkpt lat="45.82544" lon="5.42084">
        <ele>201.45856</ele>
        <time>2021-05-01T07:23:26.585Z</time>
      </trkpt>
      <trkpt lat="45.8256" lon="5.42094">
        <ele>201.540112</ele>
        <time>2021-05-01T07:23:31.688Z</time>
      </trkpt>
      <trkpt lat="45.8257" lon="5.42119">
        <ele>201.60693</ele>
        <time>2021-05-01T07:23:37.635Z</time>
      </trkpt>
      <trkpt lat="45.8258" lon="5.42182">
        <ele>201.757765</ele>
        <time>2021-05-01T07:23:51.587Z</time>
      </trkpt>
      <trkpt lat="45.82573" lon="5.42203">
        <ele>201.812443</ele>
        <time>2021-05-01T07:23:56.201Z</time>
      </trkpt>
      <trkpt lat="45.82553" lon="5.42219">
        <ele>201.889003</ele>
        <time>2021-05-01T07:24:02.835Z</time>
      </trkpt>
      <trkpt lat="45.8255" lon="5.4223">
        <ele>201.914567</ele>
        <time>2021-05-01T07:24:04.886Z</time>
      </trkpt>
      <trkpt lat="45.82555" lon="5.42245">
        <ele>201.952524</ele>
        <time>2021-05-01T07:24:07.894Z</time>
      </trkpt>
      <trkpt lat="45.82577" lon="5.42252">
        <ele>202.028308</ele>
        <time>2021-05-01T07:24:13.977Z</time>
      </trkpt>
      <trkpt lat="45.82591" lon="5.42266">
        <ele>202.084277</ele>
        <time>2021-05-01T07:24:18.372Z</time>
      </trkpt>
      <trkpt lat="45.82595" lon="5.42282">
        <ele>202.096439</ele>
        <time>2021-05-01T07:24:21.746Z</time>
      </trkpt>
      <trkpt lat="45.82598" lon="5.42328">
        <ele>201.954293</ele>
        <time>2021-05-01T07:24:29.967Z</time>
      </trkpt>
      <trkpt lat="45.82598" lon="5.42354">
        <ele>201.872407</ele>
        <time>2021-05-01T07:24:34.500Z</time>
      </trkpt>
      <trkpt lat="45.82598" lon="5.42387">
        <ele>201.771739</ele>
        <time>2021-05-01T07:24:40.218Z</time>
      </trkpt>
      <trkpt lat="45.82596" lon="5.42402">
        <ele>201.72374</ele>
        <time>2021-05-01T07:24:42.819Z</time>
      </trkpt>
      <trkpt lat="45.82601" lon="5.42431">
        <ele>201.633282</ele>
        <time>2021-05-01T07:24:48.035Z</time>
      </trkpt>
      <trkpt lat="45.82602" lon="5.42445">
        <ele>201.589133</ele>
        <time>2021-05-01T07:24:50.343Z</time>
      </trkpt>
      <trkpt lat="45.82595" lon="5.4254">
        <ele>201.297781</ele>
        <time>2021-05-01T07:25:06.629Z</time>
      </trkpt>
      <trkpt lat="45.82604" lon="5.42584">
        <ele>201.172803</ele>
        <time>2021-05-01T07:25:14.515Z</time>
      </trkpt>
      <trkpt lat="45.82605" lon="5.42592">
        <ele>201.151525</ele>
        <time>2021-05-01T07:25:15.795Z</time>
      </trkpt>
      <trkpt lat="45.826" lon="5.42652">
        <ele>200.990698</ele>
        <time>2021-05-01T07:25:26.212Z</time>
      </trkpt>
      <trkpt lat="45.826" lon="5.42692">
        <ele>200.881317</ele>
        <time>2021-05-01T07:25:33.494Z</time>
      </trkpt>
      <trkpt lat="45.82601" lon="5.42696">
        <ele>200.871638</ele>
        <time>2021-05-01T07:25:34.229Z</time>
      </trkpt>
      <trkpt lat="45.82601" lon="5.42706">
        <ele>200.845018</ele>
        <time>2021-05-01T07:25:36.044Z</time>
      </trkpt>
      <trkpt lat="45.82618" lon="5.43246">
        <ele>199.689834</ele>
        <time>2021-05-01T07:27:12.110Z</time>
      </trkpt>
      <trkpt lat="45.82623" lon="5.43287">
        <ele>199.602744</ele>
        <time>2021-05-01T07:27:19.499Z</time>
      </trkpt>
      <trkpt lat="45.8263" lon="5.43314">
        <ele>199.55764</ele>
        <time>2021-05-01T07:27:24.525Z</time>
      </trkpt>
      <trkpt lat="45.82658" lon="5.43357">
        <ele>199.501786</ele>
        <time>2021-05-01T07:27:35.002Z</time>
      </trkpt>
      <trkpt lat="45.82678" lon="5.43377">
        <ele>199.468336</ele>
        <time>2021-05-01T07:27:41.320Z</time>
      </trkpt>
      <trkpt lat="45.82715" lon="5.43393">
        <ele>199.415399</ele>
        <time>2021-05-01T07:27:51.405Z</time>
      </trkpt>
      <trkpt lat="45.82754" lon="5.43381">
        <ele>199.361559</ele>
        <time>2021-05-01T07:28:01.778Z</time>
      </trkpt>
      <trkpt lat="45.82933" lon="5.43288">
        <ele>199.414463</ele>
        <time>2021-05-01T07:28:53.414Z</time>
      </trkpt>
      <trkpt lat="45.83024" lon="5.43231">
        <ele>199.402784</ele>
        <time>2021-05-01T07:29:20.252Z</time>
      </trkpt>
      <trkpt lat="45.83415" lon="5.42797">
        <ele>199.227203</ele>
        <time>2021-05-01T07:31:31.009Z</time>
      </trkpt>
      <trkpt lat="45.83422" lon="5.4279">
        <ele>199.227142</ele>
        <time>2021-05-01T07:31:33.092Z</time>
      </trkpt>
      <trkpt lat="45.83428" lon="5.42782">
        <ele>199.227078</ele>
        <time>2021-05-01T07:31:35.331Z</time>
      </trkpt>
      <trkpt lat="45.83512" lon="5.42673">
        <ele>199.226199</ele>
        <time>2021-05-01T07:32:05.537Z</time>
      </trkpt>
      <trkpt lat="45.83583" lon="5.42549">
        <ele>199.492749</ele>
        <time>2021-05-01T07:32:36.034Z</time>
      </trkpt>
      <trkpt lat="45.83603" lon="5.425">
        <ele>199.599238</ele>
        <time>2021-05-01T07:32:47.124Z</time>
      </trkpt>
      <trkpt lat="45.83789" lon="5.41953">
        <ele>202.307342</ele>
        <time>2021-05-01T07:34:54.305Z</time>
      </trkpt>
      <trkpt lat="45.83827" lon="5.41871">
        <ele>202.781365</ele>
        <time>2021-05-01T07:35:15.115Z</time>
      </trkpt>
      <trkpt lat="45.83838" lon="5.41852">
        <ele>202.901063</ele>
        <time>2021-05-01T07:35:20.709Z</time>
      </trkpt>
      <trkpt lat="45.83881" lon="5.41794">
        <ele>203.312526</ele>
        <time>2021-05-01T07:35:38.384Z</time>
      </trkpt>
      <trkpt lat="45.83893" lon="5.41778">
        <ele>203.387089</ele>
        <time>2021-05-01T07:35:43.343Z</time>
      </trkpt>
      <trkpt lat="45.839" lon="5.4177">
        <ele>203.377822</ele>
        <time>2021-05-01T07:35:45.778Z</time>
      </trkpt>
      <trkpt lat="45.83928" lon="5.4172">
        <ele>203.333365</ele>
        <time>2021-05-01T07:35:58.609Z</time>
      </trkpt>
      <trkpt lat="45.83953" lon="5.41684">
        <ele>203.2971</ele>
        <time>2021-05-01T07:36:08.094Z</time>
      </trkpt>
      <trkpt lat="45.83976" lon="5.41665">
        <ele>203.270653</ele>
        <time>2021-05-01T07:36:14.324Z</time>
      </trkpt>
      <trkpt lat="45.8401" lon="5.41639">
        <ele>203.231702</ele>
        <time>2021-05-01T07:36:23.819Z</time>
      </trkpt>
      <trkpt lat="45.84052" lon="5.41621">
        <ele>203.142161</ele>
        <time>2021-05-01T07:36:34.829Z</time>
      </trkpt>
      <trkpt lat="45.84094" lon="5.4162">
        <ele>203.017015</ele>
        <time>2021-05-01T07:36:45.021Z</time>
      </trkpt>
      <trkpt lat="45.84103" lon="5.4162">
        <ele>202.988539</ele>
        <time>2021-05-01T07:36:47.219Z</time>
      </trkpt>
      <trkpt lat="45.84179" lon="5.41616">
        <ele>202.761178</ele>
        <time>2021-05-01T07:37:06.726Z</time>
      </trkpt>
      <trkpt lat="45.84213" lon="5.41609">
        <ele>202.697837</ele>
        <time>2021-05-01T07:37:15.624Z</time>
      </trkpt>
      <trkpt lat="45.84246" lon="5.41594">
        <ele>202.896691</ele>
        <time>2021-05-01T07:37:25.080Z</time>
      </trkpt>
      <trkpt lat="45.84278" lon="5.41584">
        <ele>203.082625</ele>
        <time>2021-05-01T07:37:34.752Z</time>
      </trkpt>
      <trkpt lat="45.84413" lon="5.4155">
        <ele>204.043743</ele>
        <time>2021-05-01T07:38:16.647Z</time>
      </trkpt>
      <trkpt lat="45.84533" lon="5.41499">
        <ele>205.527425</ele>
        <time>2021-05-01T07:38:56.690Z</time>
      </trkpt>
      <trkpt lat="45.84581" lon="5.41467">
        <ele>206.387309</ele>
        <time>2021-05-01T07:39:15.056Z</time>
      </trkpt>
      <trkpt lat="45.84647" lon="5.41413">
        <ele>207.927446</ele>
        <time>2021-05-01T07:39:42.756Z</time>
      </trkpt>
      <trkpt lat="45.84716" lon="5.41341">
        <ele>209.613077</ele>
        <time>2021-05-01T07:40:15.438Z</time>
      </trkpt>
      <trkpt lat="45.84792" lon="5.41215">
        <ele>211.295725</ele>
        <time>2021-05-01T07:40:56.826Z</time>
      </trkpt>
      <trkpt lat="45.85014" lon="5.40817">
        <ele>212.463231</ele>
        <time>2021-05-01T07:42:36.646Z</time>
      </trkpt>
      <trkpt lat="45.8506" lon="5.40744">
        <ele>212.197417</ele>
        <time>2021-05-01T07:42:52.734Z</time>
      </trkpt>
      <trkpt lat="45.85122" lon="5.40667">
        <ele>210.649665</ele>
        <time>2021-05-01T07:43:11.293Z</time>
      </trkpt>
      <trkpt lat="45.85172" lon="5.40628">
        <ele>209.586883</ele>
        <time>2021-05-01T07:43:23.420Z</time>
      </trkpt>
      <trkpt lat="45.85253" lon="5.40548">
        <ele>206.781402</ele>
        <time>2021-05-01T07:43:42.215Z</time>
      </trkpt>
      <trkpt lat="45.85254" lon="5.40538">
        <ele>206.543504</ele>
        <time>2021-05-01T07:43:43.554Z</time>
      </trkpt>
      <trkpt lat="45.85256" lon="5.40535">
        <ele>206.450742</ele>
        <time>2021-05-01T07:43:44.154Z</time>
      </trkpt>
      <trkpt lat="45.85267" lon="5.40526">
        <ele>206.005068</ele>
        <time>2021-05-01T07:43:46.654Z</time>
      </trkpt>
      <trkpt lat="45.85273" lon="5.40525">
        <ele>205.80428</ele>
        <time>2021-05-01T07:43:47.774Z</time>
      </trkpt>
      <trkpt lat="45.85281" lon="5.40526">
        <ele>205.554717</ele>
        <time>2021-05-01T07:43:49.177Z</time>
      </trkpt>
      <trkpt lat="45.85285" lon="5.40524">
        <ele>205.405569</ele>
        <time>2021-05-01T07:43:50.011Z</time>
      </trkpt>
      <trkpt lat="45.85292" lon="5.40535">
        <ele>205.051909</ele>
        <time>2021-05-01T07:43:52.017Z</time>
      </trkpt>
      <trkpt lat="45.85307" lon="5.40557">
        <ele>204.346969</ele>
        <time>2021-05-01T07:43:56.048Z</time>
      </trkpt>
      <trkpt lat="45.85335" lon="5.40624">
        <ele>202.814971</ele>
        <time>2021-05-01T07:44:06.699Z</time>
      </trkpt>
      <trkpt lat="45.85359" lon="5.40681">
        <ele>202.332484</ele>
        <time>2021-05-01T07:44:16.260Z</time>
      </trkpt>
      <trkpt lat="45.85367" lon="5.40698">
        <ele>202.186838</ele>
        <time>2021-05-01T07:44:19.153Z</time>
      </trkpt>
      <trkpt lat="45.85381" lon="5.40726">
        <ele>201.932269</ele>
        <time>2021-05-01T07:44:24.862Z</time>
      </trkpt>
      <trkpt lat="45.85392" lon="5.40744">
        <ele>201.763106</ele>
        <time>2021-05-01T07:44:28.886Z</time>
      </trkpt>
      <trkpt lat="45.85436" lon="5.40842">
        <ele>201.126141</ele>
        <time>2021-05-01T07:44:53.490Z</time>
      </trkpt>
      <trkpt lat="45.85448" lon="5.40867">
        <ele>201.18269</ele>
        <time>2021-05-01T07:44:59.520Z</time>
      </trkpt>
      <trkpt lat="45.85462" lon="5.40899">
        <ele>201.255557</ele>
        <time>2021-05-01T07:45:07.715Z</time>
      </trkpt>
      <trkpt lat="45.85469" lon="5.40915">
        <ele>201.291208</ele>
        <time>2021-05-01T07:45:11.718Z</time>
      </trkpt>
      <trkpt lat="45.85472" lon="5.40922">
        <ele>201.307462</ele>
        <time>2021-05-01T07:45:13.605Z</time>
      </trkpt>
      <trkpt lat="45.85483" lon="5.40907">
        <ele>201.349584</ele>
        <time>2021-05-01T07:45:18.189Z</time>
      </trkpt>
      <trkpt lat="45.85502" lon="5.40883">
        <ele>201.417893</ele>
        <time>2021-05-01T07:45:25.376Z</time>
      </trkpt>
      <trkpt lat="45.85504" lon="5.4088">
        <ele>201.426384</ele>
        <time>2021-05-01T07:45:26.279Z</time>
      </trkpt>
      <trkpt lat="45.85477" lon="5.40837">
        <ele>201.536549</ele>
        <time>2021-05-01T07:45:37.032Z</time>
      </trkpt>
      <trkpt lat="45.85532" lon="5.40778">
        <ele>201.249932</ele>
        <time>2021-05-01T07:45:53.568Z</time>
      </trkpt>
      <trkpt lat="45.85575" lon="5.40719">
        <ele>200.900346</ele>
        <time>2021-05-01T07:46:06.991Z</time>
      </trkpt>
      <trkpt lat="45.85579" lon="5.40713">
        <ele>200.861562</ele>
        <time>2021-05-01T07:46:08.459Z</time>
      </trkpt>
      <trkpt lat="45.85763" lon="5.40453">
        <ele>200.401663</ele>
        <time>2021-05-01T07:47:16.917Z</time>
      </trkpt>
      <trkpt lat="45.85974" lon="5.40143">
        <ele>200.218532</ele>
        <time>2021-05-01T07:48:37.132Z</time>
      </trkpt>
      <trkpt lat="45.86017" lon="5.40064">
        <ele>200.139875</ele>
        <time>2021-05-01T07:48:54.975Z</time>
      </trkpt>
      <trkpt lat="45.86088" lon="5.39895">
        <ele>199.942542</ele>
        <time>2021-05-01T07:49:30.635Z</time>
      </trkpt>
      <trkpt lat="45.86089" lon="5.39892">
        <ele>199.938522</ele>
        <time>2021-05-01T07:49:31.284Z</time>
      </trkpt>
      <trkpt lat="45.86101" lon="5.39863">
        <ele>199.928248</ele>
        <time>2021-05-01T07:49:37.556Z</time>
      </trkpt>
      <trkpt lat="45.86203" lon="5.39619">
        <ele>199.808562</ele>
        <time>2021-05-01T07:50:31.056Z</time>
      </trkpt>
      <trkpt lat="45.8622" lon="5.39593">
        <ele>199.691793</ele>
        <time>2021-05-01T07:50:37.929Z</time>
      </trkpt>
      <trkpt lat="45.8622" lon="5.39579">
        <ele>199.644354</ele>
        <time>2021-05-01T07:50:40.131Z</time>
      </trkpt>
      <trkpt lat="45.86224" lon="5.39559">
        <ele>199.577617</ele>
        <time>2021-05-01T07:50:43.896Z</time>
      </trkpt>
      <trkpt lat="45.86272" lon="5.39442">
        <ele>199.132379</ele>
        <time>2021-05-01T07:51:06.545Z</time>
      </trkpt>
      <trkpt lat="45.863" lon="5.3935">
        <ele>198.657553</ele>
        <time>2021-05-01T07:51:23.026Z</time>
      </trkpt>
      <trkpt lat="45.86373" lon="5.39192">
        <ele>197.848795</ele>
        <time>2021-05-01T07:51:55.036Z</time>
      </trkpt>
      <trkpt lat="45.86389" lon="5.39155">
        <ele>197.803072</ele>
        <time>2021-05-01T07:52:02.938Z</time>
      </trkpt>
      <trkpt lat="45.86393" lon="5.39146">
        <ele>197.792007</ele>
        <time>2021-05-01T07:52:04.827Z</time>
      </trkpt>
      <trkpt lat="45.86422" lon="5.3909">
        <ele>197.72041</ele>
        <time>2021-05-01T07:52:17.403Z</time>
      </trkpt>
      <trkpt lat="45.86484" lon="5.39008">
        <ele>197.615325</ele>
        <time>2021-05-01T07:52:39.935Z</time>
      </trkpt>
      <trkpt lat="45.86501" lon="5.38976">
        <ele>197.639907</ele>
        <time>2021-05-01T07:52:47.607Z</time>
      </trkpt>
      <trkpt lat="45.86538" lon="5.38844">
        <ele>197.726337</ele>
        <time>2021-05-01T07:53:14.752Z</time>
      </trkpt>
      <trkpt lat="45.86584" lon="5.38747">
        <ele>197.829123</ele>
        <time>2021-05-01T07:53:37.046Z</time>
      </trkpt>
      <trkpt lat="45.86601" lon="5.38696">
        <ele>197.897503</ele>
        <time>2021-05-01T07:53:48.004Z</time>
      </trkpt>
      <trkpt lat="45.8662" lon="5.38602">
        <ele>198.013888</ele>
        <time>2021-05-01T07:54:06.702Z</time>
      </trkpt>
      <trkpt lat="45.86639" lon="5.38554">
        <ele>198.077711</ele>
        <time>2021-05-01T07:54:17.282Z</time>
      </trkpt>
      <trkpt lat="45.86693" lon="5.3848">
        <ele>198.161124</ele>
        <time>2021-05-01T07:54:37.763Z</time>
      </trkpt>
      <trkpt lat="45.86797" lon="5.38415">
        <ele>198.275361</ele>
        <time>2021-05-01T07:55:08.477Z</time>
      </trkpt>
      <trkpt lat="45.86865" lon="5.38359">
        <ele>198.281029</ele>
        <time>2021-05-01T07:55:29.222Z</time>
      </trkpt>
      <trkpt lat="45.86885" lon="5.3833">
        <ele>198.283176</ele>
        <time>2021-05-01T07:55:37.060Z</time>
      </trkpt>
      <trkpt lat="45.86913" lon="5.38274">
        <ele>198.286673</ele>
        <time>2021-05-01T07:55:49.882Z</time>
      </trkpt>
      <trkpt lat="45.86924" lon="5.38254">
        <ele>198.281775</ele>
        <time>2021-05-01T07:55:54.437Z</time>
      </trkpt>
      <trkpt lat="45.8694" lon="5.38214">
        <ele>198.240369</ele>
        <time>2021-05-01T07:56:03.177Z</time>
      </trkpt>
      <trkpt lat="45.87029" lon="5.37977">
        <ele>197.898908</ele>
        <time>2021-05-01T07:56:52.086Z</time>
      </trkpt>
      <trkpt lat="45.8705" lon="5.37903">
        <ele>197.696881</ele>
        <time>2021-05-01T07:57:05.994Z</time>
      </trkpt>
      <trkpt lat="45.87078" lon="5.37857">
        <ele>197.539692</ele>
        <time>2021-05-01T07:57:16.755Z</time>
      </trkpt>
      <trkpt lat="45.87085" lon="5.37847">
        <ele>197.506824</ele>
        <time>2021-05-01T07:57:18.912Z</time>
      </trkpt>
      <trkpt lat="45.87089" lon="5.37841">
        <ele>197.484709</ele>
        <time>2021-05-01T07:57:20.341Z</time>
      </trkpt>
      <trkpt lat="45.87217" lon="5.37635">
        <ele>196.744651</ele>
        <time>2021-05-01T07:58:08.258Z</time>
      </trkpt>
      <trkpt lat="45.87245" lon="5.37612">
        <ele>196.736909</ele>
        <time>2021-05-01T07:58:16.717Z</time>
      </trkpt>
      <trkpt lat="45.87398" lon="5.37417">
        <ele>197.139839</ele>
        <time>2021-05-01T07:59:13.238Z</time>
      </trkpt>
      <trkpt lat="45.8753" lon="5.37211">
        <ele>197.85372</ele>
        <time>2021-05-01T08:00:10.592Z</time>
      </trkpt>
      <trkpt lat="45.87615" lon="5.37109">
        <ele>198.061567</ele>
        <time>2021-05-01T08:00:40.446Z</time>
      </trkpt>
      <trkpt lat="45.87631" lon="5.37087">
        <ele>197.994216</ele>
        <time>2021-05-01T08:00:46.112Z</time>
      </trkpt>
      <trkpt lat="45.87642" lon="5.37061">
        <ele>197.888048</ele>
        <time>2021-05-01T08:00:51.520Z</time>
      </trkpt>
      <trkpt lat="45.8766" lon="5.37018">
        <ele>197.713772</ele>
        <time>2021-05-01T08:01:00.178Z</time>
      </trkpt>
      <trkpt lat="45.87692" lon="5.36875">
        <ele>197.187415</ele>
        <time>2021-05-01T08:01:25.474Z</time>
      </trkpt>
      <trkpt lat="45.87747" lon="5.3673">
        <ele>196.500193</ele>
        <time>2021-05-01T08:01:53.078Z</time>
      </trkpt>
      <trkpt lat="45.87793" lon="5.36645">
        <ele>196.074528</ele>
        <time>2021-05-01T08:02:11.741Z</time>
      </trkpt>
      <trkpt lat="45.8781" lon="5.36618">
        <ele>196.024834</ele>
        <time>2021-05-01T08:02:17.996Z</time>
      </trkpt>
      <trkpt lat="45.87923" lon="5.36488">
        <ele>195.735228</ele>
        <time>2021-05-01T08:02:55.760Z</time>
      </trkpt>
      <trkpt lat="45.87961" lon="5.36435">
        <ele>195.706824</ele>
        <time>2021-05-01T08:03:10.046Z</time>
      </trkpt>
      <trkpt lat="45.88041" lon="5.36303">
        <ele>195.653103</ele>
        <time>2021-05-01T08:03:42.350Z</time>
      </trkpt>
      <trkpt lat="45.88066" lon="5.36248">
        <ele>195.600117</ele>
        <time>2021-05-01T08:03:54.328Z</time>
      </trkpt>
      <trkpt lat="45.88105" lon="5.36135">
        <ele>195.485534</ele>
        <time>2021-05-01T08:04:17.135Z</time>
      </trkpt>
      <trkpt lat="45.88134" lon="5.36039">
        <ele>195.402637</ele>
        <time>2021-05-01T08:04:36.198Z</time>
      </trkpt>
      <trkpt lat="45.88151" lon="5.35996">
        <ele>195.381543</ele>
        <time>2021-05-01T08:04:45.370Z</time>
      </trkpt>
      <trkpt lat="45.88177" lon="5.35938">
        <ele>195.352738</ele>
        <time>2021-05-01T08:04:57.984Z</time>
      </trkpt>
      <trkpt lat="45.88186" lon="5.35913">
        <ele>195.341336</ele>
        <time>2021-05-01T08:05:02.945Z</time>
      </trkpt>
      <trkpt lat="45.88195" lon="5.35871">
        <ele>195.322936</ele>
        <time>2021-05-01T08:05:11.152Z</time>
      </trkpt>
      <trkpt lat="45.8823" lon="5.35769">
        <ele>195.348482</ele>
        <time>2021-05-01T08:05:32.633Z</time>
      </trkpt>
      <trkpt lat="45.88336" lon="5.35601">
        <ele>195.497411</ele>
        <time>2021-05-01T08:06:15.723Z</time>
      </trkpt>
      <trkpt lat="45.88438" lon="5.35502">
        <ele>195.663058</ele>
        <time>2021-05-01T08:06:48.950Z</time>
      </trkpt>
      <trkpt lat="45.88468" lon="5.35455">
        <ele>195.744015</ele>
        <time>2021-05-01T08:07:01.439Z</time>
      </trkpt>
      <trkpt lat="45.88507" lon="5.35417">
        <ele>195.871405</ele>
        <time>2021-05-01T08:07:14.938Z</time>
      </trkpt>
      <trkpt lat="45.88527" lon="5.35382">
        <ele>195.95536</ele>
        <time>2021-05-01T08:07:23.348Z</time>
      </trkpt>
      <trkpt lat="45.88535" lon="5.35368">
        <ele>195.991671</ele>
        <time>2021-05-01T08:07:27.072Z</time>
      </trkpt>
      <trkpt lat="45.88553" lon="5.35321">
        <ele>196.091622</ele>
        <time>2021-05-01T08:07:37.052Z</time>
      </trkpt>
      <trkpt lat="45.88566" lon="5.35283">
        <ele>196.171996</ele>
        <time>2021-05-01T08:07:45.790Z</time>
      </trkpt>
      <trkpt lat="45.88581" lon="5.3527">
        <ele>196.34191</ele>
        <time>2021-05-01T08:07:50.974Z</time>
      </trkpt>
      <trkpt lat="45.8857" lon="5.35231">
        <ele>196.744554</ele>
        <time>2021-05-01T08:08:00.132Z</time>
      </trkpt>
      <trkpt lat="45.88543" lon="5.35137">
        <ele>197.712656</ele>
        <time>2021-05-01T08:08:23.832Z</time>
      </trkpt>
      <trkpt lat="45.88542" lon="5.35131">
        <ele>197.776016</ele>
        <time>2021-05-01T08:08:25.344Z</time>
      </trkpt>
      <trkpt lat="45.88531" lon="5.35094">
        <ele>198.157429</ele>
        <time>2021-05-01T08:08:35.047Z</time>
      </trkpt>
      <trkpt lat="45.8852" lon="5.35052">
        <ele>198.591924</ele>
        <time>2021-05-01T08:08:46.124Z</time>
      </trkpt>
      <trkpt lat="45.88512" lon="5.35005">
        <ele>199.185345</ele>
        <time>2021-05-01T08:08:58.622Z</time>
      </trkpt>
      <trkpt lat="45.88506" lon="5.34908">
        <ele>200.436895</ele>
        <time>2021-05-01T08:09:24.107Z</time>
      </trkpt>
      <trkpt lat="45.88501" lon="5.34781">
        <ele>201.983887</ele>
        <time>2021-05-01T08:09:55.404Z</time>
      </trkpt>
      <trkpt lat="45.885" lon="5.34758">
        <ele>201.964643</ele>
        <time>2021-05-01T08:10:00.299Z</time>
      </trkpt>
      <trkpt lat="45.88503" lon="5.34757">
        <ele>201.961405</ele>
        <time>2021-05-01T08:10:01.184Z</time>
      </trkpt>
      <trkpt lat="45.88524" lon="5.34739">
        <ele>201.933006</ele>
        <time>2021-05-01T08:10:09.068Z</time>
      </trkpt>
      <trkpt lat="45.88525" lon="5.34736">
        <ele>201.929775</ele>
        <time>2021-05-01T08:10:09.695Z</time>
      </trkpt>
      <trkpt lat="45.88527" lon="5.34733">
        <ele>201.926786</ele>
        <time>2021-05-01T08:10:10.262Z</time>
      </trkpt>
      <trkpt lat="45.88527" lon="5.34697">
        <ele>201.898205</ele>
        <time>2021-05-01T08:10:17.870Z</time>
      </trkpt>
      <trkpt lat="45.88526" lon="5.34694">
        <ele>201.895268</ele>
        <time>2021-05-01T08:10:18.414Z</time>
      </trkpt>
      <trkpt lat="45.88525" lon="5.3469">
        <ele>201.892293</ele>
        <time>2021-05-01T08:10:19.195Z</time>
      </trkpt>
      <trkpt lat="45.88506" lon="5.34672">
        <ele>201.866207</ele>
        <time>2021-05-01T08:10:25.154Z</time>
      </trkpt>
      <trkpt lat="45.88484" lon="5.34677">
        <ele>201.840078</ele>
        <time>2021-05-01T08:10:30.118Z</time>
      </trkpt>
      <trkpt lat="45.88482" lon="5.34679">
        <ele>201.837127</ele>
        <time>2021-05-01T08:10:30.714Z</time>
      </trkpt>
      <trkpt lat="45.88479" lon="5.34681">
        <ele>201.834082</ele>
        <time>2021-05-01T08:10:31.823Z</time>
      </trkpt>
      <trkpt lat="45.88471" lon="5.347">
        <ele>201.815831</ele>
        <time>2021-05-01T08:10:35.350Z</time>
      </trkpt>
      <trkpt lat="45.8847" lon="5.34726">
        <ele>201.79463</ele>
        <time>2021-05-01T08:10:39.171Z</time>
      </trkpt>
      <trkpt lat="45.88471" lon="5.3473">
        <ele>201.79156</ele>
        <time>2021-05-01T08:10:40.237Z</time>
      </trkpt>
      <trkpt lat="45.88441" lon="5.34743">
        <ele>201.529755</ele>
        <time>2021-05-01T08:10:46.855Z</time>
      </trkpt>
      <trkpt lat="45.88398" lon="5.34751">
        <ele>201.040799</ele>
        <time>2021-05-01T08:10:57.352Z</time>
      </trkpt>
      <trkpt lat="45.88342" lon="5.34753">
        <ele>200.415231</ele>
        <time>2021-05-01T08:11:10.148Z</time>
      </trkpt>
      <trkpt lat="45.88258" lon="5.34755">
        <ele>199.601334</ele>
        <time>2021-05-01T08:11:29.157Z</time>
      </trkpt>
      <trkpt lat="45.88194" lon="5.34757">
        <ele>199.172481</ele>
        <time>2021-05-01T08:11:44.822Z</time>
      </trkpt>
      <trkpt lat="45.88189" lon="5.34752">
        <ele>199.135601</ele>
        <time>2021-05-01T08:11:46.183Z</time>
      </trkpt>
      <trkpt lat="45.87909" lon="5.34753">
        <ele>197.752212</ele>
        <time>2021-05-01T08:12:55.293Z</time>
      </trkpt>
      <trkpt lat="45.87912" lon="5.34759">
        <ele>197.749499</ele>
        <time>2021-05-01T08:12:56.598Z</time>
      </trkpt>
      <trkpt lat="45.87915" lon="5.34768">
        <ele>197.746083</ele>
        <time>2021-05-01T08:12:58.231Z</time>
      </trkpt>
      <trkpt lat="45.87917" lon="5.34776">
        <ele>197.742713</ele>
        <time>2021-05-01T08:12:59.833Z</time>
      </trkpt>
      <trkpt lat="45.87921" lon="5.3478">
        <ele>197.740421</ele>
        <time>2021-05-01T08:13:01.035Z</time>
      </trkpt>
      <trkpt lat="45.88128" lon="5.34785">
        <ele>197.690798</ele>
        <time>2021-05-01T08:13:57.086Z</time>
      </trkpt>
      <trkpt lat="45.8816" lon="5.34793">
        <ele>197.702346</ele>
        <time>2021-05-01T08:14:05.639Z</time>
      </trkpt>
      <trkpt lat="45.88192" lon="5.34835">
        <ele>197.718092</ele>
        <time>2021-05-01T08:14:17.425Z</time>
      </trkpt>
      <trkpt lat="45.88199" lon="5.34866">
        <ele>197.726079</ele>
        <time>2021-05-01T08:14:23.533Z</time>
      </trkpt>
      <trkpt lat="45.88186" lon="5.34963">
        <ele>197.727265</ele>
        <time>2021-05-01T08:14:42.087Z</time>
      </trkpt>
      <trkpt lat="45.88182" lon="5.34982">
        <ele>197.726283</ele>
        <time>2021-05-01T08:14:45.483Z</time>
      </trkpt>
      <trkpt lat="45.88186" lon="5.34963">
        <ele>197.725301</ele>
        <time>2021-05-01T08:14:49.155Z</time>
      </trkpt>
      <trkpt lat="45.88199" lon="5.34866">
        <ele>197.720186</ele>
        <time>2021-05-01T08:15:07.487Z</time>
      </trkpt>
      <trkpt lat="45.88192" lon="5.34835">
        <ele>197.71852</ele>
        <time>2021-05-01T08:15:13.379Z</time>
      </trkpt>
      <trkpt lat="45.8816" lon="5.34793">
        <ele>197.779459</ele>
        <time>2021-05-01T08:15:25.261Z</time>
      </trkpt>
      <trkpt lat="45.88128" lon="5.34785">
        <ele>197.834332</ele>
        <time>2021-05-01T08:15:34.013Z</time>
      </trkpt>
      <trkpt lat="45.87921" lon="5.3478">
        <ele>198.870788</ele>
        <time>2021-05-01T08:16:31.673Z</time>
      </trkpt>
      <trkpt lat="45.87917" lon="5.34776">
        <ele>198.909853</ele>
        <time>2021-05-01T08:16:32.999Z</time>
      </trkpt>
      <trkpt lat="45.87915" lon="5.34768">
        <ele>198.967299</ele>
        <time>2021-05-01T08:16:35.176Z</time>
      </trkpt>
      <trkpt lat="45.87912" lon="5.34759">
        <ele>199.025533</ele>
        <time>2021-05-01T08:16:37.290Z</time>
      </trkpt>
      <trkpt lat="45.87909" lon="5.34753">
        <ele>199.071774</ele>
        <time>2021-05-01T08:16:38.944Z</time>
      </trkpt>
      <trkpt lat="45.87883" lon="5.34752">
        <ele>199.303039</ele>
        <time>2021-05-01T08:16:47.660Z</time>
      </trkpt>
      <trkpt lat="45.87825" lon="5.34744">
        <ele>200.046994</ele>
        <time>2021-05-01T08:17:07.779Z</time>
      </trkpt>
      <trkpt lat="45.87754" lon="5.34722">
        <ele>201.447514</ele>
        <time>2021-05-01T08:17:35.641Z</time>
      </trkpt>
      <trkpt lat="45.87625" lon="5.34633">
        <ele>203.723119</ele>
        <time>2021-05-01T08:18:25.884Z</time>
      </trkpt>
      <trkpt lat="45.87349" lon="5.34438">
        <ele>206.852448</ele>
        <time>2021-05-01T08:20:00.116Z</time>
      </trkpt>
      <trkpt lat="45.87172" lon="5.34314">
        <ele>209.311383</ele>
        <time>2021-05-01T08:21:07.167Z</time>
      </trkpt>
      <trkpt lat="45.87133" lon="5.34302">
        <ele>209.499834</ele>
        <time>2021-05-01T08:21:19.262Z</time>
      </trkpt>
      <trkpt lat="45.87119" lon="5.34295">
        <ele>209.572832</ele>
        <time>2021-05-01T08:21:24.287Z</time>
      </trkpt>
      <trkpt lat="45.87097" lon="5.34259">
        <ele>209.733528</ele>
        <time>2021-05-01T08:21:33.853Z</time>
      </trkpt>
      <trkpt lat="45.87049" lon="5.34201">
        <ele>210.036294</ele>
        <time>2021-05-01T08:21:50.588Z</time>
      </trkpt>
      <trkpt lat="45.87045" lon="5.34196">
        <ele>210.060014</ele>
        <time>2021-05-01T08:21:51.914Z</time>
      </trkpt>
      <trkpt lat="45.86923" lon="5.34023">
        <ele>208.454977</ele>
        <time>2021-05-01T08:22:31.513Z</time>
      </trkpt>
      <trkpt lat="45.86857" lon="5.33911">
        <ele>207.330962</ele>
        <time>2021-05-01T08:22:54.549Z</time>
      </trkpt>
      <trkpt lat="45.86814" lon="5.33845">
        <ele>206.61774</ele>
        <time>2021-05-01T08:23:08.964Z</time>
      </trkpt>
      <trkpt lat="45.86758" lon="5.33797">
        <ele>206.240413</ele>
        <time>2021-05-01T08:23:24.123Z</time>
      </trkpt>
      <trkpt lat="45.86716" lon="5.33777">
        <ele>206.11451</ele>
        <time>2021-05-01T08:23:35.075Z</time>
      </trkpt>
      <trkpt lat="45.8671" lon="5.3377">
        <ele>206.092178</ele>
        <time>2021-05-01T08:23:36.947Z</time>
      </trkpt>
      <trkpt lat="45.86702" lon="5.33769">
        <ele>206.070293</ele>
        <time>2021-05-01T08:23:38.888Z</time>
      </trkpt>
      <trkpt lat="45.86529" lon="5.33667">
        <ele>206.62525</ele>
        <time>2021-05-01T08:24:31.700Z</time>
      </trkpt>
      <trkpt lat="45.86398" lon="5.33633">
        <ele>208.144066</ele>
        <time>2021-05-01T08:25:15.690Z</time>
      </trkpt>
      <trkpt lat="45.86328" lon="5.33612">
        <ele>209.300394</ele>
        <time>2021-05-01T08:25:41.339Z</time>
      </trkpt>
      <trkpt lat="45.86278" lon="5.33592">
        <ele>210.083796</ele>
        <time>2021-05-01T08:26:01.450Z</time>
      </trkpt>
      <trkpt lat="45.86238" lon="5.3358">
        <ele>210.319245</ele>
        <time>2021-05-01T08:26:16.148Z</time>
      </trkpt>
      <trkpt lat="45.86152" lon="5.33564">
        <ele>210.824173</ele>
        <time>2021-05-01T08:26:44.350Z</time>
      </trkpt>
      <trkpt lat="45.86104" lon="5.33555">
        <ele>211.074479</ele>
        <time>2021-05-01T08:26:58.288Z</time>
      </trkpt>
      <trkpt lat="45.86042" lon="5.33536">
        <ele>210.445064</ele>
        <time>2021-05-01T08:27:12.957Z</time>
      </trkpt>
      <trkpt lat="45.85969" lon="5.33495">
        <ele>209.65787</ele>
        <time>2021-05-01T08:27:30.440Z</time>
      </trkpt>
      <trkpt lat="45.85846" lon="5.33404">
        <ele>208.707666</ele>
        <time>2021-05-01T08:28:02.895Z</time>
      </trkpt>
      <trkpt lat="45.85753" lon="5.3335">
        <ele>208.295775</ele>
        <time>2021-05-01T08:28:28.928Z</time>
      </trkpt>
      <trkpt lat="45.85694" lon="5.33319">
        <ele>208.400181</ele>
        <time>2021-05-01T08:28:46.309Z</time>
      </trkpt>
      <trkpt lat="45.85596" lon="5.33267">
        <ele>208.577883</ele>
        <time>2021-05-01T08:29:15.528Z</time>
      </trkpt>
      <trkpt lat="45.85587" lon="5.33272">
        <ele>208.597259</ele>
        <time>2021-05-01T08:29:18.116Z</time>
      </trkpt>
      <trkpt lat="45.85573" lon="5.33272">
        <ele>208.627807</ele>
        <time>2021-05-01T08:29:22.258Z</time>
      </trkpt>
      <trkpt lat="45.85572" lon="5.33266">
        <ele>208.636863</ele>
        <time>2021-05-01T08:29:23.436Z</time>
      </trkpt>
      <trkpt lat="45.85559" lon="5.3326">
        <ele>208.666226</ele>
        <time>2021-05-01T08:29:27.410Z</time>
      </trkpt>
      <trkpt lat="45.85518" lon="5.33251">
        <ele>208.757018</ele>
        <time>2021-05-01T08:29:39.532Z</time>
      </trkpt>
      <trkpt lat="45.85464" lon="5.3324">
        <ele>208.875331</ele>
        <time>2021-05-01T08:29:55.275Z</time>
      </trkpt>
      <trkpt lat="45.85412" lon="5.3321">
        <ele>208.902923</ele>
        <time>2021-05-01T08:30:10.988Z</time>
      </trkpt>
      <trkpt lat="45.8535" lon="5.3319">
        <ele>208.782526</ele>
        <time>2021-05-01T08:30:28.188Z</time>
      </trkpt>
      <trkpt lat="45.8533" lon="5.3319">
        <ele>208.745028</ele>
        <time>2021-05-01T08:30:33.652Z</time>
      </trkpt>
      <trkpt lat="45.85323" lon="5.33199">
        <ele>208.726823</ele>
        <time>2021-05-01T08:30:36.285Z</time>
      </trkpt>
      <trkpt lat="45.85321" lon="5.33192">
        <ele>208.716762</ele>
        <time>2021-05-01T08:30:37.503Z</time>
      </trkpt>
      <trkpt lat="45.85267" lon="5.33173">
        <ele>208.611731</ele>
        <time>2021-05-01T08:30:51.644Z</time>
      </trkpt>
      <trkpt lat="45.85215" lon="5.33152">
        <ele>208.292356</ele>
        <time>2021-05-01T08:31:04.865Z</time>
      </trkpt>
      <trkpt lat="45.8519" lon="5.33143">
        <ele>208.131541</ele>
        <time>2021-05-01T08:31:11.211Z</time>
      </trkpt>
      <trkpt lat="45.8515" lon="5.331">
        <ele>207.821972</ele>
        <time>2021-05-01T08:31:23.168Z</time>
      </trkpt>
      <trkpt lat="45.85148" lon="5.33075">
        <ele>207.713147</ele>
        <time>2021-05-01T08:31:27.335Z</time>
      </trkpt>
      <trkpt lat="45.85172" lon="5.32922">
        <ele>207.077134</ele>
        <time>2021-05-01T08:31:53.599Z</time>
      </trkpt>
      <trkpt lat="45.85182" lon="5.3282">
        <ele>206.671475</ele>
        <time>2021-05-01T08:32:11.139Z</time>
      </trkpt>
      <trkpt lat="45.85178" lon="5.32778">
        <ele>206.501235</ele>
        <time>2021-05-01T08:32:18.641Z</time>
      </trkpt>
      <trkpt lat="45.85168" lon="5.32734">
        <ele>206.429501</ele>
        <time>2021-05-01T08:32:26.811Z</time>
      </trkpt>
      <trkpt lat="45.85036" lon="5.32383">
        <ele>205.893857</ele>
        <time>2021-05-01T08:33:40.183Z</time>
      </trkpt>
      <trkpt lat="45.85008" lon="5.32322">
        <ele>205.773665</ele>
        <time>2021-05-01T08:33:52.740Z</time>
      </trkpt>
      <trkpt lat="45.85003" lon="5.32291">
        <ele>205.592421</ele>
        <time>2021-05-01T08:33:58.078Z</time>
      </trkpt>
      <trkpt lat="45.85006" lon="5.32268">
        <ele>205.440794</ele>
        <time>2021-05-01T08:34:01.890Z</time>
      </trkpt>
      <trkpt lat="45.85024" lon="5.32176">
        <ele>204.811752</ele>
        <time>2021-05-01T08:34:17.559Z</time>
      </trkpt>
      <trkpt lat="45.85027" lon="5.32162">
        <ele>204.714587</ele>
        <time>2021-05-01T08:34:19.772Z</time>
      </trkpt>
      <trkpt lat="45.85041" lon="5.32082">
        <ele>204.166713</ele>
        <time>2021-05-01T08:34:33.091Z</time>
      </trkpt>
      <trkpt lat="45.85068" lon="5.31645">
        <ele>200.946674</ele>
        <time>2021-05-01T08:35:42.809Z</time>
      </trkpt>
      <trkpt lat="45.85066" lon="5.31608">
        <ele>200.70923</ele>
        <time>2021-05-01T08:35:48.934Z</time>
      </trkpt>
      <trkpt lat="45.85061" lon="5.31578">
        <ele>200.504412</ele>
        <time>2021-05-01T08:35:54.255Z</time>
      </trkpt>
      <trkpt lat="45.85022" lon="5.31526">
        <ele>200.337048</ele>
        <time>2021-05-01T08:36:07.586Z</time>
      </trkpt>
      <trkpt lat="45.85008" lon="5.31508">
        <ele>200.336354</ele>
        <time>2021-05-01T08:36:12.356Z</time>
      </trkpt>
      <trkpt lat="45.84959" lon="5.31454">
        <ele>200.334075</ele>
        <time>2021-05-01T08:36:28.807Z</time>
      </trkpt>
      <trkpt lat="45.84887" lon="5.31389">
        <ele>200.384977</ele>
        <time>2021-05-01T08:36:53.391Z</time>
      </trkpt>
      <trkpt lat="45.84843" lon="5.31335">
        <ele>200.529898</ele>
        <time>2021-05-01T08:37:09.517Z</time>
      </trkpt>
      <trkpt lat="45.8479" lon="5.31289">
        <ele>200.686622</ele>
        <time>2021-05-01T08:37:26.983Z</time>
      </trkpt>
      <trkpt lat="45.84775" lon="5.31274">
        <ele>200.733178</ele>
        <time>2021-05-01T08:37:31.920Z</time>
      </trkpt>
      <trkpt lat="45.84754" lon="5.31251">
        <ele>200.791771</ele>
        <time>2021-05-01T08:37:39.077Z</time>
      </trkpt>
      <trkpt lat="45.84723" lon="5.31211">
        <ele>200.844513</ele>
        <time>2021-05-01T08:37:50.399Z</time>
      </trkpt>
      <trkpt lat="45.84562" lon="5.31063">
        <ele>201.095538</ele>
        <time>2021-05-01T08:38:42.577Z</time>
      </trkpt>
      <trkpt lat="45.8454" lon="5.31032">
        <ele>201.139237</ele>
        <time>2021-05-01T08:38:51.218Z</time>
      </trkpt>
      <trkpt lat="45.84485" lon="5.30975">
        <ele>201.235398</ele>
        <time>2021-05-01T08:39:09.823Z</time>
      </trkpt>
      <trkpt lat="45.84466" lon="5.30955">
        <ele>201.264638</ele>
        <time>2021-05-01T08:39:16.159Z</time>
      </trkpt>
      <trkpt lat="45.84443" lon="5.30933">
        <ele>201.204832</ele>
        <time>2021-05-01T08:39:23.581Z</time>
      </trkpt>
      <trkpt lat="45.84436" lon="5.30926">
        <ele>201.185073</ele>
        <time>2021-05-01T08:39:25.987Z</time>
      </trkpt>
      <trkpt lat="45.8443" lon="5.3092">
        <ele>201.169215</ele>
        <time>2021-05-01T08:39:27.918Z</time>
      </trkpt>
      <trkpt lat="45.84397" lon="5.30888">
        <ele>201.082656</ele>
        <time>2021-05-01T08:39:38.244Z</time>
      </trkpt>
      <trkpt lat="45.84341" lon="5.30808">
        <ele>200.909922</ele>
        <time>2021-05-01T08:39:58.121Z</time>
      </trkpt>
      <trkpt lat="45.84308" lon="5.30772">
        <ele>200.842513</ele>
        <time>2021-05-01T08:40:08.414Z</time>
      </trkpt>
      <trkpt lat="45.84295" lon="5.30763">
        <ele>200.823722</ele>
        <time>2021-05-01T08:40:12.074Z</time>
      </trkpt>
      <trkpt lat="45.8427" lon="5.30749">
        <ele>200.789172</ele>
        <time>2021-05-01T08:40:18.948Z</time>
      </trkpt>
      <trkpt lat="45.8422" lon="5.30722">
        <ele>200.720528</ele>
        <time>2021-05-01T08:40:32.769Z</time>
      </trkpt>
      <trkpt lat="45.84189" lon="5.30698">
        <ele>200.674298</ele>
        <time>2021-05-01T08:40:42.178Z</time>
      </trkpt>
      <trkpt lat="45.8411" lon="5.30611">
        <ele>200.992985</ele>
        <time>2021-05-01T08:41:09.819Z</time>
      </trkpt>
      <trkpt lat="45.84054" lon="5.30567">
        <ele>201.293324</ele>
        <time>2021-05-01T08:41:28.507Z</time>
      </trkpt>
      <trkpt lat="45.84048" lon="5.30563">
        <ele>201.326051</ele>
        <time>2021-05-01T08:41:30.617Z</time>
      </trkpt>
      <trkpt lat="45.83976" lon="5.30519">
        <ele>201.898699</ele>
        <time>2021-05-01T08:41:54.489Z</time>
      </trkpt>
      <trkpt lat="45.83879" lon="5.30464">
        <ele>202.876158</ele>
        <time>2021-05-01T08:42:27.664Z</time>
      </trkpt>
      <trkpt lat="45.83801" lon="5.30419">
        <ele>203.389127</ele>
        <time>2021-05-01T08:42:53.718Z</time>
      </trkpt>
      <trkpt lat="45.83731" lon="5.30379">
        <ele>203.69474</ele>
        <time>2021-05-01T08:43:15.939Z</time>
      </trkpt>
      <trkpt lat="45.83491" lon="5.30243">
        <ele>203.127226</ele>
        <time>2021-05-01T08:44:21.084Z</time>
      </trkpt>
      <trkpt lat="45.83477" lon="5.30234">
        <ele>203.005785</ele>
        <time>2021-05-01T08:44:24.853Z</time>
      </trkpt>
      <trkpt lat="45.83367" lon="5.30169">
        <ele>202.088159</ele>
        <time>2021-05-01T08:44:52.810Z</time>
      </trkpt>
      <trkpt lat="45.83281" lon="5.30123">
        <ele>201.590277</ele>
        <time>2021-05-01T08:45:14.303Z</time>
      </trkpt>
      <trkpt lat="45.83245" lon="5.30104">
        <ele>201.402222</ele>
        <time>2021-05-01T08:45:23.720Z</time>
      </trkpt>
      <trkpt lat="45.83237" lon="5.301">
        <ele>201.358982</ele>
        <time>2021-05-01T08:45:25.975Z</time>
      </trkpt>
      <trkpt lat="45.83092" lon="5.30043">
        <ele>201.235079</ele>
        <time>2021-05-01T08:46:05.531Z</time>
      </trkpt>
      <trkpt lat="45.83026" lon="5.30008">
        <ele>201.37176</ele>
        <time>2021-05-01T08:46:26.332Z</time>
      </trkpt>
      <trkpt lat="45.82999" lon="5.29993">
        <ele>201.403339</ele>
        <time>2021-05-01T08:46:34.616Z</time>
      </trkpt>
      <trkpt lat="45.82961" lon="5.2997">
        <ele>201.368426</ele>
        <time>2021-05-01T08:46:46.174Z</time>
      </trkpt>
      <trkpt lat="45.82906" lon="5.29939">
        <ele>201.318728</ele>
        <time>2021-05-01T08:47:01.944Z</time>
      </trkpt>
      <trkpt lat="45.82871" lon="5.2992">
        <ele>201.288089</ele>
        <time>2021-05-01T08:47:11.359Z</time>
      </trkpt>
      <trkpt lat="45.82846" lon="5.29905">
        <ele>201.265315</ele>
        <time>2021-05-01T08:47:18.138Z</time>
      </trkpt>
      <trkpt lat="45.82837" lon="5.299">
        <ele>201.227859</ele>
        <time>2021-05-01T08:47:20.490Z</time>
      </trkpt>
      <trkpt lat="45.82822" lon="5.29891">
        <ele>201.03876</ele>
        <time>2021-05-01T08:47:24.468Z</time>
      </trkpt>
      <trkpt lat="45.82779" lon="5.29867">
        <ele>200.506682</ele>
        <time>2021-05-01T08:47:35.270Z</time>
      </trkpt>
      <trkpt lat="45.82718" lon="5.29848">
        <ele>199.793255</ele>
        <time>2021-05-01T08:47:48.920Z</time>
      </trkpt>
      <trkpt lat="45.82678" lon="5.29823">
        <ele>199.290359</ele>
        <time>2021-05-01T08:47:58.563Z</time>
      </trkpt>
      <trkpt lat="45.82642" lon="5.29811">
        <ele>198.922854</ele>
        <time>2021-05-01T08:48:06.931Z</time>
      </trkpt>
      <trkpt lat="45.82608" lon="5.29797">
        <ele>198.587775</ele>
        <time>2021-05-01T08:48:15.089Z</time>
      </trkpt>
      <trkpt lat="45.82584" lon="5.29788">
        <ele>198.352987</ele>
        <time>2021-05-01T08:48:20.797Z</time>
      </trkpt>
      <trkpt lat="45.82548" lon="5.29775">
        <ele>198.006147</ele>
        <time>2021-05-01T08:48:29.392Z</time>
      </trkpt>
      <trkpt lat="45.82524" lon="5.29768">
        <ele>197.775702</ele>
        <time>2021-05-01T08:48:35.232Z</time>
      </trkpt>
      <trkpt lat="45.82499" lon="5.29769">
        <ele>197.542919</ele>
        <time>2021-05-01T08:48:41.181Z</time>
      </trkpt>
      <trkpt lat="45.8248" lon="5.29782">
        <ele>197.515599</ele>
        <time>2021-05-01T08:48:46.307Z</time>
      </trkpt>
      <trkpt lat="45.82452" lon="5.2982">
        <ele>197.552978</ele>
        <time>2021-05-01T08:48:56.298Z</time>
      </trkpt>
      <trkpt lat="45.82425" lon="5.2983">
        <ele>197.580218</ele>
        <time>2021-05-01T08:49:04.079Z</time>
      </trkpt>
      <trkpt lat="45.82397" lon="5.29829">
        <ele>197.606855</ele>
        <time>2021-05-01T08:49:11.733Z</time>
      </trkpt>
      <trkpt lat="45.82343" lon="5.29793">
        <ele>197.665049</ele>
        <time>2021-05-01T08:49:28.552Z</time>
      </trkpt>
      <trkpt lat="45.82231" lon="5.2969">
        <ele>198.891809</ele>
        <time>2021-05-01T08:50:08.415Z</time>
      </trkpt>
      <trkpt lat="45.82203" lon="5.29682">
        <ele>199.175211</ele>
        <time>2021-05-01T08:50:17.825Z</time>
      </trkpt>
      <trkpt lat="45.82179" lon="5.29689">
        <ele>199.418851</ele>
        <time>2021-05-01T08:50:26.214Z</time>
      </trkpt>
      <trkpt lat="45.82076" lon="5.29751">
        <ele>202.003665</ele>
        <time>2021-05-01T08:51:07.787Z</time>
      </trkpt>
      <trkpt lat="45.81947" lon="5.29779">
        <ele>205.318616</ele>
        <time>2021-05-01T08:52:00.659Z</time>
      </trkpt>
      <trkpt lat="45.81792" lon="5.29786">
        <ele>209.204326</ele>
        <time>2021-05-01T08:53:02.694Z</time>
      </trkpt>
      <trkpt lat="45.81776" lon="5.29784">
        <ele>209.445495</ele>
        <time>2021-05-01T08:53:08.847Z</time>
      </trkpt>
      <trkpt lat="45.81767" lon="5.29779">
        <ele>209.600027</ele>
        <time>2021-05-01T08:53:11.945Z</time>
      </trkpt>
      <trkpt lat="45.81688" lon="5.29706">
        <ele>211.053767</ele>
        <time>2021-05-01T08:53:43.043Z</time>
      </trkpt>
      <trkpt lat="45.81665" lon="5.29696">
        <ele>211.430998</ele>
        <time>2021-05-01T08:53:50.061Z</time>
      </trkpt>
      <trkpt lat="45.81629" lon="5.29695">
        <ele>211.485575</ele>
        <time>2021-05-01T08:54:00.511Z</time>
      </trkpt>
      <trkpt lat="45.81605" lon="5.29684">
        <ele>211.5058</ele>
        <time>2021-05-01T08:54:07.159Z</time>
      </trkpt>
      <trkpt lat="45.81562" lon="5.29632">
        <ele>211.551117</ele>
        <time>2021-05-01T08:54:22.129Z</time>
      </trkpt>
      <trkpt lat="45.81543" lon="5.29611">
        <ele>211.570131</ele>
        <time>2021-05-01T08:54:28.263Z</time>
      </trkpt>
      <trkpt lat="45.81531" lon="5.29597">
        <ele>211.582547</ele>
        <time>2021-05-01T08:54:32.335Z</time>
      </trkpt>
      <trkpt lat="45.81517" lon="5.29581">
        <ele>211.597289</ele>
        <time>2021-05-01T08:54:37.065Z</time>
      </trkpt>
      <trkpt lat="45.81462" lon="5.29534">
        <ele>211.56077</ele>
        <time>2021-05-01T08:54:53.619Z</time>
      </trkpt>
      <trkpt lat="45.8144" lon="5.29523">
        <ele>211.543729</ele>
        <time>2021-05-01T08:54:59.559Z</time>
      </trkpt>
      <trkpt lat="45.8143" lon="5.29523">
        <ele>211.536546</ele>
        <time>2021-05-01T08:55:02.036Z</time>
      </trkpt>
      <trkpt lat="45.81429" lon="5.2951">
        <ele>211.529739</ele>
        <time>2021-05-01T08:55:06.130Z</time>
      </trkpt>
      <trkpt lat="45.81416" lon="5.29491">
        <ele>211.516106</ele>
        <time>2021-05-01T08:55:14.317Z</time>
      </trkpt>
      <trkpt lat="45.81328" lon="5.29434">
        <ele>211.569755</ele>
        <time>2021-05-01T08:55:57.460Z</time>
      </trkpt>
      <trkpt lat="45.81312" lon="5.29426">
        <ele>211.618097</ele>
        <time>2021-05-01T08:56:05.000Z</time>
      </trkpt>
      <trkpt lat="45.81257" lon="5.2938">
        <ele>211.80323</ele>
        <time>2021-05-01T08:56:23.940Z</time>
      </trkpt>
      <trkpt lat="45.81112" lon="5.29292">
        <ele>212.190354</ele>
        <time>2021-05-01T08:57:11.017Z</time>
      </trkpt>
      <trkpt lat="45.80991" lon="5.29289">
        <ele>212.354646</ele>
        <time>2021-05-01T08:57:44.452Z</time>
      </trkpt>
      <trkpt lat="45.80964" lon="5.29329">
        <ele>212.327141</ele>
        <time>2021-05-01T08:57:54.951Z</time>
      </trkpt>
      <trkpt lat="45.80902" lon="5.294">
        <ele>212.271172</ele>
        <time>2021-05-01T08:58:16.370Z</time>
      </trkpt>
      <trkpt lat="45.80753" lon="5.29204">
        <ele>212.448864</ele>
        <time>2021-05-01T08:59:11.252Z</time>
      </trkpt>
      <trkpt lat="45.80727" lon="5.29172">
        <ele>212.486086</ele>
        <time>2021-05-01T08:59:21.093Z</time>
      </trkpt>
      <trkpt lat="45.80702" lon="5.29138">
        <ele>212.522915</ele>
        <time>2021-05-01T08:59:30.857Z</time>
      </trkpt>
      <trkpt lat="45.80682" lon="5.29109">
        <ele>212.552393</ele>
        <time>2021-05-01T08:59:38.594Z</time>
      </trkpt>
      <trkpt lat="45.80672" lon="5.29096">
        <ele>212.566631</ele>
        <time>2021-05-01T08:59:42.337Z</time>
      </trkpt>
      <trkpt lat="45.80632" lon="5.29042">
        <ele>212.625874</ele>
        <time>2021-05-01T08:59:57.284Z</time>
      </trkpt>
      <trkpt lat="45.80578" lon="5.28972">
        <ele>212.440378</ele>
        <time>2021-05-01T09:00:16.119Z</time>
      </trkpt>
      <trkpt lat="45.80533" lon="5.28911">
        <ele>212.196459</ele>
        <time>2021-05-01T09:00:31.788Z</time>
      </trkpt>
      <trkpt lat="45.80465" lon="5.28821">
        <ele>211.689236</ele>
        <time>2021-05-01T09:00:54.103Z</time>
      </trkpt>
      <trkpt lat="45.80375" lon="5.28713">
        <ele>210.618113</ele>
        <time>2021-05-01T09:01:21.679Z</time>
      </trkpt>
      <trkpt lat="45.8037" lon="5.28705">
        <ele>210.545181</ele>
        <time>2021-05-01T09:01:23.544Z</time>
      </trkpt>
      <trkpt lat="45.80329" lon="5.28655">
        <ele>209.895599</ele>
        <time>2021-05-01T09:01:35.809Z</time>
      </trkpt>
      <trkpt lat="45.80244" lon="5.28546">
        <ele>208.110635</ele>
        <time>2021-05-01T09:02:00.977Z</time>
      </trkpt>
      <trkpt lat="45.80223" lon="5.28521">
        <ele>207.694985</ele>
        <time>2021-05-01T09:02:06.781Z</time>
      </trkpt>
      <trkpt lat="45.8022" lon="5.28517">
        <ele>207.62332</ele>
        <time>2021-05-01T09:02:07.681Z</time>
      </trkpt>
      <trkpt lat="45.80124" lon="5.28424">
        <ele>206.296688</ele>
        <time>2021-05-01T09:02:31.773Z</time>
      </trkpt>
      <trkpt lat="45.80077" lon="5.28351">
        <ele>205.527948</ele>
        <time>2021-05-01T09:02:49.493Z</time>
      </trkpt>
      <trkpt lat="45.80053" lon="5.28294">
        <ele>206.55683</ele>
        <time>2021-05-01T09:03:04.463Z</time>
      </trkpt>
      <trkpt lat="45.80052" lon="5.28288">
        <ele>206.662221</ele>
        <time>2021-05-01T09:03:06.103Z</time>
      </trkpt>
      <trkpt lat="45.80049" lon="5.28281">
        <ele>206.792381</ele>
        <time>2021-05-01T09:03:08.011Z</time>
      </trkpt>
      <trkpt lat="45.80013" lon="5.28198">
        <ele>208.479515</ele>
        <time>2021-05-01T09:03:34.940Z</time>
      </trkpt>
      <trkpt lat="45.79947" lon="5.28048">
        <ele>211.568076</ele>
        <time>2021-05-01T09:04:31.585Z</time>
      </trkpt>
      <trkpt lat="45.79863" lon="5.27927">
        <ele>214.47932</ele>
        <time>2021-05-01T09:05:14.491Z</time>
      </trkpt>
      <trkpt lat="45.79828" lon="5.27888">
        <ele>214.587777</ele>
        <time>2021-05-01T09:05:27.920Z</time>
      </trkpt>
      <trkpt lat="45.79805" lon="5.27873">
        <ele>214.651082</ele>
        <time>2021-05-01T09:05:34.822Z</time>
      </trkpt>
      <trkpt lat="45.79801" lon="5.27872">
        <ele>214.661522</ele>
        <time>2021-05-01T09:05:36.070Z</time>
      </trkpt>
      <trkpt lat="45.79797" lon="5.2787">
        <ele>214.671917</ele>
        <time>2021-05-01T09:05:37.334Z</time>
      </trkpt>
      <trkpt lat="45.79795" lon="5.27865">
        <ele>214.681293</ele>
        <time>2021-05-01T09:05:38.516Z</time>
      </trkpt>
      <trkpt lat="45.79778" lon="5.27822">
        <ele>214.766625</ele>
        <time>2021-05-01T09:05:47.988Z</time>
      </trkpt>
      <trkpt lat="45.79734" lon="5.27782">
        <ele>214.895381</ele>
        <time>2021-05-01T09:06:01.412Z</time>
      </trkpt>
      <trkpt lat="45.79719" lon="5.27773">
        <ele>214.838885</ele>
        <time>2021-05-01T09:06:05.601Z</time>
      </trkpt>
      <trkpt lat="45.79717" lon="5.27771">
        <ele>214.81869</ele>
        <time>2021-05-01T09:06:06.353Z</time>
      </trkpt>
      <trkpt lat="45.79714" lon="5.2777">
        <ele>214.795633</ele>
        <time>2021-05-01T09:06:07.167Z</time>
      </trkpt>
      <trkpt lat="45.79715" lon="5.27758">
        <ele>214.73384</ele>
        <time>2021-05-01T09:06:09.130Z</time>
      </trkpt>
      <trkpt lat="45.79715" lon="5.27727">
        <ele>214.566649</ele>
        <time>2021-05-01T09:06:14.829Z</time>
      </trkpt>
      <trkpt lat="45.79656" lon="5.27657">
        <ele>213.983209</ele>
        <time>2021-05-01T09:06:34.849Z</time>
      </trkpt>
      <trkpt lat="45.7964" lon="5.27638">
        <ele>213.826435</ele>
        <time>2021-05-01T09:06:39.658Z</time>
      </trkpt>
      <trkpt lat="45.79606" lon="5.27615">
        <ele>213.536207</ele>
        <time>2021-05-01T09:06:48.484Z</time>
      </trkpt>
      <trkpt lat="45.79562" lon="5.27623">
        <ele>212.74918</ele>
        <time>2021-05-01T09:06:58.836Z</time>
      </trkpt>
      <trkpt lat="45.79527" lon="5.27624">
        <ele>212.128294</ele>
        <time>2021-05-01T09:07:06.685Z</time>
      </trkpt>
      <trkpt lat="45.79516" lon="5.27622">
        <ele>211.933376</ele>
        <time>2021-05-01T09:07:09.057Z</time>
      </trkpt>
      <trkpt lat="45.79515" lon="5.2759">
        <ele>211.53458</ele>
        <time>2021-05-01T09:07:13.889Z</time>
      </trkpt>
      <trkpt lat="45.79512" lon="5.27583">
        <ele>211.436916</ele>
        <time>2021-05-01T09:07:15.109Z</time>
      </trkpt>
      <trkpt lat="45.79502" lon="5.27575">
        <ele>211.22514</ele>
        <time>2021-05-01T09:07:17.569Z</time>
      </trkpt>
      <trkpt lat="45.79445" lon="5.2756">
        <ele>210.216787</ele>
        <time>2021-05-01T09:07:29.830Z</time>
      </trkpt>
      <trkpt lat="45.79435" lon="5.27553">
        <ele>210.043885</ele>
        <time>2021-05-01T09:07:32.039Z</time>
      </trkpt>
      <trkpt lat="45.7934" lon="5.27554">
        <ele>208.532949</ele>
        <time>2021-05-01T09:07:52.454Z</time>
      </trkpt>
      <trkpt lat="45.79213" lon="5.27558">
        <ele>207.035231</ele>
        <time>2021-05-01T09:08:21.404Z</time>
      </trkpt>
      <trkpt lat="45.79182" lon="5.27553">
        <ele>206.798769</ele>
        <time>2021-05-01T09:08:28.902Z</time>
      </trkpt>
      <trkpt lat="45.79147" lon="5.27535">
        <ele>206.515846</ele>
        <time>2021-05-01T09:08:37.976Z</time>
      </trkpt>
      <trkpt lat="45.79132" lon="5.27523">
        <ele>206.389237</ele>
        <time>2021-05-01T09:08:42.173Z</time>
      </trkpt>
      <trkpt lat="45.79111" lon="5.27494">
        <ele>206.166739</ele>
        <time>2021-05-01T09:08:49.413Z</time>
      </trkpt>
      <trkpt lat="45.78986" lon="5.27301">
        <ele>205.352928</ele>
        <time>2021-05-01T09:09:35.468Z</time>
      </trkpt>
      <trkpt lat="45.78779" lon="5.26978">
        <ele>203.647517</ele>
        <time>2021-05-01T09:10:50.013Z</time>
      </trkpt>
      <trkpt lat="45.78758" lon="5.2696">
        <ele>203.511744</ele>
        <time>2021-05-01T09:10:55.997Z</time>
      </trkpt>
      <trkpt lat="45.78754" lon="5.26945">
        <ele>203.450594</ele>
        <time>2021-05-01T09:10:58.912Z</time>
      </trkpt>
      <trkpt lat="45.78745" lon="5.26918">
        <ele>203.338476</ele>
        <time>2021-05-01T09:11:04.037Z</time>
      </trkpt>
      <trkpt lat="45.78736" lon="5.26891">
        <ele>203.24745</ele>
        <time>2021-05-01T09:11:09.448Z</time>
      </trkpt>
      <trkpt lat="45.78725" lon="5.2686">
        <ele>203.14348</ele>
        <time>2021-05-01T09:11:15.325Z</time>
      </trkpt>
      <trkpt lat="45.78642" lon="5.26603">
        <ele>202.594733</ele>
        <time>2021-05-01T09:12:04.765Z</time>
      </trkpt>
      <trkpt lat="45.78639" lon="5.26546">
        <ele>202.608632</ele>
        <time>2021-05-01T09:12:15.421Z</time>
      </trkpt>
      <trkpt lat="45.78606" lon="5.26455">
        <ele>202.633106</ele>
        <time>2021-05-01T09:12:35.253Z</time>
      </trkpt>
      <trkpt lat="45.78596" lon="5.26415">
        <ele>202.861473</ele>
        <time>2021-05-01T09:12:44.138Z</time>
      </trkpt>
      <trkpt lat="45.78562" lon="5.26237">
        <ele>203.953578</ele>
        <time>2021-05-01T09:13:24.577Z</time>
      </trkpt>
      <trkpt lat="45.78545" lon="5.26182">
        <ele>204.25805</ele>
        <time>2021-05-01T09:13:37.897Z</time>
      </trkpt>
      <trkpt lat="45.78542" lon="5.26149">
        <ele>204.382393</ele>
        <time>2021-05-01T09:13:45.132Z</time>
      </trkpt>
      <trkpt lat="45.78554" lon="5.26108">
        <ele>204.549837</ele>
        <time>2021-05-01T09:13:54.616Z</time>
      </trkpt>
      <trkpt lat="45.78555" lon="5.26094">
        <ele>204.599844</ele>
        <time>2021-05-01T09:13:57.657Z</time>
      </trkpt>
      <trkpt lat="45.78551" lon="5.26082">
        <ele>204.650784</ele>
        <time>2021-05-01T09:14:00.416Z</time>
      </trkpt>
      <trkpt lat="45.78533" lon="5.2605">
        <ele>204.801237</ele>
        <time>2021-05-01T09:14:08.860Z</time>
      </trkpt>
      <trkpt lat="45.78419" lon="5.25771">
        <ele>204.811375</ele>
        <time>2021-05-01T09:15:08.427Z</time>
      </trkpt>
      <trkpt lat="45.78397" lon="5.25693">
        <ele>204.38332</ele>
        <time>2021-05-01T09:15:22.638Z</time>
      </trkpt>
      <trkpt lat="45.78364" lon="5.25667">
        <ele>204.047851</ele>
        <time>2021-05-01T09:15:31.278Z</time>
      </trkpt>
      <trkpt lat="45.78359" lon="5.25589">
        <ele>203.549355</ele>
        <time>2021-05-01T09:15:43.929Z</time>
      </trkpt>
      <trkpt lat="45.78353" lon="5.25569">
        <ele>203.41374</ele>
        <time>2021-05-01T09:15:47.324Z</time>
      </trkpt>
      <trkpt lat="45.78338" lon="5.25535">
        <ele>203.160884</ele>
        <time>2021-05-01T09:15:53.659Z</time>
      </trkpt>
      <trkpt lat="45.78315" lon="5.25502">
        <ele>202.855052</ele>
        <time>2021-05-01T09:16:01.235Z</time>
      </trkpt>
      <trkpt lat="45.78298" lon="5.25443">
        <ele>202.444442</ele>
        <time>2021-05-01T09:16:11.502Z</time>
      </trkpt>
      <trkpt lat="45.7826" lon="5.25365">
        <ele>201.831929</ele>
        <time>2021-05-01T09:16:27.029Z</time>
      </trkpt>
      <trkpt lat="45.78227" lon="5.25272">
        <ele>201.347507</ele>
        <time>2021-05-01T09:16:44.443Z</time>
      </trkpt>
      <trkpt lat="45.7816" lon="5.25111">
        <ele>200.840103</ele>
        <time>2021-05-01T09:17:17.415Z</time>
      </trkpt>
      <trkpt lat="45.78136" lon="5.25068">
        <ele>200.846852</ele>
        <time>2021-05-01T09:17:27.582Z</time>
      </trkpt>
      <trkpt lat="45.78127" lon="5.25011">
        <ele>200.948333</ele>
        <time>2021-05-01T09:17:38.876Z</time>
      </trkpt>
      <trkpt lat="45.78117" lon="5.24984">
        <ele>201.000754</ele>
        <time>2021-05-01T09:17:44.589Z</time>
      </trkpt>
      <trkpt lat="45.78108" lon="5.24961">
        <ele>201.046636</ele>
        <time>2021-05-01T09:17:50.051Z</time>
      </trkpt>
      <trkpt lat="45.78021" lon="5.24735">
        <ele>201.647693</ele>
        <time>2021-05-01T09:18:42.376Z</time>
      </trkpt>
      <trkpt lat="45.77967" lon="5.24621">
        <ele>201.99639</ele>
        <time>2021-05-01T09:19:09.463Z</time>
      </trkpt>
      <trkpt lat="45.77957" lon="5.24606">
        <ele>202.033443</ele>
        <time>2021-05-01T09:19:13.565Z</time>
      </trkpt>
      <trkpt lat="45.77916" lon="5.24571">
        <ele>202.154622</ele>
        <time>2021-05-01T09:19:26.814Z</time>
      </trkpt>
      <trkpt lat="45.77882" lon="5.24525">
        <ele>202.273461</ele>
        <time>2021-05-01T09:19:39.730Z</time>
      </trkpt>
      <trkpt lat="45.77725" lon="5.24245">
        <ele>202.871037</ele>
        <time>2021-05-01T09:20:49.308Z</time>
      </trkpt>
      <trkpt lat="45.77666" lon="5.24154">
        <ele>203.189634</ele>
        <time>2021-05-01T09:21:14.083Z</time>
      </trkpt>
      <trkpt lat="45.77545" lon="5.23988">
        <ele>203.488374</ele>
        <time>2021-05-01T09:22:07.088Z</time>
      </trkpt>
      <trkpt lat="45.77491" lon="5.23897">
        <ele>203.515697</ele>
        <time>2021-05-01T09:22:31.334Z</time>
      </trkpt>
      <trkpt lat="45.77389" lon="5.23696">
        <ele>202.034176</ele>
        <time>2021-05-01T09:23:16.950Z</time>
      </trkpt>
      <trkpt lat="45.77243" lon="5.23451">
        <ele>199.81144</ele>
        <time>2021-05-01T09:24:14.592Z</time>
      </trkpt>
      <trkpt lat="45.77154" lon="5.23331">
        <ele>199.224626</ele>
        <time>2021-05-01T09:24:48.720Z</time>
      </trkpt>
      <trkpt lat="45.76908" lon="5.23038">
        <ele>199.466306</ele>
        <time>2021-05-01T09:26:27.136Z</time>
      </trkpt>
      <trkpt lat="45.76786" lon="5.22857">
        <ele>199.077419</ele>
        <time>2021-05-01T09:27:16.370Z</time>
      </trkpt>
      <trkpt lat="45.76783" lon="5.22855">
        <ele>199.064313</ele>
        <time>2021-05-01T09:27:17.371Z</time>
      </trkpt>
      <trkpt lat="45.76719" lon="5.22779">
        <ele>198.863367</ele>
        <time>2021-05-01T09:27:40.275Z</time>
      </trkpt>
      <trkpt lat="45.7664" lon="5.22667">
        <ele>198.927179</ele>
        <time>2021-05-01T09:28:12.874Z</time>
      </trkpt>
      <trkpt lat="45.76633" lon="5.22659">
        <ele>198.932101</ele>
        <time>2021-05-01T09:28:15.723Z</time>
      </trkpt>
      <trkpt lat="45.76542" lon="5.22553">
        <ele>199.415503</ele>
        <time>2021-05-01T09:28:51.302Z</time>
      </trkpt>
      <trkpt lat="45.76479" lon="5.22499">
        <ele>199.845632</ele>
        <time>2021-05-01T09:29:13.780Z</time>
      </trkpt>
      <trkpt lat="45.7639" lon="5.2244">
        <ele>199.555602</ele>
        <time>2021-05-01T09:29:40.124Z</time>
      </trkpt>
      <trkpt lat="45.76406" lon="5.22383">
        <ele>199.286485</ele>
        <time>2021-05-01T09:29:50.743Z</time>
      </trkpt>
      <trkpt lat="45.76418" lon="5.22355">
        <ele>199.141878</ele>
        <time>2021-05-01T09:29:56.367Z</time>
      </trkpt>
      <trkpt lat="45.76456" lon="5.22328">
        <ele>198.867974</ele>
        <time>2021-05-01T09:30:06.422Z</time>
      </trkpt>
      <trkpt lat="45.76471" lon="5.22305">
        <ele>198.563323</ele>
        <time>2021-05-01T09:30:11.344Z</time>
      </trkpt>
      <trkpt lat="45.7649" lon="5.22285">
        <ele>198.24232</ele>
        <time>2021-05-01T09:30:16.506Z</time>
      </trkpt>
      <trkpt lat="45.76541" lon="5.22235">
        <ele>197.368074</ele>
        <time>2021-05-01T09:30:30.821Z</time>
      </trkpt>
      <trkpt lat="45.76581" lon="5.22211">
        <ele>196.769489</ele>
        <time>2021-05-01T09:30:40.779Z</time>
      </trkpt>
      <trkpt lat="45.76586" lon="5.22181">
        <ele>196.463397</ele>
        <time>2021-05-01T09:30:46.020Z</time>
      </trkpt>
      <trkpt lat="45.76585" lon="5.22113">
        <ele>196.149509</ele>
        <time>2021-05-01T09:30:57.556Z</time>
      </trkpt>
      <trkpt lat="45.76598" lon="5.22107">
        <ele>196.07366</ele>
        <time>2021-05-01T09:31:01.008Z</time>
      </trkpt>
      <trkpt lat="45.7667" lon="5.22102">
        <ele>195.688305</ele>
        <time>2021-05-01T09:31:18.840Z</time>
      </trkpt>
      <trkpt lat="45.76679" lon="5.22093">
        <ele>195.627922</ele>
        <time>2021-05-01T09:31:21.731Z</time>
      </trkpt>
      <trkpt lat="45.76685" lon="5.2208">
        <ele>195.571776</ele>
        <time>2021-05-01T09:31:24.476Z</time>
      </trkpt>
      <trkpt lat="45.76684" lon="5.21976">
        <ele>195.279496</ele>
        <time>2021-05-01T09:31:43.257Z</time>
      </trkpt>
      <trkpt lat="45.76692" lon="5.21751">
        <ele>194.844255</ele>
        <time>2021-05-01T09:32:23.208Z</time>
      </trkpt>
      <trkpt lat="45.76711" lon="5.21535">
        <ele>194.591099</ele>
        <time>2021-05-01T09:33:02.250Z</time>
      </trkpt>
      <trkpt lat="45.76748" lon="5.21336">
        <ele>194.864394</ele>
        <time>2021-05-01T09:33:41.817Z</time>
      </trkpt>
      <trkpt lat="45.76754" lon="5.21315">
        <ele>194.897945</ele>
        <time>2021-05-01T09:33:46.501Z</time>
      </trkpt>
      <trkpt lat="45.76758" lon="5.21299">
        <ele>194.924506</ele>
        <time>2021-05-01T09:33:50.111Z</time>
      </trkpt>
      <trkpt lat="45.76749" lon="5.21181">
        <ele>195.436203</ele>
        <time>2021-05-01T09:34:15.718Z</time>
      </trkpt>
      <trkpt lat="45.76756" lon="5.21145">
        <ele>195.625563</ele>
        <time>2021-05-01T09:34:23.968Z</time>
      </trkpt>
      <trkpt lat="45.76795" lon="5.21048">
        <ele>196.198031</ele>
        <time>2021-05-01T09:34:49.033Z</time>
      </trkpt>
      <trkpt lat="45.76808" lon="5.20987">
        <ele>196.408841</ele>
        <time>2021-05-01T09:35:03.399Z</time>
      </trkpt>
      <trkpt lat="45.76819" lon="5.20927">
        <ele>196.572949</ele>
        <time>2021-05-01T09:35:16.701Z</time>
      </trkpt>
      <trkpt lat="45.76826" lon="5.2086">
        <ele>196.750899</ele>
        <time>2021-05-01T09:35:30.502Z</time>
      </trkpt>
      <trkpt lat="45.7683" lon="5.20801">
        <ele>196.907952</ele>
        <time>2021-05-01T09:35:42.174Z</time>
      </trkpt>
      <trkpt lat="45.76831" lon="5.20796">
        <ele>196.921738</ele>
        <time>2021-05-01T09:35:43.236Z</time>
      </trkpt>
      <trkpt lat="45.76833" lon="5.20767">
        <ele>196.922009</ele>
        <time>2021-05-01T09:35:48.692Z</time>
      </trkpt>
      <trkpt lat="45.76835" lon="5.20737">
        <ele>196.81955</ele>
        <time>2021-05-01T09:35:54.293Z</time>
      </trkpt>
      <trkpt lat="45.76837" lon="5.20695">
        <ele>196.673093</ele>
        <time>2021-05-01T09:36:02.448Z</time>
      </trkpt>
      <trkpt lat="45.76847" lon="5.20659">
        <ele>196.542581</ele>
        <time>2021-05-01T09:36:09.263Z</time>
      </trkpt>
      <trkpt lat="45.76854" lon="5.20648">
        <ele>196.489045</ele>
        <time>2021-05-01T09:36:12.118Z</time>
      </trkpt>
      <trkpt lat="45.76859" lon="5.20643">
        <ele>196.462481</ele>
        <time>2021-05-01T09:36:13.363Z</time>
      </trkpt>
      <trkpt lat="45.76865" lon="5.20636">
        <ele>196.423741</ele>
        <time>2021-05-01T09:36:15.390Z</time>
      </trkpt>
      <trkpt lat="45.76873" lon="5.20624">
        <ele>196.366557</ele>
        <time>2021-05-01T09:36:18.499Z</time>
      </trkpt>
      <trkpt lat="45.76876" lon="5.20613">
        <ele>196.326108</ele>
        <time>2021-05-01T09:36:20.553Z</time>
      </trkpt>
      <trkpt lat="45.76883" lon="5.20584">
        <ele>196.220292</ele>
        <time>2021-05-01T09:36:25.721Z</time>
      </trkpt>
      <trkpt lat="45.7689" lon="5.20579">
        <ele>196.180694</ele>
        <time>2021-05-01T09:36:27.665Z</time>
      </trkpt>
      <trkpt lat="45.76893" lon="5.20575">
        <ele>196.159465</ele>
        <time>2021-05-01T09:36:28.673Z</time>
      </trkpt>
      <trkpt lat="45.76897" lon="5.20568">
        <ele>196.131073</ele>
        <time>2021-05-01T09:36:29.967Z</time>
      </trkpt>
      <trkpt lat="45.76899" lon="5.20561">
        <ele>196.105152</ele>
        <time>2021-05-01T09:36:31.116Z</time>
      </trkpt>
      <trkpt lat="45.76899" lon="5.20552">
        <ele>196.069337</ele>
        <time>2021-05-01T09:36:32.728Z</time>
      </trkpt>
      <trkpt lat="45.76898" lon="5.20542">
        <ele>196.026966</ele>
        <time>2021-05-01T09:36:34.461Z</time>
      </trkpt>
      <trkpt lat="45.76895" lon="5.20533">
        <ele>195.977947</ele>
        <time>2021-05-01T09:36:36.357Z</time>
      </trkpt>
      <trkpt lat="45.7689" lon="5.20526">
        <ele>195.937814</ele>
        <time>2021-05-01T09:36:37.893Z</time>
      </trkpt>
      <trkpt lat="45.76888" lon="5.20512">
        <ele>195.874451</ele>
        <time>2021-05-01T09:36:40.120Z</time>
      </trkpt>
      <trkpt lat="45.76898" lon="5.20439">
        <ele>195.543287</ele>
        <time>2021-05-01T09:36:53.008Z</time>
      </trkpt>
      <trkpt lat="45.76899" lon="5.20398">
        <ele>195.360008</ele>
        <time>2021-05-01T09:36:59.968Z</time>
      </trkpt>
      <trkpt lat="45.76903" lon="5.20314">
        <ele>194.989031</ele>
        <time>2021-05-01T09:37:14.086Z</time>
      </trkpt>
      <trkpt lat="45.76906" lon="5.20277">
        <ele>194.983376</ele>
        <time>2021-05-01T09:37:20.474Z</time>
      </trkpt>
      <trkpt lat="45.76914" lon="5.20184">
        <ele>195.146888</ele>
        <time>2021-05-01T09:37:37.326Z</time>
      </trkpt>
      <trkpt lat="45.76922" lon="5.20089">
        <ele>195.313725</ele>
        <time>2021-05-01T09:37:56.945Z</time>
      </trkpt>
      <trkpt lat="45.76926" lon="5.20033">
        <ele>195.527619</ele>
        <time>2021-05-01T09:38:09.400Z</time>
      </trkpt>
      <trkpt lat="45.76925" lon="5.20008">
        <ele>195.789187</ele>
        <time>2021-05-01T09:38:15.144Z</time>
      </trkpt>
      <trkpt lat="45.76921" lon="5.19983">
        <ele>196.051135</ele>
        <time>2021-05-01T09:38:21.122Z</time>
      </trkpt>
      <trkpt lat="45.76919" lon="5.19978">
        <ele>196.102498</ele>
        <time>2021-05-01T09:38:22.472Z</time>
      </trkpt>
      <trkpt lat="45.76914" lon="5.19965">
        <ele>196.263189</ele>
        <time>2021-05-01T09:38:25.959Z</time>
      </trkpt>
      <trkpt lat="45.76905" lon="5.19944">
        <ele>196.509765</ele>
        <time>2021-05-01T09:38:31.625Z</time>
      </trkpt>
      <trkpt lat="45.76893" lon="5.1992">
        <ele>196.816358</ele>
        <time>2021-05-01T09:38:38.701Z</time>
      </trkpt>
      <trkpt lat="45.76876" lon="5.1989">
        <ele>197.20711</ele>
        <time>2021-05-01T09:38:48.075Z</time>
      </trkpt>
      <trkpt lat="45.76824" lon="5.19821">
        <ele>198.168034</ele>
        <time>2021-05-01T09:39:13.161Z</time>
      </trkpt>
      <trkpt lat="45.7681" lon="5.19803">
        <ele>198.344404</ele>
        <time>2021-05-01T09:39:19.542Z</time>
      </trkpt>
      <trkpt lat="45.76786" lon="5.19775">
        <ele>198.640798</ele>
        <time>2021-05-01T09:39:30.160Z</time>
      </trkpt>
      <trkpt lat="45.7677" lon="5.19754">
        <ele>198.848962</ele>
        <time>2021-05-01T09:39:37.098Z</time>
      </trkpt>
      <trkpt lat="45.76765" lon="5.19748">
        <ele>198.914421</ele>
        <time>2021-05-01T09:39:39.330Z</time>
      </trkpt>
      <trkpt lat="45.76746" lon="5.19724">
        <ele>199.157056</ele>
        <time>2021-05-01T09:39:46.649Z</time>
      </trkpt>
      <trkpt lat="45.7674" lon="5.1971">
        <ele>199.266267</ele>
        <time>2021-05-01T09:39:50.092Z</time>
      </trkpt>
      <trkpt lat="45.76731" lon="5.19693">
        <ele>199.405116</ele>
        <time>2021-05-01T09:39:53.893Z</time>
      </trkpt>
      <trkpt lat="45.76729" lon="5.19689">
        <ele>199.444476</ele>
        <time>2021-05-01T09:39:55.040Z</time>
      </trkpt>
      <trkpt lat="45.76715" lon="5.19665">
        <ele>199.650534</ele>
        <time>2021-05-01T09:40:01.275Z</time>
      </trkpt>
      <trkpt lat="45.76704" lon="5.19641">
        <ele>199.734183</ele>
        <time>2021-05-01T09:40:06.571Z</time>
      </trkpt>
      <trkpt lat="45.76699" lon="5.19631">
        <ele>199.723349</ele>
        <time>2021-05-01T09:40:09.155Z</time>
      </trkpt>
      <trkpt lat="45.76692" lon="5.19611">
        <ele>199.703514</ele>
        <time>2021-05-01T09:40:13.343Z</time>
      </trkpt>
      <trkpt lat="45.76687" lon="5.19599">
        <ele>199.690982</ele>
        <time>2021-05-01T09:40:16.151Z</time>
      </trkpt>
      <trkpt lat="45.76683" lon="5.19583">
        <ele>199.676505</ele>
        <time>2021-05-01T09:40:19.541Z</time>
      </trkpt>
      <trkpt lat="45.76685" lon="5.19572">
        <ele>199.666147</ele>
        <time>2021-05-01T09:40:21.875Z</time>
      </trkpt>
      <trkpt lat="45.76684" lon="5.19564">
        <ele>199.659256</ele>
        <time>2021-05-01T09:40:23.201Z</time>
      </trkpt>
      <trkpt lat="45.767" lon="5.19533">
        <ele>199.625499</ele>
        <time>2021-05-01T09:40:30.844Z</time>
      </trkpt>
      <trkpt lat="45.76703" lon="5.19526">
        <ele>199.618097</ele>
        <time>2021-05-01T09:40:32.463Z</time>
      </trkpt>
      <trkpt lat="45.76704" lon="5.19523">
        <ele>199.615349</ele>
        <time>2021-05-01T09:40:32.939Z</time>
      </trkpt>
      <trkpt lat="45.76706" lon="5.19516">
        <ele>199.608585</ele>
        <time>2021-05-01T09:40:34.385Z</time>
      </trkpt>
      <trkpt lat="45.76743" lon="5.19462">
        <ele>199.541966</ele>
        <time>2021-05-01T09:40:47.696Z</time>
      </trkpt>
      <trkpt lat="45.76758" lon="5.19442">
        <ele>199.488177</ele>
        <time>2021-05-01T09:40:52.501Z</time>
      </trkpt>
      <trkpt lat="45.76783" lon="5.19408">
        <ele>199.114125</ele>
        <time>2021-05-01T09:41:00.535Z</time>
      </trkpt>
      <trkpt lat="45.76799" lon="5.19386">
        <ele>198.88386</ele>
        <time>2021-05-01T09:41:05.454Z</time>
      </trkpt>
      <trkpt lat="45.7681" lon="5.19372">
        <ele>198.722332</ele>
        <time>2021-05-01T09:41:08.905Z</time>
      </trkpt>
      <trkpt lat="45.76867" lon="5.19292">
        <ele>197.857233</ele>
        <time>2021-05-01T09:41:27.340Z</time>
      </trkpt>
      <trkpt lat="45.76909" lon="5.1924">
        <ele>197.176457</ele>
        <time>2021-05-01T09:41:39.600Z</time>
      </trkpt>
      <trkpt lat="45.76991" lon="5.19168">
        <ele>195.869535</ele>
        <time>2021-05-01T09:42:00.559Z</time>
      </trkpt>
      <trkpt lat="45.77046" lon="5.19118">
        <ele>195.043956</ele>
        <time>2021-05-01T09:42:15.558Z</time>
      </trkpt>
      <trkpt lat="45.77058" lon="5.19107">
        <ele>194.938153</ele>
        <time>2021-05-01T09:42:18.761Z</time>
      </trkpt>
      <trkpt lat="45.77106" lon="5.19043">
        <ele>194.436158</ele>
        <time>2021-05-01T09:42:34.346Z</time>
      </trkpt>
      <trkpt lat="45.77132" lon="5.18981">
        <ele>194.050195</ele>
        <time>2021-05-01T09:42:46.568Z</time>
      </trkpt>
      <trkpt lat="45.77163" lon="5.18906">
        <ele>193.653103</ele>
        <time>2021-05-01T09:43:01.540Z</time>
      </trkpt>
      <trkpt lat="45.77182" lon="5.18858">
        <ele>193.473819</ele>
        <time>2021-05-01T09:43:11.298Z</time>
      </trkpt>
      <trkpt lat="45.77257" lon="5.18673">
        <ele>193.045628</ele>
        <time>2021-05-01T09:43:48.209Z</time>
      </trkpt>
      <trkpt lat="45.77272" lon="5.18634">
        <ele>193.165441</ele>
        <time>2021-05-01T09:43:56.363Z</time>
      </trkpt>
      <trkpt lat="45.77302" lon="5.18547">
        <ele>193.432989</ele>
        <time>2021-05-01T09:44:15.765Z</time>
      </trkpt>
      <trkpt lat="45.77321" lon="5.1852">
        <ele>193.539012</ele>
        <time>2021-05-01T09:44:23.878Z</time>
      </trkpt>
      <trkpt lat="45.77343" lon="5.18493">
        <ele>193.721134</ele>
        <time>2021-05-01T09:44:32.826Z</time>
      </trkpt>
      <trkpt lat="45.77552" lon="5.1835">
        <ele>198.076082</ele>
        <time>2021-05-01T09:45:56.570Z</time>
      </trkpt>
      <trkpt lat="45.77567" lon="5.18339">
        <ele>198.41431</ele>
        <time>2021-05-01T09:46:02.969Z</time>
      </trkpt>
      <trkpt lat="45.77578" lon="5.18324">
        <ele>198.745589</ele>
        <time>2021-05-01T09:46:08.441Z</time>
      </trkpt>
      <trkpt lat="45.77581" lon="5.18314">
        <ele>198.906163</ele>
        <time>2021-05-01T09:46:11.311Z</time>
      </trkpt>
      <trkpt lat="45.77586" lon="5.18293">
        <ele>199.225934</ele>
        <time>2021-05-01T09:46:17.269Z</time>
      </trkpt>
      <trkpt lat="45.77619" lon="5.1814">
        <ele>201.397802</ele>
        <time>2021-05-01T09:46:58.180Z</time>
      </trkpt>
      <trkpt lat="45.7764" lon="5.18066">
        <ele>202.342683</ele>
        <time>2021-05-01T09:47:17.257Z</time>
      </trkpt>
      <trkpt lat="45.77647" lon="5.18018">
        <ele>202.92397</ele>
        <time>2021-05-01T09:47:28.579Z</time>
      </trkpt>
      <trkpt lat="45.77662" lon="5.17936">
        <ele>203.977713</ele>
        <time>2021-05-01T09:47:48.895Z</time>
      </trkpt>
      <trkpt lat="45.77686" lon="5.17763">
        <ele>206.677818</ele>
        <time>2021-05-01T09:48:34.137Z</time>
      </trkpt>
      <trkpt lat="45.77688" lon="5.17749">
        <ele>206.88562</ele>
        <time>2021-05-01T09:48:38.284Z</time>
      </trkpt>
      <trkpt lat="45.77689" lon="5.17739">
        <ele>207.036416</ele>
        <time>2021-05-01T09:48:40.883Z</time>
      </trkpt>
      <trkpt lat="45.77696" lon="5.17672">
        <ele>208.247649</ele>
        <time>2021-05-01T09:48:59.030Z</time>
      </trkpt>
      <trkpt lat="45.77707" lon="5.17607">
        <ele>209.689006</ele>
        <time>2021-05-01T09:49:18.727Z</time>
      </trkpt>
      <trkpt lat="45.77729" lon="5.1754">
        <ele>211.247445</ele>
        <time>2021-05-01T09:49:40.545Z</time>
      </trkpt>
      <trkpt lat="45.77751" lon="5.17495">
        <ele>212.438923</ele>
        <time>2021-05-01T09:49:56.633Z</time>
      </trkpt>
      <trkpt lat="45.77762" lon="5.17477">
        <ele>212.957034</ele>
        <time>2021-05-01T09:50:03.942Z</time>
      </trkpt>
      <trkpt lat="45.77769" lon="5.17466">
        <ele>213.240246</ele>
        <time>2021-05-01T09:50:08.189Z</time>
      </trkpt>
      <trkpt lat="45.77797" lon="5.17435">
        <ele>214.102407</ele>
        <time>2021-05-01T09:50:23.132Z</time>
      </trkpt>
      <trkpt lat="45.7781" lon="5.17422">
        <ele>214.496447</ele>
        <time>2021-05-01T09:50:29.712Z</time>
      </trkpt>
      <trkpt lat="45.77826" lon="5.17407">
        <ele>214.959334</ele>
        <time>2021-05-01T09:50:37.747Z</time>
      </trkpt>
      <trkpt lat="45.77836" lon="5.17394">
        <ele>215.280721</ele>
        <time>2021-05-01T09:50:42.709Z</time>
      </trkpt>
      <trkpt lat="45.77847" lon="5.17373">
        <ele>215.721165</ele>
        <time>2021-05-01T09:50:50.146Z</time>
      </trkpt>
      <trkpt lat="45.77859" lon="5.17343">
        <ele>216.310416</ele>
        <time>2021-05-01T09:50:59.289Z</time>
      </trkpt>
      <trkpt lat="45.7788" lon="5.17266">
        <ele>217.550619</ele>
        <time>2021-05-01T09:51:19.378Z</time>
      </trkpt>
      <trkpt lat="45.77897" lon="5.17234">
        <ele>217.629877</ele>
        <time>2021-05-01T09:51:28.388Z</time>
      </trkpt>
      <trkpt lat="45.77914" lon="5.17214">
        <ele>217.692692</ele>
        <time>2021-05-01T09:51:34.837Z</time>
      </trkpt>
      <trkpt lat="45.77946" lon="5.17188">
        <ele>217.795687</ele>
        <time>2021-05-01T09:51:45.126Z</time>
      </trkpt>
      <trkpt lat="45.77963" lon="5.17166">
        <ele>217.860787</ele>
        <time>2021-05-01T09:51:51.229Z</time>
      </trkpt>
      <trkpt lat="45.77974" lon="5.17135">
        <ele>217.930321</ele>
        <time>2021-05-01T09:51:57.545Z</time>
      </trkpt>
      <trkpt lat="45.77988" lon="5.17079">
        <ele>218.039263</ele>
        <time>2021-05-01T09:52:07.332Z</time>
      </trkpt>
      <trkpt lat="45.78017" lon="5.16971">
        <ele>218.058244</ele>
        <time>2021-05-01T09:52:27.138Z</time>
      </trkpt>
      <trkpt lat="45.78025" lon="5.16928">
        <ele>218.065651</ele>
        <time>2021-05-01T09:52:35.540Z</time>
      </trkpt>
      <trkpt lat="45.7804" lon="5.16882">
        <ele>218.073918</ele>
        <time>2021-05-01T09:52:45.437Z</time>
      </trkpt>
      <trkpt lat="45.78132" lon="5.16868">
        <ele>218.858739</ele>
        <time>2021-05-01T09:53:14.126Z</time>
      </trkpt>
      <trkpt lat="45.78197" lon="5.16859">
        <ele>219.675884</ele>
        <time>2021-05-01T09:53:36.831Z</time>
      </trkpt>
      <trkpt lat="45.78471" lon="5.16867">
        <ele>221.717539</ele>
        <time>2021-05-01T09:55:06.892Z</time>
      </trkpt>
      <trkpt lat="45.78731" lon="5.16997">
        <ele>215.803659</ele>
        <time>2021-05-01T09:56:02.956Z</time>
      </trkpt>
      <trkpt lat="45.78819" lon="5.17013">
        <ele>213.016042</ele>
        <time>2021-05-01T09:56:19.769Z</time>
      </trkpt>
      <trkpt lat="45.78866" lon="5.17">
        <ele>211.371691</ele>
        <time>2021-05-01T09:56:28.958Z</time>
      </trkpt>
      <trkpt lat="45.78889" lon="5.16994">
        <ele>210.574265</ele>
        <time>2021-05-01T09:56:33.337Z</time>
      </trkpt>
      <trkpt lat="45.78914" lon="5.16987">
        <ele>209.692688</ele>
        <time>2021-05-01T09:56:38.300Z</time>
      </trkpt>
      <trkpt lat="45.78942" lon="5.16983">
        <ele>208.736034</ele>
        <time>2021-05-01T09:56:43.833Z</time>
      </trkpt>
      <trkpt lat="45.78946" lon="5.16982">
        <ele>208.570243</ele>
        <time>2021-05-01T09:56:44.729Z</time>
      </trkpt>
      <trkpt lat="45.78995" lon="5.16972">
        <ele>207.579905</ele>
        <time>2021-05-01T09:56:54.502Z</time>
      </trkpt>
      <trkpt lat="45.79005" lon="5.16969">
        <ele>207.388157</ele>
        <time>2021-05-01T09:56:56.600Z</time>
      </trkpt>
      <trkpt lat="45.79023" lon="5.16965">
        <ele>207.040646</ele>
        <time>2021-05-01T09:57:00.270Z</time>
      </trkpt>
      <trkpt lat="45.79039" lon="5.16962">
        <ele>206.729942</ele>
        <time>2021-05-01T09:57:03.635Z</time>
      </trkpt>
      <trkpt lat="45.79043" lon="5.16969">
        <ele>206.606297</ele>
        <time>2021-05-01T09:57:05.046Z</time>
      </trkpt>
      <trkpt lat="45.79048" lon="5.1697">
        <ele>206.505291</ele>
        <time>2021-05-01T09:57:06.130Z</time>
      </trkpt>
      <trkpt lat="45.79056" lon="5.17012">
        <ele>205.924497</ele>
        <time>2021-05-01T09:57:13.126Z</time>
      </trkpt>
      <trkpt lat="45.79068" lon="5.17046">
        <ele>205.427634</ele>
        <time>2021-05-01T09:57:19.280Z</time>
      </trkpt>
      <trkpt lat="45.79086" lon="5.17088">
        <ele>205.161949</ele>
        <time>2021-05-01T09:57:28.179Z</time>
      </trkpt>
      <trkpt lat="45.79126" lon="5.17173">
        <ele>205.945307</ele>
        <time>2021-05-01T09:57:49.938Z</time>
      </trkpt>
      <trkpt lat="45.79146" lon="5.17214">
        <ele>206.327344</ele>
        <time>2021-05-01T09:58:02.398Z</time>
      </trkpt>
      <trkpt lat="45.79166" lon="5.17255">
        <ele>206.703123</ele>
        <time>2021-05-01T09:58:15.110Z</time>
      </trkpt>
      <trkpt lat="45.79201" lon="5.17327">
        <ele>207.647469</ele>
        <time>2021-05-01T09:58:39.153Z</time>
      </trkpt>
      <trkpt lat="45.79206" lon="5.17337">
        <ele>207.819449</ele>
        <time>2021-05-01T09:58:43.070Z</time>
      </trkpt>
      <trkpt lat="45.7919" lon="5.1738">
        <ele>208.45359</ele>
        <time>2021-05-01T09:58:57.172Z</time>
      </trkpt>
      <trkpt lat="45.79139" lon="5.17405">
        <ele>209.461939</ele>
        <time>2021-05-01T09:59:17.629Z</time>
      </trkpt>
      <trkpt lat="45.7913" lon="5.17418">
        <ele>209.689944</ele>
        <time>2021-05-01T09:59:21.973Z</time>
      </trkpt>
      <trkpt lat="45.79127" lon="5.17442">
        <ele>210.012178</ele>
        <time>2021-05-01T09:59:27.935Z</time>
      </trkpt>
      <trkpt lat="45.79133" lon="5.17492">
        <ele>210.131747</ele>
        <time>2021-05-01T09:59:39.181Z</time>
      </trkpt>
      <trkpt lat="45.79135" lon="5.17503">
        <ele>210.034393</ele>
        <time>2021-05-01T09:59:41.422Z</time>
      </trkpt>
      <trkpt lat="45.79133" lon="5.17492">
        <ele>209.93704</ele>
        <time>2021-05-01T09:59:43.700Z</time>
      </trkpt>
      <trkpt lat="45.79127" lon="5.17442">
        <ele>209.514348</ele>
        <time>2021-05-01T09:59:52.368Z</time>
      </trkpt>
      <trkpt lat="45.7913" lon="5.17418">
        <ele>209.306699</ele>
        <time>2021-05-01T09:59:56.381Z</time>
      </trkpt>
      <trkpt lat="45.79139" lon="5.17405">
        <ele>209.159771</ele>
        <time>2021-05-01T09:59:59.176Z</time>
      </trkpt>
      <trkpt lat="45.7919" lon="5.1738">
        <ele>208.509983</ele>
        <time>2021-05-01T10:00:11.033Z</time>
      </trkpt>
      <trkpt lat="45.79206" lon="5.17337">
        <ele>208.062845</ele>
        <time>2021-05-01T10:00:18.150Z</time>
      </trkpt>
      <trkpt lat="45.79201" lon="5.17327">
        <ele>207.895839</ele>
        <time>2021-05-01T10:00:20.056Z</time>
      </trkpt>
      <trkpt lat="45.79166" lon="5.17255">
        <ele>206.784879</ele>
        <time>2021-05-01T10:00:33.280Z</time>
      </trkpt>
      <trkpt lat="45.79146" lon="5.17214">
        <ele>206.159381</ele>
        <time>2021-05-01T10:00:41.010Z</time>
      </trkpt>
      <trkpt lat="45.79126" lon="5.17173">
        <ele>205.523466</ele>
        <time>2021-05-01T10:00:49.035Z</time>
      </trkpt>
      <trkpt lat="45.79086" lon="5.17088">
        <ele>204.937112</ele>
        <time>2021-05-01T10:01:07.083Z</time>
      </trkpt>
      <trkpt lat="45.79068" lon="5.17046">
        <ele>204.95653</ele>
        <time>2021-05-01T10:01:16.369Z</time>
      </trkpt>
      <trkpt lat="45.79056" lon="5.17012">
        <ele>204.971462</ele>
        <time>2021-05-01T10:01:24.083Z</time>
      </trkpt>
      <trkpt lat="45.79048" lon="5.1697">
        <ele>204.988916</ele>
        <time>2021-05-01T10:01:33.275Z</time>
      </trkpt>
      <trkpt lat="45.79053" lon="5.16966">
        <ele>204.99188</ele>
        <time>2021-05-01T10:01:34.842Z</time>
      </trkpt>
      <trkpt lat="45.79053" lon="5.16958">
        <ele>204.994946</ele>
        <time>2021-05-01T10:01:36.434Z</time>
      </trkpt>
      <trkpt lat="45.7905" lon="5.16952">
        <ele>204.998079</ele>
        <time>2021-05-01T10:01:37.988Z</time>
      </trkpt>
      <trkpt lat="45.79045" lon="5.1695">
        <ele>205.000572</ele>
        <time>2021-05-01T10:01:39.200Z</time>
      </trkpt>
      <trkpt lat="45.79038" lon="5.16887">
        <ele>205.087675</ele>
        <time>2021-05-01T10:01:52.440Z</time>
      </trkpt>
      <trkpt lat="45.78998" lon="5.16755">
        <ele>205.569889</ele>
        <time>2021-05-01T10:02:22.004Z</time>
      </trkpt>
      <trkpt lat="45.78978" lon="5.16691">
        <ele>205.807677</ele>
        <time>2021-05-01T10:02:36.207Z</time>
      </trkpt>
      <trkpt lat="45.7897" lon="5.16635">
        <ele>205.886164</ele>
        <time>2021-05-01T10:02:47.278Z</time>
      </trkpt>
      <trkpt lat="45.78969" lon="5.16621">
        <ele>205.885847</ele>
        <time>2021-05-01T10:02:50.064Z</time>
      </trkpt>
      <trkpt lat="45.78967" lon="5.16577">
        <ele>205.884835</ele>
        <time>2021-05-01T10:02:58.458Z</time>
      </trkpt>
      <trkpt lat="45.78967" lon="5.16572">
        <ele>205.884742</ele>
        <time>2021-05-01T10:02:59.206Z</time>
      </trkpt>
      <trkpt lat="45.78956" lon="5.16509">
        <ele>205.883261</ele>
        <time>2021-05-01T10:03:11.467Z</time>
      </trkpt>
      <trkpt lat="45.78951" lon="5.1648">
        <ele>205.882589</ele>
        <time>2021-05-01T10:03:16.920Z</time>
      </trkpt>
      <trkpt lat="45.78949" lon="5.16462">
        <ele>205.882169</ele>
        <time>2021-05-01T10:03:20.330Z</time>
      </trkpt>
      <trkpt lat="45.78944" lon="5.16432">
        <ele>205.881469</ele>
        <time>2021-05-01T10:03:25.796Z</time>
      </trkpt>
      <trkpt lat="45.78938" lon="5.16401">
        <ele>205.853799</ele>
        <time>2021-05-01T10:03:31.663Z</time>
      </trkpt>
      <trkpt lat="45.78913" lon="5.16254">
        <ele>205.577319</ele>
        <time>2021-05-01T10:03:57.798Z</time>
      </trkpt>
      <trkpt lat="45.78872" lon="5.16019">
        <ele>205.744779</ele>
        <time>2021-05-01T10:04:42.902Z</time>
      </trkpt>
      <trkpt lat="45.78797" lon="5.15587">
        <ele>208.357919</ele>
        <time>2021-05-01T10:06:17.505Z</time>
      </trkpt>
      <trkpt lat="45.78742" lon="5.1527">
        <ele>212.47039</ele>
        <time>2021-05-01T10:07:42.170Z</time>
      </trkpt>
      <trkpt lat="45.78658" lon="5.14782">
        <ele>218.047899</ele>
        <time>2021-05-01T10:09:43.091Z</time>
      </trkpt>
      <trkpt lat="45.78645" lon="5.14706">
        <ele>218.733837</ele>
        <time>2021-05-01T10:10:00.176Z</time>
      </trkpt>
      <trkpt lat="45.78644" lon="5.14694">
        <ele>218.842388</ele>
        <time>2021-05-01T10:10:03.007Z</time>
      </trkpt>
      <trkpt lat="45.78626" lon="5.14656">
        <ele>219.171506</ele>
        <time>2021-05-01T10:10:12.488Z</time>
      </trkpt>
      <trkpt lat="45.78617" lon="5.1464">
        <ele>219.248496</ele>
        <time>2021-05-01T10:10:17.125Z</time>
      </trkpt>
      <trkpt lat="45.7866" lon="5.14539">
        <ele>219.677728</ele>
        <time>2021-05-01T10:10:41.315Z</time>
      </trkpt>
      <trkpt lat="45.79004" lon="5.13744">
        <ele>221.891714</ele>
        <time>2021-05-01T10:13:46.900Z</time>
      </trkpt>
      <trkpt lat="45.79035" lon="5.13638">
        <ele>221.781003</ele>
        <time>2021-05-01T10:14:08.649Z</time>
      </trkpt>
      <trkpt lat="45.79045" lon="5.13568">
        <ele>221.713123</ele>
        <time>2021-05-01T10:14:21.228Z</time>
      </trkpt>
      <trkpt lat="45.79043" lon="5.13443">
        <ele>220.324392</ele>
        <time>2021-05-01T10:14:40.874Z</time>
      </trkpt>
      <trkpt lat="45.79047" lon="5.13374">
        <ele>219.45763</ele>
        <time>2021-05-01T10:14:50.950Z</time>
      </trkpt>
      <trkpt lat="45.79054" lon="5.13332">
        <ele>218.915249</ele>
        <time>2021-05-01T10:14:57.190Z</time>
      </trkpt>
      <trkpt lat="45.79061" lon="5.13293">
        <ele>218.39995</ele>
        <time>2021-05-01T10:15:02.919Z</time>
      </trkpt>
      <trkpt lat="45.79064" lon="5.13258">
        <ele>217.834796</ele>
        <time>2021-05-01T10:15:07.932Z</time>
      </trkpt>
      <trkpt lat="45.7907" lon="5.13253">
        <ele>217.67419</ele>
        <time>2021-05-01T10:15:09.380Z</time>
      </trkpt>
      <trkpt lat="45.79075" lon="5.13246">
        <ele>217.514929</ele>
        <time>2021-05-01T10:15:10.798Z</time>
      </trkpt>
      <trkpt lat="45.79079" lon="5.13237">
        <ele>217.355247</ele>
        <time>2021-05-01T10:15:12.209Z</time>
      </trkpt>
      <trkpt lat="45.79081" lon="5.13226">
        <ele>217.163153</ele>
        <time>2021-05-01T10:15:13.878Z</time>
      </trkpt>
      <trkpt lat="45.79078" lon="5.13203">
        <ele>216.785493</ele>
        <time>2021-05-01T10:15:17.289Z</time>
      </trkpt>
      <trkpt lat="45.79073" lon="5.13193">
        <ele>216.594514</ele>
        <time>2021-05-01T10:15:18.952Z</time>
      </trkpt>
      <trkpt lat="45.79125" lon="5.13153">
        <ele>215.243847</ele>
        <time>2021-05-01T10:15:30.849Z</time>
      </trkpt>
      <trkpt lat="45.79149" lon="5.13126">
        <ele>214.534854</ele>
        <time>2021-05-01T10:15:37.279Z</time>
      </trkpt>
      <trkpt lat="45.79183" lon="5.13058">
        <ele>213.747885</ele>
        <time>2021-05-01T10:15:50.062Z</time>
      </trkpt>
      <trkpt lat="45.79194" lon="5.13038">
        <ele>213.535905</ele>
        <time>2021-05-01T10:15:54.028Z</time>
      </trkpt>
      <trkpt lat="45.79215" lon="5.12991">
        <ele>213.071582</ele>
        <time>2021-05-01T10:16:02.953Z</time>
      </trkpt>
      <trkpt lat="45.79232" lon="5.12964">
        <ele>212.77192</ele>
        <time>2021-05-01T10:16:08.886Z</time>
      </trkpt>
      <trkpt lat="45.79251" lon="5.12931">
        <ele>212.41946</ele>
        <time>2021-05-01T10:16:15.890Z</time>
      </trkpt>
      <trkpt lat="45.79258" lon="5.12912">
        <ele>212.236158</ele>
        <time>2021-05-01T10:16:19.508Z</time>
      </trkpt>
      <trkpt lat="45.79262" lon="5.12912">
        <ele>212.192476</ele>
        <time>2021-05-01T10:16:20.403Z</time>
      </trkpt>
      <trkpt lat="45.79269" lon="5.12907">
        <ele>212.160887</ele>
        <time>2021-05-01T10:16:22.264Z</time>
      </trkpt>
      <trkpt lat="45.79271" lon="5.12904">
        <ele>212.144956</ele>
        <time>2021-05-01T10:16:23.177Z</time>
      </trkpt>
      <trkpt lat="45.79273" lon="5.12898">
        <ele>212.1255</ele>
        <time>2021-05-01T10:16:24.286Z</time>
      </trkpt>
      <trkpt lat="45.79274" lon="5.12891">
        <ele>212.106142</ele>
        <time>2021-05-01T10:16:25.394Z</time>
      </trkpt>
      <trkpt lat="45.79273" lon="5.12885">
        <ele>212.086777</ele>
        <time>2021-05-01T10:16:26.479Z</time>
      </trkpt>
      <trkpt lat="45.79281" lon="5.12865">
        <ele>212.019254</ele>
        <time>2021-05-01T10:16:30.400Z</time>
      </trkpt>
      <trkpt lat="45.79387" lon="5.1265">
        <ele>211.140327</ele>
        <time>2021-05-01T10:17:17.014Z</time>
      </trkpt>
      <trkpt lat="45.79403" lon="5.12604">
        <ele>210.902561</ele>
        <time>2021-05-01T10:17:26.006Z</time>
      </trkpt>
      <trkpt lat="45.79406" lon="5.12593">
        <ele>210.851396</ele>
        <time>2021-05-01T10:17:27.784Z</time>
      </trkpt>
      <trkpt lat="45.79445" lon="5.12441">
        <ele>210.083768</ele>
        <time>2021-05-01T10:17:54.586Z</time>
      </trkpt>
      <trkpt lat="45.79474" lon="5.12293">
        <ele>209.23174</ele>
        <time>2021-05-01T10:18:19.610Z</time>
      </trkpt>
      <trkpt lat="45.79474" lon="5.12272">
        <ele>209.114412</ele>
        <time>2021-05-01T10:18:23.125Z</time>
      </trkpt>
      <trkpt lat="45.79477" lon="5.12271">
        <ele>209.088437</ele>
        <time>2021-05-01T10:18:23.891Z</time>
      </trkpt>
      <trkpt lat="45.79483" lon="5.12265">
        <ele>209.036228</ele>
        <time>2021-05-01T10:18:25.459Z</time>
      </trkpt>
      <trkpt lat="45.79484" lon="5.12261">
        <ele>209.009762</ele>
        <time>2021-05-01T10:18:26.206Z</time>
      </trkpt>
      <trkpt lat="45.79485" lon="5.12256">
        <ele>208.980856</ele>
        <time>2021-05-01T10:18:27.037Z</time>
      </trkpt>
      <trkpt lat="45.79485" lon="5.1225">
        <ele>208.951926</ele>
        <time>2021-05-01T10:18:27.920Z</time>
      </trkpt>
      <trkpt lat="45.79481" lon="5.12242">
        <ele>208.894299</ele>
        <time>2021-05-01T10:18:29.650Z</time>
      </trkpt>
      <trkpt lat="45.79477" lon="5.12239">
        <ele>208.86513</ele>
        <time>2021-05-01T10:18:30.587Z</time>
      </trkpt>
      <trkpt lat="45.79492" lon="5.12217">
        <ele>208.862184</ele>
        <time>2021-05-01T10:18:35.750Z</time>
      </trkpt>
      <trkpt lat="45.79526" lon="5.12079">
        <ele>209.051725</ele>
        <time>2021-05-01T10:19:02.896Z</time>
      </trkpt>
      <trkpt lat="45.79529" lon="5.12069">
        <ele>209.066514</ele>
        <time>2021-05-01T10:19:04.967Z</time>
      </trkpt>
      <trkpt lat="45.79531" lon="5.12058">
        <ele>209.080627</ele>
        <time>2021-05-01T10:19:07.535Z</time>
      </trkpt>
      <trkpt lat="45.79538" lon="5.12028">
        <ele>209.122726</ele>
        <time>2021-05-01T10:19:14.331Z</time>
      </trkpt>
      <trkpt lat="45.7954" lon="5.12022">
        <ele>209.130091</ele>
        <time>2021-05-01T10:19:15.387Z</time>
      </trkpt>
      <trkpt lat="45.79564" lon="5.11921">
        <ele>209.823599</ele>
        <time>2021-05-01T10:19:39.607Z</time>
      </trkpt>
      <trkpt lat="45.79567" lon="5.1191">
        <ele>209.919805</ele>
        <time>2021-05-01T10:19:42.725Z</time>
      </trkpt>
      <trkpt lat="45.79582" lon="5.11801">
        <ele>210.841493</ele>
        <time>2021-05-01T10:20:09.134Z</time>
      </trkpt>
      <trkpt lat="45.79569" lon="5.11671">
        <ele>211.322422</ele>
        <time>2021-05-01T10:20:37.265Z</time>
      </trkpt>
      <trkpt lat="45.7955" lon="5.11527">
        <ele>211.360863</ele>
        <time>2021-05-01T10:21:03.491Z</time>
      </trkpt>
      <trkpt lat="45.79547" lon="5.11511">
        <ele>211.365229</ele>
        <time>2021-05-01T10:21:06.218Z</time>
      </trkpt>
      <trkpt lat="45.79542" lon="5.11485">
        <ele>211.343494</ele>
        <time>2021-05-01T10:21:11.032Z</time>
      </trkpt>
      <trkpt lat="45.79533" lon="5.11465">
        <ele>211.264713</ele>
        <time>2021-05-01T10:21:14.908Z</time>
      </trkpt>
      <trkpt lat="45.79523" lon="5.11448">
        <ele>211.19</ele>
        <time>2021-05-01T10:21:18.715Z</time>
      </trkpt>
      <trkpt lat="45.79515" lon="5.11435">
        <ele>211.132761</ele>
        <time>2021-05-01T10:21:21.592Z</time>
      </trkpt>
      <trkpt lat="45.79513" lon="5.11431">
        <ele>211.115668</ele>
        <time>2021-05-01T10:21:22.401Z</time>
      </trkpt>
      <trkpt lat="45.79511" lon="5.11429">
        <ele>211.103599</ele>
        <time>2021-05-01T10:21:22.975Z</time>
      </trkpt>
      <trkpt lat="45.79508" lon="5.11424">
        <ele>211.08299</ele>
        <time>2021-05-01T10:21:23.938Z</time>
      </trkpt>
      <trkpt lat="45.79504" lon="5.11416">
        <ele>211.051798</ele>
        <time>2021-05-01T10:21:25.505Z</time>
      </trkpt>
      <trkpt lat="45.79503" lon="5.11404">
        <ele>211.009014</ele>
        <time>2021-05-01T10:21:27.883Z</time>
      </trkpt>
      <trkpt lat="45.795" lon="5.11365">
        <ele>210.8782</ele>
        <time>2021-05-01T10:21:34.401Z</time>
      </trkpt>
      <trkpt lat="45.795" lon="5.11356">
        <ele>210.847769</ele>
        <time>2021-05-01T10:21:36.202Z</time>
      </trkpt>
      <trkpt lat="45.79497" lon="5.11307">
        <ele>210.685155</ele>
        <time>2021-05-01T10:21:44.643Z</time>
      </trkpt>
      <trkpt lat="45.79493" lon="5.1129">
        <ele>210.626441</ele>
        <time>2021-05-01T10:21:47.906Z</time>
      </trkpt>
      <trkpt lat="45.79463" lon="5.11165">
        <ele>210.193952</ele>
        <time>2021-05-01T10:22:11.664Z</time>
      </trkpt>
      <trkpt lat="45.79455" lon="5.11117">
        <ele>210.034377</ele>
        <time>2021-05-01T10:22:20.643Z</time>
      </trkpt>
      <trkpt lat="45.79462" lon="5.11001">
        <ele>209.638739</ele>
        <time>2021-05-01T10:22:40.013Z</time>
      </trkpt>
      <trkpt lat="45.79464" lon="5.10964">
        <ele>209.368681</ele>
        <time>2021-05-01T10:22:46.076Z</time>
      </trkpt>
      <trkpt lat="45.79471" lon="5.10937">
        <ele>209.15639</ele>
        <time>2021-05-01T10:22:50.774Z</time>
      </trkpt>
      <trkpt lat="45.79477" lon="5.10927">
        <ele>209.064596</ele>
        <time>2021-05-01T10:22:52.754Z</time>
      </trkpt>
      <trkpt lat="45.7948" lon="5.10925">
        <ele>209.023997</ele>
        <time>2021-05-01T10:22:53.630Z</time>
      </trkpt>
      <trkpt lat="45.79483" lon="5.10921">
        <ele>208.982889</ele>
        <time>2021-05-01T10:22:54.539Z</time>
      </trkpt>
      <trkpt lat="45.79485" lon="5.10916">
        <ele>208.943121</ele>
        <time>2021-05-01T10:22:55.414Z</time>
      </trkpt>
      <trkpt lat="45.79486" lon="5.10911">
        <ele>208.902125</ele>
        <time>2021-05-01T10:22:56.298Z</time>
      </trkpt>
      <trkpt lat="45.79486" lon="5.10905">
        <ele>208.86105</ele>
        <time>2021-05-01T10:22:57.179Z</time>
      </trkpt>
      <trkpt lat="45.79484" lon="5.109">
        <ele>208.819804</ele>
        <time>2021-05-01T10:22:58.076Z</time>
      </trkpt>
      <trkpt lat="45.79481" lon="5.10896">
        <ele>208.779364</ele>
        <time>2021-05-01T10:22:59.019Z</time>
      </trkpt>
      <trkpt lat="45.79478" lon="5.10893">
        <ele>208.738693</ele>
        <time>2021-05-01T10:22:59.888Z</time>
      </trkpt>
      <trkpt lat="45.79483" lon="5.10873">
        <ele>208.586076</ele>
        <time>2021-05-01T10:23:03.209Z</time>
      </trkpt>
      <trkpt lat="45.79501" lon="5.10792">
        <ele>207.962714</ele>
        <time>2021-05-01T10:23:16.830Z</time>
      </trkpt>
      <trkpt lat="45.79511" lon="5.10773">
        <ele>207.790994</ele>
        <time>2021-05-01T10:23:20.629Z</time>
      </trkpt>
      <trkpt lat="45.79513" lon="5.10767">
        <ele>207.766188</ele>
        <time>2021-05-01T10:23:21.645Z</time>
      </trkpt>
      <trkpt lat="45.79529" lon="5.10721">
        <ele>207.566946</ele>
        <time>2021-05-01T10:23:30.020Z</time>
      </trkpt>
      <trkpt lat="45.79595" lon="5.10579">
        <ele>206.908473</ele>
        <time>2021-05-01T10:23:59.889Z</time>
      </trkpt>
      <trkpt lat="45.79654" lon="5.10432">
        <ele>206.37585</ele>
        <time>2021-05-01T10:24:30.400Z</time>
      </trkpt>
      <trkpt lat="45.7969" lon="5.10359">
        <ele>206.10231</ele>
        <time>2021-05-01T10:24:45.658Z</time>
      </trkpt>
      <trkpt lat="45.79695" lon="5.10347">
        <ele>206.058405</ele>
        <time>2021-05-01T10:24:48.113Z</time>
      </trkpt>
      <trkpt lat="45.79707" lon="5.1031">
        <ele>205.863614</ele>
        <time>2021-05-01T10:24:54.618Z</time>
      </trkpt>
      <trkpt lat="45.79735" lon="5.10207">
        <ele>205.223467</ele>
        <time>2021-05-01T10:25:12.715Z</time>
      </trkpt>
      <trkpt lat="45.79753" lon="5.10139">
        <ele>204.808122</ele>
        <time>2021-05-01T10:25:24.192Z</time>
      </trkpt>
      <trkpt lat="45.79814" lon="5.0991">
        <ele>204.207008</ele>
        <time>2021-05-01T10:26:06.965Z</time>
      </trkpt>
      <trkpt lat="45.79823" lon="5.09887">
        <ele>204.16405</ele>
        <time>2021-05-01T10:26:12.027Z</time>
      </trkpt>
      <trkpt lat="45.79851" lon="5.09824">
        <ele>204.365745</ele>
        <time>2021-05-01T10:26:26.691Z</time>
      </trkpt>
      <trkpt lat="45.79879" lon="5.09763">
        <ele>204.825774</ele>
        <time>2021-05-01T10:26:42.611Z</time>
      </trkpt>
      <trkpt lat="45.79916" lon="5.09654">
        <ele>205.58948</ele>
        <time>2021-05-01T10:27:10.491Z</time>
      </trkpt>
      <trkpt lat="45.79959" lon="5.09537">
        <ele>206.016042</ele>
        <time>2021-05-01T10:27:39.578Z</time>
      </trkpt>
      <trkpt lat="45.80025" lon="5.09358">
        <ele>205.880387</ele>
        <time>2021-05-01T10:28:17.124Z</time>
      </trkpt>
      <trkpt lat="45.8006" lon="5.09211">
        <ele>204.398674</ele>
        <time>2021-05-01T10:28:40.360Z</time>
      </trkpt>
      <trkpt lat="45.80068" lon="5.09162">
        <ele>203.913346</ele>
        <time>2021-05-01T10:28:47.804Z</time>
      </trkpt>
      <trkpt lat="45.80072" lon="5.09097">
        <ele>203.285843</ele>
        <time>2021-05-01T10:28:57.584Z</time>
      </trkpt>
      <trkpt lat="45.80078" lon="5.08985">
        <ele>202.215989</ele>
        <time>2021-05-01T10:29:14.903Z</time>
      </trkpt>
      <trkpt lat="45.80079" lon="5.08941">
        <ele>201.793769</ele>
        <time>2021-05-01T10:29:22.037Z</time>
      </trkpt>
      <trkpt lat="45.80086" lon="5.08875">
        <ele>201.483012</ele>
        <time>2021-05-01T10:29:33.259Z</time>
      </trkpt>
      <trkpt lat="45.80093" lon="5.08839">
        <ele>201.50368</ele>
        <time>2021-05-01T10:29:39.839Z</time>
      </trkpt>
      <trkpt lat="45.80111" lon="5.08777">
        <ele>201.541024</ele>
        <time>2021-05-01T10:29:52.561Z</time>
      </trkpt>
      <trkpt lat="45.80116" lon="5.0877">
        <ele>201.546283</ele>
        <time>2021-05-01T10:29:54.428Z</time>
      </trkpt>
      <trkpt lat="45.80126" lon="5.08712">
        <ele>201.579494</ele>
        <time>2021-05-01T10:30:06.286Z</time>
      </trkpt>
      <trkpt lat="45.80128" lon="5.08707">
        <ele>201.582587</ele>
        <time>2021-05-01T10:30:07.367Z</time>
      </trkpt>
      <trkpt lat="45.80133" lon="5.08704">
        <ele>201.586897</ele>
        <time>2021-05-01T10:30:08.947Z</time>
      </trkpt>
      <trkpt lat="45.80137" lon="5.08699">
        <ele>201.591305</ele>
        <time>2021-05-01T10:30:10.584Z</time>
      </trkpt>
      <trkpt lat="45.8014" lon="5.08693">
        <ele>201.595635</ele>
        <time>2021-05-01T10:30:12.165Z</time>
      </trkpt>
      <trkpt lat="45.80141" lon="5.08685">
        <ele>201.599979</ele>
        <time>2021-05-01T10:30:13.723Z</time>
      </trkpt>
      <trkpt lat="45.80141" lon="5.08678">
        <ele>201.604051</ele>
        <time>2021-05-01T10:30:15.172Z</time>
      </trkpt>
      <trkpt lat="45.80139" lon="5.08671">
        <ele>201.608169</ele>
        <time>2021-05-01T10:30:16.600Z</time>
      </trkpt>
      <trkpt lat="45.80136" lon="5.08666">
        <ele>201.659388</ele>
        <time>2021-05-01T10:30:17.917Z</time>
      </trkpt>
      <trkpt lat="45.80132" lon="5.08662">
        <ele>201.713481</ele>
        <time>2021-05-01T10:30:19.323Z</time>
      </trkpt>
      <trkpt lat="45.80129" lon="5.08653">
        <ele>201.797378</ele>
        <time>2021-05-01T10:30:21.594Z</time>
      </trkpt>
      <trkpt lat="45.80124" lon="5.08598">
        <ele>202.25171</ele>
        <time>2021-05-01T10:30:33.864Z</time>
      </trkpt>
      <trkpt lat="45.80102" lon="5.08465">
        <ele>203.359239</ele>
        <time>2021-05-01T10:31:04.807Z</time>
      </trkpt>
      <trkpt lat="45.80099" lon="5.08454">
        <ele>203.452296</ele>
        <time>2021-05-01T10:31:08.027Z</time>
      </trkpt>
      <trkpt lat="45.80094" lon="5.08436">
        <ele>203.615008</ele>
        <time>2021-05-01T10:31:12.689Z</time>
      </trkpt>
      <trkpt lat="45.80096" lon="5.08433">
        <ele>203.640483</ele>
        <time>2021-05-01T10:31:13.367Z</time>
      </trkpt>
      <trkpt lat="45.80096" lon="5.08424">
        <ele>203.716679</ele>
        <time>2021-05-01T10:31:15.227Z</time>
      </trkpt>
      <trkpt lat="45.80095" lon="5.08422">
        <ele>203.754171</ele>
        <time>2021-05-01T10:31:15.967Z</time>
      </trkpt>
      <trkpt lat="45.80101" lon="5.08413">
        <ele>203.904066</ele>
        <time>2021-05-01T10:31:18.959Z</time>
      </trkpt>
      <trkpt lat="45.80104" lon="5.08409">
        <ele>203.971083</ele>
        <time>2021-05-01T10:31:20.741Z</time>
      </trkpt>
      <trkpt lat="45.80155" lon="5.08377">
        <ele>204.964363</ele>
        <time>2021-05-01T10:31:39.877Z</time>
      </trkpt>
      <trkpt lat="45.80173" lon="5.08363">
        <ele>205.319287</ele>
        <time>2021-05-01T10:31:47.448Z</time>
      </trkpt>
      <trkpt lat="45.80175" lon="5.08361">
        <ele>205.364696</ele>
        <time>2021-05-01T10:31:48.554Z</time>
      </trkpt>
      <trkpt lat="45.8021" lon="5.08312">
        <ele>206.235427</ele>
        <time>2021-05-01T10:32:05.788Z</time>
      </trkpt>
      <trkpt lat="45.80286" lon="5.08188">
        <ele>208.048415</ele>
        <time>2021-05-01T10:32:46.374Z</time>
      </trkpt>
      <trkpt lat="45.8036" lon="5.08103">
        <ele>209.467632</ele>
        <time>2021-05-01T10:33:18.008Z</time>
      </trkpt>
      <trkpt lat="45.80373" lon="5.08081">
        <ele>209.668914</ele>
        <time>2021-05-01T10:33:24.137Z</time>
      </trkpt>
      <trkpt lat="45.80375" lon="5.08078">
        <ele>209.691913</ele>
        <time>2021-05-01T10:33:25.737Z</time>
      </trkpt>
      <trkpt lat="45.80377" lon="5.08086">
        <ele>209.738403</ele>
        <time>2021-05-01T10:33:27.906Z</time>
      </trkpt>
      <trkpt lat="45.80427" lon="5.08065">
        <ele>210.134945</ele>
        <time>2021-05-01T10:33:48.055Z</time>
      </trkpt>
      <trkpt lat="45.80491" lon="5.08027">
        <ele>210.669201</ele>
        <time>2021-05-01T10:34:14.763Z</time>
      </trkpt>
      <trkpt lat="45.80585" lon="5.07946">
        <ele>211.342839</ele>
        <time>2021-05-01T10:34:55.775Z</time>
      </trkpt>
      <trkpt lat="45.8063" lon="5.0792">
        <ele>211.604752</ele>
        <time>2021-05-01T10:35:14.714Z</time>
      </trkpt>
      <trkpt lat="45.80636" lon="5.0792">
        <ele>211.637693</ele>
        <time>2021-05-01T10:35:16.881Z</time>
      </trkpt>
      <trkpt lat="45.80638" lon="5.07921">
        <ele>211.647762</ele>
        <time>2021-05-01T10:35:17.608Z</time>
      </trkpt>
      <trkpt lat="45.80642" lon="5.07923">
        <ele>211.673415</ele>
        <time>2021-05-01T10:35:19.330Z</time>
      </trkpt>
      <trkpt lat="45.80645" lon="5.07924">
        <ele>211.689291</ele>
        <time>2021-05-01T10:35:20.714Z</time>
      </trkpt>
      <trkpt lat="45.80652" lon="5.07905">
        <ele>211.769252</ele>
        <time>2021-05-01T10:35:26.121Z</time>
      </trkpt>
      <trkpt lat="45.80683" lon="5.07878">
        <ele>211.857818</ele>
        <time>2021-05-01T10:35:39.490Z</time>
      </trkpt>
      <trkpt lat="45.80682" lon="5.07873">
        <ele>211.829832</ele>
        <time>2021-05-01T10:35:41.194Z</time>
      </trkpt>
      <trkpt lat="45.80735" lon="5.07851">
        <ele>211.43018</ele>
        <time>2021-05-01T10:35:55.981Z</time>
      </trkpt>
      <trkpt lat="45.80758" lon="5.07848">
        <ele>211.259892</ele>
        <time>2021-05-01T10:36:01.944Z</time>
      </trkpt>
      <trkpt lat="45.80906" lon="5.07811">
        <ele>209.887455</ele>
        <time>2021-05-01T10:36:34.621Z</time>
      </trkpt>
      <trkpt lat="45.80932" lon="5.07805">
        <ele>209.572192</ele>
        <time>2021-05-01T10:36:40.059Z</time>
      </trkpt>
      <trkpt lat="45.80979" lon="5.07801">
        <ele>209.007385</ele>
        <time>2021-05-01T10:36:50.810Z</time>
      </trkpt>
      <trkpt lat="45.80982" lon="5.07801">
        <ele>208.964108</ele>
        <time>2021-05-01T10:36:51.415Z</time>
      </trkpt>
      <trkpt lat="45.80977" lon="5.07764">
        <ele>208.648127</ele>
        <time>2021-05-01T10:36:59.409Z</time>
      </trkpt>
      <trkpt lat="45.80965" lon="5.07722">
        <ele>208.56935</ele>
        <time>2021-05-01T10:37:08.082Z</time>
      </trkpt>
      <trkpt lat="45.80947" lon="5.07501">
        <ele>209.631491</ele>
        <time>2021-05-01T10:38:01.729Z</time>
      </trkpt>
      <trkpt lat="45.80916" lon="5.07379">
        <ele>210.243991</ele>
        <time>2021-05-01T10:38:32.907Z</time>
      </trkpt>
      <trkpt lat="45.80869" lon="5.07238">
        <ele>210.86436</ele>
        <time>2021-05-01T10:39:07.777Z</time>
      </trkpt>
      <trkpt lat="45.80818" lon="5.07119">
        <ele>210.463622</ele>
        <time>2021-05-01T10:39:36.001Z</time>
      </trkpt>
      <trkpt lat="45.80807" lon="5.07078">
        <ele>210.338319</ele>
        <time>2021-05-01T10:39:44.342Z</time>
      </trkpt>
      <trkpt lat="45.80795" lon="5.06999">
        <ele>209.873797</ele>
        <time>2021-05-01T10:39:59.227Z</time>
      </trkpt>
      <trkpt lat="45.80789" lon="5.06851">
        <ele>207.889448</ele>
        <time>2021-05-01T10:40:24.127Z</time>
      </trkpt>
      <trkpt lat="45.80781" lon="5.06801">
        <ele>207.20707</ele>
        <time>2021-05-01T10:40:32.331Z</time>
      </trkpt>
      <trkpt lat="45.80742" lon="5.06633">
        <ele>204.621851</ele>
        <time>2021-05-01T10:41:00.820Z</time>
      </trkpt>
      <trkpt lat="45.80645" lon="5.06307">
        <ele>200.776999</ele>
        <time>2021-05-01T10:42:01.694Z</time>
      </trkpt>
      <trkpt lat="45.80589" lon="5.06128">
        <ele>201.730342</ele>
        <time>2021-05-01T10:42:44.665Z</time>
      </trkpt>
      <trkpt lat="45.80568" lon="5.06049">
        <ele>202.300388</ele>
        <time>2021-05-01T10:43:08.066Z</time>
      </trkpt>
      <trkpt lat="45.80558" lon="5.06012">
        <ele>203.160709</ele>
        <time>2021-05-01T10:43:20.344Z</time>
      </trkpt>
      <trkpt lat="45.80527" lon="5.05874">
        <ele>206.293644</ele>
        <time>2021-05-01T10:44:07.248Z</time>
      </trkpt>
      <trkpt lat="45.80518" lon="5.05791">
        <ele>207.985299</ele>
        <time>2021-05-01T10:44:34.570Z</time>
      </trkpt>
      <trkpt lat="45.80494" lon="5.05673">
        <ele>209.341093</ele>
        <time>2021-05-01T10:45:09.191Z</time>
      </trkpt>
      <trkpt lat="45.80473" lon="5.05611">
        <ele>210.095461</ele>
        <time>2021-05-01T10:45:26.110Z</time>
      </trkpt>
      <trkpt lat="45.80465" lon="5.05514">
        <ele>210.394743</ele>
        <time>2021-05-01T10:45:46.564Z</time>
      </trkpt>
      <trkpt lat="45.80444" lon="5.05431">
        <ele>209.786202</ele>
        <time>2021-05-01T10:46:02.939Z</time>
      </trkpt>
      <trkpt lat="45.80431" lon="5.05309">
        <ele>208.94101</ele>
        <time>2021-05-01T10:46:24.193Z</time>
      </trkpt>
      <trkpt lat="45.80371" lon="5.05132">
        <ele>206.710912</ele>
        <time>2021-05-01T10:46:57.393Z</time>
      </trkpt>
      <trkpt lat="45.80363" lon="5.05116">
        <ele>206.480642</ele>
        <time>2021-05-01T10:47:00.803Z</time>
      </trkpt>
      <trkpt lat="45.80334" lon="5.0506">
        <ele>205.839186</ele>
        <time>2021-05-01T10:47:13.207Z</time>
      </trkpt>
      <trkpt lat="45.80303" lon="5.05">
        <ele>205.438344</ele>
        <time>2021-05-01T10:47:26.668Z</time>
      </trkpt>
      <trkpt lat="45.80291" lon="5.04962">
        <ele>205.213583</ele>
        <time>2021-05-01T10:47:34.465Z</time>
      </trkpt>
      <trkpt lat="45.80282" lon="5.04903">
        <ele>204.885178</ele>
        <time>2021-05-01T10:47:46.042Z</time>
      </trkpt>
      <trkpt lat="45.80136" lon="5.04466">
        <ele>203.366043</ele>
        <time>2021-05-01T10:49:21.676Z</time>
      </trkpt>
      <trkpt lat="45.80107" lon="5.04415">
        <ele>203.125288</ele>
        <time>2021-05-01T10:49:33.950Z</time>
      </trkpt>
      <trkpt lat="45.80063" lon="5.04366">
        <ele>202.681013</ele>
        <time>2021-05-01T10:49:48.499Z</time>
      </trkpt>
      <trkpt lat="45.80018" lon="5.04295">
        <ele>202.070016</ele>
        <time>2021-05-01T10:50:06.124Z</time>
      </trkpt>
      <trkpt lat="45.79989" lon="5.04227">
        <ele>201.565398</ele>
        <time>2021-05-01T10:50:20.846Z</time>
      </trkpt>
      <trkpt lat="45.79915" lon="5.04114">
        <ele>200.492569</ele>
        <time>2021-05-01T10:50:49.006Z</time>
      </trkpt>
      <trkpt lat="45.79906" lon="5.04104">
        <ele>200.385442</ele>
        <time>2021-05-01T10:50:51.551Z</time>
      </trkpt>
      <trkpt lat="45.79896" lon="5.04095">
        <ele>200.262435</ele>
        <time>2021-05-01T10:50:56.928Z</time>
      </trkpt>
      <trkpt lat="45.79875" lon="5.04062">
        <ele>199.950308</ele>
        <time>2021-05-01T10:51:04.057Z</time>
      </trkpt>
      <trkpt lat="45.79831" lon="5.04008">
        <ele>199.103964</ele>
        <time>2021-05-01T10:51:18.101Z</time>
      </trkpt>
      <trkpt lat="45.79825" lon="5.03998">
        <ele>198.913787</ele>
        <time>2021-05-01T10:51:19.974Z</time>
      </trkpt>
      <trkpt lat="45.79816" lon="5.03997">
        <ele>198.721754</ele>
        <time>2021-05-01T10:51:22.372Z</time>
      </trkpt>
      <trkpt lat="45.79716" lon="5.03906">
        <ele>196.219211</ele>
        <time>2021-05-01T10:51:46.470Z</time>
      </trkpt>
      <trkpt lat="45.79697" lon="5.03891">
        <ele>195.754111</ele>
        <time>2021-05-01T10:51:50.816Z</time>
      </trkpt>
      <trkpt lat="45.79687" lon="5.03871">
        <ele>195.333005</ele>
        <time>2021-05-01T10:51:54.698Z</time>
      </trkpt>
      <trkpt lat="45.7965" lon="5.03797">
        <ele>193.831746</ele>
        <time>2021-05-01T10:52:09.090Z</time>
      </trkpt>
      <trkpt lat="45.7962" lon="5.03737">
        <ele>192.590826</ele>
        <time>2021-05-01T10:52:20.912Z</time>
      </trkpt>
      <trkpt lat="45.79611" lon="5.03717">
        <ele>192.180863</ele>
        <time>2021-05-01T10:52:24.862Z</time>
      </trkpt>
      <trkpt lat="45.79574" lon="5.03584">
        <ele>191.082261</ele>
        <time>2021-05-01T10:52:49.798Z</time>
      </trkpt>
      <trkpt lat="45.79555" lon="5.03496">
        <ele>190.716593</ele>
        <time>2021-05-01T10:53:09.027Z</time>
      </trkpt>
      <trkpt lat="45.7954" lon="5.03421">
        <ele>190.47254</ele>
        <time>2021-05-01T10:53:25.795Z</time>
      </trkpt>
      <trkpt lat="45.79534" lon="5.03354">
        <ele>190.550595</ele>
        <time>2021-05-01T10:53:40.026Z</time>
      </trkpt>
      <trkpt lat="45.79524" lon="5.03283">
        <ele>190.633272</ele>
        <time>2021-05-01T10:53:55.450Z</time>
      </trkpt>
      <trkpt lat="45.79521" lon="5.03255">
        <ele>190.66552</ele>
        <time>2021-05-01T10:54:01.308Z</time>
      </trkpt>
      <trkpt lat="45.79496" lon="5.03177">
        <ele>190.769101</ele>
        <time>2021-05-01T10:54:19.650Z</time>
      </trkpt>
      <trkpt lat="45.79481" lon="5.03149">
        <ele>190.826938</ele>
        <time>2021-05-01T10:54:27.085Z</time>
      </trkpt>
      <trkpt lat="45.79463" lon="5.03115">
        <ele>190.897054</ele>
        <time>2021-05-01T10:54:36.081Z</time>
      </trkpt>
      <trkpt lat="45.79356" lon="5.03001">
        <ele>191.232389</ele>
        <time>2021-05-01T10:55:17.444Z</time>
      </trkpt>
      <trkpt lat="45.78998" lon="5.02657">
        <ele>193.002343</ele>
        <time>2021-05-01T10:57:34.085Z</time>
      </trkpt>
      <trkpt lat="45.78966" lon="5.02636">
        <ele>193.148398</ele>
        <time>2021-05-01T10:57:45.121Z</time>
      </trkpt>
      <trkpt lat="45.78951" lon="5.02636">
        <ele>193.210961</ele>
        <time>2021-05-01T10:57:49.878Z</time>
      </trkpt>
      <trkpt lat="45.78939" lon="5.02634">
        <ele>193.261184</ele>
        <time>2021-05-01T10:57:53.727Z</time>
      </trkpt>
      <trkpt lat="45.7893" lon="5.02627">
        <ele>193.306519</ele>
        <time>2021-05-01T10:57:56.864Z</time>
      </trkpt>
      <trkpt lat="45.78921" lon="5.02612">
        <ele>193.362861</ele>
        <time>2021-05-01T10:58:00.915Z</time>
      </trkpt>
      <trkpt lat="45.78917" lon="5.02587">
        <ele>193.430237</ele>
        <time>2021-05-01T10:58:06.606Z</time>
      </trkpt>
      <trkpt lat="45.78907" lon="5.02552">
        <ele>193.52056</ele>
        <time>2021-05-01T10:58:15.187Z</time>
      </trkpt>
      <trkpt lat="45.78797" lon="5.02349">
        <ele>194.136975</ele>
        <time>2021-05-01T10:59:10.842Z</time>
      </trkpt>
      <trkpt lat="45.78727" lon="5.02266">
        <ele>194.473943</ele>
        <time>2021-05-01T10:59:39.123Z</time>
      </trkpt>
      <trkpt lat="45.78714" lon="5.0225">
        <ele>194.53758</ele>
        <time>2021-05-01T10:59:44.544Z</time>
      </trkpt>
      <trkpt lat="45.78669" lon="5.02213">
        <ele>194.778103</ele>
        <time>2021-05-01T11:00:01.204Z</time>
      </trkpt>
      <trkpt lat="45.78628" lon="5.0214">
        <ele>195.223659</ele>
        <time>2021-05-01T11:00:22.835Z</time>
      </trkpt>
      <trkpt lat="45.78582" lon="5.02034">
        <ele>195.815532</ele>
        <time>2021-05-01T11:00:52.299Z</time>
      </trkpt>
      <trkpt lat="45.78534" lon="5.01859">
        <ele>196.169184</ele>
        <time>2021-05-01T11:01:34.297Z</time>
      </trkpt>
      <trkpt lat="45.78527" lon="5.01729">
        <ele>196.084584</ele>
        <time>2021-05-01T11:02:00.240Z</time>
      </trkpt>
      <trkpt lat="45.78531" lon="5.01624">
        <ele>195.563747</ele>
        <time>2021-05-01T11:02:19.972Z</time>
      </trkpt>
      <trkpt lat="45.78554" lon="5.01501">
        <ele>194.91121</ele>
        <time>2021-05-01T11:02:43.230Z</time>
      </trkpt>
      <trkpt lat="45.78612" lon="5.01328">
        <ele>193.742747</ele>
        <time>2021-05-01T11:03:17.927Z</time>
      </trkpt>
      <trkpt lat="45.78642" lon="5.01213">
        <ele>193.355718</ele>
        <time>2021-05-01T11:03:42.002Z</time>
      </trkpt>
      <trkpt lat="45.7865" lon="5.01139">
        <ele>193.25909</ele>
        <time>2021-05-01T11:03:57.306Z</time>
      </trkpt>
      <trkpt lat="45.78651" lon="5.0112">
        <ele>193.23453</ele>
        <time>2021-05-01T11:04:01.358Z</time>
      </trkpt>
      <trkpt lat="45.7865" lon="5.01108">
        <ele>193.219204</ele>
        <time>2021-05-01T11:04:03.678Z</time>
      </trkpt>
      <trkpt lat="45.78645" lon="5.01095">
        <ele>193.200293</ele>
        <time>2021-05-01T11:04:06.431Z</time>
      </trkpt>
      <trkpt lat="45.78637" lon="5.01083">
        <ele>193.178073</ele>
        <time>2021-05-01T11:04:10.111Z</time>
      </trkpt>
      <trkpt lat="45.78624" lon="5.01069">
        <ele>193.148285</ele>
        <time>2021-05-01T11:04:14.935Z</time>
      </trkpt>
      <trkpt lat="45.78604" lon="5.01024">
        <ele>193.080897</ele>
        <time>2021-05-01T11:04:25.933Z</time>
      </trkpt>
      <trkpt lat="45.78592" lon="5.00971">
        <ele>193.013025</ele>
        <time>2021-05-01T11:04:37.210Z</time>
      </trkpt>
      <trkpt lat="45.78586" lon="5.00901">
        <ele>192.926165</ele>
        <time>2021-05-01T11:04:52.248Z</time>
      </trkpt>
      <trkpt lat="45.78583" lon="5.0077">
        <ele>192.695377</ele>
        <time>2021-05-01T11:05:17.413Z</time>
      </trkpt>
      <trkpt lat="45.78602" lon="5.00581">
        <ele>192.031781</ele>
        <time>2021-05-01T11:05:53.922Z</time>
      </trkpt>
      <trkpt lat="45.78617" lon="5.00506">
        <ele>191.837894</ele>
        <time>2021-05-01T11:06:09.456Z</time>
      </trkpt>
      <trkpt lat="45.78636" lon="5.00405">
        <ele>191.665774</ele>
        <time>2021-05-01T11:06:30.467Z</time>
      </trkpt>
      <trkpt lat="45.78641" lon="5.00382">
        <ele>191.625749</ele>
        <time>2021-05-01T11:06:35.377Z</time>
      </trkpt>
      <trkpt lat="45.78667" lon="5.00302">
        <ele>191.479356</ele>
        <time>2021-05-01T11:06:53.147Z</time>
      </trkpt>
      <trkpt lat="45.78697" lon="5.00211">
        <ele>191.232591</ele>
        <time>2021-05-01T11:07:13.292Z</time>
      </trkpt>
      <trkpt lat="45.78727" lon="5.00143">
        <ele>191.036531</ele>
        <time>2021-05-01T11:07:28.999Z</time>
      </trkpt>
      <trkpt lat="45.78811" lon="5">
        <ele>190.332985</ele>
        <time>2021-05-01T11:08:05.016Z</time>
      </trkpt>
      <trkpt lat="45.78857" lon="4.99944">
        <ele>189.923831</ele>
        <time>2021-05-01T11:08:21.372Z</time>
      </trkpt>
      <trkpt lat="45.78895" lon="4.9991">
        <ele>189.606608</ele>
        <time>2021-05-01T11:08:33.100Z</time>
      </trkpt>
      <trkpt lat="45.78977" lon="4.99855">
        <ele>188.422629</ele>
        <time>2021-05-01T11:08:56.231Z</time>
      </trkpt>
      <trkpt lat="45.79005" lon="4.99827">
        <ele>187.977121</ele>
        <time>2021-05-01T11:09:04.734Z</time>
      </trkpt>
      <trkpt lat="45.79069" lon="4.99741">
        <ele>186.812874</ele>
        <time>2021-05-01T11:09:26.576Z</time>
      </trkpt>
      <trkpt lat="45.79083" lon="4.99707">
        <ele>186.44562</ele>
        <time>2021-05-01T11:09:33.409Z</time>
      </trkpt>
      <trkpt lat="45.79099" lon="4.99665">
        <ele>185.991257</ele>
        <time>2021-05-01T11:09:41.837Z</time>
      </trkpt>
      <trkpt lat="45.79124" lon="4.99623">
        <ele>185.474386</ele>
        <time>2021-05-01T11:09:51.476Z</time>
      </trkpt>
      <trkpt lat="45.79213" lon="4.99565">
        <ele>184.512404</ele>
        <time>2021-05-01T11:10:16.362Z</time>
      </trkpt>
      <trkpt lat="45.79238" lon="4.99532">
        <ele>184.289046</ele>
        <time>2021-05-01T11:10:25.248Z</time>
      </trkpt>
      <trkpt lat="45.79269" lon="4.99504">
        <ele>184.045809</ele>
        <time>2021-05-01T11:10:35.161Z</time>
      </trkpt>
      <trkpt lat="45.79328" lon="4.99468">
        <ele>183.694865</ele>
        <time>2021-05-01T11:10:53.716Z</time>
      </trkpt>
      <trkpt lat="45.79378" lon="4.99429">
        <ele>183.913932</ele>
        <time>2021-05-01T11:11:11.584Z</time>
      </trkpt>
      <trkpt lat="45.79413" lon="4.99393">
        <ele>184.075985</ele>
        <time>2021-05-01T11:11:25.932Z</time>
      </trkpt>
      <trkpt lat="45.79427" lon="4.99371">
        <ele>184.155385</ele>
        <time>2021-05-01T11:11:33.291Z</time>
      </trkpt>
      <trkpt lat="45.79448" lon="4.99312">
        <ele>184.333972</ele>
        <time>2021-05-01T11:11:48.948Z</time>
      </trkpt>
      <trkpt lat="45.79464" lon="4.99164">
        <ele>183.382694</ele>
        <time>2021-05-01T11:12:17.184Z</time>
      </trkpt>
      <trkpt lat="45.79463" lon="4.99117">
        <ele>183.057224</ele>
        <time>2021-05-01T11:12:25.408Z</time>
      </trkpt>
      <trkpt lat="45.7946" lon="4.99102">
        <ele>182.947933</ele>
        <time>2021-05-01T11:12:28.188Z</time>
      </trkpt>
      <trkpt lat="45.79479" lon="4.99097">
        <ele>182.756172</ele>
        <time>2021-05-01T11:12:32.333Z</time>
      </trkpt>
      <trkpt lat="45.79554" lon="4.99087">
        <ele>181.577429</ele>
        <time>2021-05-01T11:12:48.287Z</time>
      </trkpt>
      <trkpt lat="45.79566" lon="4.99085">
        <ele>181.36557</ele>
        <time>2021-05-01T11:12:52.977Z</time>
      </trkpt>
      <trkpt lat="45.79566" lon="4.99072">
        <ele>181.210881</ele>
        <time>2021-05-01T11:12:54.990Z</time>
      </trkpt>
      <trkpt lat="45.79562" lon="4.99023">
        <ele>180.613701</ele>
        <time>2021-05-01T11:13:03.092Z</time>
      </trkpt>
      <trkpt lat="45.79554" lon="4.98983">
        <ele>180.118003</ele>
        <time>2021-05-01T11:13:10.177Z</time>
      </trkpt>
      <trkpt lat="45.79545" lon="4.98955">
        <ele>179.741562</ele>
        <time>2021-05-01T11:13:15.596Z</time>
      </trkpt>
      <trkpt lat="45.79523" lon="4.98882">
        <ele>179.22513</ele>
        <time>2021-05-01T11:13:31.043Z</time>
      </trkpt>
      <trkpt lat="45.79519" lon="4.98855">
        <ele>179.107283</ele>
        <time>2021-05-01T11:13:38.980Z</time>
      </trkpt>
      <trkpt lat="45.79509" lon="4.98815">
        <ele>178.921632</ele>
        <time>2021-05-01T11:13:51.661Z</time>
      </trkpt>
      <trkpt lat="45.79479" lon="4.98742">
        <ele>178.553472</ele>
        <time>2021-05-01T11:14:16.876Z</time>
      </trkpt>
      <trkpt lat="45.79473" lon="4.98731">
        <ele>178.494307</ele>
        <time>2021-05-01T11:14:20.819Z</time>
      </trkpt>
      <trkpt lat="45.79473" lon="4.98724">
        <ele>178.466928</ele>
        <time>2021-05-01T11:14:22.716Z</time>
      </trkpt>
      <trkpt lat="45.79476" lon="4.98715">
        <ele>178.422013</ele>
        <time>2021-05-01T11:14:25.796Z</time>
      </trkpt>
      <trkpt lat="45.79477" lon="4.98713">
        <ele>178.412996</ele>
        <time>2021-05-01T11:14:26.436Z</time>
      </trkpt>
      <trkpt lat="45.79483" lon="4.98708">
        <ele>178.370965</ele>
        <time>2021-05-01T11:14:28.228Z</time>
      </trkpt>
      <trkpt lat="45.79487" lon="4.98703">
        <ele>178.331886</ele>
        <time>2021-05-01T11:14:30.649Z</time>
      </trkpt>
      <trkpt lat="45.79485" lon="4.98689">
        <ele>178.254277</ele>
        <time>2021-05-01T11:14:34.916Z</time>
      </trkpt>
      <trkpt lat="45.79428" lon="4.98506">
        <ele>177.217453</ele>
        <time>2021-05-01T11:15:32.605Z</time>
      </trkpt>
      <trkpt lat="45.79404" lon="4.98416">
        <ele>176.841193</ele>
        <time>2021-05-01T11:16:00.040Z</time>
      </trkpt>
      <trkpt lat="45.79375" lon="4.98319">
        <ele>176.515344</ele>
        <time>2021-05-01T11:16:31.029Z</time>
      </trkpt>
      <trkpt lat="45.79372" lon="4.98291">
        <ele>176.430236</ele>
        <time>2021-05-01T11:16:39.309Z</time>
      </trkpt>
      <trkpt lat="45.7937" lon="4.98278">
        <ele>176.388683</ele>
        <time>2021-05-01T11:16:43.214Z</time>
      </trkpt>
      <trkpt lat="45.79359" lon="4.98279">
        <ele>176.340576</ele>
        <time>2021-05-01T11:16:48.391Z</time>
      </trkpt>
      <trkpt lat="45.79362" lon="4.98209">
        <ele>176.331715</ele>
        <time>2021-05-01T11:17:03.220Z</time>
      </trkpt>
      <trkpt lat="45.79371" lon="4.98106">
        <ele>176.671174</ele>
        <time>2021-05-01T11:17:25.983Z</time>
      </trkpt>
      <trkpt lat="45.79371" lon="4.9809">
        <ele>176.723643</ele>
        <time>2021-05-01T11:17:29.289Z</time>
      </trkpt>
      <trkpt lat="45.79367" lon="4.98079">
        <ele>176.764338</ele>
        <time>2021-05-01T11:17:32.324Z</time>
      </trkpt>
      <trkpt lat="45.79363" lon="4.98069">
        <ele>176.803861</ele>
        <time>2021-05-01T11:17:35.175Z</time>
      </trkpt>
      <trkpt lat="45.79361" lon="4.98056">
        <ele>176.846747</ele>
        <time>2021-05-01T11:17:37.821Z</time>
      </trkpt>
      <trkpt lat="45.79371" lon="4.97968">
        <ele>177.113701</ele>
        <time>2021-05-01T11:17:56.954Z</time>
      </trkpt>
      <trkpt lat="45.79398" lon="4.97925">
        <ele>177.235273</ele>
        <time>2021-05-01T11:18:09.466Z</time>
      </trkpt>
      <trkpt lat="45.79423" lon="4.97908">
        <ele>177.318417</ele>
        <time>2021-05-01T11:18:17.466Z</time>
      </trkpt>
      <trkpt lat="45.79436" lon="4.97897">
        <ele>177.365128</ele>
        <time>2021-05-01T11:18:22.224Z</time>
      </trkpt>
      <trkpt lat="45.79444" lon="4.97889">
        <ele>177.392327</ele>
        <time>2021-05-01T11:18:26.081Z</time>
      </trkpt>
      <trkpt lat="45.79461" lon="4.97878">
        <ele>177.450193</ele>
        <time>2021-05-01T11:18:31.135Z</time>
      </trkpt>
      <trkpt lat="45.79532" lon="4.97853">
        <ele>177.590153</ele>
        <time>2021-05-01T11:18:49.759Z</time>
      </trkpt>
      <trkpt lat="45.79541" lon="4.97848">
        <ele>177.579645</ele>
        <time>2021-05-01T11:18:52.217Z</time>
      </trkpt>
      <trkpt lat="45.7955" lon="4.97836">
        <ele>177.56649</ele>
        <time>2021-05-01T11:18:55.183Z</time>
      </trkpt>
      <trkpt lat="45.79557" lon="4.97804">
        <ele>177.540728</ele>
        <time>2021-05-01T11:19:01.618Z</time>
      </trkpt>
      <trkpt lat="45.79562" lon="4.97794">
        <ele>177.531605</ele>
        <time>2021-05-01T11:19:03.670Z</time>
      </trkpt>
      <trkpt lat="45.79577" lon="4.97788">
        <ele>177.514907</ele>
        <time>2021-05-01T11:19:08.223Z</time>
      </trkpt>
      <trkpt lat="45.79586" lon="4.97779">
        <ele>177.50338</ele>
        <time>2021-05-01T11:19:10.995Z</time>
      </trkpt>
      <trkpt lat="45.79593" lon="4.97761">
        <ele>177.487416</ele>
        <time>2021-05-01T11:19:14.622Z</time>
      </trkpt>
      <trkpt lat="45.7963" lon="4.97707">
        <ele>177.43037</ele>
        <time>2021-05-01T11:19:28.757Z</time>
      </trkpt>
      <trkpt lat="45.79658" lon="4.97638">
        <ele>177.553875</ele>
        <time>2021-05-01T11:19:43.636Z</time>
      </trkpt>
      <trkpt lat="45.79671" lon="4.97625">
        <ele>177.601362</ele>
        <time>2021-05-01T11:19:47.902Z</time>
      </trkpt>
      <trkpt lat="45.79681" lon="4.97617">
        <ele>177.63955</ele>
        <time>2021-05-01T11:19:51.149Z</time>
      </trkpt>
      <trkpt lat="45.7971" lon="4.97607">
        <ele>177.734483</ele>
        <time>2021-05-01T11:20:00.165Z</time>
      </trkpt>
      <trkpt lat="45.79719" lon="4.97599">
        <ele>177.767334</ele>
        <time>2021-05-01T11:20:03.137Z</time>
      </trkpt>
      <trkpt lat="45.79724" lon="4.9758">
        <ele>177.811561</ele>
        <time>2021-05-01T11:20:07.422Z</time>
      </trkpt>
      <trkpt lat="45.79719" lon="4.97421">
        <ele>178.119273</ele>
        <time>2021-05-01T11:20:39.142Z</time>
      </trkpt>
      <trkpt lat="45.79714" lon="4.97354">
        <ele>178.229983</ele>
        <time>2021-05-01T11:20:52.574Z</time>
      </trkpt>
      <trkpt lat="45.79713" lon="4.97335">
        <ele>178.261881</ele>
        <time>2021-05-01T11:20:56.142Z</time>
      </trkpt>
      <trkpt lat="45.79715" lon="4.97229">
        <ele>178.369558</ele>
        <time>2021-05-01T11:21:16.258Z</time>
      </trkpt>
      <trkpt lat="45.79714" lon="4.97212">
        <ele>178.319216</ele>
        <time>2021-05-01T11:21:19.257Z</time>
      </trkpt>
      <trkpt lat="45.79712" lon="4.972">
        <ele>178.283458</ele>
        <time>2021-05-01T11:21:22.043Z</time>
      </trkpt>
      <trkpt lat="45.79682" lon="4.97117">
        <ele>178.014344</ele>
        <time>2021-05-01T11:21:38.083Z</time>
      </trkpt>
      <trkpt lat="45.7968" lon="4.97096">
        <ele>177.951877</ele>
        <time>2021-05-01T11:21:41.826Z</time>
      </trkpt>
      <trkpt lat="45.79682" lon="4.97082">
        <ele>177.911032</ele>
        <time>2021-05-01T11:21:44.033Z</time>
      </trkpt>
      <trkpt lat="45.79699" lon="4.9703">
        <ele>177.744069</ele>
        <time>2021-05-01T11:21:53.802Z</time>
      </trkpt>
      <trkpt lat="45.79708" lon="4.97019">
        <ele>177.696341</ele>
        <time>2021-05-01T11:21:56.480Z</time>
      </trkpt>
      <trkpt lat="45.79725" lon="4.97014">
        <ele>177.63868</ele>
        <time>2021-05-01T11:22:01.130Z</time>
      </trkpt>
      <trkpt lat="45.79762" lon="4.97021">
        <ele>177.544475</ele>
        <time>2021-05-01T11:22:10.471Z</time>
      </trkpt>
      <trkpt lat="45.79774" lon="4.97016">
        <ele>177.514192</ele>
        <time>2021-05-01T11:22:13.625Z</time>
      </trkpt>
      <trkpt lat="45.79777" lon="4.97012">
        <ele>177.504163</ele>
        <time>2021-05-01T11:22:14.417Z</time>
      </trkpt>
      <trkpt lat="45.79781" lon="4.96999">
        <ele>177.477839</ele>
        <time>2021-05-01T11:22:17.375Z</time>
      </trkpt>
      <trkpt lat="45.79781" lon="4.96995">
        <ele>177.470811</ele>
        <time>2021-05-01T11:22:18.036Z</time>
      </trkpt>
      <trkpt lat="45.79781" lon="4.96991">
        <ele>177.463964</ele>
        <time>2021-05-01T11:22:18.778Z</time>
      </trkpt>
      <trkpt lat="45.79784" lon="4.96965">
        <ele>177.417882</ele>
        <time>2021-05-01T11:22:23.424Z</time>
      </trkpt>
      <trkpt lat="45.7979" lon="4.96918">
        <ele>177.33438</ele>
        <time>2021-05-01T11:22:32.680Z</time>
      </trkpt>
      <trkpt lat="45.7979" lon="4.96905">
        <ele>177.311901</ele>
        <time>2021-05-01T11:22:34.732Z</time>
      </trkpt>
      <trkpt lat="45.79788" lon="4.96893">
        <ele>177.29035</ele>
        <time>2021-05-01T11:22:37.197Z</time>
      </trkpt>
      <trkpt lat="45.79784" lon="4.96888">
        <ele>177.277181</ele>
        <time>2021-05-01T11:22:38.898Z</time>
      </trkpt>
      <trkpt lat="45.79776" lon="4.96883">
        <ele>177.254176</ele>
        <time>2021-05-01T11:22:41.580Z</time>
      </trkpt>
      <trkpt lat="45.79758" lon="4.96876">
        <ele>177.214172</ele>
        <time>2021-05-01T11:22:46.333Z</time>
      </trkpt>
      <trkpt lat="45.79749" lon="4.9687">
        <ele>177.222385</ele>
        <time>2021-05-01T11:22:49.447Z</time>
      </trkpt>
      <trkpt lat="45.79745" lon="4.9686">
        <ele>177.229384</ele>
        <time>2021-05-01T11:22:51.912Z</time>
      </trkpt>
      <trkpt lat="45.79733" lon="4.96756">
        <ele>177.291135</ele>
        <time>2021-05-01T11:23:13.433Z</time>
      </trkpt>
      <trkpt lat="45.79751" lon="4.96579">
        <ele>177.271076</ele>
        <time>2021-05-01T11:23:47.995Z</time>
      </trkpt>
      <trkpt lat="45.79761" lon="4.9649">
        <ele>177.117985</ele>
        <time>2021-05-01T11:24:04.464Z</time>
      </trkpt>
      <trkpt lat="45.79766" lon="4.96487">
        <ele>177.104898</ele>
        <time>2021-05-01T11:24:05.756Z</time>
      </trkpt>
      <trkpt lat="45.79773" lon="4.96479">
        <ele>177.081546</ele>
        <time>2021-05-01T11:24:08.267Z</time>
      </trkpt>
      <trkpt lat="45.79788" lon="4.96475">
        <ele>177.044069</ele>
        <time>2021-05-01T11:24:12.318Z</time>
      </trkpt>
      <trkpt lat="45.7981" lon="4.96478">
        <ele>176.990791</ele>
        <time>2021-05-01T11:24:17.683Z</time>
      </trkpt>
      <trkpt lat="45.79825" lon="4.9647">
        <ele>176.95311</ele>
        <time>2021-05-01T11:24:21.610Z</time>
      </trkpt>
      <trkpt lat="45.79835" lon="4.96456">
        <ele>176.927754</ele>
        <time>2021-05-01T11:24:25.163Z</time>
      </trkpt>
      <trkpt lat="45.79863" lon="4.9625">
        <ele>177.108059</ele>
        <time>2021-05-01T11:25:05.896Z</time>
      </trkpt>
      <trkpt lat="45.79864" lon="4.96232">
        <ele>177.122831</ele>
        <time>2021-05-01T11:25:09.531Z</time>
      </trkpt>
      <trkpt lat="45.79855" lon="4.96171">
        <ele>177.083153</ele>
        <time>2021-05-01T11:25:21.648Z</time>
      </trkpt>
      <trkpt lat="45.79852" lon="4.96146">
        <ele>177.03813</ele>
        <time>2021-05-01T11:25:26.315Z</time>
      </trkpt>
      <trkpt lat="45.79853" lon="4.9609">
        <ele>176.942368</ele>
        <time>2021-05-01T11:25:36.233Z</time>
      </trkpt>
      <trkpt lat="45.79854" lon="4.96073">
        <ele>176.913101</ele>
        <time>2021-05-01T11:25:39.313Z</time>
      </trkpt>
      <trkpt lat="45.79851" lon="4.96052">
        <ele>176.876542</ele>
        <time>2021-05-01T11:25:42.993Z</time>
      </trkpt>
      <trkpt lat="45.7985" lon="4.96027">
        <ele>176.832345</ele>
        <time>2021-05-01T11:25:47.626Z</time>
      </trkpt>
      <trkpt lat="45.79851" lon="4.95904">
        <ele>176.624712</ele>
        <time>2021-05-01T11:26:08.530Z</time>
      </trkpt>
      <trkpt lat="45.79841" lon="4.95704">
        <ele>176.296099</ele>
        <time>2021-05-01T11:26:44.370Z</time>
      </trkpt>
      <trkpt lat="45.7984" lon="4.95684">
        <ele>176.277476</ele>
        <time>2021-05-01T11:26:48.772Z</time>
      </trkpt>
      <trkpt lat="45.79836" lon="4.95636">
        <ele>176.275733</ele>
        <time>2021-05-01T11:26:58.261Z</time>
      </trkpt>
      <trkpt lat="45.79826" lon="4.95605">
        <ele>176.274487</ele>
        <time>2021-05-01T11:27:04.518Z</time>
      </trkpt>
      <trkpt lat="45.79767" lon="4.95523">
        <ele>176.270246</ele>
        <time>2021-05-01T11:27:27.417Z</time>
      </trkpt>
      <trkpt lat="45.79698" lon="4.95467">
        <ele>175.870386</ele>
        <time>2021-05-01T11:27:46.640Z</time>
      </trkpt>
      <trkpt lat="45.79688" lon="4.95433">
        <ele>175.645249</ele>
        <time>2021-05-01T11:27:52.560Z</time>
      </trkpt>
      <trkpt lat="45.79688" lon="4.95314">
        <ele>174.910733</ele>
        <time>2021-05-01T11:28:11.702Z</time>
      </trkpt>
      <trkpt lat="45.79685" lon="4.95252">
        <ele>174.584408</ele>
        <time>2021-05-01T11:28:21.782Z</time>
      </trkpt>
      <trkpt lat="45.79682" lon="4.95174">
        <ele>174.285775</ele>
        <time>2021-05-01T11:28:34.604Z</time>
      </trkpt>
      <trkpt lat="45.79686" lon="4.95137">
        <ele>174.143866</ele>
        <time>2021-05-01T11:28:40.870Z</time>
      </trkpt>
      <trkpt lat="45.79696" lon="4.95105">
        <ele>174.00888</ele>
        <time>2021-05-01T11:28:46.944Z</time>
      </trkpt>
      <trkpt lat="45.7974" lon="4.95013">
        <ele>173.73441</ele>
        <time>2021-05-01T11:29:07.191Z</time>
      </trkpt>
      <trkpt lat="45.79781" lon="4.94942">
        <ele>173.865631</ele>
        <time>2021-05-01T11:29:25.372Z</time>
      </trkpt>
      <trkpt lat="45.79789" lon="4.94928">
        <ele>173.891494</ele>
        <time>2021-05-01T11:29:28.988Z</time>
      </trkpt>
      <trkpt lat="45.79815" lon="4.94883">
        <ele>173.974972</ele>
        <time>2021-05-01T11:29:40.591Z</time>
      </trkpt>
      <trkpt lat="45.79824" lon="4.94871">
        <ele>173.998757</ele>
        <time>2021-05-01T11:29:44.037Z</time>
      </trkpt>
      <trkpt lat="45.79811" lon="4.94555">
        <ele>174.475206</ele>
        <time>2021-05-01T11:30:45.237Z</time>
      </trkpt>
      <trkpt lat="45.79814" lon="4.94538">
        <ele>174.503671</ele>
        <time>2021-05-01T11:30:48.521Z</time>
      </trkpt>
      <trkpt lat="45.79815" lon="4.94528">
        <ele>174.520634</ele>
        <time>2021-05-01T11:30:50.456Z</time>
      </trkpt>
      <trkpt lat="45.79815" lon="4.94515">
        <ele>174.540956</ele>
        <time>2021-05-01T11:30:52.933Z</time>
      </trkpt>
      <trkpt lat="45.79806" lon="4.94369">
        <ele>174.779244</ele>
        <time>2021-05-01T11:31:21.120Z</time>
      </trkpt>
      <trkpt lat="45.79806" lon="4.94345">
        <ele>174.817003</ele>
        <time>2021-05-01T11:31:26.048Z</time>
      </trkpt>
      <trkpt lat="45.79806" lon="4.94304">
        <ele>174.894101</ele>
        <time>2021-05-01T11:31:34.341Z</time>
      </trkpt>
      <trkpt lat="45.79806" lon="4.94287">
        <ele>174.94121</ele>
        <time>2021-05-01T11:31:37.858Z</time>
      </trkpt>
      <trkpt lat="45.7981" lon="4.9425">
        <ele>175.041876</ele>
        <time>2021-05-01T11:31:45.201Z</time>
      </trkpt>
      <trkpt lat="45.79811" lon="4.94217">
        <ele>175.130955</ele>
        <time>2021-05-01T11:31:51.492Z</time>
      </trkpt>
      <trkpt lat="45.79812" lon="4.94211">
        <ele>175.147183</ele>
        <time>2021-05-01T11:31:52.612Z</time>
      </trkpt>
      <trkpt lat="45.79815" lon="4.94206">
        <ele>175.164728</ele>
        <time>2021-05-01T11:31:54.101Z</time>
      </trkpt>
      <trkpt lat="45.79839" lon="4.94192">
        <ele>175.267236</ele>
        <time>2021-05-01T11:32:01.211Z</time>
      </trkpt>
      <trkpt lat="45.79848" lon="4.9418">
        <ele>175.314928</ele>
        <time>2021-05-01T11:32:05.086Z</time>
      </trkpt>
      <trkpt lat="45.79853" lon="4.94158">
        <ele>175.374894</ele>
        <time>2021-05-01T11:32:09.456Z</time>
      </trkpt>
      <trkpt lat="45.7986" lon="4.94116">
        <ele>175.491745</ele>
        <time>2021-05-01T11:32:18.155Z</time>
      </trkpt>
      <trkpt lat="45.7986" lon="4.94106">
        <ele>175.51937</ele>
        <time>2021-05-01T11:32:20.128Z</time>
      </trkpt>
      <trkpt lat="45.7986" lon="4.94095">
        <ele>175.549175</ele>
        <time>2021-05-01T11:32:22.171Z</time>
      </trkpt>
      <trkpt lat="45.79856" lon="4.94078">
        <ele>175.616788</ele>
        <time>2021-05-01T11:32:26.146Z</time>
      </trkpt>
      <trkpt lat="45.79848" lon="4.94064">
        <ele>175.694965</ele>
        <time>2021-05-01T11:32:29.778Z</time>
      </trkpt>
      <trkpt lat="45.7984" lon="4.94052">
        <ele>175.771479</ele>
        <time>2021-05-01T11:32:33.211Z</time>
      </trkpt>
      <trkpt lat="45.79823" lon="4.94043">
        <ele>175.880283</ele>
        <time>2021-05-01T11:32:38.686Z</time>
      </trkpt>
      <trkpt lat="45.79808" lon="4.94035">
        <ele>175.980282</ele>
        <time>2021-05-01T11:32:43.153Z</time>
      </trkpt>
      <trkpt lat="45.79801" lon="4.94032">
        <ele>176.026386</ele>
        <time>2021-05-01T11:32:45.615Z</time>
      </trkpt>
      <trkpt lat="45.79795" lon="4.93899">
        <ele>176.606455</ele>
        <time>2021-05-01T11:33:13.903Z</time>
      </trkpt>
      <trkpt lat="45.79816" lon="4.93835">
        <ele>176.980228</ele>
        <time>2021-05-01T11:33:29.787Z</time>
      </trkpt>
      <trkpt lat="45.79854" lon="4.93794">
        <ele>177.367712</ele>
        <time>2021-05-01T11:33:45.553Z</time>
      </trkpt>
      <trkpt lat="45.79901" lon="4.9377">
        <ele>177.770377</ele>
        <time>2021-05-01T11:34:01.830Z</time>
      </trkpt>
      <trkpt lat="45.79914" lon="4.93765">
        <ele>177.879354</ele>
        <time>2021-05-01T11:34:06.091Z</time>
      </trkpt>
      <trkpt lat="45.79928" lon="4.9376">
        <ele>177.997556</ele>
        <time>2021-05-01T11:34:10.454Z</time>
      </trkpt>
      <trkpt lat="45.79966" lon="4.93742">
        <ele>178.112124</ele>
        <time>2021-05-01T11:34:22.487Z</time>
      </trkpt>
      <trkpt lat="45.80005" lon="4.93707">
        <ele>178.030304</ele>
        <time>2021-05-01T11:34:35.352Z</time>
      </trkpt>
      <trkpt lat="45.80036" lon="4.9369">
        <ele>177.970485</ele>
        <time>2021-05-01T11:34:44.090Z</time>
      </trkpt>
      <trkpt lat="45.80042" lon="4.93689">
        <ele>177.959379</ele>
        <time>2021-05-01T11:34:46.321Z</time>
      </trkpt>
      <trkpt lat="45.80049" lon="4.93691">
        <ele>177.946844</ele>
        <time>2021-05-01T11:34:47.775Z</time>
      </trkpt>
      <trkpt lat="45.80083" lon="4.93674">
        <ele>177.882785</ele>
        <time>2021-05-01T11:34:57.390Z</time>
      </trkpt>
      <trkpt lat="45.80122" lon="4.93645">
        <ele>177.653938</ele>
        <time>2021-05-01T11:35:08.913Z</time>
      </trkpt>
      <trkpt lat="45.80149" lon="4.93626">
        <ele>177.269233</ele>
        <time>2021-05-01T11:35:16.357Z</time>
      </trkpt>
      <trkpt lat="45.80165" lon="4.93613">
        <ele>177.040932</ele>
        <time>2021-05-01T11:35:20.791Z</time>
      </trkpt>
      <trkpt lat="45.8018" lon="4.93596">
        <ele>176.795137</ele>
        <time>2021-05-01T11:35:25.229Z</time>
      </trkpt>
      <trkpt lat="45.80183" lon="4.93592">
        <ele>176.744082</ele>
        <time>2021-05-01T11:35:26.305Z</time>
      </trkpt>
      <trkpt lat="45.80198" lon="4.93571">
        <ele>176.469531</ele>
        <time>2021-05-01T11:35:31.303Z</time>
      </trkpt>
      <trkpt lat="45.80216" lon="4.9354">
        <ele>176.111932</ele>
        <time>2021-05-01T11:35:37.753Z</time>
      </trkpt>
      <trkpt lat="45.80224" lon="4.93529">
        <ele>175.975859</ele>
        <time>2021-05-01T11:35:40.169Z</time>
      </trkpt>
      <trkpt lat="45.80236" lon="4.9352">
        <ele>175.803708</ele>
        <time>2021-05-01T11:35:43.455Z</time>
      </trkpt>
      <trkpt lat="45.80248" lon="4.93515">
        <ele>175.650499</ele>
        <time>2021-05-01T11:35:45.931Z</time>
      </trkpt>
      <trkpt lat="45.80261" lon="4.93508">
        <ele>175.440914</ele>
        <time>2021-05-01T11:35:49.136Z</time>
      </trkpt>
      <trkpt lat="45.80274" lon="4.935">
        <ele>175.179406</ele>
        <time>2021-05-01T11:35:52.558Z</time>
      </trkpt>
      <trkpt lat="45.80283" lon="4.93487">
        <ele>174.947758</ele>
        <time>2021-05-01T11:35:55.285Z</time>
      </trkpt>
      <trkpt lat="45.80295" lon="4.93441">
        <ele>174.330641</ele>
        <time>2021-05-01T11:36:02.947Z</time>
      </trkpt>
      <trkpt lat="45.80315" lon="4.93426">
        <ele>173.919731</ele>
        <time>2021-05-01T11:36:08.257Z</time>
      </trkpt>
      <trkpt lat="45.80318" lon="4.9342">
        <ele>173.825524</ele>
        <time>2021-05-01T11:36:09.269Z</time>
      </trkpt>
      <trkpt lat="45.80329" lon="4.93412">
        <ele>173.601309</ele>
        <time>2021-05-01T11:36:11.964Z</time>
      </trkpt>
      <trkpt lat="45.80357" lon="4.93398">
        <ele>173.052781</ele>
        <time>2021-05-01T11:36:18.626Z</time>
      </trkpt>
      <trkpt lat="45.80462" lon="4.93353">
        <ele>172.069114</ele>
        <time>2021-05-01T11:36:43.798Z</time>
      </trkpt>
      <trkpt lat="45.80481" lon="4.93346">
        <ele>172.002442</ele>
        <time>2021-05-01T11:36:48.938Z</time>
      </trkpt>
      <trkpt lat="45.80486" lon="4.93348">
        <ele>171.985123</ele>
        <time>2021-05-01T11:36:50.255Z</time>
      </trkpt>
      <trkpt lat="45.80494" lon="4.93348">
        <ele>171.959526</ele>
        <time>2021-05-01T11:36:52.274Z</time>
      </trkpt>
      <trkpt lat="45.80499" lon="4.93348">
        <ele>171.943509</ele>
        <time>2021-05-01T11:36:53.652Z</time>
      </trkpt>
      <trkpt lat="45.8052" lon="4.93344">
        <ele>171.874248</ele>
        <time>2021-05-01T11:37:00.027Z</time>
      </trkpt>
      <trkpt lat="45.80591" lon="4.93366">
        <ele>171.922636</ele>
        <time>2021-05-01T11:37:22.991Z</time>
      </trkpt>
      <trkpt lat="45.80617" lon="4.93351">
        <ele>172.266107</ele>
        <time>2021-05-01T11:37:32.148Z</time>
      </trkpt>
      <trkpt lat="45.80635" lon="4.93324">
        <ele>172.589537</ele>
        <time>2021-05-01T11:37:40.816Z</time>
      </trkpt>
      <trkpt lat="45.80633" lon="4.93319">
        <ele>172.639716</ele>
        <time>2021-05-01T11:37:42.038Z</time>
      </trkpt>
      <trkpt lat="45.80632" lon="4.93317">
        <ele>172.662241</ele>
        <time>2021-05-01T11:37:43.035Z</time>
      </trkpt>
      <trkpt lat="45.8063" lon="4.93313">
        <ele>172.705182</ele>
        <time>2021-05-01T11:37:44.081Z</time>
      </trkpt>
      <trkpt lat="45.80628" lon="4.9331">
        <ele>172.741793</ele>
        <time>2021-05-01T11:37:45.314Z</time>
      </trkpt>
      <trkpt lat="45.80625" lon="4.93284">
        <ele>172.965664</ele>
        <time>2021-05-01T11:37:51.512Z</time>
      </trkpt>
      <trkpt lat="45.80633" lon="4.9326">
        <ele>173.194338</ele>
        <time>2021-05-01T11:37:58.067Z</time>
      </trkpt>
      <trkpt lat="45.80634" lon="4.93257">
        <ele>173.223441</ele>
        <time>2021-05-01T11:37:59.052Z</time>
      </trkpt>
      <trkpt lat="45.80636" lon="4.93255">
        <ele>173.259463</ele>
        <time>2021-05-01T11:37:59.968Z</time>
      </trkpt>
      <trkpt lat="45.80641" lon="4.93252">
        <ele>173.317914</ele>
        <time>2021-05-01T11:38:01.644Z</time>
      </trkpt>
      <trkpt lat="45.80669" lon="4.93251">
        <ele>173.662383</ele>
        <time>2021-05-01T11:38:11.274Z</time>
      </trkpt>
      <trkpt lat="45.8068" lon="4.93241">
        <ele>173.826314</ele>
        <time>2021-05-01T11:38:15.625Z</time>
      </trkpt>
      <trkpt lat="45.80718" lon="4.93185">
        <ele>174.482637</ele>
        <time>2021-05-01T11:38:34.634Z</time>
      </trkpt>
      <trkpt lat="45.8072" lon="4.93183">
        <ele>174.513323</ele>
        <time>2021-05-01T11:38:35.904Z</time>
      </trkpt>
      <trkpt lat="45.80776" lon="4.93124">
        <ele>175.351875</ele>
        <time>2021-05-01T11:38:59.188Z</time>
      </trkpt>
      <trkpt lat="45.80817" lon="4.93095">
        <ele>175.898464</ele>
        <time>2021-05-01T11:39:14.067Z</time>
      </trkpt>
      <trkpt lat="45.80823" lon="4.9309">
        <ele>175.980186</ele>
        <time>2021-05-01T11:39:16.521Z</time>
      </trkpt>
      <trkpt lat="45.80851" lon="4.93065">
        <ele>176.213397</ele>
        <time>2021-05-01T11:39:32.478Z</time>
      </trkpt>
      <trkpt lat="45.80855" lon="4.93059">
        <ele>176.246278</ele>
        <time>2021-05-01T11:39:35.353Z</time>
      </trkpt>
      <trkpt lat="45.80859" lon="4.93051">
        <ele>176.287911</ele>
        <time>2021-05-01T11:39:38.758Z</time>
      </trkpt>
      <trkpt lat="45.80861" lon="4.93048">
        <ele>176.305696</ele>
        <time>2021-05-01T11:39:40.187Z</time>
      </trkpt>
      <trkpt lat="45.80865" lon="4.93042">
        <ele>176.337605</ele>
        <time>2021-05-01T11:39:42.814Z</time>
      </trkpt>
      <trkpt lat="45.80884" lon="4.93016">
        <ele>176.490215</ele>
        <time>2021-05-01T11:39:55.523Z</time>
      </trkpt>
      <trkpt lat="45.80931" lon="4.92983">
        <ele>176.792446</ele>
        <time>2021-05-01T11:40:20.073Z</time>
      </trkpt>
      <trkpt lat="45.80956" lon="4.92981">
        <ele>176.934448</ele>
        <time>2021-05-01T11:40:31.692Z</time>
      </trkpt>
      <trkpt lat="45.80976" lon="4.92981">
        <ele>177.051979</ele>
        <time>2021-05-01T11:40:37.334Z</time>
      </trkpt>
      <trkpt lat="45.80998" lon="4.9299">
        <ele>177.130851</ele>
        <time>2021-05-01T11:40:43.550Z</time>
      </trkpt>
      <trkpt lat="45.81029" lon="4.93008">
        <ele>177.196613</ele>
        <time>2021-05-01T11:40:52.628Z</time>
      </trkpt>
      <trkpt lat="45.81053" lon="4.93032">
        <ele>177.254286</ele>
        <time>2021-05-01T11:41:00.588Z</time>
      </trkpt>
      <trkpt lat="45.81107" lon="4.93106">
        <ele>177.400603</ele>
        <time>2021-05-01T11:41:21.441Z</time>
      </trkpt>
      <trkpt lat="45.81151" lon="4.93191">
        <ele>177.407727</ele>
        <time>2021-05-01T11:41:41.443Z</time>
      </trkpt>
      <trkpt lat="45.8117" lon="4.93212">
        <ele>177.380923</ele>
        <time>2021-05-01T11:41:47.826Z</time>
      </trkpt>
      <trkpt lat="45.81182" lon="4.93227">
        <ele>177.362104</ele>
        <time>2021-05-01T11:41:52.079Z</time>
      </trkpt>
      <trkpt lat="45.81193" lon="4.93245">
        <ele>177.342938</ele>
        <time>2021-05-01T11:41:56.640Z</time>
      </trkpt>
      <trkpt lat="45.81204" lon="4.93263">
        <ele>177.324503</ele>
        <time>2021-05-01T11:42:00.715Z</time>
      </trkpt>
      <trkpt lat="45.81246" lon="4.93318">
        <ele>177.259637</ele>
        <time>2021-05-01T11:42:15.595Z</time>
      </trkpt>
      <trkpt lat="45.8125" lon="4.93331">
        <ele>177.227564</ele>
        <time>2021-05-01T11:42:17.947Z</time>
      </trkpt>
      <trkpt lat="45.81287" lon="4.93416">
        <ele>176.837522</ele>
        <time>2021-05-01T11:42:35.398Z</time>
      </trkpt>
      <trkpt lat="45.81311" lon="4.93454">
        <ele>176.64179</ele>
        <time>2021-05-01T11:42:43.796Z</time>
      </trkpt>
      <trkpt lat="45.8135" lon="4.93532">
        <ele>176.269888</ele>
        <time>2021-05-01T11:42:59.967Z</time>
      </trkpt>
      <trkpt lat="45.81356" lon="4.93542">
        <ele>176.233557</ele>
        <time>2021-05-01T11:43:02.090Z</time>
      </trkpt>
      <trkpt lat="45.81368" lon="4.93565">
        <ele>176.162512</ele>
        <time>2021-05-01T11:43:07.242Z</time>
      </trkpt>
      <trkpt lat="45.81401" lon="4.93639">
        <ele>175.949895</ele>
        <time>2021-05-01T11:43:22.415Z</time>
      </trkpt>
      <trkpt lat="45.81417" lon="4.93675">
        <ele>175.843738</ele>
        <time>2021-05-01T11:43:29.995Z</time>
      </trkpt>
      <trkpt lat="45.81414" lon="4.93678">
        <ele>175.829995</ele>
        <time>2021-05-01T11:43:31.095Z</time>
      </trkpt>
      <trkpt lat="45.81409" lon="4.93682">
        <ele>175.811309</ele>
        <time>2021-05-01T11:43:32.540Z</time>
      </trkpt>
      <trkpt lat="45.8147" lon="4.93822">
        <ele>175.777908</ele>
        <time>2021-05-01T11:44:02.348Z</time>
      </trkpt>
      <trkpt lat="45.81473" lon="4.93828">
        <ele>175.789544</ele>
        <time>2021-05-01T11:44:03.823Z</time>
      </trkpt>
      <trkpt lat="45.81476" lon="4.93834">
        <ele>175.802294</ele>
        <time>2021-05-01T11:44:05.266Z</time>
      </trkpt>
      <trkpt lat="45.81547" lon="4.93996">
        <ele>176.194362</ele>
        <time>2021-05-01T11:44:43.933Z</time>
      </trkpt>
      <trkpt lat="45.81552" lon="4.94008">
        <ele>176.239962</ele>
        <time>2021-05-01T11:44:46.886Z</time>
      </trkpt>
      <trkpt lat="45.81684" lon="4.94296">
        <ele>177.12176</ele>
        <time>2021-05-01T11:45:56.554Z</time>
      </trkpt>
      <trkpt lat="45.81691" lon="4.9431">
        <ele>177.141742</ele>
        <time>2021-05-01T11:45:59.212Z</time>
      </trkpt>
      <trkpt lat="45.81724" lon="4.94384">
        <ele>177.245302</ele>
        <time>2021-05-01T11:46:15.928Z</time>
      </trkpt>
      <trkpt lat="45.81727" lon="4.94391">
        <ele>177.254943</ele>
        <time>2021-05-01T11:46:17.144Z</time>
      </trkpt>
      <trkpt lat="45.81733" lon="4.94404">
        <ele>177.282531</ele>
        <time>2021-05-01T11:46:19.819Z</time>
      </trkpt>
      <trkpt lat="45.81828" lon="4.9463">
        <ele>177.856315</ele>
        <time>2021-05-01T11:47:12.727Z</time>
      </trkpt>
      <trkpt lat="45.81866" lon="4.94747">
        <ele>178.024564</ele>
        <time>2021-05-01T11:47:38.247Z</time>
      </trkpt>
      <trkpt lat="45.81886" lon="4.9481">
        <ele>178.114269</ele>
        <time>2021-05-01T11:47:50.049Z</time>
      </trkpt>
      <trkpt lat="45.81894" lon="4.94803">
        <ele>178.132295</ele>
        <time>2021-05-01T11:47:53.963Z</time>
      </trkpt>
      <trkpt lat="45.81902" lon="4.94798">
        <ele>178.148226</ele>
        <time>2021-05-01T11:47:56.287Z</time>
      </trkpt>
      <trkpt lat="45.81998" lon="4.94734">
        <ele>179.125572</ele>
        <time>2021-05-01T11:48:29.247Z</time>
      </trkpt>
      <trkpt lat="45.82002" lon="4.94731">
        <ele>179.181636</ele>
        <time>2021-05-01T11:48:32.394Z</time>
      </trkpt>
      <trkpt lat="45.82007" lon="4.94728">
        <ele>179.232143</ele>
        <time>2021-05-01T11:48:34.173Z</time>
      </trkpt>
      <trkpt lat="45.82023" lon="4.9472">
        <ele>179.407917</ele>
        <time>2021-05-01T11:48:39.591Z</time>
      </trkpt>
      <trkpt lat="45.82033" lon="4.94716">
        <ele>179.513697</ele>
        <time>2021-05-01T11:48:41.893Z</time>
      </trkpt>
      <trkpt lat="45.82036" lon="4.94719">
        <ele>179.548371</ele>
        <time>2021-05-01T11:48:44.329Z</time>
      </trkpt>
      <trkpt lat="45.82104" lon="4.94705">
        <ele>180.05294</ele>
        <time>2021-05-01T11:49:05.707Z</time>
      </trkpt>
      <trkpt lat="45.82113" lon="4.94711">
        <ele>180.060623</ele>
        <time>2021-05-01T11:49:10.511Z</time>
      </trkpt>
      <trkpt lat="45.82126" lon="4.9472">
        <ele>180.071476</ele>
        <time>2021-05-01T11:49:15.195Z</time>
      </trkpt>
      <trkpt lat="45.82147" lon="4.94715">
        <ele>180.088239</ele>
        <time>2021-05-01T11:49:23.072Z</time>
      </trkpt>
      <trkpt lat="45.8215" lon="4.94709">
        <ele>180.091918</ele>
        <time>2021-05-01T11:49:25.205Z</time>
      </trkpt>
      <trkpt lat="45.82145" lon="4.94693">
        <ele>180.101695</ele>
        <time>2021-05-01T11:49:28.739Z</time>
      </trkpt>
      <trkpt lat="45.82148" lon="4.94691">
        <ele>180.103902</ele>
        <time>2021-05-01T11:49:29.334Z</time>
      </trkpt>
      <trkpt lat="45.82077" lon="4.94471">
        <ele>179.224843</ele>
        <time>2021-05-01T11:50:10.425Z</time>
      </trkpt>
      <trkpt lat="45.82069" lon="4.9445">
        <ele>179.01545</ele>
        <time>2021-05-01T11:50:14.165Z</time>
      </trkpt>
      <trkpt lat="45.82063" lon="4.94453">
        <ele>178.936672</ele>
        <time>2021-05-01T11:50:15.629Z</time>
      </trkpt>
      <trkpt lat="45.82059" lon="4.94442">
        <ele>178.837463</ele>
        <time>2021-05-01T11:50:17.455Z</time>
      </trkpt>
      <trkpt lat="45.82042" lon="4.94392">
        <ele>178.357015</ele>
        <time>2021-05-01T11:50:26.090Z</time>
      </trkpt>
      <trkpt lat="45.82033" lon="4.94365">
        <ele>178.101011</ele>
        <time>2021-05-01T11:50:30.794Z</time>
      </trkpt>
      <trkpt lat="45.82007" lon="4.94289">
        <ele>177.893745</ele>
        <time>2021-05-01T11:50:44.589Z</time>
      </trkpt>
      <trkpt lat="45.81991" lon="4.94242">
        <ele>177.836839</ele>
        <time>2021-05-01T11:50:53.720Z</time>
      </trkpt>
      <trkpt lat="45.81973" lon="4.94189">
        <ele>177.773067</ele>
        <time>2021-05-01T11:51:05.189Z</time>
      </trkpt>
      <trkpt lat="45.81981" lon="4.94184">
        <ele>177.759791</ele>
        <time>2021-05-01T11:51:08.024Z</time>
      </trkpt>
      <trkpt lat="45.81908" lon="4.93973">
        <ele>179.254784</ele>
        <time>2021-05-01T11:51:56.902Z</time>
      </trkpt>
      <trkpt lat="45.81891" lon="4.93924">
        <ele>179.765102</ele>
        <time>2021-05-01T11:52:09.422Z</time>
      </trkpt>
      <trkpt lat="45.81882" lon="4.93921">
        <ele>179.889019</ele>
        <time>2021-05-01T11:52:15.331Z</time>
      </trkpt>
      <trkpt lat="45.81827" lon="4.93762">
        <ele>186.837898</ele>
        <time>2021-05-01T11:53:12.711Z</time>
      </trkpt>
      <trkpt lat="45.81822" lon="4.93748">
        <ele>187.508383</ele>
        <time>2021-05-01T11:53:17.954Z</time>
      </trkpt>
      <trkpt lat="45.81826" lon="4.93746">
        <ele>187.717333</ele>
        <time>2021-05-01T11:53:22.621Z</time>
      </trkpt>
      <trkpt lat="45.81872" lon="4.93654">
        <ele>194.133116</ele>
        <time>2021-05-01T11:54:19.697Z</time>
      </trkpt>
      <trkpt lat="45.81917" lon="4.93592">
        <ele>202.11237</ele>
        <time>2021-05-01T11:55:11.513Z</time>
      </trkpt>
      <trkpt lat="45.81922" lon="4.93588">
        <ele>202.924654</ele>
        <time>2021-05-01T11:55:20.365Z</time>
      </trkpt>
      <trkpt lat="45.81929" lon="4.93581">
        <ele>203.967088</ele>
        <time>2021-05-01T11:55:27.883Z</time>
      </trkpt>
      <trkpt lat="45.81932" lon="4.93575">
        <ele>204.627351</ele>
        <time>2021-05-01T11:55:31.471Z</time>
      </trkpt>
      <trkpt lat="45.81934" lon="4.93568">
        <ele>205.294484</ele>
        <time>2021-05-01T11:55:35.180Z</time>
      </trkpt>
      <trkpt lat="45.81933" lon="4.93559">
        <ele>206.109049</ele>
        <time>2021-05-01T11:55:40.228Z</time>
      </trkpt>
      <trkpt lat="45.81914" lon="4.9352">
        <ele>210.407698</ele>
        <time>2021-05-01T11:56:11.116Z</time>
      </trkpt>
      <trkpt lat="45.8191" lon="4.93513">
        <ele>211.192648</ele>
        <time>2021-05-01T11:56:16.203Z</time>
      </trkpt>
      <trkpt lat="45.81923" lon="4.93498">
        <ele>213.355458</ele>
        <time>2021-05-01T11:56:35.482Z</time>
      </trkpt>
      <trkpt lat="45.81972" lon="4.93456">
        <ele>223.670616</ele>
        <time>2021-05-01T11:57:33.484Z</time>
      </trkpt>
      <trkpt lat="45.8199" lon="4.93429">
        <ele>228.597748</ele>
        <time>2021-05-01T11:58:07.617Z</time>
      </trkpt>
      <trkpt lat="45.81999" lon="4.93396">
        <ele>233.185547</ele>
        <time>2021-05-01T11:58:34.695Z</time>
      </trkpt>
      <trkpt lat="45.82012" lon="4.93297">
        <ele>246.457491</ele>
        <time>2021-05-01T12:00:04.645Z</time>
      </trkpt>
      <trkpt lat="45.82013" lon="4.93287">
        <ele>247.78466</ele>
        <time>2021-05-01T12:00:14.560Z</time>
      </trkpt>
      <trkpt lat="45.82011" lon="4.93278">
        <ele>248.934215</ele>
        <time>2021-05-01T12:00:23.206Z</time>
      </trkpt>
      <trkpt lat="45.81994" lon="4.9326">
        <ele>252.736461</ele>
        <time>2021-05-01T12:00:44.374Z</time>
      </trkpt>
      <trkpt lat="45.81989" lon="4.93257">
        <ele>253.838775</ele>
        <time>2021-05-01T12:00:52.811Z</time>
      </trkpt>
      <trkpt lat="45.81998" lon="4.93235">
        <ele>257.132855</ele>
        <time>2021-05-01T12:01:17.704Z</time>
      </trkpt>
      <trkpt lat="45.82016" lon="4.93221">
        <ele>260.927546</ele>
        <time>2021-05-01T12:01:43.769Z</time>
      </trkpt>
      <trkpt lat="45.82034" lon="4.93197">
        <ele>265.379442</ele>
        <time>2021-05-01T12:02:09.346Z</time>
      </trkpt>
      <trkpt lat="45.82041" lon="4.93174">
        <ele>268.586602</ele>
        <time>2021-05-01T12:02:33.698Z</time>
      </trkpt>
      <trkpt lat="45.82045" lon="4.93149">
        <ele>271.838457</ele>
        <time>2021-05-01T12:02:48.769Z</time>
      </trkpt>
      <trkpt lat="45.8206" lon="4.93099">
        <ele>278.77957</ele>
        <time>2021-05-01T12:03:29.992Z</time>
      </trkpt>
      <trkpt lat="45.82068" lon="4.93076">
        <ele>281.264241</ele>
        <time>2021-05-01T12:03:49.599Z</time>
      </trkpt>
      <trkpt lat="45.82073" lon="4.9307">
        <ele>281.775781</ele>
        <time>2021-05-01T12:03:56.075Z</time>
      </trkpt>
      <trkpt lat="45.82079" lon="4.93062">
        <ele>282.378511</ele>
        <time>2021-05-01T12:04:01.343Z</time>
      </trkpt>
      <trkpt lat="45.82081" lon="4.93061">
        <ele>282.505809</ele>
        <time>2021-05-01T12:04:02.462Z</time>
      </trkpt>
      <trkpt lat="45.82076" lon="4.93046">
        <ele>283.366015</ele>
        <time>2021-05-01T12:04:12.546Z</time>
      </trkpt>
      <trkpt lat="45.82068" lon="4.92989">
        <ele>286.332128</ele>
        <time>2021-05-01T12:04:42.565Z</time>
      </trkpt>
      <trkpt lat="45.82065" lon="4.92964">
        <ele>287.680667</ele>
        <time>2021-05-01T12:04:53.747Z</time>
      </trkpt>
      <trkpt lat="45.8207" lon="4.92945">
        <ele>288.739705</ele>
        <time>2021-05-01T12:05:00.723Z</time>
      </trkpt>
      <trkpt lat="45.82081" lon="4.92918">
        <ele>290.370265</ele>
        <time>2021-05-01T12:05:09.971Z</time>
      </trkpt>
      <trkpt lat="45.82086" lon="4.92905">
        <ele>291.130095</ele>
        <time>2021-05-01T12:05:14.627Z</time>
      </trkpt>
      <trkpt lat="45.82098" lon="4.92874">
        <ele>292.926316</ele>
        <time>2021-05-01T12:05:25.293Z</time>
      </trkpt>
      <trkpt lat="45.82113" lon="4.92837">
        <ele>294.421283</ele>
        <time>2021-05-01T12:05:36.353Z</time>
      </trkpt>
      <trkpt lat="45.82139" lon="4.9278">
        <ele>295.30538</ele>
        <time>2021-05-01T12:05:53.211Z</time>
      </trkpt>
      <trkpt lat="45.82142" lon="4.92768">
        <ele>295.485317</ele>
        <time>2021-05-01T12:05:56.586Z</time>
      </trkpt>
      <trkpt lat="45.82151" lon="4.92745">
        <ele>295.830391</ele>
        <time>2021-05-01T12:06:03.463Z</time>
      </trkpt>
      <trkpt lat="45.82155" lon="4.92739">
        <ele>295.931165</ele>
        <time>2021-05-01T12:06:05.247Z</time>
      </trkpt>
      <trkpt lat="45.82162" lon="4.92723">
        <ele>296.188684</ele>
        <time>2021-05-01T12:06:09.918Z</time>
      </trkpt>
      <trkpt lat="45.82171" lon="4.92709">
        <ele>296.440772</ele>
        <time>2021-05-01T12:06:14.684Z</time>
      </trkpt>
      <trkpt lat="45.82179" lon="4.92697">
        <ele>296.651044</ele>
        <time>2021-05-01T12:06:18.546Z</time>
      </trkpt>
      <trkpt lat="45.82196" lon="4.92664">
        <ele>297.194622</ele>
        <time>2021-05-01T12:06:28.311Z</time>
      </trkpt>
      <trkpt lat="45.8221" lon="4.92642">
        <ele>297.57818</ele>
        <time>2021-05-01T12:06:35.382Z</time>
      </trkpt>
      <trkpt lat="45.8222" lon="4.9263">
        <ele>297.709609</ele>
        <time>2021-05-01T12:06:39.643Z</time>
      </trkpt>
      <trkpt lat="45.82224" lon="4.92625">
        <ele>297.766486</ele>
        <time>2021-05-01T12:06:41.390Z</time>
      </trkpt>
      <trkpt lat="45.82254" lon="4.92594">
        <ele>298.147975</ele>
        <time>2021-05-01T12:06:53.733Z</time>
      </trkpt>
      <trkpt lat="45.8228" lon="4.92565">
        <ele>298.495885</ele>
        <time>2021-05-01T12:07:04.643Z</time>
      </trkpt>
      <trkpt lat="45.82286" lon="4.92558">
        <ele>298.572101</ele>
        <time>2021-05-01T12:07:07.209Z</time>
      </trkpt>
      <trkpt lat="45.82351" lon="4.92491">
        <ele>299.407902</ele>
        <time>2021-05-01T12:07:31.179Z</time>
      </trkpt>
      <trkpt lat="45.82366" lon="4.92476">
        <ele>299.457087</ele>
        <time>2021-05-01T12:07:36.333Z</time>
      </trkpt>
      <trkpt lat="45.82371" lon="4.92473">
        <ele>299.466077</ele>
        <time>2021-05-01T12:07:38.247Z</time>
      </trkpt>
      <trkpt lat="45.8239" lon="4.92463">
        <ele>299.496224</ele>
        <time>2021-05-01T12:07:43.771Z</time>
      </trkpt>
      <trkpt lat="45.82412" lon="4.92449">
        <ele>299.533647</ele>
        <time>2021-05-01T12:07:50.950Z</time>
      </trkpt>
      <trkpt lat="45.8241" lon="4.92436">
        <ele>299.547408</ele>
        <time>2021-05-01T12:07:53.379Z</time>
      </trkpt>
      <trkpt lat="45.82402" lon="4.92315">
        <ele>299.677055</ele>
        <time>2021-05-01T12:08:16.373Z</time>
      </trkpt>
      <trkpt lat="45.82406" lon="4.92277">
        <ele>299.648308</ele>
        <time>2021-05-01T12:08:23.345Z</time>
      </trkpt>
      <trkpt lat="45.82417" lon="4.92227">
        <ele>299.297073</ele>
        <time>2021-05-01T12:08:32.413Z</time>
      </trkpt>
      <trkpt lat="45.82453" lon="4.92115">
        <ele>298.473828</ele>
        <time>2021-05-01T12:08:51.746Z</time>
      </trkpt>
      <trkpt lat="45.82458" lon="4.92077">
        <ele>298.219995</ele>
        <time>2021-05-01T12:08:58.059Z</time>
      </trkpt>
      <trkpt lat="45.82456" lon="4.92026">
        <ele>297.846507</ele>
        <time>2021-05-01T12:09:06.284Z</time>
      </trkpt>
      <trkpt lat="45.82453" lon="4.92015">
        <ele>297.74399</ele>
        <time>2021-05-01T12:09:08.029Z</time>
      </trkpt>
      <trkpt lat="45.82446" lon="4.91995">
        <ele>297.552978</ele>
        <time>2021-05-01T12:09:11.677Z</time>
      </trkpt>
      <trkpt lat="45.82432" lon="4.91964">
        <ele>297.22763</ele>
        <time>2021-05-01T12:09:17.517Z</time>
      </trkpt>
      <trkpt lat="45.82423" lon="4.91951">
        <ele>297.071939</ele>
        <time>2021-05-01T12:09:20.357Z</time>
      </trkpt>
      <trkpt lat="45.82412" lon="4.91938">
        <ele>296.896649</ele>
        <time>2021-05-01T12:09:23.453Z</time>
      </trkpt>
      <trkpt lat="45.82402" lon="4.91928">
        <ele>296.748822</ele>
        <time>2021-05-01T12:09:26.040Z</time>
      </trkpt>
      <trkpt lat="45.82403" lon="4.9192">
        <ele>296.677817</ele>
        <time>2021-05-01T12:09:27.465Z</time>
      </trkpt>
      <trkpt lat="45.8238" lon="4.91858">
        <ele>296.074181</ele>
        <time>2021-05-01T12:09:38.963Z</time>
      </trkpt>
      <trkpt lat="45.82374" lon="4.91851">
        <ele>295.972923</ele>
        <time>2021-05-01T12:09:40.756Z</time>
      </trkpt>
      <trkpt lat="45.82361" lon="4.91847">
        <ele>295.816964</ele>
        <time>2021-05-01T12:09:43.807Z</time>
      </trkpt>
      <trkpt lat="45.82356" lon="4.91847">
        <ele>295.755158</ele>
        <time>2021-05-01T12:09:45.062Z</time>
      </trkpt>
      <trkpt lat="45.82351" lon="4.91844">
        <ele>295.716496</ele>
        <time>2021-05-01T12:09:46.470Z</time>
      </trkpt>
      <trkpt lat="45.82349" lon="4.91839">
        <ele>295.686072</ele>
        <time>2021-05-01T12:09:47.522Z</time>
      </trkpt>
      <trkpt lat="45.82343" lon="4.91819">
        <ele>295.582962</ele>
        <time>2021-05-01T12:09:51.270Z</time>
      </trkpt>
      <trkpt lat="45.82339" lon="4.91806">
        <ele>295.513596</ele>
        <time>2021-05-01T12:09:53.631Z</time>
      </trkpt>
      <trkpt lat="45.82336" lon="4.91793">
        <ele>295.447317</ele>
        <time>2021-05-01T12:09:55.991Z</time>
      </trkpt>
      <trkpt lat="45.82334" lon="4.91781">
        <ele>295.388628</ele>
        <time>2021-05-01T12:09:58.103Z</time>
      </trkpt>
      <trkpt lat="45.82335" lon="4.91679">
        <ele>294.899702</ele>
        <time>2021-05-01T12:10:15.363Z</time>
      </trkpt>
      <trkpt lat="45.82351" lon="4.91655">
        <ele>294.740592</ele>
        <time>2021-05-01T12:10:21.300Z</time>
      </trkpt>
      <trkpt lat="45.82366" lon="4.91634">
        <ele>294.595868</ele>
        <time>2021-05-01T12:10:26.808Z</time>
      </trkpt>
      <trkpt lat="45.82368" lon="4.91629">
        <ele>294.565784</ele>
        <time>2021-05-01T12:10:27.865Z</time>
      </trkpt>
      <trkpt lat="45.82367" lon="4.91599">
        <ele>294.725726</ele>
        <time>2021-05-01T12:10:33.726Z</time>
      </trkpt>
      <trkpt lat="45.82361" lon="4.91576">
        <ele>294.98981</ele>
        <time>2021-05-01T12:10:39.076Z</time>
      </trkpt>
      <trkpt lat="45.8235" lon="4.91546">
        <ele>295.34528</ele>
        <time>2021-05-01T12:10:46.396Z</time>
      </trkpt>
      <trkpt lat="45.82345" lon="4.91529">
        <ele>295.538848</ele>
        <time>2021-05-01T12:10:52.847Z</time>
      </trkpt>
      <trkpt lat="45.8234" lon="4.91407">
        <ele>296.838112</ele>
        <time>2021-05-01T12:11:38.004Z</time>
      </trkpt>
      <trkpt lat="45.82311" lon="4.91258">
        <ele>299.6301</ele>
        <time>2021-05-01T12:12:42.849Z</time>
      </trkpt>
      <trkpt lat="45.82304" lon="4.91205">
        <ele>300.752258</ele>
        <time>2021-05-01T12:13:05.402Z</time>
      </trkpt>
      <trkpt lat="45.82298" lon="4.9116">
        <ele>301.691187</ele>
        <time>2021-05-01T12:13:24.129Z</time>
      </trkpt>
      <trkpt lat="45.82293" lon="4.91055">
        <ele>303.344843</ele>
        <time>2021-05-01T12:14:06.675Z</time>
      </trkpt>
      <trkpt lat="45.82296" lon="4.90958">
        <ele>304.505714</ele>
        <time>2021-05-01T12:14:43.173Z</time>
      </trkpt>
      <trkpt lat="45.82306" lon="4.90893">
        <ele>305.305071</ele>
        <time>2021-05-01T12:15:06.401Z</time>
      </trkpt>
      <trkpt lat="45.82329" lon="4.90804">
        <ele>305.598056</ele>
        <time>2021-05-01T12:15:37.539Z</time>
      </trkpt>
      <trkpt lat="45.82328" lon="4.90789">
        <ele>305.575159</ele>
        <time>2021-05-01T12:15:42.394Z</time>
      </trkpt>
      <trkpt lat="45.82337" lon="4.90758">
        <ele>305.521637</ele>
        <time>2021-05-01T12:15:48.381Z</time>
      </trkpt>
      <trkpt lat="45.82342" lon="4.90744">
        <ele>305.496519</ele>
        <time>2021-05-01T12:15:51.466Z</time>
      </trkpt>
      <trkpt lat="45.82344" lon="4.90737">
        <ele>305.484585</ele>
        <time>2021-05-01T12:15:52.697Z</time>
      </trkpt>
      <trkpt lat="45.82349" lon="4.90719">
        <ele>305.453424</ele>
        <time>2021-05-01T12:15:55.971Z</time>
      </trkpt>
      <trkpt lat="45.82352" lon="4.90701">
        <ele>305.42522</ele>
        <time>2021-05-01T12:15:59.219Z</time>
      </trkpt>
      <trkpt lat="45.82346" lon="4.90698">
        <ele>305.410974</ele>
        <time>2021-05-01T12:16:00.939Z</time>
      </trkpt>
      <trkpt lat="45.82347" lon="4.90689">
        <ele>305.394973</ele>
        <time>2021-05-01T12:16:02.513Z</time>
      </trkpt>
      <trkpt lat="45.82349" lon="4.90659">
        <ele>305.347627</ele>
        <time>2021-05-01T12:16:07.741Z</time>
      </trkpt>
      <trkpt lat="45.82344" lon="4.90596">
        <ele>304.989993</ele>
        <time>2021-05-01T12:16:18.537Z</time>
      </trkpt>
      <trkpt lat="45.82331" lon="4.90509">
        <ele>303.981103</ele>
        <time>2021-05-01T12:16:33.067Z</time>
      </trkpt>
      <trkpt lat="45.82338" lon="4.90508">
        <ele>303.859411</ele>
        <time>2021-05-01T12:16:34.923Z</time>
      </trkpt>
      <trkpt lat="45.82334" lon="4.90479">
        <ele>303.522842</ele>
        <time>2021-05-01T12:16:39.365Z</time>
      </trkpt>
      <trkpt lat="45.82326" lon="4.90424">
        <ele>302.895489</ele>
        <time>2021-05-01T12:16:47.644Z</time>
      </trkpt>
      <trkpt lat="45.82324" lon="4.90416">
        <ele>302.792885</ele>
        <time>2021-05-01T12:16:48.955Z</time>
      </trkpt>
      <trkpt lat="45.82321" lon="4.90406">
        <ele>302.673114</ele>
        <time>2021-05-01T12:16:50.393Z</time>
      </trkpt>
      <trkpt lat="45.82302" lon="4.90334">
        <ele>301.559031</ele>
        <time>2021-05-01T12:17:01.481Z</time>
      </trkpt>
      <trkpt lat="45.82292" lon="4.90286">
        <ele>300.744318</ele>
        <time>2021-05-01T12:17:08.756Z</time>
      </trkpt>
      <trkpt lat="45.82285" lon="4.90253">
        <ele>300.177179</ele>
        <time>2021-05-01T12:17:13.705Z</time>
      </trkpt>
      <trkpt lat="45.8228" lon="4.90221">
        <ele>299.6567</ele>
        <time>2021-05-01T12:17:18.541Z</time>
      </trkpt>
      <trkpt lat="45.82278" lon="4.90205">
        <ele>299.381228</ele>
        <time>2021-05-01T12:17:20.828Z</time>
      </trkpt>
      <trkpt lat="45.82282" lon="4.90203">
        <ele>299.269364</ele>
        <time>2021-05-01T12:17:21.879Z</time>
      </trkpt>
      <trkpt lat="45.82284" lon="4.90201">
        <ele>299.204164</ele>
        <time>2021-05-01T12:17:22.512Z</time>
      </trkpt>
      <trkpt lat="45.82286" lon="4.90197">
        <ele>299.14299</ele>
        <time>2021-05-01T12:17:23.068Z</time>
      </trkpt>
      <trkpt lat="45.82286" lon="4.90195">
        <ele>299.095561</ele>
        <time>2021-05-01T12:17:23.501Z</time>
      </trkpt>
      <trkpt lat="45.82285" lon="4.90187">
        <ele>298.967153</ele>
        <time>2021-05-01T12:17:24.692Z</time>
      </trkpt>
      <trkpt lat="45.82283" lon="4.90183">
        <ele>298.881358</ele>
        <time>2021-05-01T12:17:25.463Z</time>
      </trkpt>
      <trkpt lat="45.82279" lon="4.90181">
        <ele>298.794417</ele>
        <time>2021-05-01T12:17:26.249Z</time>
      </trkpt>
      <trkpt lat="45.82276" lon="4.90181">
        <ele>298.703677</ele>
        <time>2021-05-01T12:17:26.996Z</time>
      </trkpt>
      <trkpt lat="45.82272" lon="4.90184">
        <ele>298.62184</ele>
        <time>2021-05-01T12:17:27.673Z</time>
      </trkpt>
      <trkpt lat="45.82267" lon="4.90176">
        <ele>298.44104</ele>
        <time>2021-05-01T12:17:29.271Z</time>
      </trkpt>
      <trkpt lat="45.82268" lon="4.90163">
        <ele>298.23321</ele>
        <time>2021-05-01T12:17:31.192Z</time>
      </trkpt>
      <trkpt lat="45.82263" lon="4.90113">
        <ele>297.688194</ele>
        <time>2021-05-01T12:17:38.490Z</time>
      </trkpt>
      <trkpt lat="45.8226" lon="4.90089">
        <ele>297.442009</ele>
        <time>2021-05-01T12:17:41.854Z</time>
      </trkpt>
      <trkpt lat="45.82256" lon="4.90046">
        <ele>296.989685</ele>
        <time>2021-05-01T12:17:48.262Z</time>
      </trkpt>
      <trkpt lat="45.82255" lon="4.90024">
        <ele>296.760222</ele>
        <time>2021-05-01T12:17:51.457Z</time>
      </trkpt>
      <trkpt lat="45.82255" lon="4.8999">
        <ele>296.40881</ele>
        <time>2021-05-01T12:17:56.903Z</time>
      </trkpt>
      <trkpt lat="45.82256" lon="4.89958">
        <ele>296.077677</ele>
        <time>2021-05-01T12:18:02.312Z</time>
      </trkpt>
      <trkpt lat="45.82255" lon="4.89946">
        <ele>295.949319</ele>
        <time>2021-05-01T12:18:04.563Z</time>
      </trkpt>
      <trkpt lat="45.82249" lon="4.89923">
        <ele>295.698107</ele>
        <time>2021-05-01T12:18:08.997Z</time>
      </trkpt>
      <trkpt lat="45.82247" lon="4.89917">
        <ele>295.632035</ele>
        <time>2021-05-01T12:18:10.156Z</time>
      </trkpt>
      <trkpt lat="45.82257" lon="4.89913">
        <ele>295.484767</ele>
        <time>2021-05-01T12:18:12.567Z</time>
      </trkpt>
      <trkpt lat="45.82274" lon="4.89909">
        <ele>295.269266</ele>
        <time>2021-05-01T12:18:17.185Z</time>
      </trkpt>
      <trkpt lat="45.823" lon="4.89897">
        <ele>294.934609</ele>
        <time>2021-05-01T12:18:23.768Z</time>
      </trkpt>
      <trkpt lat="45.82294" lon="4.89867">
        <ele>294.660564</ele>
        <time>2021-05-01T12:18:31.000Z</time>
      </trkpt>
      <trkpt lat="45.82301" lon="4.89821">
        <ele>294.25672</ele>
        <time>2021-05-01T12:18:41.172Z</time>
      </trkpt>
      <trkpt lat="45.82299" lon="4.89783">
        <ele>293.921332</ele>
        <time>2021-05-01T12:18:51.728Z</time>
      </trkpt>
      <trkpt lat="45.82301" lon="4.89764">
        <ele>293.759811</ele>
        <time>2021-05-01T12:18:56.532Z</time>
      </trkpt>
      <trkpt lat="45.82305" lon="4.89759">
        <ele>293.694965</ele>
        <time>2021-05-01T12:18:58.466Z</time>
      </trkpt>
      <trkpt lat="45.82305" lon="4.89733">
        <ele>293.471186</ele>
        <time>2021-05-01T12:19:03.857Z</time>
      </trkpt>
      <trkpt lat="45.82307" lon="4.89638">
        <ele>291.779241</ele>
        <time>2021-05-01T12:19:22.520Z</time>
      </trkpt>
      <trkpt lat="45.82307" lon="4.89623">
        <ele>291.464795</ele>
        <time>2021-05-01T12:19:25.385Z</time>
      </trkpt>
      <trkpt lat="45.82316" lon="4.89615">
        <ele>291.143207</ele>
        <time>2021-05-01T12:19:28.169Z</time>
      </trkpt>
      <trkpt lat="45.82312" lon="4.89588">
        <ele>290.562273</ele>
        <time>2021-05-01T12:19:33.630Z</time>
      </trkpt>
      <trkpt lat="45.82332" lon="4.89583">
        <ele>289.965279</ele>
        <time>2021-05-01T12:19:37.352Z</time>
      </trkpt>
      <trkpt lat="45.82346" lon="4.8958">
        <ele>289.526937</ele>
        <time>2021-05-01T12:19:40.251Z</time>
      </trkpt>
      <trkpt lat="45.82354" lon="4.89577">
        <ele>289.297419</ele>
        <time>2021-05-01T12:19:41.703Z</time>
      </trkpt>
      <trkpt lat="45.82359" lon="4.89575">
        <ele>289.114178</ele>
        <time>2021-05-01T12:19:42.820Z</time>
      </trkpt>
      <trkpt lat="45.82365" lon="4.89573">
        <ele>288.930937</ele>
        <time>2021-05-01T12:19:44.000Z</time>
      </trkpt>
      <trkpt lat="45.82375" lon="4.89568">
        <ele>288.617137</ele>
        <time>2021-05-01T12:19:46.097Z</time>
      </trkpt>
      <trkpt lat="45.82372" lon="4.89553">
        <ele>288.282831</ele>
        <time>2021-05-01T12:19:48.232Z</time>
      </trkpt>
      <trkpt lat="45.82372" lon="4.89551">
        <ele>288.225954</ele>
        <time>2021-05-01T12:19:48.578Z</time>
      </trkpt>
      <trkpt lat="45.8237" lon="4.89537">
        <ele>287.946262</ele>
        <time>2021-05-01T12:19:50.280Z</time>
      </trkpt>
      <trkpt lat="45.82354" lon="4.89375">
        <ele>284.697371</ele>
        <time>2021-05-01T12:20:13.157Z</time>
      </trkpt>
      <trkpt lat="45.82351" lon="4.89343">
        <ele>284.063006</ele>
        <time>2021-05-01T12:20:17.924Z</time>
      </trkpt>
      <trkpt lat="45.8235" lon="4.89323">
        <ele>283.678859</ele>
        <time>2021-05-01T12:20:20.718Z</time>
      </trkpt>
      <trkpt lat="45.82315" lon="4.8917">
        <ele>280.361663</ele>
        <time>2021-05-01T12:20:43.357Z</time>
      </trkpt>
      <trkpt lat="45.8231" lon="4.89125">
        <ele>279.416086</ele>
        <time>2021-05-01T12:20:49.453Z</time>
      </trkpt>
      <trkpt lat="45.82309" lon="4.89114">
        <ele>279.175823</ele>
        <time>2021-05-01T12:20:50.989Z</time>
      </trkpt>
      <trkpt lat="45.82301" lon="4.89036">
        <ele>277.529741</ele>
        <time>2021-05-01T12:21:01.790Z</time>
      </trkpt>
      <trkpt lat="45.82287" lon="4.88949">
        <ele>275.761607</ele>
        <time>2021-05-01T12:21:14.128Z</time>
      </trkpt>
      <trkpt lat="45.82284" lon="4.88929">
        <ele>275.371594</ele>
        <time>2021-05-01T12:21:16.755Z</time>
      </trkpt>
      <trkpt lat="45.82279" lon="4.88901">
        <ele>274.804095</ele>
        <time>2021-05-01T12:21:20.782Z</time>
      </trkpt>
      <trkpt lat="45.82274" lon="4.88878">
        <ele>274.328329</ele>
        <time>2021-05-01T12:21:24.026Z</time>
      </trkpt>
      <trkpt lat="45.82253" lon="4.88778">
        <ele>272.303659</ele>
        <time>2021-05-01T12:21:38.989Z</time>
      </trkpt>
      <trkpt lat="45.82247" lon="4.88755">
        <ele>272.088698</ele>
        <time>2021-05-01T12:21:42.811Z</time>
      </trkpt>
      <trkpt lat="45.8224" lon="4.88736">
        <ele>271.902552</ele>
        <time>2021-05-01T12:21:45.873Z</time>
      </trkpt>
      <trkpt lat="45.82238" lon="4.88728">
        <ele>271.832189</ele>
        <time>2021-05-01T12:21:47.098Z</time>
      </trkpt>
      <trkpt lat="45.82234" lon="4.88716">
        <ele>271.715851</ele>
        <time>2021-05-01T12:21:49.213Z</time>
      </trkpt>
      <trkpt lat="45.82226" lon="4.88691">
        <ele>271.474589</ele>
        <time>2021-05-01T12:21:53.658Z</time>
      </trkpt>
      <trkpt lat="45.82211" lon="4.88644">
        <ele>271.026721</ele>
        <time>2021-05-01T12:22:01.893Z</time>
      </trkpt>
      <trkpt lat="45.82201" lon="4.88613">
        <ele>270.73059</ele>
        <time>2021-05-01T12:22:07.374Z</time>
      </trkpt>
      <trkpt lat="45.82216" lon="4.88605">
        <ele>270.525904</ele>
        <time>2021-05-01T12:22:11.253Z</time>
      </trkpt>
      <trkpt lat="45.82281" lon="4.88575">
        <ele>269.834088</ele>
        <time>2021-05-01T12:22:27.675Z</time>
      </trkpt>
      <trkpt lat="45.82291" lon="4.88571">
        <ele>269.761548</ele>
        <time>2021-05-01T12:22:30.243Z</time>
      </trkpt>
      <trkpt lat="45.82294" lon="4.88569">
        <ele>269.734218</ele>
        <time>2021-05-01T12:22:31.176Z</time>
      </trkpt>
      <trkpt lat="45.82297" lon="4.88568">
        <ele>269.713187</ele>
        <time>2021-05-01T12:22:31.892Z</time>
      </trkpt>
      <trkpt lat="45.82302" lon="4.88566">
        <ele>269.674276</ele>
        <time>2021-05-01T12:22:33.118Z</time>
      </trkpt>
      <trkpt lat="45.82383" lon="4.88536">
        <ele>269.051931</ele>
        <time>2021-05-01T12:22:53.458Z</time>
      </trkpt>
      <trkpt lat="45.82416" lon="4.88527">
        <ele>268.801927</ele>
        <time>2021-05-01T12:23:01.266Z</time>
      </trkpt>
      <trkpt lat="45.82442" lon="4.88521">
        <ele>268.488977</ele>
        <time>2021-05-01T12:23:07.277Z</time>
      </trkpt>
      <trkpt lat="45.82478" lon="4.88514">
        <ele>267.969152</ele>
        <time>2021-05-01T12:23:15.593Z</time>
      </trkpt>
      <trkpt lat="45.82518" lon="4.88506">
        <ele>267.399348</ele>
        <time>2021-05-01T12:23:24.545Z</time>
      </trkpt>
      <trkpt lat="45.82524" lon="4.88504">
        <ele>267.312742</ele>
        <time>2021-05-01T12:23:25.873Z</time>
      </trkpt>
      <trkpt lat="45.82539" lon="4.885">
        <ele>267.088855</ele>
        <time>2021-05-01T12:23:29.377Z</time>
      </trkpt>
      <trkpt lat="45.82566" lon="4.8849">
        <ele>266.694683</ele>
        <time>2021-05-01T12:23:35.419Z</time>
      </trkpt>
      <trkpt lat="45.82582" lon="4.8848">
        <ele>266.448456</ele>
        <time>2021-05-01T12:23:39.197Z</time>
      </trkpt>
      <trkpt lat="45.82625" lon="4.88437">
        <ele>265.443237</ele>
        <time>2021-05-01T12:23:50.364Z</time>
      </trkpt>
      <trkpt lat="45.82633" lon="4.88359">
        <ele>264.254544</ele>
        <time>2021-05-01T12:24:01.887Z</time>
      </trkpt>
      <trkpt lat="45.82669" lon="4.88294">
        <ele>263.005044</ele>
        <time>2021-05-01T12:24:13.897Z</time>
      </trkpt>
      <trkpt lat="45.82673" lon="4.88263">
        <ele>262.529972</ele>
        <time>2021-05-01T12:24:18.421Z</time>
      </trkpt>
      <trkpt lat="45.8267" lon="4.88249">
        <ele>262.298549</ele>
        <time>2021-05-01T12:24:20.623Z</time>
      </trkpt>
      <trkpt lat="45.82656" lon="4.88234">
        <ele>261.787543</ele>
        <time>2021-05-01T12:24:24.151Z</time>
      </trkpt>
      <trkpt lat="45.82607" lon="4.88209">
        <ele>260.258361</ele>
        <time>2021-05-01T12:24:34.696Z</time>
      </trkpt>
      <trkpt lat="45.82563" lon="4.88203">
        <ele>258.924822</ele>
        <time>2021-05-01T12:24:43.429Z</time>
      </trkpt>
      <trkpt lat="45.82549" lon="4.88193">
        <ele>258.470441</ele>
        <time>2021-05-01T12:24:46.357Z</time>
      </trkpt>
      <trkpt lat="45.82555" lon="4.88136">
        <ele>257.271263</ele>
        <time>2021-05-01T12:24:54.242Z</time>
      </trkpt>
      <trkpt lat="45.82543" lon="4.88066">
        <ele>254.939822</ele>
        <time>2021-05-01T12:25:04.282Z</time>
      </trkpt>
      <trkpt lat="45.82544" lon="4.88058">
        <ele>254.669943</ele>
        <time>2021-05-01T12:25:05.200Z</time>
      </trkpt>
      <trkpt lat="45.82552" lon="4.88029">
        <ele>253.546538</ele>
        <time>2021-05-01T12:25:09.186Z</time>
      </trkpt>
      <trkpt lat="45.82604" lon="4.87931">
        <ele>249.153125</ele>
        <time>2021-05-01T12:25:24.315Z</time>
      </trkpt>
      <trkpt lat="45.8263" lon="4.87899">
        <ele>247.405506</ele>
        <time>2021-05-01T12:25:30.353Z</time>
      </trkpt>
      <trkpt lat="45.82636" lon="4.87893">
        <ele>247.054112</ele>
        <time>2021-05-01T12:25:31.631Z</time>
      </trkpt>
      <trkpt lat="45.82642" lon="4.87886">
        <ele>246.682169</ele>
        <time>2021-05-01T12:25:32.978Z</time>
      </trkpt>
      <trkpt lat="45.82672" lon="4.87858">
        <ele>244.998257</ele>
        <time>2021-05-01T12:25:39.453Z</time>
      </trkpt>
      <trkpt lat="45.82679" lon="4.87848">
        <ele>244.527569</ele>
        <time>2021-05-01T12:25:41.233Z</time>
      </trkpt>
      <trkpt lat="45.82684" lon="4.87841">
        <ele>244.208234</ele>
        <time>2021-05-01T12:25:42.548Z</time>
      </trkpt>
      <trkpt lat="45.8269" lon="4.87833">
        <ele>243.831658</ele>
        <time>2021-05-01T12:25:44.181Z</time>
      </trkpt>
      <trkpt lat="45.82693" lon="4.8783">
        <ele>243.645706</ele>
        <time>2021-05-01T12:25:44.854Z</time>
      </trkpt>
      <trkpt lat="45.82696" lon="4.87831">
        <ele>243.50355</ele>
        <time>2021-05-01T12:25:45.378Z</time>
      </trkpt>
      <trkpt lat="45.82699" lon="4.87829">
        <ele>243.361146</ele>
        <time>2021-05-01T12:25:45.897Z</time>
      </trkpt>
      <trkpt lat="45.82704" lon="4.8783">
        <ele>243.129579</ele>
        <time>2021-05-01T12:25:46.761Z</time>
      </trkpt>
      <trkpt lat="45.82714" lon="4.87836">
        <ele>242.610696</ele>
        <time>2021-05-01T12:25:48.834Z</time>
      </trkpt>
      <trkpt lat="45.82725" lon="4.87844">
        <ele>242.005653</ele>
        <time>2021-05-01T12:25:51.296Z</time>
      </trkpt>
      <trkpt lat="45.82732" lon="4.87851">
        <ele>241.614043</ele>
        <time>2021-05-01T12:25:52.740Z</time>
      </trkpt>
      <trkpt lat="45.82751" lon="4.8786">
        <ele>240.699158</ele>
        <time>2021-05-01T12:25:56.384Z</time>
      </trkpt>
      <trkpt lat="45.82762" lon="4.87859">
        <ele>240.169479</ele>
        <time>2021-05-01T12:25:58.441Z</time>
      </trkpt>
      <trkpt lat="45.82765" lon="4.87859">
        <ele>240.041917</ele>
        <time>2021-05-01T12:25:58.919Z</time>
      </trkpt>
      <trkpt lat="45.82766" lon="4.87858">
        <ele>239.951311</ele>
        <time>2021-05-01T12:25:59.245Z</time>
      </trkpt>
      <trkpt lat="45.82775" lon="4.87856">
        <ele>239.536099</ele>
        <time>2021-05-01T12:26:00.837Z</time>
      </trkpt>
      <trkpt lat="45.82826" lon="4.87844">
        <ele>238.35821</ele>
        <time>2021-05-01T12:26:11.265Z</time>
      </trkpt>
      <trkpt lat="45.82908" lon="4.87825">
        <ele>236.780663</ele>
        <time>2021-05-01T12:26:30.446Z</time>
      </trkpt>
      <trkpt lat="45.82924" lon="4.87813">
        <ele>236.449206</ele>
        <time>2021-05-01T12:26:34.455Z</time>
      </trkpt>
      <trkpt lat="45.82939" lon="4.87792">
        <ele>236.04594</ele>
        <time>2021-05-01T12:26:38.984Z</time>
      </trkpt>
      <trkpt lat="45.8295" lon="4.87766">
        <ele>235.635195</ele>
        <time>2021-05-01T12:26:43.499Z</time>
      </trkpt>
      <trkpt lat="45.82961" lon="4.87741">
        <ele>235.205036</ele>
        <time>2021-05-01T12:26:47.796Z</time>
      </trkpt>
      <trkpt lat="45.82984" lon="4.87671">
        <ele>234.089357</ele>
        <time>2021-05-01T12:26:59.527Z</time>
      </trkpt>
      <trkpt lat="45.82985" lon="4.87628">
        <ele>233.46265</ele>
        <time>2021-05-01T12:27:05.865Z</time>
      </trkpt>
      <trkpt lat="45.82982" lon="4.87602">
        <ele>233.085354</ele>
        <time>2021-05-01T12:27:09.541Z</time>
      </trkpt>
      <trkpt lat="45.82986" lon="4.87598">
        <ele>232.969733</ele>
        <time>2021-05-01T12:27:10.996Z</time>
      </trkpt>
      <trkpt lat="45.82984" lon="4.87587">
        <ele>232.808928</ele>
        <time>2021-05-01T12:27:12.922Z</time>
      </trkpt>
      <trkpt lat="45.82969" lon="4.87483">
        <ele>231.140929</ele>
        <time>2021-05-01T12:27:30.132Z</time>
      </trkpt>
      <trkpt lat="45.82968" lon="4.87478">
        <ele>231.055868</ele>
        <time>2021-05-01T12:27:31.055Z</time>
      </trkpt>
      <trkpt lat="45.82967" lon="4.87458">
        <ele>230.714316</ele>
        <time>2021-05-01T12:27:34.180Z</time>
      </trkpt>
      <trkpt lat="45.82971" lon="4.87383">
        <ele>229.430749</ele>
        <time>2021-05-01T12:27:46.222Z</time>
      </trkpt>
      <trkpt lat="45.83022" lon="4.87251">
        <ele>227.504558</ele>
        <time>2021-05-01T12:28:10.498Z</time>
      </trkpt>
      <trkpt lat="45.8306" lon="4.87113">
        <ele>226.944368</ele>
        <time>2021-05-01T12:28:38.248Z</time>
      </trkpt>
      <trkpt lat="45.83061" lon="4.87108">
        <ele>226.925207</ele>
        <time>2021-05-01T12:28:39.272Z</time>
      </trkpt>
      <trkpt lat="45.83057" lon="4.87105">
        <ele>226.897553</ele>
        <time>2021-05-01T12:28:41.464Z</time>
      </trkpt>
      <trkpt lat="45.83063" lon="4.8709">
        <ele>226.82933</ele>
        <time>2021-05-01T12:28:45.592Z</time>
      </trkpt>
      <trkpt lat="45.83082" lon="4.87045">
        <ele>226.738232</ele>
        <time>2021-05-01T12:28:57.921Z</time>
      </trkpt>
      <trkpt lat="45.83111" lon="4.86968">
        <ele>226.872454</ele>
        <time>2021-05-01T12:29:18.013Z</time>
      </trkpt>
      <trkpt lat="45.83121" lon="4.86932">
        <ele>226.931476</ele>
        <time>2021-05-01T12:29:25.167Z</time>
      </trkpt>
      <trkpt lat="45.83126" lon="4.86914">
        <ele>226.961795</ele>
        <time>2021-05-01T12:29:29.835Z</time>
      </trkpt>
      <trkpt lat="45.83141" lon="4.86863">
        <ele>227.046937</ele>
        <time>2021-05-01T12:29:40.229Z</time>
      </trkpt>
      <trkpt lat="45.83147" lon="4.86832">
        <ele>227.095957</ele>
        <time>2021-05-01T12:29:45.028Z</time>
      </trkpt>
      <trkpt lat="45.83151" lon="4.86792">
        <ele>226.221679</ele>
        <time>2021-05-01T12:29:51.636Z</time>
      </trkpt>
      <trkpt lat="45.8315" lon="4.86784">
        <ele>226.009572</ele>
        <time>2021-05-01T12:29:52.906Z</time>
      </trkpt>
      <trkpt lat="45.83151" lon="4.86784">
        <ele>225.976878</ele>
        <time>2021-05-01T12:29:53.057Z</time>
      </trkpt>
      <trkpt lat="45.83157" lon="4.86775">
        <ele>225.675628</ele>
        <time>2021-05-01T12:29:55.313Z</time>
      </trkpt>
      <trkpt lat="45.83156" lon="4.86771">
        <ele>225.576609</ele>
        <time>2021-05-01T12:29:55.806Z</time>
      </trkpt>
      <trkpt lat="45.83155" lon="4.86768">
        <ele>225.487115</ele>
        <time>2021-05-01T12:29:56.439Z</time>
      </trkpt>
      <trkpt lat="45.83154" lon="4.86766">
        <ele>225.419914</ele>
        <time>2021-05-01T12:29:56.816Z</time>
      </trkpt>
      <trkpt lat="45.83153" lon="4.86765">
        <ele>225.376333</ele>
        <time>2021-05-01T12:29:57.176Z</time>
      </trkpt>
      <trkpt lat="45.83157" lon="4.86751">
        <ele>224.984158</ele>
        <time>2021-05-01T12:29:59.058Z</time>
      </trkpt>
      <trkpt lat="45.83167" lon="4.86714">
        <ele>223.980805</ele>
        <time>2021-05-01T12:30:04.473Z</time>
      </trkpt>
      <trkpt lat="45.83173" lon="4.8666">
        <ele>222.613304</ele>
        <time>2021-05-01T12:30:11.344Z</time>
      </trkpt>
      <trkpt lat="45.83173" lon="4.86574">
        <ele>220.44028</ele>
        <time>2021-05-01T12:30:22.208Z</time>
      </trkpt>
      <trkpt lat="45.83172" lon="4.86554">
        <ele>219.930339</ele>
        <time>2021-05-01T12:30:24.667Z</time>
      </trkpt>
      <trkpt lat="45.83176" lon="4.86554">
        <ele>219.80405</ele>
        <time>2021-05-01T12:30:25.243Z</time>
      </trkpt>
      <trkpt lat="45.83178" lon="4.86552">
        <ele>219.706215</ele>
        <time>2021-05-01T12:30:25.764Z</time>
      </trkpt>
      <trkpt lat="45.83179" lon="4.8655">
        <ele>219.638729</ele>
        <time>2021-05-01T12:30:26.070Z</time>
      </trkpt>
      <trkpt lat="45.8318" lon="4.86548">
        <ele>219.588142</ele>
        <time>2021-05-01T12:30:26.329Z</time>
      </trkpt>
      <trkpt lat="45.8318" lon="4.8654">
        <ele>219.376992</ele>
        <time>2021-05-01T12:30:27.537Z</time>
      </trkpt>
      <trkpt lat="45.83179" lon="4.86537">
        <ele>219.279614</ele>
        <time>2021-05-01T12:30:28.058Z</time>
      </trkpt>
      <trkpt lat="45.83187" lon="4.86525">
        <ele>218.866846</ele>
        <time>2021-05-01T12:30:30.205Z</time>
      </trkpt>
      <trkpt lat="45.83216" lon="4.86469">
        <ele>217.057018</ele>
        <time>2021-05-01T12:30:39.556Z</time>
      </trkpt>
      <trkpt lat="45.83223" lon="4.86435">
        <ele>216.152659</ele>
        <time>2021-05-01T12:30:44.346Z</time>
      </trkpt>
      <trkpt lat="45.83236" lon="4.86211">
        <ele>210.967666</ele>
        <time>2021-05-01T12:31:15.564Z</time>
      </trkpt>
      <trkpt lat="45.83233" lon="4.86111">
        <ele>208.815633</ele>
        <time>2021-05-01T12:31:29.364Z</time>
      </trkpt>
      <trkpt lat="45.83231" lon="4.86067">
        <ele>207.733269</ele>
        <time>2021-05-01T12:31:35.349Z</time>
      </trkpt>
      <trkpt lat="45.83228" lon="4.86037">
        <ele>206.935303</ele>
        <time>2021-05-01T12:31:39.488Z</time>
      </trkpt>
      <trkpt lat="45.83225" lon="4.86004">
        <ele>206.076274</ele>
        <time>2021-05-01T12:31:43.686Z</time>
      </trkpt>
      <trkpt lat="45.83221" lon="4.85958">
        <ele>204.849837</ele>
        <time>2021-05-01T12:31:49.799Z</time>
      </trkpt>
      <trkpt lat="45.83213" lon="4.8588">
        <ele>202.762277</ele>
        <time>2021-05-01T12:32:00.579Z</time>
      </trkpt>
      <trkpt lat="45.83213" lon="4.85877">
        <ele>202.677208</ele>
        <time>2021-05-01T12:32:00.944Z</time>
      </trkpt>
      <trkpt lat="45.83209" lon="4.8584">
        <ele>201.69931</ele>
        <time>2021-05-01T12:32:06.005Z</time>
      </trkpt>
      <trkpt lat="45.83207" lon="4.85827">
        <ele>201.224747</ele>
        <time>2021-05-01T12:32:07.814Z</time>
      </trkpt>
      <trkpt lat="45.83206" lon="4.85823">
        <ele>201.078341</ele>
        <time>2021-05-01T12:32:08.235Z</time>
      </trkpt>
      <trkpt lat="45.83203" lon="4.85814">
        <ele>200.668403</ele>
        <time>2021-05-01T12:32:09.645Z</time>
      </trkpt>
      <trkpt lat="45.83193" lon="4.85778">
        <ele>199.182216</ele>
        <time>2021-05-01T12:32:14.637Z</time>
      </trkpt>
      <trkpt lat="45.83179" lon="4.85726">
        <ele>197.029169</ele>
        <time>2021-05-01T12:32:21.524Z</time>
      </trkpt>
      <trkpt lat="45.83175" lon="4.8571">
        <ele>196.363809</ele>
        <time>2021-05-01T12:32:23.678Z</time>
      </trkpt>
      <trkpt lat="45.8316" lon="4.85646">
        <ele>193.763207</ele>
        <time>2021-05-01T12:32:31.846Z</time>
      </trkpt>
      <trkpt lat="45.83159" lon="4.8564">
        <ele>193.510943</ele>
        <time>2021-05-01T12:32:32.605Z</time>
      </trkpt>
      <trkpt lat="45.83157" lon="4.85632">
        <ele>193.191142</ele>
        <time>2021-05-01T12:32:33.586Z</time>
      </trkpt>
      <trkpt lat="45.83159" lon="4.85631">
        <ele>193.040577</ele>
        <time>2021-05-01T12:32:34.025Z</time>
      </trkpt>
      <trkpt lat="45.83161" lon="4.8563">
        <ele>192.95472</ele>
        <time>2021-05-01T12:32:34.294Z</time>
      </trkpt>
      <trkpt lat="45.83162" lon="4.85627">
        <ele>192.808042</ele>
        <time>2021-05-01T12:32:34.755Z</time>
      </trkpt>
      <trkpt lat="45.83164" lon="4.85619">
        <ele>192.476172</ele>
        <time>2021-05-01T12:32:35.887Z</time>
      </trkpt>
      <trkpt lat="45.83162" lon="4.85615">
        <ele>192.301009</ele>
        <time>2021-05-01T12:32:36.470Z</time>
      </trkpt>
      <trkpt lat="45.83166" lon="4.85602">
        <ele>191.762441</ele>
        <time>2021-05-01T12:32:38.311Z</time>
      </trkpt>
      <trkpt lat="45.83171" lon="4.85595">
        <ele>191.355038</ele>
        <time>2021-05-01T12:32:39.533Z</time>
      </trkpt>
      <trkpt lat="45.83167" lon="4.85576">
        <ele>190.48091</ele>
        <time>2021-05-01T12:32:42.195Z</time>
      </trkpt>
      <trkpt lat="45.83185" lon="4.8551">
        <ele>187.469857</ele>
        <time>2021-05-01T12:32:51.216Z</time>
      </trkpt>
      <trkpt lat="45.83187" lon="4.85503">
        <ele>187.163131</ele>
        <time>2021-05-01T12:32:52.065Z</time>
      </trkpt>
      <trkpt lat="45.83221" lon="4.85378">
        <ele>181.419897</ele>
        <time>2021-05-01T12:33:09.145Z</time>
      </trkpt>
      <trkpt lat="45.83236" lon="4.85322">
        <ele>179.796099</ele>
        <time>2021-05-01T12:33:17.283Z</time>
      </trkpt>
      <trkpt lat="45.8324" lon="4.85307">
        <ele>179.472465</ele>
        <time>2021-05-01T12:33:19.469Z</time>
      </trkpt>
      <trkpt lat="45.83242" lon="4.85298">
        <ele>179.293461</ele>
        <time>2021-05-01T12:33:20.836Z</time>
      </trkpt>
      <trkpt lat="45.83257" lon="4.85243">
        <ele>178.13948</ele>
        <time>2021-05-01T12:33:29.793Z</time>
      </trkpt>
      <trkpt lat="45.83273" lon="4.85186">
        <ele>176.923473</ele>
        <time>2021-05-01T12:33:39.482Z</time>
      </trkpt>
      <trkpt lat="45.83315" lon="4.85068">
        <ele>174.60416</ele>
        <time>2021-05-01T12:34:00.133Z</time>
      </trkpt>
      <trkpt lat="45.83323" lon="4.85047">
        <ele>174.240665</ele>
        <time>2021-05-01T12:34:04.069Z</time>
      </trkpt>
      <trkpt lat="45.83327" lon="4.85038">
        <ele>174.078146</ele>
        <time>2021-05-01T12:34:05.835Z</time>
      </trkpt>
      <trkpt lat="45.8334" lon="4.85007">
        <ele>173.54323</ele>
        <time>2021-05-01T12:34:11.763Z</time>
      </trkpt>
      <trkpt lat="45.83265" lon="4.84942">
        <ele>171.640386</ele>
        <time>2021-05-01T12:34:30.383Z</time>
      </trkpt>
      <trkpt lat="45.83294" lon="4.84881">
        <ele>170.2817</ele>
        <time>2021-05-01T12:34:40.901Z</time>
      </trkpt>
      <trkpt lat="45.83255" lon="4.84836">
        <ele>168.963657</ele>
        <time>2021-05-01T12:34:50.957Z</time>
      </trkpt>
      <trkpt lat="45.83265" lon="4.84812">
        <ele>168.440194</ele>
        <time>2021-05-01T12:34:54.997Z</time>
      </trkpt>
      <trkpt lat="45.83278" lon="4.84771">
        <ele>167.608315</ele>
        <time>2021-05-01T12:35:01.440Z</time>
      </trkpt>
      <trkpt lat="45.8328" lon="4.84763">
        <ele>167.44564</ele>
        <time>2021-05-01T12:35:02.810Z</time>
      </trkpt>
      <trkpt lat="45.83272" lon="4.84758">
        <ele>167.21862</ele>
        <time>2021-05-01T12:35:05.979Z</time>
      </trkpt>
      <trkpt lat="45.83268" lon="4.84756">
        <ele>167.092606</ele>
        <time>2021-05-01T12:35:07.730Z</time>
      </trkpt>
      <trkpt lat="45.83275" lon="4.84732">
        <ele>166.789113</ele>
        <time>2021-05-01T12:35:11.765Z</time>
      </trkpt>
      <trkpt lat="45.83295" lon="4.84657">
        <ele>166.44334</ele>
        <time>2021-05-01T12:35:24.402Z</time>
      </trkpt>
      <trkpt lat="45.833" lon="4.84641">
        <ele>166.368073</ele>
        <time>2021-05-01T12:35:27.478Z</time>
      </trkpt>
      <trkpt lat="45.8332" lon="4.84569">
        <ele>166.034033</ele>
        <time>2021-05-01T12:35:42.257Z</time>
      </trkpt>
      <trkpt lat="45.83372" lon="4.8438">
        <ele>166.209993</ele>
        <time>2021-05-01T12:36:24.848Z</time>
      </trkpt>
      <trkpt lat="45.83417" lon="4.84233">
        <ele>166.814016</ele>
        <time>2021-05-01T12:36:59.456Z</time>
      </trkpt>
      <trkpt lat="45.83438" lon="4.84166">
        <ele>167.12999</ele>
        <time>2021-05-01T12:37:15.610Z</time>
      </trkpt>
      <trkpt lat="45.83452" lon="4.84122">
        <ele>167.33603</ele>
        <time>2021-05-01T12:37:26.057Z</time>
      </trkpt>
      <trkpt lat="45.83464" lon="4.84088">
        <ele>167.49614</ele>
        <time>2021-05-01T12:37:34.011Z</time>
      </trkpt>
      <trkpt lat="45.83469" lon="4.84075">
        <ele>167.56197</ele>
        <time>2021-05-01T12:37:39.143Z</time>
      </trkpt>
      <trkpt lat="45.83543" lon="4.83903">
        <ele>168.230914</ele>
        <time>2021-05-01T12:38:45.033Z</time>
      </trkpt>
      <trkpt lat="45.83579" lon="4.8384">
        <ele>168.476002</ele>
        <time>2021-05-01T12:39:11.292Z</time>
      </trkpt>
      <trkpt lat="45.83587" lon="4.83825">
        <ele>168.534997</ele>
        <time>2021-05-01T12:39:17.671Z</time>
      </trkpt>
      <trkpt lat="45.8359" lon="4.8382">
        <ele>168.549353</ele>
        <time>2021-05-01T12:39:19.723Z</time>
      </trkpt>
      <trkpt lat="45.83687" lon="4.83669">
        <ele>168.81748</ele>
        <time>2021-05-01T12:40:25.022Z</time>
      </trkpt>
      <trkpt lat="45.83779" lon="4.83533">
        <ele>168.985943</ele>
        <time>2021-05-01T12:41:23.807Z</time>
      </trkpt>
      <trkpt lat="45.83815" lon="4.83495">
        <ele>169.033509</ele>
        <time>2021-05-01T12:41:43.860Z</time>
      </trkpt>
      <trkpt lat="45.8387" lon="4.83448">
        <ele>169.214297</ele>
        <time>2021-05-01T12:42:13.037Z</time>
      </trkpt>
      <trkpt lat="45.83982" lon="4.83389">
        <ele>169.872283</ele>
        <time>2021-05-01T12:43:09.709Z</time>
      </trkpt>
      <trkpt lat="45.83981" lon="4.83374">
        <ele>169.930263</ele>
        <time>2021-05-01T12:43:14.939Z</time>
      </trkpt>
      <trkpt lat="45.83982" lon="4.83368">
        <ele>169.95244</ele>
        <time>2021-05-01T12:43:16.746Z</time>
      </trkpt>
      <trkpt lat="45.84014" lon="4.8337">
        <ele>170.166994</ele>
        <time>2021-05-01T12:43:32.053Z</time>
      </trkpt>
      <trkpt lat="45.84133" lon="4.83371">
        <ele>171.192031</ele>
        <time>2021-05-01T12:44:29.422Z</time>
      </trkpt>
      <trkpt lat="45.84186" lon="4.83381">
        <ele>171.664605</ele>
        <time>2021-05-01T12:44:55.533Z</time>
      </trkpt>
      <trkpt lat="45.84421" lon="4.83475">
        <ele>173.291782</ele>
        <time>2021-05-01T12:46:58.121Z</time>
      </trkpt>
      <trkpt lat="45.8447" lon="4.83495">
        <ele>173.02654</ele>
        <time>2021-05-01T12:47:19.312Z</time>
      </trkpt>
      <trkpt lat="45.84475" lon="4.83497">
        <ele>173.001174</ele>
        <time>2021-05-01T12:47:21.300Z</time>
      </trkpt>
      <trkpt lat="45.84482" lon="4.83498">
        <ele>172.960574</ele>
        <time>2021-05-01T12:47:24.474Z</time>
      </trkpt>
      <trkpt lat="45.84485" lon="4.83481">
        <ele>172.899575</ele>
        <time>2021-05-01T12:47:26.880Z</time>
      </trkpt>
      <trkpt lat="45.8452" lon="4.83246">
        <ele>170.05747</ele>
        <time>2021-05-01T12:48:03.158Z</time>
      </trkpt>
      <trkpt lat="45.8452" lon="4.83244">
        <ele>170.034783</ele>
        <time>2021-05-01T12:48:03.438Z</time>
      </trkpt>
      <trkpt lat="45.84541" lon="4.83246">
        <ele>169.627016</ele>
        <time>2021-05-01T12:48:07.829Z</time>
      </trkpt>
      <trkpt lat="45.84584" lon="4.83242">
        <ele>169.040053</ele>
        <time>2021-05-01T12:48:17.608Z</time>
      </trkpt>
      <trkpt lat="45.84587" lon="4.83235">
        <ele>169.017528</ele>
        <time>2021-05-01T12:48:18.970Z</time>
      </trkpt>
      <trkpt lat="45.84604" lon="4.83232">
        <ele>168.947184</ele>
        <time>2021-05-01T12:48:23.098Z</time>
      </trkpt>
      <trkpt lat="45.84684" lon="4.83191">
        <ele>168.606644</ele>
        <time>2021-05-01T12:48:44.646Z</time>
      </trkpt>
      <trkpt lat="45.84691" lon="4.83187">
        <ele>168.573104</ele>
        <time>2021-05-01T12:48:47.198Z</time>
      </trkpt>
      <trkpt lat="45.84704" lon="4.83183">
        <ele>168.520595</ele>
        <time>2021-05-01T12:48:50.627Z</time>
      </trkpt>
      <trkpt lat="45.84762" lon="4.8318">
        <ele>168.406371</ele>
        <time>2021-05-01T12:49:06.205Z</time>
      </trkpt>
      <trkpt lat="45.84886" lon="4.83212">
        <ele>168.510886</ele>
        <time>2021-05-01T12:49:39.919Z</time>
      </trkpt>
      <trkpt lat="45.8491" lon="4.83221">
        <ele>168.531373</ele>
        <time>2021-05-01T12:49:46.770Z</time>
      </trkpt>
      <trkpt lat="45.84932" lon="4.83232">
        <ele>168.635087</ele>
        <time>2021-05-01T12:49:53.495Z</time>
      </trkpt>
      <trkpt lat="45.84992" lon="4.8326">
        <ele>168.956159</ele>
        <time>2021-05-01T12:50:11.673Z</time>
      </trkpt>
      <trkpt lat="45.85003" lon="4.83266">
        <ele>169.020743</ele>
        <time>2021-05-01T12:50:15.459Z</time>
      </trkpt>
      <trkpt lat="45.85062" lon="4.83294">
        <ele>169.340988</ele>
        <time>2021-05-01T12:50:33.863Z</time>
      </trkpt>
      <trkpt lat="45.85099" lon="4.83308">
        <ele>169.496629</ele>
        <time>2021-05-01T12:50:45.185Z</time>
      </trkpt>
      <trkpt lat="45.85149" lon="4.83328">
        <ele>169.618343</ele>
        <time>2021-05-01T12:51:00.159Z</time>
      </trkpt>
      <trkpt lat="45.85162" lon="4.83332">
        <ele>169.650337</ele>
        <time>2021-05-01T12:51:03.971Z</time>
      </trkpt>
      <trkpt lat="45.85178" lon="4.83337">
        <ele>169.686907</ele>
        <time>2021-05-01T12:51:08.345Z</time>
      </trkpt>
      <trkpt lat="45.85217" lon="4.83348">
        <ele>169.78065</ele>
        <time>2021-05-01T12:51:19.241Z</time>
      </trkpt>
      <trkpt lat="45.85253" lon="4.83358">
        <ele>169.866756</ele>
        <time>2021-05-01T12:51:28.929Z</time>
      </trkpt>
      <trkpt lat="45.85326" lon="4.83378">
        <ele>169.800635</ele>
        <time>2021-05-01T12:51:48.193Z</time>
      </trkpt>
      <trkpt lat="45.85436" lon="4.83409">
        <ele>169.660625</ele>
        <time>2021-05-01T12:52:17.085Z</time>
      </trkpt>
      <trkpt lat="45.85549" lon="4.83446">
        <ele>169.774032</ele>
        <time>2021-05-01T12:52:48.676Z</time>
      </trkpt>
      <trkpt lat="45.85566" lon="4.83451">
        <ele>169.790485</ele>
        <time>2021-05-01T12:52:53.063Z</time>
      </trkpt>
      <trkpt lat="45.85576" lon="4.83455">
        <ele>169.800706</ele>
        <time>2021-05-01T12:52:55.827Z</time>
      </trkpt>
      <trkpt lat="45.85627" lon="4.83473">
        <ele>169.908413</ele>
        <time>2021-05-01T12:53:10.706Z</time>
      </trkpt>
      <trkpt lat="45.85648" lon="4.8348">
        <ele>170.004249</ele>
        <time>2021-05-01T12:53:16.616Z</time>
      </trkpt>
      <trkpt lat="45.85656" lon="4.83482">
        <ele>170.04111</ele>
        <time>2021-05-01T12:53:18.979Z</time>
      </trkpt>
      <trkpt lat="45.85657" lon="4.83483">
        <ele>170.049895</ele>
        <time>2021-05-01T12:53:19.559Z</time>
      </trkpt>
      <trkpt lat="45.85665" lon="4.83485">
        <ele>170.08403</ele>
        <time>2021-05-01T12:53:21.652Z</time>
      </trkpt>
      <trkpt lat="45.85694" lon="4.83491">
        <ele>170.219224</ele>
        <time>2021-05-01T12:53:30.454Z</time>
      </trkpt>
      <trkpt lat="45.85704" lon="4.83492">
        <ele>170.263079</ele>
        <time>2021-05-01T12:53:33.208Z</time>
      </trkpt>
      <trkpt lat="45.85717" lon="4.83495">
        <ele>170.324006</ele>
        <time>2021-05-01T12:53:37.223Z</time>
      </trkpt>
      <trkpt lat="45.85728" lon="4.83497">
        <ele>170.375336</ele>
        <time>2021-05-01T12:53:40.669Z</time>
      </trkpt>
      <trkpt lat="45.85732" lon="4.83497">
        <ele>170.39375</ele>
        <time>2021-05-01T12:53:41.845Z</time>
      </trkpt>
      <trkpt lat="45.85742" lon="4.83498">
        <ele>170.437959</ele>
        <time>2021-05-01T12:53:44.598Z</time>
      </trkpt>
      <trkpt lat="45.85753" lon="4.835">
        <ele>170.48589</ele>
        <time>2021-05-01T12:53:47.714Z</time>
      </trkpt>
      <trkpt lat="45.85756" lon="4.835">
        <ele>170.500929</ele>
        <time>2021-05-01T12:53:48.685Z</time>
      </trkpt>
      <trkpt lat="45.85808" lon="4.83505">
        <ele>170.709344</ele>
        <time>2021-05-01T12:54:03.480Z</time>
      </trkpt>
      <trkpt lat="45.85836" lon="4.83508">
        <ele>170.790903</ele>
        <time>2021-05-01T12:54:11.690Z</time>
      </trkpt>
      <trkpt lat="45.85895" lon="4.83512">
        <ele>170.965618</ele>
        <time>2021-05-01T12:54:29.172Z</time>
      </trkpt>
      <trkpt lat="45.85952" lon="4.83513">
        <ele>171.133659</ele>
        <time>2021-05-01T12:54:45.125Z</time>
      </trkpt>
      <trkpt lat="45.8597" lon="4.83512">
        <ele>171.181809</ele>
        <time>2021-05-01T12:54:50.020Z</time>
      </trkpt>
      <trkpt lat="45.85976" lon="4.83512">
        <ele>171.153244</ele>
        <time>2021-05-01T12:54:51.436Z</time>
      </trkpt>
      <trkpt lat="45.85994" lon="4.83512">
        <ele>171.0556</ele>
        <time>2021-05-01T12:54:56.105Z</time>
      </trkpt>
      <trkpt lat="45.86012" lon="4.83513">
        <ele>170.962112</ele>
        <time>2021-05-01T12:55:00.466Z</time>
      </trkpt>
      <trkpt lat="45.86036" lon="4.83513">
        <ele>170.838494</ele>
        <time>2021-05-01T12:55:06.019Z</time>
      </trkpt>
      <trkpt lat="45.86043" lon="4.83513">
        <ele>170.803169</ele>
        <time>2021-05-01T12:55:07.585Z</time>
      </trkpt>
      <trkpt lat="45.86071" lon="4.83514">
        <ele>170.660297</ele>
        <time>2021-05-01T12:55:13.771Z</time>
      </trkpt>
      <trkpt lat="45.86081" lon="4.83515">
        <ele>170.604163</ele>
        <time>2021-05-01T12:55:16.427Z</time>
      </trkpt>
      <trkpt lat="45.86094" lon="4.83516">
        <ele>170.536583</ele>
        <time>2021-05-01T12:55:19.518Z</time>
      </trkpt>
      <trkpt lat="45.86118" lon="4.83517">
        <ele>170.415967</ele>
        <time>2021-05-01T12:55:25.390Z</time>
      </trkpt>
      <trkpt lat="45.8615" lon="4.8352">
        <ele>170.250204</ele>
        <time>2021-05-01T12:55:33.971Z</time>
      </trkpt>
      <trkpt lat="45.86214" lon="4.83527">
        <ele>170.232297</ele>
        <time>2021-05-01T12:55:50.194Z</time>
      </trkpt>
      <trkpt lat="45.86218" lon="4.83527">
        <ele>170.231139</ele>
        <time>2021-05-01T12:55:51.261Z</time>
      </trkpt>
      <trkpt lat="45.86263" lon="4.8353">
        <ele>170.218457</ele>
        <time>2021-05-01T12:56:02.716Z</time>
      </trkpt>
      <trkpt lat="45.86265" lon="4.8353">
        <ele>170.217893</ele>
        <time>2021-05-01T12:56:03.217Z</time>
      </trkpt>
      <trkpt lat="45.86285" lon="4.83533">
        <ele>170.211983</ele>
        <time>2021-05-01T12:56:08.675Z</time>
      </trkpt>
      <trkpt lat="45.86306" lon="4.83532">
        <ele>170.206275</ele>
        <time>2021-05-01T12:56:14.278Z</time>
      </trkpt>
      <trkpt lat="45.86308" lon="4.83535">
        <ele>170.205287</ele>
        <time>2021-05-01T12:56:15.242Z</time>
      </trkpt>
      <trkpt lat="45.8632" lon="4.83535">
        <ele>170.202097</ele>
        <time>2021-05-01T12:56:18.812Z</time>
      </trkpt>
      <trkpt lat="45.86348" lon="4.83532">
        <ele>170.237894</ele>
        <time>2021-05-01T12:56:27.516Z</time>
      </trkpt>
      <trkpt lat="45.86369" lon="4.83524">
        <ele>170.2782</ele>
        <time>2021-05-01T12:56:34.575Z</time>
      </trkpt>
      <trkpt lat="45.86391" lon="4.83513">
        <ele>170.321091</ele>
        <time>2021-05-01T12:56:42.142Z</time>
      </trkpt>
      <trkpt lat="45.86397" lon="4.8351">
        <ele>170.333357</ele>
        <time>2021-05-01T12:56:44.071Z</time>
      </trkpt>
      <trkpt lat="45.86417" lon="4.835">
        <ele>170.373907</ele>
        <time>2021-05-01T12:56:50.382Z</time>
      </trkpt>
      <trkpt lat="45.86421" lon="4.83499">
        <ele>170.380351</ele>
        <time>2021-05-01T12:56:51.540Z</time>
      </trkpt>
      <trkpt lat="45.86454" lon="4.83482">
        <ele>170.446262</ele>
        <time>2021-05-01T12:57:00.849Z</time>
      </trkpt>
      <trkpt lat="45.86455" lon="4.83477">
        <ele>170.453433</ele>
        <time>2021-05-01T12:57:01.969Z</time>
      </trkpt>
      <trkpt lat="45.86465" lon="4.83472">
        <ele>170.47326</ele>
        <time>2021-05-01T12:57:04.488Z</time>
      </trkpt>
      <trkpt lat="45.86483" lon="4.83464">
        <ele>170.508767</ele>
        <time>2021-05-01T12:57:09.119Z</time>
      </trkpt>
      <trkpt lat="45.86513" lon="4.83453">
        <ele>170.487919</ele>
        <time>2021-05-01T12:57:17.143Z</time>
      </trkpt>
      <trkpt lat="45.86536" lon="4.83446">
        <ele>170.415468</ele>
        <time>2021-05-01T12:57:23.448Z</time>
      </trkpt>
      <trkpt lat="45.86558" lon="4.83442">
        <ele>170.350734</ele>
        <time>2021-05-01T12:57:29.225Z</time>
      </trkpt>
      <trkpt lat="45.86568" lon="4.8344">
        <ele>170.318767</ele>
        <time>2021-05-01T12:57:31.929Z</time>
      </trkpt>
      <trkpt lat="45.86591" lon="4.83438">
        <ele>170.247997</ele>
        <time>2021-05-01T12:57:37.895Z</time>
      </trkpt>
      <trkpt lat="45.86599" lon="4.83437">
        <ele>170.225847</ele>
        <time>2021-05-01T12:57:39.833Z</time>
      </trkpt>
      <trkpt lat="45.86626" lon="4.83435">
        <ele>170.143935</ele>
        <time>2021-05-01T12:57:46.609Z</time>
      </trkpt>
      <trkpt lat="45.86646" lon="4.83436">
        <ele>170.083568</ele>
        <time>2021-05-01T12:57:51.538Z</time>
      </trkpt>
      <trkpt lat="45.86671" lon="4.83439">
        <ele>170.00649</ele>
        <time>2021-05-01T12:57:57.833Z</time>
      </trkpt>
      <trkpt lat="45.86727" lon="4.83444">
        <ele>169.72521</ele>
        <time>2021-05-01T12:58:11.499Z</time>
      </trkpt>
      <trkpt lat="45.86873" lon="4.83455">
        <ele>168.949844</ele>
        <time>2021-05-01T12:58:47.731Z</time>
      </trkpt>
      <trkpt lat="45.86947" lon="4.83462">
        <ele>168.504423</ele>
        <time>2021-05-01T12:59:05.574Z</time>
      </trkpt>
      <trkpt lat="45.87132" lon="4.83466">
        <ele>167.599129</ele>
        <time>2021-05-01T12:59:50.615Z</time>
      </trkpt>
      <trkpt lat="45.87152" lon="4.83469">
        <ele>167.521369</ele>
        <time>2021-05-01T12:59:55.394Z</time>
      </trkpt>
      <trkpt lat="45.87248" lon="4.83486">
        <ele>167.328059</ele>
        <time>2021-05-01T13:00:20.723Z</time>
      </trkpt>
      <trkpt lat="45.87286" lon="4.83492">
        <ele>167.385939</ele>
        <time>2021-05-01T13:00:31.501Z</time>
      </trkpt>
      <trkpt lat="45.87306" lon="4.83496">
        <ele>167.415862</ele>
        <time>2021-05-01T13:00:37.255Z</time>
      </trkpt>
      <trkpt lat="45.87328" lon="4.83499">
        <ele>167.449439</ele>
        <time>2021-05-01T13:00:43.757Z</time>
      </trkpt>
      <trkpt lat="45.87351" lon="4.83502">
        <ele>167.483078</ele>
        <time>2021-05-01T13:00:50.287Z</time>
      </trkpt>
      <trkpt lat="45.87357" lon="4.83503">
        <ele>167.492846</ele>
        <time>2021-05-01T13:00:52.076Z</time>
      </trkpt>
      <trkpt lat="45.87366" lon="4.83503">
        <ele>167.505722</ele>
        <time>2021-05-01T13:00:54.478Z</time>
      </trkpt>
      <trkpt lat="45.87383" lon="4.83502">
        <ele>167.531785</ele>
        <time>2021-05-01T13:00:59.346Z</time>
      </trkpt>
      <trkpt lat="45.87424" lon="4.83502">
        <ele>167.43893</ele>
        <time>2021-05-01T13:01:09.697Z</time>
      </trkpt>
      <trkpt lat="45.87436" lon="4.83502">
        <ele>167.397048</ele>
        <time>2021-05-01T13:01:12.716Z</time>
      </trkpt>
      <trkpt lat="45.87489" lon="4.83503">
        <ele>167.210841</ele>
        <time>2021-05-01T13:01:26.003Z</time>
      </trkpt>
      <trkpt lat="45.87494" lon="4.83503">
        <ele>167.192538</ele>
        <time>2021-05-01T13:01:27.300Z</time>
      </trkpt>
      <trkpt lat="45.87526" lon="4.83506">
        <ele>167.080467</ele>
        <time>2021-05-01T13:01:34.934Z</time>
      </trkpt>
      <trkpt lat="45.87544" lon="4.83512">
        <ele>167.01458</ele>
        <time>2021-05-01T13:01:39.357Z</time>
      </trkpt>
      <trkpt lat="45.87553" lon="4.83516">
        <ele>166.9817</ele>
        <time>2021-05-01T13:01:41.530Z</time>
      </trkpt>
      <trkpt lat="45.87586" lon="4.83529">
        <ele>167.033099</ele>
        <time>2021-05-01T13:01:50.183Z</time>
      </trkpt>
      <trkpt lat="45.87608" lon="4.83535">
        <ele>167.205177</ele>
        <time>2021-05-01T13:01:56.127Z</time>
      </trkpt>
      <trkpt lat="45.87622" lon="4.83538">
        <ele>167.32132</ele>
        <time>2021-05-01T13:01:59.983Z</time>
      </trkpt>
      <trkpt lat="45.87639" lon="4.8354">
        <ele>167.449628</ele>
        <time>2021-05-01T13:02:04.813Z</time>
      </trkpt>
      <trkpt lat="45.87655" lon="4.83542">
        <ele>167.576927</ele>
        <time>2021-05-01T13:02:09.359Z</time>
      </trkpt>
      <trkpt lat="45.87664" lon="4.83542">
        <ele>167.645948</ele>
        <time>2021-05-01T13:02:12.085Z</time>
      </trkpt>
      <trkpt lat="45.87669" lon="4.83543">
        <ele>167.689083</ele>
        <time>2021-05-01T13:02:13.848Z</time>
      </trkpt>
      <trkpt lat="45.8767" lon="4.83547">
        <ele>167.714241</ele>
        <time>2021-05-01T13:02:14.859Z</time>
      </trkpt>
      <trkpt lat="45.87676" lon="4.83555">
        <ele>167.775769</ele>
        <time>2021-05-01T13:02:17.314Z</time>
      </trkpt>
      <trkpt lat="45.87679" lon="4.83555">
        <ele>167.802616</ele>
        <time>2021-05-01T13:02:18.375Z</time>
      </trkpt>
      <trkpt lat="45.87679" lon="4.83564">
        <ele>167.848011</ele>
        <time>2021-05-01T13:02:20.109Z</time>
      </trkpt>
      <trkpt lat="45.87698" lon="4.83814">
        <ele>169.581714</ele>
        <time>2021-05-01T13:03:22.535Z</time>
      </trkpt>
      <trkpt lat="45.87701" lon="4.83826">
        <ele>169.681097</ele>
        <time>2021-05-01T13:03:24.801Z</time>
      </trkpt>
      <trkpt lat="45.87697" lon="4.83829">
        <ele>169.724115</ele>
        <time>2021-05-01T13:03:26.029Z</time>
      </trkpt>
      <trkpt lat="45.87695" lon="4.83833">
        <ele>169.760719</ele>
        <time>2021-05-01T13:03:27.003Z</time>
      </trkpt>
      <trkpt lat="45.87693" lon="4.83839">
        <ele>169.814495</ele>
        <time>2021-05-01T13:03:28.708Z</time>
      </trkpt>
      <trkpt lat="45.87694" lon="4.83846">
        <ele>169.869613</ele>
        <time>2021-05-01T13:03:30.408Z</time>
      </trkpt>
      <trkpt lat="45.87696" lon="4.83851">
        <ele>169.911949</ele>
        <time>2021-05-01T13:03:31.536Z</time>
      </trkpt>
      <trkpt lat="45.87704" lon="4.83858">
        <ele>170.018371</ele>
        <time>2021-05-01T13:03:34.344Z</time>
      </trkpt>
      <trkpt lat="45.87708" lon="4.83857">
        <ele>170.067154</ele>
        <time>2021-05-01T13:03:35.248Z</time>
      </trkpt>
      <trkpt lat="45.8771" lon="4.83856">
        <ele>170.089935</ele>
        <time>2021-05-01T13:03:35.877Z</time>
      </trkpt>
      <trkpt lat="45.87713" lon="4.83854">
        <ele>170.119802</ele>
        <time>2021-05-01T13:03:36.634Z</time>
      </trkpt>
      <trkpt lat="45.87714" lon="4.83851">
        <ele>170.150065</ele>
        <time>2021-05-01T13:03:37.354Z</time>
      </trkpt>
      <trkpt lat="45.87716" lon="4.83836">
        <ele>170.261648</ele>
        <time>2021-05-01T13:03:40.520Z</time>
      </trkpt>
      <trkpt lat="45.87713" lon="4.83831">
        <ele>170.28675</ele>
        <time>2021-05-01T13:03:41.663Z</time>
      </trkpt>
      <trkpt lat="45.87712" lon="4.83829">
        <ele>170.267606</ele>
        <time>2021-05-01T13:03:42.210Z</time>
      </trkpt>
      <trkpt lat="45.87711" lon="4.83827">
        <ele>170.254243</ele>
        <time>2021-05-01T13:03:42.554Z</time>
      </trkpt>
      <trkpt lat="45.87721" lon="4.83817">
        <ele>170.137693</ele>
        <time>2021-05-01T13:03:46.178Z</time>
      </trkpt>
      <trkpt lat="45.8772" lon="4.83795">
        <ele>170.002114</ele>
        <time>2021-05-01T13:03:51.791Z</time>
      </trkpt>
      <trkpt lat="45.8772" lon="4.83789">
        <ele>169.961299</ele>
        <time>2021-05-01T13:03:53.293Z</time>
      </trkpt>
      <trkpt lat="45.87729" lon="4.8378">
        <ele>169.863265</ele>
        <time>2021-05-01T13:03:56.541Z</time>
      </trkpt>
      <trkpt lat="45.87732" lon="4.8378">
        <ele>169.833579</ele>
        <time>2021-05-01T13:03:57.120Z</time>
      </trkpt>
      <trkpt lat="45.87786" lon="4.8376">
        <ele>169.326464</ele>
        <time>2021-05-01T13:04:09.999Z</time>
      </trkpt>
      <trkpt lat="45.87821" lon="4.83733">
        <ele>168.961331</ele>
        <time>2021-05-01T13:04:18.725Z</time>
      </trkpt>
      <trkpt lat="45.87836" lon="4.83723">
        <ele>168.810749</ele>
        <time>2021-05-01T13:04:22.197Z</time>
      </trkpt>
      <trkpt lat="45.87838" lon="4.83723">
        <ele>168.792293</ele>
        <time>2021-05-01T13:04:22.982Z</time>
      </trkpt>
      <trkpt lat="45.87879" lon="4.83681">
        <ele>168.750893</ele>
        <time>2021-05-01T13:04:35.511Z</time>
      </trkpt>
      <trkpt lat="45.87936" lon="4.83596">
        <ele>168.978421</ele>
        <time>2021-05-01T13:04:58.025Z</time>
      </trkpt>
      <trkpt lat="45.8794" lon="4.83596">
        <ele>168.98927</ele>
        <time>2021-05-01T13:04:59.746Z</time>
      </trkpt>
      <trkpt lat="45.87945" lon="4.83579">
        <ele>169.025524</ele>
        <time>2021-05-01T13:05:04.644Z</time>
      </trkpt>
      <trkpt lat="45.87967" lon="4.83517">
        <ele>169.187675</ele>
        <time>2021-05-01T13:05:25.382Z</time>
      </trkpt>
      <trkpt lat="45.87994" lon="4.83404">
        <ele>170.242288</ele>
        <time>2021-05-01T13:06:01.491Z</time>
      </trkpt>
      <trkpt lat="45.87999" lon="4.83407">
        <ele>170.303078</ele>
        <time>2021-05-01T13:06:03.017Z</time>
      </trkpt>
      <trkpt lat="45.8801" lon="4.83414">
        <ele>170.457098</ele>
        <time>2021-05-01T13:06:07.525Z</time>
      </trkpt>
      <trkpt lat="45.88014" lon="4.83417">
        <ele>170.516374</ele>
        <time>2021-05-01T13:06:08.893Z</time>
      </trkpt>
      <trkpt lat="45.88056" lon="4.83448">
        <ele>171.113438</ele>
        <time>2021-05-01T13:06:23.925Z</time>
      </trkpt>
      <trkpt lat="45.88108" lon="4.83487">
        <ele>171.584773</ele>
        <time>2021-05-01T13:06:43.181Z</time>
      </trkpt>
      <trkpt lat="45.88151" lon="4.83453">
        <ele>171.799237</ele>
        <time>2021-05-01T13:06:58.982Z</time>
      </trkpt>
      <trkpt lat="45.88195" lon="4.83426">
        <ele>172.010579</ele>
        <time>2021-05-01T13:07:12.872Z</time>
      </trkpt>
      <trkpt lat="45.88367" lon="4.83363">
        <ele>172.138618</ele>
        <time>2021-05-01T13:08:01.410Z</time>
      </trkpt>
      <trkpt lat="45.88406" lon="4.83346">
        <ele>172.110136</ele>
        <time>2021-05-01T13:08:12.508Z</time>
      </trkpt>
      <trkpt lat="45.88476" lon="4.83306">
        <ele>172.101968</ele>
        <time>2021-05-01T13:08:33.369Z</time>
      </trkpt>
      <trkpt lat="45.8854" lon="4.83266">
        <ele>172.101998</ele>
        <time>2021-05-01T13:08:52.436Z</time>
      </trkpt>
      <trkpt lat="45.88588" lon="4.83203">
        <ele>172.144827</ele>
        <time>2021-05-01T13:09:10.877Z</time>
      </trkpt>
      <trkpt lat="45.88608" lon="4.83181">
        <ele>172.201116</ele>
        <time>2021-05-01T13:09:18.205Z</time>
      </trkpt>
      <trkpt lat="45.88627" lon="4.83159">
        <ele>172.256504</ele>
        <time>2021-05-01T13:09:25.326Z</time>
      </trkpt>
      <trkpt lat="45.88672" lon="4.83102">
        <ele>172.392639</ele>
        <time>2021-05-01T13:09:43.112Z</time>
      </trkpt>
      <trkpt lat="45.88719" lon="4.83048">
        <ele>172.505321</ele>
        <time>2021-05-01T13:10:00.350Z</time>
      </trkpt>
      <trkpt lat="45.88763" lon="4.8299">
        <ele>172.485733</ele>
        <time>2021-05-01T13:10:17.475Z</time>
      </trkpt>
      <trkpt lat="45.88766" lon="4.82987">
        <ele>172.484599</ele>
        <time>2021-05-01T13:10:18.401Z</time>
      </trkpt>
      <trkpt lat="45.88857" lon="4.82871">
        <ele>172.462092</ele>
        <time>2021-05-01T13:10:51.311Z</time>
      </trkpt>
      <trkpt lat="45.88963" lon="4.82745">
        <ele>172.585503</ele>
        <time>2021-05-01T13:11:29.422Z</time>
      </trkpt>
      <trkpt lat="45.8903" lon="4.82618">
        <ele>172.93688</ele>
        <time>2021-05-01T13:12:03.117Z</time>
      </trkpt>
      <trkpt lat="45.89056" lon="4.82568">
        <ele>173.109186</ele>
        <time>2021-05-01T13:12:16.108Z</time>
      </trkpt>
      <trkpt lat="45.89064" lon="4.82577">
        <ele>173.149832</ele>
        <time>2021-05-01T13:12:20.954Z</time>
      </trkpt>
      <trkpt lat="45.8908" lon="4.82601">
        <ele>173.241401</ele>
        <time>2021-05-01T13:12:31.458Z</time>
      </trkpt>
      <trkpt lat="45.89087" lon="4.82609">
        <ele>173.278268</ele>
        <time>2021-05-01T13:12:35.742Z</time>
      </trkpt>
      <trkpt lat="45.8909" lon="4.82615">
        <ele>173.299874</ele>
        <time>2021-05-01T13:12:38.433Z</time>
      </trkpt>
      <trkpt lat="45.89122" lon="4.82619">
        <ele>173.287453</ele>
        <time>2021-05-01T13:12:52.831Z</time>
      </trkpt>
      <trkpt lat="45.89124" lon="4.82614">
        <ele>173.281948</ele>
        <time>2021-05-01T13:12:54.803Z</time>
      </trkpt>
      <trkpt lat="45.89133" lon="4.82595">
        <ele>173.260746</ele>
        <time>2021-05-01T13:13:01.865Z</time>
      </trkpt>
      <trkpt lat="45.89137" lon="4.82591">
        <ele>173.254508</ele>
        <time>2021-05-01T13:13:03.758Z</time>
      </trkpt>
      <trkpt lat="45.89147" lon="4.82557">
        <ele>173.220267</ele>
        <time>2021-05-01T13:13:15.360Z</time>
      </trkpt>
      <trkpt lat="45.89142" lon="4.82552">
        <ele>173.212714</ele>
        <time>2021-05-01T13:13:17.804Z</time>
      </trkpt>
      <trkpt lat="45.89145" lon="4.82548">
        <ele>173.207091</ele>
        <time>2021-05-01T13:13:18.733Z</time>
      </trkpt>
      <trkpt lat="45.89308" lon="4.82366">
        <ele>172.591731</ele>
        <time>2021-05-01T13:14:10.629Z</time>
      </trkpt>
      <trkpt lat="45.89315" lon="4.82357">
        <ele>172.549979</ele>
        <time>2021-05-01T13:14:13.054Z</time>
      </trkpt>
      <trkpt lat="45.8933" lon="4.82336">
        <ele>172.456065</ele>
        <time>2021-05-01T13:14:18.221Z</time>
      </trkpt>
      <trkpt lat="45.89382" lon="4.82269">
        <ele>172.192498</ele>
        <time>2021-05-01T13:14:35.029Z</time>
      </trkpt>
      <trkpt lat="45.89436" lon="4.82201">
        <ele>171.963913</ele>
        <time>2021-05-01T13:14:52.900Z</time>
      </trkpt>
      <trkpt lat="45.89449" lon="4.82185">
        <ele>171.910119</ele>
        <time>2021-05-01T13:14:57.253Z</time>
      </trkpt>
      <trkpt lat="45.89467" lon="4.82174">
        <ele>171.849226</ele>
        <time>2021-05-01T13:15:02.302Z</time>
      </trkpt>
      <trkpt lat="45.8947" lon="4.82171">
        <ele>171.837217</ele>
        <time>2021-05-01T13:15:03.282Z</time>
      </trkpt>
      <trkpt lat="45.89473" lon="4.82169">
        <ele>171.827786</ele>
        <time>2021-05-01T13:15:04.062Z</time>
      </trkpt>
      <trkpt lat="45.89511" lon="4.82138">
        <ele>171.775048</ele>
        <time>2021-05-01T13:15:15.802Z</time>
      </trkpt>
      <trkpt lat="45.89525" lon="4.8213">
        <ele>171.842165</ele>
        <time>2021-05-01T13:15:19.993Z</time>
      </trkpt>
      <trkpt lat="45.89532" lon="4.82131">
        <ele>171.869798</ele>
        <time>2021-05-01T13:15:21.791Z</time>
      </trkpt>
      <trkpt lat="45.89538" lon="4.82129">
        <ele>171.89771</ele>
        <time>2021-05-01T13:15:23.536Z</time>
      </trkpt>
      <trkpt lat="45.89543" lon="4.82124">
        <ele>171.925751</ele>
        <time>2021-05-01T13:15:25.266Z</time>
      </trkpt>
      <trkpt lat="45.89548" lon="4.82117">
        <ele>171.953322</ele>
        <time>2021-05-01T13:15:27.104Z</time>
      </trkpt>
      <trkpt lat="45.8955" lon="4.82109">
        <ele>171.981451</ele>
        <time>2021-05-01T13:15:28.834Z</time>
      </trkpt>
      <trkpt lat="45.89551" lon="4.821">
        <ele>172.009245</ele>
        <time>2021-05-01T13:15:30.703Z</time>
      </trkpt>
      <trkpt lat="45.89559" lon="4.82083">
        <ele>172.072643</ele>
        <time>2021-05-01T13:15:34.849Z</time>
      </trkpt>
      <trkpt lat="45.89581" lon="4.82062">
        <ele>172.186475</ele>
        <time>2021-05-01T13:15:42.472Z</time>
      </trkpt>
      <trkpt lat="45.89622" lon="4.82024">
        <ele>172.399529</ele>
        <time>2021-05-01T13:15:56.863Z</time>
      </trkpt>
      <trkpt lat="45.89632" lon="4.82011">
        <ele>172.459758</ele>
        <time>2021-05-01T13:16:00.947Z</time>
      </trkpt>
      <trkpt lat="45.89721" lon="4.81936">
        <ele>173.261797</ele>
        <time>2021-05-01T13:16:32.575Z</time>
      </trkpt>
      <trkpt lat="45.89746" lon="4.81918">
        <ele>173.488943</ele>
        <time>2021-05-01T13:16:40.902Z</time>
      </trkpt>
      <trkpt lat="45.8975" lon="4.81914">
        <ele>173.532138</ele>
        <time>2021-05-01T13:16:42.460Z</time>
      </trkpt>
      <trkpt lat="45.89759" lon="4.81905">
        <ele>173.61466</ele>
        <time>2021-05-01T13:16:45.404Z</time>
      </trkpt>
      <trkpt lat="45.89779" lon="4.81893">
        <ele>173.799617</ele>
        <time>2021-05-01T13:16:52.345Z</time>
      </trkpt>
      <trkpt lat="45.89815" lon="4.81862">
        <ele>174.217245</ele>
        <time>2021-05-01T13:17:05.586Z</time>
      </trkpt>
      <trkpt lat="45.89893" lon="4.81774">
        <ele>175.42633</ele>
        <time>2021-05-01T13:17:38.366Z</time>
      </trkpt>
      <trkpt lat="45.89906" lon="4.81765">
        <ele>175.599856</ele>
        <time>2021-05-01T13:17:42.823Z</time>
      </trkpt>
      <trkpt lat="45.89918" lon="4.81762">
        <ele>175.749133</ele>
        <time>2021-05-01T13:17:46.978Z</time>
      </trkpt>
      <trkpt lat="45.89922" lon="4.81765">
        <ele>175.800867</ele>
        <time>2021-05-01T13:17:48.312Z</time>
      </trkpt>
      <trkpt lat="45.89926" lon="4.81767">
        <ele>175.85244</ele>
        <time>2021-05-01T13:17:49.644Z</time>
      </trkpt>
      <trkpt lat="45.89929" lon="4.81767">
        <ele>175.896799</ele>
        <time>2021-05-01T13:17:50.985Z</time>
      </trkpt>
      <trkpt lat="45.89942" lon="4.81763">
        <ele>176.05213</ele>
        <time>2021-05-01T13:17:54.792Z</time>
      </trkpt>
      <trkpt lat="45.89947" lon="4.81757">
        <ele>176.130379</ele>
        <time>2021-05-01T13:17:57.031Z</time>
      </trkpt>
      <trkpt lat="45.8995" lon="4.8175">
        <ele>176.216046</ele>
        <time>2021-05-01T13:17:59.117Z</time>
      </trkpt>
      <trkpt lat="45.89952" lon="4.8174">
        <ele>176.319204</ele>
        <time>2021-05-01T13:18:01.341Z</time>
      </trkpt>
      <trkpt lat="45.89952" lon="4.81738">
        <ele>176.339929</ele>
        <time>2021-05-01T13:18:01.846Z</time>
      </trkpt>
      <trkpt lat="45.89953" lon="4.81737">
        <ele>176.347315</ele>
        <time>2021-05-01T13:18:02.104Z</time>
      </trkpt>
      <trkpt lat="45.89961" lon="4.81724">
        <ele>176.533955</ele>
        <time>2021-05-01T13:18:06.122Z</time>
      </trkpt>
      <trkpt lat="45.89999" lon="4.81698">
        <ele>177.152796</ele>
        <time>2021-05-01T13:18:20.393Z</time>
      </trkpt>
      <trkpt lat="45.90081" lon="4.81661">
        <ele>178.44064</ele>
        <time>2021-05-01T13:18:50.042Z</time>
      </trkpt>
      <trkpt lat="45.90102" lon="4.81655">
        <ele>178.748039</ele>
        <time>2021-05-01T13:18:57.016Z</time>
      </trkpt>
      <trkpt lat="45.90117" lon="4.81653">
        <ele>178.982099</ele>
        <time>2021-05-01T13:19:02.221Z</time>
      </trkpt>
      <trkpt lat="45.90142" lon="4.81649">
        <ele>179.342562</ele>
        <time>2021-05-01T13:19:10.885Z</time>
      </trkpt>
      <trkpt lat="45.90241" lon="4.81637">
        <ele>180.820542</ele>
        <time>2021-05-01T13:19:45.404Z</time>
      </trkpt>
      <trkpt lat="45.90257" lon="4.81639">
        <ele>181.064313</ele>
        <time>2021-05-01T13:19:50.713Z</time>
      </trkpt>
      <trkpt lat="45.9027" lon="4.81646">
        <ele>181.266146</ele>
        <time>2021-05-01T13:19:55.296Z</time>
      </trkpt>
      <trkpt lat="45.90273" lon="4.81651">
        <ele>181.32886</ele>
        <time>2021-05-01T13:19:56.819Z</time>
      </trkpt>
      <trkpt lat="45.90287" lon="4.81658">
        <ele>181.527445</ele>
        <time>2021-05-01T13:20:01.335Z</time>
      </trkpt>
      <trkpt lat="45.90292" lon="4.81656">
        <ele>181.555183</ele>
        <time>2021-05-01T13:20:03.206Z</time>
      </trkpt>
      <trkpt lat="45.90296" lon="4.81653">
        <ele>181.576625</ele>
        <time>2021-05-01T13:20:04.484Z</time>
      </trkpt>
      <trkpt lat="45.90298" lon="4.81648">
        <ele>181.59855</ele>
        <time>2021-05-01T13:20:05.748Z</time>
      </trkpt>
      <trkpt lat="45.903" lon="4.81643">
        <ele>181.620242</ele>
        <time>2021-05-01T13:20:07.029Z</time>
      </trkpt>
      <trkpt lat="45.90302" lon="4.8164">
        <ele>181.6367</ele>
        <time>2021-05-01T13:20:08.111Z</time>
      </trkpt>
      <trkpt lat="45.90322" lon="4.81626">
        <ele>181.755642</ele>
        <time>2021-05-01T13:20:14.903Z</time>
      </trkpt>
      <trkpt lat="45.90381" lon="4.81611">
        <ele>182.07339</ele>
        <time>2021-05-01T13:20:32.520Z</time>
      </trkpt>
      <trkpt lat="45.90409" lon="4.81601">
        <ele>182.229523</ele>
        <time>2021-05-01T13:20:41.086Z</time>
      </trkpt>
      <trkpt lat="45.90421" lon="4.81599">
        <ele>182.290876</ele>
        <time>2021-05-01T13:20:44.189Z</time>
      </trkpt>
      <trkpt lat="45.90442" lon="4.81596">
        <ele>182.404806</ele>
        <time>2021-05-01T13:20:49.920Z</time>
      </trkpt>
      <trkpt lat="45.90494" lon="4.81593">
        <ele>182.086504</ele>
        <time>2021-05-01T13:21:03.454Z</time>
      </trkpt>
      <trkpt lat="45.90498" lon="4.81593">
        <ele>182.051572</ele>
        <time>2021-05-01T13:21:04.377Z</time>
      </trkpt>
      <trkpt lat="45.90546" lon="4.8159">
        <ele>181.58592</ele>
        <time>2021-05-01T13:21:15.901Z</time>
      </trkpt>
      <trkpt lat="45.90586" lon="4.81589">
        <ele>181.20269</ele>
        <time>2021-05-01T13:21:24.981Z</time>
      </trkpt>
      <trkpt lat="45.90663" lon="4.81585">
        <ele>179.933314</ele>
        <time>2021-05-01T13:21:41.655Z</time>
      </trkpt>
      <trkpt lat="45.90682" lon="4.81584">
        <ele>179.412907</ele>
        <time>2021-05-01T13:21:45.408Z</time>
      </trkpt>
      <trkpt lat="45.90727" lon="4.81582">
        <ele>178.138172</ele>
        <time>2021-05-01T13:21:54.797Z</time>
      </trkpt>
      <trkpt lat="45.90835" lon="4.81579">
        <ele>175.118312</ele>
        <time>2021-05-01T13:22:15.528Z</time>
      </trkpt>
      <trkpt lat="45.90885" lon="4.81579">
        <ele>173.686623</ele>
        <time>2021-05-01T13:22:25.123Z</time>
      </trkpt>
      <trkpt lat="45.90947" lon="4.81587">
        <ele>171.866385</ele>
        <time>2021-05-01T13:22:37.576Z</time>
      </trkpt>
      <trkpt lat="45.91038" lon="4.81603">
        <ele>170.031711</ele>
        <time>2021-05-01T13:22:56.623Z</time>
      </trkpt>
      <trkpt lat="45.91032" lon="4.8154">
        <ele>169.540504</ele>
        <time>2021-05-01T13:23:07.074Z</time>
      </trkpt>
      <trkpt lat="45.91019" lon="4.81408">
        <ele>168.547393</ele>
        <time>2021-05-01T13:23:30.885Z</time>
      </trkpt>
      <trkpt lat="45.90997" lon="4.81244">
        <ele>168.637607</ele>
        <time>2021-05-01T13:24:03.862Z</time>
      </trkpt>
      <trkpt lat="45.91014" lon="4.8123">
        <ele>168.653156</ele>
        <time>2021-05-01T13:24:09.707Z</time>
      </trkpt>
      <trkpt lat="45.91037" lon="4.81193">
        <ele>168.679766</ele>
        <time>2021-05-01T13:24:19.719Z</time>
      </trkpt>
      <trkpt lat="45.91063" lon="4.81175">
        <ele>168.679729</ele>
        <time>2021-05-01T13:24:28.172Z</time>
      </trkpt>
      <trkpt lat="45.91114" lon="4.8117">
        <ele>168.664867</ele>
        <time>2021-05-01T13:24:42.592Z</time>
      </trkpt>
      <trkpt lat="45.91181" lon="4.81161">
        <ele>168.645294</ele>
        <time>2021-05-01T13:25:00.661Z</time>
      </trkpt>
      <trkpt lat="45.91191" lon="4.8116">
        <ele>168.642311</ele>
        <time>2021-05-01T13:25:03.330Z</time>
      </trkpt>
      <trkpt lat="45.91216" lon="4.81159">
        <ele>168.63491</ele>
        <time>2021-05-01T13:25:10.196Z</time>
      </trkpt>
      <trkpt lat="45.9125" lon="4.81159">
        <ele>168.683023</ele>
        <time>2021-05-01T13:25:19.272Z</time>
      </trkpt>
      <trkpt lat="45.91265" lon="4.81159">
        <ele>168.709664</ele>
        <time>2021-05-01T13:25:23.407Z</time>
      </trkpt>
      <trkpt lat="45.9131" lon="4.81159">
        <ele>168.7882</ele>
        <time>2021-05-01T13:25:36.025Z</time>
      </trkpt>
      <trkpt lat="45.91315" lon="4.8116">
        <ele>168.796385</ele>
        <time>2021-05-01T13:25:37.347Z</time>
      </trkpt>
      <trkpt lat="45.91354" lon="4.81158">
        <ele>168.865178</ele>
        <time>2021-05-01T13:25:48.704Z</time>
      </trkpt>
      <trkpt lat="45.91398" lon="4.81172">
        <ele>168.942406</ele>
        <time>2021-05-01T13:26:01.945Z</time>
      </trkpt>
      <trkpt lat="45.91457" lon="4.81211">
        <ele>169.434997</ele>
        <time>2021-05-01T13:26:22.897Z</time>
      </trkpt>
      <trkpt lat="45.91558" lon="4.8121">
        <ele>170.220072</ele>
        <time>2021-05-01T13:26:55.859Z</time>
      </trkpt>
      <trkpt lat="45.91655" lon="4.81207">
        <ele>170.176842</ele>
        <time>2021-05-01T13:27:24.092Z</time>
      </trkpt>
      <trkpt lat="45.91733" lon="4.81195">
        <ele>170.016894</ele>
        <time>2021-05-01T13:27:43.942Z</time>
      </trkpt>
      <trkpt lat="45.91863" lon="4.81169">
        <ele>169.196086</ele>
        <time>2021-05-01T13:28:15.803Z</time>
      </trkpt>
      <trkpt lat="45.91908" lon="4.8115">
        <ele>168.863959</ele>
        <time>2021-05-01T13:28:28.079Z</time>
      </trkpt>
      <trkpt lat="45.9191" lon="4.81149">
        <ele>168.849442</ele>
        <time>2021-05-01T13:28:28.518Z</time>
      </trkpt>
      <trkpt lat="45.91939" lon="4.81137">
        <ele>168.711606</ele>
        <time>2021-05-01T13:28:36.554Z</time>
      </trkpt>
      <trkpt lat="45.92011" lon="4.81096">
        <ele>168.754907</ele>
        <time>2021-05-01T13:28:56.855Z</time>
      </trkpt>
      <trkpt lat="45.9204" lon="4.8107">
        <ele>168.773624</ele>
        <time>2021-05-01T13:29:06.504Z</time>
      </trkpt>
      <trkpt lat="45.92068" lon="4.81046">
        <ele>168.791778</ele>
        <time>2021-05-01T13:29:16.777Z</time>
      </trkpt>
      <trkpt lat="45.92102" lon="4.81019">
        <ele>168.839967</ele>
        <time>2021-05-01T13:29:29.199Z</time>
      </trkpt>
      <trkpt lat="45.92113" lon="4.81013">
        <ele>168.869281</ele>
        <time>2021-05-01T13:29:32.990Z</time>
      </trkpt>
      <trkpt lat="45.9213" lon="4.80986">
        <ele>168.933595</ele>
        <time>2021-05-01T13:29:40.412Z</time>
      </trkpt>
      <trkpt lat="45.92175" lon="4.80932">
        <ele>169.082998</ele>
        <time>2021-05-01T13:29:56.935Z</time>
      </trkpt>
      <trkpt lat="45.92182" lon="4.80919">
        <ele>169.112547</ele>
        <time>2021-05-01T13:30:00.246Z</time>
      </trkpt>
      <trkpt lat="45.92215" lon="4.80865">
        <ele>169.240404</ele>
        <time>2021-05-01T13:30:22.899Z</time>
      </trkpt>
      <trkpt lat="45.9223" lon="4.80836">
        <ele>169.236493</ele>
        <time>2021-05-01T13:30:34.125Z</time>
      </trkpt>
      <trkpt lat="45.92259" lon="4.80769">
        <ele>169.136989</ele>
        <time>2021-05-01T13:30:58.447Z</time>
      </trkpt>
      <trkpt lat="45.92277" lon="4.80712">
        <ele>169.058606</ele>
        <time>2021-05-01T13:31:17.194Z</time>
      </trkpt>
      <trkpt lat="45.92339" lon="4.80377">
        <ele>168.671718</ele>
        <time>2021-05-01T13:33:02.236Z</time>
      </trkpt>
      <trkpt lat="45.92342" lon="4.80359">
        <ele>168.680608</ele>
        <time>2021-05-01T13:33:08.173Z</time>
      </trkpt>
      <trkpt lat="45.92357" lon="4.80283">
        <ele>168.781449</ele>
        <time>2021-05-01T13:33:33.397Z</time>
      </trkpt>
      <trkpt lat="45.92372" lon="4.80182">
        <ele>168.913699</ele>
        <time>2021-05-01T13:34:06.564Z</time>
      </trkpt>
      <trkpt lat="45.92376" lon="4.80125">
        <ele>168.987244</ele>
        <time>2021-05-01T13:34:24.893Z</time>
      </trkpt>
      <trkpt lat="45.92374" lon="4.80042">
        <ele>168.847985</ele>
        <time>2021-05-01T13:34:50.045Z</time>
      </trkpt>
      <trkpt lat="45.92348" lon="4.79685">
        <ele>168.164228</ele>
        <time>2021-05-01T13:36:37.110Z</time>
      </trkpt>
      <trkpt lat="45.9233" lon="4.79504">
        <ele>168.108637</ele>
        <time>2021-05-01T13:37:33.609Z</time>
      </trkpt>
      <trkpt lat="45.92321" lon="4.79457">
        <ele>168.155977</ele>
        <time>2021-05-01T13:37:49.221Z</time>
      </trkpt>
      <trkpt lat="45.92317" lon="4.79355">
        <ele>168.253503</ele>
        <time>2021-05-01T13:38:21.521Z</time>
      </trkpt>
      <trkpt lat="45.92318" lon="4.79263">
        <ele>168.553035</ele>
        <time>2021-05-01T13:38:51.327Z</time>
      </trkpt>
      <trkpt lat="45.92324" lon="4.79228">
        <ele>168.679003</ele>
        <time>2021-05-01T13:39:03.323Z</time>
      </trkpt>
      <trkpt lat="45.92352" lon="4.79157">
        <ele>168.961212</ele>
        <time>2021-05-01T13:39:30.301Z</time>
      </trkpt>
      <trkpt lat="45.92435" lon="4.79019">
        <ele>169.662034</ele>
        <time>2021-05-01T13:40:30.082Z</time>
      </trkpt>
      <trkpt lat="45.9252" lon="4.78938">
        <ele>170.206843</ele>
        <time>2021-05-01T13:41:18.534Z</time>
      </trkpt>
      <trkpt lat="45.92565" lon="4.78909">
        <ele>170.246519</ele>
        <time>2021-05-01T13:41:41.143Z</time>
      </trkpt>
      <trkpt lat="45.92638" lon="4.78873">
        <ele>170.308994</ele>
        <time>2021-05-01T13:42:15.782Z</time>
      </trkpt>
      <trkpt lat="45.92811" lon="4.78757">
        <ele>169.836403</ele>
        <time>2021-05-01T13:43:38.397Z</time>
      </trkpt>
      <trkpt lat="45.93121" lon="4.78533">
        <ele>168.523481</ele>
        <time>2021-05-01T13:46:05.233Z</time>
      </trkpt>
      <trkpt lat="45.93144" lon="4.78516">
        <ele>168.457642</ele>
        <time>2021-05-01T13:46:17.067Z</time>
      </trkpt>
      <trkpt lat="45.93147" lon="4.78514">
        <ele>168.449499</ele>
        <time>2021-05-01T13:46:18.510Z</time>
      </trkpt>
      <trkpt lat="45.93154" lon="4.78508">
        <ele>168.430267</ele>
        <time>2021-05-01T13:46:21.912Z</time>
      </trkpt>
      <trkpt lat="45.93163" lon="4.78502">
        <ele>168.425556</ele>
        <time>2021-05-01T13:46:26.752Z</time>
      </trkpt>
      <trkpt lat="45.9328" lon="4.78422">
        <ele>169.218782</ele>
        <time>2021-05-01T13:47:27.631Z</time>
      </trkpt>
      <trkpt lat="45.93376" lon="4.78353">
        <ele>170.044782</ele>
        <time>2021-05-01T13:48:20.572Z</time>
      </trkpt>
      <trkpt lat="45.93435" lon="4.78313">
        <ele>170.631414</ele>
        <time>2021-05-01T13:48:52.582Z</time>
      </trkpt>
      <trkpt lat="45.93566" lon="4.78198">
        <ele>171.533008</ele>
        <time>2021-05-01T13:50:06.314Z</time>
      </trkpt>
      <trkpt lat="45.93683" lon="4.78128">
        <ele>171.647114</ele>
        <time>2021-05-01T13:51:02.786Z</time>
      </trkpt>
      <trkpt lat="45.93696" lon="4.78117">
        <ele>171.572237</ele>
        <time>2021-05-01T13:51:09.350Z</time>
      </trkpt>
      <trkpt lat="45.93701" lon="4.78112">
        <ele>171.543302</ele>
        <time>2021-05-01T13:51:11.728Z</time>
      </trkpt>
      <trkpt lat="45.93791" lon="4.77999">
        <ele>170.955414</ele>
        <time>2021-05-01T13:52:01.067Z</time>
      </trkpt>
      <trkpt lat="45.93836" lon="4.7794">
        <ele>170.755602</ele>
        <time>2021-05-01T13:52:27.661Z</time>
      </trkpt>
      <trkpt lat="45.93864" lon="4.77898">
        <ele>170.623456</ele>
        <time>2021-05-01T13:52:44.670Z</time>
      </trkpt>
      <trkpt lat="45.93888" lon="4.77862">
        <ele>170.507444</ele>
        <time>2021-05-01T13:52:59.644Z</time>
      </trkpt>
      <trkpt lat="45.93897" lon="4.77832">
        <ele>170.432143</ele>
        <time>2021-05-01T13:53:06.886Z</time>
      </trkpt>
      <trkpt lat="45.93898" lon="4.77833">
        <ele>170.426692</ele>
        <time>2021-05-01T13:53:07.721Z</time>
      </trkpt>
      <trkpt lat="45.93907" lon="4.77838">
        <ele>170.396057</ele>
        <time>2021-05-01T13:53:10.516Z</time>
      </trkpt>
      <trkpt lat="45.93912" lon="4.7782">
        <ele>170.439004</ele>
        <time>2021-05-01T13:53:14.012Z</time>
      </trkpt>
      <trkpt lat="45.93917" lon="4.77797">
        <ele>170.53823</ele>
        <time>2021-05-01T13:53:18.632Z</time>
      </trkpt>
      <trkpt lat="45.93923" lon="4.77771">
        <ele>170.651368</ele>
        <time>2021-05-01T13:53:24.003Z</time>
      </trkpt>
      <trkpt lat="45.93944" lon="4.77717">
        <ele>170.908894</ele>
        <time>2021-05-01T13:53:37.176Z</time>
      </trkpt>
      <trkpt lat="45.93968" lon="4.77644">
        <ele>171.243999</ele>
        <time>2021-05-01T13:53:56.597Z</time>
      </trkpt>
      <trkpt lat="45.93976" lon="4.77605">
        <ele>171.415573</ele>
        <time>2021-05-01T13:54:04.514Z</time>
      </trkpt>
      <trkpt lat="45.9399" lon="4.77533">
        <ele>171.464166</ele>
        <time>2021-05-01T13:54:18.335Z</time>
      </trkpt>
      <trkpt lat="45.94" lon="4.77463">
        <ele>171.472071</ele>
        <time>2021-05-01T13:54:31.074Z</time>
      </trkpt>
      <trkpt lat="45.94002" lon="4.77443">
        <ele>171.474356</ele>
        <time>2021-05-01T13:54:35.240Z</time>
      </trkpt>
      <trkpt lat="45.94004" lon="4.77425">
        <ele>171.476291</ele>
        <time>2021-05-01T13:54:38.307Z</time>
      </trkpt>
      <trkpt lat="45.94009" lon="4.77378">
        <ele>171.481579</ele>
        <time>2021-05-01T13:54:47.468Z</time>
      </trkpt>
      <trkpt lat="45.9401" lon="4.7737">
        <ele>171.482575</ele>
        <time>2021-05-01T13:54:48.953Z</time>
      </trkpt>
      <trkpt lat="45.94015" lon="4.77301">
        <ele>171.520772</ele>
        <time>2021-05-01T13:55:01.690Z</time>
      </trkpt>
      <trkpt lat="45.94016" lon="4.77279">
        <ele>171.539415</ele>
        <time>2021-05-01T13:55:05.540Z</time>
      </trkpt>
      <trkpt lat="45.94018" lon="4.77257">
        <ele>171.558649</ele>
        <time>2021-05-01T13:55:09.376Z</time>
      </trkpt>
      <trkpt lat="45.94022" lon="4.77227">
        <ele>171.585316</ele>
        <time>2021-05-01T13:55:14.871Z</time>
      </trkpt>
      <trkpt lat="45.94024" lon="4.77211">
        <ele>171.598619</ele>
        <time>2021-05-01T13:55:17.455Z</time>
      </trkpt>
      <trkpt lat="45.94033" lon="4.77135">
        <ele>171.665039</ele>
        <time>2021-05-01T13:55:31.749Z</time>
      </trkpt>
      <trkpt lat="45.9404" lon="4.77073">
        <ele>171.855581</ele>
        <time>2021-05-01T13:55:45.120Z</time>
      </trkpt>
      <trkpt lat="45.9405" lon="4.77">
        <ele>172.710176</ele>
        <time>2021-05-01T13:56:02.296Z</time>
      </trkpt>
      <trkpt lat="45.94052" lon="4.76985">
        <ele>172.882359</ele>
        <time>2021-05-01T13:56:06.139Z</time>
      </trkpt>
      <trkpt lat="45.94055" lon="4.76985">
        <ele>172.941855</ele>
        <time>2021-05-01T13:56:07.604Z</time>
      </trkpt>
      <trkpt lat="45.94059" lon="4.76983">
        <ele>173.004877</ele>
        <time>2021-05-01T13:56:08.898Z</time>
      </trkpt>
      <trkpt lat="45.94062" lon="4.76978">
        <ele>173.078372</ele>
        <time>2021-05-01T13:56:10.572Z</time>
      </trkpt>
      <trkpt lat="45.94063" lon="4.76973">
        <ele>173.141905</ele>
        <time>2021-05-01T13:56:11.823Z</time>
      </trkpt>
      <trkpt lat="45.94064" lon="4.76968">
        <ele>173.203949</ele>
        <time>2021-05-01T13:56:13.071Z</time>
      </trkpt>
      <trkpt lat="45.94063" lon="4.76965">
        <ele>173.239345</ele>
        <time>2021-05-01T13:56:13.762Z</time>
      </trkpt>
      <trkpt lat="45.94061" lon="4.7696">
        <ele>173.301914</ele>
        <time>2021-05-01T13:56:14.985Z</time>
      </trkpt>
      <trkpt lat="45.9406" lon="4.76959">
        <ele>173.328711</ele>
        <time>2021-05-01T13:56:15.489Z</time>
      </trkpt>
      <trkpt lat="45.94067" lon="4.76947">
        <ele>173.511873</ele>
        <time>2021-05-01T13:56:19.936Z</time>
      </trkpt>
      <trkpt lat="45.94101" lon="4.7688">
        <ele>174.460639</ele>
        <time>2021-05-01T13:56:40.715Z</time>
      </trkpt>
      <trkpt lat="45.9412" lon="4.76839">
        <ele>175.070459</ele>
        <time>2021-05-01T13:56:53.343Z</time>
      </trkpt>
      <trkpt lat="45.94165" lon="4.76746">
        <ele>176.590802</ele>
        <time>2021-05-01T13:57:22.820Z</time>
      </trkpt>
      <trkpt lat="45.94167" lon="4.76737">
        <ele>176.703196</ele>
        <time>2021-05-01T13:57:24.992Z</time>
      </trkpt>
      <trkpt lat="45.9417" lon="4.76687">
        <ele>177.371519</ele>
        <time>2021-05-01T13:57:37.195Z</time>
      </trkpt>
      <trkpt lat="45.9417" lon="4.76662">
        <ele>177.714583</ele>
        <time>2021-05-01T13:57:43.535Z</time>
      </trkpt>
      <trkpt lat="45.94169" lon="4.76653">
        <ele>177.832871</ele>
        <time>2021-05-01T13:57:45.952Z</time>
      </trkpt>
      <trkpt lat="45.94164" lon="4.76576">
        <ele>178.811309</ele>
        <time>2021-05-01T13:58:03.364Z</time>
      </trkpt>
      <trkpt lat="45.94163" lon="4.76548">
        <ele>179.165086</ele>
        <time>2021-05-01T13:58:10.165Z</time>
      </trkpt>
      <trkpt lat="45.94161" lon="4.76518">
        <ele>179.550331</ele>
        <time>2021-05-01T13:58:16.781Z</time>
      </trkpt>
      <trkpt lat="45.94159" lon="4.76481">
        <ele>180.010478</ele>
        <time>2021-05-01T13:58:25.507Z</time>
      </trkpt>
      <trkpt lat="45.94162" lon="4.7647">
        <ele>180.162067</ele>
        <time>2021-05-01T13:58:28.529Z</time>
      </trkpt>
      <trkpt lat="45.94164" lon="4.76455">
        <ele>180.363795</ele>
        <time>2021-05-01T13:58:32.820Z</time>
      </trkpt>
      <trkpt lat="45.94165" lon="4.76448">
        <ele>180.452077</ele>
        <time>2021-05-01T13:58:34.935Z</time>
      </trkpt>
      <trkpt lat="45.94165" lon="4.76431">
        <ele>180.66209</ele>
        <time>2021-05-01T13:58:38.685Z</time>
      </trkpt>
      <trkpt lat="45.94166" lon="4.76414">
        <ele>180.880965</ele>
        <time>2021-05-01T13:58:43.035Z</time>
      </trkpt>
      <trkpt lat="45.94176" lon="4.76379">
        <ele>181.348484</ele>
        <time>2021-05-01T13:58:52.667Z</time>
      </trkpt>
      <trkpt lat="45.94182" lon="4.76366">
        <ele>181.703325</ele>
        <time>2021-05-01T13:58:57.005Z</time>
      </trkpt>
      <trkpt lat="45.94202" lon="4.76325">
        <ele>182.837979</ele>
        <time>2021-05-01T13:59:11.056Z</time>
      </trkpt>
      <trkpt lat="45.9423" lon="4.7627">
        <ele>184.408865</ele>
        <time>2021-05-01T13:59:32.588Z</time>
      </trkpt>
      <trkpt lat="45.9425" lon="4.76243">
        <ele>185.310816</ele>
        <time>2021-05-01T13:59:44.433Z</time>
      </trkpt>
      <trkpt lat="45.94275" lon="4.76221">
        <ele>186.265207</ele>
        <time>2021-05-01T13:59:57.559Z</time>
      </trkpt>
      <trkpt lat="45.94328" lon="4.76181">
        <ele>187.956095</ele>
        <time>2021-05-01T14:00:23.878Z</time>
      </trkpt>
      <trkpt lat="45.94338" lon="4.76173">
        <ele>188.224087</ele>
        <time>2021-05-01T14:00:28.689Z</time>
      </trkpt>
      <trkpt lat="45.94421" lon="4.76109">
        <ele>190.415862</ele>
        <time>2021-05-01T14:01:04.092Z</time>
      </trkpt>
      <trkpt lat="45.94477" lon="4.76048">
        <ele>191.782619</ele>
        <time>2021-05-01T14:01:27.668Z</time>
      </trkpt>
      <trkpt lat="45.94492" lon="4.76032">
        <ele>192.0046</ele>
        <time>2021-05-01T14:01:33.266Z</time>
      </trkpt>
      <trkpt lat="45.94494" lon="4.76038">
        <ele>192.055573</ele>
        <time>2021-05-01T14:01:34.642Z</time>
      </trkpt>
      <trkpt lat="45.94506" lon="4.76044">
        <ele>192.204382</ele>
        <time>2021-05-01T14:01:38.412Z</time>
      </trkpt>
      <trkpt lat="45.9451" lon="4.76043">
        <ele>192.255545</ele>
        <time>2021-05-01T14:01:39.817Z</time>
      </trkpt>
      <trkpt lat="45.94513" lon="4.76039">
        <ele>192.303477</ele>
        <time>2021-05-01T14:01:41.021Z</time>
      </trkpt>
      <trkpt lat="45.94516" lon="4.76035">
        <ele>192.35106</ele>
        <time>2021-05-01T14:01:42.220Z</time>
      </trkpt>
      <trkpt lat="45.94517" lon="4.7603">
        <ele>192.397756</ele>
        <time>2021-05-01T14:01:43.428Z</time>
      </trkpt>
      <trkpt lat="45.94518" lon="4.76024">
        <ele>192.44479</ele>
        <time>2021-05-01T14:01:44.597Z</time>
      </trkpt>
      <trkpt lat="45.94517" lon="4.76019">
        <ele>192.491845</ele>
        <time>2021-05-01T14:01:45.861Z</time>
      </trkpt>
      <trkpt lat="45.94529" lon="4.76005">
        <ele>192.680337</ele>
        <time>2021-05-01T14:01:50.803Z</time>
      </trkpt>
      <trkpt lat="45.94557" lon="4.75985">
        <ele>193.059716</ele>
        <time>2021-05-01T14:02:00.653Z</time>
      </trkpt>
      <trkpt lat="45.94635" lon="4.75942">
        <ele>194.340873</ele>
        <time>2021-05-01T14:02:28.175Z</time>
      </trkpt>
      <trkpt lat="45.94727" lon="4.75861">
        <ele>196.514104</ele>
        <time>2021-05-01T14:03:09.004Z</time>
      </trkpt>
      <trkpt lat="45.94752" lon="4.75847">
        <ele>197.052075</ele>
        <time>2021-05-01T14:03:19.044Z</time>
      </trkpt>
      <trkpt lat="45.94805" lon="4.75829">
        <ele>197.051621</ele>
        <time>2021-05-01T14:03:39.357Z</time>
      </trkpt>
      <trkpt lat="45.94821" lon="4.75824">
        <ele>196.974093</ele>
        <time>2021-05-01T14:03:44.866Z</time>
      </trkpt>
      <trkpt lat="45.94838" lon="4.75818">
        <ele>196.887016</ele>
        <time>2021-05-01T14:03:50.312Z</time>
      </trkpt>
      <trkpt lat="45.94849" lon="4.75814">
        <ele>196.83085</ele>
        <time>2021-05-01T14:03:53.480Z</time>
      </trkpt>
      <trkpt lat="45.94891" lon="4.7581">
        <ele>196.62437</ele>
        <time>2021-05-01T14:04:02.888Z</time>
      </trkpt>
      <trkpt lat="45.94933" lon="4.75821">
        <ele>196.414567</ele>
        <time>2021-05-01T14:04:11.308Z</time>
      </trkpt>
      <trkpt lat="45.9496" lon="4.7584">
        <ele>195.094198</ele>
        <time>2021-05-01T14:04:17.490Z</time>
      </trkpt>
      <trkpt lat="45.94965" lon="4.75843">
        <ele>194.836781</ele>
        <time>2021-05-01T14:04:18.302Z</time>
      </trkpt>
      <trkpt lat="45.94977" lon="4.75849">
        <ele>194.156092</ele>
        <time>2021-05-01T14:04:20.836Z</time>
      </trkpt>
      <trkpt lat="45.94991" lon="4.75851">
        <ele>193.421787</ele>
        <time>2021-05-01T14:04:23.360Z</time>
      </trkpt>
      <trkpt lat="45.95004" lon="4.75849">
        <ele>192.744064</ele>
        <time>2021-05-01T14:04:25.507Z</time>
      </trkpt>
      <trkpt lat="45.95119" lon="4.75832">
        <ele>186.761385</ele>
        <time>2021-05-01T14:04:45.834Z</time>
      </trkpt>
      <trkpt lat="45.95139" lon="4.75827">
        <ele>186.034321</ele>
        <time>2021-05-01T14:04:49.420Z</time>
      </trkpt>
      <trkpt lat="45.95151" lon="4.75823">
        <ele>185.586815</ele>
        <time>2021-05-01T14:04:51.608Z</time>
      </trkpt>
      <trkpt lat="45.95174" lon="4.75807">
        <ele>184.659625</ele>
        <time>2021-05-01T14:04:56.511Z</time>
      </trkpt>
      <trkpt lat="45.95229" lon="4.7575">
        <ele>182.267887</ele>
        <time>2021-05-01T14:05:09.549Z</time>
      </trkpt>
      <trkpt lat="45.95246" lon="4.75729">
        <ele>181.478111</ele>
        <time>2021-05-01T14:05:14.063Z</time>
      </trkpt>
      <trkpt lat="45.95274" lon="4.75689">
        <ele>180.551342</ele>
        <time>2021-05-01T14:05:22.647Z</time>
      </trkpt>
      <trkpt lat="45.95337" lon="4.75594">
        <ele>180.656576</ele>
        <time>2021-05-01T14:05:46.692Z</time>
      </trkpt>
      <trkpt lat="45.95361" lon="4.75567">
        <ele>180.691383</ele>
        <time>2021-05-01T14:05:55.647Z</time>
      </trkpt>
      <trkpt lat="45.954" lon="4.75524">
        <ele>180.854021</ele>
        <time>2021-05-01T14:06:11.664Z</time>
      </trkpt>
      <trkpt lat="45.95428" lon="4.75506">
        <ele>181.654972</ele>
        <time>2021-05-01T14:06:21.663Z</time>
      </trkpt>
      <trkpt lat="45.95504" lon="4.75476">
        <ele>183.746164</ele>
        <time>2021-05-01T14:06:53.661Z</time>
      </trkpt>
      <trkpt lat="45.95505" lon="4.75484">
        <ele>183.900339</ele>
        <time>2021-05-01T14:06:56.232Z</time>
      </trkpt>
      <trkpt lat="45.95513" lon="4.75496">
        <ele>184.202258</ele>
        <time>2021-05-01T14:07:00.774Z</time>
      </trkpt>
      <trkpt lat="45.95525" lon="4.75498">
        <ele>184.507427</ele>
        <time>2021-05-01T14:07:05.414Z</time>
      </trkpt>
      <trkpt lat="45.9553" lon="4.75495">
        <ele>184.658981</ele>
        <time>2021-05-01T14:07:07.971Z</time>
      </trkpt>
      <trkpt lat="45.95534" lon="4.75491">
        <ele>184.801043</ele>
        <time>2021-05-01T14:07:10.361Z</time>
      </trkpt>
      <trkpt lat="45.95539" lon="4.75477">
        <ele>185.077655</ele>
        <time>2021-05-01T14:07:14.669Z</time>
      </trkpt>
      <trkpt lat="45.95538" lon="4.75462">
        <ele>185.35593</ele>
        <time>2021-05-01T14:07:19.063Z</time>
      </trkpt>
      <trkpt lat="45.95535" lon="4.75456">
        <ele>185.495294</ele>
        <time>2021-05-01T14:07:21.396Z</time>
      </trkpt>
      <trkpt lat="45.95568" lon="4.75441">
        <ele>186.543385</ele>
        <time>2021-05-01T14:07:36.973Z</time>
      </trkpt>
      <trkpt lat="45.95649" lon="4.75382">
        <ele>189.333433</ele>
        <time>2021-05-01T14:08:16.026Z</time>
      </trkpt>
      <trkpt lat="45.95693" lon="4.75343">
        <ele>190.896138</ele>
        <time>2021-05-01T14:08:37.003Z</time>
      </trkpt>
      <trkpt lat="45.95725" lon="4.75313">
        <ele>191.31978</ele>
        <time>2021-05-01T14:08:50.283Z</time>
      </trkpt>
      <trkpt lat="45.95779" lon="4.75249">
        <ele>191.940617</ele>
        <time>2021-05-01T14:09:12.336Z</time>
      </trkpt>
      <trkpt lat="45.95822" lon="4.75192">
        <ele>192.455488</ele>
        <time>2021-05-01T14:09:27.824Z</time>
      </trkpt>
      <trkpt lat="45.95839" lon="4.75169">
        <ele>192.651875</ele>
        <time>2021-05-01T14:09:33.816Z</time>
      </trkpt>
      <trkpt lat="45.95863" lon="4.75139">
        <ele>192.876087</ele>
        <time>2021-05-01T14:09:42.406Z</time>
      </trkpt>
      <trkpt lat="45.9591" lon="4.75101">
        <ele>193.254714</ele>
        <time>2021-05-01T14:09:57.810Z</time>
      </trkpt>
      <trkpt lat="45.9594" lon="4.75088">
        <ele>193.474485</ele>
        <time>2021-05-01T14:10:07.277Z</time>
      </trkpt>
      <trkpt lat="45.96033" lon="4.75054">
        <ele>194.617544</ele>
        <time>2021-05-01T14:10:39.607Z</time>
      </trkpt>
      <trkpt lat="45.96052" lon="4.7505">
        <ele>194.965253</ele>
        <time>2021-05-01T14:10:46.284Z</time>
      </trkpt>
      <trkpt lat="45.96074" lon="4.75055">
        <ele>195.380096</ele>
        <time>2021-05-01T14:10:54.338Z</time>
      </trkpt>
      <trkpt lat="45.96092" lon="4.75067">
        <ele>195.760428</ele>
        <time>2021-05-01T14:11:01.945Z</time>
      </trkpt>
      <trkpt lat="45.96168" lon="4.75144">
        <ele>197.41019</ele>
        <time>2021-05-01T14:11:36.186Z</time>
      </trkpt>
      <trkpt lat="45.96224" lon="4.75188">
        <ele>198.242174</ele>
        <time>2021-05-01T14:11:58.555Z</time>
      </trkpt>
      <trkpt lat="45.96383" lon="4.75251">
        <ele>199.308411</ele>
        <time>2021-05-01T14:12:49.695Z</time>
      </trkpt>
      <trkpt lat="45.96662" lon="4.75409">
        <ele>196.058065</ele>
        <time>2021-05-01T14:13:57.746Z</time>
      </trkpt>
      <trkpt lat="45.96775" lon="4.75471">
        <ele>192.20881</ele>
        <time>2021-05-01T14:14:20.920Z</time>
      </trkpt>
      <trkpt lat="45.9679" lon="4.75479">
        <ele>191.706377</ele>
        <time>2021-05-01T14:14:23.828Z</time>
      </trkpt>
      <trkpt lat="45.96963" lon="4.75542">
        <ele>186.158569</ele>
        <time>2021-05-01T14:14:58.698Z</time>
      </trkpt>
      <trkpt lat="45.97086" lon="4.75594">
        <ele>182.78256</ele>
        <time>2021-05-01T14:15:24.964Z</time>
      </trkpt>
      <trkpt lat="45.97113" lon="4.75607">
        <ele>182.064281</ele>
        <time>2021-05-01T14:15:30.973Z</time>
      </trkpt>
      <trkpt lat="45.9717" lon="4.75637">
        <ele>180.596268</ele>
        <time>2021-05-01T14:15:43.235Z</time>
      </trkpt>
      <trkpt lat="45.97198" lon="4.75648">
        <ele>179.88335</ele>
        <time>2021-05-01T14:15:49.233Z</time>
      </trkpt>
      <trkpt lat="45.97242" lon="4.75664">
        <ele>178.792006</ele>
        <time>2021-05-01T14:15:58.418Z</time>
      </trkpt>
      <trkpt lat="45.97278" lon="4.75672">
        <ele>177.935892</ele>
        <time>2021-05-01T14:16:05.676Z</time>
      </trkpt>
      <trkpt lat="45.97319" lon="4.75678">
        <ele>176.940484</ele>
        <time>2021-05-01T14:16:14.122Z</time>
      </trkpt>
      <trkpt lat="45.97463" lon="4.7568">
        <ele>174.046168</ele>
        <time>2021-05-01T14:16:44.510Z</time>
      </trkpt>
      <trkpt lat="45.97536" lon="4.75659">
        <ele>172.693317</ele>
        <time>2021-05-01T14:17:00.755Z</time>
      </trkpt>
      <trkpt lat="45.97554" lon="4.75666">
        <ele>172.470656</ele>
        <time>2021-05-01T14:17:04.634Z</time>
      </trkpt>
      <trkpt lat="45.97552" lon="4.75671">
        <ele>172.425455</ele>
        <time>2021-05-01T14:17:05.535Z</time>
      </trkpt>
      <trkpt lat="45.97553" lon="4.75687">
        <ele>172.287666</ele>
        <time>2021-05-01T14:17:08.027Z</time>
      </trkpt>
      <trkpt lat="45.97553" lon="4.75687">
        <ele>172.284849</ele>
        <time>2021-05-01T14:17:08.238Z</time>
      </trkpt>
      <trkpt lat="45.97556" lon="4.75691">
        <ele>172.239111</ele>
        <time>2021-05-01T14:17:09.076Z</time>
      </trkpt>
      <trkpt lat="45.9756" lon="4.75693">
        <ele>172.177749</ele>
        <time>2021-05-01T14:17:10.174Z</time>
      </trkpt>
      <trkpt lat="45.97564" lon="4.75692">
        <ele>172.131269</ele>
        <time>2021-05-01T14:17:10.980Z</time>
      </trkpt>
      <trkpt lat="45.97568" lon="4.7569">
        <ele>172.085506</ele>
        <time>2021-05-01T14:17:11.799Z</time>
      </trkpt>
      <trkpt lat="45.97569" lon="4.75688">
        <ele>172.059127</ele>
        <time>2021-05-01T14:17:12.273Z</time>
      </trkpt>
      <trkpt lat="45.97572" lon="4.75682">
        <ele>172.001256</ele>
        <time>2021-05-01T14:17:13.357Z</time>
      </trkpt>
      <trkpt lat="45.97572" lon="4.75675">
        <ele>171.94433</ele>
        <time>2021-05-01T14:17:14.412Z</time>
      </trkpt>
      <trkpt lat="45.97571" lon="4.7567">
        <ele>171.899126</ele>
        <time>2021-05-01T14:17:15.297Z</time>
      </trkpt>
      <trkpt lat="45.97569" lon="4.75666">
        <ele>171.857412</ele>
        <time>2021-05-01T14:17:16.044Z</time>
      </trkpt>
      <trkpt lat="45.97573" lon="4.75653">
        <ele>171.736055</ele>
        <time>2021-05-01T14:17:18.358Z</time>
      </trkpt>
      <trkpt lat="45.97578" lon="4.75645">
        <ele>171.642708</ele>
        <time>2021-05-01T14:17:20.049Z</time>
      </trkpt>
      <trkpt lat="45.97602" lon="4.75642">
        <ele>171.353052</ele>
        <time>2021-05-01T14:17:25.605Z</time>
      </trkpt>
      <trkpt lat="45.97629" lon="4.75631">
        <ele>171.012415</ele>
        <time>2021-05-01T14:17:32.029Z</time>
      </trkpt>
      <trkpt lat="45.97649" lon="4.75623">
        <ele>170.760275</ele>
        <time>2021-05-01T14:17:36.832Z</time>
      </trkpt>
      <trkpt lat="45.97654" lon="4.75621">
        <ele>170.694254</ele>
        <time>2021-05-01T14:17:38.093Z</time>
      </trkpt>
      <trkpt lat="45.97737" lon="4.75579">
        <ele>170.086269</ele>
        <time>2021-05-01T14:17:58.901Z</time>
      </trkpt>
      <trkpt lat="45.97901" lon="4.75483">
        <ele>169.562338</ele>
        <time>2021-05-01T14:18:42.890Z</time>
      </trkpt>
      <trkpt lat="45.97984" lon="4.75434">
        <ele>169.693295</ele>
        <time>2021-05-01T14:19:08.562Z</time>
      </trkpt>
      <trkpt lat="45.98011" lon="4.75417">
        <ele>169.899602</ele>
        <time>2021-05-01T14:19:17.604Z</time>
      </trkpt>
      <trkpt lat="45.98079" lon="4.75378">
        <ele>170.741716</ele>
        <time>2021-05-01T14:19:41.402Z</time>
      </trkpt>
      <trkpt lat="45.98094" lon="4.75369">
        <ele>170.932055</ele>
        <time>2021-05-01T14:19:46.875Z</time>
      </trkpt>
      <trkpt lat="45.98138" lon="4.75345">
        <ele>171.475345</ele>
        <time>2021-05-01T14:20:02.629Z</time>
      </trkpt>
      <trkpt lat="45.98145" lon="4.7534">
        <ele>171.561013</ele>
        <time>2021-05-01T14:20:05.141Z</time>
      </trkpt>
      <trkpt lat="45.98178" lon="4.75322">
        <ele>171.899406</ele>
        <time>2021-05-01T14:20:16.623Z</time>
      </trkpt>
      <trkpt lat="45.9821" lon="4.75316">
        <ele>172.126814</ele>
        <time>2021-05-01T14:20:26.738Z</time>
      </trkpt>
      <trkpt lat="45.98279" lon="4.75338">
        <ele>172.628855</ele>
        <time>2021-05-01T14:20:48.098Z</time>
      </trkpt>
      <trkpt lat="45.98366" lon="4.75311">
        <ele>173.09348</ele>
        <time>2021-05-01T14:21:13.016Z</time>
      </trkpt>
      <trkpt lat="45.98414" lon="4.75304">
        <ele>173.149659</ele>
        <time>2021-05-01T14:21:26.080Z</time>
      </trkpt>
      <trkpt lat="45.98428" lon="4.75304">
        <ele>173.165913</ele>
        <time>2021-05-01T14:21:29.811Z</time>
      </trkpt>
      <trkpt lat="45.98444" lon="4.75305">
        <ele>173.184607</ele>
        <time>2021-05-01T14:21:34.245Z</time>
      </trkpt>
      <trkpt lat="45.98449" lon="4.75305">
        <ele>173.189925</ele>
        <time>2021-05-01T14:21:35.491Z</time>
      </trkpt>
      <trkpt lat="45.98476" lon="4.75311">
        <ele>173.221609</ele>
        <time>2021-05-01T14:21:43.058Z</time>
      </trkpt>
      <trkpt lat="45.98507" lon="4.75314">
        <ele>173.257528</ele>
        <time>2021-05-01T14:21:51.527Z</time>
      </trkpt>
      <trkpt lat="45.98516" lon="4.75312">
        <ele>173.267204</ele>
        <time>2021-05-01T14:21:53.796Z</time>
      </trkpt>
      <trkpt lat="45.98518" lon="4.7532">
        <ele>173.264628</ele>
        <time>2021-05-01T14:21:55.308Z</time>
      </trkpt>
      <trkpt lat="45.98523" lon="4.75324">
        <ele>173.257783</ele>
        <time>2021-05-01T14:21:56.823Z</time>
      </trkpt>
      <trkpt lat="45.98528" lon="4.75325">
        <ele>173.250967</ele>
        <time>2021-05-01T14:21:58.348Z</time>
      </trkpt>
      <trkpt lat="45.98534" lon="4.75335">
        <ele>173.240107</ele>
        <time>2021-05-01T14:22:00.886Z</time>
      </trkpt>
      <trkpt lat="45.98542" lon="4.75371">
        <ele>173.208583</ele>
        <time>2021-05-01T14:22:08.006Z</time>
      </trkpt>
      <trkpt lat="45.98546" lon="4.75391">
        <ele>173.191462</ele>
        <time>2021-05-01T14:22:12.018Z</time>
      </trkpt>
      <trkpt lat="45.98554" lon="4.75439">
        <ele>173.150472</ele>
        <time>2021-05-01T14:22:21.297Z</time>
      </trkpt>
      <trkpt lat="45.9856" lon="4.75437">
        <ele>173.142562</ele>
        <time>2021-05-01T14:22:23.079Z</time>
      </trkpt>
      <trkpt lat="45.98567" lon="4.75435">
        <ele>173.134911</ele>
        <time>2021-05-01T14:22:24.724Z</time>
      </trkpt>
      <trkpt lat="45.98667" lon="4.75416">
        <ele>172.704388</ele>
        <time>2021-05-01T14:22:50.335Z</time>
      </trkpt>
      <trkpt lat="45.98682" lon="4.75412">
        <ele>172.551593</ele>
        <time>2021-05-01T14:22:53.824Z</time>
      </trkpt>
      <trkpt lat="45.98689" lon="4.75399">
        <ele>172.432059</ele>
        <time>2021-05-01T14:22:56.559Z</time>
      </trkpt>
      <trkpt lat="45.98698" lon="4.7538">
        <ele>172.270916</ele>
        <time>2021-05-01T14:23:00.025Z</time>
      </trkpt>
      <trkpt lat="45.98702" lon="4.75217">
        <ele>171.105131</ele>
        <time>2021-05-01T14:23:25.520Z</time>
      </trkpt>
      <trkpt lat="45.98719" lon="4.75214">
        <ele>170.931895</ele>
        <time>2021-05-01T14:23:32.325Z</time>
      </trkpt>
      <trkpt lat="45.98726" lon="4.75218">
        <ele>170.854054</ele>
        <time>2021-05-01T14:23:35.243Z</time>
      </trkpt>
      <trkpt lat="45.98772" lon="4.75214">
        <ele>170.38992</ele>
        <time>2021-05-01T14:23:53.602Z</time>
      </trkpt>
      <trkpt lat="45.98784" lon="4.75218">
        <ele>170.268759</ele>
        <time>2021-05-01T14:23:58.441Z</time>
      </trkpt>
      <trkpt lat="45.98906" lon="4.75203">
        <ele>169.297341</ele>
        <time>2021-05-01T14:24:48.932Z</time>
      </trkpt>
      <trkpt lat="45.98924" lon="4.75194">
        <ele>169.244786</ele>
        <time>2021-05-01T14:24:57.477Z</time>
      </trkpt>
      <trkpt lat="45.99018" lon="4.7519">
        <ele>168.993451</ele>
        <time>2021-05-01T14:25:38.617Z</time>
      </trkpt>
      <trkpt lat="45.99182" lon="4.75201">
        <ele>169.026378</ele>
        <time>2021-05-01T14:26:51.776Z</time>
      </trkpt>
      <trkpt lat="45.99247" lon="4.75218">
        <ele>169.160902</ele>
        <time>2021-05-01T14:27:21.837Z</time>
      </trkpt>
      <trkpt lat="45.99302" lon="4.75217">
        <ele>169.428004</ele>
        <time>2021-05-01T14:27:47.191Z</time>
      </trkpt>
      <trkpt lat="45.9934" lon="4.75229">
        <ele>169.619513</ele>
        <time>2021-05-01T14:28:05.513Z</time>
      </trkpt>
      <trkpt lat="45.99414" lon="4.75222">
        <ele>170.010712</ele>
        <time>2021-05-01T14:28:33.315Z</time>
      </trkpt>
      <trkpt lat="45.99485" lon="4.75207">
        <ele>170.70677</ele>
        <time>2021-05-01T14:29:02.160Z</time>
      </trkpt>
      <trkpt lat="45.99521" lon="4.75192">
        <ele>171.063029</ele>
        <time>2021-05-01T14:29:17.028Z</time>
      </trkpt>
      <trkpt lat="45.99557" lon="4.75186">
        <ele>171.407833</ele>
        <time>2021-05-01T14:29:31.575Z</time>
      </trkpt>
      <trkpt lat="45.99559" lon="4.75175">
        <ele>171.487417</ele>
        <time>2021-05-01T14:29:36.080Z</time>
      </trkpt>
      <trkpt lat="45.9957" lon="4.75149">
        <ele>171.685493</ele>
        <time>2021-05-01T14:29:46.235Z</time>
      </trkpt>
      <trkpt lat="45.99589" lon="4.7514">
        <ele>171.79725</ele>
        <time>2021-05-01T14:29:56.300Z</time>
      </trkpt>
      <trkpt lat="45.99621" lon="4.75145">
        <ele>171.974942</ele>
        <time>2021-05-01T14:30:11.677Z</time>
      </trkpt>
      <trkpt lat="45.9965" lon="4.75161">
        <ele>172.148491</ele>
        <time>2021-05-01T14:30:26.394Z</time>
      </trkpt>
      <trkpt lat="45.99664" lon="4.75156">
        <ele>172.228761</ele>
        <time>2021-05-01T14:30:33.501Z</time>
      </trkpt>
      <trkpt lat="45.99667" lon="4.75156">
        <ele>172.24591</ele>
        <time>2021-05-01T14:30:34.863Z</time>
      </trkpt>
      <trkpt lat="45.9978" lon="4.75128">
        <ele>172.62816</ele>
        <time>2021-05-01T14:31:26.990Z</time>
      </trkpt>
      <trkpt lat="45.99784" lon="4.75111">
        <ele>172.609355</ele>
        <time>2021-05-01T14:31:32.511Z</time>
      </trkpt>
      <trkpt lat="45.99905" lon="4.75069">
        <ele>172.425137</ele>
        <time>2021-05-01T14:32:26.081Z</time>
      </trkpt>
      <trkpt lat="45.99979" lon="4.75044">
        <ele>172.455449</ele>
        <time>2021-05-01T14:32:59.450Z</time>
      </trkpt>
      <trkpt lat="46.00075" lon="4.7502">
        <ele>172.510483</ele>
        <time>2021-05-01T14:33:43.399Z</time>
      </trkpt>
      <trkpt lat="46.00099" lon="4.75017">
        <ele>172.641324</ele>
        <time>2021-05-01T14:33:50.542Z</time>
      </trkpt>
      <trkpt lat="46.00157" lon="4.75003">
        <ele>173.260334</ele>
        <time>2021-05-01T14:34:08.439Z</time>
      </trkpt>
      <trkpt lat="46.00165" lon="4.75001">
        <ele>173.348552</ele>
        <time>2021-05-01T14:34:11.073Z</time>
      </trkpt>
      <trkpt lat="46.00201" lon="4.74975">
        <ele>173.772122</ele>
        <time>2021-05-01T14:34:24.081Z</time>
      </trkpt>
      <trkpt lat="46.00218" lon="4.74993">
        <ele>173.987147</ele>
        <time>2021-05-01T14:34:30.933Z</time>
      </trkpt>
      <trkpt lat="46.00224" lon="4.74996">
        <ele>174.052795</ele>
        <time>2021-05-01T14:34:33.014Z</time>
      </trkpt>
      <trkpt lat="46.0024" lon="4.75003">
        <ele>174.234593</ele>
        <time>2021-05-01T14:34:39.528Z</time>
      </trkpt>
      <trkpt lat="46.00306" lon="4.75036">
        <ele>175.714206</ele>
        <time>2021-05-01T14:35:06.679Z</time>
      </trkpt>
      <trkpt lat="46.00308" lon="4.75037">
        <ele>175.76359</ele>
        <time>2021-05-01T14:35:07.783Z</time>
      </trkpt>
      <trkpt lat="46.0036" lon="4.75068">
        <ele>177.14494</ele>
        <time>2021-05-01T14:35:30.897Z</time>
      </trkpt>
      <trkpt lat="46.00397" lon="4.7509">
        <ele>178.111853</ele>
        <time>2021-05-01T14:35:46.658Z</time>
      </trkpt>
      <trkpt lat="46.0046" lon="4.75089">
        <ele>179.333103</ele>
        <time>2021-05-01T14:36:11.275Z</time>
      </trkpt>
      <trkpt lat="46.00596" lon="4.75085">
        <ele>181.39318</ele>
        <time>2021-05-01T14:36:56.772Z</time>
      </trkpt>
      <trkpt lat="46.00686" lon="4.75079">
        <ele>181.637626</ele>
        <time>2021-05-01T14:37:20.998Z</time>
      </trkpt>
      <trkpt lat="46.00715" lon="4.75079">
        <ele>181.675351</ele>
        <time>2021-05-01T14:37:28.671Z</time>
      </trkpt>
      <trkpt lat="46.0075" lon="4.75089">
        <ele>181.721192</ele>
        <time>2021-05-01T14:37:38.062Z</time>
      </trkpt>
      <trkpt lat="46.00871" lon="4.75128">
        <ele>181.347314</ele>
        <time>2021-05-01T14:38:10.627Z</time>
      </trkpt>
      <trkpt lat="46.00955" lon="4.75154">
        <ele>180.947276</ele>
        <time>2021-05-01T14:38:31.258Z</time>
      </trkpt>
      <trkpt lat="46.00978" lon="4.7516">
        <ele>180.667744</ele>
        <time>2021-05-01T14:38:36.678Z</time>
      </trkpt>
      <trkpt lat="46.01077" lon="4.7519">
        <ele>179.334492</ele>
        <time>2021-05-01T14:38:59.230Z</time>
      </trkpt>
      <trkpt lat="46.01177" lon="4.75223">
        <ele>178.044219</ele>
        <time>2021-05-01T14:39:21.563Z</time>
      </trkpt>
      <trkpt lat="46.01226" lon="4.75239">
        <ele>177.454542</ele>
        <time>2021-05-01T14:39:33.110Z</time>
      </trkpt>
      <trkpt lat="46.01299" lon="4.75264">
        <ele>176.582948</ele>
        <time>2021-05-01T14:39:50.598Z</time>
      </trkpt>
      <trkpt lat="46.01381" lon="4.75288">
        <ele>175.577692</ele>
        <time>2021-05-01T14:40:09.991Z</time>
      </trkpt>
      <trkpt lat="46.01536" lon="4.75321">
        <ele>173.871335</ele>
        <time>2021-05-01T14:40:44.886Z</time>
      </trkpt>
      <trkpt lat="46.01613" lon="4.75337">
        <ele>173.219234</ele>
        <time>2021-05-01T14:41:03.254Z</time>
      </trkpt>
      <trkpt lat="46.0168" lon="4.75348">
        <ele>172.882441</ele>
        <time>2021-05-01T14:41:20.064Z</time>
      </trkpt>
      <trkpt lat="46.017" lon="4.75348">
        <ele>173.019768</ele>
        <time>2021-05-01T14:41:25.381Z</time>
      </trkpt>
      <trkpt lat="46.01715" lon="4.75347">
        <ele>173.121569</ele>
        <time>2021-05-01T14:41:29.376Z</time>
      </trkpt>
      <trkpt lat="46.01733" lon="4.75347">
        <ele>173.245273</ele>
        <time>2021-05-01T14:41:34.521Z</time>
      </trkpt>
      <trkpt lat="46.01849" lon="4.75345">
        <ele>174.093845</ele>
        <time>2021-05-01T14:42:10.861Z</time>
      </trkpt>
      <trkpt lat="46.01979" lon="4.75336">
        <ele>176.85116</ele>
        <time>2021-05-01T14:42:58.614Z</time>
      </trkpt>
      <trkpt lat="46.02015" lon="4.75337">
        <ele>177.613175</ele>
        <time>2021-05-01T14:43:12.657Z</time>
      </trkpt>
      <trkpt lat="46.02071" lon="4.75334">
        <ele>178.841015</ele>
        <time>2021-05-01T14:43:35.147Z</time>
      </trkpt>
      <trkpt lat="46.02273" lon="4.75284">
        <ele>182.041636</ele>
        <time>2021-05-01T14:44:50.093Z</time>
      </trkpt>
      <trkpt lat="46.02393" lon="4.75271">
        <ele>182.212832</ele>
        <time>2021-05-01T14:45:19.122Z</time>
      </trkpt>
      <trkpt lat="46.02427" lon="4.75272">
        <ele>181.732552</ele>
        <time>2021-05-01T14:45:26.455Z</time>
      </trkpt>
      <trkpt lat="46.02499" lon="4.75275">
        <ele>180.681552</ele>
        <time>2021-05-01T14:45:42.136Z</time>
      </trkpt>
      <trkpt lat="46.02606" lon="4.75288">
        <ele>179.312029</ele>
        <time>2021-05-01T14:46:05.426Z</time>
      </trkpt>
      <trkpt lat="46.02653" lon="4.75297">
        <ele>178.823121</ele>
        <time>2021-05-01T14:46:16.185Z</time>
      </trkpt>
      <trkpt lat="46.027" lon="4.75312">
        <ele>178.320381</ele>
        <time>2021-05-01T14:46:27.581Z</time>
      </trkpt>
      <trkpt lat="46.02766" lon="4.75346">
        <ele>178.118187</ele>
        <time>2021-05-01T14:46:44.802Z</time>
      </trkpt>
      <trkpt lat="46.02785" lon="4.75359">
        <ele>178.25734</ele>
        <time>2021-05-01T14:46:50.585Z</time>
      </trkpt>
      <trkpt lat="46.02801" lon="4.75365">
        <ele>178.36279</ele>
        <time>2021-05-01T14:46:54.997Z</time>
      </trkpt>
      <trkpt lat="46.02957" lon="4.75442">
        <ele>180.148567</ele>
        <time>2021-05-01T14:47:48.473Z</time>
      </trkpt>
      <trkpt lat="46.03056" lon="4.75488">
        <ele>182.239472</ele>
        <time>2021-05-01T14:48:26.510Z</time>
      </trkpt>
      <trkpt lat="46.03132" lon="4.75533">
        <ele>184.502022</ele>
        <time>2021-05-01T14:49:00.687Z</time>
      </trkpt>
      <trkpt lat="46.03166" lon="4.75557">
        <ele>185.659686</ele>
        <time>2021-05-01T14:49:18.562Z</time>
      </trkpt>
      <trkpt lat="46.03221" lon="4.75597">
        <ele>187.566578</ele>
        <time>2021-05-01T14:49:43.955Z</time>
      </trkpt>
      <trkpt lat="46.03228" lon="4.75601">
        <ele>187.781613</ele>
        <time>2021-05-01T14:49:47.378Z</time>
      </trkpt>
      <trkpt lat="46.03256" lon="4.75615">
        <ele>188.323686</ele>
        <time>2021-05-01T14:49:58.269Z</time>
      </trkpt>
      <trkpt lat="46.03272" lon="4.7562">
        <ele>188.456051</ele>
        <time>2021-05-01T14:50:04.180Z</time>
      </trkpt>
      <trkpt lat="46.03297" lon="4.75628">
        <ele>188.663663</ele>
        <time>2021-05-01T14:50:13.575Z</time>
      </trkpt>
      <trkpt lat="46.03329" lon="4.75633">
        <ele>188.926344</ele>
        <time>2021-05-01T14:50:23.693Z</time>
      </trkpt>
      <trkpt lat="46.03409" lon="4.75627">
        <ele>189.578318</ele>
        <time>2021-05-01T14:50:46.251Z</time>
      </trkpt>
      <trkpt lat="46.03433" lon="4.75621">
        <ele>189.488187</ele>
        <time>2021-05-01T14:50:51.598Z</time>
      </trkpt>
      <trkpt lat="46.03508" lon="4.75605">
        <ele>188.724906</ele>
        <time>2021-05-01T14:51:07.999Z</time>
      </trkpt>
      <trkpt lat="46.03572" lon="4.75598">
        <ele>188.079411</ele>
        <time>2021-05-01T14:51:22.695Z</time>
      </trkpt>
      <trkpt lat="46.03636" lon="4.75604">
        <ele>187.755162</ele>
        <time>2021-05-01T14:51:38.763Z</time>
      </trkpt>
      <trkpt lat="46.03867" lon="4.75624">
        <ele>187.479319</ele>
        <time>2021-05-01T14:52:39.488Z</time>
      </trkpt>
      <trkpt lat="46.03907" lon="4.75635">
        <ele>187.479579</ele>
        <time>2021-05-01T14:52:50.365Z</time>
      </trkpt>
      <trkpt lat="46.03923" lon="4.75639">
        <ele>187.479681</ele>
        <time>2021-05-01T14:52:54.807Z</time>
      </trkpt>
      <trkpt lat="46.03967" lon="4.75662">
        <ele>187.539809</ele>
        <time>2021-05-01T14:53:07.521Z</time>
      </trkpt>
      <trkpt lat="46.04137" lon="4.75796">
        <ele>188.084121</ele>
        <time>2021-05-01T14:54:04.132Z</time>
      </trkpt>
      <trkpt lat="46.04206" lon="4.7591">
        <ele>187.722629</ele>
        <time>2021-05-01T14:54:31.405Z</time>
      </trkpt>
      <trkpt lat="46.04236" lon="4.75949">
        <ele>187.5826</ele>
        <time>2021-05-01T14:54:40.719Z</time>
      </trkpt>
      <trkpt lat="46.04283" lon="4.75995">
        <ele>186.765926</ele>
        <time>2021-05-01T14:54:52.902Z</time>
      </trkpt>
      <trkpt lat="46.0435" lon="4.76062">
        <ele>185.509119</ele>
        <time>2021-05-01T14:55:10.351Z</time>
      </trkpt>
      <trkpt lat="46.04386" lon="4.76094">
        <ele>184.858512</ele>
        <time>2021-05-01T14:55:19.529Z</time>
      </trkpt>
      <trkpt lat="46.04407" lon="4.7612">
        <ele>184.79463</ele>
        <time>2021-05-01T14:55:26.148Z</time>
      </trkpt>
      <trkpt lat="46.04435" lon="4.76159">
        <ele>184.805178</ele>
        <time>2021-05-01T14:55:35.716Z</time>
      </trkpt>
      <trkpt lat="46.04487" lon="4.76233">
        <ele>184.825291</ele>
        <time>2021-05-01T14:55:55.921Z</time>
      </trkpt>
      <trkpt lat="46.04503" lon="4.76259">
        <ele>184.831877</ele>
        <time>2021-05-01T14:56:03.543Z</time>
      </trkpt>
      <trkpt lat="46.04509" lon="4.76267">
        <ele>184.834104</ele>
        <time>2021-05-01T14:56:05.975Z</time>
      </trkpt>
      <trkpt lat="46.04549" lon="4.76326">
        <ele>185.36794</ele>
        <time>2021-05-01T14:56:24.642Z</time>
      </trkpt>
      <trkpt lat="46.04602" lon="4.764">
        <ele>186.229596</ele>
        <time>2021-05-01T14:56:47.641Z</time>
      </trkpt>
      <trkpt lat="46.04671" lon="4.76485">
        <ele>187.56024</ele>
        <time>2021-05-01T14:57:18.422Z</time>
      </trkpt>
      <trkpt lat="46.04689" lon="4.76507">
        <ele>188.033132</ele>
        <time>2021-05-01T14:57:26.610Z</time>
      </trkpt>
      <trkpt lat="46.04701" lon="4.76491">
        <ele>188.363737</ele>
        <time>2021-05-01T14:57:33.094Z</time>
      </trkpt>
      <trkpt lat="46.04728" lon="4.7648">
        <ele>188.926982</ele>
        <time>2021-05-01T14:57:43.302Z</time>
      </trkpt>
      <trkpt lat="46.04774" lon="4.76458">
        <ele>189.921485</ele>
        <time>2021-05-01T14:58:02.284Z</time>
      </trkpt>
      <trkpt lat="46.04795" lon="4.76443">
        <ele>190.382905</ele>
        <time>2021-05-01T14:58:10.352Z</time>
      </trkpt>
      <trkpt lat="46.04807" lon="4.76441">
        <ele>190.621209</ele>
        <time>2021-05-01T14:58:15.557Z</time>
      </trkpt>
      <trkpt lat="46.04849" lon="4.76449">
        <ele>191.064349</ele>
        <time>2021-05-01T14:58:30.371Z</time>
      </trkpt>
      <trkpt lat="46.04875" lon="4.76449">
        <ele>191.34748</ele>
        <time>2021-05-01T14:58:39.524Z</time>
      </trkpt>
      <trkpt lat="46.04881" lon="4.76449">
        <ele>191.404742</ele>
        <time>2021-05-01T14:58:41.281Z</time>
      </trkpt>
      <trkpt lat="46.04901" lon="4.76446">
        <ele>191.621291</ele>
        <time>2021-05-01T14:58:47.601Z</time>
      </trkpt>
      <trkpt lat="46.04924" lon="4.76434">
        <ele>191.879213</ele>
        <time>2021-05-01T14:58:55.224Z</time>
      </trkpt>
      <trkpt lat="46.04942" lon="4.7643">
        <ele>192.071647</ele>
        <time>2021-05-01T14:59:00.659Z</time>
      </trkpt>
      <trkpt lat="46.04956" lon="4.76434">
        <ele>192.22863</ele>
        <time>2021-05-01T14:59:04.846Z</time>
      </trkpt>
      <trkpt lat="46.04964" lon="4.76446">
        <ele>192.347831</ele>
        <time>2021-05-01T14:59:07.803Z</time>
      </trkpt>
      <trkpt lat="46.04968" lon="4.76455">
        <ele>192.423644</ele>
        <time>2021-05-01T14:59:09.696Z</time>
      </trkpt>
      <trkpt lat="46.04986" lon="4.76512">
        <ele>192.48025</ele>
        <time>2021-05-01T14:59:21.357Z</time>
      </trkpt>
      <trkpt lat="46.04998" lon="4.76543">
        <ele>192.462378</ele>
        <time>2021-05-01T14:59:27.539Z</time>
      </trkpt>
      <trkpt lat="46.05" lon="4.76548">
        <ele>192.459198</ele>
        <time>2021-05-01T14:59:28.608Z</time>
      </trkpt>
      <trkpt lat="46.05003" lon="4.76556">
        <ele>192.454593</ele>
        <time>2021-05-01T14:59:30.243Z</time>
      </trkpt>
      <trkpt lat="46.05003" lon="4.76566">
        <ele>192.449621</ele>
        <time>2021-05-01T14:59:31.971Z</time>
      </trkpt>
      <trkpt lat="46.05012" lon="4.76569">
        <ele>192.442441</ele>
        <time>2021-05-01T14:59:34.434Z</time>
      </trkpt>
      <trkpt lat="46.05025" lon="4.76571">
        <ele>192.433311</ele>
        <time>2021-05-01T14:59:37.604Z</time>
      </trkpt>
      <trkpt lat="46.05045" lon="4.76586">
        <ele>192.416667</ele>
        <time>2021-05-01T14:59:43.566Z</time>
      </trkpt>
      <trkpt lat="46.05061" lon="4.766">
        <ele>192.403006</ele>
        <time>2021-05-01T14:59:48.406Z</time>
      </trkpt>
      <trkpt lat="46.05074" lon="4.76609">
        <ele>192.39261</ele>
        <time>2021-05-01T14:59:52.182Z</time>
      </trkpt>
      <trkpt lat="46.05123" lon="4.76626">
        <ele>192.354041</ele>
        <time>2021-05-01T15:00:05.915Z</time>
      </trkpt>
      <trkpt lat="46.0516" lon="4.76644">
        <ele>192.323298</ele>
        <time>2021-05-01T15:00:16.472Z</time>
      </trkpt>
      <trkpt lat="46.05233" lon="4.76686">
        <ele>192.260554</ele>
        <time>2021-05-01T15:00:37.812Z</time>
      </trkpt>
      <trkpt lat="46.05324" lon="4.76718">
        <ele>191.311004</ele>
        <time>2021-05-01T15:01:00.816Z</time>
      </trkpt>
      <trkpt lat="46.05373" lon="4.76746">
        <ele>190.474389</ele>
        <time>2021-05-01T15:01:12.468Z</time>
      </trkpt>
      <trkpt lat="46.05449" lon="4.76799">
        <ele>188.791536</ele>
        <time>2021-05-01T15:01:29.671Z</time>
      </trkpt>
      <trkpt lat="46.05538" lon="4.76848">
        <ele>185.043202</ele>
        <time>2021-05-01T15:01:47.852Z</time>
      </trkpt>
      <trkpt lat="46.05651" lon="4.76897">
        <ele>180.355528</ele>
        <time>2021-05-01T15:02:09.468Z</time>
      </trkpt>
      <trkpt lat="46.05687" lon="4.76911">
        <ele>178.883606</ele>
        <time>2021-05-01T15:02:16.341Z</time>
      </trkpt>
      <trkpt lat="46.05722" lon="4.76918">
        <ele>177.476401</ele>
        <time>2021-05-01T15:02:23.013Z</time>
      </trkpt>
      <trkpt lat="46.05742" lon="4.7692">
        <ele>176.681994</ele>
        <time>2021-05-01T15:02:26.795Z</time>
      </trkpt>
      <trkpt lat="46.05823" lon="4.76928">
        <ele>174.487362</ele>
        <time>2021-05-01T15:02:42.833Z</time>
      </trkpt>
      <trkpt lat="46.05851" lon="4.76935">
        <ele>174.0461</ele>
        <time>2021-05-01T15:02:48.919Z</time>
      </trkpt>
      <trkpt lat="46.05875" lon="4.76945">
        <ele>173.664987</ele>
        <time>2021-05-01T15:02:54.484Z</time>
      </trkpt>
      <trkpt lat="46.06005" lon="4.77002">
        <ele>172.204838</ele>
        <time>2021-05-01T15:03:27.338Z</time>
      </trkpt>
      <trkpt lat="46.06077" lon="4.77034">
        <ele>171.970491</ele>
        <time>2021-05-01T15:03:47.178Z</time>
      </trkpt>
      <trkpt lat="46.06122" lon="4.77048">
        <ele>171.831135</ele>
        <time>2021-05-01T15:03:58.864Z</time>
      </trkpt>
      <trkpt lat="46.06211" lon="4.77056">
        <ele>171.771683</ele>
        <time>2021-05-01T15:04:22.011Z</time>
      </trkpt>
      <trkpt lat="46.06267" lon="4.77074">
        <ele>171.745263</ele>
        <time>2021-05-01T15:04:37.138Z</time>
      </trkpt>
      <trkpt lat="46.06299" lon="4.77091">
        <ele>171.729495</ele>
        <time>2021-05-01T15:04:46.337Z</time>
      </trkpt>
      <trkpt lat="46.06385" lon="4.77151">
        <ele>171.934945</ele>
        <time>2021-05-01T15:05:12.640Z</time>
      </trkpt>
      <trkpt lat="46.06537" lon="4.77201">
        <ele>172.272191</ele>
        <time>2021-05-01T15:05:56.701Z</time>
      </trkpt>
      <trkpt lat="46.06599" lon="4.77209">
        <ele>172.39451</ele>
        <time>2021-05-01T15:06:13.868Z</time>
      </trkpt>
      <trkpt lat="46.06675" lon="4.77199">
        <ele>172.501514</ele>
        <time>2021-05-01T15:06:34.592Z</time>
      </trkpt>
      <trkpt lat="46.06682" lon="4.77198">
        <ele>172.502884</ele>
        <time>2021-05-01T15:06:36.510Z</time>
      </trkpt>
      <trkpt lat="46.06686" lon="4.77198">
        <ele>172.503751</ele>
        <time>2021-05-01T15:06:37.606Z</time>
      </trkpt>
      <trkpt lat="46.06714" lon="4.77192">
        <ele>172.509217</ele>
        <time>2021-05-01T15:06:45.263Z</time>
      </trkpt>
      <trkpt lat="46.06733" lon="4.7718">
        <ele>172.513184</ele>
        <time>2021-05-01T15:06:50.667Z</time>
      </trkpt>
      <trkpt lat="46.06802" lon="4.77113">
        <ele>172.529183</ele>
        <time>2021-05-01T15:07:12.542Z</time>
      </trkpt>
      <trkpt lat="46.06853" lon="4.77081">
        <ele>172.792695</ele>
        <time>2021-05-01T15:07:27.282Z</time>
      </trkpt>
      <trkpt lat="46.06949" lon="4.77073">
        <ele>173.380128</ele>
        <time>2021-05-01T15:07:55.806Z</time>
      </trkpt>
      <trkpt lat="46.06963" lon="4.77072">
        <ele>173.465827</ele>
        <time>2021-05-01T15:08:00.126Z</time>
      </trkpt>
      <trkpt lat="46.06964" lon="4.77072">
        <ele>173.470698</ele>
        <time>2021-05-01T15:08:00.375Z</time>
      </trkpt>
      <trkpt lat="46.06969" lon="4.77072">
        <ele>173.499861</ele>
        <time>2021-05-01T15:08:01.893Z</time>
      </trkpt>
      <trkpt lat="46.06978" lon="4.77071">
        <ele>173.556371</ele>
        <time>2021-05-01T15:08:04.868Z</time>
      </trkpt>
      <trkpt lat="46.06988" lon="4.77069">
        <ele>173.614898</ele>
        <time>2021-05-01T15:08:07.947Z</time>
      </trkpt>
      <trkpt lat="46.07348" lon="4.77017">
        <ele>179.99193</ele>
        <time>2021-05-01T15:10:15.488Z</time>
      </trkpt>
      <trkpt lat="46.07461" lon="4.77">
        <ele>182.653073</ele>
        <time>2021-05-01T15:10:57.763Z</time>
      </trkpt>
      <trkpt lat="46.07696" lon="4.76965">
        <ele>189.018268</ele>
        <time>2021-05-01T15:12:31.672Z</time>
      </trkpt>
      <trkpt lat="46.07739" lon="4.7696">
        <ele>190.667621</ele>
        <time>2021-05-01T15:12:50.320Z</time>
      </trkpt>
      <trkpt lat="46.07795" lon="4.76952">
        <ele>192.943842</ele>
        <time>2021-05-01T15:13:15.375Z</time>
      </trkpt>
      <trkpt lat="46.07857" lon="4.76943">
        <ele>195.481517</ele>
        <time>2021-05-01T15:13:45.011Z</time>
      </trkpt>
      <trkpt lat="46.07985" lon="4.76924">
        <ele>201.921996</ele>
        <time>2021-05-01T15:14:51.174Z</time>
      </trkpt>
      <trkpt lat="46.08002" lon="4.76922">
        <ele>202.822188</ele>
        <time>2021-05-01T15:15:00.296Z</time>
      </trkpt>
      <trkpt lat="46.08064" lon="4.76913">
        <ele>206.140575</ele>
        <time>2021-05-01T15:15:34.082Z</time>
      </trkpt>
      <trkpt lat="46.08184" lon="4.76894">
        <ele>212.234174</ele>
        <time>2021-05-01T15:16:36.787Z</time>
      </trkpt>
      <trkpt lat="46.08288" lon="4.76882">
        <ele>216.996614</ele>
        <time>2021-05-01T15:17:27.270Z</time>
      </trkpt>
      <trkpt lat="46.08313" lon="4.76878">
        <ele>217.986125</ele>
        <time>2021-05-01T15:17:39.349Z</time>
      </trkpt>
      <trkpt lat="46.08363" lon="4.76872">
        <ele>219.965544</ele>
        <time>2021-05-01T15:18:02.314Z</time>
      </trkpt>
      <trkpt lat="46.08385" lon="4.7687">
        <ele>220.815606</ele>
        <time>2021-05-01T15:18:12.121Z</time>
      </trkpt>
      <trkpt lat="46.08436" lon="4.76862">
        <ele>222.542324</ele>
        <time>2021-05-01T15:18:33.939Z</time>
      </trkpt>
      <trkpt lat="46.08493" lon="4.76853">
        <ele>223.603319</ele>
        <time>2021-05-01T15:18:56.422Z</time>
      </trkpt>
      <trkpt lat="46.08531" lon="4.76846">
        <ele>224.327553</ele>
        <time>2021-05-01T15:19:10.832Z</time>
      </trkpt>
      <trkpt lat="46.08563" lon="4.76841">
        <ele>224.930269</ele>
        <time>2021-05-01T15:19:21.515Z</time>
      </trkpt>
      <trkpt lat="46.08614" lon="4.76833">
        <ele>225.491806</ele>
        <time>2021-05-01T15:19:36.168Z</time>
      </trkpt>
      <trkpt lat="46.08627" lon="4.7683">
        <ele>225.379807</ele>
        <time>2021-05-01T15:19:39.581Z</time>
      </trkpt>
      <trkpt lat="46.08687" lon="4.76816">
        <ele>224.866298</ele>
        <time>2021-05-01T15:19:54.361Z</time>
      </trkpt>
      <trkpt lat="46.08697" lon="4.76811">
        <ele>224.779273</ele>
        <time>2021-05-01T15:19:56.737Z</time>
      </trkpt>
      <trkpt lat="46.08699" lon="4.76818">
        <ele>224.735016</ele>
        <time>2021-05-01T15:19:57.992Z</time>
      </trkpt>
      <trkpt lat="46.08712" lon="4.7683">
        <ele>224.604662</ele>
        <time>2021-05-01T15:20:01.497Z</time>
      </trkpt>
      <trkpt lat="46.08717" lon="4.7683">
        <ele>224.560829</ele>
        <time>2021-05-01T15:20:02.699Z</time>
      </trkpt>
      <trkpt lat="46.08722" lon="4.76828">
        <ele>224.517743</ele>
        <time>2021-05-01T15:20:03.788Z</time>
      </trkpt>
      <trkpt lat="46.08731" lon="4.76812">
        <ele>224.394172</ele>
        <time>2021-05-01T15:20:07.183Z</time>
      </trkpt>
      <trkpt lat="46.08732" lon="4.76805">
        <ele>224.352123</ele>
        <time>2021-05-01T15:20:08.325Z</time>
      </trkpt>
      <trkpt lat="46.08738" lon="4.76807">
        <ele>224.304495</ele>
        <time>2021-05-01T15:20:09.482Z</time>
      </trkpt>
      <trkpt lat="46.08849" lon="4.76805">
        <ele>221.946185</ele>
        <time>2021-05-01T15:20:32.885Z</time>
      </trkpt>
      <trkpt lat="46.09018" lon="4.76846">
        <ele>216.348407</ele>
        <time>2021-05-01T15:21:06.956Z</time>
      </trkpt>
      <trkpt lat="46.09092" lon="4.76885">
        <ele>213.092882</ele>
        <time>2021-05-01T15:21:21.332Z</time>
      </trkpt>
      <trkpt lat="46.09235" lon="4.76981">
        <ele>204.565057</ele>
        <time>2021-05-01T15:21:49.004Z</time>
      </trkpt>
      <trkpt lat="46.0935" lon="4.77064">
        <ele>199.511011</ele>
        <time>2021-05-01T15:22:12.447Z</time>
      </trkpt>
      <trkpt lat="46.09365" lon="4.77075">
        <ele>198.99791</ele>
        <time>2021-05-01T15:22:15.883Z</time>
      </trkpt>
      <trkpt lat="46.09402" lon="4.77099">
        <ele>197.801927</ele>
        <time>2021-05-01T15:22:24.364Z</time>
      </trkpt>
      <trkpt lat="46.09432" lon="4.77119">
        <ele>196.81341</ele>
        <time>2021-05-01T15:22:32.098Z</time>
      </trkpt>
      <trkpt lat="46.09488" lon="4.77155">
        <ele>197.355941</ele>
        <time>2021-05-01T15:22:50.185Z</time>
      </trkpt>
      <trkpt lat="46.09626" lon="4.77245">
        <ele>198.936891</ele>
        <time>2021-05-01T15:23:45.611Z</time>
      </trkpt>
      <trkpt lat="46.09641" lon="4.77257">
        <ele>198.923032</ele>
        <time>2021-05-01T15:23:51.080Z</time>
      </trkpt>
      <trkpt lat="46.0965" lon="4.77263">
        <ele>198.915396</ele>
        <time>2021-05-01T15:23:53.720Z</time>
      </trkpt>
      <trkpt lat="46.09648" lon="4.7727">
        <ele>198.911488</ele>
        <time>2021-05-01T15:23:55.323Z</time>
      </trkpt>
      <trkpt lat="46.09651" lon="4.7729">
        <ele>198.900097</ele>
        <time>2021-05-01T15:23:59.248Z</time>
      </trkpt>
      <trkpt lat="46.09654" lon="4.77294">
        <ele>198.896175</ele>
        <time>2021-05-01T15:24:00.837Z</time>
      </trkpt>
      <trkpt lat="46.09659" lon="4.77297">
        <ele>198.891923</ele>
        <time>2021-05-01T15:24:02.156Z</time>
      </trkpt>
      <trkpt lat="46.09665" lon="4.77298">
        <ele>198.887585</ele>
        <time>2021-05-01T15:24:03.572Z</time>
      </trkpt>
      <trkpt lat="46.0967" lon="4.77295">
        <ele>198.883354</ele>
        <time>2021-05-01T15:24:05.155Z</time>
      </trkpt>
      <trkpt lat="46.09673" lon="4.77292">
        <ele>198.880001</ele>
        <time>2021-05-01T15:24:06.153Z</time>
      </trkpt>
      <trkpt lat="46.09676" lon="4.77287">
        <ele>198.876654</ele>
        <time>2021-05-01T15:24:07.327Z</time>
      </trkpt>
      <trkpt lat="46.09677" lon="4.77282">
        <ele>198.873333</ele>
        <time>2021-05-01T15:24:08.381Z</time>
      </trkpt>
      <trkpt lat="46.09689" lon="4.77282">
        <ele>198.863607</ele>
        <time>2021-05-01T15:24:11.527Z</time>
      </trkpt>
      <trkpt lat="46.09891" lon="4.77389">
        <ele>195.788169</ele>
        <time>2021-05-01T15:24:57.279Z</time>
      </trkpt>
      <trkpt lat="46.09939" lon="4.77417">
        <ele>194.633791</ele>
        <time>2021-05-01T15:25:07.924Z</time>
      </trkpt>
      <trkpt lat="46.09972" lon="4.77436">
        <ele>193.782312</ele>
        <time>2021-05-01T15:25:15.045Z</time>
      </trkpt>
      <trkpt lat="46.09998" lon="4.77456">
        <ele>193.056831</ele>
        <time>2021-05-01T15:25:21.099Z</time>
      </trkpt>
      <trkpt lat="46.09998" lon="4.77462">
        <ele>192.963363</ele>
        <time>2021-05-01T15:25:21.903Z</time>
      </trkpt>
      <trkpt lat="46.09999" lon="4.77467">
        <ele>192.870179</ele>
        <time>2021-05-01T15:25:22.693Z</time>
      </trkpt>
      <trkpt lat="46.10002" lon="4.77471">
        <ele>192.777427</ele>
        <time>2021-05-01T15:25:23.483Z</time>
      </trkpt>
      <trkpt lat="46.10005" lon="4.77474">
        <ele>192.685724</ele>
        <time>2021-05-01T15:25:24.280Z</time>
      </trkpt>
      <trkpt lat="46.10009" lon="4.77475">
        <ele>192.590767</ele>
        <time>2021-05-01T15:25:25.033Z</time>
      </trkpt>
      <trkpt lat="46.10018" lon="4.77468">
        <ele>192.318351</ele>
        <time>2021-05-01T15:25:27.335Z</time>
      </trkpt>
      <trkpt lat="46.1002" lon="4.77463">
        <ele>192.2258</ele>
        <time>2021-05-01T15:25:28.069Z</time>
      </trkpt>
      <trkpt lat="46.10032" lon="4.77466">
        <ele>191.917963</ele>
        <time>2021-05-01T15:25:30.615Z</time>
      </trkpt>
      <trkpt lat="46.10057" lon="4.7748">
        <ele>191.270652</ele>
        <time>2021-05-01T15:25:35.876Z</time>
      </trkpt>
      <trkpt lat="46.10118" lon="4.77506">
        <ele>189.609086</ele>
        <time>2021-05-01T15:25:48.817Z</time>
      </trkpt>
      <trkpt lat="46.10141" lon="4.77511">
        <ele>188.966299</ele>
        <time>2021-05-01T15:25:53.765Z</time>
      </trkpt>
      <trkpt lat="46.10167" lon="4.77513">
        <ele>188.257792</ele>
        <time>2021-05-01T15:25:59.197Z</time>
      </trkpt>
      <trkpt lat="46.10182" lon="4.77514">
        <ele>187.875267</ele>
        <time>2021-05-01T15:26:01.950Z</time>
      </trkpt>
      <trkpt lat="46.10261" lon="4.77517">
        <ele>185.738585</ele>
        <time>2021-05-01T15:26:17.757Z</time>
      </trkpt>
      <trkpt lat="46.10305" lon="4.77528">
        <ele>184.493559</ele>
        <time>2021-05-01T15:26:26.638Z</time>
      </trkpt>
      <trkpt lat="46.10326" lon="4.77539">
        <ele>183.883875</ele>
        <time>2021-05-01T15:26:30.855Z</time>
      </trkpt>
      <trkpt lat="46.10355" lon="4.7756">
        <ele>182.987908</ele>
        <time>2021-05-01T15:26:37.384Z</time>
      </trkpt>
      <trkpt lat="46.10378" lon="4.77579">
        <ele>182.24722</ele>
        <time>2021-05-01T15:26:42.826Z</time>
      </trkpt>
      <trkpt lat="46.1039" lon="4.77591">
        <ele>181.838745</ele>
        <time>2021-05-01T15:26:45.834Z</time>
      </trkpt>
      <trkpt lat="46.10418" lon="4.77613">
        <ele>180.98872</ele>
        <time>2021-05-01T15:26:52.305Z</time>
      </trkpt>
      <trkpt lat="46.10425" lon="4.77618">
        <ele>180.861264</ele>
        <time>2021-05-01T15:26:53.779Z</time>
      </trkpt>
      <trkpt lat="46.10452" lon="4.77635">
        <ele>180.313952</ele>
        <time>2021-05-01T15:26:59.933Z</time>
      </trkpt>
      <trkpt lat="46.10465" lon="4.77641">
        <ele>180.066362</ele>
        <time>2021-05-01T15:27:02.738Z</time>
      </trkpt>
      <trkpt lat="46.10534" lon="4.77667">
        <ele>178.765016</ele>
        <time>2021-05-01T15:27:17.989Z</time>
      </trkpt>
      <trkpt lat="46.10595" lon="4.77705">
        <ele>177.901392</ele>
        <time>2021-05-01T15:27:32.574Z</time>
      </trkpt>
      <trkpt lat="46.10604" lon="4.77715">
        <ele>178.036776</ele>
        <time>2021-05-01T15:27:35.085Z</time>
      </trkpt>
      <trkpt lat="46.10615" lon="4.77728">
        <ele>178.202811</ele>
        <time>2021-05-01T15:27:38.523Z</time>
      </trkpt>
      <trkpt lat="46.10624" lon="4.77739">
        <ele>178.341647</ele>
        <time>2021-05-01T15:27:41.536Z</time>
      </trkpt>
      <trkpt lat="46.10649" lon="4.77775">
        <ele>178.763676</ele>
        <time>2021-05-01T15:27:52.378Z</time>
      </trkpt>
      <trkpt lat="46.107" lon="4.77845">
        <ele>179.583854</ele>
        <time>2021-05-01T15:28:19.144Z</time>
      </trkpt>
      <trkpt lat="46.10716" lon="4.77867">
        <ele>179.844543</ele>
        <time>2021-05-01T15:28:27.950Z</time>
      </trkpt>
      <trkpt lat="46.1072" lon="4.77873">
        <ele>179.950563</ele>
        <time>2021-05-01T15:28:30.598Z</time>
      </trkpt>
      <trkpt lat="46.10725" lon="4.7788">
        <ele>180.164723</ele>
        <time>2021-05-01T15:28:33.024Z</time>
      </trkpt>
      <trkpt lat="46.10751" lon="4.7791">
        <ele>181.177942</ele>
        <time>2021-05-01T15:28:47.029Z</time>
      </trkpt>
      <trkpt lat="46.10776" lon="4.77932">
        <ele>182.06407</ele>
        <time>2021-05-01T15:28:59.174Z</time>
      </trkpt>
      <trkpt lat="46.10778" lon="4.77933">
        <ele>182.10843</ele>
        <time>2021-05-01T15:29:00.300Z</time>
      </trkpt>
      <trkpt lat="46.10792" lon="4.77944">
        <ele>182.58525</ele>
        <time>2021-05-01T15:29:06.438Z</time>
      </trkpt>
      <trkpt lat="46.10802" lon="4.77949">
        <ele>182.925208</ele>
        <time>2021-05-01T15:29:11.594Z</time>
      </trkpt>
      <trkpt lat="46.10809" lon="4.77952">
        <ele>183.15112</ele>
        <time>2021-05-01T15:29:14.721Z</time>
      </trkpt>
      <trkpt lat="46.10842" lon="4.77967">
        <ele>184.167393</ele>
        <time>2021-05-01T15:29:29.490Z</time>
      </trkpt>
      <trkpt lat="46.10856" lon="4.77973">
        <ele>184.61245</ele>
        <time>2021-05-01T15:29:35.959Z</time>
      </trkpt>
      <trkpt lat="46.10864" lon="4.77977">
        <ele>184.865399</ele>
        <time>2021-05-01T15:29:39.617Z</time>
      </trkpt>
      <trkpt lat="46.10885" lon="4.77984">
        <ele>185.335583</ele>
        <time>2021-05-01T15:29:48.988Z</time>
      </trkpt>
      <trkpt lat="46.10903" lon="4.7799">
        <ele>185.432341</ele>
        <time>2021-05-01T15:29:55.885Z</time>
      </trkpt>
      <trkpt lat="46.10914" lon="4.77994">
        <ele>185.490775</ele>
        <time>2021-05-01T15:30:00.335Z</time>
      </trkpt>
      <trkpt lat="46.10934" lon="4.78">
        <ele>185.592772</ele>
        <time>2021-05-01T15:30:06.044Z</time>
      </trkpt>
      <trkpt lat="46.10954" lon="4.78007">
        <ele>185.701746</ele>
        <time>2021-05-01T15:30:11.961Z</time>
      </trkpt>
      <trkpt lat="46.10995" lon="4.78022">
        <ele>185.913964</ele>
        <time>2021-05-01T15:30:22.354Z</time>
      </trkpt>
      <trkpt lat="46.11046" lon="4.7804">
        <ele>186.186674</ele>
        <time>2021-05-01T15:30:35.356Z</time>
      </trkpt>
      <trkpt lat="46.11072" lon="4.78052">
        <ele>186.119239</ele>
        <time>2021-05-01T15:30:41.907Z</time>
      </trkpt>
      <trkpt lat="46.11124" lon="4.78082">
        <ele>185.844047</ele>
        <time>2021-05-01T15:30:55.120Z</time>
      </trkpt>
      <trkpt lat="46.11177" lon="4.7812">
        <ele>185.555554</ele>
        <time>2021-05-01T15:31:09.616Z</time>
      </trkpt>
      <trkpt lat="46.1118" lon="4.78123">
        <ele>185.53341</ele>
        <time>2021-05-01T15:31:10.550Z</time>
      </trkpt>
      <trkpt lat="46.11238" lon="4.78176">
        <ele>185.380998</ele>
        <time>2021-05-01T15:31:28.597Z</time>
      </trkpt>
      <trkpt lat="46.11264" lon="4.782">
        <ele>185.427938</ele>
        <time>2021-05-01T15:31:37.118Z</time>
      </trkpt>
      <trkpt lat="46.11317" lon="4.78249">
        <ele>185.52547</ele>
        <time>2021-05-01T15:31:54.707Z</time>
      </trkpt>
      <trkpt lat="46.1138" lon="4.78298">
        <ele>185.595185</ele>
        <time>2021-05-01T15:32:15.124Z</time>
      </trkpt>
      <trkpt lat="46.11423" lon="4.78331">
        <ele>185.524855</ele>
        <time>2021-05-01T15:32:28.187Z</time>
      </trkpt>
      <trkpt lat="46.11465" lon="4.78351">
        <ele>185.461451</ele>
        <time>2021-05-01T15:32:39.709Z</time>
      </trkpt>
      <trkpt lat="46.11486" lon="4.7836">
        <ele>185.429744</ele>
        <time>2021-05-01T15:32:45.224Z</time>
      </trkpt>
      <trkpt lat="46.11553" lon="4.78389">
        <ele>185.374402</ele>
        <time>2021-05-01T15:33:02.422Z</time>
      </trkpt>
      <trkpt lat="46.11602" lon="4.78414">
        <ele>185.428754</ele>
        <time>2021-05-01T15:33:15.604Z</time>
      </trkpt>
      <trkpt lat="46.11651" lon="4.78443">
        <ele>185.484978</ele>
        <time>2021-05-01T15:33:30.385Z</time>
      </trkpt>
      <trkpt lat="46.11678" lon="4.78459">
        <ele>185.515724</ele>
        <time>2021-05-01T15:33:38.781Z</time>
      </trkpt>
      <trkpt lat="46.11697" lon="4.78468">
        <ele>185.536369</ele>
        <time>2021-05-01T15:33:44.502Z</time>
      </trkpt>
      <trkpt lat="46.11735" lon="4.7849">
        <ele>185.895352</ele>
        <time>2021-05-01T15:33:56.959Z</time>
      </trkpt>
      <trkpt lat="46.11761" lon="4.78504">
        <ele>186.179637</ele>
        <time>2021-05-01T15:34:05.593Z</time>
      </trkpt>
      <trkpt lat="46.11782" lon="4.78519">
        <ele>186.426101</ele>
        <time>2021-05-01T15:34:13.098Z</time>
      </trkpt>
      <trkpt lat="46.11787" lon="4.78523">
        <ele>186.483527</ele>
        <time>2021-05-01T15:34:14.991Z</time>
      </trkpt>
      <trkpt lat="46.11807" lon="4.78542">
        <ele>186.733816</ele>
        <time>2021-05-01T15:34:22.790Z</time>
      </trkpt>
      <trkpt lat="46.11818" lon="4.78554">
        <ele>186.86792</ele>
        <time>2021-05-01T15:34:27.193Z</time>
      </trkpt>
      <trkpt lat="46.11837" lon="4.78575">
        <ele>187.119398</ele>
        <time>2021-05-01T15:34:35.305Z</time>
      </trkpt>
      <trkpt lat="46.11849" lon="4.78591">
        <ele>187.286998</ele>
        <time>2021-05-01T15:34:40.963Z</time>
      </trkpt>
      <trkpt lat="46.11871" lon="4.78611">
        <ele>187.427678</ele>
        <time>2021-05-01T15:34:49.374Z</time>
      </trkpt>
      <trkpt lat="46.11875" lon="4.78614">
        <ele>187.434076</ele>
        <time>2021-05-01T15:34:50.735Z</time>
      </trkpt>
      <trkpt lat="46.11884" lon="4.78622">
        <ele>187.45138</ele>
        <time>2021-05-01T15:34:53.920Z</time>
      </trkpt>
      <trkpt lat="46.11887" lon="4.78625">
        <ele>187.458523</ele>
        <time>2021-05-01T15:34:55.222Z</time>
      </trkpt>
      <trkpt lat="46.11891" lon="4.78628">
        <ele>187.465439</ele>
        <time>2021-05-01T15:34:56.439Z</time>
      </trkpt>
      <trkpt lat="46.11896" lon="4.78631">
        <ele>187.474742</ele>
        <time>2021-05-01T15:34:58.140Z</time>
      </trkpt>
      <trkpt lat="46.11903" lon="4.78635">
        <ele>187.486583</ele>
        <time>2021-05-01T15:35:00.352Z</time>
      </trkpt>
      <trkpt lat="46.11906" lon="4.78638">
        <ele>187.492651</ele>
        <time>2021-05-01T15:35:01.583Z</time>
      </trkpt>
      <trkpt lat="46.11911" lon="4.78641">
        <ele>187.501058</ele>
        <time>2021-05-01T15:35:03.120Z</time>
      </trkpt>
      <trkpt lat="46.11919" lon="4.78646">
        <ele>187.515931</ele>
        <time>2021-05-01T15:35:05.591Z</time>
      </trkpt>
      <trkpt lat="46.11974" lon="4.78684">
        <ele>187.617657</ele>
        <time>2021-05-01T15:35:22.189Z</time>
      </trkpt>
      <trkpt lat="46.12016" lon="4.78713">
        <ele>187.694958</ele>
        <time>2021-05-01T15:35:33.666Z</time>
      </trkpt>
      <trkpt lat="46.12041" lon="4.78728">
        <ele>187.277339</ele>
        <time>2021-05-01T15:35:40.045Z</time>
      </trkpt>
      <trkpt lat="46.12088" lon="4.78749">
        <ele>186.414426</ele>
        <time>2021-05-01T15:35:50.882Z</time>
      </trkpt>
      <trkpt lat="46.1211" lon="4.78759">
        <ele>185.990319</ele>
        <time>2021-05-01T15:35:55.742Z</time>
      </trkpt>
      <trkpt lat="46.12197" lon="4.78811">
        <ele>184.312665</ele>
        <time>2021-05-01T15:36:14.983Z</time>
      </trkpt>
      <trkpt lat="46.12231" lon="4.78828">
        <ele>183.672004</ele>
        <time>2021-05-01T15:36:22.388Z</time>
      </trkpt>
      <trkpt lat="46.12237" lon="4.7883">
        <ele>183.546796</ele>
        <time>2021-05-01T15:36:23.723Z</time>
      </trkpt>
      <trkpt lat="46.12293" lon="4.78847">
        <ele>182.519039</ele>
        <time>2021-05-01T15:36:36.037Z</time>
      </trkpt>
      <trkpt lat="46.12305" lon="4.78851">
        <ele>182.291156</ele>
        <time>2021-05-01T15:36:38.774Z</time>
      </trkpt>
      <trkpt lat="46.12327" lon="4.7886">
        <ele>181.88221</ele>
        <time>2021-05-01T15:36:43.661Z</time>
      </trkpt>
      <trkpt lat="46.12376" lon="4.78902">
        <ele>181.028009</ele>
        <time>2021-05-01T15:36:56.187Z</time>
      </trkpt>
      <trkpt lat="46.12452" lon="4.78961">
        <ele>180.204463</ele>
        <time>2021-05-01T15:37:16.469Z</time>
      </trkpt>
      <trkpt lat="46.12551" lon="4.79039">
        <ele>180.059562</ele>
        <time>2021-05-01T15:37:43.314Z</time>
      </trkpt>
      <trkpt lat="46.12562" lon="4.79047">
        <ele>180.215344</ele>
        <time>2021-05-01T15:37:46.396Z</time>
      </trkpt>
      <trkpt lat="46.12632" lon="4.79106">
        <ele>181.284809</ele>
        <time>2021-05-01T15:38:12.090Z</time>
      </trkpt>
      <trkpt lat="46.12712" lon="4.79176">
        <ele>183.589292</ele>
        <time>2021-05-01T15:38:54.591Z</time>
      </trkpt>
      <trkpt lat="46.12749" lon="4.79208">
        <ele>185.145523</ele>
        <time>2021-05-01T15:39:14.815Z</time>
      </trkpt>
      <trkpt lat="46.12792" lon="4.79246">
        <ele>186.971613</ele>
        <time>2021-05-01T15:39:39.179Z</time>
      </trkpt>
      <trkpt lat="46.12904" lon="4.79337">
        <ele>187.77603</ele>
        <time>2021-05-01T15:40:27.608Z</time>
      </trkpt>
      <trkpt lat="46.13005" lon="4.79429">
        <ele>185.968908</ele>
        <time>2021-05-01T15:40:50.451Z</time>
      </trkpt>
      <trkpt lat="46.13018" lon="4.79442">
        <ele>185.30906</ele>
        <time>2021-05-01T15:40:53.269Z</time>
      </trkpt>
      <trkpt lat="46.13059" lon="4.79479">
        <ele>183.276196</ele>
        <time>2021-05-01T15:41:02.164Z</time>
      </trkpt>
      <trkpt lat="46.13067" lon="4.79486">
        <ele>182.910427</ele>
        <time>2021-05-01T15:41:03.752Z</time>
      </trkpt>
      <trkpt lat="46.13106" lon="4.79523">
        <ele>180.94764</ele>
        <time>2021-05-01T15:41:12.380Z</time>
      </trkpt>
      <trkpt lat="46.1314" lon="4.79561">
        <ele>179.604999</ele>
        <time>2021-05-01T15:41:20.630Z</time>
      </trkpt>
      <trkpt lat="46.1318" lon="4.79609">
        <ele>179.288572</ele>
        <time>2021-05-01T15:41:31.249Z</time>
      </trkpt>
      <trkpt lat="46.13209" lon="4.79653">
        <ele>179.031218</ele>
        <time>2021-05-01T15:41:41.410Z</time>
      </trkpt>
      <trkpt lat="46.13376" lon="4.79905">
        <ele>181.439118</ele>
        <time>2021-05-01T15:43:05.953Z</time>
      </trkpt>
      <trkpt lat="46.13396" lon="4.79936">
        <ele>181.733565</ele>
        <time>2021-05-01T15:43:16.621Z</time>
      </trkpt>
      <trkpt lat="46.13481" lon="4.80068">
        <ele>182.492309</ele>
        <time>2021-05-01T15:43:55.787Z</time>
      </trkpt>
      <trkpt lat="46.13541" lon="4.80162">
        <ele>181.625072</ele>
        <time>2021-05-01T15:44:16.262Z</time>
      </trkpt>
      <trkpt lat="46.13595" lon="4.8024">
        <ele>180.020476</ele>
        <time>2021-05-01T15:44:31.900Z</time>
      </trkpt>
      <trkpt lat="46.13625" lon="4.80228">
        <ele>179.374553</ele>
        <time>2021-05-01T15:44:38.228Z</time>
      </trkpt>
      <trkpt lat="46.13724" lon="4.79974">
        <ele>174.077283</ele>
        <time>2021-05-01T15:45:20.555Z</time>
      </trkpt>
      <trkpt lat="46.13778" lon="4.79857">
        <ele>172.646953</ele>
        <time>2021-05-01T15:45:42.901Z</time>
      </trkpt>
      <trkpt lat="46.13808" lon="4.79818">
        <ele>172.046198</ele>
        <time>2021-05-01T15:45:52.640Z</time>
      </trkpt>
      <trkpt lat="46.13826" lon="4.79779">
        <ele>171.57274</ele>
        <time>2021-05-01T15:46:00.577Z</time>
      </trkpt>
      <trkpt lat="46.13847" lon="4.7974">
        <ele>171.293199</ele>
        <time>2021-05-01T15:46:09.130Z</time>
      </trkpt>
      <trkpt lat="46.13915" lon="4.7981">
        <ele>170.768848</ele>
        <time>2021-05-01T15:46:44.490Z</time>
      </trkpt>
      <trkpt lat="46.14113" lon="4.80026">
        <ele>169.416571</ele>
        <time>2021-05-01T15:48:29.238Z</time>
      </trkpt>
      <trkpt lat="46.14231" lon="4.80113">
        <ele>168.867975</ele>
        <time>2021-05-01T15:49:25.629Z</time>
      </trkpt>
      <trkpt lat="46.14324" lon="4.80168">
        <ele>168.556981</ele>
        <time>2021-05-01T15:50:08.963Z</time>
      </trkpt>
      <trkpt lat="46.14384" lon="4.80196">
        <ele>168.422297</ele>
        <time>2021-05-01T15:50:36.340Z</time>
      </trkpt>
      <trkpt lat="46.14428" lon="4.8021">
        <ele>168.324871</ele>
        <time>2021-05-01T15:50:56.189Z</time>
      </trkpt>
      <trkpt lat="46.1457" lon="4.80246">
        <ele>168.151799</ele>
        <time>2021-05-01T15:51:59.187Z</time>
      </trkpt>
      <trkpt lat="46.14604" lon="4.80249">
        <ele>168.116233</ele>
        <time>2021-05-01T15:52:14.080Z</time>
      </trkpt>
      <trkpt lat="46.14627" lon="4.80239">
        <ele>168.092681</ele>
        <time>2021-05-01T15:52:24.692Z</time>
      </trkpt>
      <trkpt lat="46.14643" lon="4.80245">
        <ele>168.089668</ele>
        <time>2021-05-01T15:52:32.364Z</time>
      </trkpt>
      <trkpt lat="46.14739" lon="4.80293">
        <ele>168.07074</ele>
        <time>2021-05-01T15:53:17.617Z</time>
      </trkpt>
      <trkpt lat="46.14814" lon="4.8032">
        <ele>168.004264</ele>
        <time>2021-05-01T15:53:52.157Z</time>
      </trkpt>
      <trkpt lat="46.14825" lon="4.80328">
        <ele>167.966968</ele>
        <time>2021-05-01T15:53:57.420Z</time>
      </trkpt>
      <trkpt lat="46.15013" lon="4.80394">
        <ele>167.622491</ele>
        <time>2021-05-01T15:55:20.271Z</time>
      </trkpt>
      <trkpt lat="46.15071" lon="4.80413">
        <ele>167.764488</ele>
        <time>2021-05-01T15:55:47.144Z</time>
      </trkpt>
      <trkpt lat="46.15196" lon="4.80454">
        <ele>168.35724</ele>
        <time>2021-05-01T15:56:47.844Z</time>
      </trkpt>
      <trkpt lat="46.15439" lon="4.80524">
        <ele>170.135069</ele>
        <time>2021-05-01T15:58:48.562Z</time>
      </trkpt>
      <trkpt lat="46.15499" lon="4.80527">
        <ele>170.509594</ele>
        <time>2021-05-01T15:59:16.278Z</time>
      </trkpt>
      <trkpt lat="46.15528" lon="4.80522">
        <ele>170.481185</ele>
        <time>2021-05-01T15:59:29.384Z</time>
      </trkpt>
      <trkpt lat="46.15568" lon="4.80506">
        <ele>170.441314</ele>
        <time>2021-05-01T15:59:47.473Z</time>
      </trkpt>
      <trkpt lat="46.15609" lon="4.80486">
        <ele>170.399567</ele>
        <time>2021-05-01T16:00:06.124Z</time>
      </trkpt>
      <trkpt lat="46.15717" lon="4.80455">
        <ele>170.309489</ele>
        <time>2021-05-01T16:00:53.860Z</time>
      </trkpt>
      <trkpt lat="46.15782" lon="4.80443">
        <ele>170.271895</ele>
        <time>2021-05-01T16:01:22.785Z</time>
      </trkpt>
      <trkpt lat="46.15836" lon="4.8041">
        <ele>170.237834</ele>
        <time>2021-05-01T16:01:49.243Z</time>
      </trkpt>
      <trkpt lat="46.15902" lon="4.80333">
        <ele>170.117621</ele>
        <time>2021-05-01T16:02:27.467Z</time>
      </trkpt>
      <trkpt lat="46.15973" lon="4.80248">
        <ele>169.975692</ele>
        <time>2021-05-01T16:03:07.548Z</time>
      </trkpt>
      <trkpt lat="46.16037" lon="4.80136">
        <ele>169.522631</ele>
        <time>2021-05-01T16:03:49.645Z</time>
      </trkpt>
      <trkpt lat="46.16058" lon="4.80105">
        <ele>169.370789</ele>
        <time>2021-05-01T16:04:02.413Z</time>
      </trkpt>
      <trkpt lat="46.16089" lon="4.80066">
        <ele>169.167746</ele>
        <time>2021-05-01T16:04:15.770Z</time>
      </trkpt>
      <trkpt lat="46.16147" lon="4.79962">
        <ele>168.917656</ele>
        <time>2021-05-01T16:04:46.969Z</time>
      </trkpt>
      <trkpt lat="46.16291" lon="4.79703">
        <ele>168.666566</ele>
        <time>2021-05-01T16:06:07.275Z</time>
      </trkpt>
      <trkpt lat="46.16333" lon="4.796">
        <ele>168.688573</ele>
        <time>2021-05-01T16:06:36.535Z</time>
      </trkpt>
      <trkpt lat="46.16352" lon="4.7953">
        <ele>168.780694</ele>
        <time>2021-05-01T16:06:55.354Z</time>
      </trkpt>
      <trkpt lat="46.16399" lon="4.79437">
        <ele>168.922368</ele>
        <time>2021-05-01T16:07:23.602Z</time>
      </trkpt>
      <trkpt lat="46.1645" lon="4.79344">
        <ele>169.461888</ele>
        <time>2021-05-01T16:07:54.109Z</time>
      </trkpt>
      <trkpt lat="46.16461" lon="4.79321">
        <ele>169.631676</ele>
        <time>2021-05-01T16:08:02.184Z</time>
      </trkpt>
      <trkpt lat="46.16495" lon="4.79253">
        <ele>170.133195</ele>
        <time>2021-05-01T16:08:25.957Z</time>
      </trkpt>
      <trkpt lat="46.16512" lon="4.79221">
        <ele>170.374039</ele>
        <time>2021-05-01T16:08:37.805Z</time>
      </trkpt>
      <trkpt lat="46.16514" lon="4.79213">
        <ele>170.419574</ele>
        <time>2021-05-01T16:08:40.033Z</time>
      </trkpt>
      <trkpt lat="46.16516" lon="4.79203">
        <ele>170.485916</ele>
        <time>2021-05-01T16:08:43.171Z</time>
      </trkpt>
      <trkpt lat="46.16512" lon="4.7917">
        <ele>170.591945</ele>
        <time>2021-05-01T16:08:50.299Z</time>
      </trkpt>
      <trkpt lat="46.16513" lon="4.79152">
        <ele>170.636388</ele>
        <time>2021-05-01T16:08:53.991Z</time>
      </trkpt>
      <trkpt lat="46.16528" lon="4.79098">
        <ele>170.785404</ele>
        <time>2021-05-01T16:09:06.093Z</time>
      </trkpt>
      <trkpt lat="46.16548" lon="4.79052">
        <ele>170.921699</ele>
        <time>2021-05-01T16:09:17.436Z</time>
      </trkpt>
      <trkpt lat="46.16561" lon="4.79035">
        <ele>170.988099</ele>
        <time>2021-05-01T16:09:23.078Z</time>
      </trkpt>
      <trkpt lat="46.16589" lon="4.78981">
        <ele>171.159887</ele>
        <time>2021-05-01T16:09:36.442Z</time>
      </trkpt>
      <trkpt lat="46.16715" lon="4.78734">
        <ele>170.211281</ele>
        <time>2021-05-01T16:10:29.726Z</time>
      </trkpt>
      <trkpt lat="46.16822" lon="4.78615">
        <ele>170.27732</ele>
        <time>2021-05-01T16:11:09.119Z</time>
      </trkpt>
      <trkpt lat="46.16885" lon="4.78579">
        <ele>170.189839</ele>
        <time>2021-05-01T16:11:28.446Z</time>
      </trkpt>
      <trkpt lat="46.16981" lon="4.78508">
        <ele>169.982076</ele>
        <time>2021-05-01T16:11:57.171Z</time>
      </trkpt>
      <trkpt lat="46.17028" lon="4.78486">
        <ele>169.816728</ele>
        <time>2021-05-01T16:12:09.649Z</time>
      </trkpt>
      <trkpt lat="46.17297" lon="4.78328">
        <ele>168.58366</ele>
        <time>2021-05-01T16:13:24.992Z</time>
      </trkpt>
      <trkpt lat="46.17376" lon="4.78299">
        <ele>168.385247</ele>
        <time>2021-05-01T16:13:46.687Z</time>
      </trkpt>
      <trkpt lat="46.17504" lon="4.78265">
        <ele>168.26654</ele>
        <time>2021-05-01T16:14:22.356Z</time>
      </trkpt>
      <trkpt lat="46.17766" lon="4.78226">
        <ele>168.683462</ele>
        <time>2021-05-01T16:15:37.604Z</time>
      </trkpt>
      <trkpt lat="46.18559" lon="4.78179">
        <ele>170.66921</ele>
        <time>2021-05-01T16:19:28.887Z</time>
      </trkpt>
      <trkpt lat="46.18654" lon="4.7816">
        <ele>170.511479</ele>
        <time>2021-05-01T16:19:55.134Z</time>
      </trkpt>
      <trkpt lat="46.18669" lon="4.78159">
        <ele>170.459796</ele>
        <time>2021-05-01T16:19:59.182Z</time>
      </trkpt>
      <trkpt lat="46.18691" lon="4.78156">
        <ele>170.382609</ele>
        <time>2021-05-01T16:20:04.839Z</time>
      </trkpt>
      <trkpt lat="46.18701" lon="4.78155">
        <ele>170.349086</ele>
        <time>2021-05-01T16:20:07.436Z</time>
      </trkpt>
      <trkpt lat="46.1875" lon="4.78149">
        <ele>170.177859</ele>
        <time>2021-05-01T16:20:20.182Z</time>
      </trkpt>
      <trkpt lat="46.18776" lon="4.78138">
        <ele>170.067226</ele>
        <time>2021-05-01T16:20:26.829Z</time>
      </trkpt>
      <trkpt lat="46.18785" lon="4.7813">
        <ele>170.000592</ele>
        <time>2021-05-01T16:20:29.770Z</time>
      </trkpt>
      <trkpt lat="46.18788" lon="4.78128">
        <ele>169.979745</ele>
        <time>2021-05-01T16:20:30.458Z</time>
      </trkpt>
      <trkpt lat="46.18829" lon="4.78116">
        <ele>169.727729</ele>
        <time>2021-05-01T16:20:40.722Z</time>
      </trkpt>
      <trkpt lat="46.18843" lon="4.78129">
        <ele>169.626943</ele>
        <time>2021-05-01T16:20:45.103Z</time>
      </trkpt>
      <trkpt lat="46.18931" lon="4.78156">
        <ele>169.082452</ele>
        <time>2021-05-01T16:21:07.843Z</time>
      </trkpt>
      <trkpt lat="46.18978" lon="4.78183">
        <ele>168.929691</ele>
        <time>2021-05-01T16:21:21.117Z</time>
      </trkpt>
      <trkpt lat="46.19045" lon="4.78248">
        <ele>168.760787</ele>
        <time>2021-05-01T16:21:42.666Z</time>
      </trkpt>
      <trkpt lat="46.19122" lon="4.78324">
        <ele>168.715985</ele>
        <time>2021-05-01T16:22:10.416Z</time>
      </trkpt>
      <trkpt lat="46.19428" lon="4.78628">
        <ele>169.780422</ele>
        <time>2021-05-01T16:24:06.045Z</time>
      </trkpt>
      <trkpt lat="46.195" lon="4.78717">
        <ele>170.047747</ele>
        <time>2021-05-01T16:24:35.729Z</time>
      </trkpt>
      <trkpt lat="46.19726" lon="4.78976">
        <ele>170.501195</ele>
        <time>2021-05-01T16:26:03.720Z</time>
      </trkpt>
      <trkpt lat="46.19781" lon="4.79054">
        <ele>170.528214</ele>
        <time>2021-05-01T16:26:26.387Z</time>
      </trkpt>
      <trkpt lat="46.20125" lon="4.79461">
        <ele>170.544761</ele>
        <time>2021-05-01T16:28:39.534Z</time>
      </trkpt>
      <trkpt lat="46.20163" lon="4.795">
        <ele>170.360633</ele>
        <time>2021-05-01T16:28:52.523Z</time>
      </trkpt>
      <trkpt lat="46.2019" lon="4.79513">
        <ele>170.248921</ele>
        <time>2021-05-01T16:29:00.297Z</time>
      </trkpt>
      <trkpt lat="46.20203" lon="4.7953">
        <ele>170.181354</ele>
        <time>2021-05-01T16:29:04.993Z</time>
      </trkpt>
      <trkpt lat="46.20226" lon="4.79558">
        <ele>170.062246</ele>
        <time>2021-05-01T16:29:13.198Z</time>
      </trkpt>
      <trkpt lat="46.20258" lon="4.7957">
        <ele>169.851452</ele>
        <time>2021-05-01T16:29:22.259Z</time>
      </trkpt>
      <trkpt lat="46.20324" lon="4.79585">
        <ele>169.398668</ele>
        <time>2021-05-01T16:29:39.733Z</time>
      </trkpt>
      <trkpt lat="46.2039" lon="4.79591">
        <ele>168.941705</ele>
        <time>2021-05-01T16:29:57.349Z</time>
      </trkpt>
      <trkpt lat="46.20525" lon="4.79562">
        <ele>168.70744</ele>
        <time>2021-05-01T16:30:36.116Z</time>
      </trkpt>
      <trkpt lat="46.2061" lon="4.79522">
        <ele>168.794134</ele>
        <time>2021-05-01T16:31:04.290Z</time>
      </trkpt>
      <trkpt lat="46.20623" lon="4.79507">
        <ele>168.882705</ele>
        <time>2021-05-01T16:31:09.366Z</time>
      </trkpt>
      <trkpt lat="46.20627" lon="4.795">
        <ele>168.918553</ele>
        <time>2021-05-01T16:31:11.184Z</time>
      </trkpt>
      <trkpt lat="46.20635" lon="4.79488">
        <ele>168.98186</ele>
        <time>2021-05-01T16:31:15.469Z</time>
      </trkpt>
      <trkpt lat="46.20646" lon="4.79477">
        <ele>169.054834</ele>
        <time>2021-05-01T16:31:19.711Z</time>
      </trkpt>
      <trkpt lat="46.20684" lon="4.79468">
        <ele>169.261563</ele>
        <time>2021-05-01T16:31:32.178Z</time>
      </trkpt>
      <trkpt lat="46.20694" lon="4.79469">
        <ele>169.315476</ele>
        <time>2021-05-01T16:31:35.147Z</time>
      </trkpt>
      <trkpt lat="46.20714" lon="4.79487">
        <ele>169.446781</ele>
        <time>2021-05-01T16:31:43.524Z</time>
      </trkpt>
      <trkpt lat="46.20758" lon="4.7949">
        <ele>169.662224</ele>
        <time>2021-05-01T16:31:57.698Z</time>
      </trkpt>
      <trkpt lat="46.20849" lon="4.79475">
        <ele>169.950179</ele>
        <time>2021-05-01T16:32:27.169Z</time>
      </trkpt>
      <trkpt lat="46.21026" lon="4.7946">
        <ele>170.162587</ele>
        <time>2021-05-01T16:33:19.403Z</time>
      </trkpt>
      <trkpt lat="46.21392" lon="4.79486">
        <ele>170.045633</ele>
        <time>2021-05-01T16:35:06.915Z</time>
      </trkpt>
      <trkpt lat="46.21549" lon="4.79535">
        <ele>170.199317</ele>
        <time>2021-05-01T16:35:56.355Z</time>
      </trkpt>
      <trkpt lat="46.21586" lon="4.79552">
        <ele>170.24954</ele>
        <time>2021-05-01T16:36:08.175Z</time>
      </trkpt>
      <trkpt lat="46.21747" lon="4.79604">
        <ele>170.152822</ele>
        <time>2021-05-01T16:36:56.409Z</time>
      </trkpt>
      <trkpt lat="46.21845" lon="4.79644">
        <ele>169.945861</ele>
        <time>2021-05-01T16:37:25.539Z</time>
      </trkpt>
      <trkpt lat="46.22102" lon="4.7981">
        <ele>168.9813</ele>
        <time>2021-05-01T16:38:44.532Z</time>
      </trkpt>
      <trkpt lat="46.22186" lon="4.79857">
        <ele>168.778919</ele>
        <time>2021-05-01T16:39:09.860Z</time>
      </trkpt>
      <trkpt lat="46.22276" lon="4.799">
        <ele>168.714132</ele>
        <time>2021-05-01T16:39:37.186Z</time>
      </trkpt>
      <trkpt lat="46.22285" lon="4.79904">
        <ele>168.707016</ele>
        <time>2021-05-01T16:39:40.530Z</time>
      </trkpt>
      <trkpt lat="46.2257" lon="4.80038">
        <ele>169.567942</ele>
        <time>2021-05-01T16:41:15.347Z</time>
      </trkpt>
      <trkpt lat="46.22686" lon="4.80086">
        <ele>169.72396</ele>
        <time>2021-05-01T16:41:50.576Z</time>
      </trkpt>
      <trkpt lat="46.22805" lon="4.80156">
        <ele>169.721868</ele>
        <time>2021-05-01T16:42:28.234Z</time>
      </trkpt>
      <trkpt lat="46.22812" lon="4.8016">
        <ele>169.72175</ele>
        <time>2021-05-01T16:42:30.751Z</time>
      </trkpt>
      <trkpt lat="46.22852" lon="4.8019">
        <ele>169.78799</ele>
        <time>2021-05-01T16:42:44.804Z</time>
      </trkpt>
      <trkpt lat="46.22895" lon="4.80232">
        <ele>169.902549</ele>
        <time>2021-05-01T16:43:00.695Z</time>
      </trkpt>
      <trkpt lat="46.22909" lon="4.80244">
        <ele>169.937525</ele>
        <time>2021-05-01T16:43:05.850Z</time>
      </trkpt>
      <trkpt lat="46.22926" lon="4.80252">
        <ele>169.976737</ele>
        <time>2021-05-01T16:43:11.206Z</time>
      </trkpt>
      <trkpt lat="46.22953" lon="4.80269">
        <ele>170.04301</ele>
        <time>2021-05-01T16:43:20.726Z</time>
      </trkpt>
      <trkpt lat="46.22986" lon="4.80293">
        <ele>170.117144</ele>
        <time>2021-05-01T16:43:31.848Z</time>
      </trkpt>
      <trkpt lat="46.23093" lon="4.80397">
        <ele>170.036809</ele>
        <time>2021-05-01T16:44:09.591Z</time>
      </trkpt>
      <trkpt lat="46.23349" lon="4.80698">
        <ele>169.462467</ele>
        <time>2021-05-01T16:45:44.747Z</time>
      </trkpt>
      <trkpt lat="46.23448" lon="4.80798">
        <ele>169.159348</ele>
        <time>2021-05-01T16:46:19.337Z</time>
      </trkpt>
      <trkpt lat="46.23482" lon="4.80833">
        <ele>169.030193</ele>
        <time>2021-05-01T16:46:30.886Z</time>
      </trkpt>
      <trkpt lat="46.23517" lon="4.80861">
        <ele>168.904146</ele>
        <time>2021-05-01T16:46:42.386Z</time>
      </trkpt>
      <trkpt lat="46.2353" lon="4.80872">
        <ele>168.858444</ele>
        <time>2021-05-01T16:46:49.054Z</time>
      </trkpt>
      <trkpt lat="46.23543" lon="4.80887">
        <ele>168.807058</ele>
        <time>2021-05-01T16:46:55.876Z</time>
      </trkpt>
      <trkpt lat="46.23601" lon="4.80936">
        <ele>168.754751</ele>
        <time>2021-05-01T16:47:24.982Z</time>
      </trkpt>
      <trkpt lat="46.23708" lon="4.81007">
        <ele>168.815325</ele>
        <time>2021-05-01T16:48:17.659Z</time>
      </trkpt>
      <trkpt lat="46.2378" lon="4.81044">
        <ele>169.08781</ele>
        <time>2021-05-01T16:48:53.241Z</time>
      </trkpt>
      <trkpt lat="46.23859" lon="4.81074">
        <ele>169.464844</ele>
        <time>2021-05-01T16:49:31.906Z</time>
      </trkpt>
      <trkpt lat="46.23979" lon="4.81103">
        <ele>169.728825</ele>
        <time>2021-05-01T16:50:28.636Z</time>
      </trkpt>
      <trkpt lat="46.24002" lon="4.81106">
        <ele>169.750155</ele>
        <time>2021-05-01T16:50:38.802Z</time>
      </trkpt>
      <trkpt lat="46.24011" lon="4.81101">
        <ele>169.758984</ele>
        <time>2021-05-01T16:50:42.896Z</time>
      </trkpt>
      <trkpt lat="46.24025" lon="4.81081">
        <ele>169.777024</ele>
        <time>2021-05-01T16:50:51.529Z</time>
      </trkpt>
      <trkpt lat="46.24043" lon="4.81073">
        <ele>169.795051</ele>
        <time>2021-05-01T16:50:59.870Z</time>
      </trkpt>
      <trkpt lat="46.24067" lon="4.81077">
        <ele>169.817268</ele>
        <time>2021-05-01T16:51:10.450Z</time>
      </trkpt>
      <trkpt lat="46.24084" lon="4.81093">
        <ele>169.773857</ele>
        <time>2021-05-01T16:51:19.210Z</time>
      </trkpt>
      <trkpt lat="46.24111" lon="4.81134">
        <ele>169.664651</ele>
        <time>2021-05-01T16:51:36.047Z</time>
      </trkpt>
      <trkpt lat="46.24136" lon="4.81139">
        <ele>169.593738</ele>
        <time>2021-05-01T16:51:46.811Z</time>
      </trkpt>
      <trkpt lat="46.24149" lon="4.81131">
        <ele>169.554509</ele>
        <time>2021-05-01T16:51:52.837Z</time>
      </trkpt>
      <trkpt lat="46.24174" lon="4.81136">
        <ele>169.484406</ele>
        <time>2021-05-01T16:52:03.502Z</time>
      </trkpt>
      <trkpt lat="46.24181" lon="4.81144">
        <ele>169.458937</ele>
        <time>2021-05-01T16:52:07.450Z</time>
      </trkpt>
      <trkpt lat="46.24184" lon="4.81157">
        <ele>169.431612</ele>
        <time>2021-05-01T16:52:11.675Z</time>
      </trkpt>
      <trkpt lat="46.24208" lon="4.81172">
        <ele>169.358149</ele>
        <time>2021-05-01T16:52:22.940Z</time>
      </trkpt>
      <trkpt lat="46.24287" lon="4.81191">
        <ele>169.465655</ele>
        <time>2021-05-01T16:52:58.011Z</time>
      </trkpt>
      <trkpt lat="46.24498" lon="4.81264">
        <ele>170.339074</ele>
        <time>2021-05-01T16:54:39.352Z</time>
      </trkpt>
      <trkpt lat="46.24547" lon="4.81284">
        <ele>170.642064</ele>
        <time>2021-05-01T16:55:03.889Z</time>
      </trkpt>
      <trkpt lat="46.24502" lon="4.81503">
        <ele>171.630883</ele>
        <time>2021-05-01T16:55:53.833Z</time>
      </trkpt>
      <trkpt lat="46.24499" lon="4.81521">
        <ele>171.710917</ele>
        <time>2021-05-01T16:55:57.651Z</time>
      </trkpt>
      <trkpt lat="46.24498" lon="4.81537">
        <ele>171.780707</ele>
        <time>2021-05-01T16:56:00.936Z</time>
      </trkpt>
      <trkpt lat="46.24533" lon="4.8154">
        <ele>171.932861</ele>
        <time>2021-05-01T16:56:11.149Z</time>
      </trkpt>
      <trkpt lat="46.24566" lon="4.81536">
        <ele>171.914042</ele>
        <time>2021-05-01T16:56:20.744Z</time>
      </trkpt>
      <trkpt lat="46.24572" lon="4.81537">
        <ele>171.910436</ele>
        <time>2021-05-01T16:56:22.456Z</time>
      </trkpt>
      <trkpt lat="46.24611" lon="4.81543">
        <ele>171.887916</ele>
        <time>2021-05-01T16:56:33.613Z</time>
      </trkpt>
      <trkpt lat="46.24665" lon="4.81552">
        <ele>171.85693</ele>
        <time>2021-05-01T16:56:48.268Z</time>
      </trkpt>
      <trkpt lat="46.24699" lon="4.81562">
        <ele>171.837243</ele>
        <time>2021-05-01T16:56:57.193Z</time>
      </trkpt>
      <trkpt lat="46.24732" lon="4.81572">
        <ele>171.668786</ele>
        <time>2021-05-01T16:57:05.780Z</time>
      </trkpt>
      <trkpt lat="46.24748" lon="4.81576">
        <ele>171.584285</ele>
        <time>2021-05-01T16:57:09.895Z</time>
      </trkpt>
      <trkpt lat="46.2477" lon="4.81593">
        <ele>171.453304</ele>
        <time>2021-05-01T16:57:16.292Z</time>
      </trkpt>
      <trkpt lat="46.24825" lon="4.81669">
        <ele>171.052436</ele>
        <time>2021-05-01T16:57:35.896Z</time>
      </trkpt>
      <trkpt lat="46.24897" lon="4.817">
        <ele>170.490522</ele>
        <time>2021-05-01T16:57:55.183Z</time>
      </trkpt>
      <trkpt lat="46.24981" lon="4.81719">
        <ele>169.719063</ele>
        <time>2021-05-01T16:58:15.067Z</time>
      </trkpt>
      <trkpt lat="46.25005" lon="4.81724">
        <ele>169.501159</ele>
        <time>2021-05-01T16:58:21.491Z</time>
      </trkpt>
      <trkpt lat="46.24948" lon="4.8189">
        <ele>168.653433</ele>
        <time>2021-05-01T16:58:53.100Z</time>
      </trkpt>
      <trkpt lat="46.24968" lon="4.81897">
        <ele>168.5337</ele>
        <time>2021-05-01T16:59:02.232Z</time>
      </trkpt>
      <trkpt lat="46.25296" lon="4.82018">
        <ele>167.329801</ele>
        <time>2021-05-01T17:01:25.599Z</time>
      </trkpt>
      <trkpt lat="46.253" lon="4.82008">
        <ele>167.331821</ele>
        <time>2021-05-01T17:01:28.459Z</time>
      </trkpt>
      <trkpt lat="46.25539" lon="4.82107">
        <ele>169.024092</ele>
        <time>2021-05-01T17:03:30.943Z</time>
      </trkpt>
      <trkpt lat="46.25652" lon="4.82156">
        <ele>169.699243</ele>
        <time>2021-05-01T17:04:09.714Z</time>
      </trkpt>
      <trkpt lat="46.25715" lon="4.82182">
        <ele>170.070158</ele>
        <time>2021-05-01T17:04:29.984Z</time>
      </trkpt>
      <trkpt lat="46.25914" lon="4.8222">
        <ele>170.442879</ele>
        <time>2021-05-01T17:05:31.416Z</time>
      </trkpt>
      <trkpt lat="46.25924" lon="4.82213">
        <ele>170.448787</ele>
        <time>2021-05-01T17:05:34.793Z</time>
      </trkpt>
      <trkpt lat="46.25965" lon="4.82077">
        <ele>170.503594</ele>
        <time>2021-05-01T17:06:05.452Z</time>
      </trkpt>
      <trkpt lat="46.26044" lon="4.81839">
        <ele>170.811767</ele>
        <time>2021-05-01T17:07:00.000Z</time>
      </trkpt>
      <trkpt lat="46.26118" lon="4.81805">
        <ele>171.089075</ele>
        <time>2021-05-01T17:07:25.173Z</time>
      </trkpt>
      <trkpt lat="46.2613" lon="4.81793">
        <ele>171.170988</ele>
        <time>2021-05-01T17:07:30.039Z</time>
      </trkpt>
      <trkpt lat="46.26158" lon="4.8171">
        <ele>171.518378</ele>
        <time>2021-05-01T17:07:51.466Z</time>
      </trkpt>
      <trkpt lat="46.2617" lon="4.81696">
        <ele>171.603777</ele>
        <time>2021-05-01T17:07:56.480Z</time>
      </trkpt>
      <trkpt lat="46.26184" lon="4.81695">
        <ele>171.67865</ele>
        <time>2021-05-01T17:08:01.328Z</time>
      </trkpt>
      <trkpt lat="46.26191" lon="4.81699">
        <ele>171.718178</ele>
        <time>2021-05-01T17:08:04.805Z</time>
      </trkpt>
      <trkpt lat="46.26222" lon="4.8174">
        <ele>171.803817</ele>
        <time>2021-05-01T17:08:23.786Z</time>
      </trkpt>
      <trkpt lat="46.26232" lon="4.81764">
        <ele>171.682505</ele>
        <time>2021-05-01T17:08:32.729Z</time>
      </trkpt>
      <trkpt lat="46.26253" lon="4.81873">
        <ele>171.190761</ele>
        <time>2021-05-01T17:09:05.789Z</time>
      </trkpt>
      <trkpt lat="46.26267" lon="4.81904">
        <ele>171.031996</ele>
        <time>2021-05-01T17:09:16.111Z</time>
      </trkpt>
      <trkpt lat="46.26271" lon="4.81907">
        <ele>171.001113</ele>
        <time>2021-05-01T17:09:18.089Z</time>
      </trkpt>
      <trkpt lat="46.2628" lon="4.81914">
        <ele>170.941949</ele>
        <time>2021-05-01T17:09:21.555Z</time>
      </trkpt>
      <trkpt lat="46.26328" lon="4.81918">
        <ele>170.605003</ele>
        <time>2021-05-01T17:09:41.166Z</time>
      </trkpt>
      <trkpt lat="46.26347" lon="4.81927">
        <ele>170.445962</ele>
        <time>2021-05-01T17:09:49.046Z</time>
      </trkpt>
      <trkpt lat="46.26381" lon="4.81953">
        <ele>170.138013</ele>
        <time>2021-05-01T17:10:04.415Z</time>
      </trkpt>
      <trkpt lat="46.26469" lon="4.81814">
        <ele>169.294609</ele>
        <time>2021-05-01T17:10:36.447Z</time>
      </trkpt>
      <trkpt lat="46.26524" lon="4.81883">
        <ele>169.223619</ele>
        <time>2021-05-01T17:11:08.978Z</time>
      </trkpt>
      <trkpt lat="46.26587" lon="4.81971">
        <ele>169.130599</ele>
        <time>2021-05-01T17:11:48.141Z</time>
      </trkpt>
      <trkpt lat="46.26638" lon="4.82038">
        <ele>169.007041</ele>
        <time>2021-05-01T17:12:18.115Z</time>
      </trkpt>
      <trkpt lat="46.26689" lon="4.82091">
        <ele>168.894688</ele>
        <time>2021-05-01T17:12:44.973Z</time>
      </trkpt>
      <trkpt lat="46.26812" lon="4.82237">
        <ele>168.916091</ele>
        <time>2021-05-01T17:13:55.535Z</time>
      </trkpt>
      <trkpt lat="46.26974" lon="4.82388">
        <ele>169.146587</ele>
        <time>2021-05-01T17:15:23.837Z</time>
      </trkpt>
      <trkpt lat="46.27102" lon="4.82481">
        <ele>168.945691</ele>
        <time>2021-05-01T17:16:26.898Z</time>
      </trkpt>
      <trkpt lat="46.27205" lon="4.82583">
        <ele>168.620132</ele>
        <time>2021-05-01T17:17:19.867Z</time>
      </trkpt>
      <trkpt lat="46.27313" lon="4.82665">
        <ele>168.348878</ele>
        <time>2021-05-01T17:18:12.447Z</time>
      </trkpt>
      <trkpt lat="46.27375" lon="4.82683">
        <ele>168.587656</ele>
        <time>2021-05-01T17:18:41.460Z</time>
      </trkpt>
      <trkpt lat="46.27439" lon="4.8272">
        <ele>169.007445</ele>
        <time>2021-05-01T17:19:14.154Z</time>
      </trkpt>
      <trkpt lat="46.27496" lon="4.82776">
        <ele>169.439432</ele>
        <time>2021-05-01T17:19:47.570Z</time>
      </trkpt>
      <trkpt lat="46.27557" lon="4.82821">
        <ele>170.226936</ele>
        <time>2021-05-01T17:20:22.573Z</time>
      </trkpt>
      <trkpt lat="46.27654" lon="4.8287">
        <ele>171.388024</ele>
        <time>2021-05-01T17:21:14.557Z</time>
      </trkpt>
      <trkpt lat="46.27719" lon="4.82889">
        <ele>171.442341</ele>
        <time>2021-05-01T17:21:45.666Z</time>
      </trkpt>
      <trkpt lat="46.27723" lon="4.82893">
        <ele>171.442329</ele>
        <time>2021-05-01T17:21:48.165Z</time>
      </trkpt>
      <trkpt lat="46.27725" lon="4.82896">
        <ele>171.442321</ele>
        <time>2021-05-01T17:21:49.738Z</time>
      </trkpt>
      <trkpt lat="46.27733" lon="4.8291">
        <ele>171.442294</ele>
        <time>2021-05-01T17:21:55.146Z</time>
      </trkpt>
      <trkpt lat="46.27739" lon="4.82912">
        <ele>171.442278</ele>
        <time>2021-05-01T17:21:58.170Z</time>
      </trkpt>
      <trkpt lat="46.27758" lon="4.82891">
        <ele>171.442225</ele>
        <time>2021-05-01T17:22:04.602Z</time>
      </trkpt>
      <trkpt lat="46.27765" lon="4.82888">
        <ele>171.442208</ele>
        <time>2021-05-01T17:22:06.455Z</time>
      </trkpt>
      <trkpt lat="46.27772" lon="4.82891">
        <ele>171.442191</ele>
        <time>2021-05-01T17:22:08.350Z</time>
      </trkpt>
      <trkpt lat="46.28052" lon="4.82948">
        <ele>169.32592</ele>
        <time>2021-05-01T17:23:13.771Z</time>
      </trkpt>
      <trkpt lat="46.28234" lon="4.82989">
        <ele>168.461974</ele>
        <time>2021-05-01T17:23:58.067Z</time>
      </trkpt>
      <trkpt lat="46.28421" lon="4.83048">
        <ele>169.349572</ele>
        <time>2021-05-01T17:24:55.379Z</time>
      </trkpt>
      <trkpt lat="46.28461" lon="4.83062">
        <ele>169.725824</ele>
        <time>2021-05-01T17:25:08.756Z</time>
      </trkpt>
      <trkpt lat="46.28471" lon="4.83063">
        <ele>169.814157</ele>
        <time>2021-05-01T17:25:12.085Z</time>
      </trkpt>
      <trkpt lat="46.28487" lon="4.83065">
        <ele>169.953896</ele>
        <time>2021-05-01T17:25:16.986Z</time>
      </trkpt>
      <trkpt lat="46.28562" lon="4.83059">
        <ele>170.424138</ele>
        <time>2021-05-01T17:25:40.384Z</time>
      </trkpt>
      <trkpt lat="46.28585" lon="4.83064">
        <ele>170.458282</ele>
        <time>2021-05-01T17:25:47.291Z</time>
      </trkpt>
      <trkpt lat="46.28615" lon="4.83081">
        <ele>170.50738</ele>
        <time>2021-05-01T17:25:56.743Z</time>
      </trkpt>
      <trkpt lat="46.28671" lon="4.83135">
        <ele>170.6091</ele>
        <time>2021-05-01T17:26:14.448Z</time>
      </trkpt>
      <trkpt lat="46.28803" lon="4.83189">
        <ele>169.735924</ele>
        <time>2021-05-01T17:26:47.108Z</time>
      </trkpt>
      <trkpt lat="46.2883" lon="4.832">
        <ele>169.503353</ele>
        <time>2021-05-01T17:26:53.411Z</time>
      </trkpt>
      <trkpt lat="46.28843" lon="4.83207">
        <ele>169.3855</ele>
        <time>2021-05-01T17:26:56.642Z</time>
      </trkpt>
      <trkpt lat="46.28857" lon="4.83218">
        <ele>169.246764</ele>
        <time>2021-05-01T17:27:00.472Z</time>
      </trkpt>
      <trkpt lat="46.28868" lon="4.83228">
        <ele>169.139175</ele>
        <time>2021-05-01T17:27:03.369Z</time>
      </trkpt>
      <trkpt lat="46.2888" lon="4.8324">
        <ele>169.068619</ele>
        <time>2021-05-01T17:27:06.950Z</time>
      </trkpt>
      <trkpt lat="46.28892" lon="4.83254">
        <ele>169.003869</ele>
        <time>2021-05-01T17:27:10.401Z</time>
      </trkpt>
      <trkpt lat="46.28924" lon="4.83301">
        <ele>168.804537</ele>
        <time>2021-05-01T17:27:21.279Z</time>
      </trkpt>
      <trkpt lat="46.28941" lon="4.83337">
        <ele>168.673568</ele>
        <time>2021-05-01T17:27:28.508Z</time>
      </trkpt>
      <trkpt lat="46.29016" lon="4.83584">
        <ele>168.598756</ele>
        <time>2021-05-01T17:28:18.995Z</time>
      </trkpt>
      <trkpt lat="46.29047" lon="4.83651">
        <ele>168.726965</ele>
        <time>2021-05-01T17:28:35.155Z</time>
      </trkpt>
      <trkpt lat="46.29066" lon="4.83676">
        <ele>168.844595</ele>
        <time>2021-05-01T17:28:42.637Z</time>
      </trkpt>
      <trkpt lat="46.29116" lon="4.83716">
        <ele>169.229354</ele>
        <time>2021-05-01T17:28:59.111Z</time>
      </trkpt>
      <trkpt lat="46.2916" lon="4.83733">
        <ele>169.543574</ele>
        <time>2021-05-01T17:29:12.946Z</time>
      </trkpt>
      <trkpt lat="46.29205" lon="4.83731">
        <ele>169.844846</ele>
        <time>2021-05-01T17:29:26.523Z</time>
      </trkpt>
      <trkpt lat="46.29259" lon="4.83705">
        <ele>170.281639</ele>
        <time>2021-05-01T17:29:44.511Z</time>
      </trkpt>
      <trkpt lat="46.29322" lon="4.83655">
        <ele>170.854147</ele>
        <time>2021-05-01T17:30:07.065Z</time>
      </trkpt>
      <trkpt lat="46.29435" lon="4.83563">
        <ele>171.414212</ele>
        <time>2021-05-01T17:30:45.172Z</time>
      </trkpt>
      <trkpt lat="46.29469" lon="4.83535">
        <ele>171.413333</ele>
        <time>2021-05-01T17:30:55.764Z</time>
      </trkpt>
      <trkpt lat="46.29513" lon="4.83504">
        <ele>171.412243</ele>
        <time>2021-05-01T17:31:08.178Z</time>
      </trkpt>
      <trkpt lat="46.29591" lon="4.83473">
        <ele>171.089449</ele>
        <time>2021-05-01T17:31:27.847Z</time>
      </trkpt>
      <trkpt lat="46.29606" lon="4.83468">
        <ele>170.987107</ele>
        <time>2021-05-01T17:31:31.441Z</time>
      </trkpt>
      <trkpt lat="46.29651" lon="4.83453">
        <ele>170.679538</ele>
        <time>2021-05-01T17:31:42.525Z</time>
      </trkpt>
      <trkpt lat="46.29692" lon="4.83446">
        <ele>170.405512</ele>
        <time>2021-05-01T17:31:52.378Z</time>
      </trkpt>
      <trkpt lat="46.29701" lon="4.83448">
        <ele>170.343789</ele>
        <time>2021-05-01T17:31:54.583Z</time>
      </trkpt>
      <trkpt lat="46.29705" lon="4.83454">
        <ele>170.303799</ele>
        <time>2021-05-01T17:31:56.006Z</time>
      </trkpt>
      <trkpt lat="46.29715" lon="4.83462">
        <ele>170.224567</ele>
        <time>2021-05-01T17:31:58.917Z</time>
      </trkpt>
      <trkpt lat="46.29717" lon="4.83462">
        <ele>170.210514</ele>
        <time>2021-05-01T17:31:59.432Z</time>
      </trkpt>
      <trkpt lat="46.29721" lon="4.83463">
        <ele>170.20279</ele>
        <time>2021-05-01T17:32:00.350Z</time>
      </trkpt>
      <trkpt lat="46.29733" lon="4.83457">
        <ele>170.178294</ele>
        <time>2021-05-01T17:32:03.320Z</time>
      </trkpt>
      <trkpt lat="46.29734" lon="4.83455">
        <ele>170.175118</ele>
        <time>2021-05-01T17:32:03.685Z</time>
      </trkpt>
      <trkpt lat="46.29738" lon="4.8345">
        <ele>170.165509</ele>
        <time>2021-05-01T17:32:04.878Z</time>
      </trkpt>
      <trkpt lat="46.29741" lon="4.83442">
        <ele>170.152644</ele>
        <time>2021-05-01T17:32:06.489Z</time>
      </trkpt>
      <trkpt lat="46.29742" lon="4.83433">
        <ele>170.139707</ele>
        <time>2021-05-01T17:32:08.096Z</time>
      </trkpt>
      <trkpt lat="46.29741" lon="4.83423">
        <ele>170.126836</ele>
        <time>2021-05-01T17:32:09.684Z</time>
      </trkpt>
      <trkpt lat="46.29739" lon="4.83415">
        <ele>170.114063</ele>
        <time>2021-05-01T17:32:11.240Z</time>
      </trkpt>
      <trkpt lat="46.29738" lon="4.83412">
        <ele>170.109445</ele>
        <time>2021-05-01T17:32:11.801Z</time>
      </trkpt>
      <trkpt lat="46.29735" lon="4.83407">
        <ele>170.101236</ele>
        <time>2021-05-01T17:32:12.788Z</time>
      </trkpt>
      <trkpt lat="46.2973" lon="4.83402">
        <ele>170.088436</ele>
        <time>2021-05-01T17:32:14.408Z</time>
      </trkpt>
      <trkpt lat="46.29731" lon="4.83356">
        <ele>170.025604</ele>
        <time>2021-05-01T17:32:22.623Z</time>
      </trkpt>
      <trkpt lat="46.29756" lon="4.83065">
        <ele>170.626067</ele>
        <time>2021-05-01T17:33:22.063Z</time>
      </trkpt>
      <trkpt lat="46.29757" lon="4.83055">
        <ele>170.672631</ele>
        <time>2021-05-01T17:33:24.346Z</time>
      </trkpt>
      <trkpt lat="46.29758" lon="4.8305">
        <ele>170.69706</ele>
        <time>2021-05-01T17:33:25.752Z</time>
      </trkpt>
      <trkpt lat="46.29771" lon="4.83043">
        <ele>170.792134</ele>
        <time>2021-05-01T17:33:30.143Z</time>
      </trkpt>
      <trkpt lat="46.29772" lon="4.83044">
        <ele>170.799136</ele>
        <time>2021-05-01T17:33:30.835Z</time>
      </trkpt>
      <trkpt lat="46.29803" lon="4.83058">
        <ele>171.010962</ele>
        <time>2021-05-01T17:33:42.128Z</time>
      </trkpt>
      <trkpt lat="46.29905" lon="4.83109">
        <ele>171.872794</ele>
        <time>2021-05-01T17:34:17.200Z</time>
      </trkpt>
      <trkpt lat="46.29907" lon="4.83104">
        <ele>171.903207</ele>
        <time>2021-05-01T17:34:18.707Z</time>
      </trkpt>
      <trkpt lat="46.29918" lon="4.83112">
        <ele>172.000778</ele>
        <time>2021-05-01T17:34:22.319Z</time>
      </trkpt>
      <trkpt lat="46.29931" lon="4.83121">
        <ele>172.117819</ele>
        <time>2021-05-01T17:34:26.564Z</time>
      </trkpt>
      <trkpt lat="46.29975" lon="4.83148">
        <ele>172.473491</ele>
        <time>2021-05-01T17:34:40.801Z</time>
      </trkpt>
      <trkpt lat="46.30032" lon="4.83177">
        <ele>171.860734</ele>
        <time>2021-05-01T17:34:57.512Z</time>
      </trkpt>
      <trkpt lat="46.30106" lon="4.83222">
        <ele>171.052296</ele>
        <time>2021-05-01T17:35:14.795Z</time>
      </trkpt>
      <trkpt lat="46.30138" lon="4.83241">
        <ele>170.697399</ele>
        <time>2021-05-01T17:35:22.261Z</time>
      </trkpt>
      <trkpt lat="46.30142" lon="4.83244">
        <ele>170.643404</ele>
        <time>2021-05-01T17:35:23.347Z</time>
      </trkpt>
      <trkpt lat="46.30148" lon="4.83247">
        <ele>170.560385</ele>
        <time>2021-05-01T17:35:24.645Z</time>
      </trkpt>
      <trkpt lat="46.30149" lon="4.83253">
        <ele>170.505999</ele>
        <time>2021-05-01T17:35:25.328Z</time>
      </trkpt>
      <trkpt lat="46.30167" lon="4.83266">
        <ele>170.225695</ele>
        <time>2021-05-01T17:35:31.420Z</time>
      </trkpt>
      <trkpt lat="46.30172" lon="4.83277">
        <ele>170.105596</ele>
        <time>2021-05-01T17:35:33.810Z</time>
      </trkpt>
      <trkpt lat="46.30176" lon="4.8329">
        <ele>169.972869</ele>
        <time>2021-05-01T17:35:35.615Z</time>
      </trkpt>
      <trkpt lat="46.30264" lon="4.83368">
        <ele>168.563993</ele>
        <time>2021-05-01T17:35:59.692Z</time>
      </trkpt>
      <trkpt lat="46.30322" lon="4.83418">
        <ele>168.132434</ele>
        <time>2021-05-01T17:36:17.273Z</time>
      </trkpt>
      <trkpt lat="46.30362" lon="4.8345">
        <ele>168.035341</ele>
        <time>2021-05-01T17:36:30.171Z</time>
      </trkpt>
      <trkpt lat="46.3039" lon="4.83473">
        <ele>167.966964</ele>
        <time>2021-05-01T17:36:38.947Z</time>
      </trkpt>
      <trkpt lat="46.30395" lon="4.83477">
        <ele>167.95521</ele>
        <time>2021-05-01T17:36:40.403Z</time>
      </trkpt>
      <trkpt lat="46.30416" lon="4.83495">
        <ele>167.901402</ele>
        <time>2021-05-01T17:36:47.397Z</time>
      </trkpt>
      <trkpt lat="46.30434" lon="4.8351">
        <ele>167.858308</ele>
        <time>2021-05-01T17:36:52.660Z</time>
      </trkpt>
      <trkpt lat="46.30482" lon="4.83551">
        <ele>167.785117</ele>
        <time>2021-05-01T17:37:08.314Z</time>
      </trkpt>
      <trkpt lat="46.30501" lon="4.83567">
        <ele>167.759526</ele>
        <time>2021-05-01T17:37:14.261Z</time>
      </trkpt>
      <trkpt lat="46.30517" lon="4.83583">
        <ele>167.737114</ele>
        <time>2021-05-01T17:37:19.858Z</time>
      </trkpt>
      <trkpt lat="46.30528" lon="4.83593">
        <ele>167.722237</ele>
        <time>2021-05-01T17:37:23.243Z</time>
      </trkpt>
      <trkpt lat="46.3054" lon="4.83602">
        <ele>167.706378</ele>
        <time>2021-05-01T17:37:27.320Z</time>
      </trkpt>
      <trkpt lat="46.30585" lon="4.8364">
        <ele>167.646214</ele>
        <time>2021-05-01T17:37:40.797Z</time>
      </trkpt>
      <trkpt lat="46.30607" lon="4.8366">
        <ele>167.632909</ele>
        <time>2021-05-01T17:37:47.737Z</time>
      </trkpt>
      <trkpt lat="46.30632" lon="4.83671">
        <ele>167.637149</ele>
        <time>2021-05-01T17:37:54.793Z</time>
      </trkpt>
      <trkpt lat="46.30701" lon="4.83698">
        <ele>167.648498</ele>
        <time>2021-05-01T17:38:15.402Z</time>
      </trkpt>
      <trkpt lat="46.30725" lon="4.83708">
        <ele>167.652452</ele>
        <time>2021-05-01T17:38:22.297Z</time>
      </trkpt>
      <trkpt lat="46.30727" lon="4.83703">
        <ele>167.653003</ele>
        <time>2021-05-01T17:38:23.414Z</time>
      </trkpt>
      <trkpt lat="46.30741" lon="4.8371">
        <ele>167.655338</ele>
        <time>2021-05-01T17:38:27.623Z</time>
      </trkpt>
      <trkpt lat="46.30767" lon="4.83721">
        <ele>167.658348</ele>
        <time>2021-05-01T17:38:35.509Z</time>
      </trkpt>
      <trkpt lat="46.30784" lon="4.8373">
        <ele>167.629555</ele>
        <time>2021-05-01T17:38:40.287Z</time>
      </trkpt>
      <trkpt lat="46.30798" lon="4.83736">
        <ele>167.607708</ele>
        <time>2021-05-01T17:38:44.515Z</time>
      </trkpt>
      <trkpt lat="46.309" lon="4.83771">
        <ele>167.446986</ele>
        <time>2021-05-01T17:39:12.284Z</time>
      </trkpt>
      <trkpt lat="46.30907" lon="4.83778">
        <ele>167.433705</ele>
        <time>2021-05-01T17:39:14.869Z</time>
      </trkpt>
      <trkpt lat="46.30909" lon="4.83779">
        <ele>167.431526</ele>
        <time>2021-05-01T17:39:15.154Z</time>
      </trkpt>
      <trkpt lat="46.30919" lon="4.83791">
        <ele>167.410641</ele>
        <time>2021-05-01T17:39:18.889Z</time>
      </trkpt>
      <trkpt lat="46.30961" lon="4.83806">
        <ele>167.352735</ele>
        <time>2021-05-01T17:39:30.693Z</time>
      </trkpt>
      <trkpt lat="46.3098" lon="4.83802">
        <ele>167.328572</ele>
        <time>2021-05-01T17:39:35.915Z</time>
      </trkpt>
      <trkpt lat="46.31135" lon="4.83862">
        <ele>167.188662</ele>
        <time>2021-05-01T17:40:19.378Z</time>
      </trkpt>
      <trkpt lat="46.31277" lon="4.83972">
        <ele>167.413786</ele>
        <time>2021-05-01T17:41:05.255Z</time>
      </trkpt>
      <trkpt lat="46.31304" lon="4.83986">
        <ele>167.606825</ele>
        <time>2021-05-01T17:41:13.693Z</time>
      </trkpt>
      <trkpt lat="46.31306" lon="4.83987">
        <ele>167.623696</ele>
        <time>2021-05-01T17:41:14.439Z</time>
      </trkpt>
      <trkpt lat="46.31336" lon="4.83997">
        <ele>167.838407</ele>
        <time>2021-05-01T17:41:23.977Z</time>
      </trkpt>
      <trkpt lat="46.31346" lon="4.8399">
        <ele>167.911577</ele>
        <time>2021-05-01T17:41:27.310Z</time>
      </trkpt>
      <trkpt lat="46.31359" lon="4.83995">
        <ele>168.00628</ele>
        <time>2021-05-01T17:41:31.692Z</time>
      </trkpt>
      <trkpt lat="46.31386" lon="4.84006">
        <ele>168.199963</ele>
        <time>2021-05-01T17:41:40.532Z</time>
      </trkpt>
      <trkpt lat="46.314" lon="4.84014">
        <ele>168.300907</ele>
        <time>2021-05-01T17:41:45.102Z</time>
      </trkpt>
      <trkpt lat="46.31413" lon="4.84023">
        <ele>168.401816</ele>
        <time>2021-05-01T17:41:49.739Z</time>
      </trkpt>
      <trkpt lat="46.31479" lon="4.84072">
        <ele>168.642959</ele>
        <time>2021-05-01T17:42:12.070Z</time>
      </trkpt>
      <trkpt lat="46.31509" lon="4.84094">
        <ele>168.667953</ele>
        <time>2021-05-01T17:42:22.211Z</time>
      </trkpt>
      <trkpt lat="46.31659" lon="4.84181">
        <ele>168.566481</ele>
        <time>2021-05-01T17:43:02.366Z</time>
      </trkpt>
      <trkpt lat="46.31699" lon="4.84215">
        <ele>168.425995</ele>
        <time>2021-05-01T17:43:13.513Z</time>
      </trkpt>
      <trkpt lat="46.31712" lon="4.84226">
        <ele>168.381416</ele>
        <time>2021-05-01T17:43:16.654Z</time>
      </trkpt>
      <trkpt lat="46.31717" lon="4.84231">
        <ele>168.361379</ele>
        <time>2021-05-01T17:43:18.757Z</time>
      </trkpt>
      <trkpt lat="46.31926" lon="4.84437">
        <ele>169.417669</ele>
        <time>2021-05-01T17:44:31.435Z</time>
      </trkpt>
      <trkpt lat="46.32117" lon="4.84586">
        <ele>171.941572</ele>
        <time>2021-05-01T17:45:46.185Z</time>
      </trkpt>
      <trkpt lat="46.32127" lon="4.84555">
        <ele>172.089081</ele>
        <time>2021-05-01T17:45:53.636Z</time>
      </trkpt>
      <trkpt lat="46.32135" lon="4.84536">
        <ele>172.181468</ele>
        <time>2021-05-01T17:45:57.624Z</time>
      </trkpt>
      <trkpt lat="46.32144" lon="4.8452">
        <ele>172.269292</ele>
        <time>2021-05-01T17:46:02.051Z</time>
      </trkpt>
      <trkpt lat="46.32154" lon="4.84507">
        <ele>172.352141</ele>
        <time>2021-05-01T17:46:05.465Z</time>
      </trkpt>
      <trkpt lat="46.32158" lon="4.84499">
        <ele>172.397669</ele>
        <time>2021-05-01T17:46:07.556Z</time>
      </trkpt>
      <trkpt lat="46.32159" lon="4.84492">
        <ele>172.427475</ele>
        <time>2021-05-01T17:46:08.727Z</time>
      </trkpt>
      <trkpt lat="46.32162" lon="4.84489">
        <ele>172.45267</ele>
        <time>2021-05-01T17:46:09.673Z</time>
      </trkpt>
      <trkpt lat="46.32216" lon="4.84479">
        <ele>172.643823</ele>
        <time>2021-05-01T17:46:25.098Z</time>
      </trkpt>
      <trkpt lat="46.32309" lon="4.84481">
        <ele>172.221554</ele>
        <time>2021-05-01T17:46:47.751Z</time>
      </trkpt>
      <trkpt lat="46.32359" lon="4.84484">
        <ele>171.991295</ele>
        <time>2021-05-01T17:47:01.143Z</time>
      </trkpt>
      <trkpt lat="46.32419" lon="4.84488">
        <ele>171.857369</ele>
        <time>2021-05-01T17:47:17.579Z</time>
      </trkpt>
      <trkpt lat="46.32431" lon="4.84489">
        <ele>171.849196</ele>
        <time>2021-05-01T17:47:20.833Z</time>
      </trkpt>
      <trkpt lat="46.32518" lon="4.84494">
        <ele>171.787363</ele>
        <time>2021-05-01T17:47:45.074Z</time>
      </trkpt>
      <trkpt lat="46.3254" lon="4.84495">
        <ele>171.771666</ele>
        <time>2021-05-01T17:47:51.199Z</time>
      </trkpt>
      <trkpt lat="46.32541" lon="4.84499">
        <ele>171.769595</ele>
        <time>2021-05-01T17:47:51.984Z</time>
      </trkpt>
      <trkpt lat="46.32542" lon="4.84505">
        <ele>171.766186</ele>
        <time>2021-05-01T17:47:53.308Z</time>
      </trkpt>
      <trkpt lat="46.32549" lon="4.84504">
        <ele>171.760788</ele>
        <time>2021-05-01T17:47:55.379Z</time>
      </trkpt>
      <trkpt lat="46.32563" lon="4.84502">
        <ele>171.732641</ele>
        <time>2021-05-01T17:47:59.058Z</time>
      </trkpt>
      <trkpt lat="46.32574" lon="4.845">
        <ele>171.693742</ele>
        <time>2021-05-01T17:48:04.038Z</time>
      </trkpt>
      <trkpt lat="46.32597" lon="4.84589">
        <ele>171.470303</ele>
        <time>2021-05-01T17:48:22.560Z</time>
      </trkpt>
      <trkpt lat="46.32622" lon="4.84676">
        <ele>171.24627</ele>
        <time>2021-05-01T17:48:40.939Z</time>
      </trkpt>
      <trkpt lat="46.32701" lon="4.84806">
        <ele>170.72356</ele>
        <time>2021-05-01T17:49:13.845Z</time>
      </trkpt>
      <trkpt lat="46.32761" lon="4.84865">
        <ele>170.383919</ele>
        <time>2021-05-01T17:49:33.884Z</time>
      </trkpt>
      <trkpt lat="46.32849" lon="4.85025">
        <ele>169.745661</ele>
        <time>2021-05-01T17:50:12.868Z</time>
      </trkpt>
      <trkpt lat="46.32919" lon="4.85052">
        <ele>169.447196</ele>
        <time>2021-05-01T17:50:33.425Z</time>
      </trkpt>
      <trkpt lat="46.33062" lon="4.85079">
        <ele>169.089739</ele>
        <time>2021-05-01T17:51:14.091Z</time>
      </trkpt>
      <trkpt lat="46.33169" lon="4.85088">
        <ele>169.178024</ele>
        <time>2021-05-01T17:51:46.037Z</time>
      </trkpt>
      <trkpt lat="46.33214" lon="4.8509">
        <ele>169.252022</ele>
        <time>2021-05-01T17:51:59.902Z</time>
      </trkpt>
      <trkpt lat="46.33543" lon="4.85051">
        <ele>170.308765</ele>
        <time>2021-05-01T17:53:44.595Z</time>
      </trkpt>
      <trkpt lat="46.33627" lon="4.85054">
        <ele>170.431237</ele>
        <time>2021-05-01T17:54:09.283Z</time>
      </trkpt>
      <trkpt lat="46.33659" lon="4.85065">
        <ele>170.379958</ele>
        <time>2021-05-01T17:54:18.587Z</time>
      </trkpt>
      <trkpt lat="46.3368" lon="4.8506">
        <ele>170.346959</ele>
        <time>2021-05-01T17:54:24.492Z</time>
      </trkpt>
      <trkpt lat="46.33719" lon="4.85064">
        <ele>170.286452</ele>
        <time>2021-05-01T17:54:35.406Z</time>
      </trkpt>
      <trkpt lat="46.33851" lon="4.8508">
        <ele>170.186441</ele>
        <time>2021-05-01T17:55:15.262Z</time>
      </trkpt>
      <trkpt lat="46.33868" lon="4.85082">
        <ele>170.1947</ele>
        <time>2021-05-01T17:55:20.293Z</time>
      </trkpt>
      <trkpt lat="46.33945" lon="4.85077">
        <ele>170.232544</ele>
        <time>2021-05-01T17:55:43.106Z</time>
      </trkpt>
      <trkpt lat="46.33964" lon="4.85068">
        <ele>170.242582</ele>
        <time>2021-05-01T17:55:49.519Z</time>
      </trkpt>
      <trkpt lat="46.34012" lon="4.85077">
        <ele>170.1321</ele>
        <time>2021-05-01T17:56:02.250Z</time>
      </trkpt>
      <trkpt lat="46.34184" lon="4.8511">
        <ele>169.58005</ele>
        <time>2021-05-01T17:56:45.117Z</time>
      </trkpt>
      <trkpt lat="46.34263" lon="4.85118">
        <ele>169.415575</ele>
        <time>2021-05-01T17:57:05.285Z</time>
      </trkpt>
      <trkpt lat="46.3462" lon="4.85099">
        <ele>169.738466</ele>
        <time>2021-05-01T17:58:41.604Z</time>
      </trkpt>
      <trkpt lat="46.34631" lon="4.85099">
        <ele>169.773174</ele>
        <time>2021-05-01T17:58:44.814Z</time>
      </trkpt>
      <trkpt lat="46.34654" lon="4.85099">
        <ele>169.845714</ele>
        <time>2021-05-01T17:58:51.966Z</time>
      </trkpt>
      <trkpt lat="46.34682" lon="4.85098">
        <ele>169.932334</ele>
        <time>2021-05-01T17:59:00.377Z</time>
      </trkpt>
      <trkpt lat="46.34823" lon="4.85059">
        <ele>170.601057</ele>
        <time>2021-05-01T17:59:42.970Z</time>
      </trkpt>
      <trkpt lat="46.34984" lon="4.85037">
        <ele>171.127022</ele>
        <time>2021-05-01T18:00:27.079Z</time>
      </trkpt>
      <trkpt lat="46.35232" lon="4.84979">
        <ele>171.840863</ele>
        <time>2021-05-01T18:01:39.112Z</time>
      </trkpt>
      <trkpt lat="46.35235" lon="4.84978">
        <ele>171.822681</ele>
        <time>2021-05-01T18:01:40.377Z</time>
      </trkpt>
      <trkpt lat="46.35248" lon="4.84974">
        <ele>171.748274</ele>
        <time>2021-05-01T18:01:43.421Z</time>
      </trkpt>
      <trkpt lat="46.35401" lon="4.84977">
        <ele>170.871059</ele>
        <time>2021-05-01T18:02:20.300Z</time>
      </trkpt>
      <trkpt lat="46.35524" lon="4.84995">
        <ele>169.805701</ele>
        <time>2021-05-01T18:02:48.781Z</time>
      </trkpt>
      <trkpt lat="46.35637" lon="4.85034">
        <ele>169.197244</ele>
        <time>2021-05-01T18:03:16.877Z</time>
      </trkpt>
      <trkpt lat="46.35802" lon="4.85126">
        <ele>169.147677</ele>
        <time>2021-05-01T18:04:04.842Z</time>
      </trkpt>
      <trkpt lat="46.35995" lon="4.85261">
        <ele>169.679303</ele>
        <time>2021-05-01T18:05:04.293Z</time>
      </trkpt>
      <trkpt lat="46.36048" lon="4.85284">
        <ele>169.858483</ele>
        <time>2021-05-01T18:05:19.936Z</time>
      </trkpt>
      <trkpt lat="46.36059" lon="4.85286">
        <ele>169.896411</ele>
        <time>2021-05-01T18:05:23.260Z</time>
      </trkpt>
      <trkpt lat="46.36071" lon="4.85284">
        <ele>169.936865</ele>
        <time>2021-05-01T18:05:27.052Z</time>
      </trkpt>
      <trkpt lat="46.36107" lon="4.85298">
        <ele>170.093932</ele>
        <time>2021-05-01T18:05:37.689Z</time>
      </trkpt>
      <trkpt lat="46.36177" lon="4.85324">
        <ele>170.457063</ele>
        <time>2021-05-01T18:05:58.681Z</time>
      </trkpt>
      <trkpt lat="46.36186" lon="4.85321">
        <ele>170.501478</ele>
        <time>2021-05-01T18:06:01.343Z</time>
      </trkpt>
      <trkpt lat="46.36189" lon="4.85325">
        <ele>170.524911</ele>
        <time>2021-05-01T18:06:02.464Z</time>
      </trkpt>
      <trkpt lat="46.36273" lon="4.85354">
        <ele>170.923846</ele>
        <time>2021-05-01T18:06:28.110Z</time>
      </trkpt>
      <trkpt lat="46.36376" lon="4.85402">
        <ele>171.200198</ele>
        <time>2021-05-01T18:06:58.596Z</time>
      </trkpt>
      <trkpt lat="46.36437" lon="4.85443">
        <ele>171.318119</ele>
        <time>2021-05-01T18:07:16.779Z</time>
      </trkpt>
      <trkpt lat="46.36486" lon="4.85478">
        <ele>171.096096</ele>
        <time>2021-05-01T18:07:31.031Z</time>
      </trkpt>
      <trkpt lat="46.36528" lon="4.85512">
        <ele>170.902454</ele>
        <time>2021-05-01T18:07:43.069Z</time>
      </trkpt>
      <trkpt lat="46.36629" lon="4.85598">
        <ele>170.302981</ele>
        <time>2021-05-01T18:08:11.001Z</time>
      </trkpt>
      <trkpt lat="46.36783" lon="4.85708">
        <ele>169.341372</ele>
        <time>2021-05-01T18:08:52.305Z</time>
      </trkpt>
      <trkpt lat="46.36843" lon="4.85747">
        <ele>169.217684</ele>
        <time>2021-05-01T18:09:09.371Z</time>
      </trkpt>
      <trkpt lat="46.36862" lon="4.85765">
        <ele>169.175686</ele>
        <time>2021-05-01T18:09:16.039Z</time>
      </trkpt>
      <trkpt lat="46.36989" lon="4.85859">
        <ele>169.037372</ele>
        <time>2021-05-01T18:09:59.480Z</time>
      </trkpt>
      <trkpt lat="46.37029" lon="4.8589">
        <ele>169.017116</ele>
        <time>2021-05-01T18:10:12.524Z</time>
      </trkpt>
      <trkpt lat="46.37113" lon="4.85955">
        <ele>168.832105</ele>
        <time>2021-05-01T18:10:39.571Z</time>
      </trkpt>
      <trkpt lat="46.37427" lon="4.86255">
        <ele>167.80851</ele>
        <time>2021-05-01T18:12:25.851Z</time>
      </trkpt>
      <trkpt lat="46.37514" lon="4.86332">
        <ele>167.666324</ele>
        <time>2021-05-01T18:12:56.247Z</time>
      </trkpt>
      <trkpt lat="46.37544" lon="4.86351">
        <ele>167.638513</ele>
        <time>2021-05-01T18:13:05.857Z</time>
      </trkpt>
      <trkpt lat="46.37552" lon="4.86361">
        <ele>167.631908</ele>
        <time>2021-05-01T18:13:08.844Z</time>
      </trkpt>
      <trkpt lat="46.37563" lon="4.86368">
        <ele>167.624176</ele>
        <time>2021-05-01T18:13:12.691Z</time>
      </trkpt>
      <trkpt lat="46.37568" lon="4.86378">
        <ele>167.618808</ele>
        <time>2021-05-01T18:13:14.990Z</time>
      </trkpt>
      <trkpt lat="46.37615" lon="4.86423">
        <ele>167.58336</ele>
        <time>2021-05-01T18:13:31.246Z</time>
      </trkpt>
      <trkpt lat="46.37646" lon="4.8646">
        <ele>167.557652</ele>
        <time>2021-05-01T18:13:43.458Z</time>
      </trkpt>
      <trkpt lat="46.37683" lon="4.8649">
        <ele>167.531923</ele>
        <time>2021-05-01T18:13:55.966Z</time>
      </trkpt>
      <trkpt lat="46.37712" lon="4.86511">
        <ele>167.513813</ele>
        <time>2021-05-01T18:14:05.282Z</time>
      </trkpt>
      <trkpt lat="46.37784" lon="4.86563">
        <ele>167.469853</ele>
        <time>2021-05-01T18:14:28.412Z</time>
      </trkpt>
      <trkpt lat="46.38061" lon="4.86814">
        <ele>167.533039</ele>
        <time>2021-05-01T18:16:06.565Z</time>
      </trkpt>
      <trkpt lat="46.38127" lon="4.86878">
        <ele>167.52452</ele>
        <time>2021-05-01T18:16:29.724Z</time>
      </trkpt>
      <trkpt lat="46.38158" lon="4.86917">
        <ele>167.526949</ele>
        <time>2021-05-01T18:16:41.979Z</time>
      </trkpt>
      <trkpt lat="46.38192" lon="4.86955">
        <ele>167.531169</ele>
        <time>2021-05-01T18:16:54.671Z</time>
      </trkpt>
      <trkpt lat="46.38228" lon="4.87">
        <ele>167.535797</ele>
        <time>2021-05-01T18:17:08.695Z</time>
      </trkpt>
      <trkpt lat="46.38351" lon="4.87106">
        <ele>167.597441</ele>
        <time>2021-05-01T18:17:51.740Z</time>
      </trkpt>
      <trkpt lat="46.38497" lon="4.87202">
        <ele>167.699767</ele>
        <time>2021-05-01T18:18:39.720Z</time>
      </trkpt>
      <trkpt lat="46.38546" lon="4.87226">
        <ele>167.732145</ele>
        <time>2021-05-01T18:18:55.055Z</time>
      </trkpt>
      <trkpt lat="46.3855" lon="4.87229">
        <ele>167.735089</ele>
        <time>2021-05-01T18:18:56.456Z</time>
      </trkpt>
      <trkpt lat="46.3857" lon="4.87244">
        <ele>167.749352</ele>
        <time>2021-05-01T18:19:03.248Z</time>
      </trkpt>
      <trkpt lat="46.38603" lon="4.87272">
        <ele>167.773403</ele>
        <time>2021-05-01T18:19:14.768Z</time>
      </trkpt>
      <trkpt lat="46.38757" lon="4.87339">
        <ele>167.870361</ele>
        <time>2021-05-01T18:20:02.878Z</time>
      </trkpt>
      <trkpt lat="46.38808" lon="4.87382">
        <ele>167.830683</ele>
        <time>2021-05-01T18:20:20.434Z</time>
      </trkpt>
      <trkpt lat="46.38856" lon="4.8741">
        <ele>167.775805</ele>
        <time>2021-05-01T18:20:35.304Z</time>
      </trkpt>
      <trkpt lat="46.38924" lon="4.87473">
        <ele>167.688342</ele>
        <time>2021-05-01T18:20:58.670Z</time>
      </trkpt>
      <trkpt lat="46.39026" lon="4.87556">
        <ele>167.505003</ele>
        <time>2021-05-01T18:21:32.653Z</time>
      </trkpt>
      <trkpt lat="46.39132" lon="4.87664">
        <ele>167.348138</ele>
        <time>2021-05-01T18:22:10.258Z</time>
      </trkpt>
      <trkpt lat="46.39155" lon="4.87683">
        <ele>167.325933</ele>
        <time>2021-05-01T18:22:18.034Z</time>
      </trkpt>
      <trkpt lat="46.39169" lon="4.87704">
        <ele>167.309211</ele>
        <time>2021-05-01T18:22:23.808Z</time>
      </trkpt>
      <trkpt lat="46.39208" lon="4.87762">
        <ele>167.26178</ele>
        <time>2021-05-01T18:22:40.386Z</time>
      </trkpt>
      <trkpt lat="46.39235" lon="4.87777">
        <ele>167.247014</ele>
        <time>2021-05-01T18:22:48.740Z</time>
      </trkpt>
      <trkpt lat="46.39404" lon="4.87929">
        <ele>167.269815</ele>
        <time>2021-05-01T18:23:47.430Z</time>
      </trkpt>
      <trkpt lat="46.39488" lon="4.87982">
        <ele>167.431482</ele>
        <time>2021-05-01T18:24:15.299Z</time>
      </trkpt>
      <trkpt lat="46.39605" lon="4.88039">
        <ele>167.68833</ele>
        <time>2021-05-01T18:24:54.571Z</time>
      </trkpt>
      <trkpt lat="46.39674" lon="4.88083">
        <ele>167.861457</ele>
        <time>2021-05-01T18:25:17.797Z</time>
      </trkpt>
      <trkpt lat="46.39694" lon="4.88094">
        <ele>167.91059</ele>
        <time>2021-05-01T18:25:24.172Z</time>
      </trkpt>
      <trkpt lat="46.39844" lon="4.88195">
        <ele>167.805136</ele>
        <time>2021-05-01T18:26:12.132Z</time>
      </trkpt>
      <trkpt lat="46.40042" lon="4.88376">
        <ele>167.705918</ele>
        <time>2021-05-01T18:27:20.812Z</time>
      </trkpt>
      <trkpt lat="46.40153" lon="4.88449">
        <ele>167.919736</ele>
        <time>2021-05-01T18:27:57.851Z</time>
      </trkpt>
      <trkpt lat="46.40215" lon="4.88512">
        <ele>168.02696</ele>
        <time>2021-05-01T18:28:21.308Z</time>
      </trkpt>
      <trkpt lat="46.40309" lon="4.88581">
        <ele>168.148858</ele>
        <time>2021-05-01T18:28:53.305Z</time>
      </trkpt>
      <trkpt lat="46.40343" lon="4.88606">
        <ele>168.181258</ele>
        <time>2021-05-01T18:29:04.593Z</time>
      </trkpt>
      <trkpt lat="46.40378" lon="4.88636">
        <ele>168.163126</ele>
        <time>2021-05-01T18:29:16.581Z</time>
      </trkpt>
      <trkpt lat="46.40444" lon="4.88692">
        <ele>168.128934</ele>
        <time>2021-05-01T18:29:39.093Z</time>
      </trkpt>
      <trkpt lat="46.40482" lon="4.88713">
        <ele>168.111204</ele>
        <time>2021-05-01T18:29:50.750Z</time>
      </trkpt>
      <trkpt lat="46.40544" lon="4.88727">
        <ele>168.148461</ele>
        <time>2021-05-01T18:30:09.429Z</time>
      </trkpt>
      <trkpt lat="46.40562" lon="4.88729">
        <ele>168.165267</ele>
        <time>2021-05-01T18:30:14.889Z</time>
      </trkpt>
      <trkpt lat="46.40606" lon="4.88735">
        <ele>168.205284</ele>
        <time>2021-05-01T18:30:27.961Z</time>
      </trkpt>
      <trkpt lat="46.40628" lon="4.88733">
        <ele>168.226122</ele>
        <time>2021-05-01T18:30:34.827Z</time>
      </trkpt>
      <trkpt lat="46.40706" lon="4.88703">
        <ele>168.388459</ele>
        <time>2021-05-01T18:30:59.609Z</time>
      </trkpt>
      <trkpt lat="46.40839" lon="4.88674">
        <ele>168.868826</ele>
        <time>2021-05-01T18:31:41.643Z</time>
      </trkpt>
      <trkpt lat="46.40891" lon="4.88657">
        <ele>169.135242</ele>
        <time>2021-05-01T18:31:58.911Z</time>
      </trkpt>
      <trkpt lat="46.40917" lon="4.88643">
        <ele>169.288067</ele>
        <time>2021-05-01T18:32:08.134Z</time>
      </trkpt>
      <trkpt lat="46.40965" lon="4.88587">
        <ele>169.632604</ele>
        <time>2021-05-01T18:32:28.438Z</time>
      </trkpt>
      <trkpt lat="46.40979" lon="4.88571">
        <ele>169.729218</ele>
        <time>2021-05-01T18:32:34.025Z</time>
      </trkpt>
      <trkpt lat="46.40988" lon="4.88563">
        <ele>169.788942</ele>
        <time>2021-05-01T18:32:37.281Z</time>
      </trkpt>
      <trkpt lat="46.40998" lon="4.88558">
        <ele>169.847842</ele>
        <time>2021-05-01T18:32:40.771Z</time>
      </trkpt>
      <trkpt lat="46.41007" lon="4.88566">
        <ele>169.903281</ele>
        <time>2021-05-01T18:32:43.869Z</time>
      </trkpt>
      <trkpt lat="46.41032" lon="4.88584">
        <ele>169.941365</ele>
        <time>2021-05-01T18:32:52.773Z</time>
      </trkpt>
      <trkpt lat="46.41148" lon="4.88573">
        <ele>170.091904</ele>
        <time>2021-05-01T18:33:28.179Z</time>
      </trkpt>
      <trkpt lat="46.41203" lon="4.88569">
        <ele>170.088786</ele>
        <time>2021-05-01T18:33:43.860Z</time>
      </trkpt>
      <trkpt lat="46.41424" lon="4.8859">
        <ele>169.568012</ele>
        <time>2021-05-01T18:34:46.721Z</time>
      </trkpt>
      <trkpt lat="46.41696" lon="4.88672">
        <ele>169.232963</ele>
        <time>2021-05-01T18:36:07.724Z</time>
      </trkpt>
      <trkpt lat="46.41707" lon="4.88673">
        <ele>169.223308</ele>
        <time>2021-05-01T18:36:11.084Z</time>
      </trkpt>
      <trkpt lat="46.41713" lon="4.88673">
        <ele>169.21754</ele>
        <time>2021-05-01T18:36:13.041Z</time>
      </trkpt>
      <trkpt lat="46.41731" lon="4.88672">
        <ele>169.212391</ele>
        <time>2021-05-01T18:36:18.280Z</time>
      </trkpt>
      <trkpt lat="46.41737" lon="4.88671">
        <ele>169.211685</ele>
        <time>2021-05-01T18:36:20.106Z</time>
      </trkpt>
      <trkpt lat="46.4174" lon="4.88671">
        <ele>169.211284</ele>
        <time>2021-05-01T18:36:21.142Z</time>
      </trkpt>
      <trkpt lat="46.41743" lon="4.88671">
        <ele>169.210933</ele>
        <time>2021-05-01T18:36:22.041Z</time>
      </trkpt>
      <trkpt lat="46.41747" lon="4.88671">
        <ele>169.210464</ele>
        <time>2021-05-01T18:36:23.217Z</time>
      </trkpt>
      <trkpt lat="46.41795" lon="4.88701">
        <ele>169.204378</ele>
        <time>2021-05-01T18:36:38.583Z</time>
      </trkpt>
      <trkpt lat="46.41923" lon="4.88716">
        <ele>169.173408</ele>
        <time>2021-05-01T18:37:16.400Z</time>
      </trkpt>
      <trkpt lat="46.42474" lon="4.88825">
        <ele>168.883454</ele>
        <time>2021-05-01T18:39:59.419Z</time>
      </trkpt>
      <trkpt lat="46.42517" lon="4.8883">
        <ele>168.915675</ele>
        <time>2021-05-01T18:40:12.754Z</time>
      </trkpt>
      <trkpt lat="46.42551" lon="4.88832">
        <ele>168.940226</ele>
        <time>2021-05-01T18:40:22.892Z</time>
      </trkpt>
      <trkpt lat="46.42841" lon="4.88849">
        <ele>169.309888</ele>
        <time>2021-05-01T18:41:50.854Z</time>
      </trkpt>
      <trkpt lat="46.4287" lon="4.88844">
        <ele>169.352009</ele>
        <time>2021-05-01T18:41:59.810Z</time>
      </trkpt>
      <trkpt lat="46.42905" lon="4.88834">
        <ele>169.402987</ele>
        <time>2021-05-01T18:42:10.647Z</time>
      </trkpt>
      <trkpt lat="46.42954" lon="4.88818">
        <ele>169.474032</ele>
        <time>2021-05-01T18:42:25.770Z</time>
      </trkpt>
      <trkpt lat="46.42963" lon="4.88817">
        <ele>169.486959</ele>
        <time>2021-05-01T18:42:28.525Z</time>
      </trkpt>
      <trkpt lat="46.42978" lon="4.88817">
        <ele>169.485924</ele>
        <time>2021-05-01T18:42:33.276Z</time>
      </trkpt>
      <trkpt lat="46.43053" lon="4.88767">
        <ele>169.469041</ele>
        <time>2021-05-01T18:42:57.699Z</time>
      </trkpt>
      <trkpt lat="46.43071" lon="4.88758">
        <ele>169.465007</ele>
        <time>2021-05-01T18:43:03.477Z</time>
      </trkpt>
      <trkpt lat="46.43095" lon="4.88747">
        <ele>169.459706</ele>
        <time>2021-05-01T18:43:10.150Z</time>
      </trkpt>
      <trkpt lat="46.43161" lon="4.88729">
        <ele>169.434012</ele>
        <time>2021-05-01T18:43:27.382Z</time>
      </trkpt>
      <trkpt lat="46.43225" lon="4.88728">
        <ele>169.392943</ele>
        <time>2021-05-01T18:43:44.134Z</time>
      </trkpt>
      <trkpt lat="46.43249" lon="4.88727">
        <ele>169.377749</ele>
        <time>2021-05-01T18:43:50.340Z</time>
      </trkpt>
      <trkpt lat="46.43423" lon="4.8876">
        <ele>169.445637</ele>
        <time>2021-05-01T18:44:37.450Z</time>
      </trkpt>
      <trkpt lat="46.43453" lon="4.88752">
        <ele>169.475126</ele>
        <time>2021-05-01T18:44:45.816Z</time>
      </trkpt>
      <trkpt lat="46.4346" lon="4.88759">
        <ele>169.482986</ele>
        <time>2021-05-01T18:44:48.048Z</time>
      </trkpt>
      <trkpt lat="46.43466" lon="4.88746">
        <ele>169.493718</ele>
        <time>2021-05-01T18:44:51.458Z</time>
      </trkpt>
      <trkpt lat="46.43497" lon="4.88653">
        <ele>169.612971</ele>
        <time>2021-05-01T18:45:13.172Z</time>
      </trkpt>
      <trkpt lat="46.43595" lon="4.88414">
        <ele>169.935763</ele>
        <time>2021-05-01T18:46:12.058Z</time>
      </trkpt>
      <trkpt lat="46.43601" lon="4.88407">
        <ele>169.944772</ele>
        <time>2021-05-01T18:46:14.417Z</time>
      </trkpt>
      <trkpt lat="46.43624" lon="4.88405">
        <ele>169.970225</ele>
        <time>2021-05-01T18:46:21.099Z</time>
      </trkpt>
      <trkpt lat="46.4387" lon="4.88491">
        <ele>170.369865</ele>
        <time>2021-05-01T18:47:37.186Z</time>
      </trkpt>
      <trkpt lat="46.43877" lon="4.88487">
        <ele>170.384541</ele>
        <time>2021-05-01T18:47:39.800Z</time>
      </trkpt>
      <trkpt lat="46.43883" lon="4.88465">
        <ele>170.450217</ele>
        <time>2021-05-01T18:47:44.948Z</time>
      </trkpt>
      <trkpt lat="46.43896" lon="4.88371">
        <ele>170.781464</ele>
        <time>2021-05-01T18:48:06.553Z</time>
      </trkpt>
      <trkpt lat="46.439" lon="4.88322">
        <ele>170.950416</ele>
        <time>2021-05-01T18:48:17.752Z</time>
      </trkpt>
      <trkpt lat="46.43907" lon="4.88317">
        <ele>170.991368</ele>
        <time>2021-05-01T18:48:20.524Z</time>
      </trkpt>
      <trkpt lat="46.43929" lon="4.88318">
        <ele>171.096858</ele>
        <time>2021-05-01T18:48:27.476Z</time>
      </trkpt>
      <trkpt lat="46.44282" lon="4.88493">
        <ele>172.060685</ele>
        <time>2021-05-01T18:50:23.521Z</time>
      </trkpt>
      <trkpt lat="46.44286" lon="4.88502">
        <ele>172.071026</ele>
        <time>2021-05-01T18:50:25.786Z</time>
      </trkpt>
      <trkpt lat="46.44295" lon="4.88508">
        <ele>172.084236</ele>
        <time>2021-05-01T18:50:28.340Z</time>
      </trkpt>
      <trkpt lat="46.4431" lon="4.88514">
        <ele>172.051131</ele>
        <time>2021-05-01T18:50:32.656Z</time>
      </trkpt>
      <trkpt lat="46.4431" lon="4.88522">
        <ele>172.017488</ele>
        <time>2021-05-01T18:50:34.117Z</time>
      </trkpt>
      <trkpt lat="46.44191" lon="4.88994">
        <ele>169.791428</ele>
        <time>2021-05-01T18:52:07.415Z</time>
      </trkpt>
      <trkpt lat="46.44175" lon="4.89062">
        <ele>169.765485</ele>
        <time>2021-05-01T18:52:21.430Z</time>
      </trkpt>
      <trkpt lat="46.44219" lon="4.89089">
        <ele>169.745379</ele>
        <time>2021-05-01T18:52:35.171Z</time>
      </trkpt>
      <trkpt lat="46.44367" lon="4.89177">
        <ele>169.828519</ele>
        <time>2021-05-01T18:53:24.827Z</time>
      </trkpt>
      <trkpt lat="46.44406" lon="4.89198">
        <ele>169.893311</ele>
        <time>2021-05-01T18:53:37.711Z</time>
      </trkpt>
      <trkpt lat="46.44512" lon="4.89246">
        <ele>169.961253</ele>
        <time>2021-05-01T18:54:07.274Z</time>
      </trkpt>
      <trkpt lat="46.44599" lon="4.89287">
        <ele>169.907739</ele>
        <time>2021-05-01T18:54:31.398Z</time>
      </trkpt>
      <trkpt lat="46.44626" lon="4.89301">
        <ele>169.891433</ele>
        <time>2021-05-01T18:54:38.879Z</time>
      </trkpt>
      <trkpt lat="46.44732" lon="4.89394">
        <ele>169.983582</ele>
        <time>2021-05-01T18:55:11.263Z</time>
      </trkpt>
      <trkpt lat="46.44747" lon="4.89409">
        <ele>169.999392</ele>
        <time>2021-05-01T18:55:16.573Z</time>
      </trkpt>
      <trkpt lat="46.4475" lon="4.89412">
        <ele>170.002667</ele>
        <time>2021-05-01T18:55:17.480Z</time>
      </trkpt>
      <trkpt lat="46.44794" lon="4.89466">
        <ele>170.09414</ele>
        <time>2021-05-01T18:55:33.927Z</time>
      </trkpt>
      <trkpt lat="46.44797" lon="4.89465">
        <ele>170.109126</ele>
        <time>2021-05-01T18:55:34.799Z</time>
      </trkpt>
      <trkpt lat="46.44833" lon="4.89487">
        <ele>170.271669</ele>
        <time>2021-05-01T18:55:46.409Z</time>
      </trkpt>
      <trkpt lat="46.44839" lon="4.89491">
        <ele>170.299025</ele>
        <time>2021-05-01T18:55:48.487Z</time>
      </trkpt>
      <trkpt lat="46.44923" lon="4.89562">
        <ele>170.706577</ele>
        <time>2021-05-01T18:56:17.422Z</time>
      </trkpt>
      <trkpt lat="46.44985" lon="4.89615">
        <ele>170.976734</ele>
        <time>2021-05-01T18:56:39.143Z</time>
      </trkpt>
      <trkpt lat="46.45025" lon="4.89661">
        <ele>171.158854</ele>
        <time>2021-05-01T18:56:54.653Z</time>
      </trkpt>
      <trkpt lat="46.45065" lon="4.89704">
        <ele>171.334998</ele>
        <time>2021-05-01T18:57:09.052Z</time>
      </trkpt>
      <trkpt lat="46.45087" lon="4.89731">
        <ele>171.43483</ele>
        <time>2021-05-01T18:57:17.674Z</time>
      </trkpt>
      <trkpt lat="46.45136" lon="4.89793">
        <ele>171.451506</ele>
        <time>2021-05-01T18:57:35.686Z</time>
      </trkpt>
      <trkpt lat="46.45164" lon="4.89836">
        <ele>171.462006</ele>
        <time>2021-05-01T18:57:46.717Z</time>
      </trkpt>
      <trkpt lat="46.45201" lon="4.89903">
        <ele>171.477306</ele>
        <time>2021-05-01T18:58:03.574Z</time>
      </trkpt>
      <trkpt lat="46.4523" lon="4.89949">
        <ele>171.439308</ele>
        <time>2021-05-01T18:58:16.234Z</time>
      </trkpt>
      <trkpt lat="46.45422" lon="4.90229">
        <ele>170.951963</ele>
        <time>2021-05-01T18:59:34.797Z</time>
      </trkpt>
      <trkpt lat="46.45497" lon="4.90326">
        <ele>170.697217</ele>
        <time>2021-05-01T19:00:03.092Z</time>
      </trkpt>
      <trkpt lat="46.45677" lon="4.90672">
        <ele>169.829994</ele>
        <time>2021-05-01T19:01:28.201Z</time>
      </trkpt>
      <trkpt lat="46.45745" lon="4.9078">
        <ele>169.598576</ele>
        <time>2021-05-01T19:01:56.804Z</time>
      </trkpt>
      <trkpt lat="46.45773" lon="4.90815">
        <ele>169.519022</ele>
        <time>2021-05-01T19:02:07.257Z</time>
      </trkpt>
      <trkpt lat="46.45839" lon="4.9089">
        <ele>169.393254</ele>
        <time>2021-05-01T19:02:31.571Z</time>
      </trkpt>
      <trkpt lat="46.45885" lon="4.90966">
        <ele>169.423878</ele>
        <time>2021-05-01T19:02:51.844Z</time>
      </trkpt>
      <trkpt lat="46.46015" lon="4.91112">
        <ele>169.736657</ele>
        <time>2021-05-01T19:03:42.586Z</time>
      </trkpt>
      <trkpt lat="46.46121" lon="4.91191">
        <ele>170.161134</ele>
        <time>2021-05-01T19:04:20.586Z</time>
      </trkpt>
      <trkpt lat="46.46232" lon="4.91252">
        <ele>170.561701</ele>
        <time>2021-05-01T19:04:58.446Z</time>
      </trkpt>
      <trkpt lat="46.46366" lon="4.91297">
        <ele>170.714137</ele>
        <time>2021-05-01T19:05:39.663Z</time>
      </trkpt>
      <trkpt lat="46.46414" lon="4.91301">
        <ele>170.71438</ele>
        <time>2021-05-01T19:05:53.560Z</time>
      </trkpt>
      <trkpt lat="46.46445" lon="4.91301">
        <ele>170.714535</ele>
        <time>2021-05-01T19:06:02.552Z</time>
      </trkpt>
      <trkpt lat="46.46462" lon="4.91307">
        <ele>170.724089</ele>
        <time>2021-05-01T19:06:07.357Z</time>
      </trkpt>
      <trkpt lat="46.46532" lon="4.9133">
        <ele>170.809276</ele>
        <time>2021-05-01T19:06:28.741Z</time>
      </trkpt>
      <trkpt lat="46.4656" lon="4.91332">
        <ele>170.842707</ele>
        <time>2021-05-01T19:06:37.351Z</time>
      </trkpt>
      <trkpt lat="46.46645" lon="4.91371">
        <ele>170.921229</ele>
        <time>2021-05-01T19:07:05.009Z</time>
      </trkpt>
      <trkpt lat="46.46665" lon="4.91375">
        <ele>170.914651</ele>
        <time>2021-05-01T19:07:11.500Z</time>
      </trkpt>
      <trkpt lat="46.46698" lon="4.91368">
        <ele>170.904087</ele>
        <time>2021-05-01T19:07:21.176Z</time>
      </trkpt>
      <trkpt lat="46.46732" lon="4.9138">
        <ele>170.892733</ele>
        <time>2021-05-01T19:07:31.574Z</time>
      </trkpt>
      <trkpt lat="46.46736" lon="4.91384">
        <ele>170.891138</ele>
        <time>2021-05-01T19:07:33.465Z</time>
      </trkpt>
      <trkpt lat="46.46761" lon="4.91403">
        <ele>170.882139</ele>
        <time>2021-05-01T19:07:41.244Z</time>
      </trkpt>
      <trkpt lat="46.46794" lon="4.91416">
        <ele>170.871193</ele>
        <time>2021-05-01T19:07:51.040Z</time>
      </trkpt>
      <trkpt lat="46.46842" lon="4.91421">
        <ele>170.734025</ele>
        <time>2021-05-01T19:08:04.666Z</time>
      </trkpt>
      <trkpt lat="46.46851" lon="4.91422">
        <ele>170.704464</ele>
        <time>2021-05-01T19:08:06.920Z</time>
      </trkpt>
      <trkpt lat="46.4686" lon="4.91421">
        <ele>170.674354</ele>
        <time>2021-05-01T19:08:10.705Z</time>
      </trkpt>
      <trkpt lat="46.46931" lon="4.91413">
        <ele>170.440969</ele>
        <time>2021-05-01T19:08:40.904Z</time>
      </trkpt>
      <trkpt lat="46.46975" lon="4.91412">
        <ele>170.296494</ele>
        <time>2021-05-01T19:08:59.969Z</time>
      </trkpt>
      <trkpt lat="46.46988" lon="4.91413">
        <ele>170.292089</ele>
        <time>2021-05-01T19:09:03.783Z</time>
      </trkpt>
      <trkpt lat="46.47081" lon="4.91408">
        <ele>170.415356</ele>
        <time>2021-05-01T19:09:32.319Z</time>
      </trkpt>
      <trkpt lat="46.47221" lon="4.91416">
        <ele>170.57352</ele>
        <time>2021-05-01T19:10:15.543Z</time>
      </trkpt>
      <trkpt lat="46.47364" lon="4.91415">
        <ele>170.650451</ele>
        <time>2021-05-01T19:10:57.665Z</time>
      </trkpt>
      <trkpt lat="46.47542" lon="4.91379">
        <ele>170.474649</ele>
        <time>2021-05-01T19:11:49.581Z</time>
      </trkpt>
      <trkpt lat="46.47647" lon="4.91334">
        <ele>170.537655</ele>
        <time>2021-05-01T19:12:22.376Z</time>
      </trkpt>
      <trkpt lat="46.47714" lon="4.91328">
        <ele>170.665232</ele>
        <time>2021-05-01T19:12:42.791Z</time>
      </trkpt>
      <trkpt lat="46.47791" lon="4.91297">
        <ele>171.057624</ele>
        <time>2021-05-01T19:13:08.149Z</time>
      </trkpt>
      <trkpt lat="46.4784" lon="4.91286">
        <ele>171.301562</ele>
        <time>2021-05-01T19:13:24.271Z</time>
      </trkpt>
      <trkpt lat="46.4811" lon="4.91256">
        <ele>172.920143</ele>
        <time>2021-05-01T19:14:54.630Z</time>
      </trkpt>
      <trkpt lat="46.48242" lon="4.91265">
        <ele>173.075687</ele>
        <time>2021-05-01T19:15:33.631Z</time>
      </trkpt>
      <trkpt lat="46.48288" lon="4.91257">
        <ele>172.847796</ele>
        <time>2021-05-01T19:15:46.188Z</time>
      </trkpt>
      <trkpt lat="46.48298" lon="4.91255">
        <ele>172.796243</ele>
        <time>2021-05-01T19:15:48.873Z</time>
      </trkpt>
      <trkpt lat="46.48305" lon="4.91254">
        <ele>172.76168</ele>
        <time>2021-05-01T19:15:50.782Z</time>
      </trkpt>
      <trkpt lat="46.48338" lon="4.91255">
        <ele>172.594521</ele>
        <time>2021-05-01T19:15:59.833Z</time>
      </trkpt>
      <trkpt lat="46.4844" lon="4.91255">
        <ele>172.212461</ele>
        <time>2021-05-01T19:16:27.330Z</time>
      </trkpt>
      <trkpt lat="46.48585" lon="4.91228">
        <ele>172.048846</ele>
        <time>2021-05-01T19:17:10.702Z</time>
      </trkpt>
      <trkpt lat="46.48639" lon="4.91226">
        <ele>172.161351</ele>
        <time>2021-05-01T19:17:27.637Z</time>
      </trkpt>
      <trkpt lat="46.48762" lon="4.91253">
        <ele>172.425678</ele>
        <time>2021-05-01T19:18:05.924Z</time>
      </trkpt>
      <trkpt lat="46.48769" lon="4.91246">
        <ele>172.428118</ele>
        <time>2021-05-01T19:18:08.677Z</time>
      </trkpt>
      <trkpt lat="46.48904" lon="4.91294">
        <ele>172.339699</ele>
        <time>2021-05-01T19:18:47.305Z</time>
      </trkpt>
      <trkpt lat="46.48982" lon="4.91338">
        <ele>171.957925</ele>
        <time>2021-05-01T19:19:08.918Z</time>
      </trkpt>
      <trkpt lat="46.49082" lon="4.91431">
        <ele>171.080774</ele>
        <time>2021-05-01T19:19:38.034Z</time>
      </trkpt>
      <trkpt lat="46.4909" lon="4.9144">
        <ele>171.005395</ele>
        <time>2021-05-01T19:19:40.402Z</time>
      </trkpt>
      <trkpt lat="46.49098" lon="4.91454">
        <ele>170.929586</ele>
        <time>2021-05-01T19:19:43.797Z</time>
      </trkpt>
      <trkpt lat="46.49112" lon="4.91478">
        <ele>170.805906</ele>
        <time>2021-05-01T19:19:49.435Z</time>
      </trkpt>
      <trkpt lat="46.49124" lon="4.91505">
        <ele>170.679521</ele>
        <time>2021-05-01T19:19:55.435Z</time>
      </trkpt>
      <trkpt lat="46.49137" lon="4.91537">
        <ele>170.532577</ele>
        <time>2021-05-01T19:20:02.240Z</time>
      </trkpt>
      <trkpt lat="46.49142" lon="4.91549">
        <ele>170.475727</ele>
        <time>2021-05-01T19:20:05.002Z</time>
      </trkpt>
      <trkpt lat="46.49213" lon="4.91697">
        <ele>169.992022</ele>
        <time>2021-05-01T19:20:40.105Z</time>
      </trkpt>
      <trkpt lat="46.494" lon="4.91951">
        <ele>170.241058</ele>
        <time>2021-05-01T19:21:58.693Z</time>
      </trkpt>
      <trkpt lat="46.49599" lon="4.92285">
        <ele>169.964702</ele>
        <time>2021-05-01T19:23:27.393Z</time>
      </trkpt>
      <trkpt lat="46.49672" lon="4.92378">
        <ele>169.786154</ele>
        <time>2021-05-01T19:23:54.755Z</time>
      </trkpt>
      <trkpt lat="46.4975" lon="4.92445">
        <ele>169.841038</ele>
        <time>2021-05-01T19:24:21.367Z</time>
      </trkpt>
      <trkpt lat="46.4977" lon="4.92457">
        <ele>169.879799</ele>
        <time>2021-05-01T19:24:27.896Z</time>
      </trkpt>
      <trkpt lat="46.49794" lon="4.92471">
        <ele>169.925171</ele>
        <time>2021-05-01T19:24:35.420Z</time>
      </trkpt>
      <trkpt lat="46.50005" lon="4.92587">
        <ele>170.540527</ele>
        <time>2021-05-01T19:25:42.290Z</time>
      </trkpt>
      <trkpt lat="46.50073" lon="4.92608">
        <ele>170.749646</ele>
        <time>2021-05-01T19:26:02.103Z</time>
      </trkpt>
      <trkpt lat="46.50216" lon="4.92617">
        <ele>171.160793</ele>
        <time>2021-05-01T19:26:43.846Z</time>
      </trkpt>
      <trkpt lat="46.50273" lon="4.92642">
        <ele>171.26488</ele>
        <time>2021-05-01T19:27:02.171Z</time>
      </trkpt>
      <trkpt lat="46.50333" lon="4.92679">
        <ele>171.380003</ele>
        <time>2021-05-01T19:27:21.116Z</time>
      </trkpt>
      <trkpt lat="46.50366" lon="4.92689">
        <ele>171.439849</ele>
        <time>2021-05-01T19:27:29.999Z</time>
      </trkpt>
      <trkpt lat="46.50376" lon="4.92696">
        <ele>171.458915</ele>
        <time>2021-05-01T19:27:33.388Z</time>
      </trkpt>
      <trkpt lat="46.50394" lon="4.92714">
        <ele>171.349871</ele>
        <time>2021-05-01T19:27:38.542Z</time>
      </trkpt>
      <trkpt lat="46.50399" lon="4.92718">
        <ele>171.313535</ele>
        <time>2021-05-01T19:27:40.228Z</time>
      </trkpt>
      <trkpt lat="46.50406" lon="4.92719">
        <ele>171.270565</ele>
        <time>2021-05-01T19:27:42.537Z</time>
      </trkpt>
      <trkpt lat="46.50415" lon="4.92717">
        <ele>171.213802</ele>
        <time>2021-05-01T19:27:44.850Z</time>
      </trkpt>
      <trkpt lat="46.50419" lon="4.92723">
        <ele>171.17684</ele>
        <time>2021-05-01T19:27:46.145Z</time>
      </trkpt>
      <trkpt lat="46.50475" lon="4.92762">
        <ele>170.79989</ele>
        <time>2021-05-01T19:28:02.533Z</time>
      </trkpt>
      <trkpt lat="46.50478" lon="4.92766">
        <ele>170.779964</ele>
        <time>2021-05-01T19:28:03.208Z</time>
      </trkpt>
      <trkpt lat="46.50485" lon="4.92776">
        <ele>170.719327</ele>
        <time>2021-05-01T19:28:05.432Z</time>
      </trkpt>
      <trkpt lat="46.5052" lon="4.92798">
        <ele>170.488853</ele>
        <time>2021-05-01T19:28:14.852Z</time>
      </trkpt>
      <trkpt lat="46.50525" lon="4.92798">
        <ele>170.454804</ele>
        <time>2021-05-01T19:28:16.160Z</time>
      </trkpt>
      <trkpt lat="46.50529" lon="4.92799">
        <ele>170.428638</ele>
        <time>2021-05-01T19:28:17.579Z</time>
      </trkpt>
      <trkpt lat="46.50695" lon="4.92859">
        <ele>169.592375</ele>
        <time>2021-05-01T19:29:01.175Z</time>
      </trkpt>
      <trkpt lat="46.50749" lon="4.92873">
        <ele>169.547263</ele>
        <time>2021-05-01T19:29:16.363Z</time>
      </trkpt>
      <trkpt lat="46.50781" lon="4.92881">
        <ele>169.586966</ele>
        <time>2021-05-01T19:29:25.752Z</time>
      </trkpt>
      <trkpt lat="46.50805" lon="4.92893">
        <ele>169.61669</ele>
        <time>2021-05-01T19:29:32.620Z</time>
      </trkpt>
      <trkpt lat="46.50856" lon="4.92901">
        <ele>169.678263</ele>
        <time>2021-05-01T19:29:46.891Z</time>
      </trkpt>
      <trkpt lat="46.50977" lon="4.92953">
        <ele>169.88299</ele>
        <time>2021-05-01T19:30:22.391Z</time>
      </trkpt>
      <trkpt lat="46.51024" lon="4.92976">
        <ele>169.970855</ele>
        <time>2021-05-01T19:30:36.016Z</time>
      </trkpt>
      <trkpt lat="46.51123" lon="4.93042">
        <ele>169.876486</ele>
        <time>2021-05-01T19:31:04.599Z</time>
      </trkpt>
      <trkpt lat="46.51203" lon="4.93106">
        <ele>169.6654</ele>
        <time>2021-05-01T19:31:27.556Z</time>
      </trkpt>
      <trkpt lat="46.51342" lon="4.93237">
        <ele>169.649058</ele>
        <time>2021-05-01T19:32:10.479Z</time>
      </trkpt>
      <trkpt lat="46.51561" lon="4.93475">
        <ele>170.902789</ele>
        <time>2021-05-01T19:33:31.313Z</time>
      </trkpt>
      <trkpt lat="46.51634" lon="4.9354">
        <ele>171.271499</ele>
        <time>2021-05-01T19:33:56.561Z</time>
      </trkpt>
      <trkpt lat="46.5174" lon="4.93612">
        <ele>171.233055</ele>
        <time>2021-05-01T19:34:27.428Z</time>
      </trkpt>
      <trkpt lat="46.51832" lon="4.93653">
        <ele>171.028939</ele>
        <time>2021-05-01T19:34:51.467Z</time>
      </trkpt>
      <trkpt lat="46.51933" lon="4.93684">
        <ele>170.888079</ele>
        <time>2021-05-01T19:35:17.499Z</time>
      </trkpt>
      <trkpt lat="46.52046" lon="4.93707">
        <ele>170.822656</ele>
        <time>2021-05-01T19:35:48.551Z</time>
      </trkpt>
      <trkpt lat="46.5212" lon="4.93695">
        <ele>170.902492</ele>
        <time>2021-05-01T19:36:09.446Z</time>
      </trkpt>
      <trkpt lat="46.52231" lon="4.9369">
        <ele>171.198837</ele>
        <time>2021-05-01T19:36:38.663Z</time>
      </trkpt>
      <trkpt lat="46.52299" lon="4.93679">
        <ele>171.552643</ele>
        <time>2021-05-01T19:36:58.972Z</time>
      </trkpt>
      <trkpt lat="46.52334" lon="4.93665">
        <ele>171.738308</ele>
        <time>2021-05-01T19:37:10.524Z</time>
      </trkpt>
      <trkpt lat="46.52359" lon="4.93649">
        <ele>171.880886</ele>
        <time>2021-05-01T19:37:19.165Z</time>
      </trkpt>
      <trkpt lat="46.52362" lon="4.93584">
        <ele>171.982154</ele>
        <time>2021-05-01T19:37:36.468Z</time>
      </trkpt>
      <trkpt lat="46.52364" lon="4.93541">
        <ele>172.040506</ele>
        <time>2021-05-01T19:37:46.930Z</time>
      </trkpt>
      <trkpt lat="46.52413" lon="4.93544">
        <ele>172.13864</ele>
        <time>2021-05-01T19:38:00.402Z</time>
      </trkpt>
      <trkpt lat="46.52416" lon="4.93544">
        <ele>172.143217</ele>
        <time>2021-05-01T19:38:01.526Z</time>
      </trkpt>
      <trkpt lat="46.52413" lon="4.93544">
        <ele>172.147795</ele>
        <time>2021-05-01T19:38:01.974Z</time>
      </trkpt>
      <trkpt lat="46.52364" lon="4.93541">
        <ele>172.245928</ele>
        <time>2021-05-01T19:38:16.082Z</time>
      </trkpt>
      <trkpt lat="46.52362" lon="4.93584">
        <ele>172.162723</ele>
        <time>2021-05-01T19:38:26.300Z</time>
      </trkpt>
      <trkpt lat="46.52359" lon="4.93649">
        <ele>171.976017</ele>
        <time>2021-05-01T19:38:40.747Z</time>
      </trkpt>
      <trkpt lat="46.52384" lon="4.9364">
        <ele>171.871123</ele>
        <time>2021-05-01T19:38:46.681Z</time>
      </trkpt>
      <trkpt lat="46.5247" lon="4.93626">
        <ele>171.508823</ele>
        <time>2021-05-01T19:39:07.520Z</time>
      </trkpt>
      <trkpt lat="46.52541" lon="4.93602">
        <ele>172.063897</ele>
        <time>2021-05-01T19:39:29.200Z</time>
      </trkpt>
      <trkpt lat="46.52546" lon="4.93602">
        <ele>172.102975</ele>
        <time>2021-05-01T19:39:30.664Z</time>
      </trkpt>
      <trkpt lat="46.52566" lon="4.93601">
        <ele>172.254584</ele>
        <time>2021-05-01T19:39:36.957Z</time>
      </trkpt>
      <trkpt lat="46.52647" lon="4.93572">
        <ele>172.902475</ele>
        <time>2021-05-01T19:40:03.610Z</time>
      </trkpt>
      <trkpt lat="46.52777" lon="4.93506">
        <ele>174.904501</ele>
        <time>2021-05-01T19:40:50.583Z</time>
      </trkpt>
      <trkpt lat="46.52796" lon="4.93489">
        <ele>175.223942</ele>
        <time>2021-05-01T19:40:58.287Z</time>
      </trkpt>
      <trkpt lat="46.5285" lon="4.93451">
        <ele>175.856784</ele>
        <time>2021-05-01T19:41:18.267Z</time>
      </trkpt>
      <trkpt lat="46.52925" lon="4.9339">
        <ele>176.595602</ele>
        <time>2021-05-01T19:41:46.403Z</time>
      </trkpt>
      <trkpt lat="46.53069" lon="4.9325">
        <ele>176.418545</ele>
        <time>2021-05-01T19:42:31.524Z</time>
      </trkpt>
      <trkpt lat="46.53107" lon="4.93218">
        <ele>176.190357</ele>
        <time>2021-05-01T19:42:41.498Z</time>
      </trkpt>
      <trkpt lat="46.53276" lon="4.93097">
        <ele>173.882181</ele>
        <time>2021-05-01T19:43:23.075Z</time>
      </trkpt>
      <trkpt lat="46.53333" lon="4.93046">
        <ele>173.489929</ele>
        <time>2021-05-01T19:43:39.038Z</time>
      </trkpt>
      <trkpt lat="46.53458" lon="4.92952">
        <ele>172.869438</ele>
        <time>2021-05-01T19:44:14.636Z</time>
      </trkpt>
      <trkpt lat="46.53643" lon="4.92843">
        <ele>172.631137</ele>
        <time>2021-05-01T19:45:07.561Z</time>
      </trkpt>
      <trkpt lat="46.53782" lon="4.92766">
        <ele>172.329593</ele>
        <time>2021-05-01T19:45:45.939Z</time>
      </trkpt>
      <trkpt lat="46.53788" lon="4.92762">
        <ele>172.310351</ele>
        <time>2021-05-01T19:45:47.397Z</time>
      </trkpt>
      <trkpt lat="46.53893" lon="4.92698">
        <ele>171.957185</ele>
        <time>2021-05-01T19:46:16.433Z</time>
      </trkpt>
      <trkpt lat="46.54081" lon="4.92622">
        <ele>171.610048</ele>
        <time>2021-05-01T19:47:06.464Z</time>
      </trkpt>
      <trkpt lat="46.54257" lon="4.92534">
        <ele>171.799934</ele>
        <time>2021-05-01T19:47:57.151Z</time>
      </trkpt>
      <trkpt lat="46.54327" lon="4.92491">
        <ele>172.049265</ele>
        <time>2021-05-01T19:48:18.822Z</time>
      </trkpt>
      <trkpt lat="46.54369" lon="4.92464">
        <ele>172.248849</ele>
        <time>2021-05-01T19:48:32.336Z</time>
      </trkpt>
      <trkpt lat="46.54381" lon="4.92467">
        <ele>172.300363</ele>
        <time>2021-05-01T19:48:35.814Z</time>
      </trkpt>
      <trkpt lat="46.54469" lon="4.92417">
        <ele>172.635825</ele>
        <time>2021-05-01T19:49:04.258Z</time>
      </trkpt>
      <trkpt lat="46.5458" lon="4.9233">
        <ele>172.743268</ele>
        <time>2021-05-01T19:49:39.508Z</time>
      </trkpt>
      <trkpt lat="46.54718" lon="4.92245">
        <ele>172.77837</ele>
        <time>2021-05-01T19:50:20.685Z</time>
      </trkpt>
      <trkpt lat="46.54753" lon="4.92211">
        <ele>172.780753</ele>
        <time>2021-05-01T19:50:32.503Z</time>
      </trkpt>
      <trkpt lat="46.54769" lon="4.92199">
        <ele>172.781751</ele>
        <time>2021-05-01T19:50:36.884Z</time>
      </trkpt>
      <trkpt lat="46.54779" lon="4.92188">
        <ele>172.792708</ele>
        <time>2021-05-01T19:50:41.456Z</time>
      </trkpt>
      <trkpt lat="46.54838" lon="4.92126">
        <ele>172.877256</ele>
        <time>2021-05-01T19:51:02.758Z</time>
      </trkpt>
      <trkpt lat="46.54885" lon="4.92094">
        <ele>172.937643</ele>
        <time>2021-05-01T19:51:17.208Z</time>
      </trkpt>
      <trkpt lat="46.54957" lon="4.92055">
        <ele>172.978107</ele>
        <time>2021-05-01T19:51:38.661Z</time>
      </trkpt>
      <trkpt lat="46.55055" lon="4.92018">
        <ele>172.937493</ele>
        <time>2021-05-01T19:52:06.586Z</time>
      </trkpt>
      <trkpt lat="46.55072" lon="4.9201">
        <ele>172.930488</ele>
        <time>2021-05-01T19:52:11.245Z</time>
      </trkpt>
      <trkpt lat="46.55125" lon="4.91992">
        <ele>172.946172</ele>
        <time>2021-05-01T19:52:26.273Z</time>
      </trkpt>
      <trkpt lat="46.55208" lon="4.91954">
        <ele>173.043249</ele>
        <time>2021-05-01T19:52:50.990Z</time>
      </trkpt>
      <trkpt lat="46.55423" lon="4.91837">
        <ele>173.202541</ele>
        <time>2021-05-01T19:53:56.660Z</time>
      </trkpt>
      <trkpt lat="46.55443" lon="4.91828">
        <ele>173.199151</ele>
        <time>2021-05-01T19:54:02.336Z</time>
      </trkpt>
      <trkpt lat="46.55455" lon="4.91822">
        <ele>173.142616</ele>
        <time>2021-05-01T19:54:05.478Z</time>
      </trkpt>
      <trkpt lat="46.55496" lon="4.91801">
        <ele>172.951119</ele>
        <time>2021-05-01T19:54:16.835Z</time>
      </trkpt>
      <trkpt lat="46.55514" lon="4.91793">
        <ele>172.871426</ele>
        <time>2021-05-01T19:54:21.548Z</time>
      </trkpt>
      <trkpt lat="46.5552" lon="4.91791">
        <ele>172.842344</ele>
        <time>2021-05-01T19:54:23.062Z</time>
      </trkpt>
      <trkpt lat="46.55544" lon="4.91778">
        <ele>172.730321</ele>
        <time>2021-05-01T19:54:30.049Z</time>
      </trkpt>
      <trkpt lat="46.55551" lon="4.91777">
        <ele>172.697854</ele>
        <time>2021-05-01T19:54:31.715Z</time>
      </trkpt>
      <trkpt lat="46.5559" lon="4.9176">
        <ele>172.517444</ele>
        <time>2021-05-01T19:54:42.336Z</time>
      </trkpt>
      <trkpt lat="46.55624" lon="4.91754">
        <ele>172.45964</ele>
        <time>2021-05-01T19:54:50.786Z</time>
      </trkpt>
      <trkpt lat="46.55698" lon="4.91732">
        <ele>172.733393</ele>
        <time>2021-05-01T19:55:11.213Z</time>
      </trkpt>
      <trkpt lat="46.5578" lon="4.91689">
        <ele>173.046674</ele>
        <time>2021-05-01T19:55:39.777Z</time>
      </trkpt>
      <trkpt lat="46.55834" lon="4.91658">
        <ele>173.28181</ele>
        <time>2021-05-01T19:55:58.579Z</time>
      </trkpt>
      <trkpt lat="46.55877" lon="4.91631">
        <ele>173.472228</ele>
        <time>2021-05-01T19:56:11.623Z</time>
      </trkpt>
      <trkpt lat="46.55957" lon="4.91579">
        <ele>173.848112</ele>
        <time>2021-05-01T19:56:35.105Z</time>
      </trkpt>
      <trkpt lat="46.55995" lon="4.91555">
        <ele>174.144689</ele>
        <time>2021-05-01T19:56:47.148Z</time>
      </trkpt>
      <trkpt lat="46.56" lon="4.91552">
        <ele>174.184413</ele>
        <time>2021-05-01T19:56:48.468Z</time>
      </trkpt>
      <trkpt lat="46.56004" lon="4.91549">
        <ele>174.218554</ele>
        <time>2021-05-01T19:56:49.969Z</time>
      </trkpt>
      <trkpt lat="46.56007" lon="4.91547">
        <ele>174.236806</ele>
        <time>2021-05-01T19:56:50.772Z</time>
      </trkpt>
      <trkpt lat="46.5601" lon="4.91544">
        <ele>174.26558</ele>
        <time>2021-05-01T19:56:52.001Z</time>
      </trkpt>
      <trkpt lat="46.56014" lon="4.91542">
        <ele>174.296716</ele>
        <time>2021-05-01T19:56:53.261Z</time>
      </trkpt>
      <trkpt lat="46.56022" lon="4.91534">
        <ele>174.363059</ele>
        <time>2021-05-01T19:56:56.161Z</time>
      </trkpt>
      <trkpt lat="46.56087" lon="4.91462">
        <ele>174.947402</ele>
        <time>2021-05-01T19:57:21.131Z</time>
      </trkpt>
      <trkpt lat="46.56115" lon="4.91431">
        <ele>175.271276</ele>
        <time>2021-05-01T19:57:32.085Z</time>
      </trkpt>
      <trkpt lat="46.56141" lon="4.91405">
        <ele>175.645796</ele>
        <time>2021-05-01T19:57:42.810Z</time>
      </trkpt>
      <trkpt lat="46.56144" lon="4.91402">
        <ele>175.690539</ele>
        <time>2021-05-01T19:57:44.119Z</time>
      </trkpt>
      <trkpt lat="46.56171" lon="4.91377">
        <ele>176.065693</ele>
        <time>2021-05-01T19:57:55.671Z</time>
      </trkpt>
      <trkpt lat="46.56199" lon="4.91354">
        <ele>176.44197</ele>
        <time>2021-05-01T19:58:06.915Z</time>
      </trkpt>
      <trkpt lat="46.56205" lon="4.9135">
        <ele>176.517554</ele>
        <time>2021-05-01T19:58:09.022Z</time>
      </trkpt>
      <trkpt lat="46.56209" lon="4.91346">
        <ele>176.582569</ele>
        <time>2021-05-01T19:58:10.766Z</time>
      </trkpt>
      <trkpt lat="46.56236" lon="4.91324">
        <ele>176.939974</ele>
        <time>2021-05-01T19:58:21.057Z</time>
      </trkpt>
      <trkpt lat="46.56239" lon="4.91322">
        <ele>176.976345</ele>
        <time>2021-05-01T19:58:21.980Z</time>
      </trkpt>
      <trkpt lat="46.56241" lon="4.9132">
        <ele>177.010274</ele>
        <time>2021-05-01T19:58:22.869Z</time>
      </trkpt>
      <trkpt lat="46.56245" lon="4.91316">
        <ele>177.062899</ele>
        <time>2021-05-01T19:58:24.337Z</time>
      </trkpt>
      <trkpt lat="46.56306" lon="4.91266">
        <ele>176.660409</ele>
        <time>2021-05-01T19:58:42.340Z</time>
      </trkpt>
      <trkpt lat="46.56319" lon="4.91257">
        <ele>176.525246</ele>
        <time>2021-05-01T19:58:45.749Z</time>
      </trkpt>
      <trkpt lat="46.56334" lon="4.91246">
        <ele>176.364953</ele>
        <time>2021-05-01T19:58:49.465Z</time>
      </trkpt>
      <trkpt lat="46.56394" lon="4.91214">
        <ele>175.770145</ele>
        <time>2021-05-01T19:59:03.259Z</time>
      </trkpt>
      <trkpt lat="46.564" lon="4.91211">
        <ele>175.713043</ele>
        <time>2021-05-01T19:59:04.479Z</time>
      </trkpt>
      <trkpt lat="46.56401" lon="4.91215">
        <ele>175.682587</ele>
        <time>2021-05-01T19:59:05.141Z</time>
      </trkpt>
      <trkpt lat="46.56402" lon="4.91218">
        <ele>175.661635</ele>
        <time>2021-05-01T19:59:05.668Z</time>
      </trkpt>
      <trkpt lat="46.5646" lon="4.91405">
        <ele>174.248233</ele>
        <time>2021-05-01T19:59:37.868Z</time>
      </trkpt>
      <trkpt lat="46.56462" lon="4.91413">
        <ele>174.184989</ele>
        <time>2021-05-01T19:59:39.446Z</time>
      </trkpt>
      <trkpt lat="46.56463" lon="4.91429">
        <ele>174.072868</ele>
        <time>2021-05-01T19:59:41.789Z</time>
      </trkpt>
      <trkpt lat="46.56463" lon="4.91435">
        <ele>174.032464</ele>
        <time>2021-05-01T19:59:43.053Z</time>
      </trkpt>
      <trkpt lat="46.56463" lon="4.91444">
        <ele>173.974564</ele>
        <time>2021-05-01T19:59:44.469Z</time>
      </trkpt>
      <trkpt lat="46.56462" lon="4.91451">
        <ele>173.924732</ele>
        <time>2021-05-01T19:59:45.530Z</time>
      </trkpt>
      <trkpt lat="46.5646" lon="4.91462">
        <ele>173.843929</ele>
        <time>2021-05-01T19:59:47.781Z</time>
      </trkpt>
      <trkpt lat="46.56464" lon="4.91462">
        <ele>173.800338</ele>
        <time>2021-05-01T19:59:48.738Z</time>
      </trkpt>
      <trkpt lat="46.56477" lon="4.91419">
        <ele>173.651055</ele>
        <time>2021-05-01T19:59:57.183Z</time>
      </trkpt>
      <trkpt lat="46.56491" lon="4.91401">
        <ele>173.606354</ele>
        <time>2021-05-01T20:00:02.094Z</time>
      </trkpt>
      <trkpt lat="46.56576" lon="4.91367">
        <ele>173.399523</ele>
        <time>2021-05-01T20:00:27.766Z</time>
      </trkpt>
      <trkpt lat="46.56626" lon="4.91346">
        <ele>173.273631</ele>
        <time>2021-05-01T20:00:40.803Z</time>
      </trkpt>
      <trkpt lat="46.56631" lon="4.91339">
        <ele>173.236441</ele>
        <time>2021-05-01T20:00:42.802Z</time>
      </trkpt>
      <trkpt lat="46.56674" lon="4.91334">
        <ele>173.020121</ele>
        <time>2021-05-01T20:00:53.676Z</time>
      </trkpt>
      <trkpt lat="46.56741" lon="4.9135">
        <ele>172.669987</ele>
        <time>2021-05-01T20:01:11.257Z</time>
      </trkpt>
      <trkpt lat="46.57001" lon="4.91461">
        <ele>171.436537</ele>
        <time>2021-05-01T20:02:20.508Z</time>
      </trkpt>
      <trkpt lat="46.57253" lon="4.91584">
        <ele>171.649557</ele>
        <time>2021-05-01T20:03:36.117Z</time>
      </trkpt>
      <trkpt lat="46.57297" lon="4.91588">
        <ele>171.733648</ele>
        <time>2021-05-01T20:03:48.883Z</time>
      </trkpt>
      <trkpt lat="46.57316" lon="4.91586">
        <ele>171.770847</ele>
        <time>2021-05-01T20:03:54.584Z</time>
      </trkpt>
      <trkpt lat="46.57322" lon="4.91591">
        <ele>171.786144</ele>
        <time>2021-05-01T20:03:56.826Z</time>
      </trkpt>
      <trkpt lat="46.5733" lon="4.91598">
        <ele>171.803514</ele>
        <time>2021-05-01T20:03:59.264Z</time>
      </trkpt>
      <trkpt lat="46.57336" lon="4.91608">
        <ele>171.822123</ele>
        <time>2021-05-01T20:04:01.872Z</time>
      </trkpt>
      <trkpt lat="46.57336" lon="4.91622">
        <ele>171.842382</ele>
        <time>2021-05-01T20:04:04.899Z</time>
      </trkpt>
      <trkpt lat="46.57327" lon="4.91717">
        <ele>171.975005</ele>
        <time>2021-05-01T20:04:23.860Z</time>
      </trkpt>
      <trkpt lat="46.5732" lon="4.91743">
        <ele>172.012651</ele>
        <time>2021-05-01T20:04:29.343Z</time>
      </trkpt>
      <trkpt lat="46.5733" lon="4.91746">
        <ele>172.032179</ele>
        <time>2021-05-01T20:04:31.868Z</time>
      </trkpt>
      <trkpt lat="46.57387" lon="4.91779">
        <ele>172.157975</ele>
        <time>2021-05-01T20:04:48.808Z</time>
      </trkpt>
      <trkpt lat="46.57409" lon="4.918">
        <ele>172.217697</ele>
        <time>2021-05-01T20:04:55.894Z</time>
      </trkpt>
      <trkpt lat="46.57497" lon="4.91931">
        <ele>172.50341</ele>
        <time>2021-05-01T20:05:30.752Z</time>
      </trkpt>
      <trkpt lat="46.57555" lon="4.92042">
        <ele>172.965277</ele>
        <time>2021-05-01T20:05:58.563Z</time>
      </trkpt>
      <trkpt lat="46.57605" lon="4.92104">
        <ele>173.314293</ele>
        <time>2021-05-01T20:06:18.083Z</time>
      </trkpt>
      <trkpt lat="46.57659" lon="4.92139">
        <ele>173.571264</ele>
        <time>2021-05-01T20:06:36.044Z</time>
      </trkpt>
      <trkpt lat="46.57738" lon="4.92189">
        <ele>173.809674</ele>
        <time>2021-05-01T20:07:00.436Z</time>
      </trkpt>
      <trkpt lat="46.57773" lon="4.92211">
        <ele>173.915775</ele>
        <time>2021-05-01T20:07:10.839Z</time>
      </trkpt>
      <trkpt lat="46.57883" lon="4.92271">
        <ele>173.820925</ele>
        <time>2021-05-01T20:07:41.509Z</time>
      </trkpt>
      <trkpt lat="46.57956" lon="4.92325">
        <ele>173.648136</ele>
        <time>2021-05-01T20:08:01.926Z</time>
      </trkpt>
      <trkpt lat="46.58156" lon="4.92454">
        <ele>173.314686</ele>
        <time>2021-05-01T20:08:59.272Z</time>
      </trkpt>
      <trkpt lat="46.58341" lon="4.92562">
        <ele>173.293443</ele>
        <time>2021-05-01T20:09:51.303Z</time>
      </trkpt>
      <trkpt lat="46.58374" lon="4.92587">
        <ele>173.397776</ele>
        <time>2021-05-01T20:10:01.505Z</time>
      </trkpt>
      <trkpt lat="46.58407" lon="4.92618">
        <ele>173.507483</ele>
        <time>2021-05-01T20:10:12.409Z</time>
      </trkpt>
      <trkpt lat="46.58441" lon="4.92654">
        <ele>173.622633</ele>
        <time>2021-05-01T20:10:24.556Z</time>
      </trkpt>
      <trkpt lat="46.5846" lon="4.92671">
        <ele>173.766341</ele>
        <time>2021-05-01T20:10:31.315Z</time>
      </trkpt>
      <trkpt lat="46.58477" lon="4.92684">
        <ele>174.031076</ele>
        <time>2021-05-01T20:10:37.667Z</time>
      </trkpt>
      <trkpt lat="46.58549" lon="4.92733">
        <ele>175.104029</ele>
        <time>2021-05-01T20:11:03.480Z</time>
      </trkpt>
      <trkpt lat="46.58571" lon="4.92748">
        <ele>175.43811</ele>
        <time>2021-05-01T20:11:12.129Z</time>
      </trkpt>
      <trkpt lat="46.58615" lon="4.92776">
        <ele>176.096438</ele>
        <time>2021-05-01T20:11:29.186Z</time>
      </trkpt>
      <trkpt lat="46.58708" lon="4.92837">
        <ele>177.435644</ele>
        <time>2021-05-01T20:12:04.428Z</time>
      </trkpt>
      <trkpt lat="46.58822" lon="4.9293">
        <ele>178.575727</ele>
        <time>2021-05-01T20:12:45.356Z</time>
      </trkpt>
      <trkpt lat="46.58941" lon="4.93045">
        <ele>178.713158</ele>
        <time>2021-05-01T20:13:22.649Z</time>
      </trkpt>
      <trkpt lat="46.58957" lon="4.93062">
        <ele>178.598386</ele>
        <time>2021-05-01T20:13:27.219Z</time>
      </trkpt>
      <trkpt lat="46.58976" lon="4.93082">
        <ele>178.45754</ele>
        <time>2021-05-01T20:13:32.921Z</time>
      </trkpt>
      <trkpt lat="46.59181" lon="4.93324">
        <ele>176.670557</ele>
        <time>2021-05-01T20:14:36.233Z</time>
      </trkpt>
      <trkpt lat="46.59483" lon="4.93615">
        <ele>174.010115</ele>
        <time>2021-05-01T20:16:02.164Z</time>
      </trkpt>
      <trkpt lat="46.5952" lon="4.93672">
        <ele>173.77644</ele>
        <time>2021-05-01T20:16:15.986Z</time>
      </trkpt>
      <trkpt lat="46.59598" lon="4.93842">
        <ele>173.78062</ele>
        <time>2021-05-01T20:16:54.212Z</time>
      </trkpt>
      <trkpt lat="46.5961" lon="4.9387">
        <ele>173.780575</ele>
        <time>2021-05-01T20:17:00.455Z</time>
      </trkpt>
      <trkpt lat="46.59621" lon="4.93895">
        <ele>173.768361</ele>
        <time>2021-05-01T20:17:05.853Z</time>
      </trkpt>
      <trkpt lat="46.59645" lon="4.93938">
        <ele>173.745781</ele>
        <time>2021-05-01T20:17:15.980Z</time>
      </trkpt>
      <trkpt lat="46.59668" lon="4.93958">
        <ele>173.73003</ele>
        <time>2021-05-01T20:17:23.059Z</time>
      </trkpt>
      <trkpt lat="46.59729" lon="4.93984">
        <ele>173.692277</ele>
        <time>2021-05-01T20:17:39.877Z</time>
      </trkpt>
      <trkpt lat="46.59744" lon="4.93988">
        <ele>173.68315</ele>
        <time>2021-05-01T20:17:43.728Z</time>
      </trkpt>
      <trkpt lat="46.59788" lon="4.94021">
        <ele>173.670641</ele>
        <time>2021-05-01T20:17:56.540Z</time>
      </trkpt>
      <trkpt lat="46.6002" lon="4.94236">
        <ele>173.655261</ele>
        <time>2021-05-01T20:19:10.254Z</time>
      </trkpt>
      <trkpt lat="46.60138" lon="4.94319">
        <ele>173.437498</ele>
        <time>2021-05-01T20:19:44.853Z</time>
      </trkpt>
      <trkpt lat="46.60217" lon="4.94415">
        <ele>173.178066</ele>
        <time>2021-05-01T20:20:10.312Z</time>
      </trkpt>
      <trkpt lat="46.60243" lon="4.94462">
        <ele>173.218086</ele>
        <time>2021-05-01T20:20:20.955Z</time>
      </trkpt>
      <trkpt lat="46.6027" lon="4.94524">
        <ele>173.266791</ele>
        <time>2021-05-01T20:20:34.109Z</time>
      </trkpt>
      <trkpt lat="46.60307" lon="4.94605">
        <ele>173.331947</ele>
        <time>2021-05-01T20:20:53.110Z</time>
      </trkpt>
      <trkpt lat="46.60354" lon="4.9471">
        <ele>173.952743</ele>
        <time>2021-05-01T20:21:19.548Z</time>
      </trkpt>
      <trkpt lat="46.60416" lon="4.94849">
        <ele>174.922908</ele>
        <time>2021-05-01T20:21:55.532Z</time>
      </trkpt>
      <trkpt lat="46.60454" lon="4.94936">
        <ele>175.222624</ele>
        <time>2021-05-01T20:22:16.712Z</time>
      </trkpt>
      <trkpt lat="46.60479" lon="4.94991">
        <ele>175.414174</ele>
        <time>2021-05-01T20:22:29.639Z</time>
      </trkpt>
      <trkpt lat="46.60505" lon="4.95024">
        <ele>175.561067</ele>
        <time>2021-05-01T20:22:39.248Z</time>
      </trkpt>
      <trkpt lat="46.60613" lon="4.95148">
        <ele>175.684045</ele>
        <time>2021-05-01T20:23:15.953Z</time>
      </trkpt>
      <trkpt lat="46.60689" lon="4.95233">
        <ele>175.672678</ele>
        <time>2021-05-01T20:23:41.545Z</time>
      </trkpt>
      <trkpt lat="46.60828" lon="4.95368">
        <ele>175.493217</ele>
        <time>2021-05-01T20:24:25.607Z</time>
      </trkpt>
      <trkpt lat="46.60904" lon="4.95395">
        <ele>175.149686</ele>
        <time>2021-05-01T20:24:45.319Z</time>
      </trkpt>
      <trkpt lat="46.60997" lon="4.95439">
        <ele>174.725726</ele>
        <time>2021-05-01T20:25:08.985Z</time>
      </trkpt>
      <trkpt lat="46.61028" lon="4.95437">
        <ele>174.600373</ele>
        <time>2021-05-01T20:25:16.514Z</time>
      </trkpt>
      <trkpt lat="46.61066" lon="4.95425">
        <ele>174.445223</ele>
        <time>2021-05-01T20:25:25.886Z</time>
      </trkpt>
      <trkpt lat="46.6108" lon="4.95421">
        <ele>174.387739</ele>
        <time>2021-05-01T20:25:29.448Z</time>
      </trkpt>
      <trkpt lat="46.61106" lon="4.95421">
        <ele>174.281592</ele>
        <time>2021-05-01T20:25:35.964Z</time>
      </trkpt>
      <trkpt lat="46.61132" lon="4.95436">
        <ele>174.167804</ele>
        <time>2021-05-01T20:25:43.118Z</time>
      </trkpt>
      <trkpt lat="46.61171" lon="4.95474">
        <ele>174.084775</ele>
        <time>2021-05-01T20:25:55.333Z</time>
      </trkpt>
      <trkpt lat="46.61205" lon="4.95521">
        <ele>174.201647</ele>
        <time>2021-05-01T20:26:08.160Z</time>
      </trkpt>
      <trkpt lat="46.61219" lon="4.95549">
        <ele>174.262029</ele>
        <time>2021-05-01T20:26:15.002Z</time>
      </trkpt>
      <trkpt lat="46.61277" lon="4.95692">
        <ele>174.567635</ele>
        <time>2021-05-01T20:26:47.639Z</time>
      </trkpt>
      <trkpt lat="46.6134" lon="4.95885">
        <ele>175.076852</ele>
        <time>2021-05-01T20:27:29.497Z</time>
      </trkpt>
      <trkpt lat="46.61416" lon="4.96009">
        <ele>175.370798</ele>
        <time>2021-05-01T20:28:01.367Z</time>
      </trkpt>
      <trkpt lat="46.61446" lon="4.96065">
        <ele>175.490524</ele>
        <time>2021-05-01T20:28:14.844Z</time>
      </trkpt>
      <trkpt lat="46.61451" lon="4.96081">
        <ele>175.520849</ele>
        <time>2021-05-01T20:28:18.104Z</time>
      </trkpt>
      <trkpt lat="46.61461" lon="4.96093">
        <ele>175.551553</ele>
        <time>2021-05-01T20:28:21.646Z</time>
      </trkpt>
      <trkpt lat="46.61474" lon="4.96106">
        <ele>175.602631</ele>
        <time>2021-05-01T20:28:26.045Z</time>
      </trkpt>
      <trkpt lat="46.61522" lon="4.96128">
        <ele>175.777617</ele>
        <time>2021-05-01T20:28:40.083Z</time>
      </trkpt>
      <trkpt lat="46.61614" lon="4.96178">
        <ele>176.115695</ele>
        <time>2021-05-01T20:29:08.148Z</time>
      </trkpt>
      <trkpt lat="46.61647" lon="4.96202">
        <ele>176.325648</ele>
        <time>2021-05-01T20:29:18.705Z</time>
      </trkpt>
      <trkpt lat="46.61677" lon="4.96225">
        <ele>176.607012</ele>
        <time>2021-05-01T20:29:28.849Z</time>
      </trkpt>
      <trkpt lat="46.6168" lon="4.96227">
        <ele>176.63346</ele>
        <time>2021-05-01T20:29:29.783Z</time>
      </trkpt>
      <trkpt lat="46.61761" lon="4.96293">
        <ele>177.406655</ele>
        <time>2021-05-01T20:29:58.724Z</time>
      </trkpt>
      <trkpt lat="46.6178" lon="4.96303">
        <ele>177.573625</ele>
        <time>2021-05-01T20:30:04.993Z</time>
      </trkpt>
      <trkpt lat="46.61807" lon="4.96311">
        <ele>177.816273</ele>
        <time>2021-05-01T20:30:13.741Z</time>
      </trkpt>
      <trkpt lat="46.61828" lon="4.96314">
        <ele>178.01387</ele>
        <time>2021-05-01T20:30:20.572Z</time>
      </trkpt>
      <trkpt lat="46.6188" lon="4.9632">
        <ele>178.506647</ele>
        <time>2021-05-01T20:30:37.377Z</time>
      </trkpt>
      <trkpt lat="46.61919" lon="4.96314">
        <ele>178.863503</ele>
        <time>2021-05-01T20:30:49.393Z</time>
      </trkpt>
      <trkpt lat="46.61951" lon="4.96317">
        <ele>179.162042</ele>
        <time>2021-05-01T20:30:59.377Z</time>
      </trkpt>
      <trkpt lat="46.62014" lon="4.96355">
        <ele>179.534174</ele>
        <time>2021-05-01T20:31:19.815Z</time>
      </trkpt>
      <trkpt lat="46.62268" lon="4.96515">
        <ele>180.277237</ele>
        <time>2021-05-01T20:32:36.922Z</time>
      </trkpt>
      <trkpt lat="46.62293" lon="4.96527">
        <ele>180.322362</ele>
        <time>2021-05-01T20:32:44.038Z</time>
      </trkpt>
      <trkpt lat="46.6233" lon="4.96531">
        <ele>180.21143</ele>
        <time>2021-05-01T20:32:53.561Z</time>
      </trkpt>
      <trkpt lat="46.62376" lon="4.96504">
        <ele>179.994726</ele>
        <time>2021-05-01T20:33:06.169Z</time>
      </trkpt>
      <trkpt lat="46.62391" lon="4.96491">
        <ele>179.918876</ele>
        <time>2021-05-01T20:33:10.535Z</time>
      </trkpt>
      <trkpt lat="46.62449" lon="4.96421">
        <ele>179.592395</ele>
        <time>2021-05-01T20:33:28.795Z</time>
      </trkpt>
      <trkpt lat="46.62496" lon="4.96364">
        <ele>179.313457</ele>
        <time>2021-05-01T20:33:43.233Z</time>
      </trkpt>
      <trkpt lat="46.62508" lon="4.96335">
        <ele>179.209038</ele>
        <time>2021-05-01T20:33:48.768Z</time>
      </trkpt>
      <trkpt lat="46.62516" lon="4.96175">
        <ele>178.82706</ele>
        <time>2021-05-01T20:34:16.489Z</time>
      </trkpt>
      <trkpt lat="46.6252" lon="4.96166">
        <ele>178.943811</ele>
        <time>2021-05-01T20:34:18.333Z</time>
      </trkpt>
      <trkpt lat="46.62521" lon="4.96162">
        <ele>178.985976</ele>
        <time>2021-05-01T20:34:19.119Z</time>
      </trkpt>
      <trkpt lat="46.62531" lon="4.96155">
        <ele>179.161482</ele>
        <time>2021-05-01T20:34:22.436Z</time>
      </trkpt>
      <trkpt lat="46.62535" lon="4.96154">
        <ele>179.213385</ele>
        <time>2021-05-01T20:34:23.410Z</time>
      </trkpt>
      <trkpt lat="46.62539" lon="4.96153">
        <ele>179.288047</ele>
        <time>2021-05-01T20:34:24.996Z</time>
      </trkpt>
      <trkpt lat="46.62547" lon="4.96154">
        <ele>179.41233</ele>
        <time>2021-05-01T20:34:27.266Z</time>
      </trkpt>
      <trkpt lat="46.62585" lon="4.96165">
        <ele>180.001474</ele>
        <time>2021-05-01T20:34:38.885Z</time>
      </trkpt>
      <trkpt lat="46.62695" lon="4.96197">
        <ele>182.012693</ele>
        <time>2021-05-01T20:35:21.931Z</time>
      </trkpt>
      <trkpt lat="46.62713" lon="4.96202">
        <ele>182.627721</ele>
        <time>2021-05-01T20:35:30.494Z</time>
      </trkpt>
      <trkpt lat="46.62735" lon="4.96204">
        <ele>183.357237</ele>
        <time>2021-05-01T20:35:38.821Z</time>
      </trkpt>
      <trkpt lat="46.6274" lon="4.96204">
        <ele>183.52825</ele>
        <time>2021-05-01T20:35:41.241Z</time>
      </trkpt>
      <trkpt lat="46.62748" lon="4.96202">
        <ele>183.783456</ele>
        <time>2021-05-01T20:35:45.297Z</time>
      </trkpt>
      <trkpt lat="46.62826" lon="4.96191">
        <ele>186.417558</ele>
        <time>2021-05-01T20:36:19.391Z</time>
      </trkpt>
      <trkpt lat="46.62922" lon="4.96189">
        <ele>189.44863</ele>
        <time>2021-05-01T20:37:01.622Z</time>
      </trkpt>
      <trkpt lat="46.62943" lon="4.96193">
        <ele>190.109945</ele>
        <time>2021-05-01T20:37:10.565Z</time>
      </trkpt>
      <trkpt lat="46.6296" lon="4.96204">
        <ele>190.672758</ele>
        <time>2021-05-01T20:37:17.643Z</time>
      </trkpt>
      <trkpt lat="46.63002" lon="4.96234">
        <ele>192.104035</ele>
        <time>2021-05-01T20:37:36.238Z</time>
      </trkpt>
      <trkpt lat="46.6301" lon="4.96238">
        <ele>192.368549</ele>
        <time>2021-05-01T20:37:39.854Z</time>
      </trkpt>
      <trkpt lat="46.63036" lon="4.96248">
        <ele>193.163987</ele>
        <time>2021-05-01T20:37:50.554Z</time>
      </trkpt>
      <trkpt lat="46.63061" lon="4.96246">
        <ele>193.789256</ele>
        <time>2021-05-01T20:38:00.127Z</time>
      </trkpt>
      <trkpt lat="46.63071" lon="4.96244">
        <ele>194.044899</ele>
        <time>2021-05-01T20:38:04.596Z</time>
      </trkpt>
      <trkpt lat="46.6313" lon="4.96234">
        <ele>195.517843</ele>
        <time>2021-05-01T20:38:27.658Z</time>
      </trkpt>
      <trkpt lat="46.63156" lon="4.96231">
        <ele>196.174217</ele>
        <time>2021-05-01T20:38:38.393Z</time>
      </trkpt>
      <trkpt lat="46.63173" lon="4.96238">
        <ele>196.613086</ele>
        <time>2021-05-01T20:38:44.143Z</time>
      </trkpt>
      <trkpt lat="46.63177" lon="4.96243">
        <ele>196.739954</ele>
        <time>2021-05-01T20:38:46.463Z</time>
      </trkpt>
      <trkpt lat="46.63179" lon="4.96251">
        <ele>196.892874</ele>
        <time>2021-05-01T20:38:49.136Z</time>
      </trkpt>
      <trkpt lat="46.63183" lon="4.96281">
        <ele>197.413813</ele>
        <time>2021-05-01T20:38:55.967Z</time>
      </trkpt>
      <trkpt lat="46.63189" lon="4.96291">
        <ele>197.610438</ele>
        <time>2021-05-01T20:38:59.599Z</time>
      </trkpt>
      <trkpt lat="46.63192" lon="4.96297">
        <ele>197.715694</ele>
        <time>2021-05-01T20:39:01.950Z</time>
      </trkpt>
      <trkpt lat="46.63193" lon="4.96303">
        <ele>197.797702</ele>
        <time>2021-05-01T20:39:03.364Z</time>
      </trkpt>
      <trkpt lat="46.63194" lon="4.96309">
        <ele>197.888738</ele>
        <time>2021-05-01T20:39:04.855Z</time>
      </trkpt>
      <trkpt lat="46.63193" lon="4.96321">
        <ele>198.045876</ele>
        <time>2021-05-01T20:39:07.328Z</time>
      </trkpt>
      <trkpt lat="46.63242" lon="4.96349">
        <ele>199.095421</ele>
        <time>2021-05-01T20:39:27.157Z</time>
      </trkpt>
      <trkpt lat="46.63319" lon="4.96379">
        <ele>200.687852</ele>
        <time>2021-05-01T20:39:56.631Z</time>
      </trkpt>
      <trkpt lat="46.63386" lon="4.9643">
        <ele>201.6911</ele>
        <time>2021-05-01T20:40:21.855Z</time>
      </trkpt>
      <trkpt lat="46.63389" lon="4.96429">
        <ele>201.725507</ele>
        <time>2021-05-01T20:40:23.315Z</time>
      </trkpt>
      <trkpt lat="46.63391" lon="4.96441">
        <ele>201.818226</ele>
        <time>2021-05-01T20:40:26.127Z</time>
      </trkpt>
      <trkpt lat="46.63394" lon="4.96453">
        <ele>201.910946</ele>
        <time>2021-05-01T20:40:28.706Z</time>
      </trkpt>
      <trkpt lat="46.63394" lon="4.96461">
        <ele>201.966619</ele>
        <time>2021-05-01T20:40:30.491Z</time>
      </trkpt>
      <trkpt lat="46.63396" lon="4.96462">
        <ele>201.992673</ele>
        <time>2021-05-01T20:40:31.145Z</time>
      </trkpt>
      <trkpt lat="46.63437" lon="4.96507">
        <ele>202.526538</ele>
        <time>2021-05-01T20:40:46.915Z</time>
      </trkpt>
      <trkpt lat="46.63531" lon="4.96595">
        <ele>203.389735</ele>
        <time>2021-05-01T20:41:19.544Z</time>
      </trkpt>
      <trkpt lat="46.6354" lon="4.966">
        <ele>203.444007</ele>
        <time>2021-05-01T20:41:22.089Z</time>
      </trkpt>
      <trkpt lat="46.63584" lon="4.96622">
        <ele>203.707817</ele>
        <time>2021-05-01T20:41:35.659Z</time>
      </trkpt>
      <trkpt lat="46.63622" lon="4.96641">
        <ele>203.932491</ele>
        <time>2021-05-01T20:41:47.485Z</time>
      </trkpt>
      <trkpt lat="46.63662" lon="4.9667">
        <ele>204.219481</ele>
        <time>2021-05-01T20:42:01.310Z</time>
      </trkpt>
      <trkpt lat="46.63686" lon="4.96688">
        <ele>204.410736</ele>
        <time>2021-05-01T20:42:09.638Z</time>
      </trkpt>
      <trkpt lat="46.63697" lon="4.96696">
        <ele>204.49993</ele>
        <time>2021-05-01T20:42:13.827Z</time>
      </trkpt>
      <trkpt lat="46.63735" lon="4.96739">
        <ele>204.830753</ele>
        <time>2021-05-01T20:42:28.229Z</time>
      </trkpt>
      <trkpt lat="46.63782" lon="4.96801">
        <ele>205.277084</ele>
        <time>2021-05-01T20:42:47.424Z</time>
      </trkpt>
      <trkpt lat="46.63785" lon="4.96805">
        <ele>205.300496</ele>
        <time>2021-05-01T20:42:48.690Z</time>
      </trkpt>
      <trkpt lat="46.63973" lon="4.97052">
        <ele>205.031044</ele>
        <time>2021-05-01T20:43:54.631Z</time>
      </trkpt>
      <trkpt lat="46.63987" lon="4.97078">
        <ele>204.975251</ele>
        <time>2021-05-01T20:44:00.167Z</time>
      </trkpt>
      <trkpt lat="46.641" lon="4.97282">
        <ele>204.538469</ele>
        <time>2021-05-01T20:44:45.882Z</time>
      </trkpt>
      <trkpt lat="46.64142" lon="4.97354">
        <ele>204.383187</ele>
        <time>2021-05-01T20:45:02.897Z</time>
      </trkpt>
      <trkpt lat="46.64199" lon="4.97439">
        <ele>204.017725</ele>
        <time>2021-05-01T20:45:23.857Z</time>
      </trkpt>
      <trkpt lat="46.64239" lon="4.97487">
        <ele>203.754481</ele>
        <time>2021-05-01T20:45:36.884Z</time>
      </trkpt>
      <trkpt lat="46.64416" lon="4.97639">
        <ele>201.975505</ele>
        <time>2021-05-01T20:46:25.359Z</time>
      </trkpt>
      <trkpt lat="46.64482" lon="4.9767">
        <ele>201.096389</ele>
        <time>2021-05-01T20:46:40.589Z</time>
      </trkpt>
      <trkpt lat="46.64561" lon="4.97686">
        <ele>199.811763</ele>
        <time>2021-05-01T20:46:57.914Z</time>
      </trkpt>
      <trkpt lat="46.64602" lon="4.97702">
        <ele>199.134317</ele>
        <time>2021-05-01T20:47:07.077Z</time>
      </trkpt>
      <trkpt lat="46.6461" lon="4.97707">
        <ele>199.001978</ele>
        <time>2021-05-01T20:47:08.741Z</time>
      </trkpt>
      <trkpt lat="46.64625" lon="4.97716">
        <ele>198.728003</ele>
        <time>2021-05-01T20:47:12.483Z</time>
      </trkpt>
      <trkpt lat="46.64704" lon="4.97765">
        <ele>197.448087</ele>
        <time>2021-05-01T20:47:31.179Z</time>
      </trkpt>
      <trkpt lat="46.64784" lon="4.97856">
        <ele>195.954761</ele>
        <time>2021-05-01T20:47:53.778Z</time>
      </trkpt>
      <trkpt lat="46.64856" lon="4.97945">
        <ele>194.835509</ele>
        <time>2021-05-01T20:48:15.436Z</time>
      </trkpt>
      <trkpt lat="46.6489" lon="4.97986">
        <ele>194.314398</ele>
        <time>2021-05-01T20:48:25.442Z</time>
      </trkpt>
      <trkpt lat="46.64972" lon="4.98078">
        <ele>193.489755</ele>
        <time>2021-05-01T20:48:48.908Z</time>
      </trkpt>
      <trkpt lat="46.65025" lon="4.98166">
        <ele>193.010035</ele>
        <time>2021-05-01T20:49:08.913Z</time>
      </trkpt>
      <trkpt lat="46.65027" lon="4.9817">
        <ele>192.986833</ele>
        <time>2021-05-01T20:49:09.683Z</time>
      </trkpt>
      <trkpt lat="46.65114" lon="4.98151">
        <ele>192.876527</ele>
        <time>2021-05-01T20:49:33.665Z</time>
      </trkpt>
      <trkpt lat="46.65232" lon="4.98125">
        <ele>192.999759</ele>
        <time>2021-05-01T20:50:07.108Z</time>
      </trkpt>
      <trkpt lat="46.65262" lon="4.98118">
        <ele>192.829497</ele>
        <time>2021-05-01T20:50:15.148Z</time>
      </trkpt>
      <trkpt lat="46.65287" lon="4.98113">
        <ele>192.676732</ele>
        <time>2021-05-01T20:50:21.651Z</time>
      </trkpt>
      <trkpt lat="46.65327" lon="4.98104">
        <ele>192.436074</ele>
        <time>2021-05-01T20:50:31.551Z</time>
      </trkpt>
      <trkpt lat="46.65356" lon="4.98098">
        <ele>192.264586</ele>
        <time>2021-05-01T20:50:38.467Z</time>
      </trkpt>
      <trkpt lat="46.65372" lon="4.98094">
        <ele>192.169512</ele>
        <time>2021-05-01T20:50:42.153Z</time>
      </trkpt>
      <trkpt lat="46.65419" lon="4.9808">
        <ele>191.814469</ele>
        <time>2021-05-01T20:50:53.290Z</time>
      </trkpt>
      <trkpt lat="46.65476" lon="4.98045">
        <ele>190.944861</ele>
        <time>2021-05-01T20:51:07.061Z</time>
      </trkpt>
      <trkpt lat="46.65562" lon="4.97982">
        <ele>189.587376</ele>
        <time>2021-05-01T20:51:28.235Z</time>
      </trkpt>
      <trkpt lat="46.65583" lon="4.97967">
        <ele>189.213811</ele>
        <time>2021-05-01T20:51:33.406Z</time>
      </trkpt>
      <trkpt lat="46.6565" lon="4.97935">
        <ele>187.978187</ele>
        <time>2021-05-01T20:51:48.855Z</time>
      </trkpt>
      <trkpt lat="46.65707" lon="4.97916">
        <ele>186.948036</ele>
        <time>2021-05-01T20:52:01.358Z</time>
      </trkpt>
      <trkpt lat="46.65757" lon="4.97899">
        <ele>185.940567</ele>
        <time>2021-05-01T20:52:12.370Z</time>
      </trkpt>
      <trkpt lat="46.65774" lon="4.97894">
        <ele>185.487913</ele>
        <time>2021-05-01T20:52:15.782Z</time>
      </trkpt>
      <trkpt lat="46.65791" lon="4.97891">
        <ele>185.032689</ele>
        <time>2021-05-01T20:52:19.292Z</time>
      </trkpt>
      <trkpt lat="46.65804" lon="4.9789">
        <ele>184.670983</ele>
        <time>2021-05-01T20:52:22.070Z</time>
      </trkpt>
      <trkpt lat="46.65811" lon="4.97889">
        <ele>184.49692</ele>
        <time>2021-05-01T20:52:23.277Z</time>
      </trkpt>
      <trkpt lat="46.65872" lon="4.97884">
        <ele>182.861323</ele>
        <time>2021-05-01T20:52:35.622Z</time>
      </trkpt>
      <trkpt lat="46.65906" lon="4.97882">
        <ele>181.943833</ele>
        <time>2021-05-01T20:52:42.415Z</time>
      </trkpt>
      <trkpt lat="46.65923" lon="4.97881">
        <ele>181.499813</ele>
        <time>2021-05-01T20:52:45.598Z</time>
      </trkpt>
      <trkpt lat="46.66036" lon="4.97872">
        <ele>178.487726</ele>
        <time>2021-05-01T20:53:08.116Z</time>
      </trkpt>
      <trkpt lat="46.66144" lon="4.97863">
        <ele>176.282106</ele>
        <time>2021-05-01T20:53:30.460Z</time>
      </trkpt>
      <trkpt lat="46.66231" lon="4.97856">
        <ele>175.432573</ele>
        <time>2021-05-01T20:53:50.809Z</time>
      </trkpt>
      <trkpt lat="46.66251" lon="4.97854">
        <ele>175.238905</ele>
        <time>2021-05-01T20:53:55.619Z</time>
      </trkpt>
      <trkpt lat="46.66259" lon="4.97853">
        <ele>175.161401</ele>
        <time>2021-05-01T20:53:57.779Z</time>
      </trkpt>
      <trkpt lat="46.66272" lon="4.97852">
        <ele>175.041336</ele>
        <time>2021-05-01T20:54:01.027Z</time>
      </trkpt>
      <trkpt lat="46.6632" lon="4.97848">
        <ele>175.455456</ele>
        <time>2021-05-01T20:54:14.290Z</time>
      </trkpt>
      <trkpt lat="46.66452" lon="4.97838">
        <ele>177.473957</ele>
        <time>2021-05-01T20:55:01.073Z</time>
      </trkpt>
      <trkpt lat="46.66525" lon="4.97832">
        <ele>179.301893</ele>
        <time>2021-05-01T20:55:31.191Z</time>
      </trkpt>
      <trkpt lat="46.66737" lon="4.97815">
        <ele>183.915425</ele>
        <time>2021-05-01T20:56:54.795Z</time>
      </trkpt>
      <trkpt lat="46.67057" lon="4.97789">
        <ele>184.597756</ele>
        <time>2021-05-01T20:58:25.092Z</time>
      </trkpt>
      <trkpt lat="46.67133" lon="4.97783">
        <ele>183.118245</ele>
        <time>2021-05-01T20:58:40.596Z</time>
      </trkpt>
      <trkpt lat="46.67134" lon="4.97777">
        <ele>183.042988</ele>
        <time>2021-05-01T20:58:41.254Z</time>
      </trkpt>
      <trkpt lat="46.67182" lon="4.97395">
        <ele>175.425038</ele>
        <time>2021-05-01T20:59:35.511Z</time>
      </trkpt>
      <trkpt lat="46.67241" lon="4.97209">
        <ele>173.02236</ele>
        <time>2021-05-01T21:00:08.402Z</time>
      </trkpt>
      <trkpt lat="46.67257" lon="4.97137">
        <ele>173.067175</ele>
        <time>2021-05-01T21:00:22.793Z</time>
      </trkpt>
      <trkpt lat="46.6727" lon="4.97026">
        <ele>173.133398</ele>
        <time>2021-05-01T21:00:45.549Z</time>
      </trkpt>
      <trkpt lat="46.673" lon="4.96756">
        <ele>173.635618</ele>
        <time>2021-05-01T21:01:42.527Z</time>
      </trkpt>
      <trkpt lat="46.673" lon="4.9675">
        <ele>173.649442</ele>
        <time>2021-05-01T21:01:44.004Z</time>
      </trkpt>
      <trkpt lat="46.67303" lon="4.96723">
        <ele>173.711129</ele>
        <time>2021-05-01T21:01:48.771Z</time>
      </trkpt>
      <trkpt lat="46.67336" lon="4.96434">
        <ele>173.267739</ele>
        <time>2021-05-01T21:02:42.160Z</time>
      </trkpt>
      <trkpt lat="46.67338" lon="4.96416">
        <ele>173.214138</ele>
        <time>2021-05-01T21:02:45.455Z</time>
      </trkpt>
      <trkpt lat="46.67339" lon="4.96398">
        <ele>173.162345</ele>
        <time>2021-05-01T21:02:48.675Z</time>
      </trkpt>
      <trkpt lat="46.67318" lon="4.95971">
        <ele>172.054529</ele>
        <time>2021-05-01T21:04:05.252Z</time>
      </trkpt>
      <trkpt lat="46.67311" lon="4.95926">
        <ele>171.948929</ele>
        <time>2021-05-01T21:04:13.778Z</time>
      </trkpt>
      <trkpt lat="46.67298" lon="4.95878">
        <ele>171.990414</ele>
        <time>2021-05-01T21:04:23.468Z</time>
      </trkpt>
      <trkpt lat="46.67175" lon="4.95462">
        <ele>172.765006</ele>
        <time>2021-05-01T21:05:55.173Z</time>
      </trkpt>
      <trkpt lat="46.67091" lon="4.95179">
        <ele>172.673435</ele>
        <time>2021-05-01T21:06:53.252Z</time>
      </trkpt>
      <trkpt lat="46.66995" lon="4.95175">
        <ele>172.520955</ele>
        <time>2021-05-01T21:07:18.186Z</time>
      </trkpt>
      <trkpt lat="46.66873" lon="4.95169">
        <ele>172.459823</ele>
        <time>2021-05-01T21:07:49.626Z</time>
      </trkpt>
      <trkpt lat="46.66867" lon="4.95167">
        <ele>172.467024</ele>
        <time>2021-05-01T21:07:51.426Z</time>
      </trkpt>
      <trkpt lat="46.66861" lon="4.95165">
        <ele>172.473522</ele>
        <time>2021-05-01T21:07:53.257Z</time>
      </trkpt>
      <trkpt lat="46.66855" lon="4.95158">
        <ele>172.481999</ele>
        <time>2021-05-01T21:07:55.360Z</time>
      </trkpt>
      <trkpt lat="46.66841" lon="4.95129">
        <ele>172.508084</ele>
        <time>2021-05-01T21:08:01.583Z</time>
      </trkpt>
      <trkpt lat="46.66841" lon="4.95126">
        <ele>172.511006</ele>
        <time>2021-05-01T21:08:02.605Z</time>
      </trkpt>
      <trkpt lat="46.66838" lon="4.95115">
        <ele>172.519379</ele>
        <time>2021-05-01T21:08:04.616Z</time>
      </trkpt>
      <trkpt lat="46.66829" lon="4.9506">
        <ele>172.562259</ele>
        <time>2021-05-01T21:08:15.708Z</time>
      </trkpt>
      <trkpt lat="46.66827" lon="4.95038">
        <ele>172.578512</ele>
        <time>2021-05-01T21:08:19.627Z</time>
      </trkpt>
      <trkpt lat="46.66807" lon="4.94787">
        <ele>173.142143</ele>
        <time>2021-05-01T21:09:09.023Z</time>
      </trkpt>
      <trkpt lat="46.66806" lon="4.94765">
        <ele>173.193996</ele>
        <time>2021-05-01T21:09:13.415Z</time>
      </trkpt>
      <trkpt lat="46.66804" lon="4.94708">
        <ele>173.29016</ele>
        <time>2021-05-01T21:09:24.757Z</time>
      </trkpt>
      <trkpt lat="46.66804" lon="4.94685">
        <ele>173.318892</ele>
        <time>2021-05-01T21:09:29.100Z</time>
      </trkpt>
      <trkpt lat="46.66804" lon="4.94671">
        <ele>173.33629</ele>
        <time>2021-05-01T21:09:31.836Z</time>
      </trkpt>
      <trkpt lat="46.66791" lon="4.94624">
        <ele>173.399242</ele>
        <time>2021-05-01T21:09:41.366Z</time>
      </trkpt>
      <trkpt lat="46.66778" lon="4.94607">
        <ele>173.431205</ele>
        <time>2021-05-01T21:09:46.137Z</time>
      </trkpt>
      <trkpt lat="46.66757" lon="4.94596">
        <ele>173.471999</ele>
        <time>2021-05-01T21:09:52.064Z</time>
      </trkpt>
      <trkpt lat="46.66754" lon="4.94596">
        <ele>173.47839</ele>
        <time>2021-05-01T21:09:53.145Z</time>
      </trkpt>
      <trkpt lat="46.66748" lon="4.94595">
        <ele>173.488077</ele>
        <time>2021-05-01T21:09:54.468Z</time>
      </trkpt>
      <trkpt lat="46.66452" lon="4.94595">
        <ele>174.294337</ele>
        <time>2021-05-01T21:11:15.447Z</time>
      </trkpt>
      <trkpt lat="46.66418" lon="4.94579">
        <ele>174.53196</ele>
        <time>2021-05-01T21:11:26.422Z</time>
      </trkpt>
      <trkpt lat="46.66383" lon="4.9451">
        <ele>174.93082</ele>
        <time>2021-05-01T21:11:45.195Z</time>
      </trkpt>
      <trkpt lat="46.6636" lon="4.94491">
        <ele>175.126306</ele>
        <time>2021-05-01T21:11:53.473Z</time>
      </trkpt>
      <trkpt lat="46.66355" lon="4.9449">
        <ele>175.16702</ele>
        <time>2021-05-01T21:11:55.223Z</time>
      </trkpt>
      <trkpt lat="46.66352" lon="4.9449">
        <ele>175.194405</ele>
        <time>2021-05-01T21:11:56.260Z</time>
      </trkpt>
      <trkpt lat="46.66343" lon="4.94488">
        <ele>175.265602</ele>
        <time>2021-05-01T21:11:58.898Z</time>
      </trkpt>
      <trkpt lat="46.66334" lon="4.94483">
        <ele>175.340833</ele>
        <time>2021-05-01T21:12:01.691Z</time>
      </trkpt>
      <trkpt lat="46.66329" lon="4.94478">
        <ele>175.398351</ele>
        <time>2021-05-01T21:12:04.094Z</time>
      </trkpt>
      <trkpt lat="46.66315" lon="4.94451">
        <ele>175.589928</ele>
        <time>2021-05-01T21:12:11.402Z</time>
      </trkpt>
      <trkpt lat="46.66266" lon="4.94317">
        <ele>176.442994</ele>
        <time>2021-05-01T21:12:43.537Z</time>
      </trkpt>
      <trkpt lat="46.66248" lon="4.94259">
        <ele>176.469803</ele>
        <time>2021-05-01T21:12:55.759Z</time>
      </trkpt>
      <trkpt lat="46.66265" lon="4.94255">
        <ele>176.450457</ele>
        <time>2021-05-01T21:13:00.251Z</time>
      </trkpt>
      <trkpt lat="46.66405" lon="4.9426">
        <ele>176.219005</ele>
        <time>2021-05-01T21:13:35.649Z</time>
      </trkpt>
      <trkpt lat="46.66444" lon="4.9426">
        <ele>175.939488</ele>
        <time>2021-05-01T21:13:45.146Z</time>
      </trkpt>
      <trkpt lat="46.66507" lon="4.94259">
        <ele>175.495257</ele>
        <time>2021-05-01T21:13:59.942Z</time>
      </trkpt>
      <trkpt lat="46.66667" lon="4.94248">
        <ele>174.463076</ele>
        <time>2021-05-01T21:14:37.833Z</time>
      </trkpt>
      <trkpt lat="46.66729" lon="4.94234">
        <ele>174.097363</ele>
        <time>2021-05-01T21:14:53.247Z</time>
      </trkpt>
      <trkpt lat="46.66868" lon="4.94187">
        <ele>174.010946</ele>
        <time>2021-05-01T21:15:31.176Z</time>
      </trkpt>
      <trkpt lat="46.6705" lon="4.94156">
        <ele>174.280602</ele>
        <time>2021-05-01T21:16:22.255Z</time>
      </trkpt>
      <trkpt lat="46.67402" lon="4.94039">
        <ele>174.84814</ele>
        <time>2021-05-01T21:18:01.086Z</time>
      </trkpt>
      <trkpt lat="46.67479" lon="4.94007">
        <ele>174.955698</ele>
        <time>2021-05-01T21:18:22.745Z</time>
      </trkpt>
      <trkpt lat="46.67635" lon="4.93988">
        <ele>175.204494</ele>
        <time>2021-05-01T21:19:05.784Z</time>
      </trkpt>
      <trkpt lat="46.6773" lon="4.93965">
        <ele>175.41602</ele>
        <time>2021-05-01T21:19:32.388Z</time>
      </trkpt>
      <trkpt lat="46.67821" lon="4.93944">
        <ele>175.621993</ele>
        <time>2021-05-01T21:19:58.292Z</time>
      </trkpt>
      <trkpt lat="46.67879" lon="4.93937">
        <ele>175.751072</ele>
        <time>2021-05-01T21:20:14.338Z</time>
      </trkpt>
      <trkpt lat="46.67982" lon="4.93937">
        <ele>175.981313</ele>
        <time>2021-05-01T21:20:42.847Z</time>
      </trkpt>
      <trkpt lat="46.68057" lon="4.93924">
        <ele>176.065314</ele>
        <time>2021-05-01T21:21:03.763Z</time>
      </trkpt>
      <trkpt lat="46.68105" lon="4.939">
        <ele>176.113611</ele>
        <time>2021-05-01T21:21:17.578Z</time>
      </trkpt>
      <trkpt lat="46.68351" lon="4.93701">
        <ele>175.991892</ele>
        <time>2021-05-01T21:22:32.290Z</time>
      </trkpt>
      <trkpt lat="46.68388" lon="4.9368">
        <ele>175.885004</ele>
        <time>2021-05-01T21:22:42.311Z</time>
      </trkpt>
      <trkpt lat="46.68434" lon="4.93661">
        <ele>175.756338</ele>
        <time>2021-05-01T21:22:54.256Z</time>
      </trkpt>
      <trkpt lat="46.68485" lon="4.93639">
        <ele>175.611981</ele>
        <time>2021-05-01T21:23:07.641Z</time>
      </trkpt>
      <trkpt lat="46.68603" lon="4.93598">
        <ele>175.388128</ele>
        <time>2021-05-01T21:23:38.377Z</time>
      </trkpt>
      <trkpt lat="46.68626" lon="4.93588">
        <ele>175.343202</ele>
        <time>2021-05-01T21:23:44.782Z</time>
      </trkpt>
      <trkpt lat="46.68652" lon="4.93576">
        <ele>175.292586</ele>
        <time>2021-05-01T21:23:52.180Z</time>
      </trkpt>
      <trkpt lat="46.68753" lon="4.9351">
        <ele>175.593329</ele>
        <time>2021-05-01T21:24:22.956Z</time>
      </trkpt>
      <trkpt lat="46.6883" lon="4.93479">
        <ele>175.837017</ele>
        <time>2021-05-01T21:24:45.999Z</time>
      </trkpt>
      <trkpt lat="46.6886" lon="4.93471">
        <ele>175.93861</ele>
        <time>2021-05-01T21:24:54.801Z</time>
      </trkpt>
      <trkpt lat="46.68906" lon="4.93458">
        <ele>176.094811</ele>
        <time>2021-05-01T21:25:08.241Z</time>
      </trkpt>
      <trkpt lat="46.69011" lon="4.93419">
        <ele>176.424327</ele>
        <time>2021-05-01T21:25:38.757Z</time>
      </trkpt>
      <trkpt lat="46.69136" lon="4.93352">
        <ele>176.428704</ele>
        <time>2021-05-01T21:26:14.422Z</time>
      </trkpt>
      <trkpt lat="46.69304" lon="4.93215">
        <ele>176.313197</ele>
        <time>2021-05-01T21:27:04.455Z</time>
      </trkpt>
      <trkpt lat="46.69416" lon="4.93084">
        <ele>176.562157</ele>
        <time>2021-05-01T21:27:43.931Z</time>
      </trkpt>
      <trkpt lat="46.69462" lon="4.93026">
        <ele>176.699334</ele>
        <time>2021-05-01T21:28:01.292Z</time>
      </trkpt>
      <trkpt lat="46.69464" lon="4.93024">
        <ele>176.704485</ele>
        <time>2021-05-01T21:28:01.869Z</time>
      </trkpt>
      <trkpt lat="46.69559" lon="4.92914">
        <ele>176.989528</ele>
        <time>2021-05-01T21:28:36.431Z</time>
      </trkpt>
      <trkpt lat="46.69583" lon="4.9289">
        <ele>177.055777</ele>
        <time>2021-05-01T21:28:44.196Z</time>
      </trkpt>
      <trkpt lat="46.69614" lon="4.92858">
        <ele>177.098036</ele>
        <time>2021-05-01T21:28:54.620Z</time>
      </trkpt>
      <trkpt lat="46.69648" lon="4.92821">
        <ele>177.011644</ele>
        <time>2021-05-01T21:29:05.723Z</time>
      </trkpt>
      <trkpt lat="46.69721" lon="4.92805">
        <ele>176.861526</ele>
        <time>2021-05-01T21:29:24.440Z</time>
      </trkpt>
      <trkpt lat="46.69765" lon="4.92782">
        <ele>176.766345</ele>
        <time>2021-05-01T21:29:36.224Z</time>
      </trkpt>
      <trkpt lat="46.69813" lon="4.92751">
        <ele>176.673764</ele>
        <time>2021-05-01T21:29:49.424Z</time>
      </trkpt>
      <trkpt lat="46.69818" lon="4.92748">
        <ele>176.665082</ele>
        <time>2021-05-01T21:29:50.716Z</time>
      </trkpt>
      <trkpt lat="46.69828" lon="4.92745">
        <ele>176.647322</ele>
        <time>2021-05-01T21:29:53.493Z</time>
      </trkpt>
      <trkpt lat="46.69839" lon="4.92744">
        <ele>176.62864</ele>
        <time>2021-05-01T21:29:56.203Z</time>
      </trkpt>
      <trkpt lat="46.6985" lon="4.92745">
        <ele>176.608403</ele>
        <time>2021-05-01T21:29:59.146Z</time>
      </trkpt>
      <trkpt lat="46.6986" lon="4.92747">
        <ele>176.591694</ele>
        <time>2021-05-01T21:30:01.768Z</time>
      </trkpt>
      <trkpt lat="46.69881" lon="4.92752">
        <ele>176.554692</ele>
        <time>2021-05-01T21:30:07.249Z</time>
      </trkpt>
      <trkpt lat="46.69891" lon="4.92751">
        <ele>176.538453</ele>
        <time>2021-05-01T21:30:09.662Z</time>
      </trkpt>
      <trkpt lat="46.69897" lon="4.92749">
        <ele>176.526673</ele>
        <time>2021-05-01T21:30:11.604Z</time>
      </trkpt>
      <trkpt lat="46.70033" lon="4.92662">
        <ele>176.417893</ele>
        <time>2021-05-01T21:30:51.369Z</time>
      </trkpt>
      <trkpt lat="46.70134" lon="4.92636">
        <ele>176.354207</ele>
        <time>2021-05-01T21:31:18.105Z</time>
      </trkpt>
      <trkpt lat="46.70139" lon="4.92634">
        <ele>176.342846</ele>
        <time>2021-05-01T21:31:19.670Z</time>
      </trkpt>
      <trkpt lat="46.70147" lon="4.92631">
        <ele>176.326957</ele>
        <time>2021-05-01T21:31:21.799Z</time>
      </trkpt>
      <trkpt lat="46.70159" lon="4.92624">
        <ele>176.303616</ele>
        <time>2021-05-01T21:31:25.051Z</time>
      </trkpt>
      <trkpt lat="46.70162" lon="4.9262">
        <ele>176.2956</ele>
        <time>2021-05-01T21:31:26.087Z</time>
      </trkpt>
      <trkpt lat="46.7017" lon="4.92614">
        <ele>176.279201</ele>
        <time>2021-05-01T21:31:28.332Z</time>
      </trkpt>
      <trkpt lat="46.70234" lon="4.9253">
        <ele>176.114276</ele>
        <time>2021-05-01T21:31:50.589Z</time>
      </trkpt>
      <trkpt lat="46.70275" lon="4.92442">
        <ele>176.026772</ele>
        <time>2021-05-01T21:32:09.372Z</time>
      </trkpt>
      <trkpt lat="46.70278" lon="4.92404">
        <ele>176.008904</ele>
        <time>2021-05-01T21:32:16.271Z</time>
      </trkpt>
      <trkpt lat="46.70282" lon="4.9238">
        <ele>175.997272</ele>
        <time>2021-05-01T21:32:20.785Z</time>
      </trkpt>
      <trkpt lat="46.70295" lon="4.92326">
        <ele>175.970237</ele>
        <time>2021-05-01T21:32:31.350Z</time>
      </trkpt>
      <trkpt lat="46.70313" lon="4.92284">
        <ele>175.946756</ele>
        <time>2021-05-01T21:32:40.529Z</time>
      </trkpt>
      <trkpt lat="46.70383" lon="4.9219">
        <ele>175.801166</ele>
        <time>2021-05-01T21:33:05.496Z</time>
      </trkpt>
      <trkpt lat="46.70387" lon="4.92184">
        <ele>175.790874</ele>
        <time>2021-05-01T21:33:07.092Z</time>
      </trkpt>
      <trkpt lat="46.70391" lon="4.92176">
        <ele>175.778531</ele>
        <time>2021-05-01T21:33:08.752Z</time>
      </trkpt>
      <trkpt lat="46.7042" lon="4.92102">
        <ele>175.673841</ele>
        <time>2021-05-01T21:33:23.679Z</time>
      </trkpt>
      <trkpt lat="46.70422" lon="4.92092">
        <ele>175.661065</ele>
        <time>2021-05-01T21:33:25.537Z</time>
      </trkpt>
      <trkpt lat="46.70505" lon="4.92203">
        <ele>175.461351</ele>
        <time>2021-05-01T21:33:54.648Z</time>
      </trkpt>
      <trkpt lat="46.70567" lon="4.92288">
        <ele>175.31147</ele>
        <time>2021-05-01T21:34:16.662Z</time>
      </trkpt>
      <trkpt lat="46.70576" lon="4.92301">
        <ele>175.286927</ele>
        <time>2021-05-01T21:34:20.111Z</time>
      </trkpt>
      <trkpt lat="46.70581" lon="4.92308">
        <ele>175.265363</ele>
        <time>2021-05-01T21:34:21.964Z</time>
      </trkpt>
      <trkpt lat="46.70588" lon="4.92318">
        <ele>175.234817</ele>
        <time>2021-05-01T21:34:24.401Z</time>
      </trkpt>
      <trkpt lat="46.70593" lon="4.92328">
        <ele>175.207388</ele>
        <time>2021-05-01T21:34:26.814Z</time>
      </trkpt>
      <trkpt lat="46.70664" lon="4.92458">
        <ele>174.85659</ele>
        <time>2021-05-01T21:34:56.033Z</time>
      </trkpt>
      <trkpt lat="46.70734" lon="4.92592">
        <ele>174.436505</ele>
        <time>2021-05-01T21:35:24.151Z</time>
      </trkpt>
      <trkpt lat="46.70738" lon="4.92598">
        <ele>174.414379</ele>
        <time>2021-05-01T21:35:25.464Z</time>
      </trkpt>
      <trkpt lat="46.70827" lon="4.92763">
        <ele>174.098681</ele>
        <time>2021-05-01T21:36:02.580Z</time>
      </trkpt>
      <trkpt lat="46.70894" lon="4.92877">
        <ele>174.24468</ele>
        <time>2021-05-01T21:36:32.141Z</time>
      </trkpt>
      <trkpt lat="46.70942" lon="4.92955">
        <ele>174.224681</ele>
        <time>2021-05-01T21:36:50.978Z</time>
      </trkpt>
      <trkpt lat="46.70993" lon="4.93035">
        <ele>174.109925</ele>
        <time>2021-05-01T21:37:10.087Z</time>
      </trkpt>
      <trkpt lat="46.71025" lon="4.9308">
        <ele>174.041558</ele>
        <time>2021-05-01T21:37:21.966Z</time>
      </trkpt>
      <trkpt lat="46.71039" lon="4.93097">
        <ele>174.014252</ele>
        <time>2021-05-01T21:37:26.137Z</time>
      </trkpt>
      <trkpt lat="46.71182" lon="4.93285">
        <ele>174.133372</ele>
        <time>2021-05-01T21:38:19.365Z</time>
      </trkpt>
      <trkpt lat="46.71215" lon="4.93329">
        <ele>173.97891</ele>
        <time>2021-05-01T21:38:31.442Z</time>
      </trkpt>
      <trkpt lat="46.71233" lon="4.93357">
        <ele>173.889712</ele>
        <time>2021-05-01T21:38:38.077Z</time>
      </trkpt>
      <trkpt lat="46.71248" lon="4.93393">
        <ele>173.789467</ele>
        <time>2021-05-01T21:38:45.287Z</time>
      </trkpt>
      <trkpt lat="46.71261" lon="4.93436">
        <ele>173.67761</ele>
        <time>2021-05-01T21:38:53.098Z</time>
      </trkpt>
      <trkpt lat="46.7129" lon="4.93523">
        <ele>173.363494</ele>
        <time>2021-05-01T21:39:08.573Z</time>
      </trkpt>
      <trkpt lat="46.71331" lon="4.9365">
        <ele>172.749372</ele>
        <time>2021-05-01T21:39:31.478Z</time>
      </trkpt>
      <trkpt lat="46.71366" lon="4.93761">
        <ele>172.5093</ele>
        <time>2021-05-01T21:39:53.028Z</time>
      </trkpt>
      <trkpt lat="46.71375" lon="4.93788">
        <ele>172.57472</ele>
        <time>2021-05-01T21:39:58.567Z</time>
      </trkpt>
      <trkpt lat="46.71503" lon="4.94185">
        <ele>173.980132</ele>
        <time>2021-05-01T21:41:27.088Z</time>
      </trkpt>
      <trkpt lat="46.71527" lon="4.94258">
        <ele>174.274242</ele>
        <time>2021-05-01T21:41:43.821Z</time>
      </trkpt>
      <trkpt lat="46.71557" lon="4.94346">
        <ele>174.630233</ele>
        <time>2021-05-01T21:42:04.064Z</time>
      </trkpt>
      <trkpt lat="46.71633" lon="4.94588">
        <ele>175.059413</ele>
        <time>2021-05-01T21:42:55.011Z</time>
      </trkpt>
      <trkpt lat="46.7164" lon="4.94609">
        <ele>175.070989</ele>
        <time>2021-05-01T21:42:59.076Z</time>
      </trkpt>
      <trkpt lat="46.71681" lon="4.94738">
        <ele>175.194392</ele>
        <time>2021-05-01T21:43:24.004Z</time>
      </trkpt>
      <trkpt lat="46.71705" lon="4.94784">
        <ele>175.263989</ele>
        <time>2021-05-01T21:43:34.471Z</time>
      </trkpt>
      <trkpt lat="46.71763" lon="4.94882">
        <ele>175.422238</ele>
        <time>2021-05-01T21:43:59.109Z</time>
      </trkpt>
      <trkpt lat="46.71769" lon="4.94893">
        <ele>175.588435</ele>
        <time>2021-05-01T21:44:02.871Z</time>
      </trkpt>
      <trkpt lat="46.71863" lon="4.95037">
        <ele>177.935748</ele>
        <time>2021-05-01T21:44:49.132Z</time>
      </trkpt>
      <trkpt lat="46.71869" lon="4.95047">
        <ele>178.100638</ele>
        <time>2021-05-01T21:44:53.409Z</time>
      </trkpt>
      <trkpt lat="46.71872" lon="4.95043">
        <ele>178.173242</ele>
        <time>2021-05-01T21:44:54.896Z</time>
      </trkpt>
      <trkpt lat="46.71875" lon="4.95038">
        <ele>178.246608</ele>
        <time>2021-05-01T21:44:56.404Z</time>
      </trkpt>
      <trkpt lat="46.71877" lon="4.95031">
        <ele>178.341709</ele>
        <time>2021-05-01T21:44:58.667Z</time>
      </trkpt>
      <trkpt lat="46.71879" lon="4.95034">
        <ele>178.397397</ele>
        <time>2021-05-01T21:45:00.360Z</time>
      </trkpt>
      <trkpt lat="46.71908" lon="4.95153">
        <ele>181.038834</ele>
        <time>2021-05-01T21:45:34.615Z</time>
      </trkpt>
      <trkpt lat="46.71913" lon="4.95169">
        <ele>181.431225</ele>
        <time>2021-05-01T21:45:40.138Z</time>
      </trkpt>
      <trkpt lat="46.71918" lon="4.95179">
        <ele>181.687704</ele>
        <time>2021-05-01T21:45:43.885Z</time>
      </trkpt>
      <trkpt lat="46.7195" lon="4.95214">
        <ele>182.964066</ele>
        <time>2021-05-01T21:46:01.561Z</time>
      </trkpt>
      <trkpt lat="46.71988" lon="4.95223">
        <ele>184.20434</ele>
        <time>2021-05-01T21:46:18.181Z</time>
      </trkpt>
      <trkpt lat="46.72009" lon="4.95222">
        <ele>184.82367</ele>
        <time>2021-05-01T21:46:27.267Z</time>
      </trkpt>
      <trkpt lat="46.72027" lon="4.95221">
        <ele>185.349423</ele>
        <time>2021-05-01T21:46:35.232Z</time>
      </trkpt>
      <trkpt lat="46.72044" lon="4.9522">
        <ele>185.866259</ele>
        <time>2021-05-01T21:46:42.820Z</time>
      </trkpt>
      <trkpt lat="46.72087" lon="4.95224">
        <ele>187.149451</ele>
        <time>2021-05-01T21:47:00.613Z</time>
      </trkpt>
      <trkpt lat="46.72092" lon="4.95225">
        <ele>187.274735</ele>
        <time>2021-05-01T21:47:02.746Z</time>
      </trkpt>
      <trkpt lat="46.72102" lon="4.95225">
        <ele>187.570265</ele>
        <time>2021-05-01T21:47:07.031Z</time>
      </trkpt>
      <trkpt lat="46.72124" lon="4.95222">
        <ele>188.236685</ele>
        <time>2021-05-01T21:47:15.781Z</time>
      </trkpt>
      <trkpt lat="46.72148" lon="4.95221">
        <ele>188.933829</ele>
        <time>2021-05-01T21:47:25.904Z</time>
      </trkpt>
      <trkpt lat="46.72166" lon="4.95219">
        <ele>189.466037</ele>
        <time>2021-05-01T21:47:33.154Z</time>
      </trkpt>
      <trkpt lat="46.72193" lon="4.95209">
        <ele>189.952832</ele>
        <time>2021-05-01T21:47:43.130Z</time>
      </trkpt>
      <trkpt lat="46.72243" lon="4.95166">
        <ele>190.859276</ele>
        <time>2021-05-01T21:48:04.844Z</time>
      </trkpt>
      <trkpt lat="46.72253" lon="4.95159">
        <ele>191.034201</ele>
        <time>2021-05-01T21:48:08.417Z</time>
      </trkpt>
      <trkpt lat="46.7226" lon="4.95154">
        <ele>191.156088</ele>
        <time>2021-05-01T21:48:11.107Z</time>
      </trkpt>
      <trkpt lat="46.72279" lon="4.95149">
        <ele>191.462098</ele>
        <time>2021-05-01T21:48:17.605Z</time>
      </trkpt>
      <trkpt lat="46.72319" lon="4.95154">
        <ele>192.087839</ele>
        <time>2021-05-01T21:48:30.986Z</time>
      </trkpt>
      <trkpt lat="46.72338" lon="4.95156">
        <ele>192.376846</ele>
        <time>2021-05-01T21:48:37.254Z</time>
      </trkpt>
      <trkpt lat="46.72353" lon="4.95158">
        <ele>192.505616</ele>
        <time>2021-05-01T21:48:42.219Z</time>
      </trkpt>
      <trkpt lat="46.72427" lon="4.95166">
        <ele>193.123115</ele>
        <time>2021-05-01T21:49:06.165Z</time>
      </trkpt>
      <trkpt lat="46.72441" lon="4.95173">
        <ele>193.247572</ele>
        <time>2021-05-01T21:49:10.906Z</time>
      </trkpt>
      <trkpt lat="46.72449" lon="4.95203">
        <ele>193.434836</ele>
        <time>2021-05-01T21:49:18.033Z</time>
      </trkpt>
      <trkpt lat="46.72451" lon="4.95212">
        <ele>193.489773</ele>
        <time>2021-05-01T21:49:20.137Z</time>
      </trkpt>
      <trkpt lat="46.72452" lon="4.95217">
        <ele>193.520073</ele>
        <time>2021-05-01T21:49:21.287Z</time>
      </trkpt>
      <trkpt lat="46.7247" lon="4.952">
        <ele>193.698533</ele>
        <time>2021-05-01T21:49:27.777Z</time>
      </trkpt>
      <trkpt lat="46.72482" lon="4.95189">
        <ele>193.817306</ele>
        <time>2021-05-01T21:49:32.034Z</time>
      </trkpt>
      <trkpt lat="46.72488" lon="4.95186">
        <ele>193.870807</ele>
        <time>2021-05-01T21:49:33.855Z</time>
      </trkpt>
      <trkpt lat="46.72567" lon="4.9515">
        <ele>194.070232</ele>
        <time>2021-05-01T21:49:57.596Z</time>
      </trkpt>
      <trkpt lat="46.72576" lon="4.95146">
        <ele>194.092141</ele>
        <time>2021-05-01T21:50:00.306Z</time>
      </trkpt>
      <trkpt lat="46.72621" lon="4.95126">
        <ele>194.201258</ele>
        <time>2021-05-01T21:50:12.589Z</time>
      </trkpt>
      <trkpt lat="46.72815" lon="4.94996">
        <ele>194.251178</ele>
        <time>2021-05-01T21:51:09.558Z</time>
      </trkpt>
      <trkpt lat="46.72823" lon="4.9499">
        <ele>194.248541</ele>
        <time>2021-05-01T21:51:11.857Z</time>
      </trkpt>
      <trkpt lat="46.72837" lon="4.94978">
        <ele>194.23978</ele>
        <time>2021-05-01T21:51:16.186Z</time>
      </trkpt>
      <trkpt lat="46.73234" lon="4.94569">
        <ele>194.183774</ele>
        <time>2021-05-01T21:53:25.029Z</time>
      </trkpt>
      <trkpt lat="46.7327" lon="4.94533">
        <ele>194.253012</ele>
        <time>2021-05-01T21:53:37.474Z</time>
      </trkpt>
      <trkpt lat="46.73281" lon="4.94521">
        <ele>194.32334</ele>
        <time>2021-05-01T21:53:41.339Z</time>
      </trkpt>
      <trkpt lat="46.73287" lon="4.9451">
        <ele>194.373464</ele>
        <time>2021-05-01T21:53:45.974Z</time>
      </trkpt>
      <trkpt lat="46.73556" lon="4.93869">
        <ele>196.690091</ele>
        <time>2021-05-01T21:57:48.964Z</time>
      </trkpt>
      <trkpt lat="46.73736" lon="4.93432">
        <ele>193.335001</ele>
        <time>2021-05-01T22:00:09.360Z</time>
      </trkpt>
      <trkpt lat="46.739" lon="4.93033">
        <ele>191.747742</ele>
        <time>2021-05-01T22:02:24.151Z</time>
      </trkpt>
      <trkpt lat="46.73939" lon="4.92944">
        <ele>191.782656</ele>
        <time>2021-05-01T22:02:57.077Z</time>
      </trkpt>
      <trkpt lat="46.73964" lon="4.92883">
        <ele>192.100698</ele>
        <time>2021-05-01T22:03:12.201Z</time>
      </trkpt>
      <trkpt lat="46.74195" lon="4.92326">
        <ele>194.7341</ele>
        <time>2021-05-01T22:05:26.920Z</time>
      </trkpt>
      <trkpt lat="46.74387" lon="4.91863">
        <ele>193.150778</ele>
        <time>2021-05-01T22:06:58.037Z</time>
      </trkpt>
      <trkpt lat="46.74527" lon="4.91529">
        <ele>192.474814</ele>
        <time>2021-05-01T22:08:05.864Z</time>
      </trkpt>
      <trkpt lat="46.74562" lon="4.91446">
        <ele>192.474239</ele>
        <time>2021-05-01T22:08:25.118Z</time>
      </trkpt>
      <trkpt lat="46.74592" lon="4.91373">
        <ele>192.448897</ele>
        <time>2021-05-01T22:08:42.360Z</time>
      </trkpt>
      <trkpt lat="46.74602" lon="4.91349">
        <ele>192.431327</ele>
        <time>2021-05-01T22:08:47.545Z</time>
      </trkpt>
      <trkpt lat="46.74653" lon="4.91226">
        <ele>192.339435</ele>
        <time>2021-05-01T22:09:14.040Z</time>
      </trkpt>
      <trkpt lat="46.74677" lon="4.91166">
        <ele>192.184893</ele>
        <time>2021-05-01T22:09:25.833Z</time>
      </trkpt>
      <trkpt lat="46.7483" lon="4.908">
        <ele>189.040434</ele>
        <time>2021-05-01T22:10:33.479Z</time>
      </trkpt>
      <trkpt lat="46.74903" lon="4.90624">
        <ele>187.196356</ele>
        <time>2021-05-01T22:11:04.703Z</time>
      </trkpt>
      <trkpt lat="46.74914" lon="4.90597">
        <ele>186.906771</ele>
        <time>2021-05-01T22:11:09.343Z</time>
      </trkpt>
      <trkpt lat="46.74952" lon="4.90531">
        <ele>186.106081</ele>
        <time>2021-05-01T22:11:22.752Z</time>
      </trkpt>
      <trkpt lat="46.74965" lon="4.90514">
        <ele>185.877105</ele>
        <time>2021-05-01T22:11:26.886Z</time>
      </trkpt>
      <trkpt lat="46.74969" lon="4.90509">
        <ele>185.821728</ele>
        <time>2021-05-01T22:11:28.037Z</time>
      </trkpt>
      <trkpt lat="46.75017" lon="4.90445">
        <ele>185.12459</ele>
        <time>2021-05-01T22:11:42.672Z</time>
      </trkpt>
      <trkpt lat="46.75071" lon="4.90382">
        <ele>184.378533</ele>
        <time>2021-05-01T22:11:58.691Z</time>
      </trkpt>
      <trkpt lat="46.75093" lon="4.90369">
        <ele>184.124681</ele>
        <time>2021-05-01T22:12:04.232Z</time>
      </trkpt>
      <trkpt lat="46.751" lon="4.90367">
        <ele>184.045077</ele>
        <time>2021-05-01T22:12:05.836Z</time>
      </trkpt>
      <trkpt lat="46.75173" lon="4.90305">
        <ele>183.376514</ele>
        <time>2021-05-01T22:12:25.875Z</time>
      </trkpt>
      <trkpt lat="46.75184" lon="4.90311">
        <ele>183.285053</ele>
        <time>2021-05-01T22:12:28.664Z</time>
      </trkpt>
      <trkpt lat="46.75265" lon="4.90268">
        <ele>182.618347</ele>
        <time>2021-05-01T22:12:49.098Z</time>
      </trkpt>
      <trkpt lat="46.7529" lon="4.90245">
        <ele>182.523906</ele>
        <time>2021-05-01T22:12:56.638Z</time>
      </trkpt>
      <trkpt lat="46.75401" lon="4.90189">
        <ele>182.176622</ele>
        <time>2021-05-01T22:13:26.564Z</time>
      </trkpt>
      <trkpt lat="46.75458" lon="4.90161">
        <ele>181.920103</ele>
        <time>2021-05-01T22:13:42.336Z</time>
      </trkpt>
      <trkpt lat="46.75489" lon="4.90144">
        <ele>181.729226</ele>
        <time>2021-05-01T22:13:50.704Z</time>
      </trkpt>
      <trkpt lat="46.75487" lon="4.90137">
        <ele>181.698119</ele>
        <time>2021-05-01T22:13:51.968Z</time>
      </trkpt>
      <trkpt lat="46.75485" lon="4.90122">
        <ele>181.638498</ele>
        <time>2021-05-01T22:13:54.658Z</time>
      </trkpt>
      <trkpt lat="46.75482" lon="4.901">
        <ele>181.548505</ele>
        <time>2021-05-01T22:13:58.599Z</time>
      </trkpt>
      <trkpt lat="46.75485" lon="4.90105">
        <ele>181.524883</ele>
        <time>2021-05-01T22:13:59.777Z</time>
      </trkpt>
      <trkpt lat="46.75507" lon="4.90124">
        <ele>181.36961</ele>
        <time>2021-05-01T22:14:06.294Z</time>
      </trkpt>
      <trkpt lat="46.75514" lon="4.90126">
        <ele>181.331016</ele>
        <time>2021-05-01T22:14:08.026Z</time>
      </trkpt>
      <trkpt lat="46.75574" lon="4.90105">
        <ele>180.918267</ele>
        <time>2021-05-01T22:14:22.988Z</time>
      </trkpt>
      <trkpt lat="46.75606" lon="4.90096">
        <ele>180.533041</ele>
        <time>2021-05-01T22:14:30.693Z</time>
      </trkpt>
      <trkpt lat="46.75687" lon="4.90082">
        <ele>179.560864</ele>
        <time>2021-05-01T22:14:50.103Z</time>
      </trkpt>
      <trkpt lat="46.75768" lon="4.90082">
        <ele>178.741419</ele>
        <time>2021-05-01T22:15:09.184Z</time>
      </trkpt>
      <trkpt lat="46.75829" lon="4.90087">
        <ele>178.372206</ele>
        <time>2021-05-01T22:15:24.142Z</time>
      </trkpt>
      <trkpt lat="46.75879" lon="4.90093">
        <ele>178.065435</ele>
        <time>2021-05-01T22:15:36.997Z</time>
      </trkpt>
      <trkpt lat="46.75894" lon="4.90095">
        <ele>177.973164</ele>
        <time>2021-05-01T22:15:41.001Z</time>
      </trkpt>
      <trkpt lat="46.75929" lon="4.90098">
        <ele>177.800722</ele>
        <time>2021-05-01T22:15:49.996Z</time>
      </trkpt>
      <trkpt lat="46.76316" lon="4.90129">
        <ele>178.280067</ele>
        <time>2021-05-01T22:17:37.434Z</time>
      </trkpt>
      <trkpt lat="46.76444" lon="4.90107">
        <ele>177.904509</ele>
        <time>2021-05-01T22:18:09.825Z</time>
      </trkpt>
      <trkpt lat="46.76535" lon="4.90067">
        <ele>177.392877</ele>
        <time>2021-05-01T22:18:32.833Z</time>
      </trkpt>
      <trkpt lat="46.76601" lon="4.90009">
        <ele>176.934232</ele>
        <time>2021-05-01T22:18:51.417Z</time>
      </trkpt>
      <trkpt lat="46.76631" lon="4.89982">
        <ele>176.754127</ele>
        <time>2021-05-01T22:19:00.444Z</time>
      </trkpt>
      <trkpt lat="46.76653" lon="4.89964">
        <ele>176.684072</ele>
        <time>2021-05-01T22:19:06.652Z</time>
      </trkpt>
      <trkpt lat="46.76695" lon="4.89917">
        <ele>176.539996</ele>
        <time>2021-05-01T22:19:19.707Z</time>
      </trkpt>
      <trkpt lat="46.76715" lon="4.89891">
        <ele>176.46623</ele>
        <time>2021-05-01T22:19:26.461Z</time>
      </trkpt>
      <trkpt lat="46.76745" lon="4.89845">
        <ele>176.348018</ele>
        <time>2021-05-01T22:19:37.590Z</time>
      </trkpt>
      <trkpt lat="46.76775" lon="4.89794">
        <ele>176.492385</ele>
        <time>2021-05-01T22:19:50.408Z</time>
      </trkpt>
      <trkpt lat="46.76825" lon="4.89704">
        <ele>177.166422</ele>
        <time>2021-05-01T22:20:14.851Z</time>
      </trkpt>
      <trkpt lat="46.76853" lon="4.8966">
        <ele>177.51965</ele>
        <time>2021-05-01T22:20:28.303Z</time>
      </trkpt>
      <trkpt lat="46.76856" lon="4.89655">
        <ele>177.55556</ele>
        <time>2021-05-01T22:20:29.796Z</time>
      </trkpt>
      <trkpt lat="46.76878" lon="4.89628">
        <ele>177.79953</ele>
        <time>2021-05-01T22:20:41.435Z</time>
      </trkpt>
      <trkpt lat="46.76903" lon="4.89579">
        <ele>178.166251</ele>
        <time>2021-05-01T22:20:58.326Z</time>
      </trkpt>
      <trkpt lat="46.76912" lon="4.89575">
        <ele>178.251806</ele>
        <time>2021-05-01T22:21:02.153Z</time>
      </trkpt>
      <trkpt lat="46.7693" lon="4.89592">
        <ele>178.445784</ele>
        <time>2021-05-01T22:21:11.039Z</time>
      </trkpt>
      <trkpt lat="46.76933" lon="4.89586">
        <ele>178.486874</ele>
        <time>2021-05-01T22:21:12.989Z</time>
      </trkpt>
      <trkpt lat="46.7696" lon="4.89538">
        <ele>178.870809</ele>
        <time>2021-05-01T22:21:27.000Z</time>
      </trkpt>
      <trkpt lat="46.77024" lon="4.89378">
        <ele>179.533013</ele>
        <time>2021-05-01T22:22:05.575Z</time>
      </trkpt>
      <trkpt lat="46.77028" lon="4.89358">
        <ele>179.560544</ele>
        <time>2021-05-01T22:22:09.590Z</time>
      </trkpt>
      <trkpt lat="46.77055" lon="4.89354">
        <ele>179.611239</ele>
        <time>2021-05-01T22:22:16.668Z</time>
      </trkpt>
      <trkpt lat="46.77086" lon="4.89347">
        <ele>179.670753</ele>
        <time>2021-05-01T22:22:25.027Z</time>
      </trkpt>
      <trkpt lat="46.77101" lon="4.89344">
        <ele>179.698685</ele>
        <time>2021-05-01T22:22:28.875Z</time>
      </trkpt>
      <trkpt lat="46.77159" lon="4.8933">
        <ele>179.757609</ele>
        <time>2021-05-01T22:22:44.984Z</time>
      </trkpt>
      <trkpt lat="46.77205" lon="4.89319">
        <ele>179.770841</ele>
        <time>2021-05-01T22:22:57.460Z</time>
      </trkpt>
      <trkpt lat="46.77217" lon="4.89316">
        <ele>179.774385</ele>
        <time>2021-05-01T22:23:00.778Z</time>
      </trkpt>
      <trkpt lat="46.7724" lon="4.89311">
        <ele>179.781353</ele>
        <time>2021-05-01T22:23:07.193Z</time>
      </trkpt>
      <trkpt lat="46.77254" lon="4.89307">
        <ele>179.785422</ele>
        <time>2021-05-01T22:23:10.923Z</time>
      </trkpt>
      <trkpt lat="46.7728" lon="4.89301">
        <ele>179.792884</ele>
        <time>2021-05-01T22:23:17.595Z</time>
      </trkpt>
      <trkpt lat="46.77286" lon="4.893">
        <ele>179.794641</ele>
        <time>2021-05-01T22:23:19.201Z</time>
      </trkpt>
      <trkpt lat="46.77293" lon="4.89299">
        <ele>179.796816</ele>
        <time>2021-05-01T22:23:21.238Z</time>
      </trkpt>
      <trkpt lat="46.77335" lon="4.8929">
        <ele>179.786816</ele>
        <time>2021-05-01T22:23:32.397Z</time>
      </trkpt>
      <trkpt lat="46.7735" lon="4.89285">
        <ele>179.780222</ele>
        <time>2021-05-01T22:23:36.523Z</time>
      </trkpt>
      <trkpt lat="46.77363" lon="4.89278">
        <ele>179.774092</ele>
        <time>2021-05-01T22:23:40.403Z</time>
      </trkpt>
      <trkpt lat="46.77381" lon="4.89267">
        <ele>179.765884</ele>
        <time>2021-05-01T22:23:45.496Z</time>
      </trkpt>
      <trkpt lat="46.77409" lon="4.89246">
        <ele>179.752358</ele>
        <time>2021-05-01T22:23:53.852Z</time>
      </trkpt>
      <trkpt lat="46.77428" lon="4.89232">
        <ele>179.743499</ele>
        <time>2021-05-01T22:23:59.341Z</time>
      </trkpt>
      <trkpt lat="46.77437" lon="4.89224">
        <ele>179.73891</ele>
        <time>2021-05-01T22:24:02.185Z</time>
      </trkpt>
      <trkpt lat="46.7744" lon="4.8922">
        <ele>179.737025</ele>
        <time>2021-05-01T22:24:03.354Z</time>
      </trkpt>
      <trkpt lat="46.77452" lon="4.89207">
        <ele>179.730649</ele>
        <time>2021-05-01T22:24:07.332Z</time>
      </trkpt>
      <trkpt lat="46.77475" lon="4.89181">
        <ele>179.736922</ele>
        <time>2021-05-01T22:24:15.112Z</time>
      </trkpt>
      <trkpt lat="46.77477" lon="4.89179">
        <ele>179.740467</ele>
        <time>2021-05-01T22:24:15.849Z</time>
      </trkpt>
      <trkpt lat="46.775" lon="4.8915">
        <ele>179.777551</ele>
        <time>2021-05-01T22:24:23.896Z</time>
      </trkpt>
      <trkpt lat="46.77504" lon="4.89145">
        <ele>179.783975</ele>
        <time>2021-05-01T22:24:25.280Z</time>
      </trkpt>
      <trkpt lat="46.77511" lon="4.89136">
        <ele>179.795377</ele>
        <time>2021-05-01T22:24:27.736Z</time>
      </trkpt>
      <trkpt lat="46.77515" lon="4.89128">
        <ele>179.803835</ele>
        <time>2021-05-01T22:24:29.553Z</time>
      </trkpt>
      <trkpt lat="46.77522" lon="4.89116">
        <ele>179.816836</ele>
        <time>2021-05-01T22:24:32.404Z</time>
      </trkpt>
      <trkpt lat="46.77527" lon="4.89106">
        <ele>179.827221</ele>
        <time>2021-05-01T22:24:35.018Z</time>
      </trkpt>
      <trkpt lat="46.7753" lon="4.89099">
        <ele>179.834888</ele>
        <time>2021-05-01T22:24:36.676Z</time>
      </trkpt>
      <trkpt lat="46.77533" lon="4.89093">
        <ele>179.84054</ele>
        <time>2021-05-01T22:24:37.931Z</time>
      </trkpt>
      <trkpt lat="46.77534" lon="4.8909">
        <ele>179.843683</ele>
        <time>2021-05-01T22:24:38.596Z</time>
      </trkpt>
      <trkpt lat="46.7754" lon="4.89076">
        <ele>179.857432</ele>
        <time>2021-05-01T22:24:41.624Z</time>
      </trkpt>
      <trkpt lat="46.77545" lon="4.89056">
        <ele>179.875503</ele>
        <time>2021-05-01T22:24:46.008Z</time>
      </trkpt>
      <trkpt lat="46.77546" lon="4.89052">
        <ele>179.87927</ele>
        <time>2021-05-01T22:24:46.827Z</time>
      </trkpt>
      <trkpt lat="46.77552" lon="4.89031">
        <ele>179.898053</ele>
        <time>2021-05-01T22:24:50.983Z</time>
      </trkpt>
      <trkpt lat="46.7756" lon="4.88999">
        <ele>179.927268</ele>
        <time>2021-05-01T22:24:58.299Z</time>
      </trkpt>
      <trkpt lat="46.77569" lon="4.88963">
        <ele>179.848668</ele>
        <time>2021-05-01T22:25:05.385Z</time>
      </trkpt>
      <trkpt lat="46.77578" lon="4.88926">
        <ele>179.633385</ele>
        <time>2021-05-01T22:25:11.963Z</time>
      </trkpt>
      <trkpt lat="46.77581" lon="4.88915">
        <ele>179.57252</ele>
        <time>2021-05-01T22:25:14.137Z</time>
      </trkpt>
      <trkpt lat="46.77599" lon="4.88824">
        <ele>179.05584</ele>
        <time>2021-05-01T22:25:29.096Z</time>
      </trkpt>
      <trkpt lat="46.77602" lon="4.88798">
        <ele>178.906845</ele>
        <time>2021-05-01T22:25:33.524Z</time>
      </trkpt>
      <trkpt lat="46.7761" lon="4.88735">
        <ele>178.55627</ele>
        <time>2021-05-01T22:25:43.357Z</time>
      </trkpt>
      <trkpt lat="46.77613" lon="4.88718">
        <ele>178.422006</ele>
        <time>2021-05-01T22:25:46.011Z</time>
      </trkpt>
      <trkpt lat="46.77614" lon="4.88712">
        <ele>178.365785</ele>
        <time>2021-05-01T22:25:46.876Z</time>
      </trkpt>
      <trkpt lat="46.77615" lon="4.88697">
        <ele>178.219727</ele>
        <time>2021-05-01T22:25:49.337Z</time>
      </trkpt>
      <trkpt lat="46.77618" lon="4.88679">
        <ele>178.034458</ele>
        <time>2021-05-01T22:25:52.213Z</time>
      </trkpt>
      <trkpt lat="46.77619" lon="4.88667">
        <ele>177.912884</ele>
        <time>2021-05-01T22:25:54.021Z</time>
      </trkpt>
      <trkpt lat="46.7762" lon="4.88661">
        <ele>177.855003</ele>
        <time>2021-05-01T22:25:54.857Z</time>
      </trkpt>
      <trkpt lat="46.77625" lon="4.88617">
        <ele>177.417859</ele>
        <time>2021-05-01T22:26:01.656Z</time>
      </trkpt>
      <trkpt lat="46.77625" lon="4.88615">
        <ele>177.396776</ele>
        <time>2021-05-01T22:26:01.979Z</time>
      </trkpt>
      <trkpt lat="46.77628" lon="4.88603">
        <ele>177.272044</ele>
        <time>2021-05-01T22:26:03.876Z</time>
      </trkpt>
      <trkpt lat="46.7763" lon="4.88603">
        <ele>177.240457</ele>
        <time>2021-05-01T22:26:04.393Z</time>
      </trkpt>
      <trkpt lat="46.77632" lon="4.88601">
        <ele>177.207955</ele>
        <time>2021-05-01T22:26:04.914Z</time>
      </trkpt>
      <trkpt lat="46.77633" lon="4.88598">
        <ele>177.17623</ele>
        <time>2021-05-01T22:26:05.430Z</time>
      </trkpt>
      <trkpt lat="46.77633" lon="4.88594">
        <ele>177.134853</ele>
        <time>2021-05-01T22:26:06.067Z</time>
      </trkpt>
      <trkpt lat="46.77631" lon="4.88591">
        <ele>177.092996</ele>
        <time>2021-05-01T22:26:06.681Z</time>
      </trkpt>
      <trkpt lat="46.77628" lon="4.8859">
        <ele>177.05223</ele>
        <time>2021-05-01T22:26:07.305Z</time>
      </trkpt>
      <trkpt lat="46.77629" lon="4.88577">
        <ele>176.9178</ele>
        <time>2021-05-01T22:26:09.273Z</time>
      </trkpt>
      <trkpt lat="46.7763" lon="4.88569">
        <ele>176.840287</ele>
        <time>2021-05-01T22:26:10.348Z</time>
      </trkpt>
      <trkpt lat="46.77632" lon="4.88547">
        <ele>176.626846</ele>
        <time>2021-05-01T22:26:13.555Z</time>
      </trkpt>
      <trkpt lat="46.77636" lon="4.88518">
        <ele>176.337441</ele>
        <time>2021-05-01T22:26:17.930Z</time>
      </trkpt>
      <trkpt lat="46.77651" lon="4.88404">
        <ele>175.505946</ele>
        <time>2021-05-01T22:26:36.515Z</time>
      </trkpt>
      <trkpt lat="46.77654" lon="4.88378">
        <ele>175.357507</ele>
        <time>2021-05-01T22:26:40.957Z</time>
      </trkpt>
      <trkpt lat="46.77663" lon="4.88306">
        <ele>174.94871</ele>
        <time>2021-05-01T22:26:53.041Z</time>
      </trkpt>
      <trkpt lat="46.77674" lon="4.88232">
        <ele>174.524566</ele>
        <time>2021-05-01T22:27:05.309Z</time>
      </trkpt>
      <trkpt lat="46.77681" lon="4.88196">
        <ele>174.393396</ele>
        <time>2021-05-01T22:27:11.410Z</time>
      </trkpt>
      <trkpt lat="46.77697" lon="4.88103">
        <ele>174.161818</ele>
        <time>2021-05-01T22:27:27.664Z</time>
      </trkpt>
      <trkpt lat="46.77705" lon="4.88053">
        <ele>174.040006</ele>
        <time>2021-05-01T22:27:36.567Z</time>
      </trkpt>
      <trkpt lat="46.77725" lon="4.87894">
        <ele>173.860623</ele>
        <time>2021-05-01T22:28:06.296Z</time>
      </trkpt>
      <trkpt lat="46.77729" lon="4.87862">
        <ele>173.877899</ele>
        <time>2021-05-01T22:28:12.388Z</time>
      </trkpt>
      <trkpt lat="46.77729" lon="4.87849">
        <ele>173.884857</ele>
        <time>2021-05-01T22:28:14.893Z</time>
      </trkpt>
      <trkpt lat="46.77728" lon="4.87826">
        <ele>173.896976</ele>
        <time>2021-05-01T22:28:19.427Z</time>
      </trkpt>
      <trkpt lat="46.77737" lon="4.87803">
        <ele>173.910715</ele>
        <time>2021-05-01T22:28:24.377Z</time>
      </trkpt>
      <trkpt lat="46.77742" lon="4.87806">
        <ele>173.915059</ele>
        <time>2021-05-01T22:28:25.965Z</time>
      </trkpt>
      <trkpt lat="46.77761" lon="4.87798">
        <ele>173.930367</ele>
        <time>2021-05-01T22:28:31.497Z</time>
      </trkpt>
      <trkpt lat="46.77764" lon="4.87794">
        <ele>173.933937</ele>
        <time>2021-05-01T22:28:32.754Z</time>
      </trkpt>
      <trkpt lat="46.77771" lon="4.87787">
        <ele>173.940509</ele>
        <time>2021-05-01T22:28:35.111Z</time>
      </trkpt>
      <trkpt lat="46.77773" lon="4.87785">
        <ele>173.941918</ele>
        <time>2021-05-01T22:28:35.606Z</time>
      </trkpt>
      <trkpt lat="46.77775" lon="4.8778">
        <ele>173.945334</ele>
        <time>2021-05-01T22:28:36.872Z</time>
      </trkpt>
      <trkpt lat="46.77783" lon="4.87746">
        <ele>173.9577</ele>
        <time>2021-05-01T22:28:43.507Z</time>
      </trkpt>
      <trkpt lat="46.77783" lon="4.87742">
        <ele>173.953154</ele>
        <time>2021-05-01T22:28:44.311Z</time>
      </trkpt>
      <trkpt lat="46.77792" lon="4.87735">
        <ele>173.934887</ele>
        <time>2021-05-01T22:28:47.043Z</time>
      </trkpt>
      <trkpt lat="46.77847" lon="4.87714">
        <ele>173.83579</ele>
        <time>2021-05-01T22:29:01.740Z</time>
      </trkpt>
      <trkpt lat="46.77867" lon="4.87707">
        <ele>173.799911</ele>
        <time>2021-05-01T22:29:07.065Z</time>
      </trkpt>
      <trkpt lat="46.77897" lon="4.87695">
        <ele>173.745174</ele>
        <time>2021-05-01T22:29:15.283Z</time>
      </trkpt>
      <trkpt lat="46.77935" lon="4.87676">
        <ele>173.675662</ele>
        <time>2021-05-01T22:29:25.663Z</time>
      </trkpt>
      <trkpt lat="46.77971" lon="4.87654">
        <ele>173.589167</ele>
        <time>2021-05-01T22:29:35.479Z</time>
      </trkpt>
      <trkpt lat="46.78028" lon="4.87608">
        <ele>173.428238</ele>
        <time>2021-05-01T22:29:51.651Z</time>
      </trkpt>
      <trkpt lat="46.78061" lon="4.87572">
        <ele>173.326366</ele>
        <time>2021-05-01T22:30:02.335Z</time>
      </trkpt>
      <trkpt lat="46.78088" lon="4.87539">
        <ele>173.238387</ele>
        <time>2021-05-01T22:30:11.555Z</time>
      </trkpt>
      <trkpt lat="46.78139" lon="4.87465">
        <ele>173.269022</ele>
        <time>2021-05-01T22:30:30.239Z</time>
      </trkpt>
      <trkpt lat="46.78276" lon="4.87258">
        <ele>173.776049</ele>
        <time>2021-05-01T22:31:25.580Z</time>
      </trkpt>
      <trkpt lat="46.78278" lon="4.87242">
        <ele>173.829312</ele>
        <time>2021-05-01T22:31:29.094Z</time>
      </trkpt>
      <trkpt lat="46.78292" lon="4.87212">
        <ele>173.95103</ele>
        <time>2021-05-01T22:31:36.775Z</time>
      </trkpt>
      <trkpt lat="46.78317" lon="4.87177">
        <ele>174.119307</ele>
        <time>2021-05-01T22:31:47.587Z</time>
      </trkpt>
      <trkpt lat="46.78331" lon="4.87163">
        <ele>174.198673</ele>
        <time>2021-05-01T22:31:52.805Z</time>
      </trkpt>
      <trkpt lat="46.78551" lon="4.86828">
        <ele>175.554866</ele>
        <time>2021-05-01T22:33:25.860Z</time>
      </trkpt>
      <trkpt lat="46.78558" lon="4.86815">
        <ele>175.583354</ele>
        <time>2021-05-01T22:33:29.130Z</time>
      </trkpt>
      <trkpt lat="46.78572" lon="4.86779">
        <ele>175.651786</ele>
        <time>2021-05-01T22:33:36.773Z</time>
      </trkpt>
      <trkpt lat="46.78582" lon="4.86764">
        <ele>175.688832</ele>
        <time>2021-05-01T22:33:40.375Z</time>
      </trkpt>
      <trkpt lat="46.78623" lon="4.86716">
        <ele>175.514502</ele>
        <time>2021-05-01T22:33:54.352Z</time>
      </trkpt>
      <trkpt lat="46.78626" lon="4.86704">
        <ele>175.480566</ele>
        <time>2021-05-01T22:33:56.553Z</time>
      </trkpt>
      <trkpt lat="46.78683" lon="4.86647">
        <ele>175.2037</ele>
        <time>2021-05-01T22:34:14.784Z</time>
      </trkpt>
      <trkpt lat="46.78688" lon="4.86641">
        <ele>175.176736</ele>
        <time>2021-05-01T22:34:16.205Z</time>
      </trkpt>
      <trkpt lat="46.78695" lon="4.86634">
        <ele>175.146061</ele>
        <time>2021-05-01T22:34:18.158Z</time>
      </trkpt>
      <trkpt lat="46.78786" lon="4.86542">
        <ele>174.812112</ele>
        <time>2021-05-01T22:34:47.294Z</time>
      </trkpt>
      <trkpt lat="46.78788" lon="4.8654">
        <ele>174.806199</ele>
        <time>2021-05-01T22:34:48.071Z</time>
      </trkpt>
      <trkpt lat="46.78797" lon="4.86535">
        <ele>174.782399</ele>
        <time>2021-05-01T22:34:50.773Z</time>
      </trkpt>
      <trkpt lat="46.78797" lon="4.86545">
        <ele>174.766118</ele>
        <time>2021-05-01T22:34:52.479Z</time>
      </trkpt>
      <trkpt lat="46.78799" lon="4.86556">
        <ele>174.748138</ele>
        <time>2021-05-01T22:34:54.095Z</time>
      </trkpt>
      <trkpt lat="46.78803" lon="4.86565">
        <ele>174.730102</ele>
        <time>2021-05-01T22:34:56.205Z</time>
      </trkpt>
      <trkpt lat="46.78808" lon="4.86573">
        <ele>174.712232</ele>
        <time>2021-05-01T22:34:58.200Z</time>
      </trkpt>
      <trkpt lat="46.78813" lon="4.86579">
        <ele>174.696154</ele>
        <time>2021-05-01T22:34:59.974Z</time>
      </trkpt>
      <trkpt lat="46.78817" lon="4.86581">
        <ele>174.685087</ele>
        <time>2021-05-01T22:35:01.207Z</time>
      </trkpt>
      <trkpt lat="46.78823" lon="4.86583">
        <ele>174.670392</ele>
        <time>2021-05-01T22:35:02.690Z</time>
      </trkpt>
      <trkpt lat="46.78828" lon="4.86583">
        <ele>174.65801</ele>
        <time>2021-05-01T22:35:04.020Z</time>
      </trkpt>
      <trkpt lat="46.78842" lon="4.86578">
        <ele>174.62415</ele>
        <time>2021-05-01T22:35:07.734Z</time>
      </trkpt>
      <trkpt lat="46.78845" lon="4.86574">
        <ele>174.613658</ele>
        <time>2021-05-01T22:35:08.852Z</time>
      </trkpt>
      <trkpt lat="46.78848" lon="4.86571">
        <ele>174.605593</ele>
        <time>2021-05-01T22:35:09.885Z</time>
      </trkpt>
      <trkpt lat="46.78855" lon="4.86555">
        <ele>174.573372</ele>
        <time>2021-05-01T22:35:13.329Z</time>
      </trkpt>
      <trkpt lat="46.78857" lon="4.86541">
        <ele>174.550852</ele>
        <time>2021-05-01T22:35:15.839Z</time>
      </trkpt>
      <trkpt lat="46.78857" lon="4.86535">
        <ele>174.550468</ele>
        <time>2021-05-01T22:35:17.049Z</time>
      </trkpt>
      <trkpt lat="46.78863" lon="4.86535">
        <ele>174.558487</ele>
        <time>2021-05-01T22:35:18.753Z</time>
      </trkpt>
      <trkpt lat="46.78865" lon="4.86534">
        <ele>174.56185</ele>
        <time>2021-05-01T22:35:19.605Z</time>
      </trkpt>
      <trkpt lat="46.78865" lon="4.86531">
        <ele>174.564549</ele>
        <time>2021-05-01T22:35:20.534Z</time>
      </trkpt>
      <trkpt lat="46.78864" lon="4.8652">
        <ele>174.574227</ele>
        <time>2021-05-01T22:35:23.796Z</time>
      </trkpt>
      <trkpt lat="46.78864" lon="4.86513">
        <ele>174.580968</ele>
        <time>2021-05-01T22:35:26.136Z</time>
      </trkpt>
      <trkpt lat="46.78865" lon="4.86508">
        <ele>174.585467</ele>
        <time>2021-05-01T22:35:27.395Z</time>
      </trkpt>
      <trkpt lat="46.78867" lon="4.86504">
        <ele>174.589474</ele>
        <time>2021-05-01T22:35:28.526Z</time>
      </trkpt>
      <trkpt lat="46.78871" lon="4.86497">
        <ele>174.597275</ele>
        <time>2021-05-01T22:35:30.667Z</time>
      </trkpt>
      <trkpt lat="46.78875" lon="4.8649">
        <ele>174.606211</ele>
        <time>2021-05-01T22:35:33.196Z</time>
      </trkpt>
      <trkpt lat="46.78893" lon="4.86466">
        <ele>174.637596</ele>
        <time>2021-05-01T22:35:41.760Z</time>
      </trkpt>
      <trkpt lat="46.7893" lon="4.86466">
        <ele>174.685695</ele>
        <time>2021-05-01T22:36:07.709Z</time>
      </trkpt>
      <trkpt lat="46.78893" lon="4.86466">
        <ele>174.733794</ele>
        <time>2021-05-01T22:36:33.659Z</time>
      </trkpt>
      <trkpt lat="46.78975" lon="4.86353">
        <ele>175.282904</ele>
        <time>2021-05-01T22:37:15.644Z</time>
      </trkpt>
      <trkpt lat="46.78977" lon="4.86351">
        <ele>175.29917</ele>
        <time>2021-05-01T22:37:16.754Z</time>
      </trkpt>
      <trkpt lat="46.78973" lon="4.86344">
        <ele>175.338609</ele>
        <time>2021-05-01T22:37:18.640Z</time>
      </trkpt>
      <trkpt lat="46.78991" lon="4.8632">
        <ele>175.498105</ele>
        <time>2021-05-01T22:37:26.294Z</time>
      </trkpt>
      <trkpt lat="46.79011" lon="4.86294">
        <ele>175.671283</ele>
        <time>2021-05-01T22:37:34.475Z</time>
      </trkpt>
      <trkpt lat="46.79031" lon="4.86272">
        <ele>175.833946</ele>
        <time>2021-05-01T22:37:42.177Z</time>
      </trkpt>
      <trkpt lat="46.79036" lon="4.86267">
        <ele>175.871905</ele>
        <time>2021-05-01T22:37:44.013Z</time>
      </trkpt>
      <trkpt lat="46.7904" lon="4.86264">
        <ele>175.899526</ele>
        <time>2021-05-01T22:37:45.218Z</time>
      </trkpt>
      <trkpt lat="46.79045" lon="4.86261">
        <ele>175.93719</ele>
        <time>2021-05-01T22:37:46.879Z</time>
      </trkpt>
      <trkpt lat="46.79047" lon="4.86262">
        <ele>175.949526</ele>
        <time>2021-05-01T22:37:47.471Z</time>
      </trkpt>
      <trkpt lat="46.79063" lon="4.8626">
        <ele>176.086874</ele>
        <time>2021-05-01T22:37:52.349Z</time>
      </trkpt>
      <trkpt lat="46.79066" lon="4.86258">
        <ele>176.117051</ele>
        <time>2021-05-01T22:37:53.526Z</time>
      </trkpt>
      <trkpt lat="46.79069" lon="4.86255">
        <ele>176.145763</ele>
        <time>2021-05-01T22:37:54.568Z</time>
      </trkpt>
      <trkpt lat="46.79077" lon="4.8624">
        <ele>176.253961</ele>
        <time>2021-05-01T22:37:58.312Z</time>
      </trkpt>
      <trkpt lat="46.79079" lon="4.86231">
        <ele>176.309391</ele>
        <time>2021-05-01T22:38:00.339Z</time>
      </trkpt>
      <trkpt lat="46.79079" lon="4.86225">
        <ele>176.34477</ele>
        <time>2021-05-01T22:38:01.602Z</time>
      </trkpt>
      <trkpt lat="46.79079" lon="4.86222">
        <ele>176.361655</ele>
        <time>2021-05-01T22:38:02.182Z</time>
      </trkpt>
      <trkpt lat="46.79078" lon="4.86219">
        <ele>176.379693</ele>
        <time>2021-05-01T22:38:02.781Z</time>
      </trkpt>
      <trkpt lat="46.79077" lon="4.86212">
        <ele>176.420829</ele>
        <time>2021-05-01T22:38:04.311Z</time>
      </trkpt>
      <trkpt lat="46.79068" lon="4.86196">
        <ele>176.54056</ele>
        <time>2021-05-01T22:38:08.478Z</time>
      </trkpt>
      <trkpt lat="46.79064" lon="4.86192">
        <ele>176.581038</ele>
        <time>2021-05-01T22:38:10.097Z</time>
      </trkpt>
      <trkpt lat="46.79057" lon="4.86189">
        <ele>176.641142</ele>
        <time>2021-05-01T22:38:12.237Z</time>
      </trkpt>
      <trkpt lat="46.7905" lon="4.86189">
        <ele>176.701228</ele>
        <time>2021-05-01T22:38:14.280Z</time>
      </trkpt>
      <trkpt lat="46.79044" lon="4.86192">
        <ele>176.760853</ele>
        <time>2021-05-01T22:38:16.527Z</time>
      </trkpt>
      <trkpt lat="46.79039" lon="4.86192">
        <ele>176.799775</ele>
        <time>2021-05-01T22:38:17.849Z</time>
      </trkpt>
      <trkpt lat="46.79027" lon="4.86189">
        <ele>176.901584</ele>
        <time>2021-05-01T22:38:21.654Z</time>
      </trkpt>
      <trkpt lat="46.79013" lon="4.86185">
        <ele>177.022877</ele>
        <time>2021-05-01T22:38:26.117Z</time>
      </trkpt>
      <trkpt lat="46.79006" lon="4.86179">
        <ele>177.088929</ele>
        <time>2021-05-01T22:38:28.484Z</time>
      </trkpt>
      <trkpt lat="46.78997" lon="4.8617">
        <ele>177.186723</ele>
        <time>2021-05-01T22:38:32.079Z</time>
      </trkpt>
      <trkpt lat="46.7899" lon="4.86163">
        <ele>177.258246</ele>
        <time>2021-05-01T22:38:34.650Z</time>
      </trkpt>
      <trkpt lat="46.78979" lon="4.86153">
        <ele>177.365018</ele>
        <time>2021-05-01T22:38:38.664Z</time>
      </trkpt>
      <trkpt lat="46.78962" lon="4.86137">
        <ele>177.639975</ele>
        <time>2021-05-01T22:38:44.756Z</time>
      </trkpt>
      <trkpt lat="46.78953" lon="4.86128">
        <ele>177.872278</ele>
        <time>2021-05-01T22:38:48.066Z</time>
      </trkpt>
      <trkpt lat="46.7894" lon="4.86115">
        <ele>178.216422</ele>
        <time>2021-05-01T22:38:52.811Z</time>
      </trkpt>
      <trkpt lat="46.78933" lon="4.86108">
        <ele>178.40857</ele>
        <time>2021-05-01T22:38:55.900Z</time>
      </trkpt>
      <trkpt lat="46.789" lon="4.86074">
        <ele>179.276663</ele>
        <time>2021-05-01T22:39:09.964Z</time>
      </trkpt>
      <trkpt lat="46.78904" lon="4.86066">
        <ele>179.430603</ele>
        <time>2021-05-01T22:39:12.738Z</time>
      </trkpt>
      <trkpt lat="46.78924" lon="4.86022">
        <ele>180.212469</ele>
        <time>2021-05-01T22:39:25.813Z</time>
      </trkpt>
      <trkpt lat="46.78955" lon="4.85952">
        <ele>181.513104</ele>
        <time>2021-05-01T22:39:49.949Z</time>
      </trkpt>
      <trkpt lat="46.78966" lon="4.85928">
        <ele>182.196109</ele>
        <time>2021-05-01T22:39:59.225Z</time>
      </trkpt>
      <trkpt lat="46.78979" lon="4.85868">
        <ele>183.761756</ele>
        <time>2021-05-01T22:40:18.474Z</time>
      </trkpt>
      <trkpt lat="46.78999" lon="4.85812">
        <ele>185.330861</ele>
        <time>2021-05-01T22:40:37.769Z</time>
      </trkpt>
      <trkpt lat="46.79001" lon="4.85807">
        <ele>185.483383</ele>
        <time>2021-05-01T22:40:40.625Z</time>
      </trkpt>
      <trkpt lat="46.79025" lon="4.8581">
        <ele>186.379296</ele>
        <time>2021-05-01T22:40:51.398Z</time>
      </trkpt>
      <trkpt lat="46.79028" lon="4.85808">
        <ele>186.504621</ele>
        <time>2021-05-01T22:40:52.967Z</time>
      </trkpt>
      <trkpt lat="46.79036" lon="4.85791">
        <ele>186.99672</ele>
        <time>2021-05-01T22:40:59.701Z</time>
      </trkpt>
      <trkpt lat="46.79037" lon="4.85786">
        <ele>187.142119</ele>
        <time>2021-05-01T22:41:01.864Z</time>
      </trkpt>
      <trkpt lat="46.7904" lon="4.85774">
        <ele>187.453136</ele>
        <time>2021-05-01T22:41:05.607Z</time>
      </trkpt>
      <trkpt lat="46.79043" lon="4.85748">
        <ele>187.969114</ele>
        <time>2021-05-01T22:41:13.425Z</time>
      </trkpt>
      <trkpt lat="46.79044" lon="4.85744">
        <ele>188.006973</ele>
        <time>2021-05-01T22:41:14.541Z</time>
      </trkpt>
      <trkpt lat="46.79045" lon="4.85732">
        <ele>188.112437</ele>
        <time>2021-05-01T22:41:17.652Z</time>
      </trkpt>
      <trkpt lat="46.7905" lon="4.85692">
        <ele>188.495523</ele>
        <time>2021-05-01T22:41:28.780Z</time>
      </trkpt>
      <trkpt lat="46.79051" lon="4.85685">
        <ele>188.561063</ele>
        <time>2021-05-01T22:41:30.584Z</time>
      </trkpt>
      <trkpt lat="46.79053" lon="4.85658">
        <ele>188.822724</ele>
        <time>2021-05-01T22:41:37.310Z</time>
      </trkpt>
      <trkpt lat="46.79054" lon="4.85652">
        <ele>188.873034</ele>
        <time>2021-05-01T22:41:38.407Z</time>
      </trkpt>
      <trkpt lat="46.79057" lon="4.85625">
        <ele>189.131763</ele>
        <time>2021-05-01T22:41:46.111Z</time>
      </trkpt>
      <trkpt lat="46.79062" lon="4.85559">
        <ele>189.756041</ele>
        <time>2021-05-01T22:42:00.273Z</time>
      </trkpt>
      <trkpt lat="46.79064" lon="4.8555">
        <ele>189.844017</ele>
        <time>2021-05-01T22:42:01.951Z</time>
      </trkpt>
      <trkpt lat="46.79067" lon="4.85539">
        <ele>189.948844</ele>
        <time>2021-05-01T22:42:03.983Z</time>
      </trkpt>
      <trkpt lat="46.79062" lon="4.85538">
        <ele>190.019826</ele>
        <time>2021-05-01T22:42:05.523Z</time>
      </trkpt>
      <trkpt lat="46.7906" lon="4.85538">
        <ele>190.043154</ele>
        <time>2021-05-01T22:42:06.040Z</time>
      </trkpt>
      <trkpt lat="46.79023" lon="4.85533">
        <ele>190.263943</ele>
        <time>2021-05-01T22:42:15.615Z</time>
      </trkpt>
      <trkpt lat="46.78999" lon="4.85529">
        <ele>190.13524</ele>
        <time>2021-05-01T22:42:21.932Z</time>
      </trkpt>
      <trkpt lat="46.78995" lon="4.85529">
        <ele>190.112778</ele>
        <time>2021-05-01T22:42:22.973Z</time>
      </trkpt>
      <trkpt lat="46.78995" lon="4.85522">
        <ele>190.088484</ele>
        <time>2021-05-01T22:42:24.200Z</time>
      </trkpt>
      <trkpt lat="46.78998" lon="4.85483">
        <ele>189.948323</ele>
        <time>2021-05-01T22:42:31.085Z</time>
      </trkpt>
      <trkpt lat="46.78999" lon="4.85476">
        <ele>189.924224</ele>
        <time>2021-05-01T22:42:32.207Z</time>
      </trkpt>
      <trkpt lat="46.79005" lon="4.85447">
        <ele>189.814416</ele>
        <time>2021-05-01T22:42:37.640Z</time>
      </trkpt>
      <trkpt lat="46.79007" lon="4.8544">
        <ele>189.788272</ele>
        <time>2021-05-01T22:42:38.874Z</time>
      </trkpt>
      <trkpt lat="46.79015" lon="4.85404">
        <ele>189.65419</ele>
        <time>2021-05-01T22:42:45.307Z</time>
      </trkpt>
      <trkpt lat="46.78997" lon="4.85394">
        <ele>189.551194</ele>
        <time>2021-05-01T22:42:51.599Z</time>
      </trkpt>
      <trkpt lat="46.78984" lon="4.85398">
        <ele>189.48077</ele>
        <time>2021-05-01T22:42:56.184Z</time>
      </trkpt>
      <trkpt lat="46.78921" lon="4.85357">
        <ele>189.404791</ele>
        <time>2021-05-01T22:43:19.046Z</time>
      </trkpt>
      <trkpt lat="46.78911" lon="4.85347">
        <ele>189.404791</ele>
        <time>2021-05-01T22:43:23.177Z</time>
      </trkpt>
      <trkpt lat="46.789" lon="4.85336">
        <ele>189.404791</ele>
        <time>2021-05-01T22:43:27.608Z</time>
      </trkpt>
      <trkpt lat="46.78893" lon="4.85325">
        <ele>189.404791</ele>
        <time>2021-05-01T22:43:31.042Z</time>
      </trkpt>
      <trkpt lat="46.78888" lon="4.85315">
        <ele>189.404791</ele>
        <time>2021-05-01T22:43:33.824Z</time>
      </trkpt>
      <trkpt lat="46.78895" lon="4.85307">
        <ele>189.404791</ele>
        <time>2021-05-01T22:43:36.109Z</time>
      </trkpt>
    </trkseg>
  </trk>
</gpx>